<?xml version="1.0" encoding="UTF-8" standalone="no" ?>
<gpx xmlns="http://www.topografix.com/GPX/1/1" xmlns:xsi="http://www.w3.org/2001/XMLSchema-instance" xsi:schemaLocation="http://www.topografix.com/GPX/1/1 http://www.topografix.com/GPX/1/1/gpx.xsd" version="1.1" creator="VisuGPX - https://www.visugpx.com">
  <metadata>
    <name>Ajout Pyrénées</name>
    <desc><![CDATA[Randonnée sur le GR®654 Via Lemovicensis vers Saint-Jacques-de-Compostelle à travers les Landes et les Pyrénées-Atlantiques de Mont-de-Marsan à Saint-Palais. Gîtes d'étapes, Chambres d'hôtes, Maison d'hôtes, Hôtels, Camping, Refuges, Auberges, Commerces.]]></desc>
  </metadata>
  <trk>
    <name><![CDATA[GR®653 Voie d'Arles - Via Tolosana (2021)]]></name>
    <desc><![CDATA[Randonnée sur le GR®653, Via Tolosana (Voie d'Arles) vers Saint-Jacques-de-Compostelle, à travers les Bouches-du-Rhône, le Gard, l'Hérault, le Tarn, la Haute-Garonne, le Gers et les Pyrénées-Atlantiques de Arles au Col du Somport. Gîtes d'étapes, Chambres d'hôtes, Maison d'hôtes, Hôtels, Camping, Refuges, Auberges, Commerces.]]></desc>
    <extensions>
      <line xmlns="http://www.topografix.com/GPX/gpx_style/0/2">
        <color>000000</color>
        <width>4</width>
      </line>
    </extensions>
    <trkseg>
      <trkpt lat="43.67158" lon="4.63644">
        <ele>8.891</ele>
        <time>2021-04-16T11:32:30Z</time>
      </trkpt>
      <trkpt lat="43.67245" lon="4.63489">
        <ele>9.819</ele>
        <time>2021-04-16T11:33:10Z</time>
      </trkpt>
      <trkpt lat="43.67267" lon="4.63431">
        <ele>9.508</ele>
        <time>2021-04-16T11:33:30Z</time>
      </trkpt>
      <trkpt lat="43.6732" lon="4.63333">
        <ele>8.876</ele>
        <time>2021-04-16T11:33:50Z</time>
      </trkpt>
      <trkpt lat="43.67317" lon="4.63325">
        <ele>8.849</ele>
        <time>2021-04-16T11:34:10Z</time>
      </trkpt>
      <trkpt lat="43.6737" lon="4.63216">
        <ele>11.325</ele>
        <time>2021-04-16T11:34:30Z</time>
      </trkpt>
      <trkpt lat="43.67504" lon="4.63241">
        <ele>20.964</ele>
        <time>2021-04-16T11:34:50Z</time>
      </trkpt>
      <trkpt lat="43.6757" lon="4.63278">
        <ele>23.061</ele>
        <time>2021-04-16T11:35:10Z</time>
      </trkpt>
      <trkpt lat="43.67576" lon="4.63251">
        <ele>24.612</ele>
        <time>2021-04-16T11:35:30Z</time>
      </trkpt>
      <trkpt lat="43.67602" lon="4.63243">
        <ele>25.141</ele>
        <time>2021-04-16T11:35:50Z</time>
      </trkpt>
      <trkpt lat="43.67613" lon="4.6325">
        <ele>25.022</ele>
        <time>2021-04-16T11:36:10Z</time>
      </trkpt>
      <trkpt lat="43.67614" lon="4.63229">
        <ele>25.589</ele>
        <time>2021-04-16T11:36:30Z</time>
      </trkpt>
      <trkpt lat="43.67636" lon="4.63212">
        <ele>26.306</ele>
        <time>2021-04-16T11:36:50Z</time>
      </trkpt>
      <trkpt lat="43.67626" lon="4.63165">
        <ele>27.526</ele>
        <time>2021-04-16T11:37:10Z</time>
      </trkpt>
      <trkpt lat="43.67619" lon="4.63091">
        <ele>25.108</ele>
        <time>2021-04-16T11:37:30Z</time>
      </trkpt>
      <trkpt lat="43.6763" lon="4.63048">
        <ele>24.565</ele>
        <time>2021-04-16T11:37:50Z</time>
      </trkpt>
      <trkpt lat="43.67643" lon="4.63053">
        <ele>24.828</ele>
        <time>2021-04-16T11:38:10Z</time>
      </trkpt>
      <trkpt lat="43.67667" lon="4.63048">
        <ele>25.114</ele>
        <time>2021-04-16T11:38:30Z</time>
      </trkpt>
      <trkpt lat="43.67688" lon="4.63017">
        <ele>24.643</ele>
        <time>2021-04-16T11:38:50Z</time>
      </trkpt>
      <trkpt lat="43.67698" lon="4.62978">
        <ele>25.13</ele>
        <time>2021-04-16T11:39:10Z</time>
      </trkpt>
      <trkpt lat="43.67697" lon="4.62779">
        <ele>22.571</ele>
        <time>2021-04-16T11:39:30Z</time>
      </trkpt>
      <trkpt lat="43.67606" lon="4.62781">
        <ele>20.77</ele>
        <time>2021-04-16T11:39:50Z</time>
      </trkpt>
      <trkpt lat="43.67616" lon="4.6272">
        <ele>19.091</ele>
        <time>2021-04-16T11:40:10Z</time>
      </trkpt>
      <trkpt lat="43.67641" lon="4.62618">
        <ele>20.096</ele>
        <time>2016-12-26T18:13:31Z</time>
      </trkpt>
      <trkpt lat="43.67669" lon="4.62549">
        <ele>16.824</ele>
        <time>2016-12-26T18:13:51Z</time>
      </trkpt>
      <trkpt lat="43.67722" lon="4.62437">
        <ele>15.708</ele>
        <time>2021-04-16T11:41:30Z</time>
      </trkpt>
      <trkpt lat="43.67699" lon="4.62427">
        <ele>13.216</ele>
        <time>2016-12-26T18:14:31Z</time>
      </trkpt>
      <trkpt lat="43.67685" lon="4.62365">
        <ele>11.459</ele>
        <time>2016-12-26T18:14:51Z</time>
      </trkpt>
      <trkpt lat="43.67583" lon="4.62188">
        <ele>13.065</ele>
        <time>2021-04-16T11:42:30Z</time>
      </trkpt>
      <trkpt lat="43.67622" lon="4.62164">
        <ele>12.534</ele>
        <time>2021-04-16T11:42:50Z</time>
      </trkpt>
      <trkpt lat="43.67676" lon="4.62077">
        <ele>8.681</ele>
        <time>2021-04-16T11:43:10Z</time>
      </trkpt>
      <trkpt lat="43.67753" lon="4.62212">
        <ele>11.862</ele>
        <time>2021-04-16T11:43:30Z</time>
      </trkpt>
      <trkpt lat="43.67827" lon="4.62368">
        <ele>9.941</ele>
        <time>2021-04-16T11:43:50Z</time>
      </trkpt>
      <trkpt lat="43.67957" lon="4.62247">
        <ele>9.032</ele>
        <time>2021-04-16T11:44:10Z</time>
      </trkpt>
      <trkpt lat="43.67902" lon="4.62116">
        <ele>3.021</ele>
        <time>2016-12-26T18:17:11Z</time>
      </trkpt>
      <trkpt lat="43.6798" lon="4.62029">
        <ele>3.041</ele>
        <time>2016-12-26T18:17:31Z</time>
      </trkpt>
      <trkpt lat="43.67956" lon="4.61949">
        <ele>3.005</ele>
        <time>2016-12-26T18:17:51Z</time>
      </trkpt>
      <trkpt lat="43.67957" lon="4.61812">
        <ele>3.008</ele>
        <time>2016-12-26T18:18:11Z</time>
      </trkpt>
      <trkpt lat="43.67933" lon="4.61758">
        <ele>3.099</ele>
        <time>2016-12-26T18:18:31Z</time>
      </trkpt>
      <trkpt lat="43.67866" lon="4.6175">
        <ele>8.042</ele>
        <time>2021-04-16T11:46:10Z</time>
      </trkpt>
      <trkpt lat="43.67816" lon="4.6172">
        <ele>8.078</ele>
        <time>2021-04-16T11:46:30Z</time>
      </trkpt>
      <trkpt lat="43.67767" lon="4.6167">
        <ele>3.067</ele>
        <time>2016-12-26T18:19:11Z</time>
      </trkpt>
      <trkpt lat="43.67712" lon="4.61603">
        <ele>7.584</ele>
        <time>2021-04-16T11:47:10Z</time>
      </trkpt>
      <trkpt lat="43.67652" lon="4.61512">
        <ele>3.085</ele>
        <time>2016-12-26T18:19:31Z</time>
      </trkpt>
      <trkpt lat="43.67542" lon="4.61269">
        <ele>7.194</ele>
        <time>2021-04-16T11:47:50Z</time>
      </trkpt>
      <trkpt lat="43.6744" lon="4.61029">
        <ele>3.035</ele>
        <time>2016-12-26T18:19:51Z</time>
      </trkpt>
      <trkpt lat="43.67378" lon="4.60728">
        <ele>3.097</ele>
        <time>2016-12-26T18:20:11Z</time>
      </trkpt>
      <trkpt lat="43.6735" lon="4.60628">
        <ele>3.523</ele>
        <time>2021-04-16T11:48:50Z</time>
      </trkpt>
      <trkpt lat="43.67358" lon="4.60546">
        <ele>5.325</ele>
        <time>2021-04-16T11:49:10Z</time>
      </trkpt>
      <trkpt lat="43.67352" lon="4.60472">
        <ele>3.008</ele>
        <time>2016-12-26T18:20:31Z</time>
      </trkpt>
      <trkpt lat="43.67293" lon="4.60239">
        <ele>4.976</ele>
        <time>2021-04-16T11:49:50Z</time>
      </trkpt>
      <trkpt lat="43.6725" lon="4.59957">
        <ele>4.159</ele>
        <time>2021-04-16T11:50:10Z</time>
      </trkpt>
      <trkpt lat="43.67207" lon="4.59619">
        <ele>3.995</ele>
        <time>2021-04-16T11:50:30Z</time>
      </trkpt>
      <trkpt lat="43.67068" lon="4.59352">
        <ele>2.064</ele>
        <time>2016-12-26T18:21:51Z</time>
      </trkpt>
      <trkpt lat="43.66998" lon="4.59181">
        <ele>2.081</ele>
        <time>2016-12-26T18:22:11Z</time>
      </trkpt>
      <trkpt lat="43.66842" lon="4.58943">
        <ele>2.072</ele>
        <time>2016-12-26T18:22:31Z</time>
      </trkpt>
      <trkpt lat="43.6682" lon="4.58864">
        <ele>2.061</ele>
        <time>2016-12-26T18:22:51Z</time>
      </trkpt>
      <trkpt lat="43.66759" lon="4.58697">
        <ele>2.052</ele>
        <time>2016-12-26T18:23:11Z</time>
      </trkpt>
      <trkpt lat="43.66682" lon="4.58349">
        <ele>2.084</ele>
        <time>2016-12-26T18:23:31Z</time>
      </trkpt>
      <trkpt lat="43.66598" lon="4.57971">
        <ele>2.007</ele>
        <time>2016-12-26T18:23:51Z</time>
      </trkpt>
      <trkpt lat="43.66578" lon="4.57788">
        <ele>1.017</ele>
        <time>2016-12-26T18:24:11Z</time>
      </trkpt>
      <trkpt lat="43.66586" lon="4.57548">
        <ele>1.008</ele>
        <time>2016-12-26T18:24:31Z</time>
      </trkpt>
      <trkpt lat="43.66571" lon="4.5728">
        <ele>1.065</ele>
        <time>2016-12-26T18:24:51Z</time>
      </trkpt>
      <trkpt lat="43.66517" lon="4.57273">
        <ele>1.098</ele>
        <time>2016-12-26T18:25:11Z</time>
      </trkpt>
      <trkpt lat="43.66508" lon="4.57094">
        <ele>1.094</ele>
        <time>2016-12-26T18:25:31Z</time>
      </trkpt>
      <trkpt lat="43.66459" lon="4.56663">
        <ele>1.083</ele>
        <time>2016-12-26T18:25:51Z</time>
      </trkpt>
      <trkpt lat="43.66443" lon="4.56207">
        <ele>1.03</ele>
        <time>2016-12-26T18:26:11Z</time>
      </trkpt>
      <trkpt lat="43.663" lon="4.55485">
        <ele>1.021</ele>
        <time>2016-12-26T18:26:31Z</time>
      </trkpt>
      <trkpt lat="43.66203" lon="4.54938">
        <ele>1.03</ele>
        <time>2016-12-26T18:26:51Z</time>
      </trkpt>
      <trkpt lat="43.66196" lon="4.54839">
        <ele>1.061</ele>
        <time>2016-12-26T18:27:11Z</time>
      </trkpt>
      <trkpt lat="43.66187" lon="4.54732">
        <ele>1.044</ele>
        <time>2016-12-26T18:27:31Z</time>
      </trkpt>
      <trkpt lat="43.66205" lon="4.54564">
        <ele>1.005</ele>
        <time>2016-12-26T18:27:51Z</time>
      </trkpt>
      <trkpt lat="43.66052" lon="4.54406">
        <ele>1.015</ele>
        <time>2016-12-26T18:28:11Z</time>
      </trkpt>
      <trkpt lat="43.66058" lon="4.54229">
        <ele>1.008</ele>
        <time>2016-12-26T18:28:31Z</time>
      </trkpt>
      <trkpt lat="43.65849" lon="4.53586">
        <ele>1.021</ele>
        <time>2016-12-26T18:28:51Z</time>
      </trkpt>
      <trkpt lat="43.65622" lon="4.52818">
        <ele>1.044</ele>
        <time>2016-12-26T18:29:11Z</time>
      </trkpt>
      <trkpt lat="43.65584" lon="4.52629">
        <ele>1.07</ele>
        <time>2016-12-26T18:29:31Z</time>
      </trkpt>
      <trkpt lat="43.6559" lon="4.52575">
        <ele>1.079</ele>
        <time>2016-12-26T18:29:51Z</time>
      </trkpt>
      <trkpt lat="43.65125" lon="4.511">
        <ele>1.016</ele>
        <time>2016-12-26T18:30:11Z</time>
      </trkpt>
      <trkpt lat="43.64965" lon="4.50595">
        <ele>1.027</ele>
        <time>2016-12-26T18:30:31Z</time>
      </trkpt>
      <trkpt lat="43.64976" lon="4.50311">
        <ele>1.066</ele>
        <time>2016-12-26T18:30:51Z</time>
      </trkpt>
      <trkpt lat="43.65353" lon="4.49671">
        <ele>1.087</ele>
        <time>2016-12-26T18:31:11Z</time>
      </trkpt>
      <trkpt lat="43.65425" lon="4.49478">
        <ele>1.024</ele>
        <time>2016-12-26T18:31:31Z</time>
      </trkpt>
      <trkpt lat="43.65458" lon="4.49354">
        <ele>1.004</ele>
        <time>2016-12-26T18:31:51Z</time>
      </trkpt>
      <trkpt lat="43.6542" lon="4.49205">
        <ele>1.014</ele>
        <time>2016-12-26T18:32:11Z</time>
      </trkpt>
      <trkpt lat="43.65197" lon="4.48906">
        <ele>1.008</ele>
        <time>2016-12-26T18:32:31Z</time>
      </trkpt>
      <trkpt lat="43.65117" lon="4.48709">
        <ele>1.099</ele>
        <time>2016-12-26T18:32:51Z</time>
      </trkpt>
      <trkpt lat="43.65345" lon="4.48556">
        <ele>1.042</ele>
        <time>2016-12-26T18:33:11Z</time>
      </trkpt>
      <trkpt lat="43.65419" lon="4.48476">
        <ele>1.098</ele>
        <time>2016-12-26T18:33:31Z</time>
      </trkpt>
      <trkpt lat="43.65622" lon="4.4821">
        <ele>1.047</ele>
        <time>2016-12-26T18:33:51Z</time>
      </trkpt>
      <trkpt lat="43.65703" lon="4.48182">
        <ele>2.884</ele>
        <time>2021-04-16T12:03:10Z</time>
      </trkpt>
      <trkpt lat="43.65766" lon="4.48139">
        <ele>1.035</ele>
        <time>2016-12-26T18:34:11Z</time>
      </trkpt>
      <trkpt lat="43.65827" lon="4.48079">
        <ele>3.074</ele>
        <time>2021-04-16T12:03:50Z</time>
      </trkpt>
      <trkpt lat="43.65888" lon="4.47995">
        <ele>1.045</ele>
        <time>2016-12-26T18:34:31Z</time>
      </trkpt>
      <trkpt lat="43.65989" lon="4.47776">
        <ele>1.612</ele>
        <time>2020-06-05T19:20:35Z</time>
      </trkpt>
      <trkpt lat="43.65997" lon="4.48051">
        <ele>2.032</ele>
        <time>2020-06-05T19:20:55Z</time>
      </trkpt>
      <trkpt lat="43.66198" lon="4.48042">
        <ele>2.005</ele>
        <time>2020-06-05T19:21:15Z</time>
      </trkpt>
      <trkpt lat="43.66261" lon="4.48059">
        <ele>2.008</ele>
        <time>2020-06-05T19:21:35Z</time>
      </trkpt>
      <trkpt lat="43.66295" lon="4.48045">
        <ele>5.218</ele>
        <time>2021-04-16T12:05:50Z</time>
      </trkpt>
      <trkpt lat="43.66352" lon="4.48031">
        <ele>2.041</ele>
        <time>2020-06-05T19:21:55Z</time>
      </trkpt>
      <trkpt lat="43.66306" lon="4.47252">
        <ele>1.097</ele>
        <time>2020-06-05T19:22:15Z</time>
      </trkpt>
      <trkpt lat="43.66413" lon="4.47085">
        <ele>1.036</ele>
        <time>2016-12-26T18:35:31Z</time>
      </trkpt>
      <trkpt lat="43.66454" lon="4.46972">
        <ele>1.023</ele>
        <time>2016-12-26T18:35:51Z</time>
      </trkpt>
      <trkpt lat="43.66737" lon="4.46084">
        <ele>2.034</ele>
        <time>2016-12-26T18:36:11Z</time>
      </trkpt>
      <trkpt lat="43.66734" lon="4.46013">
        <ele>2.053</ele>
        <time>2016-12-26T18:36:31Z</time>
      </trkpt>
      <trkpt lat="43.66628" lon="4.45714">
        <ele>8.494</ele>
        <time>2021-04-16T12:08:10Z</time>
      </trkpt>
      <trkpt lat="43.666" lon="4.45676">
        <ele>7.413</ele>
        <time>2021-04-16T12:08:30Z</time>
      </trkpt>
      <trkpt lat="43.66538" lon="4.45658">
        <ele>2.043</ele>
        <time>2016-12-26T18:37:11Z</time>
      </trkpt>
      <trkpt lat="43.6651" lon="4.4559">
        <ele>2.007</ele>
        <time>2016-12-26T18:37:31Z</time>
      </trkpt>
      <trkpt lat="43.66509" lon="4.45518">
        <ele>2.008</ele>
        <time>2016-12-26T18:37:51Z</time>
      </trkpt>
      <trkpt lat="43.66487" lon="4.45446">
        <ele>2.018</ele>
        <time>2016-12-26T18:38:11Z</time>
      </trkpt>
      <trkpt lat="43.66462" lon="4.45428">
        <ele>2.021</ele>
        <time>2016-12-26T18:38:31Z</time>
      </trkpt>
      <trkpt lat="43.66665" lon="4.45171">
        <ele>2.077</ele>
        <time>2016-12-26T18:38:51Z</time>
      </trkpt>
      <trkpt lat="43.66664" lon="4.45219">
        <ele>2.086</ele>
        <time>2016-12-26T18:41:51Z</time>
      </trkpt>
      <trkpt lat="43.66743" lon="4.45091">
        <ele>2.083</ele>
        <time>2016-12-26T18:42:11Z</time>
      </trkpt>
      <trkpt lat="43.66861" lon="4.45151">
        <ele>2.024</ele>
        <time>2016-12-26T18:42:31Z</time>
      </trkpt>
      <trkpt lat="43.66932" lon="4.44979">
        <ele>1.063</ele>
        <time>2016-12-26T18:42:51Z</time>
      </trkpt>
      <trkpt lat="43.67048" lon="4.45084">
        <ele>1.094</ele>
        <time>2016-12-26T18:43:11Z</time>
      </trkpt>
      <trkpt lat="43.67137" lon="4.45286">
        <ele>1.028</ele>
        <time>2016-12-26T18:43:31Z</time>
      </trkpt>
      <trkpt lat="43.67374" lon="4.45654">
        <ele>1.089</ele>
        <time>2016-12-26T18:43:51Z</time>
      </trkpt>
      <trkpt lat="43.67399" lon="4.45649">
        <ele>1.017</ele>
        <time>2016-12-26T18:44:11Z</time>
      </trkpt>
      <trkpt lat="43.67368" lon="4.45357">
        <ele>1.008</ele>
        <time>2016-12-26T18:44:31Z</time>
      </trkpt>
      <trkpt lat="43.67537" lon="4.45068">
        <ele>1.019</ele>
        <time>2016-12-26T18:44:51Z</time>
      </trkpt>
      <trkpt lat="43.67635" lon="4.44948">
        <ele>1.062</ele>
        <time>2016-12-26T18:45:11Z</time>
      </trkpt>
      <trkpt lat="43.67784" lon="4.44763">
        <ele>1.028</ele>
        <time>2016-12-26T18:45:31Z</time>
      </trkpt>
      <trkpt lat="43.6787" lon="4.44353">
        <ele>1.067</ele>
        <time>2016-12-26T18:45:51Z</time>
      </trkpt>
      <trkpt lat="43.67861" lon="4.44232">
        <ele>1.074</ele>
        <time>2016-12-26T18:46:11Z</time>
      </trkpt>
      <trkpt lat="43.67819" lon="4.44098">
        <ele>1.065</ele>
        <time>2016-12-26T18:46:31Z</time>
      </trkpt>
      <trkpt lat="43.67813" lon="4.44052">
        <ele>1.034</ele>
        <time>2016-12-26T18:46:51Z</time>
      </trkpt>
      <trkpt lat="43.67823" lon="4.44018">
        <ele>1.065</ele>
        <time>2016-12-26T18:47:11Z</time>
      </trkpt>
      <trkpt lat="43.67796" lon="4.43991">
        <ele>1.048</ele>
        <time>2016-12-26T18:47:31Z</time>
      </trkpt>
      <trkpt lat="43.67822" lon="4.43921">
        <ele>1.061</ele>
        <time>2016-12-26T18:47:51Z</time>
      </trkpt>
      <trkpt lat="43.6781" lon="4.43905">
        <ele>1.017</ele>
        <time>2016-12-26T18:48:11Z</time>
      </trkpt>
      <trkpt lat="43.67834" lon="4.43871">
        <ele>1.008</ele>
        <time>2016-12-26T18:48:31Z</time>
      </trkpt>
      <trkpt lat="43.67839" lon="4.43781">
        <ele>1.951</ele>
        <time>2016-12-26T18:48:51Z</time>
      </trkpt>
      <trkpt lat="43.67922" lon="4.43595">
        <ele>19.924</ele>
        <time>2016-12-26T18:49:11Z</time>
      </trkpt>
      <trkpt lat="43.67858" lon="4.43546">
        <ele>18.97</ele>
        <time>2016-12-26T18:49:31Z</time>
      </trkpt>
      <trkpt lat="43.67778" lon="4.43426">
        <ele>20.039</ele>
        <time>2016-12-26T18:49:51Z</time>
      </trkpt>
      <trkpt lat="43.67752" lon="4.43422">
        <ele>18.776</ele>
        <time>2016-12-26T18:50:11Z</time>
      </trkpt>
      <trkpt lat="43.67712" lon="4.43391">
        <ele>16.337</ele>
        <time>2016-12-26T18:50:31Z</time>
      </trkpt>
      <trkpt lat="43.67731" lon="4.4334">
        <ele>16.636</ele>
        <time>2016-12-26T18:50:51Z</time>
      </trkpt>
      <trkpt lat="43.67701" lon="4.43307">
        <ele>15.257</ele>
        <time>2016-12-26T18:51:11Z</time>
      </trkpt>
      <trkpt lat="43.67714" lon="4.43181">
        <ele>14.663</ele>
        <time>2016-12-26T18:51:31Z</time>
      </trkpt>
      <trkpt lat="43.67683" lon="4.43161">
        <ele>12.444</ele>
        <time>2016-12-26T18:51:51Z</time>
      </trkpt>
      <trkpt lat="43.67657" lon="4.4309">
        <ele>9.718</ele>
        <time>2016-12-26T18:52:11Z</time>
      </trkpt>
      <trkpt lat="43.67707" lon="4.43011">
        <ele>8.408</ele>
        <time>2016-12-26T18:52:31Z</time>
      </trkpt>
      <trkpt lat="43.67716" lon="4.42969">
        <ele>6.973</ele>
        <time>2016-12-26T18:52:51Z</time>
      </trkpt>
      <trkpt lat="43.67701" lon="4.42878">
        <ele>5.026</ele>
        <time>2016-12-26T18:53:11Z</time>
      </trkpt>
      <trkpt lat="43.67675" lon="4.42801">
        <ele>5.072</ele>
        <time>2016-12-26T18:53:31Z</time>
      </trkpt>
      <trkpt lat="43.67544" lon="4.42559">
        <ele>8.341</ele>
        <time>2016-12-26T18:53:51Z</time>
      </trkpt>
      <trkpt lat="43.67495" lon="4.42508">
        <ele>14.838</ele>
        <time>2021-04-16T12:23:10Z</time>
      </trkpt>
      <trkpt lat="43.67367" lon="4.42437">
        <ele>15.059</ele>
        <time>2016-12-26T18:54:51Z</time>
      </trkpt>
      <trkpt lat="43.67223" lon="4.42338">
        <ele>14.338</ele>
        <time>2021-04-16T12:23:50Z</time>
      </trkpt>
      <trkpt lat="43.66974" lon="4.42208">
        <ele>10.599</ele>
        <time>2016-12-26T18:55:31Z</time>
      </trkpt>
      <trkpt lat="43.66938" lon="4.41867">
        <ele>11.095</ele>
        <time>2016-12-26T18:55:51Z</time>
      </trkpt>
      <trkpt lat="43.66885" lon="4.41744">
        <ele>10.949</ele>
        <time>2016-12-26T18:56:11Z</time>
      </trkpt>
      <trkpt lat="43.66853" lon="4.41543">
        <ele>11.023</ele>
        <time>2016-12-26T18:56:31Z</time>
      </trkpt>
      <trkpt lat="43.66781" lon="4.4135">
        <ele>10.008</ele>
        <time>2016-12-26T18:56:51Z</time>
      </trkpt>
      <trkpt lat="43.66681" lon="4.40885">
        <ele>7.546</ele>
        <time>2016-12-26T18:57:11Z</time>
      </trkpt>
      <trkpt lat="43.6664" lon="4.40633">
        <ele>6.899</ele>
        <time>2016-12-26T18:57:31Z</time>
      </trkpt>
      <trkpt lat="43.66586" lon="4.4041">
        <ele>5.025</ele>
        <time>2016-12-26T18:57:51Z</time>
      </trkpt>
      <trkpt lat="43.66542" lon="4.40158">
        <ele>5.044</ele>
        <time>2016-12-26T18:58:11Z</time>
      </trkpt>
      <trkpt lat="43.66528" lon="4.39935">
        <ele>5.061</ele>
        <time>2016-12-26T18:58:31Z</time>
      </trkpt>
      <trkpt lat="43.66468" lon="4.3965">
        <ele>4.052</ele>
        <time>2016-12-26T18:58:51Z</time>
      </trkpt>
      <trkpt lat="43.66441" lon="4.39469">
        <ele>4.041</ele>
        <time>2016-12-26T18:59:11Z</time>
      </trkpt>
      <trkpt lat="43.66636" lon="4.39331">
        <ele>5.252</ele>
        <time>2021-04-16T12:28:10Z</time>
      </trkpt>
      <trkpt lat="43.66642" lon="4.39289">
        <ele>5.037</ele>
        <time>2021-04-16T12:28:30Z</time>
      </trkpt>
      <trkpt lat="43.66594" lon="4.38879">
        <ele>5.049</ele>
        <time>2016-12-26T19:00:11Z</time>
      </trkpt>
      <trkpt lat="43.66814" lon="4.3863">
        <ele>5.013</ele>
        <time>2016-12-26T19:00:31Z</time>
      </trkpt>
      <trkpt lat="43.66858" lon="4.38626">
        <ele>5.008</ele>
        <time>2016-12-26T19:00:51Z</time>
      </trkpt>
      <trkpt lat="43.66869" lon="4.38572">
        <ele>5.04</ele>
        <time>2016-12-26T19:01:11Z</time>
      </trkpt>
      <trkpt lat="43.66998" lon="4.38426">
        <ele>5.053</ele>
        <time>2016-12-26T19:01:31Z</time>
      </trkpt>
      <trkpt lat="43.66981" lon="4.3833">
        <ele>5.059</ele>
        <time>2016-12-26T19:01:51Z</time>
      </trkpt>
      <trkpt lat="43.67057" lon="4.3833">
        <ele>5.028</ele>
        <time>2016-12-26T19:02:11Z</time>
      </trkpt>
      <trkpt lat="43.67109" lon="4.3829">
        <ele>5.035</ele>
        <time>2016-12-26T19:02:31Z</time>
      </trkpt>
      <trkpt lat="43.6725" lon="4.38053">
        <ele>6.096</ele>
        <time>2016-12-26T19:02:51Z</time>
      </trkpt>
      <trkpt lat="43.67292" lon="4.37923">
        <ele>8.035</ele>
        <time>2016-12-26T19:03:11Z</time>
      </trkpt>
      <trkpt lat="43.67338" lon="4.37683">
        <ele>9.266</ele>
        <time>2016-12-26T19:03:31Z</time>
      </trkpt>
      <trkpt lat="43.67416" lon="4.37474">
        <ele>12.025</ele>
        <time>2016-12-26T19:03:51Z</time>
      </trkpt>
      <trkpt lat="43.67497" lon="4.37194">
        <ele>15.026</ele>
        <time>2016-12-26T19:04:11Z</time>
      </trkpt>
      <trkpt lat="43.67554" lon="4.36952">
        <ele>19.008</ele>
        <time>2016-12-26T19:04:31Z</time>
      </trkpt>
      <trkpt lat="43.6748" lon="4.36905">
        <ele>18.408</ele>
        <time>2016-12-26T19:04:51Z</time>
      </trkpt>
      <trkpt lat="43.67433" lon="4.36831">
        <ele>18.689</ele>
        <time>2016-12-26T19:05:11Z</time>
      </trkpt>
      <trkpt lat="43.67313" lon="4.36537">
        <ele>15.782</ele>
        <time>2016-12-26T19:05:31Z</time>
      </trkpt>
      <trkpt lat="43.67247" lon="4.36502">
        <ele>15.938</ele>
        <time>2016-12-26T19:05:51Z</time>
      </trkpt>
      <trkpt lat="43.67231" lon="4.36464">
        <ele>16.057</ele>
        <time>2016-12-26T19:06:11Z</time>
      </trkpt>
      <trkpt lat="43.67226" lon="4.36362">
        <ele>17.064</ele>
        <time>2016-12-26T19:06:31Z</time>
      </trkpt>
      <trkpt lat="43.67128" lon="4.36223">
        <ele>16.665</ele>
        <time>2016-12-26T19:06:51Z</time>
      </trkpt>
      <trkpt lat="43.6609" lon="4.3494">
        <ele>16.394</ele>
        <time>2016-12-26T19:07:11Z</time>
      </trkpt>
      <trkpt lat="43.66058" lon="4.34846">
        <ele>15.635</ele>
        <time>2016-12-26T19:07:31Z</time>
      </trkpt>
      <trkpt lat="43.65955" lon="4.34328">
        <ele>23.183</ele>
        <time>2016-12-26T19:07:51Z</time>
      </trkpt>
      <trkpt lat="43.65911" lon="4.34213">
        <ele>21.825</ele>
        <time>2016-12-26T19:08:11Z</time>
      </trkpt>
      <trkpt lat="43.65794" lon="4.34051">
        <ele>18.617</ele>
        <time>2016-12-26T19:09:31Z</time>
      </trkpt>
      <trkpt lat="43.65751" lon="4.33927">
        <ele>19.008</ele>
        <time>2016-12-26T19:09:51Z</time>
      </trkpt>
      <trkpt lat="43.65737" lon="4.33822">
        <ele>16.785</ele>
        <time>2016-12-26T19:10:11Z</time>
      </trkpt>
      <trkpt lat="43.6573" lon="4.33635">
        <ele>15.028</ele>
        <time>2016-12-26T19:10:31Z</time>
      </trkpt>
      <trkpt lat="43.65719" lon="4.33558">
        <ele>17.274</ele>
        <time>2016-12-26T19:10:51Z</time>
      </trkpt>
      <trkpt lat="43.65763" lon="4.33549">
        <ele>15.323</ele>
        <time>2016-12-26T19:11:11Z</time>
      </trkpt>
      <trkpt lat="43.65775" lon="4.33715">
        <ele>16.62</ele>
        <time>2016-12-26T19:11:31Z</time>
      </trkpt>
      <trkpt lat="43.65951" lon="4.33529">
        <ele>18.311</ele>
        <time>2016-12-26T19:11:51Z</time>
      </trkpt>
      <trkpt lat="43.66256" lon="4.33323">
        <ele>22.82</ele>
        <time>2016-12-26T19:12:11Z</time>
      </trkpt>
      <trkpt lat="43.66259" lon="4.33242">
        <ele>21.481</ele>
        <time>2021-04-16T12:40:10Z</time>
      </trkpt>
      <trkpt lat="43.66232" lon="4.32958">
        <ele>36.849</ele>
        <time>2016-12-26T19:12:31Z</time>
      </trkpt>
      <trkpt lat="43.66305" lon="4.32806">
        <ele>46.002</ele>
        <time>2016-12-26T19:12:51Z</time>
      </trkpt>
      <trkpt lat="43.66324" lon="4.32739">
        <ele>45.722</ele>
        <time>2016-12-26T19:13:11Z</time>
      </trkpt>
      <trkpt lat="43.66339" lon="4.32635">
        <ele>45.008</ele>
        <time>2016-12-26T19:13:31Z</time>
      </trkpt>
      <trkpt lat="43.66332" lon="4.32448">
        <ele>49.891</ele>
        <time>2016-12-26T19:13:51Z</time>
      </trkpt>
      <trkpt lat="43.66319" lon="4.32383">
        <ele>50.084</ele>
        <time>2016-12-26T19:14:11Z</time>
      </trkpt>
      <trkpt lat="43.66318" lon="4.32198">
        <ele>48.35</ele>
        <time>2016-12-26T19:14:31Z</time>
      </trkpt>
      <trkpt lat="43.6631" lon="4.32156">
        <ele>45.349</ele>
        <time>2016-12-26T19:14:51Z</time>
      </trkpt>
      <trkpt lat="43.66332" lon="4.3204">
        <ele>35.046</ele>
        <time>2016-12-26T19:15:11Z</time>
      </trkpt>
      <trkpt lat="43.66352" lon="4.32012">
        <ele>35.087</ele>
        <time>2016-12-26T19:15:31Z</time>
      </trkpt>
      <trkpt lat="43.66337" lon="4.31954">
        <ele>35.266</ele>
        <time>2016-12-26T19:15:51Z</time>
      </trkpt>
      <trkpt lat="43.66658" lon="4.32181">
        <ele>40.047</ele>
        <time>2016-12-26T19:16:11Z</time>
      </trkpt>
      <trkpt lat="43.66799" lon="4.32081">
        <ele>48.473</ele>
        <time>2016-12-26T19:16:31Z</time>
      </trkpt>
      <trkpt lat="43.66876" lon="4.32035">
        <ele>53.685</ele>
        <time>2016-12-26T19:16:51Z</time>
      </trkpt>
      <trkpt lat="43.66943" lon="4.31974">
        <ele>56.113</ele>
        <time>2016-12-26T19:17:11Z</time>
      </trkpt>
      <trkpt lat="43.67031" lon="4.3193">
        <ele>62.808</ele>
        <time>2016-12-26T19:17:31Z</time>
      </trkpt>
      <trkpt lat="43.67209" lon="4.31663">
        <ele>69.024</ele>
        <time>2016-12-26T19:17:51Z</time>
      </trkpt>
      <trkpt lat="43.6727" lon="4.31571">
        <ele>71.847</ele>
        <time>2016-12-26T19:18:11Z</time>
      </trkpt>
      <trkpt lat="43.67327" lon="4.31504">
        <ele>73.723</ele>
        <time>2016-12-26T19:18:31Z</time>
      </trkpt>
      <trkpt lat="43.67431" lon="4.31304">
        <ele>73.532</ele>
        <time>2016-12-26T19:18:51Z</time>
      </trkpt>
      <trkpt lat="43.67587" lon="4.31407">
        <ele>75.049</ele>
        <time>2016-12-26T19:19:11Z</time>
      </trkpt>
      <trkpt lat="43.67634" lon="4.31301">
        <ele>75.04</ele>
        <time>2016-12-26T19:19:31Z</time>
      </trkpt>
      <trkpt lat="43.67655" lon="4.31216">
        <ele>75.039</ele>
        <time>2016-12-26T19:19:51Z</time>
      </trkpt>
      <trkpt lat="43.67739" lon="4.31121">
        <ele>79.39</ele>
        <time>2016-12-26T19:20:11Z</time>
      </trkpt>
      <trkpt lat="43.6778" lon="4.30976">
        <ele>76.389</ele>
        <time>2016-12-26T19:20:31Z</time>
      </trkpt>
      <trkpt lat="43.67834" lon="4.30926">
        <ele>77.406</ele>
        <time>2016-12-26T19:20:51Z</time>
      </trkpt>
      <trkpt lat="43.67934" lon="4.30732">
        <ele>64.426</ele>
        <time>2016-12-26T19:21:11Z</time>
      </trkpt>
      <trkpt lat="43.68006" lon="4.30616">
        <ele>51.708</ele>
        <time>2016-12-26T19:21:31Z</time>
      </trkpt>
      <trkpt lat="43.68046" lon="4.3059">
        <ele>50.585</ele>
        <time>2016-12-26T19:21:51Z</time>
      </trkpt>
      <trkpt lat="43.68139" lon="4.30519">
        <ele>61.338</ele>
        <time>2016-12-26T19:22:11Z</time>
      </trkpt>
      <trkpt lat="43.68144" lon="4.30486">
        <ele>62.754</ele>
        <time>2016-12-26T19:22:31Z</time>
      </trkpt>
      <trkpt lat="43.68207" lon="4.3032">
        <ele>62.453</ele>
        <time>2016-12-26T19:22:51Z</time>
      </trkpt>
      <trkpt lat="43.68286" lon="4.3028">
        <ele>61.73</ele>
        <time>2016-12-26T19:23:11Z</time>
      </trkpt>
      <trkpt lat="43.68289" lon="4.30236">
        <ele>61.291</ele>
        <time>2016-12-26T19:23:31Z</time>
      </trkpt>
      <trkpt lat="43.68244" lon="4.30129">
        <ele>56.45</ele>
        <time>2016-12-26T19:23:51Z</time>
      </trkpt>
      <trkpt lat="43.6828" lon="4.30056">
        <ele>55.261</ele>
        <time>2016-12-26T19:24:11Z</time>
      </trkpt>
      <trkpt lat="43.68302" lon="4.29976">
        <ele>55.085</ele>
        <time>2016-12-26T19:24:31Z</time>
      </trkpt>
      <trkpt lat="43.68348" lon="4.29893">
        <ele>55.989</ele>
        <time>2016-12-26T19:24:51Z</time>
      </trkpt>
      <trkpt lat="43.68389" lon="4.29852">
        <ele>61.017</ele>
        <time>2016-12-26T19:25:11Z</time>
      </trkpt>
      <trkpt lat="43.68453" lon="4.2974">
        <ele>74.608</ele>
        <time>2016-12-26T19:25:31Z</time>
      </trkpt>
      <trkpt lat="43.68476" lon="4.29679">
        <ele>77.285</ele>
        <time>2016-12-26T19:25:51Z</time>
      </trkpt>
      <trkpt lat="43.68515" lon="4.29616">
        <ele>77.158</ele>
        <time>2016-12-26T19:26:11Z</time>
      </trkpt>
      <trkpt lat="43.68544" lon="4.295">
        <ele>77.694</ele>
        <time>2016-12-26T19:26:31Z</time>
      </trkpt>
      <trkpt lat="43.68564" lon="4.29382">
        <ele>76.893</ele>
        <time>2016-12-26T19:26:51Z</time>
      </trkpt>
      <trkpt lat="43.68606" lon="4.29238">
        <ele>77.04</ele>
        <time>2016-12-26T19:27:11Z</time>
      </trkpt>
      <trkpt lat="43.68676" lon="4.29053">
        <ele>77.071</ele>
        <time>2016-12-26T19:27:31Z</time>
      </trkpt>
      <trkpt lat="43.68687" lon="4.28935">
        <ele>77.03</ele>
        <time>2016-12-26T19:27:51Z</time>
      </trkpt>
      <trkpt lat="43.6871" lon="4.28883">
        <ele>77.081</ele>
        <time>2016-12-26T19:28:11Z</time>
      </trkpt>
      <trkpt lat="43.68856" lon="4.28658">
        <ele>77.096</ele>
        <time>2016-12-26T19:28:31Z</time>
      </trkpt>
      <trkpt lat="43.68927" lon="4.28441">
        <ele>75.031</ele>
        <time>2016-12-26T19:28:51Z</time>
      </trkpt>
      <trkpt lat="43.68931" lon="4.28238">
        <ele>69.824</ele>
        <time>2016-12-26T19:29:11Z</time>
      </trkpt>
      <trkpt lat="43.68928" lon="4.28188">
        <ele>65.608</ele>
        <time>2016-12-26T19:29:31Z</time>
      </trkpt>
      <trkpt lat="43.68936" lon="4.28107">
        <ele>57.296</ele>
        <time>2016-12-26T19:29:51Z</time>
      </trkpt>
      <trkpt lat="43.68971" lon="4.27998">
        <ele>53.839</ele>
        <time>2016-12-26T19:30:11Z</time>
      </trkpt>
      <trkpt lat="43.69034" lon="4.2794">
        <ele>52.985</ele>
        <time>2016-12-26T19:30:31Z</time>
      </trkpt>
      <trkpt lat="43.691" lon="4.27923">
        <ele>49.674</ele>
        <time>2016-12-26T19:30:51Z</time>
      </trkpt>
      <trkpt lat="43.69189" lon="4.27921">
        <ele>44.421</ele>
        <time>2016-12-26T19:31:11Z</time>
      </trkpt>
      <trkpt lat="43.69215" lon="4.27763">
        <ele>38.222</ele>
        <time>2016-12-26T19:31:31Z</time>
      </trkpt>
      <trkpt lat="43.69231" lon="4.27731">
        <ele>41.751</ele>
        <time>2021-04-16T12:59:50Z</time>
      </trkpt>
      <trkpt lat="43.69258" lon="4.27381">
        <ele>30.012</ele>
        <time>2021-04-16T13:00:10Z</time>
      </trkpt>
      <trkpt lat="43.69383" lon="4.27034">
        <ele>20.467</ele>
        <time>2021-04-16T13:00:30Z</time>
      </trkpt>
      <trkpt lat="43.69572" lon="4.2712">
        <ele>20.681</ele>
        <time>2021-04-16T13:00:50Z</time>
      </trkpt>
      <trkpt lat="43.69713" lon="4.26855">
        <ele>15.319</ele>
        <time>2016-12-26T19:33:31Z</time>
      </trkpt>
      <trkpt lat="43.69772" lon="4.2677">
        <ele>15.008</ele>
        <time>2016-12-26T19:33:51Z</time>
      </trkpt>
      <trkpt lat="43.69773" lon="4.26766">
        <ele>15.063</ele>
        <time>2016-12-26T19:34:11Z</time>
      </trkpt>
      <trkpt lat="43.69856" lon="4.26573">
        <ele>13.036</ele>
        <time>2016-12-26T19:34:31Z</time>
      </trkpt>
      <trkpt lat="43.69961" lon="4.26299">
        <ele>11.452</ele>
        <time>2021-04-16T13:02:30Z</time>
      </trkpt>
      <trkpt lat="43.69994" lon="4.26166">
        <ele>11.251</ele>
        <time>2016-12-26T19:35:11Z</time>
      </trkpt>
      <trkpt lat="43.70021" lon="4.26126">
        <ele>11.098</ele>
        <time>2016-12-26T19:35:31Z</time>
      </trkpt>
      <trkpt lat="43.70116" lon="4.26019">
        <ele>10.049</ele>
        <time>2016-12-26T19:35:51Z</time>
      </trkpt>
      <trkpt lat="43.70234" lon="4.25823">
        <ele>8.828</ele>
        <time>2016-12-26T19:36:11Z</time>
      </trkpt>
      <trkpt lat="43.70344" lon="4.25691">
        <ele>8.469</ele>
        <time>2016-12-26T19:36:31Z</time>
      </trkpt>
      <trkpt lat="43.70431" lon="4.25623">
        <ele>9.058</ele>
        <time>2016-12-26T19:36:51Z</time>
      </trkpt>
      <trkpt lat="43.70517" lon="4.25613">
        <ele>9.052</ele>
        <time>2016-12-26T19:37:11Z</time>
      </trkpt>
      <trkpt lat="43.70581" lon="4.25558">
        <ele>9.017</ele>
        <time>2016-12-26T19:37:31Z</time>
      </trkpt>
      <trkpt lat="43.70545" lon="4.25427">
        <ele>9.008</ele>
        <time>2016-12-26T19:37:51Z</time>
      </trkpt>
      <trkpt lat="43.70556" lon="4.25413">
        <ele>9.052</ele>
        <time>2016-12-26T19:38:11Z</time>
      </trkpt>
      <trkpt lat="43.70552" lon="4.25383">
        <ele>9.015</ele>
        <time>2016-12-26T19:38:31Z</time>
      </trkpt>
      <trkpt lat="43.70577" lon="4.25334">
        <ele>9.081</ele>
        <time>2016-12-26T19:38:51Z</time>
      </trkpt>
      <trkpt lat="43.70581" lon="4.2531">
        <ele>9.07</ele>
        <time>2016-12-26T19:39:11Z</time>
      </trkpt>
      <trkpt lat="43.70591" lon="4.25293">
        <ele>9.067</ele>
        <time>2016-12-26T19:39:31Z</time>
      </trkpt>
      <trkpt lat="43.70638" lon="4.25281">
        <ele>9.058</ele>
        <time>2016-12-26T19:39:51Z</time>
      </trkpt>
      <trkpt lat="43.70693" lon="4.25235">
        <ele>10.077</ele>
        <time>2016-12-26T19:40:11Z</time>
      </trkpt>
      <trkpt lat="43.70742" lon="4.25227">
        <ele>10.028</ele>
        <time>2016-12-26T19:40:31Z</time>
      </trkpt>
      <trkpt lat="43.70755" lon="4.25212">
        <ele>10.068</ele>
        <time>2016-12-26T19:40:51Z</time>
      </trkpt>
      <trkpt lat="43.70756" lon="4.25125">
        <ele>10.042</ele>
        <time>2016-12-26T19:41:11Z</time>
      </trkpt>
      <trkpt lat="43.70827" lon="4.25023">
        <ele>10.826</ele>
        <time>2016-12-26T19:41:31Z</time>
      </trkpt>
      <trkpt lat="43.70697" lon="4.2489">
        <ele>10.008</ele>
        <time>2016-12-26T19:41:51Z</time>
      </trkpt>
      <trkpt lat="43.70632" lon="4.24851">
        <ele>10.073</ele>
        <time>2016-12-26T19:42:11Z</time>
      </trkpt>
      <trkpt lat="43.70543" lon="4.24816">
        <ele>10.086</ele>
        <time>2016-12-26T19:42:31Z</time>
      </trkpt>
      <trkpt lat="43.70182" lon="4.24558">
        <ele>8.082</ele>
        <time>2016-12-26T19:42:51Z</time>
      </trkpt>
      <trkpt lat="43.70135" lon="4.2451">
        <ele>8.021</ele>
        <time>2016-12-26T19:43:11Z</time>
      </trkpt>
      <trkpt lat="43.70029" lon="4.24444">
        <ele>8.018</ele>
        <time>2016-12-26T19:43:31Z</time>
      </trkpt>
      <trkpt lat="43.69937" lon="4.24429">
        <ele>7.439</ele>
        <time>2016-12-26T19:43:51Z</time>
      </trkpt>
      <trkpt lat="43.69833" lon="4.24385">
        <ele>7.238</ele>
        <time>2016-12-26T19:51:31Z</time>
      </trkpt>
      <trkpt lat="43.69748" lon="4.24321">
        <ele>7.019</ele>
        <time>2016-12-26T19:51:51Z</time>
      </trkpt>
      <trkpt lat="43.69774" lon="4.24192">
        <ele>8.012</ele>
        <time>2016-12-26T19:52:11Z</time>
      </trkpt>
      <trkpt lat="43.69817" lon="4.24063">
        <ele>9.032</ele>
        <time>2016-12-26T19:52:31Z</time>
      </trkpt>
      <trkpt lat="43.69901" lon="4.23904">
        <ele>9.005</ele>
        <time>2016-12-26T19:52:51Z</time>
      </trkpt>
      <trkpt lat="43.69996" lon="4.23753">
        <ele>10.008</ele>
        <time>2016-12-26T19:53:11Z</time>
      </trkpt>
      <trkpt lat="43.7005" lon="4.23644">
        <ele>10.018</ele>
        <time>2016-12-26T19:53:31Z</time>
      </trkpt>
      <trkpt lat="43.70263" lon="4.23365">
        <ele>11.011</ele>
        <time>2016-12-26T19:53:51Z</time>
      </trkpt>
      <trkpt lat="43.70374" lon="4.23228">
        <ele>10.747</ele>
        <time>2021-04-16T13:14:30Z</time>
      </trkpt>
      <trkpt lat="43.70611" lon="4.23107">
        <ele>10.636</ele>
        <time>2021-04-16T13:14:50Z</time>
      </trkpt>
      <trkpt lat="43.70722" lon="4.23027">
        <ele>12.053</ele>
        <time>2016-12-26T19:54:51Z</time>
      </trkpt>
      <trkpt lat="43.70937" lon="4.22948">
        <ele>12.174</ele>
        <time>2021-04-16T13:15:30Z</time>
      </trkpt>
      <trkpt lat="43.7123" lon="4.22821">
        <ele>11.943</ele>
        <time>2021-04-16T13:15:50Z</time>
      </trkpt>
      <trkpt lat="43.71433" lon="4.22756">
        <ele>13.034</ele>
        <time>2016-12-26T19:55:51Z</time>
      </trkpt>
      <trkpt lat="43.7173" lon="4.22655">
        <ele>14.018</ele>
        <time>2016-12-26T19:56:11Z</time>
      </trkpt>
      <trkpt lat="43.71914" lon="4.22601">
        <ele>16.598</ele>
        <time>2021-04-16T13:16:50Z</time>
      </trkpt>
      <trkpt lat="43.72108" lon="4.22522">
        <ele>15.017</ele>
        <time>2016-12-26T19:56:31Z</time>
      </trkpt>
      <trkpt lat="43.72379" lon="4.22399">
        <ele>17.108</ele>
        <time>2021-04-16T13:17:30Z</time>
      </trkpt>
      <trkpt lat="43.72525" lon="4.22348">
        <ele>16.088</ele>
        <time>2016-12-26T19:57:11Z</time>
      </trkpt>
      <trkpt lat="43.72633" lon="4.22287">
        <ele>17.021</ele>
        <time>2021-04-16T13:18:10Z</time>
      </trkpt>
      <trkpt lat="43.72801" lon="4.22094">
        <ele>21.157</ele>
        <time>2021-04-16T13:18:30Z</time>
      </trkpt>
      <trkpt lat="43.72932" lon="4.22026">
        <ele>17.076</ele>
        <time>2016-12-26T19:58:31Z</time>
      </trkpt>
      <trkpt lat="43.72887" lon="4.21795">
        <ele>15.013</ele>
        <time>2016-12-26T19:58:51Z</time>
      </trkpt>
      <trkpt lat="43.72846" lon="4.21713">
        <ele>15.084</ele>
        <time>2016-12-26T19:59:11Z</time>
      </trkpt>
      <trkpt lat="43.72791" lon="4.21524">
        <ele>17.033</ele>
        <time>2016-12-26T19:59:31Z</time>
      </trkpt>
      <trkpt lat="43.72779" lon="4.21282">
        <ele>19.054</ele>
        <time>2016-12-26T19:59:51Z</time>
      </trkpt>
      <trkpt lat="43.72829" lon="4.21192">
        <ele>19.828</ele>
        <time>2016-12-26T20:00:11Z</time>
      </trkpt>
      <trkpt lat="43.72897" lon="4.20932">
        <ele>17.389</ele>
        <time>2016-12-26T20:00:31Z</time>
      </trkpt>
      <trkpt lat="43.72918" lon="4.20803">
        <ele>18.017</ele>
        <time>2016-12-26T20:04:31Z</time>
      </trkpt>
      <trkpt lat="43.72911" lon="4.20698">
        <ele>18.008</ele>
        <time>2016-12-26T20:04:51Z</time>
      </trkpt>
      <trkpt lat="43.72951" lon="4.20619">
        <ele>19.079</ele>
        <time>2016-12-26T20:05:11Z</time>
      </trkpt>
      <trkpt lat="43.72942" lon="4.20593">
        <ele>18.332</ele>
        <time>2016-12-26T20:05:31Z</time>
      </trkpt>
      <trkpt lat="43.72917" lon="4.20494">
        <ele>18.038</ele>
        <time>2016-12-26T20:05:51Z</time>
      </trkpt>
      <trkpt lat="43.72883" lon="4.20374">
        <ele>18.017</ele>
        <time>2016-12-26T20:06:11Z</time>
      </trkpt>
      <trkpt lat="43.72821" lon="4.20114">
        <ele>18.564</ele>
        <time>2016-12-26T20:06:31Z</time>
      </trkpt>
      <trkpt lat="43.72804" lon="4.20005">
        <ele>18.065</ele>
        <time>2016-12-26T20:07:11Z</time>
      </trkpt>
      <trkpt lat="43.72799" lon="4.19902">
        <ele>18.844</ele>
        <time>2016-12-26T20:09:11Z</time>
      </trkpt>
      <trkpt lat="43.72638" lon="4.19327">
        <ele>20.025</ele>
        <time>2016-12-26T20:09:31Z</time>
      </trkpt>
      <trkpt lat="43.72422" lon="4.19428">
        <ele>18.067</ele>
        <time>2016-12-26T20:09:51Z</time>
      </trkpt>
      <trkpt lat="43.72354" lon="4.19477">
        <ele>17.781</ele>
        <time>2016-12-26T20:10:11Z</time>
      </trkpt>
      <trkpt lat="43.72213" lon="4.19537">
        <ele>17.219</ele>
        <time>2016-12-26T20:11:51Z</time>
      </trkpt>
      <trkpt lat="43.72218" lon="4.19326">
        <ele>17.008</ele>
        <time>2016-12-26T20:12:11Z</time>
      </trkpt>
      <trkpt lat="43.7223" lon="4.192">
        <ele>17.386</ele>
        <time>2016-12-26T20:12:51Z</time>
      </trkpt>
      <trkpt lat="43.72192" lon="4.18582">
        <ele>19.092</ele>
        <time>2016-12-26T20:13:11Z</time>
      </trkpt>
      <trkpt lat="43.72126" lon="4.18314">
        <ele>19.061</ele>
        <time>2021-04-16T13:26:50Z</time>
      </trkpt>
      <trkpt lat="43.72108" lon="4.18197">
        <ele>21.698</ele>
        <time>2021-04-16T13:27:10Z</time>
      </trkpt>
      <trkpt lat="43.71937" lon="4.17838">
        <ele>22.879</ele>
        <time>2021-04-16T13:27:30Z</time>
      </trkpt>
      <trkpt lat="43.71896" lon="4.17788">
        <ele>22.468</ele>
        <time>2021-04-16T13:27:50Z</time>
      </trkpt>
      <trkpt lat="43.71936" lon="4.17753">
        <ele>24.989</ele>
        <time>2021-04-16T13:28:10Z</time>
      </trkpt>
      <trkpt lat="43.71919" lon="4.17668">
        <ele>25.211</ele>
        <time>2016-12-26T20:14:51Z</time>
      </trkpt>
      <trkpt lat="43.72164" lon="4.17469">
        <ele>47.221</ele>
        <time>2021-04-16T13:28:50Z</time>
      </trkpt>
      <trkpt lat="43.72171" lon="4.17414">
        <ele>50.303</ele>
        <time>2021-04-16T13:29:10Z</time>
      </trkpt>
      <trkpt lat="43.72202" lon="4.17366">
        <ele>52.708</ele>
        <time>2016-12-26T20:15:51Z</time>
      </trkpt>
      <trkpt lat="43.72201" lon="4.1723">
        <ele>48.528</ele>
        <time>2016-12-26T20:16:11Z</time>
      </trkpt>
      <trkpt lat="43.72149" lon="4.17088">
        <ele>36.921</ele>
        <time>2016-12-26T20:16:31Z</time>
      </trkpt>
      <trkpt lat="43.72091" lon="4.16963">
        <ele>30.947</ele>
        <time>2016-12-26T20:16:51Z</time>
      </trkpt>
      <trkpt lat="43.72012" lon="4.16945">
        <ele>28.556</ele>
        <time>2016-12-26T20:17:11Z</time>
      </trkpt>
      <trkpt lat="43.71967" lon="4.1692">
        <ele>27.123</ele>
        <time>2016-12-26T20:17:31Z</time>
      </trkpt>
      <trkpt lat="43.71874" lon="4.169">
        <ele>25.574</ele>
        <time>2016-12-26T20:17:51Z</time>
      </trkpt>
      <trkpt lat="43.71807" lon="4.16784">
        <ele>21.353</ele>
        <time>2021-04-16T13:31:50Z</time>
      </trkpt>
      <trkpt lat="43.71745" lon="4.16718">
        <ele>19.074</ele>
        <time>2016-12-26T20:18:31Z</time>
      </trkpt>
      <trkpt lat="43.71693" lon="4.16653">
        <ele>14.776</ele>
        <time>2021-04-16T13:32:30Z</time>
      </trkpt>
      <trkpt lat="43.71592" lon="4.16423">
        <ele>13.19</ele>
        <time>2021-04-16T13:32:50Z</time>
      </trkpt>
      <trkpt lat="43.71496" lon="4.16247">
        <ele>15.019</ele>
        <time>2016-12-26T20:48:11Z</time>
      </trkpt>
      <trkpt lat="43.71503" lon="4.16186">
        <ele>15.008</ele>
        <time>2016-12-26T20:48:31Z</time>
      </trkpt>
      <trkpt lat="43.71496" lon="4.1612">
        <ele>15.014</ele>
        <time>2016-12-26T20:48:51Z</time>
      </trkpt>
      <trkpt lat="43.71469" lon="4.1598">
        <ele>15.077</ele>
        <time>2016-12-26T20:49:11Z</time>
      </trkpt>
      <trkpt lat="43.71379" lon="4.15789">
        <ele>12.163</ele>
        <time>2021-04-16T13:34:30Z</time>
      </trkpt>
      <trkpt lat="43.71423" lon="4.15694">
        <ele>12.392</ele>
        <time>2021-04-16T13:34:50Z</time>
      </trkpt>
      <trkpt lat="43.71567" lon="4.1559">
        <ele>15.029</ele>
        <time>2016-12-26T20:50:11Z</time>
      </trkpt>
      <trkpt lat="43.71932" lon="4.15366">
        <ele>12.68</ele>
        <time>2021-04-16T13:35:30Z</time>
      </trkpt>
      <trkpt lat="43.72299" lon="4.15172">
        <ele>14.729</ele>
        <time>2021-04-16T13:35:50Z</time>
      </trkpt>
      <trkpt lat="43.72319" lon="4.15143">
        <ele>15.17</ele>
        <time>2016-12-26T20:50:51Z</time>
      </trkpt>
      <trkpt lat="43.7237" lon="4.15124">
        <ele>15.579</ele>
        <time>2016-12-26T20:51:11Z</time>
      </trkpt>
      <trkpt lat="43.7244" lon="4.15135">
        <ele>17.905</ele>
        <time>2021-04-16T13:36:50Z</time>
      </trkpt>
      <trkpt lat="43.72583" lon="4.15075">
        <ele>19.025</ele>
        <time>2016-12-26T20:52:11Z</time>
      </trkpt>
      <trkpt lat="43.72627" lon="4.15011">
        <ele>19.008</ele>
        <time>2016-12-26T20:52:31Z</time>
      </trkpt>
      <trkpt lat="43.72616" lon="4.14898">
        <ele>16.434</ele>
        <time>2016-12-26T20:52:51Z</time>
      </trkpt>
      <trkpt lat="43.72772" lon="4.1478">
        <ele>17.057</ele>
        <time>2016-12-26T20:53:11Z</time>
      </trkpt>
      <trkpt lat="43.73061" lon="4.14721">
        <ele>16.063</ele>
        <time>2016-12-26T20:53:31Z</time>
      </trkpt>
      <trkpt lat="43.73218" lon="4.14676">
        <ele>16.012</ele>
        <time>2016-12-26T20:53:51Z</time>
      </trkpt>
      <trkpt lat="43.73289" lon="4.14638">
        <ele>16.019</ele>
        <time>2016-12-26T20:54:11Z</time>
      </trkpt>
      <trkpt lat="43.73428" lon="4.1452">
        <ele>15.01</ele>
        <time>2016-12-26T20:54:31Z</time>
      </trkpt>
      <trkpt lat="43.73552" lon="4.14473">
        <ele>15.019</ele>
        <time>2016-12-26T20:54:51Z</time>
      </trkpt>
      <trkpt lat="43.73604" lon="4.14437">
        <ele>15.01</ele>
        <time>2016-12-26T20:55:11Z</time>
      </trkpt>
      <trkpt lat="43.73645" lon="4.14413">
        <ele>15.017</ele>
        <time>2016-12-26T20:55:31Z</time>
      </trkpt>
      <trkpt lat="43.73679" lon="4.14384">
        <ele>15.087</ele>
        <time>2016-12-26T20:55:51Z</time>
      </trkpt>
      <trkpt lat="43.73658" lon="4.14357">
        <ele>15.015</ele>
        <time>2016-12-26T20:56:11Z</time>
      </trkpt>
      <trkpt lat="43.73516" lon="4.14075">
        <ele>18.008</ele>
        <time>2016-12-26T20:56:31Z</time>
      </trkpt>
      <trkpt lat="43.73488" lon="4.14">
        <ele>19.458</ele>
        <time>2016-12-26T20:56:51Z</time>
      </trkpt>
      <trkpt lat="43.73467" lon="4.13986">
        <ele>20.011</ele>
        <time>2016-12-26T20:57:11Z</time>
      </trkpt>
      <trkpt lat="43.73436" lon="4.14003">
        <ele>20.017</ele>
        <time>2016-12-26T20:57:31Z</time>
      </trkpt>
      <trkpt lat="43.73368" lon="4.14017">
        <ele>20.056</ele>
        <time>2016-12-26T20:57:51Z</time>
      </trkpt>
      <trkpt lat="43.73368" lon="4.13944">
        <ele>20.853</ele>
        <time>2016-12-26T20:58:11Z</time>
      </trkpt>
      <trkpt lat="43.73402" lon="4.1389">
        <ele>20.044</ele>
        <time>2016-12-26T20:58:31Z</time>
      </trkpt>
      <trkpt lat="43.73434" lon="4.13808">
        <ele>20.053</ele>
        <time>2016-12-26T20:58:51Z</time>
      </trkpt>
      <trkpt lat="43.73437" lon="4.13722">
        <ele>21.024</ele>
        <time>2016-12-26T20:59:11Z</time>
      </trkpt>
      <trkpt lat="43.73452" lon="4.13608">
        <ele>22.819</ele>
        <time>2016-12-26T20:59:31Z</time>
      </trkpt>
      <trkpt lat="43.73448" lon="4.13502">
        <ele>24.909</ele>
        <time>2016-12-26T20:59:51Z</time>
      </trkpt>
      <trkpt lat="43.73437" lon="4.1341">
        <ele>26.619</ele>
        <time>2016-12-26T21:00:11Z</time>
      </trkpt>
      <trkpt lat="43.7346" lon="4.13384">
        <ele>25.108</ele>
        <time>2016-12-26T21:00:31Z</time>
      </trkpt>
      <trkpt lat="43.73494" lon="4.13311">
        <ele>25.878</ele>
        <time>2016-12-26T21:00:51Z</time>
      </trkpt>
      <trkpt lat="43.73533" lon="4.1325">
        <ele>28.031</ele>
        <time>2016-12-26T21:01:11Z</time>
      </trkpt>
      <trkpt lat="43.73561" lon="4.13229">
        <ele>28.497</ele>
        <time>2016-12-26T21:01:31Z</time>
      </trkpt>
      <trkpt lat="43.736" lon="4.13175">
        <ele>27.236</ele>
        <time>2016-12-26T21:01:51Z</time>
      </trkpt>
      <trkpt lat="43.73689" lon="4.13113">
        <ele>23.493</ele>
        <time>2016-12-26T21:02:11Z</time>
      </trkpt>
      <trkpt lat="43.73704" lon="4.13042">
        <ele>24.444</ele>
        <time>2016-12-26T21:02:31Z</time>
      </trkpt>
      <trkpt lat="43.73734" lon="4.12954">
        <ele>28.743</ele>
        <time>2021-04-16T13:47:50Z</time>
      </trkpt>
      <trkpt lat="43.73729" lon="4.12926">
        <ele>30.334</ele>
        <time>2021-04-16T13:48:10Z</time>
      </trkpt>
      <trkpt lat="43.73691" lon="4.12971">
        <ele>30.214</ele>
        <time>2016-12-26T21:03:31Z</time>
      </trkpt>
      <trkpt lat="43.73615" lon="4.12943">
        <ele>34.954</ele>
        <time>2016-12-26T21:03:51Z</time>
      </trkpt>
      <trkpt lat="43.73591" lon="4.12906">
        <ele>37.309</ele>
        <time>2016-12-26T21:04:11Z</time>
      </trkpt>
      <trkpt lat="43.73458" lon="4.1279">
        <ele>49.108</ele>
        <time>2016-12-26T21:04:31Z</time>
      </trkpt>
      <trkpt lat="43.73446" lon="4.1279">
        <ele>49.558</ele>
        <time>2016-12-26T21:04:51Z</time>
      </trkpt>
      <trkpt lat="43.73421" lon="4.12771">
        <ele>52.821</ele>
        <time>2016-12-26T21:05:11Z</time>
      </trkpt>
      <trkpt lat="43.73419" lon="4.12738">
        <ele>53.957</ele>
        <time>2016-12-26T21:05:31Z</time>
      </trkpt>
      <trkpt lat="43.73646" lon="4.12736">
        <ele>64.976</ele>
        <time>2016-12-26T21:05:51Z</time>
      </trkpt>
      <trkpt lat="43.73672" lon="4.12708">
        <ele>63.943</ele>
        <time>2016-12-26T21:06:11Z</time>
      </trkpt>
      <trkpt lat="43.73704" lon="4.12697">
        <ele>59.364</ele>
        <time>2016-12-26T21:06:31Z</time>
      </trkpt>
      <trkpt lat="43.7371" lon="4.12626">
        <ele>58.393</ele>
        <time>2016-12-26T21:06:51Z</time>
      </trkpt>
      <trkpt lat="43.73693" lon="4.12592">
        <ele>60.464</ele>
        <time>2016-12-26T21:07:11Z</time>
      </trkpt>
      <trkpt lat="43.73714" lon="4.12586">
        <ele>57.932</ele>
        <time>2016-12-26T21:07:31Z</time>
      </trkpt>
      <trkpt lat="43.73714" lon="4.12555">
        <ele>59.392</ele>
        <time>2016-12-26T21:07:51Z</time>
      </trkpt>
      <trkpt lat="43.73743" lon="4.12547">
        <ele>57.011</ele>
        <time>2016-12-26T21:08:11Z</time>
      </trkpt>
      <trkpt lat="43.73764" lon="4.12529">
        <ele>55.008</ele>
        <time>2016-12-26T21:08:31Z</time>
      </trkpt>
      <trkpt lat="43.73776" lon="4.12486">
        <ele>54.62</ele>
        <time>2016-12-26T21:08:51Z</time>
      </trkpt>
      <trkpt lat="43.73773" lon="4.12441">
        <ele>54.233</ele>
        <time>2016-12-26T21:09:11Z</time>
      </trkpt>
      <trkpt lat="43.73785" lon="4.12398">
        <ele>47.269</ele>
        <time>2016-12-26T21:09:31Z</time>
      </trkpt>
      <trkpt lat="43.7378" lon="4.12372">
        <ele>40.978</ele>
        <time>2016-12-26T21:09:51Z</time>
      </trkpt>
      <trkpt lat="43.737" lon="4.12345">
        <ele>50.095</ele>
        <time>2016-12-26T21:10:11Z</time>
      </trkpt>
      <trkpt lat="43.73683" lon="4.12304">
        <ele>42.366</ele>
        <time>2016-12-26T21:10:31Z</time>
      </trkpt>
      <trkpt lat="43.73658" lon="4.12273">
        <ele>38.055</ele>
        <time>2016-12-26T21:10:51Z</time>
      </trkpt>
      <trkpt lat="43.73645" lon="4.12219">
        <ele>29.596</ele>
        <time>2016-12-26T21:11:11Z</time>
      </trkpt>
      <trkpt lat="43.7362" lon="4.12188">
        <ele>27.317</ele>
        <time>2016-12-26T21:11:31Z</time>
      </trkpt>
      <trkpt lat="43.73587" lon="4.12112">
        <ele>21.687</ele>
        <time>2016-12-26T21:11:51Z</time>
      </trkpt>
      <trkpt lat="43.73606" lon="4.12107">
        <ele>18.615</ele>
        <time>2016-12-26T21:12:11Z</time>
      </trkpt>
      <trkpt lat="43.73573" lon="4.1207">
        <ele>18.208</ele>
        <time>2016-12-26T21:12:31Z</time>
      </trkpt>
      <trkpt lat="43.73526" lon="4.1206">
        <ele>18.438</ele>
        <time>2016-12-26T21:12:51Z</time>
      </trkpt>
      <trkpt lat="43.73484" lon="4.12066">
        <ele>18.931</ele>
        <time>2016-12-26T21:13:11Z</time>
      </trkpt>
      <trkpt lat="43.73484" lon="4.12142">
        <ele>21.967</ele>
        <time>2016-12-26T21:13:31Z</time>
      </trkpt>
      <trkpt lat="43.73448" lon="4.1217">
        <ele>19.436</ele>
        <time>2016-12-26T21:13:51Z</time>
      </trkpt>
      <trkpt lat="43.73344" lon="4.12176">
        <ele>19.393</ele>
        <time>2016-12-26T21:14:11Z</time>
      </trkpt>
      <trkpt lat="43.73324" lon="4.12058">
        <ele>19.034</ele>
        <time>2016-12-26T21:14:31Z</time>
      </trkpt>
      <trkpt lat="43.73267" lon="4.11935">
        <ele>20.063</ele>
        <time>2016-12-26T21:14:51Z</time>
      </trkpt>
      <trkpt lat="43.73227" lon="4.11905">
        <ele>20.044</ele>
        <time>2016-12-26T21:15:11Z</time>
      </trkpt>
      <trkpt lat="43.73207" lon="4.11863">
        <ele>20.028</ele>
        <time>2016-12-26T21:15:31Z</time>
      </trkpt>
      <trkpt lat="43.73157" lon="4.11849">
        <ele>20.089</ele>
        <time>2016-12-26T21:15:51Z</time>
      </trkpt>
      <trkpt lat="43.73115" lon="4.11845">
        <ele>20.017</ele>
        <time>2016-12-26T21:16:31Z</time>
      </trkpt>
      <trkpt lat="43.72979" lon="4.11681">
        <ele>20.908</ele>
        <time>2016-12-26T21:16:51Z</time>
      </trkpt>
      <trkpt lat="43.72916" lon="4.11673">
        <ele>21.829</ele>
        <time>2016-12-26T21:17:11Z</time>
      </trkpt>
      <trkpt lat="43.72651" lon="4.11565">
        <ele>24.312</ele>
        <time>2016-12-26T21:17:31Z</time>
      </trkpt>
      <trkpt lat="43.72641" lon="4.11529">
        <ele>25.098</ele>
        <time>2016-12-26T21:17:51Z</time>
      </trkpt>
      <trkpt lat="43.72548" lon="4.11495">
        <ele>27.687</ele>
        <time>2016-12-26T21:18:11Z</time>
      </trkpt>
      <trkpt lat="43.72476" lon="4.11496">
        <ele>26.684</ele>
        <time>2016-12-26T21:18:31Z</time>
      </trkpt>
      <trkpt lat="43.72428" lon="4.11488">
        <ele>27.395</ele>
        <time>2016-12-26T21:18:51Z</time>
      </trkpt>
      <trkpt lat="43.72315" lon="4.11484">
        <ele>28.324</ele>
        <time>2016-12-26T21:19:11Z</time>
      </trkpt>
      <trkpt lat="43.72315" lon="4.11414">
        <ele>30.085</ele>
        <time>2016-12-26T21:19:31Z</time>
      </trkpt>
      <trkpt lat="43.72255" lon="4.11413">
        <ele>29.385</ele>
        <time>2016-12-26T21:19:51Z</time>
      </trkpt>
      <trkpt lat="43.72229" lon="4.11395">
        <ele>29.689</ele>
        <time>2016-12-26T21:20:11Z</time>
      </trkpt>
      <trkpt lat="43.72194" lon="4.11383">
        <ele>29.217</ele>
        <time>2016-12-26T21:20:31Z</time>
      </trkpt>
      <trkpt lat="43.72168" lon="4.11351">
        <ele>30.408</ele>
        <time>2016-12-26T21:20:51Z</time>
      </trkpt>
      <trkpt lat="43.72129" lon="4.11335">
        <ele>31.025</ele>
        <time>2016-12-26T21:21:11Z</time>
      </trkpt>
      <trkpt lat="43.7211" lon="4.11291">
        <ele>32.678</ele>
        <time>2016-12-26T21:21:31Z</time>
      </trkpt>
      <trkpt lat="43.72077" lon="4.11271">
        <ele>34.364</ele>
        <time>2016-12-26T21:21:51Z</time>
      </trkpt>
      <trkpt lat="43.72043" lon="4.11127">
        <ele>35.413</ele>
        <time>2016-12-26T21:22:11Z</time>
      </trkpt>
      <trkpt lat="43.7201" lon="4.11133">
        <ele>36.17</ele>
        <time>2016-12-26T21:22:31Z</time>
      </trkpt>
      <trkpt lat="43.7197" lon="4.10932">
        <ele>42.861</ele>
        <time>2016-12-26T21:22:51Z</time>
      </trkpt>
      <trkpt lat="43.71962" lon="4.1082">
        <ele>47.91</ele>
        <time>2016-12-26T21:23:11Z</time>
      </trkpt>
      <trkpt lat="43.71948" lon="4.10786">
        <ele>52.561</ele>
        <time>2016-12-26T21:23:31Z</time>
      </trkpt>
      <trkpt lat="43.71844" lon="4.10648">
        <ele>55.014</ele>
        <time>2016-12-26T21:23:51Z</time>
      </trkpt>
      <trkpt lat="43.71771" lon="4.10464">
        <ele>58.554</ele>
        <time>2016-12-26T21:24:11Z</time>
      </trkpt>
      <trkpt lat="43.71739" lon="4.10416">
        <ele>59.609</ele>
        <time>2016-12-26T21:24:31Z</time>
      </trkpt>
      <trkpt lat="43.71673" lon="4.1017">
        <ele>50.208</ele>
        <time>2016-12-26T21:24:51Z</time>
      </trkpt>
      <trkpt lat="43.71675" lon="4.10107">
        <ele>50.318</ele>
        <time>2016-12-26T21:25:11Z</time>
      </trkpt>
      <trkpt lat="43.71667" lon="4.10083">
        <ele>50.051</ele>
        <time>2016-12-26T21:25:31Z</time>
      </trkpt>
      <trkpt lat="43.71632" lon="4.10111">
        <ele>48.537</ele>
        <time>2016-12-26T21:25:51Z</time>
      </trkpt>
      <trkpt lat="43.71538" lon="4.10094">
        <ele>43.666</ele>
        <time>2016-12-26T21:26:11Z</time>
      </trkpt>
      <trkpt lat="43.71506" lon="4.10025">
        <ele>39.423</ele>
        <time>2016-12-26T21:26:31Z</time>
      </trkpt>
      <trkpt lat="43.71438" lon="4.09891">
        <ele>33.944</ele>
        <time>2016-12-26T21:26:51Z</time>
      </trkpt>
      <trkpt lat="43.71392" lon="4.09749">
        <ele>31.193</ele>
        <time>2016-12-26T21:27:11Z</time>
      </trkpt>
      <trkpt lat="43.71331" lon="4.09627">
        <ele>30.454</ele>
        <time>2016-12-26T21:27:31Z</time>
      </trkpt>
      <trkpt lat="43.7131" lon="4.09535">
        <ele>33.083</ele>
        <time>2016-12-26T21:27:51Z</time>
      </trkpt>
      <trkpt lat="43.71388" lon="4.09491">
        <ele>35.025</ele>
        <time>2016-12-26T21:28:11Z</time>
      </trkpt>
      <trkpt lat="43.71476" lon="4.09421">
        <ele>35.017</ele>
        <time>2016-12-26T21:28:31Z</time>
      </trkpt>
      <trkpt lat="43.71537" lon="4.09397">
        <ele>35.008</ele>
        <time>2016-12-26T21:28:51Z</time>
      </trkpt>
      <trkpt lat="43.71524" lon="4.09199">
        <ele>35.995</ele>
        <time>2016-12-26T21:29:11Z</time>
      </trkpt>
      <trkpt lat="43.71612" lon="4.09169">
        <ele>37.198</ele>
        <time>2016-12-26T21:29:31Z</time>
      </trkpt>
      <trkpt lat="43.71726" lon="4.09177">
        <ele>39.554</ele>
        <time>2016-12-26T21:30:31Z</time>
      </trkpt>
      <trkpt lat="43.71851" lon="4.09145">
        <ele>40.193</ele>
        <time>2016-12-26T21:30:51Z</time>
      </trkpt>
      <trkpt lat="43.71935" lon="4.09183">
        <ele>44.34</ele>
        <time>2016-12-26T21:31:11Z</time>
      </trkpt>
      <trkpt lat="43.71946" lon="4.09143">
        <ele>44.211</ele>
        <time>2016-12-26T21:31:31Z</time>
      </trkpt>
      <trkpt lat="43.72119" lon="4.08818">
        <ele>39.07</ele>
        <time>2016-12-26T21:31:51Z</time>
      </trkpt>
      <trkpt lat="43.72187" lon="4.08666">
        <ele>40.481</ele>
        <time>2016-12-26T21:32:11Z</time>
      </trkpt>
      <trkpt lat="43.72243" lon="4.08604">
        <ele>42.511</ele>
        <time>2016-12-26T21:33:11Z</time>
      </trkpt>
      <trkpt lat="43.72297" lon="4.086">
        <ele>44.721</ele>
        <time>2016-12-26T21:33:31Z</time>
      </trkpt>
      <trkpt lat="43.72354" lon="4.08518">
        <ele>46.203</ele>
        <time>2016-12-26T21:33:51Z</time>
      </trkpt>
      <trkpt lat="43.72373" lon="4.0847">
        <ele>45.808</ele>
        <time>2016-12-26T21:38:51Z</time>
      </trkpt>
      <trkpt lat="43.72467" lon="4.08326">
        <ele>47.518</ele>
        <time>2016-12-26T21:39:11Z</time>
      </trkpt>
      <trkpt lat="43.72511" lon="4.08244">
        <ele>47.121</ele>
        <time>2016-12-26T21:39:51Z</time>
      </trkpt>
      <trkpt lat="43.72534" lon="4.08298">
        <ele>48.287</ele>
        <time>2016-12-26T21:41:51Z</time>
      </trkpt>
      <trkpt lat="43.72577" lon="4.08236">
        <ele>48.996</ele>
        <time>2016-12-26T21:42:11Z</time>
      </trkpt>
      <trkpt lat="43.72577" lon="4.08196">
        <ele>49.823</ele>
        <time>2016-12-26T21:42:31Z</time>
      </trkpt>
      <trkpt lat="43.72603" lon="4.08196">
        <ele>50.054</ele>
        <time>2016-12-26T21:42:51Z</time>
      </trkpt>
      <trkpt lat="43.72626" lon="4.08105">
        <ele>53.833</ele>
        <time>2016-12-26T21:43:11Z</time>
      </trkpt>
      <trkpt lat="43.72676" lon="4.08091">
        <ele>58.454</ele>
        <time>2016-12-26T21:43:31Z</time>
      </trkpt>
      <trkpt lat="43.72665" lon="4.07993">
        <ele>68.696</ele>
        <time>2021-04-16T14:20:30Z</time>
      </trkpt>
      <trkpt lat="43.72715" lon="4.08021">
        <ele>70.431</ele>
        <time>2021-04-16T14:20:50Z</time>
      </trkpt>
      <trkpt lat="43.72746" lon="4.07953">
        <ele>76.024</ele>
        <time>2021-04-16T14:21:10Z</time>
      </trkpt>
      <trkpt lat="43.72743" lon="4.07932">
        <ele>76.508</ele>
        <time>2021-04-16T14:21:30Z</time>
      </trkpt>
      <trkpt lat="43.72698" lon="4.07914">
        <ele>76.926</ele>
        <time>2021-04-16T14:21:50Z</time>
      </trkpt>
      <trkpt lat="43.72664" lon="4.0794">
        <ele>74.249</ele>
        <time>2021-04-16T14:22:10Z</time>
      </trkpt>
      <trkpt lat="43.72608" lon="4.07883">
        <ele>70.045</ele>
        <time>2016-12-26T21:44:11Z</time>
      </trkpt>
      <trkpt lat="43.72587" lon="4.07871">
        <ele>70.074</ele>
        <time>2016-12-26T21:44:31Z</time>
      </trkpt>
      <trkpt lat="43.72502" lon="4.07763">
        <ele>65.251</ele>
        <time>2016-12-26T21:44:51Z</time>
      </trkpt>
      <trkpt lat="43.72451" lon="4.07665">
        <ele>61.182</ele>
        <time>2016-12-26T21:45:11Z</time>
      </trkpt>
      <trkpt lat="43.72421" lon="4.07593">
        <ele>54.751</ele>
        <time>2021-04-16T14:23:50Z</time>
      </trkpt>
      <trkpt lat="43.72362" lon="4.07479">
        <ele>49.072</ele>
        <time>2016-12-26T21:45:51Z</time>
      </trkpt>
      <trkpt lat="43.72311" lon="4.07447">
        <ele>48.998</ele>
        <time>2016-12-26T21:46:11Z</time>
      </trkpt>
      <trkpt lat="43.72328" lon="4.07387">
        <ele>50.215</ele>
        <time>2016-12-26T21:46:31Z</time>
      </trkpt>
      <trkpt lat="43.7226" lon="4.07359">
        <ele>52.326</ele>
        <time>2016-12-26T21:46:51Z</time>
      </trkpt>
      <trkpt lat="43.72134" lon="4.07287">
        <ele>50.708</ele>
        <time>2016-12-26T21:47:11Z</time>
      </trkpt>
      <trkpt lat="43.72088" lon="4.07186">
        <ele>53.376</ele>
        <time>2016-12-26T21:47:31Z</time>
      </trkpt>
      <trkpt lat="43.72058" lon="4.07116">
        <ele>54.989</ele>
        <time>2016-12-26T21:47:51Z</time>
      </trkpt>
      <trkpt lat="43.71994" lon="4.0701">
        <ele>61.755</ele>
        <time>2016-12-26T21:48:11Z</time>
      </trkpt>
      <trkpt lat="43.71889" lon="4.06882">
        <ele>63.434</ele>
        <time>2016-12-26T21:48:31Z</time>
      </trkpt>
      <trkpt lat="43.71829" lon="4.06744">
        <ele>55.551</ele>
        <time>2016-12-26T21:48:51Z</time>
      </trkpt>
      <trkpt lat="43.71747" lon="4.06694">
        <ele>50.982</ele>
        <time>2016-12-26T21:49:11Z</time>
      </trkpt>
      <trkpt lat="43.71686" lon="4.06674">
        <ele>49.461</ele>
        <time>2016-12-26T21:49:31Z</time>
      </trkpt>
      <trkpt lat="43.71566" lon="4.06602">
        <ele>46.292</ele>
        <time>2016-12-26T21:49:51Z</time>
      </trkpt>
      <trkpt lat="43.71433" lon="4.06812">
        <ele>42.037</ele>
        <time>2016-12-26T21:50:11Z</time>
      </trkpt>
      <trkpt lat="43.70973" lon="4.0668">
        <ele>37.049</ele>
        <time>2016-12-26T21:50:31Z</time>
      </trkpt>
      <trkpt lat="43.70919" lon="4.06662">
        <ele>37.013</ele>
        <time>2016-12-26T21:50:51Z</time>
      </trkpt>
      <trkpt lat="43.70515" lon="4.0658">
        <ele>38.508</ele>
        <time>2016-12-26T21:51:11Z</time>
      </trkpt>
      <trkpt lat="43.70389" lon="4.06562">
        <ele>38.29</ele>
        <time>2016-12-26T21:51:31Z</time>
      </trkpt>
      <trkpt lat="43.70478" lon="4.0641">
        <ele>40.033</ele>
        <time>2016-12-26T21:51:51Z</time>
      </trkpt>
      <trkpt lat="43.70511" lon="4.06375">
        <ele>43.299</ele>
        <time>2021-04-16T14:30:30Z</time>
      </trkpt>
      <trkpt lat="43.70511" lon="4.06356">
        <ele>43.838</ele>
        <time>2021-04-16T14:30:50Z</time>
      </trkpt>
      <trkpt lat="43.7055" lon="4.06306">
        <ele>45.085</ele>
        <time>2021-04-16T14:31:10Z</time>
      </trkpt>
      <trkpt lat="43.7054" lon="4.06192">
        <ele>40.856</ele>
        <time>2021-04-16T14:31:30Z</time>
      </trkpt>
      <trkpt lat="43.70499" lon="4.06071">
        <ele>36.295</ele>
        <time>2016-12-26T21:52:51Z</time>
      </trkpt>
      <trkpt lat="43.7046" lon="4.05981">
        <ele>35.076</ele>
        <time>2016-12-26T21:53:11Z</time>
      </trkpt>
      <trkpt lat="43.70437" lon="4.05967">
        <ele>35.082</ele>
        <time>2016-12-26T21:53:31Z</time>
      </trkpt>
      <trkpt lat="43.70404" lon="4.05875">
        <ele>35.043</ele>
        <time>2016-12-26T21:53:51Z</time>
      </trkpt>
      <trkpt lat="43.70313" lon="4.05754">
        <ele>33.717</ele>
        <time>2021-04-16T14:33:10Z</time>
      </trkpt>
      <trkpt lat="43.70258" lon="4.05663">
        <ele>34.008</ele>
        <time>2016-12-26T21:54:11Z</time>
      </trkpt>
      <trkpt lat="43.70175" lon="4.05595">
        <ele>36.645</ele>
        <time>2016-12-26T21:54:31Z</time>
      </trkpt>
      <trkpt lat="43.70139" lon="4.05513">
        <ele>40.068</ele>
        <time>2016-12-26T21:54:51Z</time>
      </trkpt>
      <trkpt lat="43.70101" lon="4.05489">
        <ele>40.184</ele>
        <time>2016-12-26T21:55:11Z</time>
      </trkpt>
      <trkpt lat="43.70069" lon="4.05501">
        <ele>40.543</ele>
        <time>2016-12-26T21:55:31Z</time>
      </trkpt>
      <trkpt lat="43.7004" lon="4.05469">
        <ele>41.73</ele>
        <time>2016-12-26T21:55:51Z</time>
      </trkpt>
      <trkpt lat="43.70004" lon="4.05447">
        <ele>44.641</ele>
        <time>2016-12-26T21:56:11Z</time>
      </trkpt>
      <trkpt lat="43.69984" lon="4.05399">
        <ele>45.49</ele>
        <time>2016-12-26T21:56:31Z</time>
      </trkpt>
      <trkpt lat="43.6988" lon="4.05275">
        <ele>55.021</ele>
        <time>2016-12-26T21:56:51Z</time>
      </trkpt>
      <trkpt lat="43.69845" lon="4.05234">
        <ele>57.751</ele>
        <time>2016-12-26T21:57:11Z</time>
      </trkpt>
      <trkpt lat="43.69803" lon="4.05164">
        <ele>58.801</ele>
        <time>2016-12-26T21:57:31Z</time>
      </trkpt>
      <trkpt lat="43.69805" lon="4.05136">
        <ele>59.011</ele>
        <time>2016-12-26T21:57:51Z</time>
      </trkpt>
      <trkpt lat="43.69833" lon="4.05088">
        <ele>58.008</ele>
        <time>2016-12-26T21:58:11Z</time>
      </trkpt>
      <trkpt lat="43.69786" lon="4.05014">
        <ele>59.722</ele>
        <time>2016-12-26T21:58:31Z</time>
      </trkpt>
      <trkpt lat="43.69787" lon="4.0498">
        <ele>60.155</ele>
        <time>2016-12-26T21:58:51Z</time>
      </trkpt>
      <trkpt lat="43.69755" lon="4.04908">
        <ele>63.151</ele>
        <time>2016-12-26T21:59:11Z</time>
      </trkpt>
      <trkpt lat="43.69729" lon="4.04876">
        <ele>64.32</ele>
        <time>2016-12-26T21:59:31Z</time>
      </trkpt>
      <trkpt lat="43.69687" lon="4.0475">
        <ele>63.597</ele>
        <time>2016-12-26T21:59:51Z</time>
      </trkpt>
      <trkpt lat="43.69694" lon="4.0462">
        <ele>60.318</ele>
        <time>2016-12-26T22:00:11Z</time>
      </trkpt>
      <trkpt lat="43.69723" lon="4.04506">
        <ele>58.237</ele>
        <time>2016-12-26T22:00:31Z</time>
      </trkpt>
      <trkpt lat="43.69721" lon="4.04396">
        <ele>54.188</ele>
        <time>2016-12-26T22:00:51Z</time>
      </trkpt>
      <trkpt lat="43.69749" lon="4.04291">
        <ele>49.556</ele>
        <time>2016-12-26T22:01:11Z</time>
      </trkpt>
      <trkpt lat="43.69752" lon="4.04157">
        <ele>44.059</ele>
        <time>2016-12-26T22:01:31Z</time>
      </trkpt>
      <trkpt lat="43.69835" lon="4.04141">
        <ele>45.014</ele>
        <time>2016-12-26T22:01:51Z</time>
      </trkpt>
      <trkpt lat="43.69842" lon="4.04109">
        <ele>45.008</ele>
        <time>2016-12-26T22:02:11Z</time>
      </trkpt>
      <trkpt lat="43.6981" lon="4.04074">
        <ele>43.862</ele>
        <time>2021-04-16T14:41:50Z</time>
      </trkpt>
      <trkpt lat="43.69815" lon="4.03935">
        <ele>45.085</ele>
        <time>2016-12-26T22:02:51Z</time>
      </trkpt>
      <trkpt lat="43.69809" lon="4.03891">
        <ele>45.821</ele>
        <time>2016-12-26T22:03:11Z</time>
      </trkpt>
      <trkpt lat="43.69825" lon="4.03859">
        <ele>46.11</ele>
        <time>2016-12-26T22:03:31Z</time>
      </trkpt>
      <trkpt lat="43.69823" lon="4.03755">
        <ele>53.577</ele>
        <time>2016-12-26T22:03:51Z</time>
      </trkpt>
      <trkpt lat="43.69799" lon="4.03667">
        <ele>58.568</ele>
        <time>2016-12-26T22:04:11Z</time>
      </trkpt>
      <trkpt lat="43.69713" lon="4.03571">
        <ele>59.967</ele>
        <time>2016-12-26T22:04:31Z</time>
      </trkpt>
      <trkpt lat="43.69673" lon="4.03504">
        <ele>63.218</ele>
        <time>2021-04-16T14:44:10Z</time>
      </trkpt>
      <trkpt lat="43.69657" lon="4.03419">
        <ele>61.561</ele>
        <time>2021-04-16T14:44:30Z</time>
      </trkpt>
      <trkpt lat="43.6963" lon="4.03427">
        <ele>57.321</ele>
        <time>2021-04-16T14:44:50Z</time>
      </trkpt>
      <trkpt lat="43.69664" lon="4.03577">
        <ele>63.513</ele>
        <time>2021-04-16T14:45:10Z</time>
      </trkpt>
      <trkpt lat="43.69666" lon="4.03613">
        <ele>56.908</ele>
        <time>2016-12-26T22:05:31Z</time>
      </trkpt>
      <trkpt lat="43.6959" lon="4.03634">
        <ele>48.563</ele>
        <time>2016-12-26T22:05:51Z</time>
      </trkpt>
      <trkpt lat="43.69558" lon="4.03855">
        <ele>42.046</ele>
        <time>2016-12-26T22:06:11Z</time>
      </trkpt>
      <trkpt lat="43.6948" lon="4.0374">
        <ele>42.512</ele>
        <time>2016-12-26T22:06:31Z</time>
      </trkpt>
      <trkpt lat="43.69397" lon="4.03755">
        <ele>41.031</ele>
        <time>2016-12-26T22:06:51Z</time>
      </trkpt>
      <trkpt lat="43.6938" lon="4.03713">
        <ele>41.048</ele>
        <time>2016-12-26T22:07:11Z</time>
      </trkpt>
      <trkpt lat="43.69213" lon="4.03778">
        <ele>38.019</ele>
        <time>2016-12-26T22:07:31Z</time>
      </trkpt>
      <trkpt lat="43.69191" lon="4.03824">
        <ele>36.978</ele>
        <time>2016-12-26T22:07:51Z</time>
      </trkpt>
      <trkpt lat="43.69128" lon="4.03824">
        <ele>36.169</ele>
        <time>2016-12-26T22:08:11Z</time>
      </trkpt>
      <trkpt lat="43.691" lon="4.03793">
        <ele>37.276</ele>
        <time>2016-12-26T22:08:31Z</time>
      </trkpt>
      <trkpt lat="43.69074" lon="4.03775">
        <ele>37.89</ele>
        <time>2016-12-26T22:08:51Z</time>
      </trkpt>
      <trkpt lat="43.69047" lon="4.03746">
        <ele>37.819</ele>
        <time>2016-12-26T22:09:11Z</time>
      </trkpt>
      <trkpt lat="43.69036" lon="4.03698">
        <ele>38.308</ele>
        <time>2016-12-26T22:09:31Z</time>
      </trkpt>
      <trkpt lat="43.69062" lon="4.03622">
        <ele>38.374</ele>
        <time>2016-12-26T22:09:51Z</time>
      </trkpt>
      <trkpt lat="43.69033" lon="4.03568">
        <ele>36.257</ele>
        <time>2016-12-26T22:10:31Z</time>
      </trkpt>
      <trkpt lat="43.68885" lon="4.03464">
        <ele>35.023</ele>
        <time>2016-12-26T22:10:51Z</time>
      </trkpt>
      <trkpt lat="43.68824" lon="4.03384">
        <ele>37.592</ele>
        <time>2021-04-16T14:50:50Z</time>
      </trkpt>
      <trkpt lat="43.68829" lon="4.03316">
        <ele>43.369</ele>
        <time>2016-12-26T22:12:51Z</time>
      </trkpt>
      <trkpt lat="43.68852" lon="4.03263">
        <ele>44.77</ele>
        <time>2016-12-26T22:13:11Z</time>
      </trkpt>
      <trkpt lat="43.68832" lon="4.03124">
        <ele>45.069</ele>
        <time>2016-12-26T22:13:31Z</time>
      </trkpt>
      <trkpt lat="43.68878" lon="4.02976">
        <ele>45.06</ele>
        <time>2016-12-26T22:13:51Z</time>
      </trkpt>
      <trkpt lat="43.68876" lon="4.02889">
        <ele>45.065</ele>
        <time>2016-12-26T22:14:11Z</time>
      </trkpt>
      <trkpt lat="43.6886" lon="4.02835">
        <ele>45.068</ele>
        <time>2016-12-26T22:14:31Z</time>
      </trkpt>
      <trkpt lat="43.68833" lon="4.02791">
        <ele>45.014</ele>
        <time>2016-12-26T22:14:51Z</time>
      </trkpt>
      <trkpt lat="43.68826" lon="4.02741">
        <ele>44.908</ele>
        <time>2016-12-26T22:15:11Z</time>
      </trkpt>
      <trkpt lat="43.68801" lon="4.02693">
        <ele>44.013</ele>
        <time>2016-12-26T22:15:31Z</time>
      </trkpt>
      <trkpt lat="43.68695" lon="4.0268">
        <ele>43.556</ele>
        <time>2016-12-26T22:15:51Z</time>
      </trkpt>
      <trkpt lat="43.68529" lon="4.02578">
        <ele>38.222</ele>
        <time>2016-12-26T22:16:11Z</time>
      </trkpt>
      <trkpt lat="43.68234" lon="4.02435">
        <ele>33.161</ele>
        <time>2016-12-26T22:16:31Z</time>
      </trkpt>
      <trkpt lat="43.68012" lon="4.02293">
        <ele>32.038</ele>
        <time>2016-12-26T22:16:51Z</time>
      </trkpt>
      <trkpt lat="43.67813" lon="4.0217">
        <ele>27.459</ele>
        <time>2016-12-26T22:17:11Z</time>
      </trkpt>
      <trkpt lat="43.67807" lon="4.02165">
        <ele>27.028</ele>
        <time>2016-12-26T22:17:31Z</time>
      </trkpt>
      <trkpt lat="43.67771" lon="4.02111">
        <ele>26.839</ele>
        <time>2016-12-26T22:17:51Z</time>
      </trkpt>
      <trkpt lat="43.67716" lon="4.02111">
        <ele>25.856</ele>
        <time>2016-12-26T22:18:11Z</time>
      </trkpt>
      <trkpt lat="43.67682" lon="4.02013">
        <ele>27.559</ele>
        <time>2016-12-26T22:18:31Z</time>
      </trkpt>
      <trkpt lat="43.67641" lon="4.01984">
        <ele>28.014</ele>
        <time>2016-12-26T22:18:51Z</time>
      </trkpt>
      <trkpt lat="43.67584" lon="4.01923">
        <ele>28.008</ele>
        <time>2016-12-26T22:19:11Z</time>
      </trkpt>
      <trkpt lat="43.67493" lon="4.01873">
        <ele>28.022</ele>
        <time>2021-04-16T14:57:50Z</time>
      </trkpt>
      <trkpt lat="43.67498" lon="4.01785">
        <ele>30.135</ele>
        <time>2021-04-16T14:58:10Z</time>
      </trkpt>
      <trkpt lat="43.67434" lon="4.01756">
        <ele>28.671</ele>
        <time>2016-12-26T22:20:11Z</time>
      </trkpt>
      <trkpt lat="43.67396" lon="4.01645">
        <ele>29.63</ele>
        <time>2016-12-26T22:20:31Z</time>
      </trkpt>
      <trkpt lat="43.67394" lon="4.01604">
        <ele>30.297</ele>
        <time>2016-12-26T22:20:51Z</time>
      </trkpt>
      <trkpt lat="43.67361" lon="4.01507">
        <ele>33.788</ele>
        <time>2016-12-26T22:21:11Z</time>
      </trkpt>
      <trkpt lat="43.67359" lon="4.01471">
        <ele>34.067</ele>
        <time>2016-12-26T22:21:31Z</time>
      </trkpt>
      <trkpt lat="43.67287" lon="4.01277">
        <ele>35.358</ele>
        <time>2016-12-26T22:21:51Z</time>
      </trkpt>
      <trkpt lat="43.67284" lon="4.01225">
        <ele>35.056</ele>
        <time>2016-12-26T22:22:11Z</time>
      </trkpt>
      <trkpt lat="43.67223" lon="4.00998">
        <ele>34.059</ele>
        <time>2016-12-26T22:22:31Z</time>
      </trkpt>
      <trkpt lat="43.67207" lon="4.00997">
        <ele>34.514</ele>
        <time>2016-12-26T22:22:51Z</time>
      </trkpt>
      <trkpt lat="43.67187" lon="4.00933">
        <ele>35.408</ele>
        <time>2016-12-26T22:23:11Z</time>
      </trkpt>
      <trkpt lat="43.67185" lon="4.0091">
        <ele>35.762</ele>
        <time>2016-12-26T22:23:31Z</time>
      </trkpt>
      <trkpt lat="43.67165" lon="4.00852">
        <ele>37.125</ele>
        <time>2016-12-26T22:23:51Z</time>
      </trkpt>
      <trkpt lat="43.6715" lon="4.00828">
        <ele>38.351</ele>
        <time>2016-12-26T22:24:11Z</time>
      </trkpt>
      <trkpt lat="43.67108" lon="4.00673">
        <ele>40.12</ele>
        <time>2016-12-26T22:24:31Z</time>
      </trkpt>
      <trkpt lat="43.67055" lon="4.00517">
        <ele>41.087</ele>
        <time>2016-12-26T22:24:51Z</time>
      </trkpt>
      <trkpt lat="43.6698" lon="4.00453">
        <ele>40.088</ele>
        <time>2016-12-26T22:25:11Z</time>
      </trkpt>
      <trkpt lat="43.67043" lon="4.00417">
        <ele>41.537</ele>
        <time>2016-12-26T22:25:31Z</time>
      </trkpt>
      <trkpt lat="43.6703" lon="4.00352">
        <ele>43.348</ele>
        <time>2016-12-26T22:25:51Z</time>
      </trkpt>
      <trkpt lat="43.66985" lon="4.0027">
        <ele>45.015</ele>
        <time>2016-12-26T22:26:11Z</time>
      </trkpt>
      <trkpt lat="43.66935" lon="4.00116">
        <ele>45.065</ele>
        <time>2016-12-26T22:26:31Z</time>
      </trkpt>
      <trkpt lat="43.66929" lon="4.00072">
        <ele>44.411</ele>
        <time>2016-12-26T22:26:51Z</time>
      </trkpt>
      <trkpt lat="43.66904" lon="4.00004">
        <ele>43.608</ele>
        <time>2016-12-26T22:27:11Z</time>
      </trkpt>
      <trkpt lat="43.669" lon="3.99964">
        <ele>43.438</ele>
        <time>2016-12-26T22:27:31Z</time>
      </trkpt>
      <trkpt lat="43.66864" lon="3.99859">
        <ele>43.181</ele>
        <time>2016-12-26T22:27:51Z</time>
      </trkpt>
      <trkpt lat="43.66851" lon="3.99849">
        <ele>42.627</ele>
        <time>2016-12-26T22:28:11Z</time>
      </trkpt>
      <trkpt lat="43.66853" lon="3.99822">
        <ele>43.186</ele>
        <time>2016-12-26T22:28:31Z</time>
      </trkpt>
      <trkpt lat="43.6683" lon="3.99764">
        <ele>43.493</ele>
        <time>2016-12-26T22:28:51Z</time>
      </trkpt>
      <trkpt lat="43.66776" lon="3.99566">
        <ele>47.984</ele>
        <time>2016-12-26T22:29:11Z</time>
      </trkpt>
      <trkpt lat="43.66734" lon="3.99453">
        <ele>47.193</ele>
        <time>2016-12-26T22:29:31Z</time>
      </trkpt>
      <trkpt lat="43.66737" lon="3.99353">
        <ele>50.074</ele>
        <time>2016-12-26T22:29:51Z</time>
      </trkpt>
      <trkpt lat="43.66712" lon="3.9925">
        <ele>50.097</ele>
        <time>2016-12-26T22:30:11Z</time>
      </trkpt>
      <trkpt lat="43.66672" lon="3.99146">
        <ele>46.423</ele>
        <time>2016-12-26T22:30:31Z</time>
      </trkpt>
      <trkpt lat="43.66671" lon="3.99108">
        <ele>46.125</ele>
        <time>2016-12-26T22:30:51Z</time>
      </trkpt>
      <trkpt lat="43.66719" lon="3.99126">
        <ele>47.508</ele>
        <time>2016-12-26T22:31:11Z</time>
      </trkpt>
      <trkpt lat="43.66688" lon="3.99025">
        <ele>45.776</ele>
        <time>2016-12-26T22:31:31Z</time>
      </trkpt>
      <trkpt lat="43.66674" lon="3.98952">
        <ele>44.579</ele>
        <time>2016-12-26T22:31:51Z</time>
      </trkpt>
      <trkpt lat="43.66576" lon="3.98916">
        <ele>41.035</ele>
        <time>2016-12-26T22:32:11Z</time>
      </trkpt>
      <trkpt lat="43.66557" lon="3.98881">
        <ele>40.054</ele>
        <time>2016-12-26T22:32:31Z</time>
      </trkpt>
      <trkpt lat="43.66442" lon="3.98875">
        <ele>39.941</ele>
        <time>2021-04-16T15:11:10Z</time>
      </trkpt>
      <trkpt lat="43.66378" lon="3.98854">
        <ele>38.772</ele>
        <time>2021-04-16T15:11:30Z</time>
      </trkpt>
      <trkpt lat="43.66194" lon="3.98724">
        <ele>38.321</ele>
        <time>2021-04-16T15:11:50Z</time>
      </trkpt>
      <trkpt lat="43.66108" lon="3.98687">
        <ele>37.512</ele>
        <time>2021-04-16T15:12:10Z</time>
      </trkpt>
      <trkpt lat="43.66052" lon="3.98647">
        <ele>37.153</ele>
        <time>2021-04-16T15:12:30Z</time>
      </trkpt>
      <trkpt lat="43.66029" lon="3.98622">
        <ele>37.104</ele>
        <time>2021-04-16T15:12:50Z</time>
      </trkpt>
      <trkpt lat="43.65951" lon="3.98599">
        <ele>38.514</ele>
        <time>2021-04-16T15:13:10Z</time>
      </trkpt>
      <trkpt lat="43.6593" lon="3.98565">
        <ele>38.108</ele>
        <time>2021-04-16T15:13:30Z</time>
      </trkpt>
      <trkpt lat="43.65915" lon="3.9851">
        <ele>36.492</ele>
        <time>2021-04-16T15:13:50Z</time>
      </trkpt>
      <trkpt lat="43.65915" lon="3.98474">
        <ele>36.355</ele>
        <time>2021-04-16T15:14:10Z</time>
      </trkpt>
      <trkpt lat="43.6596" lon="3.98481">
        <ele>36.431</ele>
        <time>2021-04-16T15:14:30Z</time>
      </trkpt>
      <trkpt lat="43.65974" lon="3.98473">
        <ele>36.37</ele>
        <time>2021-04-16T15:14:50Z</time>
      </trkpt>
      <trkpt lat="43.65978" lon="3.98447">
        <ele>36.077</ele>
        <time>2021-04-16T15:15:10Z</time>
      </trkpt>
      <trkpt lat="43.65929" lon="3.98243">
        <ele>37.258</ele>
        <time>2021-04-16T15:15:30Z</time>
      </trkpt>
      <trkpt lat="43.65901" lon="3.98104">
        <ele>37.837</ele>
        <time>2021-04-16T15:15:50Z</time>
      </trkpt>
      <trkpt lat="43.65926" lon="3.9809">
        <ele>38.098</ele>
        <time>2021-04-16T15:16:10Z</time>
      </trkpt>
      <trkpt lat="43.65922" lon="3.98055">
        <ele>38.772</ele>
        <time>2021-04-16T15:16:30Z</time>
      </trkpt>
      <trkpt lat="43.65889" lon="3.98052">
        <ele>38.513</ele>
        <time>2021-04-16T15:16:50Z</time>
      </trkpt>
      <trkpt lat="43.65877" lon="3.97917">
        <ele>39.014</ele>
        <time>2021-04-16T15:17:10Z</time>
      </trkpt>
      <trkpt lat="43.65882" lon="3.97599">
        <ele>40.508</ele>
        <time>2021-04-16T15:17:30Z</time>
      </trkpt>
      <trkpt lat="43.65901" lon="3.97546">
        <ele>41.944</ele>
        <time>2021-04-16T15:17:50Z</time>
      </trkpt>
      <trkpt lat="43.65908" lon="3.97485">
        <ele>43.277</ele>
        <time>2021-04-16T15:18:10Z</time>
      </trkpt>
      <trkpt lat="43.65905" lon="3.97412">
        <ele>43.723</ele>
        <time>2021-04-16T15:18:30Z</time>
      </trkpt>
      <trkpt lat="43.65877" lon="3.97232">
        <ele>46.292</ele>
        <time>2021-04-16T15:18:50Z</time>
      </trkpt>
      <trkpt lat="43.65867" lon="3.97195">
        <ele>46.219</ele>
        <time>2021-04-16T15:19:10Z</time>
      </trkpt>
      <trkpt lat="43.65859" lon="3.97129">
        <ele>45.77</ele>
        <time>2021-04-16T15:19:30Z</time>
      </trkpt>
      <trkpt lat="43.65835" lon="3.97043">
        <ele>45.079</ele>
        <time>2021-04-16T15:19:50Z</time>
      </trkpt>
      <trkpt lat="43.65835" lon="3.9699">
        <ele>43.55</ele>
        <time>2021-04-16T15:20:10Z</time>
      </trkpt>
      <trkpt lat="43.6583" lon="3.96986">
        <ele>43.334</ele>
        <time>2021-04-16T15:20:30Z</time>
      </trkpt>
      <trkpt lat="43.65842" lon="3.96917">
        <ele>40.155</ele>
        <time>2021-04-16T15:20:50Z</time>
      </trkpt>
      <trkpt lat="43.6585" lon="3.96855">
        <ele>39.61</ele>
        <time>2021-04-16T15:21:10Z</time>
      </trkpt>
      <trkpt lat="43.65797" lon="3.96825">
        <ele>39.508</ele>
        <time>2021-04-16T15:21:30Z</time>
      </trkpt>
      <trkpt lat="43.65765" lon="3.96847">
        <ele>40.03</ele>
        <time>2021-04-16T15:21:50Z</time>
      </trkpt>
      <trkpt lat="43.65712" lon="3.96849">
        <ele>40.283</ele>
        <time>2021-04-16T15:22:10Z</time>
      </trkpt>
      <trkpt lat="43.65738" lon="3.96769">
        <ele>40.679</ele>
        <time>2021-04-16T15:22:30Z</time>
      </trkpt>
      <trkpt lat="43.65758" lon="3.96665">
        <ele>42.148</ele>
        <time>2021-04-16T15:22:50Z</time>
      </trkpt>
      <trkpt lat="43.65816" lon="3.96502">
        <ele>43.815</ele>
        <time>2021-04-16T15:23:10Z</time>
      </trkpt>
      <trkpt lat="43.65817" lon="3.96366">
        <ele>43.026</ele>
        <time>2021-04-16T15:23:30Z</time>
      </trkpt>
      <trkpt lat="43.65836" lon="3.96214">
        <ele>44.455</ele>
        <time>2021-04-16T15:23:50Z</time>
      </trkpt>
      <trkpt lat="43.65818" lon="3.95934">
        <ele>49.516</ele>
        <time>2016-12-26T22:38:51Z</time>
      </trkpt>
      <trkpt lat="43.65945" lon="3.95197">
        <ele>55.017</ele>
        <time>2021-04-16T15:24:30Z</time>
      </trkpt>
      <trkpt lat="43.66053" lon="3.94808">
        <ele>55.587</ele>
        <time>2021-04-16T15:24:50Z</time>
      </trkpt>
      <trkpt lat="43.66071" lon="3.94617">
        <ele>56.015</ele>
        <time>2021-04-16T15:25:10Z</time>
      </trkpt>
      <trkpt lat="43.66062" lon="3.94315">
        <ele>52.508</ele>
        <time>2021-04-16T15:25:30Z</time>
      </trkpt>
      <trkpt lat="43.65935" lon="3.93665">
        <ele>46.088</ele>
        <time>2016-12-26T22:40:51Z</time>
      </trkpt>
      <trkpt lat="43.65845" lon="3.93586">
        <ele>44.481</ele>
        <time>2016-12-26T22:41:11Z</time>
      </trkpt>
      <trkpt lat="43.658" lon="3.93599">
        <ele>45.347</ele>
        <time>2021-04-16T15:26:30Z</time>
      </trkpt>
      <trkpt lat="43.6566" lon="3.93557">
        <ele>44.346</ele>
        <time>2021-04-16T15:26:50Z</time>
      </trkpt>
      <trkpt lat="43.65609" lon="3.93507">
        <ele>40.223</ele>
        <time>2016-12-26T22:42:11Z</time>
      </trkpt>
      <trkpt lat="43.65653" lon="3.93344">
        <ele>42.124</ele>
        <time>2016-12-26T22:42:31Z</time>
      </trkpt>
      <trkpt lat="43.65671" lon="3.93104">
        <ele>41.463</ele>
        <time>2016-12-26T22:42:51Z</time>
      </trkpt>
      <trkpt lat="43.65583" lon="3.9285">
        <ele>46.674</ele>
        <time>2016-12-26T22:43:11Z</time>
      </trkpt>
      <trkpt lat="43.65564" lon="3.92734">
        <ele>47.434</ele>
        <time>2016-12-26T22:43:31Z</time>
      </trkpt>
      <trkpt lat="43.65549" lon="3.92526">
        <ele>51.255</ele>
        <time>2016-12-26T22:43:51Z</time>
      </trkpt>
      <trkpt lat="43.65498" lon="3.92318">
        <ele>54.61</ele>
        <time>2016-12-26T22:44:11Z</time>
      </trkpt>
      <trkpt lat="43.65406" lon="3.92046">
        <ele>59.008</ele>
        <time>2016-12-26T22:44:31Z</time>
      </trkpt>
      <trkpt lat="43.65341" lon="3.91902">
        <ele>60.02</ele>
        <time>2016-12-26T22:44:51Z</time>
      </trkpt>
      <trkpt lat="43.65277" lon="3.91724">
        <ele>65.043</ele>
        <time>2016-12-26T22:45:11Z</time>
      </trkpt>
      <trkpt lat="43.65215" lon="3.91589">
        <ele>64.059</ele>
        <time>2016-12-26T22:45:31Z</time>
      </trkpt>
      <trkpt lat="43.65114" lon="3.9134">
        <ele>59.328</ele>
        <time>2016-12-26T22:45:51Z</time>
      </trkpt>
      <trkpt lat="43.65078" lon="3.91212">
        <ele>55.655</ele>
        <time>2021-04-16T15:31:10Z</time>
      </trkpt>
      <trkpt lat="43.65078" lon="3.91154">
        <ele>56.466</ele>
        <time>2016-12-26T22:46:11Z</time>
      </trkpt>
      <trkpt lat="43.65035" lon="3.90963">
        <ele>54.295</ele>
        <time>2021-04-16T15:31:50Z</time>
      </trkpt>
      <trkpt lat="43.64847" lon="3.91061">
        <ele>53.296</ele>
        <time>2016-12-26T22:46:51Z</time>
      </trkpt>
      <trkpt lat="43.64676" lon="3.90996">
        <ele>63.323</ele>
        <time>2016-12-26T22:47:11Z</time>
      </trkpt>
      <trkpt lat="43.64523" lon="3.91009">
        <ele>61.483</ele>
        <time>2016-12-26T22:47:31Z</time>
      </trkpt>
      <trkpt lat="43.64353" lon="3.91044">
        <ele>57.311</ele>
        <time>2016-12-26T22:47:51Z</time>
      </trkpt>
      <trkpt lat="43.64299" lon="3.90853">
        <ele>53.708</ele>
        <time>2016-12-26T22:48:11Z</time>
      </trkpt>
      <trkpt lat="43.64302" lon="3.90709">
        <ele>51.929</ele>
        <time>2019-07-04T14:10:34Z</time>
      </trkpt>
      <trkpt lat="43.64276" lon="3.90606">
        <ele>53.162</ele>
        <time>2019-07-04T14:10:54Z</time>
      </trkpt>
      <trkpt lat="43.64203" lon="3.90511">
        <ele>55.998</ele>
        <time>2019-07-04T14:11:14Z</time>
      </trkpt>
      <trkpt lat="43.64094" lon="3.90533">
        <ele>54.477</ele>
        <time>2019-07-04T14:11:34Z</time>
      </trkpt>
      <trkpt lat="43.63964" lon="3.90496">
        <ele>58.194</ele>
        <time>2019-07-04T14:11:54Z</time>
      </trkpt>
      <trkpt lat="43.63889" lon="3.90413">
        <ele>58.244</ele>
        <time>2019-07-04T14:12:34Z</time>
      </trkpt>
      <trkpt lat="43.63831" lon="3.90386">
        <ele>55.095</ele>
        <time>2019-07-04T14:12:54Z</time>
      </trkpt>
      <trkpt lat="43.63711" lon="3.90369">
        <ele>56.666</ele>
        <time>2019-07-04T14:13:14Z</time>
      </trkpt>
      <trkpt lat="43.63663" lon="3.90312">
        <ele>58.629</ele>
        <time>2019-07-04T14:13:34Z</time>
      </trkpt>
      <trkpt lat="43.63618" lon="3.90278">
        <ele>57.521</ele>
        <time>2019-07-04T14:13:54Z</time>
      </trkpt>
      <trkpt lat="43.63591" lon="3.90221">
        <ele>57.608</ele>
        <time>2019-07-04T14:14:14Z</time>
      </trkpt>
      <trkpt lat="43.63545" lon="3.9019">
        <ele>52.873</ele>
        <time>2019-07-04T14:14:34Z</time>
      </trkpt>
      <trkpt lat="43.6349" lon="3.90108">
        <ele>46.716</ele>
        <time>2019-07-04T14:14:54Z</time>
      </trkpt>
      <trkpt lat="43.63428" lon="3.90045">
        <ele>43.872</ele>
        <time>2019-07-04T14:15:14Z</time>
      </trkpt>
      <trkpt lat="43.6339" lon="3.89964">
        <ele>44.091</ele>
        <time>2019-07-04T14:15:34Z</time>
      </trkpt>
      <trkpt lat="43.63362" lon="3.89951">
        <ele>42.838</ele>
        <time>2019-07-04T14:15:54Z</time>
      </trkpt>
      <trkpt lat="43.63303" lon="3.89753">
        <ele>40.099</ele>
        <time>2019-07-04T14:16:14Z</time>
      </trkpt>
      <trkpt lat="43.63296" lon="3.8961">
        <ele>36.068</ele>
        <time>2019-07-04T14:16:34Z</time>
      </trkpt>
      <trkpt lat="43.63298" lon="3.89526">
        <ele>40.769</ele>
        <time>2021-04-16T15:40:10Z</time>
      </trkpt>
      <trkpt lat="43.63318" lon="3.89504">
        <ele>40.843</ele>
        <time>2021-04-16T15:40:30Z</time>
      </trkpt>
      <trkpt lat="43.63322" lon="3.8947">
        <ele>39.264</ele>
        <time>2021-04-16T15:40:50Z</time>
      </trkpt>
      <trkpt lat="43.63318" lon="3.89396">
        <ele>34.21</ele>
        <time>2021-04-16T15:41:10Z</time>
      </trkpt>
      <trkpt lat="43.633" lon="3.89371">
        <ele>31.208</ele>
        <time>2021-04-16T15:41:30Z</time>
      </trkpt>
      <trkpt lat="43.63278" lon="3.89387">
        <ele>31.061</ele>
        <time>2021-04-16T15:41:50Z</time>
      </trkpt>
      <trkpt lat="43.63257" lon="3.89369">
        <ele>25.024</ele>
        <time>2019-07-04T14:17:34Z</time>
      </trkpt>
      <trkpt lat="43.63223" lon="3.89413">
        <ele>25.02</ele>
        <time>2019-07-04T14:17:54Z</time>
      </trkpt>
      <trkpt lat="43.6317" lon="3.8944">
        <ele>25.039</ele>
        <time>2019-07-04T14:18:14Z</time>
      </trkpt>
      <trkpt lat="43.63156" lon="3.89469">
        <ele>25.516</ele>
        <time>2019-07-04T14:18:34Z</time>
      </trkpt>
      <trkpt lat="43.63151" lon="3.89512">
        <ele>28.317</ele>
        <time>2019-07-04T14:18:54Z</time>
      </trkpt>
      <trkpt lat="43.63004" lon="3.89478">
        <ele>25.086</ele>
        <time>2019-07-04T14:19:14Z</time>
      </trkpt>
      <trkpt lat="43.6295" lon="3.89485">
        <ele>22.897</ele>
        <time>2019-07-04T14:19:34Z</time>
      </trkpt>
      <trkpt lat="43.6293" lon="3.89503">
        <ele>21.091</ele>
        <time>2019-07-04T14:19:54Z</time>
      </trkpt>
      <trkpt lat="43.6291" lon="3.89611">
        <ele>21.881</ele>
        <time>2019-07-04T14:20:14Z</time>
      </trkpt>
      <trkpt lat="43.62936" lon="3.89801">
        <ele>29.019</ele>
        <time>2021-04-16T15:45:10Z</time>
      </trkpt>
      <trkpt lat="43.6288" lon="3.89824">
        <ele>27.908</ele>
        <time>2021-04-16T15:45:30Z</time>
      </trkpt>
      <trkpt lat="43.62827" lon="3.89769">
        <ele>25.266</ele>
        <time>2021-04-16T15:45:50Z</time>
      </trkpt>
      <trkpt lat="43.62821" lon="3.8969">
        <ele>23.799</ele>
        <time>2021-04-16T15:46:10Z</time>
      </trkpt>
      <trkpt lat="43.6289" lon="3.89569">
        <ele>24.275</ele>
        <time>2021-04-16T15:46:30Z</time>
      </trkpt>
      <trkpt lat="43.62899" lon="3.895">
        <ele>20.074</ele>
        <time>2019-07-04T14:20:54Z</time>
      </trkpt>
      <trkpt lat="43.62894" lon="3.89467">
        <ele>20.291</ele>
        <time>2019-07-04T14:21:14Z</time>
      </trkpt>
      <trkpt lat="43.62868" lon="3.89404">
        <ele>21.322</ele>
        <time>2019-07-04T14:21:34Z</time>
      </trkpt>
      <trkpt lat="43.62741" lon="3.8916">
        <ele>31.971</ele>
        <time>2021-04-16T15:47:50Z</time>
      </trkpt>
      <trkpt lat="43.627" lon="3.88959">
        <ele>31.362</ele>
        <time>2021-04-16T15:48:10Z</time>
      </trkpt>
      <trkpt lat="43.62589" lon="3.88965">
        <ele>30.097</ele>
        <time>2019-07-04T14:22:34Z</time>
      </trkpt>
      <trkpt lat="43.62077" lon="3.88732">
        <ele>24.823</ele>
        <time>2019-07-04T14:22:54Z</time>
      </trkpt>
      <trkpt lat="43.61755" lon="3.88586">
        <ele>22.225</ele>
        <time>2019-07-04T14:23:14Z</time>
      </trkpt>
      <trkpt lat="43.61479" lon="3.88318">
        <ele>20.608</ele>
        <time>2019-07-04T14:23:34Z</time>
      </trkpt>
      <trkpt lat="43.61441" lon="3.88167">
        <ele>27.986</ele>
        <time>2021-04-16T15:49:50Z</time>
      </trkpt>
      <trkpt lat="43.61401" lon="3.88159">
        <ele>30.669</ele>
        <time>2021-04-16T15:50:10Z</time>
      </trkpt>
      <trkpt lat="43.61388" lon="3.88105">
        <ele>33.245</ele>
        <time>2021-04-16T15:50:30Z</time>
      </trkpt>
      <trkpt lat="43.614" lon="3.88061">
        <ele>25.294</ele>
        <time>2019-07-04T14:24:34Z</time>
      </trkpt>
      <trkpt lat="43.61355" lon="3.88002">
        <ele>28.471</ele>
        <time>2019-07-04T14:24:54Z</time>
      </trkpt>
      <trkpt lat="43.61304" lon="3.8795">
        <ele>33.082</ele>
        <time>2019-07-04T14:25:14Z</time>
      </trkpt>
      <trkpt lat="43.61262" lon="3.87931">
        <ele>51.241</ele>
        <time>2021-04-16T15:51:50Z</time>
      </trkpt>
      <trkpt lat="43.61218" lon="3.87933">
        <ele>53.452</ele>
        <time>2021-04-16T15:52:10Z</time>
      </trkpt>
      <trkpt lat="43.61036" lon="3.87915">
        <ele>51.958</ele>
        <time>2021-04-16T15:52:30Z</time>
      </trkpt>
      <trkpt lat="43.60981" lon="3.87924">
        <ele>50.152</ele>
        <time>2021-04-16T15:52:50Z</time>
      </trkpt>
      <trkpt lat="43.60947" lon="3.87925">
        <ele>48.917</ele>
        <time>2021-04-16T15:53:10Z</time>
      </trkpt>
      <trkpt lat="43.60899" lon="3.87897">
        <ele>48.008</ele>
        <time>2021-04-16T15:53:30Z</time>
      </trkpt>
      <trkpt lat="43.6105" lon="3.87666">
        <ele>55.092</ele>
        <time>2021-04-16T15:53:50Z</time>
      </trkpt>
      <trkpt lat="43.60959" lon="3.8754">
        <ele>53.535</ele>
        <time>2021-04-16T15:54:10Z</time>
      </trkpt>
      <trkpt lat="43.60857" lon="3.87305">
        <ele>34.051</ele>
        <time>2019-07-04T14:27:54Z</time>
      </trkpt>
      <trkpt lat="43.60961" lon="3.87253">
        <ele>39.17</ele>
        <time>2019-07-04T14:28:14Z</time>
      </trkpt>
      <trkpt lat="43.61053" lon="3.87226">
        <ele>49.367</ele>
        <time>2021-04-16T15:55:10Z</time>
      </trkpt>
      <trkpt lat="43.61114" lon="3.87223">
        <ele>52.558</ele>
        <time>2021-04-16T15:55:30Z</time>
      </trkpt>
      <trkpt lat="43.61135" lon="3.86966">
        <ele>42.167</ele>
        <time>2019-07-04T14:29:14Z</time>
      </trkpt>
      <trkpt lat="43.61188" lon="3.86944">
        <ele>39.278</ele>
        <time>2019-07-04T14:29:34Z</time>
      </trkpt>
      <trkpt lat="43.61188" lon="3.86914">
        <ele>38.962</ele>
        <time>2019-07-04T14:29:54Z</time>
      </trkpt>
      <trkpt lat="43.61144" lon="3.86899">
        <ele>40.183</ele>
        <time>2019-07-04T14:30:14Z</time>
      </trkpt>
      <trkpt lat="43.61207" lon="3.86191">
        <ele>39.711</ele>
        <time>2019-07-04T14:30:34Z</time>
      </trkpt>
      <trkpt lat="43.61174" lon="3.86084">
        <ele>43.008</ele>
        <time>2019-07-04T14:30:54Z</time>
      </trkpt>
      <trkpt lat="43.61137" lon="3.85862">
        <ele>50.193</ele>
        <time>2019-07-04T14:31:14Z</time>
      </trkpt>
      <trkpt lat="43.61124" lon="3.85895">
        <ele>50.386</ele>
        <time>2019-07-04T14:31:34Z</time>
      </trkpt>
      <trkpt lat="43.61073" lon="3.85834">
        <ele>53.862</ele>
        <time>2019-07-04T14:31:54Z</time>
      </trkpt>
      <trkpt lat="43.61072" lon="3.85769">
        <ele>54.211</ele>
        <time>2019-07-04T14:32:14Z</time>
      </trkpt>
      <trkpt lat="43.6105" lon="3.85775">
        <ele>56.628</ele>
        <time>2019-07-04T14:32:34Z</time>
      </trkpt>
      <trkpt lat="43.61037" lon="3.85607">
        <ele>57.699</ele>
        <time>2019-07-04T14:32:54Z</time>
      </trkpt>
      <trkpt lat="43.61041" lon="3.8563">
        <ele>57.128</ele>
        <time>2019-07-04T14:33:14Z</time>
      </trkpt>
      <trkpt lat="43.61036" lon="3.85526">
        <ele>57.249</ele>
        <time>2019-07-04T14:33:34Z</time>
      </trkpt>
      <trkpt lat="43.61021" lon="3.85434">
        <ele>60.889</ele>
        <time>2019-07-04T14:33:54Z</time>
      </trkpt>
      <trkpt lat="43.61027" lon="3.85431">
        <ele>60.106</ele>
        <time>2019-07-04T14:34:14Z</time>
      </trkpt>
      <trkpt lat="43.6105" lon="3.85337">
        <ele>60.126</ele>
        <time>2019-07-04T14:34:34Z</time>
      </trkpt>
      <trkpt lat="43.61103" lon="3.85241">
        <ele>60.308</ele>
        <time>2019-07-04T14:34:54Z</time>
      </trkpt>
      <trkpt lat="43.61246" lon="3.8526">
        <ele>59.825</ele>
        <time>2019-07-04T14:35:14Z</time>
      </trkpt>
      <trkpt lat="43.61291" lon="3.85296">
        <ele>61.538</ele>
        <time>2019-07-04T14:35:34Z</time>
      </trkpt>
      <trkpt lat="43.61302" lon="3.8532">
        <ele>61.454</ele>
        <time>2019-07-04T14:35:54Z</time>
      </trkpt>
      <trkpt lat="43.61346" lon="3.85251">
        <ele>63.523</ele>
        <time>2019-07-04T14:36:14Z</time>
      </trkpt>
      <trkpt lat="43.61417" lon="3.85268">
        <ele>61.33</ele>
        <time>2019-07-04T14:36:34Z</time>
      </trkpt>
      <trkpt lat="43.61456" lon="3.85223">
        <ele>60.621</ele>
        <time>2019-07-04T14:36:54Z</time>
      </trkpt>
      <trkpt lat="43.61506" lon="3.85187">
        <ele>58.71</ele>
        <time>2019-07-04T14:37:14Z</time>
      </trkpt>
      <trkpt lat="43.61495" lon="3.85114">
        <ele>61.551</ele>
        <time>2019-07-04T14:37:34Z</time>
      </trkpt>
      <trkpt lat="43.61535" lon="3.84966">
        <ele>63.314</ele>
        <time>2019-07-04T14:37:54Z</time>
      </trkpt>
      <trkpt lat="43.61577" lon="3.84899">
        <ele>62.154</ele>
        <time>2019-07-04T14:38:14Z</time>
      </trkpt>
      <trkpt lat="43.61656" lon="3.84824">
        <ele>61.709</ele>
        <time>2019-07-04T14:38:34Z</time>
      </trkpt>
      <trkpt lat="43.6174" lon="3.84768">
        <ele>60.408</ele>
        <time>2019-07-04T14:38:54Z</time>
      </trkpt>
      <trkpt lat="43.61757" lon="3.84652">
        <ele>59.558</ele>
        <time>2019-07-04T14:39:14Z</time>
      </trkpt>
      <trkpt lat="43.61715" lon="3.84597">
        <ele>60.861</ele>
        <time>2019-07-04T14:39:34Z</time>
      </trkpt>
      <trkpt lat="43.61722" lon="3.84511">
        <ele>62.657</ele>
        <time>2019-07-04T14:39:54Z</time>
      </trkpt>
      <trkpt lat="43.61807" lon="3.84397">
        <ele>65.346</ele>
        <time>2021-04-16T16:06:50Z</time>
      </trkpt>
      <trkpt lat="43.61824" lon="3.84423">
        <ele>64.013</ele>
        <time>2021-04-16T16:07:10Z</time>
      </trkpt>
      <trkpt lat="43.61906" lon="3.8436">
        <ele>64.024</ele>
        <time>2021-04-16T16:07:30Z</time>
      </trkpt>
      <trkpt lat="43.61948" lon="3.84275">
        <ele>61.883</ele>
        <time>2019-07-04T14:41:14Z</time>
      </trkpt>
      <trkpt lat="43.62113" lon="3.8408">
        <ele>63.064</ele>
        <time>2019-07-04T14:41:34Z</time>
      </trkpt>
      <trkpt lat="43.622" lon="3.84069">
        <ele>60.457</ele>
        <time>2019-07-04T14:41:54Z</time>
      </trkpt>
      <trkpt lat="43.62222" lon="3.84052">
        <ele>61.1</ele>
        <time>2019-07-04T14:42:14Z</time>
      </trkpt>
      <trkpt lat="43.62278" lon="3.84024">
        <ele>61.12</ele>
        <time>2019-07-04T14:42:34Z</time>
      </trkpt>
      <trkpt lat="43.62275" lon="3.83998">
        <ele>62.208</ele>
        <time>2019-07-04T14:42:54Z</time>
      </trkpt>
      <trkpt lat="43.62338" lon="3.8385">
        <ele>73.362</ele>
        <time>2019-07-04T14:43:14Z</time>
      </trkpt>
      <trkpt lat="43.6232" lon="3.83753">
        <ele>75.025</ele>
        <time>2019-07-04T14:43:34Z</time>
      </trkpt>
      <trkpt lat="43.62368" lon="3.83728">
        <ele>75.061</ele>
        <time>2019-07-04T14:43:54Z</time>
      </trkpt>
      <trkpt lat="43.62365" lon="3.83698">
        <ele>75.07</ele>
        <time>2019-07-04T14:44:14Z</time>
      </trkpt>
      <trkpt lat="43.62581" lon="3.83614">
        <ele>71.967</ele>
        <time>2019-07-04T14:44:34Z</time>
      </trkpt>
      <trkpt lat="43.62585" lon="3.83674">
        <ele>70.098</ele>
        <time>2019-07-04T14:44:54Z</time>
      </trkpt>
      <trkpt lat="43.62664" lon="3.83786">
        <ele>67.737</ele>
        <time>2019-07-04T14:45:14Z</time>
      </trkpt>
      <trkpt lat="43.62695" lon="3.83865">
        <ele>63.998</ele>
        <time>2019-07-04T14:45:34Z</time>
      </trkpt>
      <trkpt lat="43.62739" lon="3.83938">
        <ele>62.853</ele>
        <time>2021-04-16T16:12:30Z</time>
      </trkpt>
      <trkpt lat="43.62792" lon="3.84004">
        <ele>60.304</ele>
        <time>2019-07-04T14:45:54Z</time>
      </trkpt>
      <trkpt lat="43.62873" lon="3.84015">
        <ele>60.514</ele>
        <time>2019-07-04T14:46:14Z</time>
      </trkpt>
      <trkpt lat="43.63046" lon="3.83938">
        <ele>60.608</ele>
        <time>2019-07-04T14:46:34Z</time>
      </trkpt>
      <trkpt lat="43.63081" lon="3.83884">
        <ele>60.492</ele>
        <time>2019-07-04T14:46:54Z</time>
      </trkpt>
      <trkpt lat="43.63107" lon="3.8382">
        <ele>61.665</ele>
        <time>2019-07-04T14:47:14Z</time>
      </trkpt>
      <trkpt lat="43.63152" lon="3.83792">
        <ele>61.081</ele>
        <time>2019-07-04T14:47:34Z</time>
      </trkpt>
      <trkpt lat="43.63192" lon="3.83781">
        <ele>60.95</ele>
        <time>2019-07-04T14:47:54Z</time>
      </trkpt>
      <trkpt lat="43.63279" lon="3.8367">
        <ele>60.837</ele>
        <time>2019-07-04T14:48:14Z</time>
      </trkpt>
      <trkpt lat="43.63307" lon="3.83665">
        <ele>59.988</ele>
        <time>2019-07-04T14:48:34Z</time>
      </trkpt>
      <trkpt lat="43.63362" lon="3.83554">
        <ele>62.147</ele>
        <time>2019-07-04T14:48:54Z</time>
      </trkpt>
      <trkpt lat="43.63413" lon="3.83416">
        <ele>65.048</ele>
        <time>2019-07-04T14:49:14Z</time>
      </trkpt>
      <trkpt lat="43.63458" lon="3.83337">
        <ele>68.416</ele>
        <time>2019-07-04T14:49:34Z</time>
      </trkpt>
      <trkpt lat="43.63545" lon="3.83225">
        <ele>70.076</ele>
        <time>2019-07-04T14:49:54Z</time>
      </trkpt>
      <trkpt lat="43.63609" lon="3.8317">
        <ele>71.013</ele>
        <time>2019-07-04T14:50:14Z</time>
      </trkpt>
      <trkpt lat="43.63734" lon="3.83095">
        <ele>74.708</ele>
        <time>2021-04-16T16:17:30Z</time>
      </trkpt>
      <trkpt lat="43.63807" lon="3.83039">
        <ele>75.838</ele>
        <time>2021-04-16T16:17:50Z</time>
      </trkpt>
      <trkpt lat="43.63894" lon="3.82936">
        <ele>77.491</ele>
        <time>2021-04-16T16:18:10Z</time>
      </trkpt>
      <trkpt lat="43.63946" lon="3.82839">
        <ele>79.077</ele>
        <time>2019-07-04T14:51:34Z</time>
      </trkpt>
      <trkpt lat="43.63989" lon="3.82794">
        <ele>80.536</ele>
        <time>2019-07-04T14:51:54Z</time>
      </trkpt>
      <trkpt lat="43.6404" lon="3.82773">
        <ele>81.293</ele>
        <time>2021-04-16T16:19:10Z</time>
      </trkpt>
      <trkpt lat="43.64131" lon="3.82691">
        <ele>87.664</ele>
        <time>2021-04-16T16:19:30Z</time>
      </trkpt>
      <trkpt lat="43.64197" lon="3.82611">
        <ele>92.153</ele>
        <time>2021-04-16T16:19:50Z</time>
      </trkpt>
      <trkpt lat="43.64251" lon="3.82508">
        <ele>95.614</ele>
        <time>2021-04-16T16:20:10Z</time>
      </trkpt>
      <trkpt lat="43.643" lon="3.82402">
        <ele>97.771</ele>
        <time>2021-04-16T16:20:30Z</time>
      </trkpt>
      <trkpt lat="43.6436" lon="3.82334">
        <ele>98.741</ele>
        <time>2021-04-16T16:20:50Z</time>
      </trkpt>
      <trkpt lat="43.64374" lon="3.82279">
        <ele>97.015</ele>
        <time>2019-07-04T14:54:34Z</time>
      </trkpt>
      <trkpt lat="43.64416" lon="3.82256">
        <ele>98.008</ele>
        <time>2019-07-04T14:54:54Z</time>
      </trkpt>
      <trkpt lat="43.64411" lon="3.82223">
        <ele>96.894</ele>
        <time>2019-07-04T14:55:14Z</time>
      </trkpt>
      <trkpt lat="43.64388" lon="3.82198">
        <ele>97.087</ele>
        <time>2019-07-04T14:55:34Z</time>
      </trkpt>
      <trkpt lat="43.64352" lon="3.82185">
        <ele>101.163</ele>
        <time>2019-07-04T14:55:54Z</time>
      </trkpt>
      <trkpt lat="43.64348" lon="3.82135">
        <ele>103.672</ele>
        <time>2019-07-04T14:56:14Z</time>
      </trkpt>
      <trkpt lat="43.64463" lon="3.81929">
        <ele>106.159</ele>
        <time>2019-07-04T14:56:34Z</time>
      </trkpt>
      <trkpt lat="43.64498" lon="3.81738">
        <ele>95.06</ele>
        <time>2019-07-04T14:56:54Z</time>
      </trkpt>
      <trkpt lat="43.64458" lon="3.81548">
        <ele>84.219</ele>
        <time>2019-07-04T14:57:14Z</time>
      </trkpt>
      <trkpt lat="43.64503" lon="3.81451">
        <ele>74.41</ele>
        <time>2019-07-04T14:57:34Z</time>
      </trkpt>
      <trkpt lat="43.64522" lon="3.81352">
        <ele>68.735</ele>
        <time>2019-07-04T14:57:54Z</time>
      </trkpt>
      <trkpt lat="43.64575" lon="3.81191">
        <ele>64.086</ele>
        <time>2019-07-04T14:58:14Z</time>
      </trkpt>
      <trkpt lat="43.64589" lon="3.81188">
        <ele>64.214</ele>
        <time>2021-04-16T16:25:10Z</time>
      </trkpt>
      <trkpt lat="43.64605" lon="3.80963">
        <ele>63.808</ele>
        <time>2021-04-16T16:25:30Z</time>
      </trkpt>
      <trkpt lat="43.64673" lon="3.80717">
        <ele>65.56</ele>
        <time>2021-04-16T16:25:50Z</time>
      </trkpt>
      <trkpt lat="43.64679" lon="3.80615">
        <ele>64.233</ele>
        <time>2021-04-16T16:26:10Z</time>
      </trkpt>
      <trkpt lat="43.64669" lon="3.8043">
        <ele>60.019</ele>
        <time>2019-07-04T15:00:14Z</time>
      </trkpt>
      <trkpt lat="43.64675" lon="3.80297">
        <ele>60.028</ele>
        <time>2019-07-04T15:00:34Z</time>
      </trkpt>
      <trkpt lat="43.64694" lon="3.80159">
        <ele>62.075</ele>
        <time>2019-07-04T15:00:54Z</time>
      </trkpt>
      <trkpt lat="43.64748" lon="3.80015">
        <ele>62.986</ele>
        <time>2019-07-04T15:01:14Z</time>
      </trkpt>
      <trkpt lat="43.64703" lon="3.79942">
        <ele>61.335</ele>
        <time>2019-07-04T15:01:34Z</time>
      </trkpt>
      <trkpt lat="43.64696" lon="3.79827">
        <ele>60.066</ele>
        <time>2019-07-04T15:01:54Z</time>
      </trkpt>
      <trkpt lat="43.64705" lon="3.79719">
        <ele>59.333</ele>
        <time>2019-07-04T15:02:14Z</time>
      </trkpt>
      <trkpt lat="43.64724" lon="3.79659">
        <ele>58.723</ele>
        <time>2019-07-04T15:02:34Z</time>
      </trkpt>
      <trkpt lat="43.64738" lon="3.79648">
        <ele>58.715</ele>
        <time>2019-07-04T15:02:54Z</time>
      </trkpt>
      <trkpt lat="43.64745" lon="3.79603">
        <ele>58.608</ele>
        <time>2019-07-04T15:03:14Z</time>
      </trkpt>
      <trkpt lat="43.64659" lon="3.79404">
        <ele>58.59</ele>
        <time>2021-04-16T16:29:50Z</time>
      </trkpt>
      <trkpt lat="43.64598" lon="3.79473">
        <ele>57.953</ele>
        <time>2021-04-16T16:30:10Z</time>
      </trkpt>
      <trkpt lat="43.64587" lon="3.7945">
        <ele>60.889</ele>
        <time>2021-04-16T16:30:30Z</time>
      </trkpt>
      <trkpt lat="43.64638" lon="3.79382">
        <ele>57.348</ele>
        <time>2019-07-04T15:04:34Z</time>
      </trkpt>
      <trkpt lat="43.64658" lon="3.793">
        <ele>61.815</ele>
        <time>2019-07-04T15:04:54Z</time>
      </trkpt>
      <trkpt lat="43.64751" lon="3.79184">
        <ele>63.566</ele>
        <time>2019-07-04T15:05:14Z</time>
      </trkpt>
      <trkpt lat="43.6481" lon="3.79131">
        <ele>61.245</ele>
        <time>2019-07-04T15:05:34Z</time>
      </trkpt>
      <trkpt lat="43.6489" lon="3.79047">
        <ele>60.666</ele>
        <time>2019-07-04T15:05:54Z</time>
      </trkpt>
      <trkpt lat="43.64961" lon="3.78998">
        <ele>61.061</ele>
        <time>2019-07-04T15:06:14Z</time>
      </trkpt>
      <trkpt lat="43.65003" lon="3.78951">
        <ele>63.121</ele>
        <time>2019-07-04T15:06:34Z</time>
      </trkpt>
      <trkpt lat="43.65074" lon="3.789">
        <ele>61.113</ele>
        <time>2019-07-04T15:06:54Z</time>
      </trkpt>
      <trkpt lat="43.65085" lon="3.78855">
        <ele>63.308</ele>
        <time>2019-07-04T15:07:14Z</time>
      </trkpt>
      <trkpt lat="43.65146" lon="3.78812">
        <ele>63.183</ele>
        <time>2019-07-04T15:07:34Z</time>
      </trkpt>
      <trkpt lat="43.65135" lon="3.78756">
        <ele>66.926</ele>
        <time>2019-07-04T15:07:54Z</time>
      </trkpt>
      <trkpt lat="43.6514" lon="3.78724">
        <ele>67.962</ele>
        <time>2019-07-04T15:08:14Z</time>
      </trkpt>
      <trkpt lat="43.65132" lon="3.78687">
        <ele>69.831</ele>
        <time>2019-07-04T15:08:34Z</time>
      </trkpt>
      <trkpt lat="43.65137" lon="3.78561">
        <ele>71.428</ele>
        <time>2019-07-04T15:08:54Z</time>
      </trkpt>
      <trkpt lat="43.65126" lon="3.78516">
        <ele>72.059</ele>
        <time>2019-07-04T15:09:14Z</time>
      </trkpt>
      <trkpt lat="43.65127" lon="3.78458">
        <ele>72.748</ele>
        <time>2019-07-04T15:09:34Z</time>
      </trkpt>
      <trkpt lat="43.6509" lon="3.78443">
        <ele>74.989</ele>
        <time>2019-07-04T15:09:54Z</time>
      </trkpt>
      <trkpt lat="43.64932" lon="3.78134">
        <ele>97.175</ele>
        <time>2019-07-04T15:10:14Z</time>
      </trkpt>
      <trkpt lat="43.64918" lon="3.78041">
        <ele>94.528</ele>
        <time>2019-07-04T15:10:34Z</time>
      </trkpt>
      <trkpt lat="43.64843" lon="3.77801">
        <ele>110.02</ele>
        <time>2019-07-04T15:10:54Z</time>
      </trkpt>
      <trkpt lat="43.64823" lon="3.77726">
        <ele>109.108</ele>
        <time>2021-04-16T16:37:30Z</time>
      </trkpt>
      <trkpt lat="43.64784" lon="3.7771">
        <ele>109.964</ele>
        <time>2021-04-16T16:37:50Z</time>
      </trkpt>
      <trkpt lat="43.64742" lon="3.77649">
        <ele>108.277</ele>
        <time>2021-04-16T16:38:10Z</time>
      </trkpt>
      <trkpt lat="43.64711" lon="3.77568">
        <ele>110.283</ele>
        <time>2021-04-16T16:38:30Z</time>
      </trkpt>
      <trkpt lat="43.64692" lon="3.7745">
        <ele>116.892</ele>
        <time>2021-04-16T16:38:50Z</time>
      </trkpt>
      <trkpt lat="43.64691" lon="3.77381">
        <ele>121.379</ele>
        <time>2021-04-16T16:39:10Z</time>
      </trkpt>
      <trkpt lat="43.6465" lon="3.77174">
        <ele>133.18</ele>
        <time>2021-04-16T16:39:30Z</time>
      </trkpt>
      <trkpt lat="43.64649" lon="3.77127">
        <ele>134.589</ele>
        <time>2021-04-16T16:39:50Z</time>
      </trkpt>
      <trkpt lat="43.64668" lon="3.77092">
        <ele>136.81</ele>
        <time>2021-04-16T16:40:10Z</time>
      </trkpt>
      <trkpt lat="43.64706" lon="3.77095">
        <ele>140.017</ele>
        <time>2021-04-16T16:40:30Z</time>
      </trkpt>
      <trkpt lat="43.6467" lon="3.76932">
        <ele>135.587</ele>
        <time>2021-04-16T16:40:50Z</time>
      </trkpt>
      <trkpt lat="43.64702" lon="3.76893">
        <ele>138.715</ele>
        <time>2021-04-16T16:41:10Z</time>
      </trkpt>
      <trkpt lat="43.64702" lon="3.76793">
        <ele>137.708</ele>
        <time>2021-04-16T16:41:30Z</time>
      </trkpt>
      <trkpt lat="43.64661" lon="3.768">
        <ele>134.788</ele>
        <time>2021-04-16T16:41:50Z</time>
      </trkpt>
      <trkpt lat="43.6466" lon="3.76784">
        <ele>135.141</ele>
        <time>2021-04-16T16:42:10Z</time>
      </trkpt>
      <trkpt lat="43.64678" lon="3.76652">
        <ele>137.147</ele>
        <time>2021-04-16T16:42:30Z</time>
      </trkpt>
      <trkpt lat="43.646" lon="3.76634">
        <ele>136.096</ele>
        <time>2021-04-16T16:42:50Z</time>
      </trkpt>
      <trkpt lat="43.64585" lon="3.76599">
        <ele>136.013</ele>
        <time>2021-04-16T16:43:10Z</time>
      </trkpt>
      <trkpt lat="43.64626" lon="3.76422">
        <ele>139.094</ele>
        <time>2021-04-16T16:43:30Z</time>
      </trkpt>
      <trkpt lat="43.64588" lon="3.75998">
        <ele>142.173</ele>
        <time>2021-04-16T16:43:50Z</time>
      </trkpt>
      <trkpt lat="43.64569" lon="3.75832">
        <ele>143.824</ele>
        <time>2021-04-16T16:44:10Z</time>
      </trkpt>
      <trkpt lat="43.64531" lon="3.75763">
        <ele>142.667</ele>
        <time>2021-04-16T16:44:30Z</time>
      </trkpt>
      <trkpt lat="43.64522" lon="3.75664">
        <ele>142.381</ele>
        <time>2021-04-16T16:44:50Z</time>
      </trkpt>
      <trkpt lat="43.64484" lon="3.75637">
        <ele>141.319</ele>
        <time>2021-04-16T16:45:10Z</time>
      </trkpt>
      <trkpt lat="43.6444" lon="3.75589">
        <ele>140.708</ele>
        <time>2021-04-16T16:45:30Z</time>
      </trkpt>
      <trkpt lat="43.64347" lon="3.75551">
        <ele>139.653</ele>
        <time>2021-04-16T16:45:50Z</time>
      </trkpt>
      <trkpt lat="43.64281" lon="3.75495">
        <ele>140.436</ele>
        <time>2021-04-16T16:46:10Z</time>
      </trkpt>
      <trkpt lat="43.64254" lon="3.75487">
        <ele>139.932</ele>
        <time>2021-04-16T16:46:30Z</time>
      </trkpt>
      <trkpt lat="43.64238" lon="3.75388">
        <ele>139.931</ele>
        <time>2021-04-16T16:46:50Z</time>
      </trkpt>
      <trkpt lat="43.64212" lon="3.75298">
        <ele>141.678</ele>
        <time>2021-04-16T16:47:10Z</time>
      </trkpt>
      <trkpt lat="43.64155" lon="3.75207">
        <ele>144.779</ele>
        <time>2021-04-16T16:47:30Z</time>
      </trkpt>
      <trkpt lat="43.64105" lon="3.751">
        <ele>148.498</ele>
        <time>2021-04-16T16:47:50Z</time>
      </trkpt>
      <trkpt lat="43.6406" lon="3.75007">
        <ele>148.999</ele>
        <time>2021-04-16T16:48:10Z</time>
      </trkpt>
      <trkpt lat="43.64028" lon="3.74993">
        <ele>150.924</ele>
        <time>2021-04-16T16:48:30Z</time>
      </trkpt>
      <trkpt lat="43.63997" lon="3.74928">
        <ele>153.204</ele>
        <time>2021-04-16T16:48:50Z</time>
      </trkpt>
      <trkpt lat="43.63966" lon="3.74892">
        <ele>154.814</ele>
        <time>2021-04-16T16:49:10Z</time>
      </trkpt>
      <trkpt lat="43.6396" lon="3.7483">
        <ele>150.208</ele>
        <time>2019-07-04T15:21:14Z</time>
      </trkpt>
      <trkpt lat="43.6394" lon="3.74654">
        <ele>150.319</ele>
        <time>2019-07-04T15:21:34Z</time>
      </trkpt>
      <trkpt lat="43.63907" lon="3.74492">
        <ele>153.312</ele>
        <time>2019-07-04T15:21:54Z</time>
      </trkpt>
      <trkpt lat="43.63907" lon="3.74391">
        <ele>151.148</ele>
        <time>2019-07-04T15:22:14Z</time>
      </trkpt>
      <trkpt lat="43.6389" lon="3.74296">
        <ele>147.887</ele>
        <time>2019-07-04T15:22:34Z</time>
      </trkpt>
      <trkpt lat="43.63887" lon="3.74197">
        <ele>145.894</ele>
        <time>2019-07-04T15:22:54Z</time>
      </trkpt>
      <trkpt lat="43.63864" lon="3.73871">
        <ele>143.035</ele>
        <time>2019-07-04T15:23:14Z</time>
      </trkpt>
      <trkpt lat="43.63868" lon="3.7378">
        <ele>139.324</ele>
        <time>2019-07-04T15:23:34Z</time>
      </trkpt>
      <trkpt lat="43.63835" lon="3.73717">
        <ele>138.055</ele>
        <time>2019-07-04T15:23:54Z</time>
      </trkpt>
      <trkpt lat="43.6385" lon="3.73349">
        <ele>133.839</ele>
        <time>2019-07-04T15:24:14Z</time>
      </trkpt>
      <trkpt lat="43.63848" lon="3.7311">
        <ele>131.901</ele>
        <time>2019-07-04T15:24:34Z</time>
      </trkpt>
      <trkpt lat="43.63876" lon="3.72898">
        <ele>130.421</ele>
        <time>2019-07-04T15:24:54Z</time>
      </trkpt>
      <trkpt lat="43.6391" lon="3.72729">
        <ele>129.408</ele>
        <time>2019-07-04T15:25:14Z</time>
      </trkpt>
      <trkpt lat="43.63969" lon="3.72523">
        <ele>129.26</ele>
        <time>2019-07-04T15:25:34Z</time>
      </trkpt>
      <trkpt lat="43.64039" lon="3.72393">
        <ele>129.073</ele>
        <time>2019-07-04T15:25:54Z</time>
      </trkpt>
      <trkpt lat="43.64084" lon="3.72327">
        <ele>128.289</ele>
        <time>2019-07-04T15:26:14Z</time>
      </trkpt>
      <trkpt lat="43.64129" lon="3.72241">
        <ele>128.468</ele>
        <time>2019-07-04T15:26:34Z</time>
      </trkpt>
      <trkpt lat="43.64211" lon="3.72026">
        <ele>128.065</ele>
        <time>2019-07-04T15:26:54Z</time>
      </trkpt>
      <trkpt lat="43.64228" lon="3.71911">
        <ele>129.086</ele>
        <time>2019-07-04T15:27:14Z</time>
      </trkpt>
      <trkpt lat="43.64219" lon="3.71901">
        <ele>129.195</ele>
        <time>2019-07-04T15:27:34Z</time>
      </trkpt>
      <trkpt lat="43.64249" lon="3.71816">
        <ele>132.366</ele>
        <time>2019-07-04T15:27:54Z</time>
      </trkpt>
      <trkpt lat="43.64251" lon="3.71759">
        <ele>135.885</ele>
        <time>2021-04-16T16:56:50Z</time>
      </trkpt>
      <trkpt lat="43.64238" lon="3.71752">
        <ele>136.213</ele>
        <time>2019-07-04T15:29:14Z</time>
      </trkpt>
      <trkpt lat="43.64217" lon="3.71765">
        <ele>137.208</ele>
        <time>2019-07-04T15:29:34Z</time>
      </trkpt>
      <trkpt lat="43.64188" lon="3.71666">
        <ele>143.984</ele>
        <time>2019-07-04T15:29:54Z</time>
      </trkpt>
      <trkpt lat="43.64076" lon="3.71572">
        <ele>152.697</ele>
        <time>2019-07-04T15:30:14Z</time>
      </trkpt>
      <trkpt lat="43.64065" lon="3.71514">
        <ele>150.283</ele>
        <time>2019-07-04T15:30:34Z</time>
      </trkpt>
      <trkpt lat="43.6407" lon="3.71467">
        <ele>147.242</ele>
        <time>2019-07-04T15:30:54Z</time>
      </trkpt>
      <trkpt lat="43.64068" lon="3.71422">
        <ele>143.389</ele>
        <time>2019-07-04T15:31:14Z</time>
      </trkpt>
      <trkpt lat="43.64076" lon="3.71338">
        <ele>140.05</ele>
        <time>2019-07-04T15:31:34Z</time>
      </trkpt>
      <trkpt lat="43.64042" lon="3.71224">
        <ele>129.869</ele>
        <time>2019-07-04T15:31:54Z</time>
      </trkpt>
      <trkpt lat="43.64061" lon="3.71192">
        <ele>126.96</ele>
        <time>2019-07-04T15:32:14Z</time>
      </trkpt>
      <trkpt lat="43.6405" lon="3.71171">
        <ele>126.298</ele>
        <time>2019-07-04T15:32:34Z</time>
      </trkpt>
      <trkpt lat="43.64026" lon="3.71179">
        <ele>126.915</ele>
        <time>2019-07-04T15:32:54Z</time>
      </trkpt>
      <trkpt lat="43.63994" lon="3.71151">
        <ele>126.826</ele>
        <time>2019-07-04T15:33:14Z</time>
      </trkpt>
      <trkpt lat="43.63961" lon="3.7116">
        <ele>130.708</ele>
        <time>2019-07-04T15:33:34Z</time>
      </trkpt>
      <trkpt lat="43.63933" lon="3.71149">
        <ele>136.376</ele>
        <time>2019-07-04T15:33:54Z</time>
      </trkpt>
      <trkpt lat="43.63916" lon="3.71095">
        <ele>140.059</ele>
        <time>2019-07-04T15:34:14Z</time>
      </trkpt>
      <trkpt lat="43.63924" lon="3.7104">
        <ele>139.635</ele>
        <time>2019-07-04T15:34:34Z</time>
      </trkpt>
      <trkpt lat="43.63946" lon="3.71001">
        <ele>140.084</ele>
        <time>2019-07-04T15:34:54Z</time>
      </trkpt>
      <trkpt lat="43.63963" lon="3.70924">
        <ele>141.861</ele>
        <time>2019-07-04T15:35:14Z</time>
      </trkpt>
      <trkpt lat="43.63983" lon="3.70862">
        <ele>142.612</ele>
        <time>2019-07-04T15:35:34Z</time>
      </trkpt>
      <trkpt lat="43.63998" lon="3.70733">
        <ele>144.951</ele>
        <time>2019-07-04T15:35:54Z</time>
      </trkpt>
      <trkpt lat="43.63997" lon="3.70634">
        <ele>143.332</ele>
        <time>2019-07-04T15:36:14Z</time>
      </trkpt>
      <trkpt lat="43.63952" lon="3.70512">
        <ele>135.571</ele>
        <time>2019-07-04T15:36:34Z</time>
      </trkpt>
      <trkpt lat="43.63943" lon="3.70441">
        <ele>130.541</ele>
        <time>2019-07-04T15:36:54Z</time>
      </trkpt>
      <trkpt lat="43.63929" lon="3.70422">
        <ele>127.515</ele>
        <time>2019-07-04T15:37:14Z</time>
      </trkpt>
      <trkpt lat="43.63947" lon="3.70396">
        <ele>127.108</ele>
        <time>2019-07-04T15:37:34Z</time>
      </trkpt>
      <trkpt lat="43.63964" lon="3.70381">
        <ele>128.164</ele>
        <time>2019-07-04T15:37:54Z</time>
      </trkpt>
      <trkpt lat="43.64002" lon="3.70325">
        <ele>126.417</ele>
        <time>2019-07-04T15:38:14Z</time>
      </trkpt>
      <trkpt lat="43.64113" lon="3.70282">
        <ele>113.293</ele>
        <time>2019-07-04T15:38:34Z</time>
      </trkpt>
      <trkpt lat="43.64197" lon="3.70188">
        <ele>110.062</ele>
        <time>2019-07-04T15:38:54Z</time>
      </trkpt>
      <trkpt lat="43.64261" lon="3.7013">
        <ele>110.049</ele>
        <time>2019-07-04T15:39:14Z</time>
      </trkpt>
      <trkpt lat="43.6432" lon="3.70057">
        <ele>111.59</ele>
        <time>2019-07-04T15:39:34Z</time>
      </trkpt>
      <trkpt lat="43.64373" lon="3.70014">
        <ele>112.169</ele>
        <time>2019-07-04T15:39:54Z</time>
      </trkpt>
      <trkpt lat="43.64415" lon="3.6999">
        <ele>110.89</ele>
        <time>2019-07-04T15:40:14Z</time>
      </trkpt>
      <trkpt lat="43.64461" lon="3.69984">
        <ele>109.337</ele>
        <time>2019-07-04T15:40:34Z</time>
      </trkpt>
      <trkpt lat="43.64537" lon="3.69941">
        <ele>110.149</ele>
        <time>2019-07-04T15:40:54Z</time>
      </trkpt>
      <trkpt lat="43.64596" lon="3.69935">
        <ele>110.213</ele>
        <time>2019-07-04T15:41:14Z</time>
      </trkpt>
      <trkpt lat="43.64734" lon="3.6987">
        <ele>119.408</ele>
        <time>2019-07-04T15:41:34Z</time>
      </trkpt>
      <trkpt lat="43.64857" lon="3.69834">
        <ele>123.87</ele>
        <time>2019-07-04T15:41:54Z</time>
      </trkpt>
      <trkpt lat="43.64885" lon="3.69834">
        <ele>124.013</ele>
        <time>2019-07-04T15:42:14Z</time>
      </trkpt>
      <trkpt lat="43.64945" lon="3.6972">
        <ele>134.919</ele>
        <time>2016-12-27T18:07:10Z</time>
      </trkpt>
      <trkpt lat="43.64975" lon="3.69733">
        <ele>126.885</ele>
        <time>2016-12-27T18:07:30Z</time>
      </trkpt>
      <trkpt lat="43.64963" lon="3.69621">
        <ele>128.016</ele>
        <time>2016-12-27T18:07:50Z</time>
      </trkpt>
      <trkpt lat="43.64945" lon="3.69559">
        <ele>142.265</ele>
        <time>2021-04-16T17:11:50Z</time>
      </trkpt>
      <trkpt lat="43.64958" lon="3.69515">
        <ele>140.046</ele>
        <time>2021-04-16T17:12:10Z</time>
      </trkpt>
      <trkpt lat="43.64927" lon="3.69456">
        <ele>139.839</ele>
        <time>2021-04-16T17:12:30Z</time>
      </trkpt>
      <trkpt lat="43.64959" lon="3.69397">
        <ele>134.201</ele>
        <time>2021-04-16T17:12:50Z</time>
      </trkpt>
      <trkpt lat="43.64937" lon="3.69372">
        <ele>134.221</ele>
        <time>2021-04-16T17:13:10Z</time>
      </trkpt>
      <trkpt lat="43.64985" lon="3.6924">
        <ele>135.308</ele>
        <time>2021-04-16T17:13:30Z</time>
      </trkpt>
      <trkpt lat="43.65048" lon="3.6929">
        <ele>135.19</ele>
        <time>2021-04-16T17:13:50Z</time>
      </trkpt>
      <trkpt lat="43.65071" lon="3.69261">
        <ele>134.093</ele>
        <time>2016-12-27T18:09:50Z</time>
      </trkpt>
      <trkpt lat="43.65054" lon="3.69141">
        <ele>138.099</ele>
        <time>2016-12-27T18:10:10Z</time>
      </trkpt>
      <trkpt lat="43.65054" lon="3.69073">
        <ele>142.958</ele>
        <time>2021-04-16T17:14:50Z</time>
      </trkpt>
      <trkpt lat="43.65029" lon="3.68992">
        <ele>145.435</ele>
        <time>2021-04-16T17:15:10Z</time>
      </trkpt>
      <trkpt lat="43.65031" lon="3.68943">
        <ele>144.116</ele>
        <time>2016-12-27T18:11:10Z</time>
      </trkpt>
      <trkpt lat="43.65049" lon="3.68837">
        <ele>145.865</ele>
        <time>2021-04-16T17:15:50Z</time>
      </trkpt>
      <trkpt lat="43.65054" lon="3.68737">
        <ele>150.496</ele>
        <time>2016-12-27T18:11:50Z</time>
      </trkpt>
      <trkpt lat="43.65098" lon="3.68619">
        <ele>157.237</ele>
        <time>2016-12-27T18:12:10Z</time>
      </trkpt>
      <trkpt lat="43.65124" lon="3.68486">
        <ele>162.249</ele>
        <time>2016-12-27T18:12:30Z</time>
      </trkpt>
      <trkpt lat="43.65102" lon="3.68424">
        <ele>168.713</ele>
        <time>2016-12-27T18:12:50Z</time>
      </trkpt>
      <trkpt lat="43.65091" lon="3.6836">
        <ele>178.208</ele>
        <time>2016-12-27T18:13:10Z</time>
      </trkpt>
      <trkpt lat="43.65107" lon="3.68351">
        <ele>176.38</ele>
        <time>2016-12-27T18:13:30Z</time>
      </trkpt>
      <trkpt lat="43.65141" lon="3.68351">
        <ele>176.793</ele>
        <time>2016-12-27T18:13:50Z</time>
      </trkpt>
      <trkpt lat="43.652" lon="3.68304">
        <ele>178.519</ele>
        <time>2016-12-27T18:14:10Z</time>
      </trkpt>
      <trkpt lat="43.65191" lon="3.68278">
        <ele>181.598</ele>
        <time>2016-12-27T18:14:30Z</time>
      </trkpt>
      <trkpt lat="43.65171" lon="3.68279">
        <ele>184.665</ele>
        <time>2021-04-16T17:19:10Z</time>
      </trkpt>
      <trkpt lat="43.6516" lon="3.68259">
        <ele>187.776</ele>
        <time>2021-04-16T17:19:30Z</time>
      </trkpt>
      <trkpt lat="43.65112" lon="3.68235">
        <ele>197.845</ele>
        <time>2021-04-16T17:19:50Z</time>
      </trkpt>
      <trkpt lat="43.65141" lon="3.68209">
        <ele>199.956</ele>
        <time>2016-12-27T18:16:10Z</time>
      </trkpt>
      <trkpt lat="43.65147" lon="3.68194">
        <ele>201.874</ele>
        <time>2016-12-27T18:16:30Z</time>
      </trkpt>
      <trkpt lat="43.65144" lon="3.68175">
        <ele>207.056</ele>
        <time>2016-12-27T18:16:50Z</time>
      </trkpt>
      <trkpt lat="43.65169" lon="3.68145">
        <ele>209.221</ele>
        <time>2016-12-27T18:17:10Z</time>
      </trkpt>
      <trkpt lat="43.65178" lon="3.68083">
        <ele>221.808</ele>
        <time>2016-12-27T18:17:30Z</time>
      </trkpt>
      <trkpt lat="43.65199" lon="3.68048">
        <ele>223.924</ele>
        <time>2016-12-27T18:17:50Z</time>
      </trkpt>
      <trkpt lat="43.65223" lon="3.67986">
        <ele>234.787</ele>
        <time>2016-12-27T18:18:10Z</time>
      </trkpt>
      <trkpt lat="43.65276" lon="3.67928">
        <ele>241.133</ele>
        <time>2016-12-27T18:18:30Z</time>
      </trkpt>
      <trkpt lat="43.65315" lon="3.67898">
        <ele>247.432</ele>
        <time>2016-12-27T18:18:50Z</time>
      </trkpt>
      <trkpt lat="43.65334" lon="3.67875">
        <ele>252.699</ele>
        <time>2016-12-27T18:19:10Z</time>
      </trkpt>
      <trkpt lat="43.6534" lon="3.67835">
        <ele>260.78</ele>
        <time>2021-04-16T17:23:30Z</time>
      </trkpt>
      <trkpt lat="43.65341" lon="3.67778">
        <ele>259.389</ele>
        <time>2016-12-27T18:20:10Z</time>
      </trkpt>
      <trkpt lat="43.65358" lon="3.67654">
        <ele>248.45</ele>
        <time>2016-12-27T18:20:30Z</time>
      </trkpt>
      <trkpt lat="43.65365" lon="3.6748">
        <ele>249.475</ele>
        <time>2016-12-27T18:20:50Z</time>
      </trkpt>
      <trkpt lat="43.65405" lon="3.67338">
        <ele>250.828</ele>
        <time>2016-12-27T18:21:10Z</time>
      </trkpt>
      <trkpt lat="43.65427" lon="3.67218">
        <ele>250.72</ele>
        <time>2016-12-27T18:21:30Z</time>
      </trkpt>
      <trkpt lat="43.65497" lon="3.67132">
        <ele>248.808</ele>
        <time>2016-12-27T18:21:50Z</time>
      </trkpt>
      <trkpt lat="43.65548" lon="3.67046">
        <ele>238.514</ele>
        <time>2016-12-27T18:22:10Z</time>
      </trkpt>
      <trkpt lat="43.65568" lon="3.66976">
        <ele>237.377</ele>
        <time>2016-12-27T18:22:30Z</time>
      </trkpt>
      <trkpt lat="43.65588" lon="3.66855">
        <ele>241.633</ele>
        <time>2016-12-27T18:22:50Z</time>
      </trkpt>
      <trkpt lat="43.65632" lon="3.66716">
        <ele>245.272</ele>
        <time>2016-12-27T18:23:10Z</time>
      </trkpt>
      <trkpt lat="43.65666" lon="3.66673">
        <ele>247.089</ele>
        <time>2016-12-27T18:23:30Z</time>
      </trkpt>
      <trkpt lat="43.657" lon="3.66597">
        <ele>248.13</ele>
        <time>2021-04-16T17:27:30Z</time>
      </trkpt>
      <trkpt lat="43.65713" lon="3.66517">
        <ele>245.479</ele>
        <time>2021-04-16T17:27:50Z</time>
      </trkpt>
      <trkpt lat="43.65767" lon="3.66407">
        <ele>239.83</ele>
        <time>2021-04-16T17:28:10Z</time>
      </trkpt>
      <trkpt lat="43.65789" lon="3.66332">
        <ele>235.699</ele>
        <time>2021-04-16T17:28:30Z</time>
      </trkpt>
      <trkpt lat="43.65807" lon="3.66302">
        <ele>233.107</ele>
        <time>2021-04-16T17:28:50Z</time>
      </trkpt>
      <trkpt lat="43.65815" lon="3.66267">
        <ele>231.227</ele>
        <time>2021-04-16T17:29:10Z</time>
      </trkpt>
      <trkpt lat="43.65835" lon="3.66236">
        <ele>229.408</ele>
        <time>2021-04-16T17:29:30Z</time>
      </trkpt>
      <trkpt lat="43.65847" lon="3.6627">
        <ele>229.766</ele>
        <time>2021-04-16T17:29:50Z</time>
      </trkpt>
      <trkpt lat="43.65881" lon="3.6622">
        <ele>226.339</ele>
        <time>2021-04-16T17:30:10Z</time>
      </trkpt>
      <trkpt lat="43.65913" lon="3.66174">
        <ele>223.365</ele>
        <time>2021-04-16T17:30:30Z</time>
      </trkpt>
      <trkpt lat="43.66023" lon="3.66096">
        <ele>210.374</ele>
        <time>2016-12-27T18:26:10Z</time>
      </trkpt>
      <trkpt lat="43.66052" lon="3.66044">
        <ele>207.771</ele>
        <time>2016-12-27T18:26:30Z</time>
      </trkpt>
      <trkpt lat="43.6606" lon="3.65976">
        <ele>205.052</ele>
        <time>2016-12-27T18:26:50Z</time>
      </trkpt>
      <trkpt lat="43.66028" lon="3.65858">
        <ele>198.671</ele>
        <time>2016-12-27T18:27:10Z</time>
      </trkpt>
      <trkpt lat="43.66021" lon="3.658">
        <ele>193.652</ele>
        <time>2016-12-27T18:27:30Z</time>
      </trkpt>
      <trkpt lat="43.66042" lon="3.65495">
        <ele>192.294</ele>
        <time>2016-12-27T18:27:50Z</time>
      </trkpt>
      <trkpt lat="43.6606" lon="3.65431">
        <ele>195.057</ele>
        <time>2016-12-27T18:28:10Z</time>
      </trkpt>
      <trkpt lat="43.66076" lon="3.65394">
        <ele>195.022</ele>
        <time>2016-12-27T18:28:30Z</time>
      </trkpt>
      <trkpt lat="43.66083" lon="3.64931">
        <ele>175.008</ele>
        <time>2016-12-27T18:28:50Z</time>
      </trkpt>
      <trkpt lat="43.66099" lon="3.64802">
        <ele>175.196</ele>
        <time>2016-12-27T18:29:10Z</time>
      </trkpt>
      <trkpt lat="43.66169" lon="3.64504">
        <ele>197.679</ele>
        <time>2016-12-27T18:29:30Z</time>
      </trkpt>
      <trkpt lat="43.66186" lon="3.64497">
        <ele>198.295</ele>
        <time>2016-12-27T18:29:50Z</time>
      </trkpt>
      <trkpt lat="43.66161" lon="3.64465">
        <ele>201.524</ele>
        <time>2016-12-27T18:30:10Z</time>
      </trkpt>
      <trkpt lat="43.66265" lon="3.64454">
        <ele>207.371</ele>
        <time>2016-12-27T18:30:30Z</time>
      </trkpt>
      <trkpt lat="43.6636" lon="3.64517">
        <ele>210.952</ele>
        <time>2016-12-27T18:30:50Z</time>
      </trkpt>
      <trkpt lat="43.66384" lon="3.64448">
        <ele>211.341</ele>
        <time>2021-04-16T17:35:50Z</time>
      </trkpt>
      <trkpt lat="43.66378" lon="3.64405">
        <ele>209.652</ele>
        <time>2016-12-27T18:31:30Z</time>
      </trkpt>
      <trkpt lat="43.66377" lon="3.64152">
        <ele>199.465</ele>
        <time>2016-12-27T18:31:50Z</time>
      </trkpt>
      <trkpt lat="43.66475" lon="3.64002">
        <ele>196.068</ele>
        <time>2016-12-27T18:32:10Z</time>
      </trkpt>
      <trkpt lat="43.66579" lon="3.63886">
        <ele>193.214</ele>
        <time>2016-12-27T18:32:30Z</time>
      </trkpt>
      <trkpt lat="43.66717" lon="3.63735">
        <ele>189.108</ele>
        <time>2016-12-27T18:32:50Z</time>
      </trkpt>
      <trkpt lat="43.66856" lon="3.63632">
        <ele>184.063</ele>
        <time>2016-12-27T18:33:10Z</time>
      </trkpt>
      <trkpt lat="43.66977" lon="3.63587">
        <ele>185.116</ele>
        <time>2016-12-27T18:33:30Z</time>
      </trkpt>
      <trkpt lat="43.67091" lon="3.6357">
        <ele>184.362</ele>
        <time>2016-12-27T18:33:50Z</time>
      </trkpt>
      <trkpt lat="43.67244" lon="3.63579">
        <ele>174.211</ele>
        <time>2016-12-27T18:34:10Z</time>
      </trkpt>
      <trkpt lat="43.67369" lon="3.63602">
        <ele>170.178</ele>
        <time>2016-12-27T18:34:30Z</time>
      </trkpt>
      <trkpt lat="43.67457" lon="3.63594">
        <ele>169.959</ele>
        <time>2016-12-27T18:34:50Z</time>
      </trkpt>
      <trkpt lat="43.67564" lon="3.63549">
        <ele>165.748</ele>
        <time>2016-12-27T18:35:10Z</time>
      </trkpt>
      <trkpt lat="43.67662" lon="3.63474">
        <ele>165.199</ele>
        <time>2016-12-27T18:35:30Z</time>
      </trkpt>
      <trkpt lat="43.67746" lon="3.63386">
        <ele>163.937</ele>
        <time>2016-12-27T18:35:50Z</time>
      </trkpt>
      <trkpt lat="43.67812" lon="3.63293">
        <ele>160.849</ele>
        <time>2016-12-27T18:36:10Z</time>
      </trkpt>
      <trkpt lat="43.67851" lon="3.63203">
        <ele>161.413</ele>
        <time>2016-12-27T18:36:30Z</time>
      </trkpt>
      <trkpt lat="43.67896" lon="3.63094">
        <ele>157.908</ele>
        <time>2016-12-27T18:36:50Z</time>
      </trkpt>
      <trkpt lat="43.6789" lon="3.63047">
        <ele>153.94</ele>
        <time>2016-12-27T18:37:10Z</time>
      </trkpt>
      <trkpt lat="43.67899" lon="3.63008">
        <ele>150.593</ele>
        <time>2016-12-27T18:37:30Z</time>
      </trkpt>
      <trkpt lat="43.6794" lon="3.62995">
        <ele>152.659</ele>
        <time>2016-12-27T18:37:50Z</time>
      </trkpt>
      <trkpt lat="43.68173" lon="3.62468">
        <ele>144.428</ele>
        <time>2021-04-16T17:42:50Z</time>
      </trkpt>
      <trkpt lat="43.682" lon="3.62373">
        <ele>139.485</ele>
        <time>2016-12-27T18:38:30Z</time>
      </trkpt>
      <trkpt lat="43.683" lon="3.61819">
        <ele>135.016</ele>
        <time>2016-12-27T18:38:50Z</time>
      </trkpt>
      <trkpt lat="43.68266" lon="3.61667">
        <ele>134.155</ele>
        <time>2016-12-27T18:39:10Z</time>
      </trkpt>
      <trkpt lat="43.68186" lon="3.61553">
        <ele>133.556</ele>
        <time>2016-12-27T18:39:30Z</time>
      </trkpt>
      <trkpt lat="43.68165" lon="3.61512">
        <ele>133.517</ele>
        <time>2016-12-27T18:39:50Z</time>
      </trkpt>
      <trkpt lat="43.68114" lon="3.61461">
        <ele>132.587</ele>
        <time>2016-12-27T18:40:10Z</time>
      </trkpt>
      <trkpt lat="43.68103" lon="3.61403">
        <ele>133.315</ele>
        <time>2016-12-27T18:40:30Z</time>
      </trkpt>
      <trkpt lat="43.68082" lon="3.61367">
        <ele>133.708</ele>
        <time>2016-12-27T18:40:50Z</time>
      </trkpt>
      <trkpt lat="43.68065" lon="3.61311">
        <ele>133.698</ele>
        <time>2016-12-27T18:41:10Z</time>
      </trkpt>
      <trkpt lat="43.67999" lon="3.61195">
        <ele>132.861</ele>
        <time>2016-12-27T18:41:30Z</time>
      </trkpt>
      <trkpt lat="43.67909" lon="3.61139">
        <ele>129.147</ele>
        <time>2016-12-27T18:41:50Z</time>
      </trkpt>
      <trkpt lat="43.67819" lon="3.61107">
        <ele>126.936</ele>
        <time>2016-12-27T18:42:10Z</time>
      </trkpt>
      <trkpt lat="43.67788" lon="3.61068">
        <ele>127.593</ele>
        <time>2016-12-27T18:42:30Z</time>
      </trkpt>
      <trkpt lat="43.67749" lon="3.61032">
        <ele>125.814</ele>
        <time>2016-12-27T18:42:50Z</time>
      </trkpt>
      <trkpt lat="43.67735" lon="3.6097">
        <ele>129.613</ele>
        <time>2016-12-27T18:43:10Z</time>
      </trkpt>
      <trkpt lat="43.67676" lon="3.60869">
        <ele>128.414</ele>
        <time>2016-12-27T18:43:30Z</time>
      </trkpt>
      <trkpt lat="43.6762" lon="3.60751">
        <ele>125.471</ele>
        <time>2016-12-27T18:43:50Z</time>
      </trkpt>
      <trkpt lat="43.67563" lon="3.60682">
        <ele>126.241</ele>
        <time>2016-12-27T18:44:10Z</time>
      </trkpt>
      <trkpt lat="43.6751" lon="3.60649">
        <ele>133.215</ele>
        <time>2021-04-16T17:49:10Z</time>
      </trkpt>
      <trkpt lat="43.67496" lon="3.60627">
        <ele>136.808</ele>
        <time>2021-04-16T17:49:30Z</time>
      </trkpt>
      <trkpt lat="43.67437" lon="3.60573">
        <ele>135.824</ele>
        <time>2021-04-16T17:49:50Z</time>
      </trkpt>
      <trkpt lat="43.67431" lon="3.60521">
        <ele>137.097</ele>
        <time>2016-12-27T18:44:50Z</time>
      </trkpt>
      <trkpt lat="43.6746" lon="3.60377">
        <ele>152.463</ele>
        <time>2016-12-27T18:45:10Z</time>
      </trkpt>
      <trkpt lat="43.67417" lon="3.60317">
        <ele>150.712</ele>
        <time>2016-12-27T18:45:30Z</time>
      </trkpt>
      <trkpt lat="43.67286" lon="3.60274">
        <ele>163.229</ele>
        <time>2016-12-27T18:45:50Z</time>
      </trkpt>
      <trkpt lat="43.67199" lon="3.60137">
        <ele>164.15</ele>
        <time>2016-12-27T18:46:10Z</time>
      </trkpt>
      <trkpt lat="43.67226" lon="3.60098">
        <ele>165.689</ele>
        <time>2016-12-27T18:46:30Z</time>
      </trkpt>
      <trkpt lat="43.67266" lon="3.60053">
        <ele>167.44</ele>
        <time>2016-12-27T18:46:50Z</time>
      </trkpt>
      <trkpt lat="43.67212" lon="3.59972">
        <ele>164.787</ele>
        <time>2016-12-27T18:47:10Z</time>
      </trkpt>
      <trkpt lat="43.67215" lon="3.59811">
        <ele>153.942</ele>
        <time>2016-12-27T18:47:30Z</time>
      </trkpt>
      <trkpt lat="43.67227" lon="3.59706">
        <ele>148.426</ele>
        <time>2016-12-27T18:47:50Z</time>
      </trkpt>
      <trkpt lat="43.67305" lon="3.59639">
        <ele>139.708</ele>
        <time>2021-04-16T17:53:30Z</time>
      </trkpt>
      <trkpt lat="43.6721" lon="3.59637">
        <ele>142.575</ele>
        <time>2016-12-27T18:48:30Z</time>
      </trkpt>
      <trkpt lat="43.67201" lon="3.59624">
        <ele>141.638</ele>
        <time>2016-12-27T18:48:50Z</time>
      </trkpt>
      <trkpt lat="43.67175" lon="3.59594">
        <ele>141.844</ele>
        <time>2016-12-27T18:49:10Z</time>
      </trkpt>
      <trkpt lat="43.67223" lon="3.59431">
        <ele>136.543</ele>
        <time>2016-12-27T18:49:30Z</time>
      </trkpt>
      <trkpt lat="43.67243" lon="3.59414">
        <ele>133.82</ele>
        <time>2016-12-27T18:49:50Z</time>
      </trkpt>
      <trkpt lat="43.67271" lon="3.59311">
        <ele>132.051</ele>
        <time>2016-12-27T18:50:10Z</time>
      </trkpt>
      <trkpt lat="43.67317" lon="3.59219">
        <ele>139.68</ele>
        <time>2016-12-27T18:50:30Z</time>
      </trkpt>
      <trkpt lat="43.67364" lon="3.5918">
        <ele>140.811</ele>
        <time>2016-12-27T18:50:50Z</time>
      </trkpt>
      <trkpt lat="43.67424" lon="3.59105">
        <ele>137.566</ele>
        <time>2016-12-27T18:51:10Z</time>
      </trkpt>
      <trkpt lat="43.67553" lon="3.59">
        <ele>122.829</ele>
        <time>2016-12-27T18:51:30Z</time>
      </trkpt>
      <trkpt lat="43.67611" lon="3.58963">
        <ele>124.721</ele>
        <time>2016-12-27T18:51:50Z</time>
      </trkpt>
      <trkpt lat="43.67657" lon="3.58953">
        <ele>119.608</ele>
        <time>2016-12-27T18:52:10Z</time>
      </trkpt>
      <trkpt lat="43.6769" lon="3.58976">
        <ele>117.183</ele>
        <time>2016-12-27T18:52:30Z</time>
      </trkpt>
      <trkpt lat="43.67752" lon="3.58983">
        <ele>111.966</ele>
        <time>2016-12-27T18:52:50Z</time>
      </trkpt>
      <trkpt lat="43.67788" lon="3.58968">
        <ele>107.212</ele>
        <time>2016-12-27T18:53:10Z</time>
      </trkpt>
      <trkpt lat="43.67814" lon="3.58944">
        <ele>103.321</ele>
        <time>2016-12-27T18:53:30Z</time>
      </trkpt>
      <trkpt lat="43.67972" lon="3.58869">
        <ele>87.858</ele>
        <time>2016-12-27T18:53:50Z</time>
      </trkpt>
      <trkpt lat="43.68039" lon="3.58826">
        <ele>82.059</ele>
        <time>2016-12-27T18:54:10Z</time>
      </trkpt>
      <trkpt lat="43.68095" lon="3.58794">
        <ele>78.948</ele>
        <time>2016-12-27T18:54:30Z</time>
      </trkpt>
      <trkpt lat="43.68137" lon="3.58809">
        <ele>71.649</ele>
        <time>2016-12-27T18:54:50Z</time>
      </trkpt>
      <trkpt lat="43.68165" lon="3.58725">
        <ele>67.056</ele>
        <time>2016-12-27T18:55:10Z</time>
      </trkpt>
      <trkpt lat="43.682" lon="3.58682">
        <ele>65.659</ele>
        <time>2016-12-27T18:55:30Z</time>
      </trkpt>
      <trkpt lat="43.68249" lon="3.58654">
        <ele>60.714</ele>
        <time>2016-12-27T18:55:50Z</time>
      </trkpt>
      <trkpt lat="43.68259" lon="3.5862">
        <ele>62.408</ele>
        <time>2016-12-27T18:56:10Z</time>
      </trkpt>
      <trkpt lat="43.68281" lon="3.58605">
        <ele>61.312</ele>
        <time>2016-12-27T18:56:30Z</time>
      </trkpt>
      <trkpt lat="43.68301" lon="3.58633">
        <ele>58.625</ele>
        <time>2016-12-27T18:56:50Z</time>
      </trkpt>
      <trkpt lat="43.68335" lon="3.58607">
        <ele>58.931</ele>
        <time>2016-12-27T18:57:10Z</time>
      </trkpt>
      <trkpt lat="43.68405" lon="3.58614">
        <ele>58.02</ele>
        <time>2016-12-27T18:57:30Z</time>
      </trkpt>
      <trkpt lat="43.68487" lon="3.58646">
        <ele>63.227</ele>
        <time>2016-12-27T18:57:50Z</time>
      </trkpt>
      <trkpt lat="43.68568" lon="3.58615">
        <ele>71.918</ele>
        <time>2021-04-16T18:03:30Z</time>
      </trkpt>
      <trkpt lat="43.68996" lon="3.58382">
        <ele>62.837</ele>
        <time>2016-12-27T18:58:30Z</time>
      </trkpt>
      <trkpt lat="43.6905" lon="3.58344">
        <ele>67.456</ele>
        <time>2021-04-16T18:04:30Z</time>
      </trkpt>
      <trkpt lat="43.69107" lon="3.58286">
        <ele>65.759</ele>
        <time>2021-04-16T18:04:50Z</time>
      </trkpt>
      <trkpt lat="43.69203" lon="3.58228">
        <ele>61.614</ele>
        <time>2021-04-16T18:05:10Z</time>
      </trkpt>
      <trkpt lat="43.69223" lon="3.58234">
        <ele>61.308</ele>
        <time>2021-04-16T18:05:30Z</time>
      </trkpt>
      <trkpt lat="43.69245" lon="3.58305">
        <ele>63.782</ele>
        <time>2021-04-16T18:05:50Z</time>
      </trkpt>
      <trkpt lat="43.69248" lon="3.58446">
        <ele>62.045</ele>
        <time>2016-12-27T19:00:30Z</time>
      </trkpt>
      <trkpt lat="43.69387" lon="3.58474">
        <ele>64.931</ele>
        <time>2016-12-27T19:00:50Z</time>
      </trkpt>
      <trkpt lat="43.69459" lon="3.58406">
        <ele>64.82</ele>
        <time>2016-12-27T19:01:10Z</time>
      </trkpt>
      <trkpt lat="43.69608" lon="3.58307">
        <ele>63.097</ele>
        <time>2016-12-27T19:01:30Z</time>
      </trkpt>
      <trkpt lat="43.69828" lon="3.58316">
        <ele>65.888</ele>
        <time>2016-12-27T19:01:50Z</time>
      </trkpt>
      <trkpt lat="43.69873" lon="3.58276">
        <ele>66.067</ele>
        <time>2016-12-27T19:02:10Z</time>
      </trkpt>
      <trkpt lat="43.69917" lon="3.58258">
        <ele>67.038</ele>
        <time>2016-12-27T19:02:30Z</time>
      </trkpt>
      <trkpt lat="43.69983" lon="3.58275">
        <ele>67.976</ele>
        <time>2016-12-27T19:02:50Z</time>
      </trkpt>
      <trkpt lat="43.70024" lon="3.58241">
        <ele>68.09</ele>
        <time>2016-12-27T19:03:10Z</time>
      </trkpt>
      <trkpt lat="43.70068" lon="3.58152">
        <ele>69.019</ele>
        <time>2016-12-27T19:03:30Z</time>
      </trkpt>
      <trkpt lat="43.70129" lon="3.58118">
        <ele>70.008</ele>
        <time>2016-12-27T19:03:50Z</time>
      </trkpt>
      <trkpt lat="43.70182" lon="3.58023">
        <ele>70.114</ele>
        <time>2016-12-27T19:04:10Z</time>
      </trkpt>
      <trkpt lat="43.70303" lon="3.58005">
        <ele>74.987</ele>
        <time>2016-12-27T19:04:30Z</time>
      </trkpt>
      <trkpt lat="43.70418" lon="3.57959">
        <ele>75.093</ele>
        <time>2016-12-27T19:04:50Z</time>
      </trkpt>
      <trkpt lat="43.70583" lon="3.57859">
        <ele>75.922</ele>
        <time>2016-12-27T19:05:10Z</time>
      </trkpt>
      <trkpt lat="43.70632" lon="3.57847">
        <ele>76.949</ele>
        <time>2016-12-27T19:05:30Z</time>
      </trkpt>
      <trkpt lat="43.70727" lon="3.57779">
        <ele>80.64</ele>
        <time>2016-12-27T19:05:50Z</time>
      </trkpt>
      <trkpt lat="43.70789" lon="3.57778">
        <ele>86.329</ele>
        <time>2016-12-27T19:06:10Z</time>
      </trkpt>
      <trkpt lat="43.7084" lon="3.57755">
        <ele>92.675</ele>
        <time>2016-12-27T19:06:50Z</time>
      </trkpt>
      <trkpt lat="43.70896" lon="3.5771">
        <ele>99.928</ele>
        <time>2016-12-27T19:07:10Z</time>
      </trkpt>
      <trkpt lat="43.7086" lon="3.57599">
        <ele>100.42</ele>
        <time>2016-12-27T19:07:30Z</time>
      </trkpt>
      <trkpt lat="43.70859" lon="3.57541">
        <ele>101.408</ele>
        <time>2016-12-27T19:07:50Z</time>
      </trkpt>
      <trkpt lat="43.70846" lon="3.57493">
        <ele>99.884</ele>
        <time>2016-12-27T19:08:10Z</time>
      </trkpt>
      <trkpt lat="43.70857" lon="3.57431">
        <ele>99.187</ele>
        <time>2016-12-27T19:08:30Z</time>
      </trkpt>
      <trkpt lat="43.70843" lon="3.57395">
        <ele>95.893</ele>
        <time>2016-12-27T19:08:50Z</time>
      </trkpt>
      <trkpt lat="43.7085" lon="3.57311">
        <ele>94.952</ele>
        <time>2016-12-27T19:09:10Z</time>
      </trkpt>
      <trkpt lat="43.70846" lon="3.57272">
        <ele>94.679</ele>
        <time>2016-12-27T19:09:30Z</time>
      </trkpt>
      <trkpt lat="43.70853" lon="3.5721">
        <ele>97.28</ele>
        <time>2016-12-27T19:09:50Z</time>
      </trkpt>
      <trkpt lat="43.70851" lon="3.57064">
        <ele>96.959</ele>
        <time>2016-12-27T19:10:10Z</time>
      </trkpt>
      <trkpt lat="43.70778" lon="3.56897">
        <ele>92.77</ele>
        <time>2016-12-27T19:10:30Z</time>
      </trkpt>
      <trkpt lat="43.70766" lon="3.56837">
        <ele>94.035</ele>
        <time>2016-12-27T19:10:50Z</time>
      </trkpt>
      <trkpt lat="43.70766" lon="3.56766">
        <ele>94.786</ele>
        <time>2016-12-27T19:11:10Z</time>
      </trkpt>
      <trkpt lat="43.70752" lon="3.56723">
        <ele>93.214</ele>
        <time>2016-12-27T19:11:30Z</time>
      </trkpt>
      <trkpt lat="43.70752" lon="3.56669">
        <ele>93.208</ele>
        <time>2016-12-27T19:11:50Z</time>
      </trkpt>
      <trkpt lat="43.70719" lon="3.56586">
        <ele>90.63</ele>
        <time>2016-12-27T19:12:10Z</time>
      </trkpt>
      <trkpt lat="43.7069" lon="3.56446">
        <ele>86.773</ele>
        <time>2016-12-27T19:12:30Z</time>
      </trkpt>
      <trkpt lat="43.70677" lon="3.56363">
        <ele>82.089</ele>
        <time>2016-12-27T19:12:50Z</time>
      </trkpt>
      <trkpt lat="43.70676" lon="3.56288">
        <ele>79.038</ele>
        <time>2016-12-27T19:13:10Z</time>
      </trkpt>
      <trkpt lat="43.7068" lon="3.56232">
        <ele>78.655</ele>
        <time>2016-12-27T19:13:30Z</time>
      </trkpt>
      <trkpt lat="43.70677" lon="3.56172">
        <ele>77.946</ele>
        <time>2016-12-27T19:13:50Z</time>
      </trkpt>
      <trkpt lat="43.70696" lon="3.56127">
        <ele>76.375</ele>
        <time>2016-12-27T19:14:10Z</time>
      </trkpt>
      <trkpt lat="43.70707" lon="3.56051">
        <ele>75.166</ele>
        <time>2016-12-27T19:14:30Z</time>
      </trkpt>
      <trkpt lat="43.7069" lon="3.56028">
        <ele>68.522</ele>
        <time>2016-12-27T19:14:50Z</time>
      </trkpt>
      <trkpt lat="43.70719" lon="3.55957">
        <ele>70.662</ele>
        <time>2016-12-27T19:15:10Z</time>
      </trkpt>
      <trkpt lat="43.70718" lon="3.55914">
        <ele>67.008</ele>
        <time>2021-04-16T18:21:10Z</time>
      </trkpt>
      <trkpt lat="43.70783" lon="3.55814">
        <ele>68.208</ele>
        <time>2016-12-27T19:15:50Z</time>
      </trkpt>
      <trkpt lat="43.70813" lon="3.55791">
        <ele>71.379</ele>
        <time>2016-12-27T19:16:10Z</time>
      </trkpt>
      <trkpt lat="43.70813" lon="3.5576">
        <ele>66.072</ele>
        <time>2016-12-27T19:16:30Z</time>
      </trkpt>
      <trkpt lat="43.70787" lon="3.55682">
        <ele>61.688</ele>
        <time>2016-12-27T19:16:50Z</time>
      </trkpt>
      <trkpt lat="43.70863" lon="3.55604">
        <ele>66.297</ele>
        <time>2016-12-27T19:17:10Z</time>
      </trkpt>
      <trkpt lat="43.709" lon="3.55531">
        <ele>66.994</ele>
        <time>2016-12-27T19:17:30Z</time>
      </trkpt>
      <trkpt lat="43.7093" lon="3.55439">
        <ele>70.495</ele>
        <time>2016-12-27T19:17:50Z</time>
      </trkpt>
      <trkpt lat="43.70987" lon="3.55311">
        <ele>67.074</ele>
        <time>2016-12-27T19:18:10Z</time>
      </trkpt>
      <trkpt lat="43.71149" lon="3.55232">
        <ele>65.685</ele>
        <time>2016-12-27T19:18:30Z</time>
      </trkpt>
      <trkpt lat="43.71279" lon="3.55238">
        <ele>66.247</ele>
        <time>2016-12-27T19:18:50Z</time>
      </trkpt>
      <trkpt lat="43.71331" lon="3.55263">
        <ele>62.629</ele>
        <time>2016-12-27T19:19:10Z</time>
      </trkpt>
      <trkpt lat="43.71483" lon="3.55243">
        <ele>63.621</ele>
        <time>2016-12-27T19:19:30Z</time>
      </trkpt>
      <trkpt lat="43.71623" lon="3.55241">
        <ele>66.308</ele>
        <time>2016-12-27T19:19:50Z</time>
      </trkpt>
      <trkpt lat="43.71709" lon="3.55266">
        <ele>69.541</ele>
        <time>2016-12-27T19:20:10Z</time>
      </trkpt>
      <trkpt lat="43.71771" lon="3.55309">
        <ele>65.474</ele>
        <time>2016-12-27T19:20:30Z</time>
      </trkpt>
      <trkpt lat="43.71864" lon="3.55342">
        <ele>62.79</ele>
        <time>2016-12-27T19:20:50Z</time>
      </trkpt>
      <trkpt lat="43.72059" lon="3.5535">
        <ele>63.989</ele>
        <time>2016-12-27T19:21:10Z</time>
      </trkpt>
      <trkpt lat="43.72189" lon="3.55299">
        <ele>63.956</ele>
        <time>2016-12-27T19:21:30Z</time>
      </trkpt>
      <trkpt lat="43.72253" lon="3.55291">
        <ele>60.917</ele>
        <time>2016-12-27T19:21:50Z</time>
      </trkpt>
      <trkpt lat="43.72308" lon="3.55262">
        <ele>61.626</ele>
        <time>2016-12-27T19:22:10Z</time>
      </trkpt>
      <trkpt lat="43.72367" lon="3.55173">
        <ele>63.357</ele>
        <time>2016-12-27T19:22:30Z</time>
      </trkpt>
      <trkpt lat="43.72413" lon="3.55079">
        <ele>64.917</ele>
        <time>2016-12-27T19:22:50Z</time>
      </trkpt>
      <trkpt lat="43.72454" lon="3.55041">
        <ele>63.487</ele>
        <time>2016-12-27T19:23:10Z</time>
      </trkpt>
      <trkpt lat="43.72645" lon="3.55015">
        <ele>75.215</ele>
        <time>2021-04-16T18:29:10Z</time>
      </trkpt>
      <trkpt lat="43.72735" lon="3.55039">
        <ele>82.508</ele>
        <time>2021-04-16T18:29:30Z</time>
      </trkpt>
      <trkpt lat="43.72741" lon="3.55031">
        <ele>69.628</ele>
        <time>2016-12-27T19:24:10Z</time>
      </trkpt>
      <trkpt lat="43.72836" lon="3.55121">
        <ele>78.931</ele>
        <time>2021-04-16T18:30:10Z</time>
      </trkpt>
      <trkpt lat="43.72958" lon="3.55248">
        <ele>74.057</ele>
        <time>2021-04-16T18:30:30Z</time>
      </trkpt>
      <trkpt lat="43.73104" lon="3.5532">
        <ele>75.946</ele>
        <time>2021-04-16T18:30:50Z</time>
      </trkpt>
      <trkpt lat="43.73167" lon="3.55324">
        <ele>65.443</ele>
        <time>2016-12-27T19:25:30Z</time>
      </trkpt>
      <trkpt lat="43.73239" lon="3.55365">
        <ele>63.514</ele>
        <time>2016-12-27T19:25:50Z</time>
      </trkpt>
      <trkpt lat="43.73316" lon="3.55381">
        <ele>63.393</ele>
        <time>2016-12-27T19:26:10Z</time>
      </trkpt>
      <trkpt lat="43.73377" lon="3.55229">
        <ele>85.214</ele>
        <time>2016-12-27T19:26:30Z</time>
      </trkpt>
      <trkpt lat="43.73382" lon="3.55175">
        <ele>88.619</ele>
        <time>2016-12-27T19:26:50Z</time>
      </trkpt>
      <trkpt lat="43.73381" lon="3.54995">
        <ele>100.209</ele>
        <time>2016-12-27T19:27:10Z</time>
      </trkpt>
      <trkpt lat="43.73414" lon="3.54939">
        <ele>111.919</ele>
        <time>2016-12-27T19:27:30Z</time>
      </trkpt>
      <trkpt lat="43.73438" lon="3.54916">
        <ele>114.008</ele>
        <time>2016-12-27T19:27:50Z</time>
      </trkpt>
      <trkpt lat="43.7345" lon="3.54889">
        <ele>116.378</ele>
        <time>2021-04-16T18:33:50Z</time>
      </trkpt>
      <trkpt lat="43.73423" lon="3.54858">
        <ele>109.931</ele>
        <time>2021-04-16T18:34:10Z</time>
      </trkpt>
      <trkpt lat="43.7348" lon="3.54809">
        <ele>111.177</ele>
        <time>2021-04-16T18:34:30Z</time>
      </trkpt>
      <trkpt lat="43.73648" lon="3.54798">
        <ele>110.556</ele>
        <time>2016-12-27T19:31:10Z</time>
      </trkpt>
      <trkpt lat="43.73678" lon="3.54753">
        <ele>113.083</ele>
        <time>2016-12-27T19:31:30Z</time>
      </trkpt>
      <trkpt lat="43.7367" lon="3.54689">
        <ele>111.614</ele>
        <time>2016-12-27T19:31:50Z</time>
      </trkpt>
      <trkpt lat="43.73681" lon="3.54644">
        <ele>112.513</ele>
        <time>2016-12-27T19:32:10Z</time>
      </trkpt>
      <trkpt lat="43.73658" lon="3.54656">
        <ele>113.574</ele>
        <time>2016-12-27T19:32:30Z</time>
      </trkpt>
      <trkpt lat="43.73636" lon="3.54613">
        <ele>133.185</ele>
        <time>2021-04-16T18:36:30Z</time>
      </trkpt>
      <trkpt lat="43.73635" lon="3.54501">
        <ele>140.889</ele>
        <time>2021-04-16T18:36:50Z</time>
      </trkpt>
      <trkpt lat="43.73647" lon="3.54409">
        <ele>135.817</ele>
        <time>2016-12-27T19:33:30Z</time>
      </trkpt>
      <trkpt lat="43.73618" lon="3.54455">
        <ele>145.608</ele>
        <time>2016-12-27T19:33:50Z</time>
      </trkpt>
      <trkpt lat="43.73612" lon="3.54357">
        <ele>160.565</ele>
        <time>2016-12-27T19:34:10Z</time>
      </trkpt>
      <trkpt lat="43.73646" lon="3.54235">
        <ele>165.138</ele>
        <time>2016-12-27T19:34:30Z</time>
      </trkpt>
      <trkpt lat="43.73632" lon="3.54184">
        <ele>177.254</ele>
        <time>2021-04-16T18:38:30Z</time>
      </trkpt>
      <trkpt lat="43.73612" lon="3.54138">
        <ele>186.833</ele>
        <time>2021-04-16T18:38:50Z</time>
      </trkpt>
      <trkpt lat="43.73602" lon="3.54262">
        <ele>186.63</ele>
        <time>2016-12-27T19:35:10Z</time>
      </trkpt>
      <trkpt lat="43.73561" lon="3.54139">
        <ele>204.571</ele>
        <time>2016-12-27T19:35:30Z</time>
      </trkpt>
      <trkpt lat="43.73538" lon="3.54122">
        <ele>223.14</ele>
        <time>2021-04-16T18:39:50Z</time>
      </trkpt>
      <trkpt lat="43.73525" lon="3.54034">
        <ele>214.451</ele>
        <time>2016-12-27T19:36:10Z</time>
      </trkpt>
      <trkpt lat="43.73502" lon="3.5399">
        <ele>242.213</ele>
        <time>2021-04-16T18:40:30Z</time>
      </trkpt>
      <trkpt lat="43.73557" lon="3.5398">
        <ele>229.943</ele>
        <time>2021-04-16T18:40:50Z</time>
      </trkpt>
      <trkpt lat="43.73579" lon="3.53962">
        <ele>222.407</ele>
        <time>2016-12-27T19:37:10Z</time>
      </trkpt>
      <trkpt lat="43.73554" lon="3.53973">
        <ele>233.408</ele>
        <time>2021-04-16T18:41:30Z</time>
      </trkpt>
      <trkpt lat="43.7351" lon="3.53965">
        <ele>247.398</ele>
        <time>2021-04-16T18:41:50Z</time>
      </trkpt>
      <trkpt lat="43.73475" lon="3.5394">
        <ele>245.451</ele>
        <time>2016-12-27T19:37:50Z</time>
      </trkpt>
      <trkpt lat="43.73489" lon="3.54043">
        <ele>241.027</ele>
        <time>2016-12-27T19:38:10Z</time>
      </trkpt>
      <trkpt lat="43.73478" lon="3.54117">
        <ele>250.776</ele>
        <time>2016-12-27T19:38:30Z</time>
      </trkpt>
      <trkpt lat="43.73477" lon="3.54151">
        <ele>260.053</ele>
        <time>2021-04-16T18:43:10Z</time>
      </trkpt>
      <trkpt lat="43.73483" lon="3.54191">
        <ele>258.654</ele>
        <time>2021-04-16T18:43:30Z</time>
      </trkpt>
      <trkpt lat="43.73457" lon="3.5414">
        <ele>264.413</ele>
        <time>2016-12-27T19:39:10Z</time>
      </trkpt>
      <trkpt lat="43.73419" lon="3.53978">
        <ele>277.784</ele>
        <time>2016-12-27T19:39:30Z</time>
      </trkpt>
      <trkpt lat="43.73414" lon="3.541">
        <ele>286.911</ele>
        <time>2016-12-27T19:39:50Z</time>
      </trkpt>
      <trkpt lat="43.7338" lon="3.53995">
        <ele>305.221</ele>
        <time>2016-12-27T19:40:10Z</time>
      </trkpt>
      <trkpt lat="43.73365" lon="3.53885">
        <ele>318.803</ele>
        <time>2016-12-27T19:40:30Z</time>
      </trkpt>
      <trkpt lat="43.73351" lon="3.53937">
        <ele>324.908</ele>
        <time>2016-12-27T19:40:50Z</time>
      </trkpt>
      <trkpt lat="43.73343" lon="3.53874">
        <ele>333.788</ele>
        <time>2016-12-27T19:41:10Z</time>
      </trkpt>
      <trkpt lat="43.73351" lon="3.53789">
        <ele>339.431</ele>
        <time>2016-12-27T19:41:30Z</time>
      </trkpt>
      <trkpt lat="43.73381" lon="3.53752">
        <ele>365.697</ele>
        <time>2021-04-16T18:46:30Z</time>
      </trkpt>
      <trkpt lat="43.73415" lon="3.53728">
        <ele>353.166</ele>
        <time>2016-12-27T19:42:10Z</time>
      </trkpt>
      <trkpt lat="43.73506" lon="3.53754">
        <ele>364.033</ele>
        <time>2021-04-16T18:47:10Z</time>
      </trkpt>
      <trkpt lat="43.73547" lon="3.53753">
        <ele>356.994</ele>
        <time>2021-04-16T18:47:30Z</time>
      </trkpt>
      <trkpt lat="43.73587" lon="3.53751">
        <ele>345.013</ele>
        <time>2021-04-16T18:47:50Z</time>
      </trkpt>
      <trkpt lat="43.73564" lon="3.53741">
        <ele>353.814</ele>
        <time>2021-04-16T18:48:10Z</time>
      </trkpt>
      <trkpt lat="43.73547" lon="3.53719">
        <ele>360.821</ele>
        <time>2021-04-16T18:48:30Z</time>
      </trkpt>
      <trkpt lat="43.73497" lon="3.53693">
        <ele>390.341</ele>
        <time>2016-12-27T19:43:50Z</time>
      </trkpt>
      <trkpt lat="43.73403" lon="3.53598">
        <ele>418.305</ele>
        <time>2016-12-27T19:44:10Z</time>
      </trkpt>
      <trkpt lat="43.73356" lon="3.53588">
        <ele>422.408</ele>
        <time>2016-12-27T19:44:30Z</time>
      </trkpt>
      <trkpt lat="43.73323" lon="3.53601">
        <ele>430.719</ele>
        <time>2016-12-27T19:44:50Z</time>
      </trkpt>
      <trkpt lat="43.7335" lon="3.5356">
        <ele>436.722</ele>
        <time>2016-12-27T19:45:10Z</time>
      </trkpt>
      <trkpt lat="43.73389" lon="3.53538">
        <ele>443.158</ele>
        <time>2016-12-27T19:45:30Z</time>
      </trkpt>
      <trkpt lat="43.7336" lon="3.53528">
        <ele>450.277</ele>
        <time>2016-12-27T19:45:50Z</time>
      </trkpt>
      <trkpt lat="43.73391" lon="3.53521">
        <ele>452.134</ele>
        <time>2016-12-27T19:46:10Z</time>
      </trkpt>
      <trkpt lat="43.73413" lon="3.53525">
        <ele>456.375</ele>
        <time>2016-12-27T19:46:30Z</time>
      </trkpt>
      <trkpt lat="43.73399" lon="3.53509">
        <ele>461.264</ele>
        <time>2016-12-27T19:46:50Z</time>
      </trkpt>
      <trkpt lat="43.73355" lon="3.53493">
        <ele>467.815</ele>
        <time>2016-12-27T19:47:10Z</time>
      </trkpt>
      <trkpt lat="43.73338" lon="3.53501">
        <ele>467.858</ele>
        <time>2016-12-27T19:47:30Z</time>
      </trkpt>
      <trkpt lat="43.73374" lon="3.53371">
        <ele>478.552</ele>
        <time>2016-12-27T19:47:50Z</time>
      </trkpt>
      <trkpt lat="43.73334" lon="3.53279">
        <ele>479.917</ele>
        <time>2016-12-27T19:48:10Z</time>
      </trkpt>
      <trkpt lat="43.734" lon="3.53186">
        <ele>486.608</ele>
        <time>2016-12-27T19:48:30Z</time>
      </trkpt>
      <trkpt lat="43.73404" lon="3.53144">
        <ele>488.032</ele>
        <time>2016-12-27T19:48:50Z</time>
      </trkpt>
      <trkpt lat="43.73362" lon="3.53067">
        <ele>487.175</ele>
        <time>2016-12-27T19:49:10Z</time>
      </trkpt>
      <trkpt lat="43.73307" lon="3.52992">
        <ele>490.841</ele>
        <time>2016-12-27T19:49:30Z</time>
      </trkpt>
      <trkpt lat="43.7327" lon="3.53016">
        <ele>491.04</ele>
        <time>2016-12-27T19:49:50Z</time>
      </trkpt>
      <trkpt lat="43.7319" lon="3.52998">
        <ele>494.617</ele>
        <time>2016-12-27T19:50:10Z</time>
      </trkpt>
      <trkpt lat="43.73096" lon="3.52988">
        <ele>494.028</ele>
        <time>2016-12-27T19:50:30Z</time>
      </trkpt>
      <trkpt lat="43.73045" lon="3.52952">
        <ele>494.547</ele>
        <time>2016-12-27T19:50:50Z</time>
      </trkpt>
      <trkpt lat="43.73035" lon="3.52893">
        <ele>497.898</ele>
        <time>2016-12-27T19:51:10Z</time>
      </trkpt>
      <trkpt lat="43.73053" lon="3.52831">
        <ele>499.395</ele>
        <time>2016-12-27T19:51:30Z</time>
      </trkpt>
      <trkpt lat="43.73097" lon="3.52756">
        <ele>500.749</ele>
        <time>2016-12-27T19:51:50Z</time>
      </trkpt>
      <trkpt lat="43.73058" lon="3.52701">
        <ele>496.923</ele>
        <time>2016-12-27T19:52:10Z</time>
      </trkpt>
      <trkpt lat="43.73036" lon="3.52634">
        <ele>502.008</ele>
        <time>2016-12-27T19:52:30Z</time>
      </trkpt>
      <trkpt lat="43.73008" lon="3.52619">
        <ele>499.316</ele>
        <time>2016-12-27T19:52:50Z</time>
      </trkpt>
      <trkpt lat="43.72934" lon="3.52629">
        <ele>495.519</ele>
        <time>2016-12-27T19:53:10Z</time>
      </trkpt>
      <trkpt lat="43.72913" lon="3.52605">
        <ele>496.025</ele>
        <time>2016-12-27T19:53:30Z</time>
      </trkpt>
      <trkpt lat="43.72943" lon="3.52441">
        <ele>498.054</ele>
        <time>2016-12-27T19:53:50Z</time>
      </trkpt>
      <trkpt lat="43.72979" lon="3.52392">
        <ele>505.791</ele>
        <time>2016-12-27T19:54:10Z</time>
      </trkpt>
      <trkpt lat="43.72964" lon="3.52377">
        <ele>502.882</ele>
        <time>2016-12-27T19:54:30Z</time>
      </trkpt>
      <trkpt lat="43.7294" lon="3.52378">
        <ele>496.591</ele>
        <time>2016-12-27T19:54:50Z</time>
      </trkpt>
      <trkpt lat="43.72921" lon="3.52368">
        <ele>495.922</ele>
        <time>2016-12-27T19:55:10Z</time>
      </trkpt>
      <trkpt lat="43.72883" lon="3.52376">
        <ele>488.656</ele>
        <time>2016-12-27T19:55:30Z</time>
      </trkpt>
      <trkpt lat="43.72876" lon="3.52344">
        <ele>488.259</ele>
        <time>2016-12-27T19:55:50Z</time>
      </trkpt>
      <trkpt lat="43.72899" lon="3.52252">
        <ele>493.314</ele>
        <time>2016-12-27T19:56:10Z</time>
      </trkpt>
      <trkpt lat="43.72913" lon="3.52231">
        <ele>496.508</ele>
        <time>2016-12-27T19:56:30Z</time>
      </trkpt>
      <trkpt lat="43.72891" lon="3.52225">
        <ele>493.152</ele>
        <time>2016-12-27T19:56:50Z</time>
      </trkpt>
      <trkpt lat="43.72827" lon="3.52277">
        <ele>486.885</ele>
        <time>2016-12-27T19:57:10Z</time>
      </trkpt>
      <trkpt lat="43.72789" lon="3.52335">
        <ele>487.661</ele>
        <time>2016-12-27T19:57:30Z</time>
      </trkpt>
      <trkpt lat="43.72818" lon="3.52256">
        <ele>487.83</ele>
        <time>2016-12-27T19:57:50Z</time>
      </trkpt>
      <trkpt lat="43.72887" lon="3.52185">
        <ele>497.137</ele>
        <time>2016-12-27T19:58:10Z</time>
      </trkpt>
      <trkpt lat="43.72928" lon="3.52169">
        <ele>501.448</ele>
        <time>2016-12-27T19:58:30Z</time>
      </trkpt>
      <trkpt lat="43.72977" lon="3.52129">
        <ele>511.687</ele>
        <time>2016-12-27T19:58:50Z</time>
      </trkpt>
      <trkpt lat="43.72929" lon="3.52127">
        <ele>514.168</ele>
        <time>2016-12-27T19:59:10Z</time>
      </trkpt>
      <trkpt lat="43.72916" lon="3.52099">
        <ele>516.876</ele>
        <time>2016-12-27T19:59:30Z</time>
      </trkpt>
      <trkpt lat="43.72919" lon="3.52056">
        <ele>521.29</ele>
        <time>2016-12-27T19:59:50Z</time>
      </trkpt>
      <trkpt lat="43.72893" lon="3.5205">
        <ele>519.119</ele>
        <time>2016-12-27T20:00:10Z</time>
      </trkpt>
      <trkpt lat="43.72881" lon="3.52021">
        <ele>522.308</ele>
        <time>2016-12-27T20:00:30Z</time>
      </trkpt>
      <trkpt lat="43.72887" lon="3.51979">
        <ele>525.694</ele>
        <time>2016-12-27T20:00:50Z</time>
      </trkpt>
      <trkpt lat="43.72844" lon="3.52015">
        <ele>523.947</ele>
        <time>2016-12-27T20:01:10Z</time>
      </trkpt>
      <trkpt lat="43.72814" lon="3.52">
        <ele>525.023</ele>
        <time>2016-12-27T20:01:30Z</time>
      </trkpt>
      <trkpt lat="43.72755" lon="3.51988">
        <ele>524.572</ele>
        <time>2016-12-27T20:01:50Z</time>
      </trkpt>
      <trkpt lat="43.72745" lon="3.51888">
        <ele>525.099</ele>
        <time>2016-12-27T20:02:10Z</time>
      </trkpt>
      <trkpt lat="43.7272" lon="3.51876">
        <ele>521.47</ele>
        <time>2016-12-27T20:02:30Z</time>
      </trkpt>
      <trkpt lat="43.72635" lon="3.51981">
        <ele>506.939</ele>
        <time>2016-12-27T20:02:50Z</time>
      </trkpt>
      <trkpt lat="43.7259" lon="3.52001">
        <ele>500.22</ele>
        <time>2016-12-27T20:03:10Z</time>
      </trkpt>
      <trkpt lat="43.72546" lon="3.51976">
        <ele>500.593</ele>
        <time>2016-12-27T20:03:30Z</time>
      </trkpt>
      <trkpt lat="43.72475" lon="3.51898">
        <ele>496.665</ele>
        <time>2016-12-27T20:03:50Z</time>
      </trkpt>
      <trkpt lat="43.72439" lon="3.51897">
        <ele>491.821</ele>
        <time>2016-12-27T20:04:10Z</time>
      </trkpt>
      <trkpt lat="43.72426" lon="3.51831">
        <ele>493.308</ele>
        <time>2016-12-27T20:04:30Z</time>
      </trkpt>
      <trkpt lat="43.72482" lon="3.51713">
        <ele>489.586</ele>
        <time>2016-12-27T20:04:50Z</time>
      </trkpt>
      <trkpt lat="43.72495" lon="3.51661">
        <ele>485.789</ele>
        <time>2016-12-27T20:05:10Z</time>
      </trkpt>
      <trkpt lat="43.72517" lon="3.51631">
        <ele>487.155</ele>
        <time>2016-12-27T20:05:30Z</time>
      </trkpt>
      <trkpt lat="43.72515" lon="3.51579">
        <ele>488.314</ele>
        <time>2016-12-27T20:05:50Z</time>
      </trkpt>
      <trkpt lat="43.72455" lon="3.51561">
        <ele>486.281</ele>
        <time>2016-12-27T20:06:10Z</time>
      </trkpt>
      <trkpt lat="43.72402" lon="3.51569">
        <ele>489.972</ele>
        <time>2016-12-27T20:06:30Z</time>
      </trkpt>
      <trkpt lat="43.72347" lon="3.5155">
        <ele>490.651</ele>
        <time>2016-12-27T20:06:50Z</time>
      </trkpt>
      <trkpt lat="43.72314" lon="3.51557">
        <ele>484.252</ele>
        <time>2016-12-27T20:07:10Z</time>
      </trkpt>
      <trkpt lat="43.72292" lon="3.51538">
        <ele>482.533</ele>
        <time>2016-12-27T20:07:30Z</time>
      </trkpt>
      <trkpt lat="43.72295" lon="3.51485">
        <ele>481.723</ele>
        <time>2016-12-27T20:07:50Z</time>
      </trkpt>
      <trkpt lat="43.72305" lon="3.51431">
        <ele>478.315</ele>
        <time>2016-12-27T20:08:10Z</time>
      </trkpt>
      <trkpt lat="43.72286" lon="3.51377">
        <ele>471.208</ele>
        <time>2016-12-27T20:08:30Z</time>
      </trkpt>
      <trkpt lat="43.72237" lon="3.51334">
        <ele>464.73</ele>
        <time>2016-12-27T20:08:50Z</time>
      </trkpt>
      <trkpt lat="43.72201" lon="3.51331">
        <ele>456.933</ele>
        <time>2016-12-27T20:09:10Z</time>
      </trkpt>
      <trkpt lat="43.72174" lon="3.51301">
        <ele>456.769</ele>
        <time>2016-12-27T20:09:30Z</time>
      </trkpt>
      <trkpt lat="43.72172" lon="3.51265">
        <ele>455.918</ele>
        <time>2016-12-27T20:09:50Z</time>
      </trkpt>
      <trkpt lat="43.72123" lon="3.51284">
        <ele>448.995</ele>
        <time>2016-12-27T20:10:10Z</time>
      </trkpt>
      <trkpt lat="43.72054" lon="3.51327">
        <ele>439.946</ele>
        <time>2016-12-27T20:18:30Z</time>
      </trkpt>
      <trkpt lat="43.7202" lon="3.51333">
        <ele>432.495</ele>
        <time>2016-12-27T20:18:50Z</time>
      </trkpt>
      <trkpt lat="43.7195" lon="3.51387">
        <ele>428.436</ele>
        <time>2016-12-27T20:19:10Z</time>
      </trkpt>
      <trkpt lat="43.71864" lon="3.51424">
        <ele>424.421</ele>
        <time>2016-12-27T20:19:30Z</time>
      </trkpt>
      <trkpt lat="43.71832" lon="3.51458">
        <ele>422.141</ele>
        <time>2016-12-27T20:19:50Z</time>
      </trkpt>
      <trkpt lat="43.71728" lon="3.51528">
        <ele>425.805</ele>
        <time>2016-12-27T20:20:10Z</time>
      </trkpt>
      <trkpt lat="43.71701" lon="3.515">
        <ele>425.008</ele>
        <time>2016-12-27T20:20:30Z</time>
      </trkpt>
      <trkpt lat="43.71694" lon="3.5144">
        <ele>429.599</ele>
        <time>2016-12-27T20:20:50Z</time>
      </trkpt>
      <trkpt lat="43.71678" lon="3.51404">
        <ele>434.912</ele>
        <time>2016-12-27T20:21:10Z</time>
      </trkpt>
      <trkpt lat="43.71673" lon="3.51353">
        <ele>435.638</ele>
        <time>2016-12-27T21:28:30Z</time>
      </trkpt>
      <trkpt lat="43.71638" lon="3.51332">
        <ele>440.217</ele>
        <time>2016-12-27T21:28:50Z</time>
      </trkpt>
      <trkpt lat="43.7158" lon="3.51351">
        <ele>444.674</ele>
        <time>2016-12-27T21:29:10Z</time>
      </trkpt>
      <trkpt lat="43.71538" lon="3.51344">
        <ele>439.985</ele>
        <time>2016-12-27T21:29:30Z</time>
      </trkpt>
      <trkpt lat="43.7148" lon="3.51307">
        <ele>434.074</ele>
        <time>2016-12-27T21:29:50Z</time>
      </trkpt>
      <trkpt lat="43.71407" lon="3.51233">
        <ele>421.825</ele>
        <time>2016-12-27T21:30:10Z</time>
      </trkpt>
      <trkpt lat="43.71369" lon="3.51187">
        <ele>410.674</ele>
        <time>2016-12-27T21:30:30Z</time>
      </trkpt>
      <trkpt lat="43.71329" lon="3.51197">
        <ele>404.556</ele>
        <time>2016-12-27T21:30:50Z</time>
      </trkpt>
      <trkpt lat="43.71297" lon="3.51185">
        <ele>397.321</ele>
        <time>2016-12-27T21:31:10Z</time>
      </trkpt>
      <trkpt lat="43.71282" lon="3.51236">
        <ele>394.908</ele>
        <time>2016-12-27T21:31:30Z</time>
      </trkpt>
      <trkpt lat="43.71266" lon="3.51199">
        <ele>389.174</ele>
        <time>2016-12-27T21:32:10Z</time>
      </trkpt>
      <trkpt lat="43.71247" lon="3.5118">
        <ele>384.527</ele>
        <time>2016-12-27T21:32:30Z</time>
      </trkpt>
      <trkpt lat="43.71252" lon="3.51125">
        <ele>381.993</ele>
        <time>2016-12-27T21:32:50Z</time>
      </trkpt>
      <trkpt lat="43.71232" lon="3.51114">
        <ele>377.772</ele>
        <time>2016-12-27T21:33:10Z</time>
      </trkpt>
      <trkpt lat="43.71216" lon="3.5116">
        <ele>378.729</ele>
        <time>2016-12-27T21:33:30Z</time>
      </trkpt>
      <trkpt lat="43.71212" lon="3.51206">
        <ele>378.29</ele>
        <time>2016-12-27T21:33:50Z</time>
      </trkpt>
      <trkpt lat="43.71227" lon="3.51243">
        <ele>380.469</ele>
        <time>2016-12-27T21:34:10Z</time>
      </trkpt>
      <trkpt lat="43.71239" lon="3.51374">
        <ele>378.36</ele>
        <time>2016-12-27T21:34:30Z</time>
      </trkpt>
      <trkpt lat="43.71194" lon="3.51309">
        <ele>374.756</ele>
        <time>2016-12-27T21:34:50Z</time>
      </trkpt>
      <trkpt lat="43.7119" lon="3.51296">
        <ele>374.259</ele>
        <time>2016-12-27T21:35:10Z</time>
      </trkpt>
      <trkpt lat="43.71178" lon="3.51241">
        <ele>370.814</ele>
        <time>2016-12-27T21:35:30Z</time>
      </trkpt>
      <trkpt lat="43.71137" lon="3.51169">
        <ele>364.508</ele>
        <time>2016-12-27T21:35:50Z</time>
      </trkpt>
      <trkpt lat="43.71071" lon="3.51048">
        <ele>346.722</ele>
        <time>2016-12-27T21:36:10Z</time>
      </trkpt>
      <trkpt lat="43.7107" lon="3.50991">
        <ele>343.445</ele>
        <time>2016-12-27T21:37:30Z</time>
      </trkpt>
      <trkpt lat="43.71052" lon="3.50927">
        <ele>338.481</ele>
        <time>2016-12-27T21:37:50Z</time>
      </trkpt>
      <trkpt lat="43.71053" lon="3.50881">
        <ele>336.14</ele>
        <time>2016-12-27T21:38:10Z</time>
      </trkpt>
      <trkpt lat="43.71067" lon="3.50838">
        <ele>329.867</ele>
        <time>2016-12-27T21:38:30Z</time>
      </trkpt>
      <trkpt lat="43.70997" lon="3.50701">
        <ele>322.148</ele>
        <time>2016-12-27T21:39:30Z</time>
      </trkpt>
      <trkpt lat="43.70973" lon="3.50691">
        <ele>321.087</ele>
        <time>2016-12-27T21:39:50Z</time>
      </trkpt>
      <trkpt lat="43.70977" lon="3.50776">
        <ele>322.588</ele>
        <time>2016-12-27T21:40:10Z</time>
      </trkpt>
      <trkpt lat="43.70959" lon="3.50829">
        <ele>318.355</ele>
        <time>2016-12-27T21:40:30Z</time>
      </trkpt>
      <trkpt lat="43.70954" lon="3.50875">
        <ele>312.507</ele>
        <time>2016-12-27T21:40:50Z</time>
      </trkpt>
      <trkpt lat="43.7092" lon="3.50852">
        <ele>304.317</ele>
        <time>2016-12-27T21:41:10Z</time>
      </trkpt>
      <trkpt lat="43.70904" lon="3.50914">
        <ele>303.108</ele>
        <time>2016-12-27T21:41:30Z</time>
      </trkpt>
      <trkpt lat="43.7086" lon="3.50947">
        <ele>298.062</ele>
        <time>2016-12-27T21:41:50Z</time>
      </trkpt>
      <trkpt lat="43.70813" lon="3.50969">
        <ele>292.355</ele>
        <time>2016-12-27T21:42:10Z</time>
      </trkpt>
      <trkpt lat="43.7079" lon="3.50989">
        <ele>288.681</ele>
        <time>2016-12-27T21:42:30Z</time>
      </trkpt>
      <trkpt lat="43.70779" lon="3.50987">
        <ele>285.73</ele>
        <time>2016-12-27T21:42:50Z</time>
      </trkpt>
      <trkpt lat="43.70755" lon="3.50935">
        <ele>281.547</ele>
        <time>2016-12-27T21:43:10Z</time>
      </trkpt>
      <trkpt lat="43.70746" lon="3.50938">
        <ele>279.388</ele>
        <time>2016-12-27T21:43:30Z</time>
      </trkpt>
      <trkpt lat="43.70746" lon="3.50974">
        <ele>279.257</ele>
        <time>2016-12-27T21:52:10Z</time>
      </trkpt>
      <trkpt lat="43.70721" lon="3.51023">
        <ele>268.638</ele>
        <time>2016-12-27T21:52:30Z</time>
      </trkpt>
      <trkpt lat="43.70715" lon="3.51064">
        <ele>265.585</ele>
        <time>2016-12-27T21:52:50Z</time>
      </trkpt>
      <trkpt lat="43.70726" lon="3.51108">
        <ele>268.189</ele>
        <time>2016-12-27T21:53:10Z</time>
      </trkpt>
      <trkpt lat="43.70693" lon="3.51083">
        <ele>255.617</ele>
        <time>2016-12-27T21:53:30Z</time>
      </trkpt>
      <trkpt lat="43.70646" lon="3.51119">
        <ele>241.708</ele>
        <time>2016-12-27T21:53:50Z</time>
      </trkpt>
      <trkpt lat="43.706" lon="3.51106">
        <ele>239.535</ele>
        <time>2016-12-27T21:54:10Z</time>
      </trkpt>
      <trkpt lat="43.70571" lon="3.51116">
        <ele>234.718</ele>
        <time>2016-12-27T21:54:30Z</time>
      </trkpt>
      <trkpt lat="43.70548" lon="3.51096">
        <ele>231.834</ele>
        <time>2016-12-27T21:54:50Z</time>
      </trkpt>
      <trkpt lat="43.7056" lon="3.51147">
        <ele>229.593</ele>
        <time>2016-12-27T21:55:10Z</time>
      </trkpt>
      <trkpt lat="43.70586" lon="3.51155">
        <ele>232.09</ele>
        <time>2016-12-27T21:55:30Z</time>
      </trkpt>
      <trkpt lat="43.70613" lon="3.51194">
        <ele>229.371</ele>
        <time>2016-12-27T21:55:50Z</time>
      </trkpt>
      <trkpt lat="43.70628" lon="3.51236">
        <ele>224.16</ele>
        <time>2016-12-27T21:56:10Z</time>
      </trkpt>
      <trkpt lat="43.706" lon="3.51234">
        <ele>219.941</ele>
        <time>2016-12-27T21:56:30Z</time>
      </trkpt>
      <trkpt lat="43.70582" lon="3.51246">
        <ele>215.111</ele>
        <time>2016-12-27T21:56:50Z</time>
      </trkpt>
      <trkpt lat="43.70554" lon="3.51249">
        <ele>214.221</ele>
        <time>2016-12-27T21:57:10Z</time>
      </trkpt>
      <trkpt lat="43.70531" lon="3.51284">
        <ele>204.003</ele>
        <time>2016-12-27T21:57:30Z</time>
      </trkpt>
      <trkpt lat="43.70508" lon="3.51278">
        <ele>203.808</ele>
        <time>2016-12-27T21:57:50Z</time>
      </trkpt>
      <trkpt lat="43.7049" lon="3.51256">
        <ele>202.658</ele>
        <time>2016-12-27T21:58:10Z</time>
      </trkpt>
      <trkpt lat="43.70485" lon="3.51207">
        <ele>204.181</ele>
        <time>2016-12-27T21:58:30Z</time>
      </trkpt>
      <trkpt lat="43.70455" lon="3.51151">
        <ele>197.327</ele>
        <time>2016-12-27T21:58:50Z</time>
      </trkpt>
      <trkpt lat="43.70438" lon="3.51069">
        <ele>192.546</ele>
        <time>2016-12-27T21:59:10Z</time>
      </trkpt>
      <trkpt lat="43.70435" lon="3.50996">
        <ele>187.473</ele>
        <time>2016-12-27T21:59:30Z</time>
      </trkpt>
      <trkpt lat="43.7044" lon="3.50919">
        <ele>182.554</ele>
        <time>2016-12-27T21:59:50Z</time>
      </trkpt>
      <trkpt lat="43.7042" lon="3.50921">
        <ele>175.493</ele>
        <time>2016-12-27T22:00:10Z</time>
      </trkpt>
      <trkpt lat="43.70417" lon="3.50904">
        <ele>173.344</ele>
        <time>2016-12-27T22:00:30Z</time>
      </trkpt>
      <trkpt lat="43.70422" lon="3.50857">
        <ele>171.365</ele>
        <time>2016-12-27T22:00:50Z</time>
      </trkpt>
      <trkpt lat="43.70409" lon="3.50812">
        <ele>167.368</ele>
        <time>2016-12-27T22:01:10Z</time>
      </trkpt>
      <trkpt lat="43.70372" lon="3.50777">
        <ele>163.214</ele>
        <time>2016-12-27T22:01:30Z</time>
      </trkpt>
      <trkpt lat="43.7026" lon="3.50756">
        <ele>151.908</ele>
        <time>2016-12-27T22:01:50Z</time>
      </trkpt>
      <trkpt lat="43.70263" lon="3.50699">
        <ele>152.983</ele>
        <time>2016-12-27T22:02:10Z</time>
      </trkpt>
      <trkpt lat="43.70239" lon="3.50621">
        <ele>149.756</ele>
        <time>2016-12-27T22:02:30Z</time>
      </trkpt>
      <trkpt lat="43.70264" lon="3.50566">
        <ele>146.952</ele>
        <time>2016-12-27T22:02:50Z</time>
      </trkpt>
      <trkpt lat="43.70295" lon="3.50545">
        <ele>148.381</ele>
        <time>2016-12-27T22:03:10Z</time>
      </trkpt>
      <trkpt lat="43.70279" lon="3.50483">
        <ele>149.398</ele>
        <time>2016-12-27T22:03:30Z</time>
      </trkpt>
      <trkpt lat="43.70235" lon="3.50383">
        <ele>149.499</ele>
        <time>2016-12-27T22:03:50Z</time>
      </trkpt>
      <trkpt lat="43.70226" lon="3.50332">
        <ele>149.438</ele>
        <time>2016-12-27T22:04:10Z</time>
      </trkpt>
      <trkpt lat="43.70214" lon="3.50243">
        <ele>148.259</ele>
        <time>2016-12-27T22:04:30Z</time>
      </trkpt>
      <trkpt lat="43.70217" lon="3.50206">
        <ele>149.475</ele>
        <time>2016-12-27T22:04:50Z</time>
      </trkpt>
      <trkpt lat="43.70225" lon="3.50192">
        <ele>151.328</ele>
        <time>2016-12-27T22:05:10Z</time>
      </trkpt>
      <trkpt lat="43.70184" lon="3.50158">
        <ele>142.72</ele>
        <time>2016-12-27T22:05:30Z</time>
      </trkpt>
      <trkpt lat="43.70183" lon="3.50033">
        <ele>148.908</ele>
        <time>2016-12-27T22:05:50Z</time>
      </trkpt>
      <trkpt lat="43.7016" lon="3.49964">
        <ele>153.424</ele>
        <time>2016-12-27T22:06:10Z</time>
      </trkpt>
      <trkpt lat="43.7016" lon="3.49849">
        <ele>160.777</ele>
        <time>2016-12-27T22:06:30Z</time>
      </trkpt>
      <trkpt lat="43.70141" lon="3.49759">
        <ele>169.943</ele>
        <time>2016-12-27T22:06:50Z</time>
      </trkpt>
      <trkpt lat="43.70418" lon="3.49522">
        <ele>171.742</ele>
        <time>2016-12-27T22:07:10Z</time>
      </trkpt>
      <trkpt lat="43.70473" lon="3.4952">
        <ele>176.329</ele>
        <time>2016-12-27T22:07:30Z</time>
      </trkpt>
      <trkpt lat="43.705" lon="3.49429">
        <ele>180.06</ele>
        <time>2016-12-27T22:07:50Z</time>
      </trkpt>
      <trkpt lat="43.70524" lon="3.49389">
        <ele>181.979</ele>
        <time>2016-12-27T22:08:10Z</time>
      </trkpt>
      <trkpt lat="43.70542" lon="3.49298">
        <ele>187.13</ele>
        <time>2016-12-27T22:08:30Z</time>
      </trkpt>
      <trkpt lat="43.70572" lon="3.49249">
        <ele>190.653</ele>
        <time>2016-12-27T22:08:50Z</time>
      </trkpt>
      <trkpt lat="43.70514" lon="3.49163">
        <ele>192.104</ele>
        <time>2016-12-27T22:09:10Z</time>
      </trkpt>
      <trkpt lat="43.70576" lon="3.49115">
        <ele>194.014</ele>
        <time>2016-12-27T22:09:30Z</time>
      </trkpt>
      <trkpt lat="43.70809" lon="3.49052">
        <ele>189.008</ele>
        <time>2016-12-27T22:09:50Z</time>
      </trkpt>
      <trkpt lat="43.70843" lon="3.49046">
        <ele>184.472</ele>
        <time>2016-12-27T22:10:10Z</time>
      </trkpt>
      <trkpt lat="43.70887" lon="3.48977">
        <ele>185.855</ele>
        <time>2016-12-27T22:10:30Z</time>
      </trkpt>
      <trkpt lat="43.70928" lon="3.48901">
        <ele>198.551</ele>
        <time>2016-12-27T22:10:50Z</time>
      </trkpt>
      <trkpt lat="43.70963" lon="3.48821">
        <ele>205.88</ele>
        <time>2016-12-27T22:11:50Z</time>
      </trkpt>
      <trkpt lat="43.70984" lon="3.48704">
        <ele>213.087</ele>
        <time>2016-12-27T22:12:10Z</time>
      </trkpt>
      <trkpt lat="43.71009" lon="3.48675">
        <ele>217.568</ele>
        <time>2016-12-27T22:13:10Z</time>
      </trkpt>
      <trkpt lat="43.71021" lon="3.48621">
        <ele>221.037</ele>
        <time>2016-12-27T22:13:30Z</time>
      </trkpt>
      <trkpt lat="43.71036" lon="3.48592">
        <ele>224.778</ele>
        <time>2016-12-27T22:13:50Z</time>
      </trkpt>
      <trkpt lat="43.7104" lon="3.48527">
        <ele>226.764</ele>
        <time>2016-12-27T22:15:30Z</time>
      </trkpt>
      <trkpt lat="43.71056" lon="3.48516">
        <ele>230.206</ele>
        <time>2016-12-27T22:15:50Z</time>
      </trkpt>
      <trkpt lat="43.71085" lon="3.48521">
        <ele>241.716</ele>
        <time>2016-12-27T22:16:10Z</time>
      </trkpt>
      <trkpt lat="43.71092" lon="3.48487">
        <ele>244.708</ele>
        <time>2016-12-27T22:16:30Z</time>
      </trkpt>
      <trkpt lat="43.71076" lon="3.48484">
        <ele>238.823</ele>
        <time>2016-12-27T22:16:50Z</time>
      </trkpt>
      <trkpt lat="43.71073" lon="3.48476">
        <ele>237.636</ele>
        <time>2016-12-27T22:17:10Z</time>
      </trkpt>
      <trkpt lat="43.71048" lon="3.48477">
        <ele>229.572</ele>
        <time>2016-12-27T22:17:30Z</time>
      </trkpt>
      <trkpt lat="43.71033" lon="3.48436">
        <ele>227.291</ele>
        <time>2016-12-27T22:17:50Z</time>
      </trkpt>
      <trkpt lat="43.71003" lon="3.48443">
        <ele>219.988</ele>
        <time>2016-12-27T22:18:10Z</time>
      </trkpt>
      <trkpt lat="43.70988" lon="3.48475">
        <ele>215.359</ele>
        <time>2016-12-27T22:18:30Z</time>
      </trkpt>
      <trkpt lat="43.70948" lon="3.48467">
        <ele>207.828</ele>
        <time>2016-12-27T22:18:50Z</time>
      </trkpt>
      <trkpt lat="43.70913" lon="3.4846">
        <ele>202.649</ele>
        <time>2016-12-27T22:19:10Z</time>
      </trkpt>
      <trkpt lat="43.70876" lon="3.48442">
        <ele>199.577</ele>
        <time>2016-12-27T22:19:30Z</time>
      </trkpt>
      <trkpt lat="43.70734" lon="3.48432">
        <ele>190.161</ele>
        <time>2016-12-27T22:19:50Z</time>
      </trkpt>
      <trkpt lat="43.707" lon="3.48414">
        <ele>188.927</ele>
        <time>2016-12-27T22:20:10Z</time>
      </trkpt>
      <trkpt lat="43.70676" lon="3.48426">
        <ele>189.808</ele>
        <time>2016-12-27T22:20:30Z</time>
      </trkpt>
      <trkpt lat="43.7063" lon="3.48362">
        <ele>184.354</ele>
        <time>2016-12-27T22:20:50Z</time>
      </trkpt>
      <trkpt lat="43.70585" lon="3.48332">
        <ele>180.937</ele>
        <time>2016-12-27T22:21:10Z</time>
      </trkpt>
      <trkpt lat="43.70581" lon="3.483">
        <ele>178.173</ele>
        <time>2021-04-16T19:58:30Z</time>
      </trkpt>
      <trkpt lat="43.70499" lon="3.48217">
        <ele>165.372</ele>
        <time>2016-12-27T22:21:50Z</time>
      </trkpt>
      <trkpt lat="43.70543" lon="3.48221">
        <ele>165.419</ele>
        <time>2016-12-27T22:22:10Z</time>
      </trkpt>
      <trkpt lat="43.70535" lon="3.48191">
        <ele>160.65</ele>
        <time>2016-12-27T22:22:30Z</time>
      </trkpt>
      <trkpt lat="43.70483" lon="3.48165">
        <ele>159.969</ele>
        <time>2016-12-27T22:22:50Z</time>
      </trkpt>
      <trkpt lat="43.7046" lon="3.48095">
        <ele>155.18</ele>
        <time>2016-12-27T22:23:10Z</time>
      </trkpt>
      <trkpt lat="43.70423" lon="3.48047">
        <ele>158.682</ele>
        <time>2016-12-27T22:23:30Z</time>
      </trkpt>
      <trkpt lat="43.70395" lon="3.48025">
        <ele>162.143</ele>
        <time>2016-12-27T22:23:50Z</time>
      </trkpt>
      <trkpt lat="43.70346" lon="3.47957">
        <ele>172.517</ele>
        <time>2016-12-27T22:24:10Z</time>
      </trkpt>
      <trkpt lat="43.70378" lon="3.47941">
        <ele>171.208</ele>
        <time>2016-12-27T22:24:30Z</time>
      </trkpt>
      <trkpt lat="43.70447" lon="3.47935">
        <ele>177.935</ele>
        <time>2016-12-27T22:24:50Z</time>
      </trkpt>
      <trkpt lat="43.70466" lon="3.47915">
        <ele>180.138</ele>
        <time>2016-12-27T22:25:10Z</time>
      </trkpt>
      <trkpt lat="43.70459" lon="3.47821">
        <ele>187.184</ele>
        <time>2016-12-27T22:25:30Z</time>
      </trkpt>
      <trkpt lat="43.70504" lon="3.47771">
        <ele>189.643</ele>
        <time>2016-12-27T22:25:50Z</time>
      </trkpt>
      <trkpt lat="43.70534" lon="3.47747">
        <ele>189.81</ele>
        <time>2016-12-27T22:26:10Z</time>
      </trkpt>
      <trkpt lat="43.70544" lon="3.47703">
        <ele>193.311</ele>
        <time>2016-12-27T22:26:30Z</time>
      </trkpt>
      <trkpt lat="43.70582" lon="3.47687">
        <ele>192.55</ele>
        <time>2016-12-27T22:26:50Z</time>
      </trkpt>
      <trkpt lat="43.70653" lon="3.47687">
        <ele>194.471</ele>
        <time>2016-12-27T22:27:10Z</time>
      </trkpt>
      <trkpt lat="43.70768" lon="3.47667">
        <ele>198.683</ele>
        <time>2016-12-27T22:27:30Z</time>
      </trkpt>
      <trkpt lat="43.70823" lon="3.47679">
        <ele>198.925</ele>
        <time>2016-12-27T22:27:50Z</time>
      </trkpt>
      <trkpt lat="43.70876" lon="3.47677">
        <ele>204.717</ele>
        <time>2016-12-27T22:28:10Z</time>
      </trkpt>
      <trkpt lat="43.70902" lon="3.47689">
        <ele>202.108</ele>
        <time>2016-12-27T22:28:30Z</time>
      </trkpt>
      <trkpt lat="43.70955" lon="3.47651">
        <ele>202.665</ele>
        <time>2016-12-27T22:28:50Z</time>
      </trkpt>
      <trkpt lat="43.7097" lon="3.47629">
        <ele>206.338</ele>
        <time>2016-12-27T22:29:10Z</time>
      </trkpt>
      <trkpt lat="43.71004" lon="3.47625">
        <ele>205.764</ele>
        <time>2016-12-27T22:29:30Z</time>
      </trkpt>
      <trkpt lat="43.71037" lon="3.47598">
        <ele>210.773</ele>
        <time>2016-12-27T22:29:50Z</time>
      </trkpt>
      <trkpt lat="43.7107" lon="3.47573">
        <ele>210.97</ele>
        <time>2016-12-27T22:30:10Z</time>
      </trkpt>
      <trkpt lat="43.71106" lon="3.4753">
        <ele>211.851</ele>
        <time>2016-12-27T22:30:30Z</time>
      </trkpt>
      <trkpt lat="43.71138" lon="3.47488">
        <ele>213.41</ele>
        <time>2016-12-27T22:31:30Z</time>
      </trkpt>
      <trkpt lat="43.71164" lon="3.47438">
        <ele>218.561</ele>
        <time>2016-12-27T22:31:50Z</time>
      </trkpt>
      <trkpt lat="43.71192" lon="3.47428">
        <ele>217.663</ele>
        <time>2016-12-27T22:32:10Z</time>
      </trkpt>
      <trkpt lat="43.71209" lon="3.47413">
        <ele>218.944</ele>
        <time>2016-12-27T22:32:30Z</time>
      </trkpt>
      <trkpt lat="43.71203" lon="3.47409">
        <ele>220.318</ele>
        <time>2016-12-27T22:32:50Z</time>
      </trkpt>
      <trkpt lat="43.71185" lon="3.47412">
        <ele>221.108</ele>
        <time>2016-12-27T22:33:10Z</time>
      </trkpt>
      <trkpt lat="43.71148" lon="3.47411">
        <ele>225.053</ele>
        <time>2016-12-27T22:33:30Z</time>
      </trkpt>
      <trkpt lat="43.7113" lon="3.47445">
        <ele>224.716</ele>
        <time>2016-12-27T22:33:50Z</time>
      </trkpt>
      <trkpt lat="43.71122" lon="3.4745">
        <ele>227.142</ele>
        <time>2016-12-27T22:47:50Z</time>
      </trkpt>
      <trkpt lat="43.71122" lon="3.4743">
        <ele>229.651</ele>
        <time>2016-12-27T22:48:10Z</time>
      </trkpt>
      <trkpt lat="43.71136" lon="3.47382">
        <ele>232.758</ele>
        <time>2016-12-27T22:48:30Z</time>
      </trkpt>
      <trkpt lat="43.71162" lon="3.47355">
        <ele>237.039</ele>
        <time>2016-12-27T22:48:50Z</time>
      </trkpt>
      <trkpt lat="43.71203" lon="3.47333">
        <ele>241.688</ele>
        <time>2016-12-27T22:49:10Z</time>
      </trkpt>
      <trkpt lat="43.71238" lon="3.47309">
        <ele>244.849</ele>
        <time>2016-12-27T22:49:30Z</time>
      </trkpt>
      <trkpt lat="43.71258" lon="3.4731">
        <ele>242.841</ele>
        <time>2016-12-27T22:49:50Z</time>
      </trkpt>
      <trkpt lat="43.71277" lon="3.47295">
        <ele>245.681</ele>
        <time>2016-12-27T22:50:10Z</time>
      </trkpt>
      <trkpt lat="43.71293" lon="3.4727">
        <ele>251.809</ele>
        <time>2016-12-27T22:50:30Z</time>
      </trkpt>
      <trkpt lat="43.71324" lon="3.47259">
        <ele>249.108</ele>
        <time>2016-12-27T22:50:50Z</time>
      </trkpt>
      <trkpt lat="43.71382" lon="3.47162">
        <ele>256.131</ele>
        <time>2016-12-27T22:51:10Z</time>
      </trkpt>
      <trkpt lat="43.71425" lon="3.47083">
        <ele>261.554</ele>
        <time>2016-12-27T22:51:30Z</time>
      </trkpt>
      <trkpt lat="43.71427" lon="3.47029">
        <ele>268.94</ele>
        <time>2016-12-27T22:51:50Z</time>
      </trkpt>
      <trkpt lat="43.71442" lon="3.47007">
        <ele>267.169</ele>
        <time>2016-12-27T22:52:10Z</time>
      </trkpt>
      <trkpt lat="43.71448" lon="3.46941">
        <ele>273.586</ele>
        <time>2016-12-27T22:52:30Z</time>
      </trkpt>
      <trkpt lat="43.71431" lon="3.46994">
        <ele>272.197</ele>
        <time>2016-12-27T22:52:50Z</time>
      </trkpt>
      <trkpt lat="43.714" lon="3.47014">
        <ele>281.456</ele>
        <time>2016-12-27T22:53:10Z</time>
      </trkpt>
      <trkpt lat="43.71388" lon="3.47072">
        <ele>278.447</ele>
        <time>2016-12-27T22:53:30Z</time>
      </trkpt>
      <trkpt lat="43.71343" lon="3.47143">
        <ele>276.764</ele>
        <time>2016-12-27T22:53:50Z</time>
      </trkpt>
      <trkpt lat="43.71296" lon="3.47188">
        <ele>281.006</ele>
        <time>2016-12-27T22:54:10Z</time>
      </trkpt>
      <trkpt lat="43.71254" lon="3.47203">
        <ele>282.616</ele>
        <time>2016-12-27T22:54:30Z</time>
      </trkpt>
      <trkpt lat="43.71215" lon="3.47203">
        <ele>286.408</ele>
        <time>2016-12-27T22:54:50Z</time>
      </trkpt>
      <trkpt lat="43.71176" lon="3.47216">
        <ele>286.823</ele>
        <time>2016-12-27T22:55:10Z</time>
      </trkpt>
      <trkpt lat="43.71131" lon="3.47223">
        <ele>289.126</ele>
        <time>2016-12-27T22:55:30Z</time>
      </trkpt>
      <trkpt lat="43.70964" lon="3.47287">
        <ele>293.712</ele>
        <time>2021-04-16T20:18:30Z</time>
      </trkpt>
      <trkpt lat="43.71024" lon="3.47178">
        <ele>310.771</ele>
        <time>2016-12-27T22:56:30Z</time>
      </trkpt>
      <trkpt lat="43.71073" lon="3.47143">
        <ele>320.258</ele>
        <time>2016-12-27T22:56:50Z</time>
      </trkpt>
      <trkpt lat="43.71254" lon="3.46992">
        <ele>350.729</ele>
        <time>2016-12-27T22:57:10Z</time>
      </trkpt>
      <trkpt lat="43.71274" lon="3.46921">
        <ele>355.798</ele>
        <time>2016-12-27T22:57:30Z</time>
      </trkpt>
      <trkpt lat="43.71312" lon="3.46855">
        <ele>356.349</ele>
        <time>2016-12-27T22:57:50Z</time>
      </trkpt>
      <trkpt lat="43.71311" lon="3.4681">
        <ele>363.234</ele>
        <time>2016-12-27T22:58:10Z</time>
      </trkpt>
      <trkpt lat="43.71284" lon="3.46659">
        <ele>368.055</ele>
        <time>2016-12-27T22:58:30Z</time>
      </trkpt>
      <trkpt lat="43.71249" lon="3.4664">
        <ele>371.31</ele>
        <time>2016-12-27T22:58:50Z</time>
      </trkpt>
      <trkpt lat="43.71239" lon="3.46609">
        <ele>369.108</ele>
        <time>2016-12-27T22:59:10Z</time>
      </trkpt>
      <trkpt lat="43.71245" lon="3.46571">
        <ele>370.73</ele>
        <time>2016-12-27T22:59:30Z</time>
      </trkpt>
      <trkpt lat="43.71272" lon="3.46545">
        <ele>375.163</ele>
        <time>2016-12-27T22:59:50Z</time>
      </trkpt>
      <trkpt lat="43.71366" lon="3.46525">
        <ele>380.279</ele>
        <time>2016-12-27T23:00:10Z</time>
      </trkpt>
      <trkpt lat="43.71419" lon="3.4648">
        <ele>387.368</ele>
        <time>2016-12-27T23:00:30Z</time>
      </trkpt>
      <trkpt lat="43.71434" lon="3.46432">
        <ele>395.235</ele>
        <time>2016-12-27T23:00:50Z</time>
      </trkpt>
      <trkpt lat="43.71453" lon="3.46409">
        <ele>397.646</ele>
        <time>2016-12-27T23:01:10Z</time>
      </trkpt>
      <trkpt lat="43.71459" lon="3.46387">
        <ele>401.585</ele>
        <time>2016-12-27T23:01:30Z</time>
      </trkpt>
      <trkpt lat="43.71481" lon="3.46367">
        <ele>403.676</ele>
        <time>2016-12-27T23:01:50Z</time>
      </trkpt>
      <trkpt lat="43.71478" lon="3.46353">
        <ele>408.288</ele>
        <time>2016-12-27T23:02:10Z</time>
      </trkpt>
      <trkpt lat="43.71519" lon="3.46314">
        <ele>415.824</ele>
        <time>2016-12-27T23:02:30Z</time>
      </trkpt>
      <trkpt lat="43.71544" lon="3.46299">
        <ele>415.226</ele>
        <time>2016-12-27T23:02:50Z</time>
      </trkpt>
      <trkpt lat="43.71555" lon="3.46267">
        <ele>421.308</ele>
        <time>2016-12-27T23:03:10Z</time>
      </trkpt>
      <trkpt lat="43.71556" lon="3.46234">
        <ele>430.065</ele>
        <time>2016-12-27T23:03:30Z</time>
      </trkpt>
      <trkpt lat="43.7157" lon="3.46187">
        <ele>430.578</ele>
        <time>2016-12-27T23:03:50Z</time>
      </trkpt>
      <trkpt lat="43.71607" lon="3.46019">
        <ele>442.684</ele>
        <time>2016-12-27T23:04:10Z</time>
      </trkpt>
      <trkpt lat="43.71607" lon="3.45963">
        <ele>449.143</ele>
        <time>2016-12-27T23:04:30Z</time>
      </trkpt>
      <trkpt lat="43.71611" lon="3.45913">
        <ele>450.06</ele>
        <time>2016-12-27T23:04:50Z</time>
      </trkpt>
      <trkpt lat="43.71591" lon="3.4587">
        <ele>449.151</ele>
        <time>2016-12-27T23:05:10Z</time>
      </trkpt>
      <trkpt lat="43.71609" lon="3.45823">
        <ele>439.92</ele>
        <time>2016-12-27T23:05:30Z</time>
      </trkpt>
      <trkpt lat="43.71651" lon="3.45796">
        <ele>433.651</ele>
        <time>2016-12-27T23:05:50Z</time>
      </trkpt>
      <trkpt lat="43.71648" lon="3.45774">
        <ele>429.767</ele>
        <time>2016-12-27T23:06:10Z</time>
      </trkpt>
      <trkpt lat="43.71654" lon="3.45752">
        <ele>427.081</ele>
        <time>2016-12-27T23:06:30Z</time>
      </trkpt>
      <trkpt lat="43.71648" lon="3.45738">
        <ele>423.619</ele>
        <time>2016-12-27T23:06:50Z</time>
      </trkpt>
      <trkpt lat="43.71656" lon="3.4571">
        <ele>421.908</ele>
        <time>2016-12-27T23:07:10Z</time>
      </trkpt>
      <trkpt lat="43.71653" lon="3.45674">
        <ele>416.143</ele>
        <time>2016-12-27T23:07:30Z</time>
      </trkpt>
      <trkpt lat="43.71648" lon="3.45663">
        <ele>412.886</ele>
        <time>2016-12-27T23:07:50Z</time>
      </trkpt>
      <trkpt lat="43.71648" lon="3.45627">
        <ele>405.812</ele>
        <time>2016-12-27T23:08:10Z</time>
      </trkpt>
      <trkpt lat="43.7166" lon="3.45599">
        <ele>405.281</ele>
        <time>2016-12-27T23:08:30Z</time>
      </trkpt>
      <trkpt lat="43.71659" lon="3.45549">
        <ele>400.168</ele>
        <time>2016-12-27T23:08:50Z</time>
      </trkpt>
      <trkpt lat="43.71694" lon="3.45508">
        <ele>407.419</ele>
        <time>2016-12-27T23:09:10Z</time>
      </trkpt>
      <trkpt lat="43.71696" lon="3.45477">
        <ele>404.918</ele>
        <time>2016-12-27T23:09:30Z</time>
      </trkpt>
      <trkpt lat="43.71692" lon="3.45455">
        <ele>402.239</ele>
        <time>2016-12-27T23:09:50Z</time>
      </trkpt>
      <trkpt lat="43.71696" lon="3.4541">
        <ele>398.969</ele>
        <time>2016-12-27T23:10:10Z</time>
      </trkpt>
      <trkpt lat="43.71666" lon="3.45417">
        <ele>392.804</ele>
        <time>2016-12-27T23:10:30Z</time>
      </trkpt>
      <trkpt lat="43.71663" lon="3.45399">
        <ele>386.924</ele>
        <time>2016-12-27T23:10:50Z</time>
      </trkpt>
      <trkpt lat="43.71686" lon="3.45388">
        <ele>391.108</ele>
        <time>2016-12-27T23:11:10Z</time>
      </trkpt>
      <trkpt lat="43.71688" lon="3.45356">
        <ele>385.583</ele>
        <time>2016-12-27T23:11:30Z</time>
      </trkpt>
      <trkpt lat="43.71663" lon="3.45317">
        <ele>375.726</ele>
        <time>2016-12-27T23:11:50Z</time>
      </trkpt>
      <trkpt lat="43.71659" lon="3.45291">
        <ele>373.692</ele>
        <time>2016-12-27T23:12:10Z</time>
      </trkpt>
      <trkpt lat="43.71662" lon="3.45269">
        <ele>376.181</ele>
        <time>2016-12-27T23:12:30Z</time>
      </trkpt>
      <trkpt lat="43.71649" lon="3.45224">
        <ele>368.738</ele>
        <time>2016-12-27T23:12:50Z</time>
      </trkpt>
      <trkpt lat="43.71653" lon="3.45212">
        <ele>370.589</ele>
        <time>2016-12-27T23:13:10Z</time>
      </trkpt>
      <trkpt lat="43.71647" lon="3.45173">
        <ele>365.258</ele>
        <time>2016-12-27T23:13:30Z</time>
      </trkpt>
      <trkpt lat="43.71637" lon="3.45164">
        <ele>361.129</ele>
        <time>2016-12-27T23:13:50Z</time>
      </trkpt>
      <trkpt lat="43.71617" lon="3.45175">
        <ele>355.653</ele>
        <time>2016-12-27T23:14:10Z</time>
      </trkpt>
      <trkpt lat="43.71601" lon="3.45159">
        <ele>350.704</ele>
        <time>2016-12-27T23:14:30Z</time>
      </trkpt>
      <trkpt lat="43.71583" lon="3.45171">
        <ele>345.214</ele>
        <time>2016-12-27T23:14:50Z</time>
      </trkpt>
      <trkpt lat="43.71556" lon="3.45094">
        <ele>334.608</ele>
        <time>2016-12-27T23:15:10Z</time>
      </trkpt>
      <trkpt lat="43.71587" lon="3.4498">
        <ele>325.332</ele>
        <time>2016-12-27T23:15:30Z</time>
      </trkpt>
      <trkpt lat="43.71583" lon="3.44934">
        <ele>321.265</ele>
        <time>2016-12-27T23:15:50Z</time>
      </trkpt>
      <trkpt lat="43.71598" lon="3.4483">
        <ele>318.041</ele>
        <time>2016-12-27T23:16:10Z</time>
      </trkpt>
      <trkpt lat="43.71593" lon="3.44745">
        <ele>313.87</ele>
        <time>2016-12-27T23:16:30Z</time>
      </trkpt>
      <trkpt lat="43.71611" lon="3.44661">
        <ele>309.027</ele>
        <time>2016-12-27T23:16:50Z</time>
      </trkpt>
      <trkpt lat="43.71639" lon="3.44618">
        <ele>308.278</ele>
        <time>2016-12-27T23:17:10Z</time>
      </trkpt>
      <trkpt lat="43.71652" lon="3.44571">
        <ele>307.257</ele>
        <time>2016-12-27T23:17:30Z</time>
      </trkpt>
      <trkpt lat="43.7164" lon="3.44487">
        <ele>298.398</ele>
        <time>2016-12-27T23:17:50Z</time>
      </trkpt>
      <trkpt lat="43.71665" lon="3.44467">
        <ele>298.114</ele>
        <time>2016-12-27T23:18:10Z</time>
      </trkpt>
      <trkpt lat="43.71686" lon="3.44424">
        <ele>295.954</ele>
        <time>2016-12-27T23:18:30Z</time>
      </trkpt>
      <trkpt lat="43.71686" lon="3.44412">
        <ele>294.009</ele>
        <time>2016-12-27T23:18:50Z</time>
      </trkpt>
      <trkpt lat="43.71704" lon="3.44389">
        <ele>293.508</ele>
        <time>2016-12-27T23:19:10Z</time>
      </trkpt>
      <trkpt lat="43.71715" lon="3.44347">
        <ele>290.448</ele>
        <time>2016-12-27T23:19:30Z</time>
      </trkpt>
      <trkpt lat="43.71732" lon="3.44312">
        <ele>288.621</ele>
        <time>2016-12-27T23:19:50Z</time>
      </trkpt>
      <trkpt lat="43.71742" lon="3.4424">
        <ele>280.397</ele>
        <time>2016-12-27T23:20:10Z</time>
      </trkpt>
      <trkpt lat="43.71701" lon="3.44233">
        <ele>273.266</ele>
        <time>2016-12-27T23:20:30Z</time>
      </trkpt>
      <trkpt lat="43.717" lon="3.44206">
        <ele>269.143</ele>
        <time>2016-12-27T23:20:50Z</time>
      </trkpt>
      <trkpt lat="43.71758" lon="3.4418">
        <ele>271.614</ele>
        <time>2016-12-27T23:21:10Z</time>
      </trkpt>
      <trkpt lat="43.71747" lon="3.44163">
        <ele>267.173</ele>
        <time>2016-12-27T23:21:30Z</time>
      </trkpt>
      <trkpt lat="43.71703" lon="3.44142">
        <ele>256.954</ele>
        <time>2016-12-27T23:21:50Z</time>
      </trkpt>
      <trkpt lat="43.71648" lon="3.44148">
        <ele>252.097</ele>
        <time>2016-12-27T23:22:10Z</time>
      </trkpt>
      <trkpt lat="43.71645" lon="3.44136">
        <ele>250.523</ele>
        <time>2016-12-27T23:22:30Z</time>
      </trkpt>
      <trkpt lat="43.71674" lon="3.44128">
        <ele>252.225</ele>
        <time>2016-12-27T23:22:50Z</time>
      </trkpt>
      <trkpt lat="43.71698" lon="3.44108">
        <ele>250.008</ele>
        <time>2016-12-27T23:23:10Z</time>
      </trkpt>
      <trkpt lat="43.71731" lon="3.44098">
        <ele>248.276</ele>
        <time>2016-12-27T23:23:30Z</time>
      </trkpt>
      <trkpt lat="43.71754" lon="3.44083">
        <ele>245.259</ele>
        <time>2016-12-27T23:23:50Z</time>
      </trkpt>
      <trkpt lat="43.71785" lon="3.44076">
        <ele>245.755</ele>
        <time>2016-12-27T23:24:10Z</time>
      </trkpt>
      <trkpt lat="43.71788" lon="3.4406">
        <ele>242.654</ele>
        <time>2016-12-27T23:24:30Z</time>
      </trkpt>
      <trkpt lat="43.71762" lon="3.44054">
        <ele>240.381</ele>
        <time>2016-12-27T23:24:50Z</time>
      </trkpt>
      <trkpt lat="43.71728" lon="3.44012">
        <ele>233.582</ele>
        <time>2021-04-16T20:47:30Z</time>
      </trkpt>
      <trkpt lat="43.71768" lon="3.44033">
        <ele>239.751</ele>
        <time>2021-04-16T20:47:50Z</time>
      </trkpt>
      <trkpt lat="43.71776" lon="3.44025">
        <ele>239.462</ele>
        <time>2021-04-16T20:48:10Z</time>
      </trkpt>
      <trkpt lat="43.71769" lon="3.43996">
        <ele>234.855</ele>
        <time>2021-04-16T20:48:30Z</time>
      </trkpt>
      <trkpt lat="43.71773" lon="3.4397">
        <ele>234.107</ele>
        <time>2021-04-16T20:48:50Z</time>
      </trkpt>
      <trkpt lat="43.71789" lon="3.43957">
        <ele>235.417</ele>
        <time>2021-04-16T20:49:10Z</time>
      </trkpt>
      <trkpt lat="43.71776" lon="3.43939">
        <ele>233.008</ele>
        <time>2021-04-16T20:49:30Z</time>
      </trkpt>
      <trkpt lat="43.71762" lon="3.43937">
        <ele>231.432</ele>
        <time>2021-04-16T20:49:50Z</time>
      </trkpt>
      <trkpt lat="43.71748" lon="3.43902">
        <ele>228.175</ele>
        <time>2021-04-16T20:50:10Z</time>
      </trkpt>
      <trkpt lat="43.71745" lon="3.43863">
        <ele>228.351</ele>
        <time>2016-12-27T23:26:30Z</time>
      </trkpt>
      <trkpt lat="43.71755" lon="3.43827">
        <ele>223.63</ele>
        <time>2016-12-27T23:26:50Z</time>
      </trkpt>
      <trkpt lat="43.71755" lon="3.43799">
        <ele>219.287</ele>
        <time>2016-12-27T23:27:10Z</time>
      </trkpt>
      <trkpt lat="43.71764" lon="3.43773">
        <ele>217.828</ele>
        <time>2016-12-27T23:27:30Z</time>
      </trkpt>
      <trkpt lat="43.71763" lon="3.43747">
        <ele>216.097</ele>
        <time>2021-04-16T20:51:50Z</time>
      </trkpt>
      <trkpt lat="43.7175" lon="3.43701">
        <ele>210.258</ele>
        <time>2016-12-27T23:28:10Z</time>
      </trkpt>
      <trkpt lat="43.71748" lon="3.43655">
        <ele>204.565</ele>
        <time>2016-12-27T23:28:30Z</time>
      </trkpt>
      <trkpt lat="43.71711" lon="3.43611">
        <ele>201.668</ele>
        <time>2016-12-27T23:28:50Z</time>
      </trkpt>
      <trkpt lat="43.71693" lon="3.43563">
        <ele>201.014</ele>
        <time>2016-12-27T23:29:10Z</time>
      </trkpt>
      <trkpt lat="43.71682" lon="3.43513">
        <ele>200.008</ele>
        <time>2016-12-27T23:29:30Z</time>
      </trkpt>
      <trkpt lat="43.71686" lon="3.43455">
        <ele>199.633</ele>
        <time>2016-12-27T23:29:50Z</time>
      </trkpt>
      <trkpt lat="43.71612" lon="3.43386">
        <ele>195.956</ele>
        <time>2016-12-27T23:30:10Z</time>
      </trkpt>
      <trkpt lat="43.71622" lon="3.4335">
        <ele>194.262</ele>
        <time>2016-12-27T23:30:30Z</time>
      </trkpt>
      <trkpt lat="43.71588" lon="3.43312">
        <ele>192.291</ele>
        <time>2016-12-27T23:30:50Z</time>
      </trkpt>
      <trkpt lat="43.71593" lon="3.43247">
        <ele>188.258</ele>
        <time>2021-04-16T20:55:10Z</time>
      </trkpt>
      <trkpt lat="43.71647" lon="3.4317">
        <ele>187.019</ele>
        <time>2016-12-27T23:31:30Z</time>
      </trkpt>
      <trkpt lat="43.71708" lon="3.43112">
        <ele>181.138</ele>
        <time>2016-12-27T23:31:50Z</time>
      </trkpt>
      <trkpt lat="43.7167" lon="3.42976">
        <ele>181.069</ele>
        <time>2016-12-27T23:32:10Z</time>
      </trkpt>
      <trkpt lat="43.71619" lon="3.42946">
        <ele>182.562</ele>
        <time>2016-12-27T23:32:30Z</time>
      </trkpt>
      <trkpt lat="43.71627" lon="3.429">
        <ele>180.583</ele>
        <time>2016-12-27T23:32:50Z</time>
      </trkpt>
      <trkpt lat="43.71559" lon="3.42828">
        <ele>179.411</ele>
        <time>2016-12-27T23:33:10Z</time>
      </trkpt>
      <trkpt lat="43.71521" lon="3.42685">
        <ele>161.708</ele>
        <time>2016-12-27T23:33:30Z</time>
      </trkpt>
      <trkpt lat="43.71504" lon="3.42634">
        <ele>156.713</ele>
        <time>2016-12-27T23:33:50Z</time>
      </trkpt>
      <trkpt lat="43.71467" lon="3.42595">
        <ele>153.156</ele>
        <time>2016-12-27T23:34:10Z</time>
      </trkpt>
      <trkpt lat="43.71475" lon="3.42541">
        <ele>152.352</ele>
        <time>2016-12-27T23:34:30Z</time>
      </trkpt>
      <trkpt lat="43.71471" lon="3.42417">
        <ele>155.071</ele>
        <time>2016-12-27T23:34:50Z</time>
      </trkpt>
      <trkpt lat="43.71471" lon="3.42313">
        <ele>162.518</ele>
        <time>2016-12-27T23:35:10Z</time>
      </trkpt>
      <trkpt lat="43.71445" lon="3.4213">
        <ele>170.899</ele>
        <time>2021-04-16T20:59:30Z</time>
      </trkpt>
      <trkpt lat="43.71304" lon="3.4187">
        <ele>167.078</ele>
        <time>2021-04-16T20:59:50Z</time>
      </trkpt>
      <trkpt lat="43.71329" lon="3.41845">
        <ele>167.059</ele>
        <time>2021-04-16T21:00:10Z</time>
      </trkpt>
      <trkpt lat="43.71331" lon="3.41831">
        <ele>166.927</ele>
        <time>2021-04-16T21:00:30Z</time>
      </trkpt>
      <trkpt lat="43.71253" lon="3.41685">
        <ele>160.368</ele>
        <time>2021-04-16T21:00:50Z</time>
      </trkpt>
      <trkpt lat="43.71257" lon="3.4155">
        <ele>159.214</ele>
        <time>2021-04-16T21:01:10Z</time>
      </trkpt>
      <trkpt lat="43.71186" lon="3.41472">
        <ele>152.708</ele>
        <time>2021-04-16T21:01:30Z</time>
      </trkpt>
      <trkpt lat="43.71166" lon="3.41464">
        <ele>152.069</ele>
        <time>2021-04-16T21:01:50Z</time>
      </trkpt>
      <trkpt lat="43.71119" lon="3.41357">
        <ele>154.992</ele>
        <time>2021-04-16T21:02:10Z</time>
      </trkpt>
      <trkpt lat="43.71115" lon="3.41322">
        <ele>157.328</ele>
        <time>2021-04-16T21:02:30Z</time>
      </trkpt>
      <trkpt lat="43.71148" lon="3.41324">
        <ele>158.347</ele>
        <time>2021-04-16T21:02:50Z</time>
      </trkpt>
      <trkpt lat="43.71177" lon="3.41316">
        <ele>160.164</ele>
        <time>2021-04-16T21:03:10Z</time>
      </trkpt>
      <trkpt lat="43.71222" lon="3.41292">
        <ele>164.125</ele>
        <time>2021-04-16T21:03:30Z</time>
      </trkpt>
      <trkpt lat="43.71254" lon="3.41299">
        <ele>164.154</ele>
        <time>2021-04-16T21:03:50Z</time>
      </trkpt>
      <trkpt lat="43.71298" lon="3.41278">
        <ele>165.345</ele>
        <time>2021-04-16T21:04:10Z</time>
      </trkpt>
      <trkpt lat="43.71364" lon="3.41221">
        <ele>170.083</ele>
        <time>2021-04-16T21:04:30Z</time>
      </trkpt>
      <trkpt lat="43.71382" lon="3.41194">
        <ele>172.125</ele>
        <time>2021-04-16T21:04:50Z</time>
      </trkpt>
      <trkpt lat="43.71396" lon="3.41195">
        <ele>171.217</ele>
        <time>2021-04-16T21:05:10Z</time>
      </trkpt>
      <trkpt lat="43.71393" lon="3.41234">
        <ele>167.708</ele>
        <time>2021-04-16T21:05:30Z</time>
      </trkpt>
      <trkpt lat="43.71397" lon="3.41261">
        <ele>165.415</ele>
        <time>2021-04-16T21:05:50Z</time>
      </trkpt>
      <trkpt lat="43.71413" lon="3.41275">
        <ele>164.258</ele>
        <time>2021-04-16T21:06:10Z</time>
      </trkpt>
      <trkpt lat="43.71501" lon="3.41282">
        <ele>170.254</ele>
        <time>2021-04-16T21:06:30Z</time>
      </trkpt>
      <trkpt lat="43.71532" lon="3.41303">
        <ele>168.713</ele>
        <time>2021-04-16T21:06:50Z</time>
      </trkpt>
      <trkpt lat="43.71583" lon="3.41301">
        <ele>170.47</ele>
        <time>2021-04-16T21:07:10Z</time>
      </trkpt>
      <trkpt lat="43.71635" lon="3.41305">
        <ele>170.161</ele>
        <time>2021-04-16T21:07:30Z</time>
      </trkpt>
      <trkpt lat="43.71703" lon="3.41289">
        <ele>170.99</ele>
        <time>2021-04-16T21:07:50Z</time>
      </trkpt>
      <trkpt lat="43.71725" lon="3.4129">
        <ele>170.271</ele>
        <time>2021-04-16T21:08:10Z</time>
      </trkpt>
      <trkpt lat="43.71761" lon="3.41275">
        <ele>170.512</ele>
        <time>2021-04-16T21:08:30Z</time>
      </trkpt>
      <trkpt lat="43.71796" lon="3.41253">
        <ele>170.632</ele>
        <time>2021-04-16T21:08:50Z</time>
      </trkpt>
      <trkpt lat="43.71819" lon="3.41249">
        <ele>169.905</ele>
        <time>2021-04-16T21:09:10Z</time>
      </trkpt>
      <trkpt lat="43.71853" lon="3.41223">
        <ele>173.908</ele>
        <time>2021-04-16T21:09:30Z</time>
      </trkpt>
      <trkpt lat="43.71883" lon="3.41224">
        <ele>173.928</ele>
        <time>2021-04-16T21:09:50Z</time>
      </trkpt>
      <trkpt lat="43.71913" lon="3.41205">
        <ele>177.081</ele>
        <time>2021-04-16T21:10:10Z</time>
      </trkpt>
      <trkpt lat="43.71914" lon="3.4119">
        <ele>179.317</ele>
        <time>2021-04-16T21:10:30Z</time>
      </trkpt>
      <trkpt lat="43.71965" lon="3.41104">
        <ele>183.966</ele>
        <time>2016-12-27T23:39:50Z</time>
      </trkpt>
      <trkpt lat="43.71969" lon="3.41061">
        <ele>189.943</ele>
        <time>2016-12-27T23:40:10Z</time>
      </trkpt>
      <trkpt lat="43.71972" lon="3.4099">
        <ele>201.854</ele>
        <time>2016-12-27T23:40:30Z</time>
      </trkpt>
      <trkpt lat="43.72048" lon="3.40871">
        <ele>217.973</ele>
        <time>2016-12-27T23:40:50Z</time>
      </trkpt>
      <trkpt lat="43.72131" lon="3.40775">
        <ele>226.034</ele>
        <time>2016-12-27T23:41:10Z</time>
      </trkpt>
      <trkpt lat="43.72152" lon="3.4071">
        <ele>230.039</ele>
        <time>2016-12-27T23:41:30Z</time>
      </trkpt>
      <trkpt lat="43.72144" lon="3.40642">
        <ele>230.001</ele>
        <time>2016-12-27T23:41:50Z</time>
      </trkpt>
      <trkpt lat="43.72181" lon="3.40621">
        <ele>226.821</ele>
        <time>2016-12-27T23:42:10Z</time>
      </trkpt>
      <trkpt lat="43.72194" lon="3.40585">
        <ele>217.408</ele>
        <time>2016-12-27T23:42:30Z</time>
      </trkpt>
      <trkpt lat="43.72229" lon="3.40567">
        <ele>210.66</ele>
        <time>2016-12-27T23:42:50Z</time>
      </trkpt>
      <trkpt lat="43.72279" lon="3.40578">
        <ele>200.823</ele>
        <time>2016-12-27T23:43:10Z</time>
      </trkpt>
      <trkpt lat="43.72298" lon="3.40591">
        <ele>201.099</ele>
        <time>2016-12-27T23:43:30Z</time>
      </trkpt>
      <trkpt lat="43.72389" lon="3.40499">
        <ele>212.358</ele>
        <time>2016-12-27T23:43:50Z</time>
      </trkpt>
      <trkpt lat="43.72374" lon="3.40485">
        <ele>212.085</ele>
        <time>2021-04-16T21:15:10Z</time>
      </trkpt>
      <trkpt lat="43.72361" lon="3.40449">
        <ele>222.696</ele>
        <time>2016-12-27T23:44:10Z</time>
      </trkpt>
      <trkpt lat="43.72309" lon="3.4039">
        <ele>234.615</ele>
        <time>2016-12-27T23:44:30Z</time>
      </trkpt>
      <trkpt lat="43.72301" lon="3.40353">
        <ele>240.056</ele>
        <time>2016-12-27T23:44:50Z</time>
      </trkpt>
      <trkpt lat="43.72284" lon="3.4035">
        <ele>240.079</ele>
        <time>2016-12-27T23:45:10Z</time>
      </trkpt>
      <trkpt lat="43.72291" lon="3.40298">
        <ele>240.205</ele>
        <time>2016-12-27T23:45:30Z</time>
      </trkpt>
      <trkpt lat="43.72329" lon="3.40261">
        <ele>241.825</ele>
        <time>2016-12-27T23:45:50Z</time>
      </trkpt>
      <trkpt lat="43.72343" lon="3.40229">
        <ele>243.608</ele>
        <time>2021-04-16T21:17:30Z</time>
      </trkpt>
      <trkpt lat="43.72382" lon="3.40141">
        <ele>252.814</ele>
        <time>2016-12-27T23:46:30Z</time>
      </trkpt>
      <trkpt lat="43.72417" lon="3.40114">
        <ele>259.257</ele>
        <time>2016-12-27T23:46:50Z</time>
      </trkpt>
      <trkpt lat="43.72469" lon="3.4009">
        <ele>265.723</ele>
        <time>2016-12-27T23:47:10Z</time>
      </trkpt>
      <trkpt lat="43.72532" lon="3.40011">
        <ele>270.142</ele>
        <time>2016-12-27T23:47:30Z</time>
      </trkpt>
      <trkpt lat="43.72569" lon="3.39969">
        <ele>276.379</ele>
        <time>2016-12-27T23:47:50Z</time>
      </trkpt>
      <trkpt lat="43.72593" lon="3.39906">
        <ele>286.06</ele>
        <time>2016-12-27T23:48:10Z</time>
      </trkpt>
      <trkpt lat="43.72594" lon="3.3986">
        <ele>285.889</ele>
        <time>2016-12-27T23:48:30Z</time>
      </trkpt>
      <trkpt lat="43.72696" lon="3.39769">
        <ele>306.21</ele>
        <time>2016-12-27T23:48:50Z</time>
      </trkpt>
      <trkpt lat="43.72735" lon="3.3977">
        <ele>311.381</ele>
        <time>2016-12-27T23:49:10Z</time>
      </trkpt>
      <trkpt lat="43.72777" lon="3.39753">
        <ele>318.661</ele>
        <time>2021-04-16T21:20:50Z</time>
      </trkpt>
      <trkpt lat="43.72848" lon="3.39693">
        <ele>327.917</ele>
        <time>2016-12-27T23:49:50Z</time>
      </trkpt>
      <trkpt lat="43.73004" lon="3.39635">
        <ele>340.208</ele>
        <time>2016-12-27T23:50:10Z</time>
      </trkpt>
      <trkpt lat="43.73047" lon="3.39544">
        <ele>347.155</ele>
        <time>2016-12-27T23:50:30Z</time>
      </trkpt>
      <trkpt lat="43.7306" lon="3.39437">
        <ele>358.328</ele>
        <time>2016-12-27T23:50:50Z</time>
      </trkpt>
      <trkpt lat="43.73075" lon="3.39424">
        <ele>362.524</ele>
        <time>2016-12-27T23:51:10Z</time>
      </trkpt>
      <trkpt lat="43.73101" lon="3.3943">
        <ele>367.863</ele>
        <time>2016-12-27T23:51:30Z</time>
      </trkpt>
      <trkpt lat="43.73132" lon="3.39446">
        <ele>364.09</ele>
        <time>2021-04-16T21:23:10Z</time>
      </trkpt>
      <trkpt lat="43.73178" lon="3.39426">
        <ele>374.331</ele>
        <time>2016-12-27T23:52:10Z</time>
      </trkpt>
      <trkpt lat="43.73214" lon="3.3938">
        <ele>381.39</ele>
        <time>2016-12-27T23:52:30Z</time>
      </trkpt>
      <trkpt lat="43.73268" lon="3.39274">
        <ele>402.621</ele>
        <time>2016-12-27T23:52:50Z</time>
      </trkpt>
      <trkpt lat="43.73303" lon="3.3919">
        <ele>414.227</ele>
        <time>2016-12-27T23:53:10Z</time>
      </trkpt>
      <trkpt lat="43.73346" lon="3.39139">
        <ele>421.068</ele>
        <time>2016-12-27T23:53:30Z</time>
      </trkpt>
      <trkpt lat="43.7337" lon="3.39091">
        <ele>424.614</ele>
        <time>2016-12-27T23:53:50Z</time>
      </trkpt>
      <trkpt lat="43.734" lon="3.39087">
        <ele>426.308</ele>
        <time>2016-12-27T23:54:10Z</time>
      </trkpt>
      <trkpt lat="43.73386" lon="3.39077">
        <ele>426.999</ele>
        <time>2016-12-27T23:54:30Z</time>
      </trkpt>
      <trkpt lat="43.73337" lon="3.39077">
        <ele>424.382</ele>
        <time>2016-12-27T23:54:50Z</time>
      </trkpt>
      <trkpt lat="43.73307" lon="3.39049">
        <ele>424.368</ele>
        <time>2016-12-27T23:55:10Z</time>
      </trkpt>
      <trkpt lat="43.73525" lon="3.3861">
        <ele>440.077</ele>
        <time>2016-12-27T23:55:30Z</time>
      </trkpt>
      <trkpt lat="43.73581" lon="3.38475">
        <ele>438.174</ele>
        <time>2016-12-27T23:55:50Z</time>
      </trkpt>
      <trkpt lat="43.73638" lon="3.3839">
        <ele>432.135</ele>
        <time>2016-12-27T23:56:10Z</time>
      </trkpt>
      <trkpt lat="43.73688" lon="3.38296">
        <ele>430.044</ele>
        <time>2016-12-27T23:56:30Z</time>
      </trkpt>
      <trkpt lat="43.73761" lon="3.38231">
        <ele>424.335</ele>
        <time>2016-12-27T23:56:50Z</time>
      </trkpt>
      <trkpt lat="43.73778" lon="3.38156">
        <ele>420.749</ele>
        <time>2016-12-27T23:57:10Z</time>
      </trkpt>
      <trkpt lat="43.73828" lon="3.37946">
        <ele>424.402</ele>
        <time>2021-04-16T21:28:50Z</time>
      </trkpt>
      <trkpt lat="43.73849" lon="3.37909">
        <ele>419.422</ele>
        <time>2016-12-27T23:57:50Z</time>
      </trkpt>
      <trkpt lat="43.73849" lon="3.37855">
        <ele>421.608</ele>
        <time>2016-12-27T23:58:10Z</time>
      </trkpt>
      <trkpt lat="43.73839" lon="3.37849">
        <ele>421.411</ele>
        <time>2016-12-27T23:58:30Z</time>
      </trkpt>
      <trkpt lat="43.73834" lon="3.37849">
        <ele>420.934</ele>
        <time>2016-12-27T23:58:50Z</time>
      </trkpt>
      <trkpt lat="43.73803" lon="3.37884">
        <ele>418.05</ele>
        <time>2016-12-27T23:59:10Z</time>
      </trkpt>
      <trkpt lat="43.73733" lon="3.37914">
        <ele>418.999</ele>
        <time>2016-12-27T23:59:30Z</time>
      </trkpt>
      <trkpt lat="43.73662" lon="3.37913">
        <ele>412.586</ele>
        <time>2016-12-28T00:00:10Z</time>
      </trkpt>
      <trkpt lat="43.73637" lon="3.37885">
        <ele>417.397</ele>
        <time>2016-12-28T00:00:30Z</time>
      </trkpt>
      <trkpt lat="43.736" lon="3.37866">
        <ele>415.046</ele>
        <time>2016-12-28T00:00:50Z</time>
      </trkpt>
      <trkpt lat="43.73575" lon="3.37816">
        <ele>413.587</ele>
        <time>2016-12-28T00:01:10Z</time>
      </trkpt>
      <trkpt lat="43.73603" lon="3.37724">
        <ele>413.052</ele>
        <time>2016-12-28T00:01:30Z</time>
      </trkpt>
      <trkpt lat="43.73606" lon="3.37662">
        <ele>412.953</ele>
        <time>2016-12-28T00:01:50Z</time>
      </trkpt>
      <trkpt lat="43.73524" lon="3.37538">
        <ele>418.808</ele>
        <time>2016-12-28T00:02:10Z</time>
      </trkpt>
      <trkpt lat="43.73516" lon="3.37501">
        <ele>422.908</ele>
        <time>2016-12-28T00:02:30Z</time>
      </trkpt>
      <trkpt lat="43.73472" lon="3.37448">
        <ele>426.742</ele>
        <time>2016-12-28T00:02:50Z</time>
      </trkpt>
      <trkpt lat="43.73483" lon="3.37405">
        <ele>430.045</ele>
        <time>2016-12-28T00:04:10Z</time>
      </trkpt>
      <trkpt lat="43.73481" lon="3.37381">
        <ele>430.081</ele>
        <time>2016-12-28T00:04:30Z</time>
      </trkpt>
      <trkpt lat="43.73513" lon="3.3736">
        <ele>430.09</ele>
        <time>2016-12-28T00:04:50Z</time>
      </trkpt>
      <trkpt lat="43.73534" lon="3.37296">
        <ele>429.017</ele>
        <time>2016-12-28T00:05:10Z</time>
      </trkpt>
      <trkpt lat="43.73437" lon="3.37071">
        <ele>425.088</ele>
        <time>2016-12-28T00:05:30Z</time>
      </trkpt>
      <trkpt lat="43.73507" lon="3.37125">
        <ele>422.227</ele>
        <time>2016-12-28T00:05:50Z</time>
      </trkpt>
      <trkpt lat="43.73637" lon="3.37208">
        <ele>410.328</ele>
        <time>2016-12-28T00:06:10Z</time>
      </trkpt>
      <trkpt lat="43.73674" lon="3.37164">
        <ele>403.987</ele>
        <time>2016-12-28T00:06:30Z</time>
      </trkpt>
      <trkpt lat="43.73793" lon="3.37122">
        <ele>397.142</ele>
        <time>2016-12-28T00:06:50Z</time>
      </trkpt>
      <trkpt lat="43.73838" lon="3.37094">
        <ele>400.326</ele>
        <time>2016-12-28T00:07:10Z</time>
      </trkpt>
      <trkpt lat="43.73834" lon="3.37079">
        <ele>401.408</ele>
        <time>2016-12-28T00:07:30Z</time>
      </trkpt>
      <trkpt lat="43.73784" lon="3.37064">
        <ele>400.215</ele>
        <time>2016-12-28T00:07:50Z</time>
      </trkpt>
      <trkpt lat="43.73723" lon="3.37008">
        <ele>402.798</ele>
        <time>2016-12-28T00:08:10Z</time>
      </trkpt>
      <trkpt lat="43.73705" lon="3.36887">
        <ele>411.544</ele>
        <time>2016-12-28T00:08:30Z</time>
      </trkpt>
      <trkpt lat="43.73679" lon="3.36834">
        <ele>409.163</ele>
        <time>2016-12-28T00:08:50Z</time>
      </trkpt>
      <trkpt lat="43.73683" lon="3.36807">
        <ele>409.43</ele>
        <time>2016-12-28T00:09:10Z</time>
      </trkpt>
      <trkpt lat="43.73769" lon="3.36736">
        <ele>408.531</ele>
        <time>2016-12-28T00:09:30Z</time>
      </trkpt>
      <trkpt lat="43.73735" lon="3.36662">
        <ele>407.72</ele>
        <time>2016-12-28T00:09:50Z</time>
      </trkpt>
      <trkpt lat="43.73719" lon="3.36573">
        <ele>411.711</ele>
        <time>2016-12-28T00:10:10Z</time>
      </trkpt>
      <trkpt lat="43.73668" lon="3.36418">
        <ele>410.091</ele>
        <time>2016-12-28T00:10:30Z</time>
      </trkpt>
      <trkpt lat="43.73718" lon="3.36336">
        <ele>405.781</ele>
        <time>2016-12-28T00:10:50Z</time>
      </trkpt>
      <trkpt lat="43.73802" lon="3.36253">
        <ele>399.919</ele>
        <time>2016-12-28T00:11:10Z</time>
      </trkpt>
      <trkpt lat="43.73846" lon="3.36262">
        <ele>402.308</ele>
        <time>2016-12-28T00:11:30Z</time>
      </trkpt>
      <trkpt lat="43.73849" lon="3.36239">
        <ele>404.146</ele>
        <time>2016-12-28T00:11:50Z</time>
      </trkpt>
      <trkpt lat="43.73745" lon="3.36096">
        <ele>408.049</ele>
        <time>2016-12-28T00:12:10Z</time>
      </trkpt>
      <trkpt lat="43.73713" lon="3.35984">
        <ele>404.135</ele>
        <time>2016-12-28T00:12:30Z</time>
      </trkpt>
      <trkpt lat="43.73686" lon="3.35949">
        <ele>400.064</ele>
        <time>2021-04-16T21:42:50Z</time>
      </trkpt>
      <trkpt lat="43.73689" lon="3.35856">
        <ele>399.771</ele>
        <time>2016-12-28T00:13:10Z</time>
      </trkpt>
      <trkpt lat="43.73666" lon="3.35836">
        <ele>400.622</ele>
        <time>2016-12-28T00:13:30Z</time>
      </trkpt>
      <trkpt lat="43.73624" lon="3.35871">
        <ele>402.571</ele>
        <time>2016-12-28T00:13:50Z</time>
      </trkpt>
      <trkpt lat="43.73593" lon="3.35848">
        <ele>409.412</ele>
        <time>2016-12-28T00:14:10Z</time>
      </trkpt>
      <trkpt lat="43.73546" lon="3.35845">
        <ele>414.344</ele>
        <time>2016-12-28T00:14:30Z</time>
      </trkpt>
      <trkpt lat="43.73519" lon="3.35813">
        <ele>415.705</ele>
        <time>2016-12-28T00:14:50Z</time>
      </trkpt>
      <trkpt lat="43.73479" lon="3.35716">
        <ele>417.115</ele>
        <time>2016-12-28T00:15:10Z</time>
      </trkpt>
      <trkpt lat="43.73428" lon="3.35644">
        <ele>418.408</ele>
        <time>2016-12-28T00:15:30Z</time>
      </trkpt>
      <trkpt lat="43.73401" lon="3.35558">
        <ele>421.341</ele>
        <time>2016-12-28T00:15:50Z</time>
      </trkpt>
      <trkpt lat="43.73342" lon="3.35534">
        <ele>419.494</ele>
        <time>2016-12-28T00:16:10Z</time>
      </trkpt>
      <trkpt lat="43.73299" lon="3.35503">
        <ele>419.25</ele>
        <time>2016-12-28T00:16:30Z</time>
      </trkpt>
      <trkpt lat="43.73226" lon="3.35536">
        <ele>425.569</ele>
        <time>2016-12-28T00:16:50Z</time>
      </trkpt>
      <trkpt lat="43.73172" lon="3.35515">
        <ele>424.346</ele>
        <time>2016-12-28T00:53:10Z</time>
      </trkpt>
      <trkpt lat="43.73021" lon="3.35421">
        <ele>420.857</ele>
        <time>2016-12-28T00:53:30Z</time>
      </trkpt>
      <trkpt lat="43.73004" lon="3.35425">
        <ele>420.736</ele>
        <time>2016-12-28T00:53:50Z</time>
      </trkpt>
      <trkpt lat="43.72962" lon="3.35367">
        <ele>422.377</ele>
        <time>2021-04-16T21:48:10Z</time>
      </trkpt>
      <trkpt lat="43.72955" lon="3.35265">
        <ele>427.511</ele>
        <time>2021-04-16T21:48:30Z</time>
      </trkpt>
      <trkpt lat="43.7294" lon="3.35242">
        <ele>430.021</ele>
        <time>2016-12-28T00:55:10Z</time>
      </trkpt>
      <trkpt lat="43.729" lon="3.35241">
        <ele>429.403</ele>
        <time>2016-12-28T00:55:30Z</time>
      </trkpt>
      <trkpt lat="43.72834" lon="3.35264">
        <ele>421.108</ele>
        <time>2016-12-28T00:55:50Z</time>
      </trkpt>
      <trkpt lat="43.72813" lon="3.35221">
        <ele>413.378</ele>
        <time>2016-12-28T00:56:10Z</time>
      </trkpt>
      <trkpt lat="43.72777" lon="3.35244">
        <ele>405.571</ele>
        <time>2016-12-28T00:56:30Z</time>
      </trkpt>
      <trkpt lat="43.7279" lon="3.35175">
        <ele>405.077</ele>
        <time>2016-12-28T00:56:50Z</time>
      </trkpt>
      <trkpt lat="43.72888" lon="3.35117">
        <ele>406.796</ele>
        <time>2016-12-28T00:57:10Z</time>
      </trkpt>
      <trkpt lat="43.72932" lon="3.3503">
        <ele>407.413</ele>
        <time>2016-12-28T00:57:30Z</time>
      </trkpt>
      <trkpt lat="43.72949" lon="3.34973">
        <ele>406.664</ele>
        <time>2016-12-28T00:57:50Z</time>
      </trkpt>
      <trkpt lat="43.73" lon="3.34866">
        <ele>411.433</ele>
        <time>2016-12-28T00:58:10Z</time>
      </trkpt>
      <trkpt lat="43.73045" lon="3.34811">
        <ele>414.754</ele>
        <time>2021-04-16T21:52:10Z</time>
      </trkpt>
      <trkpt lat="43.73065" lon="3.34745">
        <ele>415.642</ele>
        <time>2021-04-16T21:52:30Z</time>
      </trkpt>
      <trkpt lat="43.73068" lon="3.34659">
        <ele>413.822</ele>
        <time>2021-04-16T21:52:50Z</time>
      </trkpt>
      <trkpt lat="43.73113" lon="3.3454">
        <ele>418.514</ele>
        <time>2021-04-16T21:53:10Z</time>
      </trkpt>
      <trkpt lat="43.73125" lon="3.34413">
        <ele>422.108</ele>
        <time>2016-12-28T00:59:50Z</time>
      </trkpt>
      <trkpt lat="43.73094" lon="3.34374">
        <ele>421.511</ele>
        <time>2016-12-28T01:00:10Z</time>
      </trkpt>
      <trkpt lat="43.73046" lon="3.34253">
        <ele>421.264</ele>
        <time>2016-12-28T01:00:30Z</time>
      </trkpt>
      <trkpt lat="43.73021" lon="3.34129">
        <ele>420.74</ele>
        <time>2016-12-28T01:00:50Z</time>
      </trkpt>
      <trkpt lat="43.7301" lon="3.34021">
        <ele>420.019</ele>
        <time>2016-12-28T01:01:10Z</time>
      </trkpt>
      <trkpt lat="43.72944" lon="3.33919">
        <ele>420.076</ele>
        <time>2016-12-28T01:01:30Z</time>
      </trkpt>
      <trkpt lat="43.72846" lon="3.33791">
        <ele>419.787</ele>
        <time>2016-12-28T01:01:50Z</time>
      </trkpt>
      <trkpt lat="43.72809" lon="3.33776">
        <ele>415.636</ele>
        <time>2016-12-28T01:02:10Z</time>
      </trkpt>
      <trkpt lat="43.72757" lon="3.33709">
        <ele>412.047</ele>
        <time>2016-12-28T01:02:30Z</time>
      </trkpt>
      <trkpt lat="43.72703" lon="3.33701">
        <ele>411.382</ele>
        <time>2016-12-28T01:02:50Z</time>
      </trkpt>
      <trkpt lat="43.72563" lon="3.33636">
        <ele>420.043</ele>
        <time>2016-12-28T01:03:10Z</time>
      </trkpt>
      <trkpt lat="43.72494" lon="3.33609">
        <ele>414.117</ele>
        <time>2016-12-28T01:03:30Z</time>
      </trkpt>
      <trkpt lat="43.72404" lon="3.33545">
        <ele>398.308</ele>
        <time>2016-12-28T01:03:50Z</time>
      </trkpt>
      <trkpt lat="43.72334" lon="3.33457">
        <ele>379.945</ele>
        <time>2016-12-28T01:04:10Z</time>
      </trkpt>
      <trkpt lat="43.72214" lon="3.33404">
        <ele>375.738</ele>
        <time>2016-12-28T01:04:30Z</time>
      </trkpt>
      <trkpt lat="43.72154" lon="3.33384">
        <ele>374.314</ele>
        <time>2016-12-28T01:04:50Z</time>
      </trkpt>
      <trkpt lat="43.72094" lon="3.33316">
        <ele>370.863</ele>
        <time>2016-12-28T01:05:10Z</time>
      </trkpt>
      <trkpt lat="43.72068" lon="3.33265">
        <ele>369.56</ele>
        <time>2016-12-28T01:05:30Z</time>
      </trkpt>
      <trkpt lat="43.72025" lon="3.33213">
        <ele>365.951</ele>
        <time>2016-12-28T01:05:50Z</time>
      </trkpt>
      <trkpt lat="43.72057" lon="3.33173">
        <ele>365.24</ele>
        <time>2016-12-28T01:06:10Z</time>
      </trkpt>
      <trkpt lat="43.72052" lon="3.33134">
        <ele>361.591</ele>
        <time>2021-04-16T22:00:10Z</time>
      </trkpt>
      <trkpt lat="43.7207" lon="3.33079">
        <ele>356.567</ele>
        <time>2021-04-16T22:00:30Z</time>
      </trkpt>
      <trkpt lat="43.721" lon="3.33024">
        <ele>341.581</ele>
        <time>2021-04-16T22:00:50Z</time>
      </trkpt>
      <trkpt lat="43.72137" lon="3.33026">
        <ele>337.219</ele>
        <time>2016-12-28T01:07:30Z</time>
      </trkpt>
      <trkpt lat="43.72166" lon="3.33042">
        <ele>333.808</ele>
        <time>2016-12-28T01:07:50Z</time>
      </trkpt>
      <trkpt lat="43.72186" lon="3.33035">
        <ele>324.843</ele>
        <time>2016-12-28T01:08:10Z</time>
      </trkpt>
      <trkpt lat="43.72223" lon="3.33079">
        <ele>317.826</ele>
        <time>2021-04-16T22:02:10Z</time>
      </trkpt>
      <trkpt lat="43.72233" lon="3.33045">
        <ele>305.932</ele>
        <time>2016-12-28T01:08:50Z</time>
      </trkpt>
      <trkpt lat="43.72306" lon="3.33107">
        <ele>288.761</ele>
        <time>2016-12-28T01:09:10Z</time>
      </trkpt>
      <trkpt lat="43.72331" lon="3.33103">
        <ele>281.358</ele>
        <time>2016-12-28T01:09:30Z</time>
      </trkpt>
      <trkpt lat="43.72352" lon="3.33052">
        <ele>273.369</ele>
        <time>2016-12-28T01:09:50Z</time>
      </trkpt>
      <trkpt lat="43.72345" lon="3.32988">
        <ele>261.448</ele>
        <time>2016-12-28T01:10:10Z</time>
      </trkpt>
      <trkpt lat="43.72363" lon="3.32781">
        <ele>247.179</ele>
        <time>2016-12-28T01:10:30Z</time>
      </trkpt>
      <trkpt lat="43.72354" lon="3.32678">
        <ele>239.791</ele>
        <time>2016-12-28T01:10:50Z</time>
      </trkpt>
      <trkpt lat="43.72341" lon="3.32651">
        <ele>231.981</ele>
        <time>2016-12-28T01:11:10Z</time>
      </trkpt>
      <trkpt lat="43.7237" lon="3.32625">
        <ele>229.319</ele>
        <time>2016-12-28T01:11:30Z</time>
      </trkpt>
      <trkpt lat="43.72458" lon="3.32589">
        <ele>222.908</ele>
        <time>2016-12-28T01:11:50Z</time>
      </trkpt>
      <trkpt lat="43.72524" lon="3.32594">
        <ele>227.396</ele>
        <time>2016-12-28T01:12:10Z</time>
      </trkpt>
      <trkpt lat="43.72545" lon="3.32555">
        <ele>212.179</ele>
        <time>2016-12-28T01:12:30Z</time>
      </trkpt>
      <trkpt lat="43.72578" lon="3.32556">
        <ele>208.135</ele>
        <time>2016-12-28T01:12:50Z</time>
      </trkpt>
      <trkpt lat="43.72618" lon="3.3252">
        <ele>196.034</ele>
        <time>2016-12-28T01:13:10Z</time>
      </trkpt>
      <trkpt lat="43.72651" lon="3.32505">
        <ele>195.241</ele>
        <time>2016-12-28T01:13:30Z</time>
      </trkpt>
      <trkpt lat="43.7267" lon="3.32473">
        <ele>185.682</ele>
        <time>2016-12-28T01:13:50Z</time>
      </trkpt>
      <trkpt lat="43.72698" lon="3.32458">
        <ele>180.341</ele>
        <time>2016-12-28T01:14:10Z</time>
      </trkpt>
      <trkpt lat="43.72688" lon="3.32446">
        <ele>175.182</ele>
        <time>2016-12-28T01:14:30Z</time>
      </trkpt>
      <trkpt lat="43.72736" lon="3.32449">
        <ele>170.926</ele>
        <time>2016-12-28T01:14:50Z</time>
      </trkpt>
      <trkpt lat="43.72802" lon="3.32481">
        <ele>171.247</ele>
        <time>2016-12-28T01:15:10Z</time>
      </trkpt>
      <trkpt lat="43.72909" lon="3.32507">
        <ele>173.111</ele>
        <time>2021-04-16T22:09:10Z</time>
      </trkpt>
      <trkpt lat="43.72939" lon="3.3249">
        <ele>167.908</ele>
        <time>2021-04-16T22:09:30Z</time>
      </trkpt>
      <trkpt lat="43.72947" lon="3.32464">
        <ele>157.239</ele>
        <time>2016-12-28T01:16:10Z</time>
      </trkpt>
      <trkpt lat="43.73002" lon="3.32423">
        <ele>156.672</ele>
        <time>2016-12-28T01:16:30Z</time>
      </trkpt>
      <trkpt lat="43.73109" lon="3.32402">
        <ele>157.878</ele>
        <time>2016-12-28T01:16:50Z</time>
      </trkpt>
      <trkpt lat="43.73092" lon="3.32133">
        <ele>162.387</ele>
        <time>2016-12-28T01:17:10Z</time>
      </trkpt>
      <trkpt lat="43.731" lon="3.32089">
        <ele>163.194</ele>
        <time>2016-12-28T01:17:30Z</time>
      </trkpt>
      <trkpt lat="43.73097" lon="3.32043">
        <ele>171.425</ele>
        <time>2021-04-16T22:11:30Z</time>
      </trkpt>
      <trkpt lat="43.7313" lon="3.31927">
        <ele>168.254</ele>
        <time>2016-12-28T01:18:10Z</time>
      </trkpt>
      <trkpt lat="43.7301" lon="3.31853">
        <ele>160.725</ele>
        <time>2016-12-28T01:18:30Z</time>
      </trkpt>
      <trkpt lat="43.73003" lon="3.31791">
        <ele>161.029</ele>
        <time>2016-12-28T01:18:50Z</time>
      </trkpt>
      <trkpt lat="43.7296" lon="3.31734">
        <ele>169.1</ele>
        <time>2016-12-28T01:19:10Z</time>
      </trkpt>
      <trkpt lat="43.72944" lon="3.31611">
        <ele>169.02</ele>
        <time>2016-12-28T01:19:30Z</time>
      </trkpt>
      <trkpt lat="43.72955" lon="3.31465">
        <ele>172.408</ele>
        <time>2016-12-28T01:19:50Z</time>
      </trkpt>
      <trkpt lat="43.72986" lon="3.31347">
        <ele>173.379</ele>
        <time>2016-12-28T01:20:10Z</time>
      </trkpt>
      <trkpt lat="43.73016" lon="3.31239">
        <ele>174.652</ele>
        <time>2016-12-28T01:20:30Z</time>
      </trkpt>
      <trkpt lat="43.73018" lon="3.31148">
        <ele>186.418</ele>
        <time>2021-04-16T22:14:30Z</time>
      </trkpt>
      <trkpt lat="43.73011" lon="3.31048">
        <ele>187.687</ele>
        <time>2021-04-16T22:14:50Z</time>
      </trkpt>
      <trkpt lat="43.72984" lon="3.30948">
        <ele>194.054</ele>
        <time>2021-04-16T22:15:10Z</time>
      </trkpt>
      <trkpt lat="43.73" lon="3.30828">
        <ele>191.525</ele>
        <time>2021-04-16T22:15:30Z</time>
      </trkpt>
      <trkpt lat="43.72986" lon="3.30731">
        <ele>196.834</ele>
        <time>2016-12-28T01:22:10Z</time>
      </trkpt>
      <trkpt lat="43.73002" lon="3.30557">
        <ele>188.655</ele>
        <time>2016-12-28T01:22:30Z</time>
      </trkpt>
      <trkpt lat="43.72966" lon="3.30508">
        <ele>194.428</ele>
        <time>2016-12-28T01:22:50Z</time>
      </trkpt>
      <trkpt lat="43.72925" lon="3.3048">
        <ele>198.989</ele>
        <time>2016-12-28T01:23:10Z</time>
      </trkpt>
      <trkpt lat="43.72912" lon="3.30456">
        <ele>199.217</ele>
        <time>2016-12-28T01:23:30Z</time>
      </trkpt>
      <trkpt lat="43.72865" lon="3.30447">
        <ele>203.408</ele>
        <time>2016-12-28T01:23:50Z</time>
      </trkpt>
      <trkpt lat="43.72854" lon="3.30363">
        <ele>207.599</ele>
        <time>2016-12-28T01:24:10Z</time>
      </trkpt>
      <trkpt lat="43.72865" lon="3.30223">
        <ele>217.972</ele>
        <time>2016-12-28T01:24:30Z</time>
      </trkpt>
      <trkpt lat="43.72854" lon="3.30135">
        <ele>228.838</ele>
        <time>2016-12-28T01:24:50Z</time>
      </trkpt>
      <trkpt lat="43.72869" lon="3.30092">
        <ele>227.667</ele>
        <time>2016-12-28T01:25:10Z</time>
      </trkpt>
      <trkpt lat="43.72854" lon="3.30056">
        <ele>237.674</ele>
        <time>2016-12-28T01:25:30Z</time>
      </trkpt>
      <trkpt lat="43.72852" lon="3.30016">
        <ele>242.665</ele>
        <time>2016-12-28T01:25:50Z</time>
      </trkpt>
      <trkpt lat="43.72821" lon="3.30005">
        <ele>249.134</ele>
        <time>2016-12-28T01:26:10Z</time>
      </trkpt>
      <trkpt lat="43.72786" lon="3.30002">
        <ele>258.925</ele>
        <time>2016-12-28T01:26:30Z</time>
      </trkpt>
      <trkpt lat="43.72743" lon="3.29967">
        <ele>258.163</ele>
        <time>2016-12-28T01:26:50Z</time>
      </trkpt>
      <trkpt lat="43.72749" lon="3.29937">
        <ele>252.944</ele>
        <time>2016-12-28T01:27:10Z</time>
      </trkpt>
      <trkpt lat="43.72731" lon="3.29923">
        <ele>264.418</ele>
        <time>2016-12-28T01:27:30Z</time>
      </trkpt>
      <trkpt lat="43.72733" lon="3.29872">
        <ele>273.608</ele>
        <time>2016-12-28T01:27:50Z</time>
      </trkpt>
      <trkpt lat="43.72687" lon="3.29824">
        <ele>286.043</ele>
        <time>2016-12-28T01:28:10Z</time>
      </trkpt>
      <trkpt lat="43.72658" lon="3.29815">
        <ele>294.336</ele>
        <time>2016-12-28T01:28:30Z</time>
      </trkpt>
      <trkpt lat="43.72596" lon="3.29766">
        <ele>294.892</ele>
        <time>2016-12-28T01:28:50Z</time>
      </trkpt>
      <trkpt lat="43.72553" lon="3.29764">
        <ele>299.261</ele>
        <time>2016-12-28T01:29:10Z</time>
      </trkpt>
      <trkpt lat="43.72508" lon="3.29782">
        <ele>303.378</ele>
        <time>2016-12-28T01:29:30Z</time>
      </trkpt>
      <trkpt lat="43.72493" lon="3.29798">
        <ele>304.759</ele>
        <time>2016-12-28T01:29:50Z</time>
      </trkpt>
      <trkpt lat="43.72465" lon="3.29792">
        <ele>305.278</ele>
        <time>2016-12-28T01:30:10Z</time>
      </trkpt>
      <trkpt lat="43.72447" lon="3.29774">
        <ele>303.439</ele>
        <time>2016-12-28T01:30:30Z</time>
      </trkpt>
      <trkpt lat="43.7242" lon="3.29776">
        <ele>305.491</ele>
        <time>2016-12-28T01:30:50Z</time>
      </trkpt>
      <trkpt lat="43.72393" lon="3.29719">
        <ele>299.981</ele>
        <time>2016-12-28T01:31:10Z</time>
      </trkpt>
      <trkpt lat="43.72365" lon="3.29708">
        <ele>310.719</ele>
        <time>2016-12-28T01:31:30Z</time>
      </trkpt>
      <trkpt lat="43.72355" lon="3.29658">
        <ele>312.008</ele>
        <time>2016-12-28T01:31:50Z</time>
      </trkpt>
      <trkpt lat="43.72329" lon="3.29647">
        <ele>315.066</ele>
        <time>2016-12-28T01:32:10Z</time>
      </trkpt>
      <trkpt lat="43.72269" lon="3.29666">
        <ele>324.119</ele>
        <time>2016-12-28T01:32:30Z</time>
      </trkpt>
      <trkpt lat="43.72229" lon="3.29652">
        <ele>332.235</ele>
        <time>2016-12-28T01:32:50Z</time>
      </trkpt>
      <trkpt lat="43.72219" lon="3.29628">
        <ele>329.674</ele>
        <time>2016-12-28T01:33:10Z</time>
      </trkpt>
      <trkpt lat="43.72184" lon="3.29615">
        <ele>333.461</ele>
        <time>2016-12-28T01:33:30Z</time>
      </trkpt>
      <trkpt lat="43.72172" lon="3.29627">
        <ele>337.892</ele>
        <time>2016-12-28T01:33:50Z</time>
      </trkpt>
      <trkpt lat="43.72113" lon="3.29663">
        <ele>334.351</ele>
        <time>2016-12-28T01:34:10Z</time>
      </trkpt>
      <trkpt lat="43.72082" lon="3.29688">
        <ele>329.912</ele>
        <time>2016-12-28T01:34:30Z</time>
      </trkpt>
      <trkpt lat="43.72077" lon="3.29688">
        <ele>329.611</ele>
        <time>2016-12-28T01:34:50Z</time>
      </trkpt>
      <trkpt lat="43.72054" lon="3.29686">
        <ele>327.821</ele>
        <time>2016-12-28T01:35:10Z</time>
      </trkpt>
      <trkpt lat="43.72014" lon="3.29711">
        <ele>325.903</ele>
        <time>2016-12-28T01:35:30Z</time>
      </trkpt>
      <trkpt lat="43.71997" lon="3.29737">
        <ele>326.608</ele>
        <time>2016-12-28T01:35:50Z</time>
      </trkpt>
      <trkpt lat="43.71978" lon="3.29709">
        <ele>323.358</ele>
        <time>2016-12-28T01:36:10Z</time>
      </trkpt>
      <trkpt lat="43.71936" lon="3.29716">
        <ele>328.351</ele>
        <time>2016-12-28T01:36:30Z</time>
      </trkpt>
      <trkpt lat="43.71931" lon="3.29703">
        <ele>330.587</ele>
        <time>2016-12-28T01:36:50Z</time>
      </trkpt>
      <trkpt lat="43.7196" lon="3.2966">
        <ele>329.686</ele>
        <time>2016-12-28T01:37:10Z</time>
      </trkpt>
      <trkpt lat="43.7195" lon="3.29605">
        <ele>333.223</ele>
        <time>2016-12-28T01:37:30Z</time>
      </trkpt>
      <trkpt lat="43.71909" lon="3.29566">
        <ele>341.634</ele>
        <time>2016-12-28T01:37:50Z</time>
      </trkpt>
      <trkpt lat="43.71868" lon="3.29439">
        <ele>348.783</ele>
        <time>2016-12-28T01:38:10Z</time>
      </trkpt>
      <trkpt lat="43.71813" lon="3.29348">
        <ele>348.274</ele>
        <time>2016-12-28T01:38:30Z</time>
      </trkpt>
      <trkpt lat="43.71779" lon="3.29328">
        <ele>354.246</ele>
        <time>2016-12-28T01:38:50Z</time>
      </trkpt>
      <trkpt lat="43.71775" lon="3.29267">
        <ele>353.888</ele>
        <time>2016-12-28T01:39:10Z</time>
      </trkpt>
      <trkpt lat="43.71758" lon="3.29299">
        <ele>357.816</ele>
        <time>2016-12-28T01:39:30Z</time>
      </trkpt>
      <trkpt lat="43.71693" lon="3.29303">
        <ele>367.908</ele>
        <time>2016-12-28T01:39:50Z</time>
      </trkpt>
      <trkpt lat="43.71665" lon="3.2928">
        <ele>365.671</ele>
        <time>2016-12-28T01:40:10Z</time>
      </trkpt>
      <trkpt lat="43.7167" lon="3.29251">
        <ele>369.014</ele>
        <time>2016-12-28T01:40:30Z</time>
      </trkpt>
      <trkpt lat="43.71735" lon="3.29235">
        <ele>364.48</ele>
        <time>2016-12-28T01:40:50Z</time>
      </trkpt>
      <trkpt lat="43.71758" lon="3.29177">
        <ele>371.019</ele>
        <time>2016-12-28T01:41:10Z</time>
      </trkpt>
      <trkpt lat="43.71862" lon="3.29184">
        <ele>375.446</ele>
        <time>2016-12-28T01:41:30Z</time>
      </trkpt>
      <trkpt lat="43.7192" lon="3.29144">
        <ele>373.627</ele>
        <time>2016-12-28T01:41:50Z</time>
      </trkpt>
      <trkpt lat="43.71948" lon="3.29094">
        <ele>377.836</ele>
        <time>2016-12-28T01:42:10Z</time>
      </trkpt>
      <trkpt lat="43.71938" lon="3.29088">
        <ele>381.897</ele>
        <time>2016-12-28T01:42:30Z</time>
      </trkpt>
      <trkpt lat="43.71911" lon="3.29129">
        <ele>380.287</ele>
        <time>2016-12-28T01:42:50Z</time>
      </trkpt>
      <trkpt lat="43.71875" lon="3.29147">
        <ele>383.142</ele>
        <time>2016-12-28T01:43:10Z</time>
      </trkpt>
      <trkpt lat="43.7182" lon="3.29124">
        <ele>386.426</ele>
        <time>2016-12-28T01:43:30Z</time>
      </trkpt>
      <trkpt lat="43.718" lon="3.2905">
        <ele>393.408</ele>
        <time>2016-12-28T01:43:50Z</time>
      </trkpt>
      <trkpt lat="43.71772" lon="3.2904">
        <ele>395.185</ele>
        <time>2016-12-28T01:44:10Z</time>
      </trkpt>
      <trkpt lat="43.71689" lon="3.29086">
        <ele>401.658</ele>
        <time>2016-12-28T01:44:30Z</time>
      </trkpt>
      <trkpt lat="43.71656" lon="3.29043">
        <ele>405.744</ele>
        <time>2016-12-28T01:44:50Z</time>
      </trkpt>
      <trkpt lat="43.71652" lon="3.29">
        <ele>410.523</ele>
        <time>2016-12-28T01:45:10Z</time>
      </trkpt>
      <trkpt lat="43.71633" lon="3.2893">
        <ele>415.74</ele>
        <time>2016-12-28T01:45:30Z</time>
      </trkpt>
      <trkpt lat="43.71613" lon="3.28891">
        <ele>419.121</ele>
        <time>2016-12-28T01:45:50Z</time>
      </trkpt>
      <trkpt lat="43.71535" lon="3.28723">
        <ele>428.86</ele>
        <time>2016-12-28T01:46:10Z</time>
      </trkpt>
      <trkpt lat="43.71445" lon="3.28723">
        <ele>433.791</ele>
        <time>2016-12-28T01:46:30Z</time>
      </trkpt>
      <trkpt lat="43.71352" lon="3.28665">
        <ele>437.868</ele>
        <time>2016-12-28T01:46:50Z</time>
      </trkpt>
      <trkpt lat="43.71286" lon="3.28596">
        <ele>446.342</ele>
        <time>2016-12-28T01:47:10Z</time>
      </trkpt>
      <trkpt lat="43.71244" lon="3.28538">
        <ele>451.426</ele>
        <time>2016-12-28T01:47:30Z</time>
      </trkpt>
      <trkpt lat="43.71154" lon="3.28469">
        <ele>455.808</ele>
        <time>2016-12-28T01:47:50Z</time>
      </trkpt>
      <trkpt lat="43.71145" lon="3.28385">
        <ele>463.973</ele>
        <time>2016-12-28T01:48:10Z</time>
      </trkpt>
      <trkpt lat="43.71115" lon="3.28343">
        <ele>466.376</ele>
        <time>2016-12-28T01:48:30Z</time>
      </trkpt>
      <trkpt lat="43.71126" lon="3.28313">
        <ele>472.482</ele>
        <time>2016-12-28T01:48:50Z</time>
      </trkpt>
      <trkpt lat="43.71167" lon="3.28351">
        <ele>474.341</ele>
        <time>2016-12-28T01:49:10Z</time>
      </trkpt>
      <trkpt lat="43.71189" lon="3.28412">
        <ele>474.168</ele>
        <time>2016-12-28T01:49:30Z</time>
      </trkpt>
      <trkpt lat="43.71352" lon="3.2843">
        <ele>488.479</ele>
        <time>2016-12-28T01:49:50Z</time>
      </trkpt>
      <trkpt lat="43.7143" lon="3.28423">
        <ele>494.528</ele>
        <time>2016-12-28T01:50:10Z</time>
      </trkpt>
      <trkpt lat="43.71535" lon="3.28394">
        <ele>504.149</ele>
        <time>2016-12-28T01:50:30Z</time>
      </trkpt>
      <trkpt lat="43.71578" lon="3.28395">
        <ele>509.877</ele>
        <time>2016-12-28T01:50:50Z</time>
      </trkpt>
      <trkpt lat="43.71639" lon="3.28458">
        <ele>511.661</ele>
        <time>2016-12-28T01:51:10Z</time>
      </trkpt>
      <trkpt lat="43.71682" lon="3.28533">
        <ele>516.027</ele>
        <time>2016-12-28T01:59:50Z</time>
      </trkpt>
      <trkpt lat="43.7171" lon="3.28599">
        <ele>512.308</ele>
        <time>2016-12-28T02:00:10Z</time>
      </trkpt>
      <trkpt lat="43.71674" lon="3.28441">
        <ele>531.414</ele>
        <time>2016-12-28T02:00:30Z</time>
      </trkpt>
      <trkpt lat="43.71608" lon="3.28322">
        <ele>539.667</ele>
        <time>2016-12-28T02:00:50Z</time>
      </trkpt>
      <trkpt lat="43.71447" lon="3.28255">
        <ele>555.243</ele>
        <time>2016-12-28T02:01:10Z</time>
      </trkpt>
      <trkpt lat="43.71398" lon="3.28268">
        <ele>553.692</ele>
        <time>2016-12-28T02:01:30Z</time>
      </trkpt>
      <trkpt lat="43.71246" lon="3.28219">
        <ele>560.039</ele>
        <time>2016-12-28T02:01:50Z</time>
      </trkpt>
      <trkpt lat="43.71246" lon="3.28192">
        <ele>560.14</ele>
        <time>2016-12-28T02:02:10Z</time>
      </trkpt>
      <trkpt lat="43.71296" lon="3.28157">
        <ele>568.219</ele>
        <time>2016-12-28T02:02:30Z</time>
      </trkpt>
      <trkpt lat="43.71268" lon="3.28056">
        <ele>570.33</ele>
        <time>2016-12-28T02:02:50Z</time>
      </trkpt>
      <trkpt lat="43.71203" lon="3.27973">
        <ele>570.935</ele>
        <time>2016-12-28T02:03:10Z</time>
      </trkpt>
      <trkpt lat="43.7119" lon="3.27835">
        <ele>578.286</ele>
        <time>2016-12-28T02:03:30Z</time>
      </trkpt>
      <trkpt lat="43.71175" lon="3.27806">
        <ele>578.414</ele>
        <time>2016-12-28T02:03:50Z</time>
      </trkpt>
      <trkpt lat="43.71074" lon="3.27718">
        <ele>581.808</ele>
        <time>2016-12-28T02:04:10Z</time>
      </trkpt>
      <trkpt lat="43.71035" lon="3.27702">
        <ele>580.09</ele>
        <time>2016-12-28T02:04:30Z</time>
      </trkpt>
      <trkpt lat="43.71" lon="3.27644">
        <ele>582.373</ele>
        <time>2016-12-28T02:04:50Z</time>
      </trkpt>
      <trkpt lat="43.7087" lon="3.27551">
        <ele>585.149</ele>
        <time>2016-12-28T02:05:10Z</time>
      </trkpt>
      <trkpt lat="43.70902" lon="3.27381">
        <ele>591.278</ele>
        <time>2016-12-28T02:05:30Z</time>
      </trkpt>
      <trkpt lat="43.70891" lon="3.27261">
        <ele>590.075</ele>
        <time>2016-12-28T02:05:50Z</time>
      </trkpt>
      <trkpt lat="43.7095" lon="3.27109">
        <ele>594.266</ele>
        <time>2016-12-28T02:06:10Z</time>
      </trkpt>
      <trkpt lat="43.70956" lon="3.26939">
        <ele>597.795</ele>
        <time>2016-12-28T02:06:30Z</time>
      </trkpt>
      <trkpt lat="43.70969" lon="3.2684">
        <ele>599.936</ele>
        <time>2016-12-28T02:06:50Z</time>
      </trkpt>
      <trkpt lat="43.70945" lon="3.26801">
        <ele>599.791</ele>
        <time>2016-12-28T02:07:10Z</time>
      </trkpt>
      <trkpt lat="43.70777" lon="3.2682">
        <ele>608.081</ele>
        <time>2016-12-28T02:07:30Z</time>
      </trkpt>
      <trkpt lat="43.70742" lon="3.26789">
        <ele>609.519</ele>
        <time>2016-12-28T02:07:50Z</time>
      </trkpt>
      <trkpt lat="43.7071" lon="3.26725">
        <ele>612.208</ele>
        <time>2016-12-28T02:08:10Z</time>
      </trkpt>
      <trkpt lat="43.70659" lon="3.26671">
        <ele>610.426</ele>
        <time>2016-12-28T02:08:30Z</time>
      </trkpt>
      <trkpt lat="43.7065" lon="3.26619">
        <ele>615.689</ele>
        <time>2016-12-28T02:08:50Z</time>
      </trkpt>
      <trkpt lat="43.70618" lon="3.26574">
        <ele>621.715</ele>
        <time>2016-12-28T02:09:10Z</time>
      </trkpt>
      <trkpt lat="43.70538" lon="3.26557">
        <ele>622.544</ele>
        <time>2016-12-28T02:09:30Z</time>
      </trkpt>
      <trkpt lat="43.70502" lon="3.26483">
        <ele>626.381</ele>
        <time>2016-12-28T02:09:50Z</time>
      </trkpt>
      <trkpt lat="43.70407" lon="3.26136">
        <ele>634.562</ele>
        <time>2016-12-28T02:10:10Z</time>
      </trkpt>
      <trkpt lat="43.70523" lon="3.26217">
        <ele>643.121</ele>
        <time>2016-12-28T02:10:30Z</time>
      </trkpt>
      <trkpt lat="43.70562" lon="3.26268">
        <ele>650.712</ele>
        <time>2016-12-28T02:10:50Z</time>
      </trkpt>
      <trkpt lat="43.70593" lon="3.26262">
        <ele>655.739</ele>
        <time>2016-12-28T02:11:10Z</time>
      </trkpt>
      <trkpt lat="43.70685" lon="3.26284">
        <ele>664.701</ele>
        <time>2016-12-28T02:11:30Z</time>
      </trkpt>
      <trkpt lat="43.70755" lon="3.26288">
        <ele>669.521</ele>
        <time>2016-12-28T02:11:50Z</time>
      </trkpt>
      <trkpt lat="43.70874" lon="3.26195">
        <ele>669.508</ele>
        <time>2016-12-28T02:12:10Z</time>
      </trkpt>
      <trkpt lat="43.70984" lon="3.26152">
        <ele>668.15</ele>
        <time>2016-12-28T02:12:30Z</time>
      </trkpt>
      <trkpt lat="43.71066" lon="3.26156">
        <ele>668.093</ele>
        <time>2016-12-28T02:12:50Z</time>
      </trkpt>
      <trkpt lat="43.71095" lon="3.26143">
        <ele>669.939</ele>
        <time>2016-12-28T02:13:10Z</time>
      </trkpt>
      <trkpt lat="43.71127" lon="3.26102">
        <ele>673.038</ele>
        <time>2016-12-28T02:13:30Z</time>
      </trkpt>
      <trkpt lat="43.7119" lon="3.26061">
        <ele>679.495</ele>
        <time>2016-12-28T02:13:50Z</time>
      </trkpt>
      <trkpt lat="43.7123" lon="3.25972">
        <ele>679.466</ele>
        <time>2016-12-28T02:14:10Z</time>
      </trkpt>
      <trkpt lat="43.71252" lon="3.25936">
        <ele>678.665</ele>
        <time>2016-12-28T02:14:30Z</time>
      </trkpt>
      <trkpt lat="43.71307" lon="3.25824">
        <ele>672.746</ele>
        <time>2016-12-28T02:14:50Z</time>
      </trkpt>
      <trkpt lat="43.71383" lon="3.25768">
        <ele>657.894</ele>
        <time>2016-12-28T02:15:10Z</time>
      </trkpt>
      <trkpt lat="43.71376" lon="3.25705">
        <ele>655.657</ele>
        <time>2016-12-28T02:15:30Z</time>
      </trkpt>
      <trkpt lat="43.71386" lon="3.25645">
        <ele>649.322</ele>
        <time>2016-12-28T02:15:50Z</time>
      </trkpt>
      <trkpt lat="43.71445" lon="3.25503">
        <ele>642.408</ele>
        <time>2016-12-28T02:16:10Z</time>
      </trkpt>
      <trkpt lat="43.71502" lon="3.25474">
        <ele>631.616</ele>
        <time>2016-12-28T02:16:30Z</time>
      </trkpt>
      <trkpt lat="43.71535" lon="3.2542">
        <ele>628.929</ele>
        <time>2016-12-28T02:16:50Z</time>
      </trkpt>
      <trkpt lat="43.7155" lon="3.25332">
        <ele>627.365</ele>
        <time>2016-12-28T02:17:10Z</time>
      </trkpt>
      <trkpt lat="43.71581" lon="3.25258">
        <ele>628.864</ele>
        <time>2016-12-28T02:17:30Z</time>
      </trkpt>
      <trkpt lat="43.71632" lon="3.2522">
        <ele>631.011</ele>
        <time>2016-12-28T02:17:50Z</time>
      </trkpt>
      <trkpt lat="43.71692" lon="3.25234">
        <ele>634.282</ele>
        <time>2016-12-28T02:18:10Z</time>
      </trkpt>
      <trkpt lat="43.71747" lon="3.25276">
        <ele>635.931</ele>
        <time>2016-12-28T02:18:30Z</time>
      </trkpt>
      <trkpt lat="43.7181" lon="3.2529">
        <ele>633.962</ele>
        <time>2016-12-28T02:18:50Z</time>
      </trkpt>
      <trkpt lat="43.71841" lon="3.25316">
        <ele>629.684</ele>
        <time>2016-12-28T02:19:10Z</time>
      </trkpt>
      <trkpt lat="43.71864" lon="3.25317">
        <ele>624.707</ele>
        <time>2016-12-28T02:19:30Z</time>
      </trkpt>
      <trkpt lat="43.71911" lon="3.25377">
        <ele>619.217</ele>
        <time>2016-12-28T02:19:50Z</time>
      </trkpt>
      <trkpt lat="43.71948" lon="3.25358">
        <ele>614.308</ele>
        <time>2016-12-28T02:20:10Z</time>
      </trkpt>
      <trkpt lat="43.71956" lon="3.25319">
        <ele>609.115</ele>
        <time>2016-12-28T02:20:30Z</time>
      </trkpt>
      <trkpt lat="43.71945" lon="3.25282">
        <ele>607.348</ele>
        <time>2016-12-28T02:20:50Z</time>
      </trkpt>
      <trkpt lat="43.71956" lon="3.25278">
        <ele>605.054</ele>
        <time>2016-12-28T02:21:10Z</time>
      </trkpt>
      <trkpt lat="43.71981" lon="3.25277">
        <ele>601.213</ele>
        <time>2016-12-28T02:21:30Z</time>
      </trkpt>
      <trkpt lat="43.72026" lon="3.25247">
        <ele>595.34</ele>
        <time>2016-12-28T02:21:50Z</time>
      </trkpt>
      <trkpt lat="43.72075" lon="3.25185">
        <ele>586.341</ele>
        <time>2016-12-28T02:22:10Z</time>
      </trkpt>
      <trkpt lat="43.72116" lon="3.25177">
        <ele>583.41</ele>
        <time>2016-12-28T02:22:30Z</time>
      </trkpt>
      <trkpt lat="43.72165" lon="3.25225">
        <ele>581.221</ele>
        <time>2016-12-28T02:22:50Z</time>
      </trkpt>
      <trkpt lat="43.72237" lon="3.25259">
        <ele>574.377</ele>
        <time>2016-12-28T02:23:10Z</time>
      </trkpt>
      <trkpt lat="43.723" lon="3.25296">
        <ele>572.061</ele>
        <time>2016-12-28T02:23:30Z</time>
      </trkpt>
      <trkpt lat="43.72361" lon="3.25338">
        <ele>577.527</ele>
        <time>2016-12-28T02:23:50Z</time>
      </trkpt>
      <trkpt lat="43.72458" lon="3.25366">
        <ele>585.708</ele>
        <time>2016-12-28T02:24:10Z</time>
      </trkpt>
      <trkpt lat="43.72562" lon="3.25363">
        <ele>597.974</ele>
        <time>2016-12-28T02:24:30Z</time>
      </trkpt>
      <trkpt lat="43.72674" lon="3.25323">
        <ele>602.597</ele>
        <time>2016-12-28T02:24:50Z</time>
      </trkpt>
      <trkpt lat="43.72719" lon="3.25354">
        <ele>609.743</ele>
        <time>2016-12-28T02:25:10Z</time>
      </trkpt>
      <trkpt lat="43.72942" lon="3.25187">
        <ele>628.072</ele>
        <time>2016-12-28T02:25:30Z</time>
      </trkpt>
      <trkpt lat="43.73034" lon="3.25148">
        <ele>638.299</ele>
        <time>2016-12-28T02:25:50Z</time>
      </trkpt>
      <trkpt lat="43.73104" lon="3.25069">
        <ele>642.93</ele>
        <time>2016-12-28T02:26:10Z</time>
      </trkpt>
      <trkpt lat="43.73226" lon="3.25032">
        <ele>652.169</ele>
        <time>2016-12-28T02:40:50Z</time>
      </trkpt>
      <trkpt lat="43.73297" lon="3.24969">
        <ele>655.92</ele>
        <time>2016-12-28T02:41:10Z</time>
      </trkpt>
      <trkpt lat="43.73356" lon="3.24966">
        <ele>658.966</ele>
        <time>2016-12-28T02:41:30Z</time>
      </trkpt>
      <trkpt lat="43.73449" lon="3.25007">
        <ele>673.529</ele>
        <time>2016-12-28T02:41:50Z</time>
      </trkpt>
      <trkpt lat="43.73586" lon="3.24984">
        <ele>681.021</ele>
        <time>2016-12-28T02:42:10Z</time>
      </trkpt>
      <trkpt lat="43.73721" lon="3.24993">
        <ele>688.108</ele>
        <time>2016-12-28T02:42:30Z</time>
      </trkpt>
      <trkpt lat="43.73884" lon="3.24854">
        <ele>686.793</ele>
        <time>2016-12-28T02:42:50Z</time>
      </trkpt>
      <trkpt lat="43.73897" lon="3.24788">
        <ele>686.056</ele>
        <time>2016-12-28T02:43:10Z</time>
      </trkpt>
      <trkpt lat="43.73918" lon="3.24641">
        <ele>681.392</ele>
        <time>2016-12-28T02:43:30Z</time>
      </trkpt>
      <trkpt lat="43.7395" lon="3.24601">
        <ele>678.081</ele>
        <time>2016-12-28T02:43:50Z</time>
      </trkpt>
      <trkpt lat="43.7399" lon="3.24584">
        <ele>678.748</ele>
        <time>2016-12-28T02:44:10Z</time>
      </trkpt>
      <trkpt lat="43.74111" lon="3.24574">
        <ele>682.769</ele>
        <time>2016-12-28T02:44:30Z</time>
      </trkpt>
      <trkpt lat="43.74118" lon="3.24551">
        <ele>680.118</ele>
        <time>2016-12-28T02:44:50Z</time>
      </trkpt>
      <trkpt lat="43.73949" lon="3.24375">
        <ele>691.999</ele>
        <time>2016-12-28T02:45:10Z</time>
      </trkpt>
      <trkpt lat="43.73874" lon="3.24369">
        <ele>699.098</ele>
        <time>2016-12-28T02:45:30Z</time>
      </trkpt>
      <trkpt lat="43.73706" lon="3.24335">
        <ele>701.915</ele>
        <time>2016-12-28T02:45:50Z</time>
      </trkpt>
      <trkpt lat="43.73691" lon="3.243">
        <ele>702.326</ele>
        <time>2016-12-28T02:46:10Z</time>
      </trkpt>
      <trkpt lat="43.73739" lon="3.24119">
        <ele>696.108</ele>
        <time>2016-12-28T02:46:30Z</time>
      </trkpt>
      <trkpt lat="43.73766" lon="3.24094">
        <ele>699.036</ele>
        <time>2016-12-28T02:46:50Z</time>
      </trkpt>
      <trkpt lat="43.7376" lon="3.24071">
        <ele>698.439</ele>
        <time>2016-12-28T02:47:10Z</time>
      </trkpt>
      <trkpt lat="43.7371" lon="3.24029">
        <ele>685.925</ele>
        <time>2016-12-28T02:47:30Z</time>
      </trkpt>
      <trkpt lat="43.73669" lon="3.23861">
        <ele>679.614</ele>
        <time>2016-12-28T02:47:50Z</time>
      </trkpt>
      <trkpt lat="43.73624" lon="3.23802">
        <ele>667.941</ele>
        <time>2016-12-28T02:48:10Z</time>
      </trkpt>
      <trkpt lat="43.73636" lon="3.23686">
        <ele>663.992</ele>
        <time>2016-12-28T02:48:30Z</time>
      </trkpt>
      <trkpt lat="43.73666" lon="3.23572">
        <ele>663.671</ele>
        <time>2016-12-28T02:48:50Z</time>
      </trkpt>
      <trkpt lat="43.73665" lon="3.23476">
        <ele>658.062</ele>
        <time>2016-12-28T02:49:10Z</time>
      </trkpt>
      <trkpt lat="43.73642" lon="3.23426">
        <ele>648.677</ele>
        <time>2016-12-28T02:49:30Z</time>
      </trkpt>
      <trkpt lat="43.73656" lon="3.23382">
        <ele>651.261</ele>
        <time>2016-12-28T02:49:50Z</time>
      </trkpt>
      <trkpt lat="43.73644" lon="3.23249">
        <ele>643.027</ele>
        <time>2016-12-28T02:50:10Z</time>
      </trkpt>
      <trkpt lat="43.73611" lon="3.2316">
        <ele>632.808</ele>
        <time>2016-12-28T02:50:30Z</time>
      </trkpt>
      <trkpt lat="43.73618" lon="3.23091">
        <ele>633.334</ele>
        <time>2016-12-28T02:52:10Z</time>
      </trkpt>
      <trkpt lat="43.73607" lon="3.23101">
        <ele>629.187</ele>
        <time>2016-12-28T02:52:30Z</time>
      </trkpt>
      <trkpt lat="43.73585" lon="3.23169">
        <ele>624.563</ele>
        <time>2016-12-28T02:52:50Z</time>
      </trkpt>
      <trkpt lat="43.73555" lon="3.23215">
        <ele>618.022</ele>
        <time>2016-12-28T02:53:10Z</time>
      </trkpt>
      <trkpt lat="43.73484" lon="3.23126">
        <ele>608.529</ele>
        <time>2016-12-28T02:53:30Z</time>
      </trkpt>
      <trkpt lat="43.73462" lon="3.23073">
        <ele>606.98</ele>
        <time>2016-12-28T02:53:50Z</time>
      </trkpt>
      <trkpt lat="43.73457" lon="3.23027">
        <ele>603.959</ele>
        <time>2016-12-28T02:54:10Z</time>
      </trkpt>
      <trkpt lat="43.73507" lon="3.22963">
        <ele>600.85</ele>
        <time>2016-12-28T02:54:30Z</time>
      </trkpt>
      <trkpt lat="43.73556" lon="3.22832">
        <ele>594.981</ele>
        <time>2016-12-28T02:54:50Z</time>
      </trkpt>
      <trkpt lat="43.73626" lon="3.22771">
        <ele>596.061</ele>
        <time>2016-12-28T02:55:10Z</time>
      </trkpt>
      <trkpt lat="43.7364" lon="3.2266">
        <ele>589.917</ele>
        <time>2016-12-28T02:55:30Z</time>
      </trkpt>
      <trkpt lat="43.73649" lon="3.22587">
        <ele>578.808</ele>
        <time>2016-12-28T02:55:50Z</time>
      </trkpt>
      <trkpt lat="43.73777" lon="3.22606">
        <ele>570.715</ele>
        <time>2016-12-28T02:56:10Z</time>
      </trkpt>
      <trkpt lat="43.7394" lon="3.22893">
        <ele>546.578</ele>
        <time>2016-12-28T02:56:30Z</time>
      </trkpt>
      <trkpt lat="43.73957" lon="3.2298">
        <ele>546.384</ele>
        <time>2016-12-28T02:56:50Z</time>
      </trkpt>
      <trkpt lat="43.7399" lon="3.23045">
        <ele>536.423</ele>
        <time>2016-12-28T02:57:10Z</time>
      </trkpt>
      <trkpt lat="43.73975" lon="3.22982">
        <ele>535.77</ele>
        <time>2016-12-28T02:57:30Z</time>
      </trkpt>
      <trkpt lat="43.73972" lon="3.22881">
        <ele>521.121</ele>
        <time>2016-12-28T02:57:50Z</time>
      </trkpt>
      <trkpt lat="43.73958" lon="3.2283">
        <ele>518.28</ele>
        <time>2016-12-28T02:58:10Z</time>
      </trkpt>
      <trkpt lat="43.73939" lon="3.2279">
        <ele>515.561</ele>
        <time>2016-12-28T02:58:30Z</time>
      </trkpt>
      <trkpt lat="43.73908" lon="3.22683">
        <ele>506.362</ele>
        <time>2016-12-28T02:58:50Z</time>
      </trkpt>
      <trkpt lat="43.73851" lon="3.22462">
        <ele>490.783</ele>
        <time>2016-12-28T02:59:10Z</time>
      </trkpt>
      <trkpt lat="43.73793" lon="3.22418">
        <ele>486.211</ele>
        <time>2016-12-28T02:59:30Z</time>
      </trkpt>
      <trkpt lat="43.73741" lon="3.22421">
        <ele>492.508</ele>
        <time>2016-12-28T03:01:50Z</time>
      </trkpt>
      <trkpt lat="43.73665" lon="3.22383">
        <ele>479.113</ele>
        <time>2019-12-05T16:22:58Z</time>
      </trkpt>
      <trkpt lat="43.73699" lon="3.22376">
        <ele>470.896</ele>
        <time>2019-12-05T16:23:18Z</time>
      </trkpt>
      <trkpt lat="43.73742" lon="3.22392">
        <ele>474.882</ele>
        <time>2019-12-05T16:23:38Z</time>
      </trkpt>
      <trkpt lat="43.73793" lon="3.22377">
        <ele>462.281</ele>
        <time>2019-12-05T16:23:58Z</time>
      </trkpt>
      <trkpt lat="43.73879" lon="3.22393">
        <ele>451.628</ele>
        <time>2019-12-05T16:24:18Z</time>
      </trkpt>
      <trkpt lat="43.73944" lon="3.22502">
        <ele>441.119</ele>
        <time>2019-12-05T16:24:38Z</time>
      </trkpt>
      <trkpt lat="43.74003" lon="3.22631">
        <ele>439.218</ele>
        <time>2019-12-05T16:24:58Z</time>
      </trkpt>
      <trkpt lat="43.74124" lon="3.22805">
        <ele>425.379</ele>
        <time>2019-12-05T16:25:18Z</time>
      </trkpt>
      <trkpt lat="43.74128" lon="3.22829">
        <ele>429.018</ele>
        <time>2019-12-05T16:25:38Z</time>
      </trkpt>
      <trkpt lat="43.74151" lon="3.22828">
        <ele>421.898</ele>
        <time>2019-12-05T16:25:58Z</time>
      </trkpt>
      <trkpt lat="43.74225" lon="3.2288">
        <ele>416.417</ele>
        <time>2019-12-05T16:26:18Z</time>
      </trkpt>
      <trkpt lat="43.74268" lon="3.2289">
        <ele>413.108</ele>
        <time>2019-12-05T16:26:38Z</time>
      </trkpt>
      <trkpt lat="43.743" lon="3.2288">
        <ele>417.998</ele>
        <time>2019-12-05T16:26:58Z</time>
      </trkpt>
      <trkpt lat="43.74243" lon="3.22768">
        <ele>418.851</ele>
        <time>2019-12-05T16:27:18Z</time>
      </trkpt>
      <trkpt lat="43.74198" lon="3.22706">
        <ele>413.947</ele>
        <time>2019-12-05T16:27:38Z</time>
      </trkpt>
      <trkpt lat="43.74161" lon="3.22535">
        <ele>419.416</ele>
        <time>2019-12-05T16:27:58Z</time>
      </trkpt>
      <trkpt lat="43.74114" lon="3.22403">
        <ele>414.973</ele>
        <time>2019-12-05T16:28:18Z</time>
      </trkpt>
      <trkpt lat="43.74115" lon="3.22323">
        <ele>421.494</ele>
        <time>2019-12-05T16:28:38Z</time>
      </trkpt>
      <trkpt lat="43.74069" lon="3.2227">
        <ele>410.743</ele>
        <time>2019-12-05T16:28:58Z</time>
      </trkpt>
      <trkpt lat="43.74005" lon="3.22065">
        <ele>398.744</ele>
        <time>2019-12-05T16:29:18Z</time>
      </trkpt>
      <trkpt lat="43.73965" lon="3.21952">
        <ele>393.745</ele>
        <time>2019-12-05T16:29:38Z</time>
      </trkpt>
      <trkpt lat="43.73948" lon="3.21811">
        <ele>401.547</ele>
        <time>2019-12-05T16:29:58Z</time>
      </trkpt>
      <trkpt lat="43.73914" lon="3.21674">
        <ele>413.111</ele>
        <time>2019-12-05T16:30:18Z</time>
      </trkpt>
      <trkpt lat="43.73825" lon="3.21513">
        <ele>423.308</ele>
        <time>2021-04-16T23:37:30Z</time>
      </trkpt>
      <trkpt lat="43.73747" lon="3.21343">
        <ele>436.121</ele>
        <time>2019-12-05T16:30:38Z</time>
      </trkpt>
      <trkpt lat="43.73723" lon="3.21274">
        <ele>426.444</ele>
        <time>2019-12-05T16:30:58Z</time>
      </trkpt>
      <trkpt lat="43.7365" lon="3.21216">
        <ele>414.96</ele>
        <time>2019-12-05T16:31:18Z</time>
      </trkpt>
      <trkpt lat="43.73537" lon="3.2106">
        <ele>397.799</ele>
        <time>2019-12-05T16:31:38Z</time>
      </trkpt>
      <trkpt lat="43.73459" lon="3.20802">
        <ele>376.596</ele>
        <time>2019-12-05T16:31:58Z</time>
      </trkpt>
      <trkpt lat="43.73452" lon="3.20741">
        <ele>368.657</ele>
        <time>2019-12-05T16:32:18Z</time>
      </trkpt>
      <trkpt lat="43.73423" lon="3.20682">
        <ele>364.926</ele>
        <time>2019-12-05T16:32:38Z</time>
      </trkpt>
      <trkpt lat="43.73408" lon="3.20611">
        <ele>353.357</ele>
        <time>2019-12-05T16:32:58Z</time>
      </trkpt>
      <trkpt lat="43.7342" lon="3.20486">
        <ele>338.466</ele>
        <time>2019-12-05T16:33:18Z</time>
      </trkpt>
      <trkpt lat="43.73434" lon="3.20435">
        <ele>339.229</ele>
        <time>2019-12-05T16:33:38Z</time>
      </trkpt>
      <trkpt lat="43.73421" lon="3.20374">
        <ele>337.021</ele>
        <time>2019-12-05T16:33:58Z</time>
      </trkpt>
      <trkpt lat="43.73436" lon="3.20364">
        <ele>338.808</ele>
        <time>2019-12-05T16:34:18Z</time>
      </trkpt>
      <trkpt lat="43.73441" lon="3.20314">
        <ele>340.893</ele>
        <time>2019-12-05T16:34:38Z</time>
      </trkpt>
      <trkpt lat="43.7344" lon="3.2025">
        <ele>343.166</ele>
        <time>2019-12-05T16:34:58Z</time>
      </trkpt>
      <trkpt lat="43.73407" lon="3.20146">
        <ele>341.282</ele>
        <time>2019-12-05T16:35:18Z</time>
      </trkpt>
      <trkpt lat="43.73432" lon="3.20096">
        <ele>333.811</ele>
        <time>2019-12-05T16:35:38Z</time>
      </trkpt>
      <trkpt lat="43.73462" lon="3.20088">
        <ele>333.358</ele>
        <time>2019-12-05T16:35:58Z</time>
      </trkpt>
      <trkpt lat="43.7348" lon="3.19985">
        <ele>330.089</ele>
        <time>2019-12-05T16:36:18Z</time>
      </trkpt>
      <trkpt lat="43.73471" lon="3.19947">
        <ele>330.098</ele>
        <time>2019-12-05T16:36:38Z</time>
      </trkpt>
      <trkpt lat="43.73488" lon="3.19897">
        <ele>330.029</ele>
        <time>2019-12-05T16:36:58Z</time>
      </trkpt>
      <trkpt lat="43.73489" lon="3.19838">
        <ele>334.021</ele>
        <time>2019-12-05T16:37:18Z</time>
      </trkpt>
      <trkpt lat="43.73536" lon="3.19768">
        <ele>338.441</ele>
        <time>2019-12-05T16:37:38Z</time>
      </trkpt>
      <trkpt lat="43.73543" lon="3.19676">
        <ele>348.105</ele>
        <time>2019-12-05T16:37:58Z</time>
      </trkpt>
      <trkpt lat="43.73583" lon="3.19682">
        <ele>353.008</ele>
        <time>2019-12-05T16:38:18Z</time>
      </trkpt>
      <trkpt lat="43.73646" lon="3.19623">
        <ele>370.389</ele>
        <time>2019-12-05T16:38:38Z</time>
      </trkpt>
      <trkpt lat="43.73681" lon="3.19628">
        <ele>368.912</ele>
        <time>2019-12-05T16:38:58Z</time>
      </trkpt>
      <trkpt lat="43.73722" lon="3.19588">
        <ele>375.158</ele>
        <time>2019-12-05T16:39:18Z</time>
      </trkpt>
      <trkpt lat="43.73719" lon="3.19554">
        <ele>382.037</ele>
        <time>2019-12-05T16:39:38Z</time>
      </trkpt>
      <trkpt lat="43.73752" lon="3.19547">
        <ele>377.234</ele>
        <time>2021-04-16T23:47:10Z</time>
      </trkpt>
      <trkpt lat="43.73754" lon="3.19521">
        <ele>380.965</ele>
        <time>2021-04-16T23:47:30Z</time>
      </trkpt>
      <trkpt lat="43.73768" lon="3.19521">
        <ele>380.964</ele>
        <time>2021-04-16T23:47:50Z</time>
      </trkpt>
      <trkpt lat="43.73766" lon="3.19391">
        <ele>399.075</ele>
        <time>2021-04-16T23:48:10Z</time>
      </trkpt>
      <trkpt lat="43.73745" lon="3.19393">
        <ele>397.945</ele>
        <time>2021-04-16T23:48:30Z</time>
      </trkpt>
      <trkpt lat="43.73736" lon="3.19438">
        <ele>390.847</ele>
        <time>2021-04-16T23:48:50Z</time>
      </trkpt>
      <trkpt lat="43.73711" lon="3.19428">
        <ele>392.311</ele>
        <time>2021-04-16T23:49:10Z</time>
      </trkpt>
      <trkpt lat="43.73678" lon="3.19441">
        <ele>391.208</ele>
        <time>2021-04-16T23:49:30Z</time>
      </trkpt>
      <trkpt lat="43.73667" lon="3.19433">
        <ele>392.281</ele>
        <time>2021-04-16T23:49:50Z</time>
      </trkpt>
      <trkpt lat="43.73623" lon="3.19416">
        <ele>393.644</ele>
        <time>2021-04-16T23:50:10Z</time>
      </trkpt>
      <trkpt lat="43.73624" lon="3.19384">
        <ele>394.78</ele>
        <time>2019-12-05T16:40:58Z</time>
      </trkpt>
      <trkpt lat="43.73612" lon="3.19367">
        <ele>404.529</ele>
        <time>2021-04-16T23:50:50Z</time>
      </trkpt>
      <trkpt lat="43.73597" lon="3.1936">
        <ele>400.546</ele>
        <time>2019-12-05T16:41:18Z</time>
      </trkpt>
      <trkpt lat="43.73552" lon="3.19388">
        <ele>400.227</ele>
        <time>2021-04-16T23:51:30Z</time>
      </trkpt>
      <trkpt lat="43.73517" lon="3.19373">
        <ele>404.296</ele>
        <time>2021-04-16T23:51:50Z</time>
      </trkpt>
      <trkpt lat="43.73478" lon="3.19369">
        <ele>408.877</ele>
        <time>2021-04-16T23:52:10Z</time>
      </trkpt>
      <trkpt lat="43.73432" lon="3.19433">
        <ele>406.744</ele>
        <time>2019-12-05T16:42:18Z</time>
      </trkpt>
      <trkpt lat="43.73389" lon="3.19437">
        <ele>411.605</ele>
        <time>2021-04-16T23:52:50Z</time>
      </trkpt>
      <trkpt lat="43.73225" lon="3.19473">
        <ele>427.215</ele>
        <time>2019-12-05T16:42:38Z</time>
      </trkpt>
      <trkpt lat="43.73174" lon="3.19495">
        <ele>432.508</ele>
        <time>2019-12-05T16:42:58Z</time>
      </trkpt>
      <trkpt lat="43.73142" lon="3.19539">
        <ele>424.281</ele>
        <time>2019-12-05T16:43:18Z</time>
      </trkpt>
      <trkpt lat="43.73121" lon="3.19519">
        <ele>426.884</ele>
        <time>2019-12-05T16:43:38Z</time>
      </trkpt>
      <trkpt lat="43.73115" lon="3.19473">
        <ele>432.08</ele>
        <time>2019-12-05T16:43:58Z</time>
      </trkpt>
      <trkpt lat="43.73055" lon="3.19405">
        <ele>425.439</ele>
        <time>2019-12-05T16:44:18Z</time>
      </trkpt>
      <trkpt lat="43.73009" lon="3.1931">
        <ele>424.516</ele>
        <time>2019-12-05T16:44:38Z</time>
      </trkpt>
      <trkpt lat="43.72961" lon="3.19188">
        <ele>428.437</ele>
        <time>2019-12-05T16:44:58Z</time>
      </trkpt>
      <trkpt lat="43.72898" lon="3.19269">
        <ele>417.226</ele>
        <time>2019-12-05T16:45:18Z</time>
      </trkpt>
      <trkpt lat="43.72837" lon="3.19307">
        <ele>417.927</ele>
        <time>2019-12-05T16:45:38Z</time>
      </trkpt>
      <trkpt lat="43.7279" lon="3.1932">
        <ele>418.413</ele>
        <time>2019-12-05T16:45:58Z</time>
      </trkpt>
      <trkpt lat="43.72755" lon="3.19314">
        <ele>419.743</ele>
        <time>2019-12-05T16:46:18Z</time>
      </trkpt>
      <trkpt lat="43.72686" lon="3.1935">
        <ele>417.707</ele>
        <time>2019-12-05T16:46:38Z</time>
      </trkpt>
      <trkpt lat="43.7263" lon="3.19359">
        <ele>423.708</ele>
        <time>2019-12-05T16:46:58Z</time>
      </trkpt>
      <trkpt lat="43.72595" lon="3.19444">
        <ele>418.798</ele>
        <time>2019-12-05T16:47:18Z</time>
      </trkpt>
      <trkpt lat="43.7255" lon="3.19507">
        <ele>422.381</ele>
        <time>2019-12-05T16:47:38Z</time>
      </trkpt>
      <trkpt lat="43.72479" lon="3.19366">
        <ele>437.847</ele>
        <time>2019-12-05T16:47:58Z</time>
      </trkpt>
      <trkpt lat="43.72439" lon="3.19332">
        <ele>433.636</ele>
        <time>2019-12-05T16:48:18Z</time>
      </trkpt>
      <trkpt lat="43.72356" lon="3.19285">
        <ele>427.043</ele>
        <time>2019-12-05T16:48:38Z</time>
      </trkpt>
      <trkpt lat="43.72304" lon="3.19197">
        <ele>432.344</ele>
        <time>2019-12-05T16:48:58Z</time>
      </trkpt>
      <trkpt lat="43.72213" lon="3.19107">
        <ele>427.683</ele>
        <time>2019-12-05T16:49:18Z</time>
      </trkpt>
      <trkpt lat="43.72137" lon="3.19174">
        <ele>420.814</ele>
        <time>2019-12-05T16:49:38Z</time>
      </trkpt>
      <trkpt lat="43.72136" lon="3.19202">
        <ele>414.333</ele>
        <time>2019-12-05T16:49:58Z</time>
      </trkpt>
      <trkpt lat="43.72064" lon="3.19296">
        <ele>417.723</ele>
        <time>2021-04-17T00:00:50Z</time>
      </trkpt>
      <trkpt lat="43.71993" lon="3.19371">
        <ele>412.215</ele>
        <time>2019-12-05T16:50:18Z</time>
      </trkpt>
      <trkpt lat="43.71965" lon="3.19384">
        <ele>412.108</ele>
        <time>2019-12-05T16:50:38Z</time>
      </trkpt>
      <trkpt lat="43.71899" lon="3.19373">
        <ele>409.07</ele>
        <time>2019-12-05T16:50:58Z</time>
      </trkpt>
      <trkpt lat="43.71766" lon="3.19393">
        <ele>404.693</ele>
        <time>2019-12-05T16:51:18Z</time>
      </trkpt>
      <trkpt lat="43.71764" lon="3.19316">
        <ele>413.359</ele>
        <time>2019-12-05T16:51:38Z</time>
      </trkpt>
      <trkpt lat="43.71748" lon="3.19235">
        <ele>412.538</ele>
        <time>2019-12-05T16:51:58Z</time>
      </trkpt>
      <trkpt lat="43.71719" lon="3.19155">
        <ele>409.545</ele>
        <time>2019-12-05T16:52:18Z</time>
      </trkpt>
      <trkpt lat="43.71713" lon="3.19093">
        <ele>411.776</ele>
        <time>2019-12-05T16:52:38Z</time>
      </trkpt>
      <trkpt lat="43.71693" lon="3.19053">
        <ele>409.465</ele>
        <time>2019-12-05T16:52:58Z</time>
      </trkpt>
      <trkpt lat="43.71671" lon="3.19059">
        <ele>408.126</ele>
        <time>2019-12-05T16:53:18Z</time>
      </trkpt>
      <trkpt lat="43.71615" lon="3.19045">
        <ele>410.096</ele>
        <time>2019-12-05T16:53:38Z</time>
      </trkpt>
      <trkpt lat="43.7157" lon="3.19067">
        <ele>403.831</ele>
        <time>2019-12-05T16:53:58Z</time>
      </trkpt>
      <trkpt lat="43.71521" lon="3.19069">
        <ele>401.424</ele>
        <time>2019-12-05T16:54:18Z</time>
      </trkpt>
      <trkpt lat="43.71436" lon="3.19101">
        <ele>389.108</ele>
        <time>2019-12-05T16:54:38Z</time>
      </trkpt>
      <trkpt lat="43.71375" lon="3.19087">
        <ele>391.856</ele>
        <time>2019-12-05T16:54:58Z</time>
      </trkpt>
      <trkpt lat="43.71329" lon="3.19087">
        <ele>387.769</ele>
        <time>2019-12-05T16:55:18Z</time>
      </trkpt>
      <trkpt lat="43.7131" lon="3.19045">
        <ele>392.115</ele>
        <time>2019-12-05T16:55:38Z</time>
      </trkpt>
      <trkpt lat="43.7125" lon="3.19103">
        <ele>374.624</ele>
        <time>2019-12-05T16:55:58Z</time>
      </trkpt>
      <trkpt lat="43.71152" lon="3.19197">
        <ele>364.461</ele>
        <time>2019-12-05T16:56:18Z</time>
      </trkpt>
      <trkpt lat="43.71123" lon="3.19199">
        <ele>358.722</ele>
        <time>2019-12-05T16:56:38Z</time>
      </trkpt>
      <trkpt lat="43.71051" lon="3.19254">
        <ele>349.891</ele>
        <time>2019-12-05T16:56:58Z</time>
      </trkpt>
      <trkpt lat="43.70999" lon="3.19233">
        <ele>339.022</ele>
        <time>2019-12-05T16:57:18Z</time>
      </trkpt>
      <trkpt lat="43.70933" lon="3.19167">
        <ele>318.456</ele>
        <time>2019-12-05T16:57:38Z</time>
      </trkpt>
      <trkpt lat="43.70852" lon="3.19147">
        <ele>306.159</ele>
        <time>2019-12-05T16:57:58Z</time>
      </trkpt>
      <trkpt lat="43.70798" lon="3.19168">
        <ele>291.414</ele>
        <time>2021-04-17T00:09:10Z</time>
      </trkpt>
      <trkpt lat="43.70763" lon="3.19205">
        <ele>285.008</ele>
        <time>2021-04-17T00:09:30Z</time>
      </trkpt>
      <trkpt lat="43.70757" lon="3.19202">
        <ele>283.132</ele>
        <time>2021-04-17T00:09:50Z</time>
      </trkpt>
      <trkpt lat="43.70759" lon="3.19176">
        <ele>281.825</ele>
        <time>2021-04-17T00:10:10Z</time>
      </trkpt>
      <trkpt lat="43.70748" lon="3.19185">
        <ele>279.821</ele>
        <time>2021-04-17T00:10:30Z</time>
      </trkpt>
      <trkpt lat="43.7072" lon="3.19187">
        <ele>278.09</ele>
        <time>2021-04-17T00:10:50Z</time>
      </trkpt>
      <trkpt lat="43.70737" lon="3.1933">
        <ele>279.857</ele>
        <time>2019-12-05T16:58:58Z</time>
      </trkpt>
      <trkpt lat="43.70695" lon="3.1934">
        <ele>273.278</ele>
        <time>2019-12-05T16:59:18Z</time>
      </trkpt>
      <trkpt lat="43.70643" lon="3.19181">
        <ele>272.817</ele>
        <time>2019-12-05T16:59:38Z</time>
      </trkpt>
      <trkpt lat="43.70533" lon="3.18963">
        <ele>269.778</ele>
        <time>2019-12-05T16:59:58Z</time>
      </trkpt>
      <trkpt lat="43.7047" lon="3.18883">
        <ele>270.031</ele>
        <time>2019-12-05T17:00:18Z</time>
      </trkpt>
      <trkpt lat="43.70434" lon="3.18779">
        <ele>267.861</ele>
        <time>2019-12-05T17:00:38Z</time>
      </trkpt>
      <trkpt lat="43.70434" lon="3.18679">
        <ele>269.907</ele>
        <time>2019-12-05T17:00:58Z</time>
      </trkpt>
      <trkpt lat="43.70385" lon="3.18595">
        <ele>271.308</ele>
        <time>2019-12-05T17:01:18Z</time>
      </trkpt>
      <trkpt lat="43.70355" lon="3.18409">
        <ele>271.06</ele>
        <time>2019-12-05T17:01:38Z</time>
      </trkpt>
      <trkpt lat="43.70272" lon="3.18212">
        <ele>270.843</ele>
        <time>2019-12-05T17:01:58Z</time>
      </trkpt>
      <trkpt lat="43.70246" lon="3.17956">
        <ele>263.179</ele>
        <time>2019-12-05T17:02:18Z</time>
      </trkpt>
      <trkpt lat="43.70205" lon="3.17906">
        <ele>269.588</ele>
        <time>2019-12-05T17:02:38Z</time>
      </trkpt>
      <trkpt lat="43.70149" lon="3.17866">
        <ele>270.835</ele>
        <time>2019-12-05T17:02:58Z</time>
      </trkpt>
      <trkpt lat="43.70088" lon="3.17846">
        <ele>272.416</ele>
        <time>2019-12-05T17:03:18Z</time>
      </trkpt>
      <trkpt lat="43.70033" lon="3.17742">
        <ele>269.755</ele>
        <time>2019-12-05T17:03:38Z</time>
      </trkpt>
      <trkpt lat="43.69888" lon="3.1756">
        <ele>262.686</ele>
        <time>2019-12-05T17:03:58Z</time>
      </trkpt>
      <trkpt lat="43.69806" lon="3.17434">
        <ele>266.027</ele>
        <time>2019-12-05T17:04:18Z</time>
      </trkpt>
      <trkpt lat="43.69752" lon="3.17303">
        <ele>258.868</ele>
        <time>2019-12-05T17:04:38Z</time>
      </trkpt>
      <trkpt lat="43.69697" lon="3.17239">
        <ele>259.014</ele>
        <time>2019-12-05T17:04:58Z</time>
      </trkpt>
      <trkpt lat="43.69525" lon="3.17181">
        <ele>252.308</ele>
        <time>2021-04-17T00:17:30Z</time>
      </trkpt>
      <trkpt lat="43.69852" lon="3.16967">
        <ele>250.069</ele>
        <time>2019-12-05T17:05:38Z</time>
      </trkpt>
      <trkpt lat="43.69901" lon="3.16945">
        <ele>250.032</ele>
        <time>2019-12-05T17:05:58Z</time>
      </trkpt>
      <trkpt lat="43.6997" lon="3.16967">
        <ele>254.558</ele>
        <time>2019-12-05T17:06:18Z</time>
      </trkpt>
      <trkpt lat="43.69994" lon="3.16547">
        <ele>264.167</ele>
        <time>2019-12-05T17:06:38Z</time>
      </trkpt>
      <trkpt lat="43.70042" lon="3.16417">
        <ele>272.594</ele>
        <time>2021-04-17T00:19:10Z</time>
      </trkpt>
      <trkpt lat="43.70017" lon="3.16387">
        <ele>276.265</ele>
        <time>2019-12-05T17:07:18Z</time>
      </trkpt>
      <trkpt lat="43.69945" lon="3.16351">
        <ele>292.154</ele>
        <time>2019-12-05T17:07:38Z</time>
      </trkpt>
      <trkpt lat="43.69896" lon="3.1634">
        <ele>291.625</ele>
        <time>2019-12-05T17:07:58Z</time>
      </trkpt>
      <trkpt lat="43.69881" lon="3.16325">
        <ele>291.742</ele>
        <time>2019-12-05T17:08:18Z</time>
      </trkpt>
      <trkpt lat="43.69903" lon="3.16306">
        <ele>298.022</ele>
        <time>2019-12-05T17:08:38Z</time>
      </trkpt>
      <trkpt lat="43.69919" lon="3.16278">
        <ele>300.014</ele>
        <time>2019-12-05T17:08:58Z</time>
      </trkpt>
      <trkpt lat="43.69922" lon="3.16252">
        <ele>300.008</ele>
        <time>2019-12-05T17:09:18Z</time>
      </trkpt>
      <trkpt lat="43.69957" lon="3.1622">
        <ele>299.141</ele>
        <time>2019-12-05T17:09:38Z</time>
      </trkpt>
      <trkpt lat="43.69975" lon="3.16132">
        <ele>299.544</ele>
        <time>2019-12-05T17:09:58Z</time>
      </trkpt>
      <trkpt lat="43.70017" lon="3.1599">
        <ele>302.68</ele>
        <time>2019-12-05T17:10:18Z</time>
      </trkpt>
      <trkpt lat="43.70039" lon="3.15904">
        <ele>308.429</ele>
        <time>2019-12-05T17:10:38Z</time>
      </trkpt>
      <trkpt lat="43.70051" lon="3.15832">
        <ele>316.486</ele>
        <time>2019-12-05T17:10:58Z</time>
      </trkpt>
      <trkpt lat="43.70107" lon="3.15696">
        <ele>330.787</ele>
        <time>2019-12-05T17:11:18Z</time>
      </trkpt>
      <trkpt lat="43.70159" lon="3.15588">
        <ele>341.356</ele>
        <time>2019-12-05T17:11:38Z</time>
      </trkpt>
      <trkpt lat="43.70226" lon="3.15622">
        <ele>343.697</ele>
        <time>2019-12-05T17:11:58Z</time>
      </trkpt>
      <trkpt lat="43.70259" lon="3.15608">
        <ele>347.926</ele>
        <time>2019-12-05T17:12:18Z</time>
      </trkpt>
      <trkpt lat="43.70301" lon="3.1554">
        <ele>360.847</ele>
        <time>2019-12-05T17:12:38Z</time>
      </trkpt>
      <trkpt lat="43.70302" lon="3.1549">
        <ele>368.511</ele>
        <time>2019-12-05T17:12:58Z</time>
      </trkpt>
      <trkpt lat="43.70273" lon="3.15422">
        <ele>376.308</ele>
        <time>2019-12-05T17:13:18Z</time>
      </trkpt>
      <trkpt lat="43.70264" lon="3.15362">
        <ele>386.019</ele>
        <time>2019-12-05T17:13:38Z</time>
      </trkpt>
      <trkpt lat="43.70245" lon="3.15355">
        <ele>383.362</ele>
        <time>2019-12-05T17:13:58Z</time>
      </trkpt>
      <trkpt lat="43.70227" lon="3.15358">
        <ele>379.528</ele>
        <time>2019-12-05T17:14:18Z</time>
      </trkpt>
      <trkpt lat="43.70217" lon="3.15305">
        <ele>390.237</ele>
        <time>2021-04-17T00:26:50Z</time>
      </trkpt>
      <trkpt lat="43.70191" lon="3.15257">
        <ele>392.194</ele>
        <time>2019-12-05T17:14:58Z</time>
      </trkpt>
      <trkpt lat="43.702" lon="3.15225">
        <ele>404.165</ele>
        <time>2021-04-17T00:27:30Z</time>
      </trkpt>
      <trkpt lat="43.70201" lon="3.15175">
        <ele>409.834</ele>
        <time>2019-12-05T17:15:18Z</time>
      </trkpt>
      <trkpt lat="43.7017" lon="3.15137">
        <ele>417.895</ele>
        <time>2021-04-17T00:28:10Z</time>
      </trkpt>
      <trkpt lat="43.70156" lon="3.15135">
        <ele>416.791</ele>
        <time>2021-04-17T00:28:30Z</time>
      </trkpt>
      <trkpt lat="43.70124" lon="3.1509">
        <ele>423.481</ele>
        <time>2021-04-17T00:28:50Z</time>
      </trkpt>
      <trkpt lat="43.70107" lon="3.15072">
        <ele>425.219</ele>
        <time>2021-04-17T00:29:10Z</time>
      </trkpt>
      <trkpt lat="43.70067" lon="3.14969">
        <ele>435.308</ele>
        <time>2019-12-05T17:16:38Z</time>
      </trkpt>
      <trkpt lat="43.7003" lon="3.14955">
        <ele>436.566</ele>
        <time>2019-12-05T17:16:58Z</time>
      </trkpt>
      <trkpt lat="43.70022" lon="3.14942">
        <ele>439.359</ele>
        <time>2019-12-05T17:17:18Z</time>
      </trkpt>
      <trkpt lat="43.69993" lon="3.14931">
        <ele>439.825</ele>
        <time>2019-12-05T17:17:38Z</time>
      </trkpt>
      <trkpt lat="43.69966" lon="3.14897">
        <ele>447.044</ele>
        <time>2019-12-05T17:17:58Z</time>
      </trkpt>
      <trkpt lat="43.69936" lon="3.14897">
        <ele>452.991</ele>
        <time>2019-12-05T17:18:18Z</time>
      </trkpt>
      <trkpt lat="43.69926" lon="3.14882">
        <ele>457.892</ele>
        <time>2019-12-05T17:18:38Z</time>
      </trkpt>
      <trkpt lat="43.69918" lon="3.14886">
        <ele>459.271</ele>
        <time>2019-12-05T17:18:58Z</time>
      </trkpt>
      <trkpt lat="43.69888" lon="3.14705">
        <ele>496.362</ele>
        <time>2019-12-05T17:19:18Z</time>
      </trkpt>
      <trkpt lat="43.69843" lon="3.14656">
        <ele>511.129</ele>
        <time>2019-12-05T17:19:38Z</time>
      </trkpt>
      <trkpt lat="43.69795" lon="3.1463">
        <ele>520.2</ele>
        <time>2019-12-05T17:19:58Z</time>
      </trkpt>
      <trkpt lat="43.69816" lon="3.1443">
        <ele>550.82</ele>
        <time>2019-12-05T17:20:18Z</time>
      </trkpt>
      <trkpt lat="43.6983" lon="3.14233">
        <ele>577.608</ele>
        <time>2019-12-05T17:20:38Z</time>
      </trkpt>
      <trkpt lat="43.69819" lon="3.14159">
        <ele>581.569</ele>
        <time>2019-12-05T17:20:58Z</time>
      </trkpt>
      <trkpt lat="43.69716" lon="3.14149">
        <ele>595.932</ele>
        <time>2019-12-05T17:21:18Z</time>
      </trkpt>
      <trkpt lat="43.69695" lon="3.14126">
        <ele>600.788</ele>
        <time>2019-12-05T17:21:38Z</time>
      </trkpt>
      <trkpt lat="43.69684" lon="3.14035">
        <ele>611.467</ele>
        <time>2019-12-05T17:21:58Z</time>
      </trkpt>
      <trkpt lat="43.69692" lon="3.13999">
        <ele>622.084</ele>
        <time>2019-12-05T17:22:18Z</time>
      </trkpt>
      <trkpt lat="43.69677" lon="3.13965">
        <ele>626.155</ele>
        <time>2019-12-05T17:22:38Z</time>
      </trkpt>
      <trkpt lat="43.69619" lon="3.13982">
        <ele>619.544</ele>
        <time>2019-12-05T17:22:58Z</time>
      </trkpt>
      <trkpt lat="43.69567" lon="3.13973">
        <ele>616.515</ele>
        <time>2019-12-05T17:23:18Z</time>
      </trkpt>
      <trkpt lat="43.69521" lon="3.1391">
        <ele>613.938</ele>
        <time>2019-12-05T17:23:38Z</time>
      </trkpt>
      <trkpt lat="43.69417" lon="3.13897">
        <ele>622.07</ele>
        <time>2019-12-05T17:23:58Z</time>
      </trkpt>
      <trkpt lat="43.69415" lon="3.1387">
        <ele>627.017</ele>
        <time>2019-12-05T17:24:18Z</time>
      </trkpt>
      <trkpt lat="43.69401" lon="3.13849">
        <ele>625.108</ele>
        <time>2019-12-05T17:24:38Z</time>
      </trkpt>
      <trkpt lat="43.69442" lon="3.13753">
        <ele>634.86</ele>
        <time>2019-12-05T17:24:58Z</time>
      </trkpt>
      <trkpt lat="43.69457" lon="3.13664">
        <ele>641.973</ele>
        <time>2019-12-05T17:25:18Z</time>
      </trkpt>
      <trkpt lat="43.69455" lon="3.13449">
        <ele>653.159</ele>
        <time>2019-12-05T17:25:38Z</time>
      </trkpt>
      <trkpt lat="43.69373" lon="3.13337">
        <ele>657.758</ele>
        <time>2019-12-05T17:25:58Z</time>
      </trkpt>
      <trkpt lat="43.69473" lon="3.13197">
        <ele>667.845</ele>
        <time>2019-12-05T17:26:18Z</time>
      </trkpt>
      <trkpt lat="43.69525" lon="3.13157">
        <ele>673.776</ele>
        <time>2019-12-05T17:26:38Z</time>
      </trkpt>
      <trkpt lat="43.6964" lon="3.13265">
        <ele>674.665</ele>
        <time>2019-12-05T17:26:58Z</time>
      </trkpt>
      <trkpt lat="43.69764" lon="3.13319">
        <ele>666.196</ele>
        <time>2019-12-05T17:27:18Z</time>
      </trkpt>
      <trkpt lat="43.69856" lon="3.13453">
        <ele>663.466</ele>
        <time>2019-12-05T17:27:38Z</time>
      </trkpt>
      <trkpt lat="43.69913" lon="3.13408">
        <ele>648.029</ele>
        <time>2019-12-05T17:27:58Z</time>
      </trkpt>
      <trkpt lat="43.69953" lon="3.13415">
        <ele>655.321</ele>
        <time>2019-12-05T17:28:18Z</time>
      </trkpt>
      <trkpt lat="43.6996" lon="3.13361">
        <ele>650.608</ele>
        <time>2019-12-05T17:28:38Z</time>
      </trkpt>
      <trkpt lat="43.6996" lon="3.13298">
        <ele>645.323</ele>
        <time>2019-12-05T17:28:58Z</time>
      </trkpt>
      <trkpt lat="43.69981" lon="3.1324">
        <ele>643.526</ele>
        <time>2019-12-05T17:29:18Z</time>
      </trkpt>
      <trkpt lat="43.70058" lon="3.13217">
        <ele>638.492</ele>
        <time>2021-04-17T00:42:30Z</time>
      </trkpt>
      <trkpt lat="43.70141" lon="3.13236">
        <ele>637.271</ele>
        <time>2019-12-05T17:29:58Z</time>
      </trkpt>
      <trkpt lat="43.70193" lon="3.13198">
        <ele>636.428</ele>
        <time>2019-12-05T17:30:18Z</time>
      </trkpt>
      <trkpt lat="43.70198" lon="3.13109">
        <ele>633.519</ele>
        <time>2019-12-05T17:30:38Z</time>
      </trkpt>
      <trkpt lat="43.70168" lon="3.1308">
        <ele>629.948</ele>
        <time>2019-12-05T17:30:58Z</time>
      </trkpt>
      <trkpt lat="43.70116" lon="3.12997">
        <ele>629.949</ele>
        <time>2019-12-05T17:31:18Z</time>
      </trkpt>
      <trkpt lat="43.7002" lon="3.12933">
        <ele>620.842</ele>
        <time>2019-12-05T17:31:38Z</time>
      </trkpt>
      <trkpt lat="43.70008" lon="3.12901">
        <ele>617.422</ele>
        <time>2021-04-17T00:44:50Z</time>
      </trkpt>
      <trkpt lat="43.70015" lon="3.1279">
        <ele>616.314</ele>
        <time>2021-04-17T00:45:10Z</time>
      </trkpt>
      <trkpt lat="43.70029" lon="3.12724">
        <ele>614.508</ele>
        <time>2019-12-05T17:32:18Z</time>
      </trkpt>
      <trkpt lat="43.69969" lon="3.12629">
        <ele>607.441</ele>
        <time>2019-12-05T17:32:38Z</time>
      </trkpt>
      <trkpt lat="43.69975" lon="3.12587">
        <ele>606.144</ele>
        <time>2019-12-05T17:32:58Z</time>
      </trkpt>
      <trkpt lat="43.70016" lon="3.12539">
        <ele>606.71</ele>
        <time>2021-04-17T00:46:30Z</time>
      </trkpt>
      <trkpt lat="43.70108" lon="3.12486">
        <ele>598.649</ele>
        <time>2019-12-05T17:33:38Z</time>
      </trkpt>
      <trkpt lat="43.70159" lon="3.12496">
        <ele>603.466</ele>
        <time>2019-12-05T17:33:58Z</time>
      </trkpt>
      <trkpt lat="43.70203" lon="3.12395">
        <ele>596.177</ele>
        <time>2019-12-05T17:34:18Z</time>
      </trkpt>
      <trkpt lat="43.70308" lon="3.12207">
        <ele>596.676</ele>
        <time>2019-12-05T17:34:38Z</time>
      </trkpt>
      <trkpt lat="43.70336" lon="3.12142">
        <ele>598.897</ele>
        <time>2019-12-05T17:34:58Z</time>
      </trkpt>
      <trkpt lat="43.70382" lon="3.12117">
        <ele>595.957</ele>
        <time>2019-12-05T17:35:18Z</time>
      </trkpt>
      <trkpt lat="43.70396" lon="3.12056">
        <ele>603.7</ele>
        <time>2019-12-05T17:35:38Z</time>
      </trkpt>
      <trkpt lat="43.70454" lon="3.11985">
        <ele>605.52</ele>
        <time>2019-12-05T17:35:58Z</time>
      </trkpt>
      <trkpt lat="43.70503" lon="3.11977">
        <ele>604.508</ele>
        <time>2019-12-05T17:36:18Z</time>
      </trkpt>
      <trkpt lat="43.706" lon="3.11886">
        <ele>608.592</ele>
        <time>2019-12-05T17:36:38Z</time>
      </trkpt>
      <trkpt lat="43.70615" lon="3.11834">
        <ele>631.395</ele>
        <time>2021-04-17T00:50:10Z</time>
      </trkpt>
      <trkpt lat="43.70668" lon="3.11828">
        <ele>627.531</ele>
        <time>2021-04-17T00:50:30Z</time>
      </trkpt>
      <trkpt lat="43.70749" lon="3.11877">
        <ele>613.03</ele>
        <time>2021-04-17T00:50:50Z</time>
      </trkpt>
      <trkpt lat="43.7077" lon="3.11872">
        <ele>609.177</ele>
        <time>2021-04-17T00:51:10Z</time>
      </trkpt>
      <trkpt lat="43.70783" lon="3.11765">
        <ele>616.268</ele>
        <time>2019-12-05T17:38:18Z</time>
      </trkpt>
      <trkpt lat="43.70737" lon="3.11718">
        <ele>617.287</ele>
        <time>2019-12-05T17:38:38Z</time>
      </trkpt>
      <trkpt lat="43.70689" lon="3.11696">
        <ele>620.298</ele>
        <time>2019-12-05T17:38:58Z</time>
      </trkpt>
      <trkpt lat="43.70651" lon="3.11617">
        <ele>620.544</ele>
        <time>2019-12-05T17:39:18Z</time>
      </trkpt>
      <trkpt lat="43.70677" lon="3.11519">
        <ele>615.005</ele>
        <time>2019-12-05T17:39:38Z</time>
      </trkpt>
      <trkpt lat="43.70604" lon="3.11467">
        <ele>622.015</ele>
        <time>2019-12-05T17:39:58Z</time>
      </trkpt>
      <trkpt lat="43.70554" lon="3.11418">
        <ele>625.508</ele>
        <time>2019-12-05T17:40:18Z</time>
      </trkpt>
      <trkpt lat="43.70502" lon="3.11397">
        <ele>627.891</ele>
        <time>2019-12-05T17:40:38Z</time>
      </trkpt>
      <trkpt lat="43.70501" lon="3.11356">
        <ele>629.314</ele>
        <time>2019-12-05T17:40:58Z</time>
      </trkpt>
      <trkpt lat="43.70581" lon="3.11249">
        <ele>629.74</ele>
        <time>2019-12-05T17:41:18Z</time>
      </trkpt>
      <trkpt lat="43.70601" lon="3.11119">
        <ele>638.219</ele>
        <time>2019-12-05T17:41:38Z</time>
      </trkpt>
      <trkpt lat="43.70631" lon="3.1102">
        <ele>642.186</ele>
        <time>2019-12-05T17:41:58Z</time>
      </trkpt>
      <trkpt lat="43.7067" lon="3.10984">
        <ele>640.617</ele>
        <time>2019-12-05T17:42:18Z</time>
      </trkpt>
      <trkpt lat="43.70682" lon="3.10951">
        <ele>648.586</ele>
        <time>2019-12-05T17:42:38Z</time>
      </trkpt>
      <trkpt lat="43.70742" lon="3.10944">
        <ele>647.117</ele>
        <time>2019-12-05T17:42:58Z</time>
      </trkpt>
      <trkpt lat="43.7081" lon="3.10921">
        <ele>649.223</ele>
        <time>2021-04-17T00:56:30Z</time>
      </trkpt>
      <trkpt lat="43.70817" lon="3.1087">
        <ele>650.583</ele>
        <time>2019-12-05T17:43:38Z</time>
      </trkpt>
      <trkpt lat="43.70793" lon="3.10796">
        <ele>655.211</ele>
        <time>2019-12-05T17:43:58Z</time>
      </trkpt>
      <trkpt lat="43.70745" lon="3.10758">
        <ele>667.908</ele>
        <time>2019-12-05T17:44:18Z</time>
      </trkpt>
      <trkpt lat="43.70757" lon="3.10658">
        <ele>665.659</ele>
        <time>2019-12-05T17:44:38Z</time>
      </trkpt>
      <trkpt lat="43.7076" lon="3.10591">
        <ele>668.932</ele>
        <time>2019-12-05T17:44:58Z</time>
      </trkpt>
      <trkpt lat="43.70808" lon="3.10511">
        <ele>663.918</ele>
        <time>2019-12-05T17:45:18Z</time>
      </trkpt>
      <trkpt lat="43.70872" lon="3.10475">
        <ele>660.927</ele>
        <time>2019-12-05T17:45:38Z</time>
      </trkpt>
      <trkpt lat="43.70882" lon="3.10383">
        <ele>653.714</ele>
        <time>2019-12-05T17:45:58Z</time>
      </trkpt>
      <trkpt lat="43.70923" lon="3.10292">
        <ele>653.335</ele>
        <time>2019-12-05T17:46:18Z</time>
      </trkpt>
      <trkpt lat="43.7092" lon="3.10228">
        <ele>654.854</ele>
        <time>2019-12-05T17:46:38Z</time>
      </trkpt>
      <trkpt lat="43.7089" lon="3.10192">
        <ele>642.255</ele>
        <time>2019-12-05T17:46:58Z</time>
      </trkpt>
      <trkpt lat="43.70845" lon="3.1008">
        <ele>636.821</ele>
        <time>2019-12-05T17:47:18Z</time>
      </trkpt>
      <trkpt lat="43.70824" lon="3.0998">
        <ele>641.041</ele>
        <time>2019-12-05T17:47:38Z</time>
      </trkpt>
      <trkpt lat="43.70908" lon="3.09874">
        <ele>656.205</ele>
        <time>2019-12-05T17:47:58Z</time>
      </trkpt>
      <trkpt lat="43.70977" lon="3.09675">
        <ele>657.908</ele>
        <time>2019-12-05T17:48:18Z</time>
      </trkpt>
      <trkpt lat="43.71008" lon="3.09628">
        <ele>664.339</ele>
        <time>2019-12-05T17:48:38Z</time>
      </trkpt>
      <trkpt lat="43.71008" lon="3.09593">
        <ele>664.152</ele>
        <time>2019-12-05T17:48:58Z</time>
      </trkpt>
      <trkpt lat="43.70969" lon="3.09561">
        <ele>655.968</ele>
        <time>2019-12-05T17:49:18Z</time>
      </trkpt>
      <trkpt lat="43.7092" lon="3.09487">
        <ele>663.167</ele>
        <time>2019-12-05T17:49:38Z</time>
      </trkpt>
      <trkpt lat="43.70803" lon="3.09411">
        <ele>668.114</ele>
        <time>2019-12-05T17:49:58Z</time>
      </trkpt>
      <trkpt lat="43.70806" lon="3.0939">
        <ele>672.965</ele>
        <time>2019-12-05T17:50:18Z</time>
      </trkpt>
      <trkpt lat="43.70886" lon="3.09322">
        <ele>682.114</ele>
        <time>2019-12-05T17:50:38Z</time>
      </trkpt>
      <trkpt lat="43.70939" lon="3.09327">
        <ele>689.345</ele>
        <time>2019-12-05T17:50:58Z</time>
      </trkpt>
      <trkpt lat="43.71012" lon="3.09276">
        <ele>692.571</ele>
        <time>2019-12-05T17:51:18Z</time>
      </trkpt>
      <trkpt lat="43.71062" lon="3.0922">
        <ele>697.141</ele>
        <time>2019-12-05T17:51:38Z</time>
      </trkpt>
      <trkpt lat="43.71159" lon="3.09139">
        <ele>700.015</ele>
        <time>2019-12-05T17:51:58Z</time>
      </trkpt>
      <trkpt lat="43.7118" lon="3.09092">
        <ele>703.508</ele>
        <time>2019-12-05T17:52:18Z</time>
      </trkpt>
      <trkpt lat="43.71195" lon="3.09032">
        <ele>712.894</ele>
        <time>2019-12-05T17:52:38Z</time>
      </trkpt>
      <trkpt lat="43.7126" lon="3.08944">
        <ele>716.457</ele>
        <time>2019-12-05T17:52:58Z</time>
      </trkpt>
      <trkpt lat="43.71261" lon="3.08901">
        <ele>721.143</ele>
        <time>2019-12-05T17:53:18Z</time>
      </trkpt>
      <trkpt lat="43.71192" lon="3.08701">
        <ele>750.492</ele>
        <time>2019-12-05T17:53:38Z</time>
      </trkpt>
      <trkpt lat="43.71176" lon="3.08538">
        <ele>757.019</ele>
        <time>2019-12-05T17:53:58Z</time>
      </trkpt>
      <trkpt lat="43.71153" lon="3.08429">
        <ele>771.09</ele>
        <time>2019-12-05T17:54:18Z</time>
      </trkpt>
      <trkpt lat="43.71156" lon="3.083">
        <ele>781.869</ele>
        <time>2019-12-05T17:54:38Z</time>
      </trkpt>
      <trkpt lat="43.71145" lon="3.08209">
        <ele>787.01</ele>
        <time>2019-12-05T17:54:58Z</time>
      </trkpt>
      <trkpt lat="43.71158" lon="3.08167">
        <ele>788.225</ele>
        <time>2019-12-05T17:55:18Z</time>
      </trkpt>
      <trkpt lat="43.71164" lon="3.08125">
        <ele>803.426</ele>
        <time>2019-12-05T17:55:38Z</time>
      </trkpt>
      <trkpt lat="43.7124" lon="3.08026">
        <ele>811.208</ele>
        <time>2019-12-05T17:55:58Z</time>
      </trkpt>
      <trkpt lat="43.71226" lon="3.08021">
        <ele>816.208</ele>
        <time>2019-12-05T17:56:18Z</time>
      </trkpt>
      <trkpt lat="43.71152" lon="3.08091">
        <ele>816.879</ele>
        <time>2019-12-05T17:56:38Z</time>
      </trkpt>
      <trkpt lat="43.71097" lon="3.08204">
        <ele>822.052</ele>
        <time>2019-12-05T17:56:58Z</time>
      </trkpt>
      <trkpt lat="43.71079" lon="3.08345">
        <ele>818.948</ele>
        <time>2019-12-05T17:57:18Z</time>
      </trkpt>
      <trkpt lat="43.7104" lon="3.08399">
        <ele>820.687</ele>
        <time>2019-12-05T17:57:38Z</time>
      </trkpt>
      <trkpt lat="43.71032" lon="3.0839">
        <ele>823.314</ele>
        <time>2019-12-05T17:57:58Z</time>
      </trkpt>
      <trkpt lat="43.71064" lon="3.0835">
        <ele>824.485</ele>
        <time>2019-12-05T17:58:18Z</time>
      </trkpt>
      <trkpt lat="43.71064" lon="3.08184">
        <ele>841.324</ele>
        <time>2019-12-05T17:58:38Z</time>
      </trkpt>
      <trkpt lat="43.71094" lon="3.07996">
        <ele>861.765</ele>
        <time>2019-12-05T17:58:58Z</time>
      </trkpt>
      <trkpt lat="43.71154" lon="3.07935">
        <ele>859.654</ele>
        <time>2019-12-05T17:59:18Z</time>
      </trkpt>
      <trkpt lat="43.71092" lon="3.07924">
        <ele>860.356</ele>
        <time>2019-12-05T17:59:38Z</time>
      </trkpt>
      <trkpt lat="43.7104" lon="3.07896">
        <ele>858.011</ele>
        <time>2019-12-05T17:59:58Z</time>
      </trkpt>
      <trkpt lat="43.71004" lon="3.07844">
        <ele>852.908</ele>
        <time>2019-12-05T18:00:18Z</time>
      </trkpt>
      <trkpt lat="43.71004" lon="3.07773">
        <ele>843.972</ele>
        <time>2019-12-05T18:00:38Z</time>
      </trkpt>
      <trkpt lat="43.70945" lon="3.0775">
        <ele>845.045</ele>
        <time>2019-12-05T18:00:58Z</time>
      </trkpt>
      <trkpt lat="43.70895" lon="3.07771">
        <ele>841.031</ele>
        <time>2019-12-05T18:01:18Z</time>
      </trkpt>
      <trkpt lat="43.70846" lon="3.07744">
        <ele>833.57</ele>
        <time>2019-12-05T18:01:38Z</time>
      </trkpt>
      <trkpt lat="43.70802" lon="3.07746">
        <ele>837.347</ele>
        <time>2019-12-05T18:01:58Z</time>
      </trkpt>
      <trkpt lat="43.70751" lon="3.07723">
        <ele>839.888</ele>
        <time>2019-12-05T18:02:18Z</time>
      </trkpt>
      <trkpt lat="43.70731" lon="3.07631">
        <ele>844.347</ele>
        <time>2019-12-05T18:02:38Z</time>
      </trkpt>
      <trkpt lat="43.7073" lon="3.07498">
        <ele>850.328</ele>
        <time>2019-12-05T18:02:58Z</time>
      </trkpt>
      <trkpt lat="43.70726" lon="3.07387">
        <ele>858.365</ele>
        <time>2019-12-05T18:03:18Z</time>
      </trkpt>
      <trkpt lat="43.70707" lon="3.07316">
        <ele>864.568</ele>
        <time>2019-12-05T18:03:38Z</time>
      </trkpt>
      <trkpt lat="43.70683" lon="3.07256">
        <ele>871.914</ele>
        <time>2019-12-05T18:03:58Z</time>
      </trkpt>
      <trkpt lat="43.70691" lon="3.07211">
        <ele>875.808</ele>
        <time>2019-12-05T18:04:18Z</time>
      </trkpt>
      <trkpt lat="43.70765" lon="3.07117">
        <ele>885.833</ele>
        <time>2019-12-05T18:04:38Z</time>
      </trkpt>
      <trkpt lat="43.70852" lon="3.07081">
        <ele>894.536</ele>
        <time>2019-12-05T18:04:58Z</time>
      </trkpt>
      <trkpt lat="43.70875" lon="3.07039">
        <ele>897.262</ele>
        <time>2019-12-05T18:05:18Z</time>
      </trkpt>
      <trkpt lat="43.70915" lon="3.0692">
        <ele>908.531</ele>
        <time>2019-12-05T18:05:38Z</time>
      </trkpt>
      <trkpt lat="43.70994" lon="3.06832">
        <ele>917.528</ele>
        <time>2019-12-05T18:05:58Z</time>
      </trkpt>
      <trkpt lat="43.71026" lon="3.06731">
        <ele>926.859</ele>
        <time>2019-12-05T18:06:18Z</time>
      </trkpt>
      <trkpt lat="43.7107" lon="3.06646">
        <ele>930.898</ele>
        <time>2019-12-05T18:06:38Z</time>
      </trkpt>
      <trkpt lat="43.71089" lon="3.06528">
        <ele>947.219</ele>
        <time>2019-12-05T18:06:58Z</time>
      </trkpt>
      <trkpt lat="43.70993" lon="3.06503">
        <ele>942.921</ele>
        <time>2019-12-05T18:07:18Z</time>
      </trkpt>
      <trkpt lat="43.70963" lon="3.06529">
        <ele>944.541</ele>
        <time>2019-12-05T18:07:38Z</time>
      </trkpt>
      <trkpt lat="43.70912" lon="3.06683">
        <ele>943.805</ele>
        <time>2019-12-05T18:07:58Z</time>
      </trkpt>
      <trkpt lat="43.70842" lon="3.06796">
        <ele>939.508</ele>
        <time>2019-12-05T18:08:18Z</time>
      </trkpt>
      <trkpt lat="43.70786" lon="3.06827">
        <ele>937.269</ele>
        <time>2019-12-05T18:08:38Z</time>
      </trkpt>
      <trkpt lat="43.70676" lon="3.06808">
        <ele>928.822</ele>
        <time>2021-04-17T01:22:10Z</time>
      </trkpt>
      <trkpt lat="43.70603" lon="3.06746">
        <ele>919.028</ele>
        <time>2019-12-05T18:09:18Z</time>
      </trkpt>
      <trkpt lat="43.70592" lon="3.06702">
        <ele>917.367</ele>
        <time>2019-12-05T18:09:38Z</time>
      </trkpt>
      <trkpt lat="43.70524" lon="3.06589">
        <ele>918.874</ele>
        <time>2019-12-05T18:09:58Z</time>
      </trkpt>
      <trkpt lat="43.7048" lon="3.06584">
        <ele>919.965</ele>
        <time>2019-12-05T18:10:18Z</time>
      </trkpt>
      <trkpt lat="43.7043" lon="3.06507">
        <ele>924.974</ele>
        <time>2019-12-05T18:10:38Z</time>
      </trkpt>
      <trkpt lat="43.70435" lon="3.0644">
        <ele>925.845</ele>
        <time>2019-12-05T18:10:58Z</time>
      </trkpt>
      <trkpt lat="43.70425" lon="3.06354">
        <ele>928.953</ele>
        <time>2019-12-05T18:11:18Z</time>
      </trkpt>
      <trkpt lat="43.70412" lon="3.0629">
        <ele>938.604</ele>
        <time>2019-12-05T18:11:38Z</time>
      </trkpt>
      <trkpt lat="43.70435" lon="3.06265">
        <ele>930.614</ele>
        <time>2019-12-05T18:11:58Z</time>
      </trkpt>
      <trkpt lat="43.70461" lon="3.06215">
        <ele>935.508</ele>
        <time>2019-12-05T18:12:18Z</time>
      </trkpt>
      <trkpt lat="43.70498" lon="3.06189">
        <ele>930.082</ele>
        <time>2019-12-05T18:12:38Z</time>
      </trkpt>
      <trkpt lat="43.70509" lon="3.06115">
        <ele>932.575</ele>
        <time>2019-12-05T18:12:58Z</time>
      </trkpt>
      <trkpt lat="43.70497" lon="3.05911">
        <ele>924.191</ele>
        <time>2019-12-05T18:13:18Z</time>
      </trkpt>
      <trkpt lat="43.70475" lon="3.05862">
        <ele>920.75</ele>
        <time>2019-12-05T18:13:38Z</time>
      </trkpt>
      <trkpt lat="43.70417" lon="3.05869">
        <ele>922.447</ele>
        <time>2021-04-17T01:27:10Z</time>
      </trkpt>
      <trkpt lat="43.70366" lon="3.05859">
        <ele>921.368</ele>
        <time>2021-04-17T01:27:30Z</time>
      </trkpt>
      <trkpt lat="43.70232" lon="3.0576">
        <ele>903.077</ele>
        <time>2019-12-05T18:14:18Z</time>
      </trkpt>
      <trkpt lat="43.70115" lon="3.0605">
        <ele>928.088</ele>
        <time>2019-12-05T18:14:38Z</time>
      </trkpt>
      <trkpt lat="43.70001" lon="3.06027">
        <ele>926.732</ele>
        <time>2019-12-05T18:14:58Z</time>
      </trkpt>
      <trkpt lat="43.69921" lon="3.05985">
        <ele>932.292</ele>
        <time>2019-12-05T18:15:18Z</time>
      </trkpt>
      <trkpt lat="43.6986" lon="3.05925">
        <ele>927.711</ele>
        <time>2019-12-05T18:15:38Z</time>
      </trkpt>
      <trkpt lat="43.69794" lon="3.05903">
        <ele>916.608</ele>
        <time>2019-12-05T18:15:58Z</time>
      </trkpt>
      <trkpt lat="43.69723" lon="3.05969">
        <ele>910.58</ele>
        <time>2019-12-05T18:16:18Z</time>
      </trkpt>
      <trkpt lat="43.69672" lon="3.06058">
        <ele>909.183</ele>
        <time>2019-12-05T18:16:38Z</time>
      </trkpt>
      <trkpt lat="43.69587" lon="3.06089">
        <ele>905.239</ele>
        <time>2019-12-05T18:16:58Z</time>
      </trkpt>
      <trkpt lat="43.69472" lon="3.06046">
        <ele>906.388</ele>
        <time>2019-12-05T18:17:18Z</time>
      </trkpt>
      <trkpt lat="43.6937" lon="3.05988">
        <ele>916.075</ele>
        <time>2019-12-05T18:17:38Z</time>
      </trkpt>
      <trkpt lat="43.69369" lon="3.05952">
        <ele>913.996</ele>
        <time>2019-12-05T18:17:58Z</time>
      </trkpt>
      <trkpt lat="43.69409" lon="3.05842">
        <ele>915.765</ele>
        <time>2019-12-05T18:18:18Z</time>
      </trkpt>
      <trkpt lat="43.6945" lon="3.05818">
        <ele>909.936</ele>
        <time>2019-12-05T18:18:38Z</time>
      </trkpt>
      <trkpt lat="43.69511" lon="3.0572">
        <ele>902.039</ele>
        <time>2019-12-05T18:18:58Z</time>
      </trkpt>
      <trkpt lat="43.69532" lon="3.05617">
        <ele>896.501</ele>
        <time>2019-12-05T18:19:18Z</time>
      </trkpt>
      <trkpt lat="43.69518" lon="3.05465">
        <ele>892.921</ele>
        <time>2019-12-05T18:19:38Z</time>
      </trkpt>
      <trkpt lat="43.69521" lon="3.05409">
        <ele>889.608</ele>
        <time>2019-12-05T18:19:58Z</time>
      </trkpt>
      <trkpt lat="43.69541" lon="3.05317">
        <ele>889.84</ele>
        <time>2019-12-05T18:20:18Z</time>
      </trkpt>
      <trkpt lat="43.6957" lon="3.05215">
        <ele>881.083</ele>
        <time>2019-12-05T18:20:38Z</time>
      </trkpt>
      <trkpt lat="43.69571" lon="3.05159">
        <ele>871.989</ele>
        <time>2019-12-05T18:20:58Z</time>
      </trkpt>
      <trkpt lat="43.69648" lon="3.05015">
        <ele>858.188</ele>
        <time>2019-12-05T18:21:18Z</time>
      </trkpt>
      <trkpt lat="43.69632" lon="3.04905">
        <ele>853.045</ele>
        <time>2019-12-05T18:21:38Z</time>
      </trkpt>
      <trkpt lat="43.69663" lon="3.04883">
        <ele>855.166</ele>
        <time>2019-12-05T18:21:58Z</time>
      </trkpt>
      <trkpt lat="43.69703" lon="3.04748">
        <ele>844.665</ele>
        <time>2019-12-05T18:22:18Z</time>
      </trkpt>
      <trkpt lat="43.69725" lon="3.04574">
        <ele>838.746</ele>
        <time>2019-12-05T18:22:38Z</time>
      </trkpt>
      <trkpt lat="43.69713" lon="3.04478">
        <ele>835.343</ele>
        <time>2019-12-05T18:22:58Z</time>
      </trkpt>
      <trkpt lat="43.69654" lon="3.04378">
        <ele>831.664</ele>
        <time>2019-12-05T18:23:18Z</time>
      </trkpt>
      <trkpt lat="43.69589" lon="3.04372">
        <ele>829.91</ele>
        <time>2019-12-05T18:23:38Z</time>
      </trkpt>
      <trkpt lat="43.69508" lon="3.044">
        <ele>828.708</ele>
        <time>2019-12-05T18:23:58Z</time>
      </trkpt>
      <trkpt lat="43.69514" lon="3.04372">
        <ele>829.251</ele>
        <time>2019-12-05T18:24:18Z</time>
      </trkpt>
      <trkpt lat="43.69628" lon="3.0431">
        <ele>816.144</ele>
        <time>2019-12-05T18:24:38Z</time>
      </trkpt>
      <trkpt lat="43.69531" lon="3.0432">
        <ele>816.05</ele>
        <time>2019-12-05T18:24:58Z</time>
      </trkpt>
      <trkpt lat="43.69515" lon="3.0429">
        <ele>813.079</ele>
        <time>2019-12-05T18:25:18Z</time>
      </trkpt>
      <trkpt lat="43.69512" lon="3.0421">
        <ele>804.966</ele>
        <time>2019-12-05T18:25:38Z</time>
      </trkpt>
      <trkpt lat="43.69474" lon="3.04088">
        <ele>787.737</ele>
        <time>2019-12-05T18:25:58Z</time>
      </trkpt>
      <trkpt lat="43.69424" lon="3.04006">
        <ele>775.366</ele>
        <time>2019-12-05T18:26:18Z</time>
      </trkpt>
      <trkpt lat="43.69385" lon="3.0396">
        <ele>772.877</ele>
        <time>2019-12-05T18:26:38Z</time>
      </trkpt>
      <trkpt lat="43.69372" lon="3.03882">
        <ele>765.076</ele>
        <time>2019-12-05T18:26:58Z</time>
      </trkpt>
      <trkpt lat="43.69308" lon="3.03906">
        <ele>761.99</ele>
        <time>2019-12-05T18:27:18Z</time>
      </trkpt>
      <trkpt lat="43.693" lon="3.03903">
        <ele>759.019</ele>
        <time>2019-12-05T18:27:38Z</time>
      </trkpt>
      <trkpt lat="43.69217" lon="3.04025">
        <ele>743.708</ele>
        <time>2019-12-05T18:27:58Z</time>
      </trkpt>
      <trkpt lat="43.69217" lon="3.04056">
        <ele>744.574</ele>
        <time>2019-12-05T18:28:18Z</time>
      </trkpt>
      <trkpt lat="43.69233" lon="3.04111">
        <ele>751.227</ele>
        <time>2019-12-05T18:28:38Z</time>
      </trkpt>
      <trkpt lat="43.69159" lon="3.04163">
        <ele>742.733</ele>
        <time>2019-12-05T18:28:58Z</time>
      </trkpt>
      <trkpt lat="43.69068" lon="3.04161">
        <ele>727.232</ele>
        <time>2019-12-05T18:29:18Z</time>
      </trkpt>
      <trkpt lat="43.68994" lon="3.04141">
        <ele>714.949</ele>
        <time>2019-12-05T18:29:38Z</time>
      </trkpt>
      <trkpt lat="43.68867" lon="3.04181">
        <ele>713.46</ele>
        <time>2019-12-05T18:29:58Z</time>
      </trkpt>
      <trkpt lat="43.68824" lon="3.04224">
        <ele>710.059</ele>
        <time>2019-12-05T18:30:18Z</time>
      </trkpt>
      <trkpt lat="43.68819" lon="3.04279">
        <ele>707.49</ele>
        <time>2019-12-05T18:30:38Z</time>
      </trkpt>
      <trkpt lat="43.68826" lon="3.04344">
        <ele>702.359</ele>
        <time>2019-12-05T18:30:58Z</time>
      </trkpt>
      <trkpt lat="43.68787" lon="3.04231">
        <ele>694.303</ele>
        <time>2019-12-05T18:31:18Z</time>
      </trkpt>
      <trkpt lat="43.68802" lon="3.04158">
        <ele>688.123</ele>
        <time>2019-12-05T18:31:38Z</time>
      </trkpt>
      <trkpt lat="43.68871" lon="3.04106">
        <ele>682.308</ele>
        <time>2019-12-05T18:31:58Z</time>
      </trkpt>
      <trkpt lat="43.68903" lon="3.04093">
        <ele>681.692</ele>
        <time>2019-12-05T18:32:18Z</time>
      </trkpt>
      <trkpt lat="43.68865" lon="3.04092">
        <ele>675.925</ele>
        <time>2019-12-05T18:32:38Z</time>
      </trkpt>
      <trkpt lat="43.6878" lon="3.04112">
        <ele>666.861</ele>
        <time>2019-12-05T18:32:58Z</time>
      </trkpt>
      <trkpt lat="43.68733" lon="3.04154">
        <ele>657.64</ele>
        <time>2019-12-05T18:33:18Z</time>
      </trkpt>
      <trkpt lat="43.68707" lon="3.04234">
        <ele>651.237</ele>
        <time>2019-12-05T18:33:38Z</time>
      </trkpt>
      <trkpt lat="43.68713" lon="3.04146">
        <ele>645.918</ele>
        <time>2019-12-05T18:33:58Z</time>
      </trkpt>
      <trkpt lat="43.68729" lon="3.04102">
        <ele>642.547</ele>
        <time>2019-12-05T18:34:18Z</time>
      </trkpt>
      <trkpt lat="43.68698" lon="3.04137">
        <ele>636.298</ele>
        <time>2019-12-05T18:34:38Z</time>
      </trkpt>
      <trkpt lat="43.68681" lon="3.04188">
        <ele>635.665</ele>
        <time>2019-12-05T18:34:58Z</time>
      </trkpt>
      <trkpt lat="43.68657" lon="3.04217">
        <ele>630.468</ele>
        <time>2019-12-05T18:35:18Z</time>
      </trkpt>
      <trkpt lat="43.68618" lon="3.04217">
        <ele>622.914</ele>
        <time>2019-12-05T18:35:38Z</time>
      </trkpt>
      <trkpt lat="43.68615" lon="3.04237">
        <ele>623.408</ele>
        <time>2019-12-05T18:35:58Z</time>
      </trkpt>
      <trkpt lat="43.68641" lon="3.04275">
        <ele>625.043</ele>
        <time>2019-12-05T18:36:18Z</time>
      </trkpt>
      <trkpt lat="43.68613" lon="3.04264">
        <ele>618.096</ele>
        <time>2019-12-05T18:36:38Z</time>
      </trkpt>
      <trkpt lat="43.6858" lon="3.04228">
        <ele>612.532</ele>
        <time>2019-12-05T18:36:58Z</time>
      </trkpt>
      <trkpt lat="43.68515" lon="3.04216">
        <ele>600.981</ele>
        <time>2019-12-05T18:37:18Z</time>
      </trkpt>
      <trkpt lat="43.6847" lon="3.04146">
        <ele>596.468</ele>
        <time>2019-12-05T18:37:38Z</time>
      </trkpt>
      <trkpt lat="43.68425" lon="3.04036">
        <ele>583.499</ele>
        <time>2019-12-05T18:37:58Z</time>
      </trkpt>
      <trkpt lat="43.68366" lon="3.03983">
        <ele>575.248</ele>
        <time>2019-12-05T18:38:18Z</time>
      </trkpt>
      <trkpt lat="43.68328" lon="3.03963">
        <ele>571.859</ele>
        <time>2019-12-05T18:38:38Z</time>
      </trkpt>
      <trkpt lat="43.68291" lon="3.03844">
        <ele>559.924</ele>
        <time>2019-12-05T18:38:58Z</time>
      </trkpt>
      <trkpt lat="43.68227" lon="3.03757">
        <ele>554.804</ele>
        <time>2019-12-05T18:39:18Z</time>
      </trkpt>
      <trkpt lat="43.68195" lon="3.03674">
        <ele>544.214</ele>
        <time>2019-12-05T18:39:38Z</time>
      </trkpt>
      <trkpt lat="43.6816" lon="3.03622">
        <ele>535.308</ele>
        <time>2019-12-05T18:39:58Z</time>
      </trkpt>
      <trkpt lat="43.68114" lon="3.03628">
        <ele>530.049</ele>
        <time>2019-12-05T18:40:18Z</time>
      </trkpt>
      <trkpt lat="43.68002" lon="3.03565">
        <ele>504.532</ele>
        <time>2019-12-05T18:40:38Z</time>
      </trkpt>
      <trkpt lat="43.67984" lon="3.03531">
        <ele>500.958</ele>
        <time>2019-12-05T18:40:58Z</time>
      </trkpt>
      <trkpt lat="43.67953" lon="3.03488">
        <ele>488.587</ele>
        <time>2019-12-05T18:41:18Z</time>
      </trkpt>
      <trkpt lat="43.67952" lon="3.0342">
        <ele>481.364</ele>
        <time>2019-12-05T18:41:38Z</time>
      </trkpt>
      <trkpt lat="43.67965" lon="3.03369">
        <ele>469.865</ele>
        <time>2019-12-05T18:41:58Z</time>
      </trkpt>
      <trkpt lat="43.67888" lon="3.03441">
        <ele>452.434</ele>
        <time>2019-12-05T18:42:18Z</time>
      </trkpt>
      <trkpt lat="43.67888" lon="3.03395">
        <ele>443.115</ele>
        <time>2019-12-05T18:42:38Z</time>
      </trkpt>
      <trkpt lat="43.67927" lon="3.03293">
        <ele>431.699</ele>
        <time>2021-04-17T01:56:30Z</time>
      </trkpt>
      <trkpt lat="43.67983" lon="3.03278">
        <ele>431.207</ele>
        <time>2021-04-17T01:56:50Z</time>
      </trkpt>
      <trkpt lat="43.67945" lon="3.03268">
        <ele>426.627</ele>
        <time>2021-04-17T01:57:10Z</time>
      </trkpt>
      <trkpt lat="43.67906" lon="3.03278">
        <ele>425.708</ele>
        <time>2021-04-17T01:57:30Z</time>
      </trkpt>
      <trkpt lat="43.67888" lon="3.03288">
        <ele>423.596</ele>
        <time>2021-04-17T01:57:50Z</time>
      </trkpt>
      <trkpt lat="43.6787" lon="3.03281">
        <ele>418.719</ele>
        <time>2021-04-17T01:58:10Z</time>
      </trkpt>
      <trkpt lat="43.67848" lon="3.03312">
        <ele>413.045</ele>
        <time>2019-12-05T18:44:38Z</time>
      </trkpt>
      <trkpt lat="43.67819" lon="3.03335">
        <ele>409.584</ele>
        <time>2019-12-05T18:44:58Z</time>
      </trkpt>
      <trkpt lat="43.67789" lon="3.03331">
        <ele>403.961</ele>
        <time>2019-12-05T18:45:18Z</time>
      </trkpt>
      <trkpt lat="43.67754" lon="3.03339">
        <ele>401.892</ele>
        <time>2019-12-05T18:45:38Z</time>
      </trkpt>
      <trkpt lat="43.67711" lon="3.03326">
        <ele>401.021</ele>
        <time>2019-12-05T18:45:58Z</time>
      </trkpt>
      <trkpt lat="43.67645" lon="3.03359">
        <ele>405.332</ele>
        <time>2019-12-05T18:46:18Z</time>
      </trkpt>
      <trkpt lat="43.67577" lon="3.03389">
        <ele>406.556</ele>
        <time>2019-12-05T18:46:38Z</time>
      </trkpt>
      <trkpt lat="43.67448" lon="3.03413">
        <ele>419.859</ele>
        <time>2019-12-05T18:46:58Z</time>
      </trkpt>
      <trkpt lat="43.67352" lon="3.03448">
        <ele>420.014</ele>
        <time>2019-12-05T18:47:18Z</time>
      </trkpt>
      <trkpt lat="43.67302" lon="3.03404">
        <ele>420.808</ele>
        <time>2019-12-05T18:47:38Z</time>
      </trkpt>
      <trkpt lat="43.67234" lon="3.03409">
        <ele>410.142</ele>
        <time>2019-12-05T18:47:58Z</time>
      </trkpt>
      <trkpt lat="43.67212" lon="3.03361">
        <ele>412.565</ele>
        <time>2019-12-05T18:48:18Z</time>
      </trkpt>
      <trkpt lat="43.67135" lon="3.0329">
        <ele>407.891</ele>
        <time>2019-12-05T18:48:38Z</time>
      </trkpt>
      <trkpt lat="43.67068" lon="3.03332">
        <ele>414.49</ele>
        <time>2019-12-05T18:48:58Z</time>
      </trkpt>
      <trkpt lat="43.67041" lon="3.0339">
        <ele>418.197</ele>
        <time>2019-12-05T18:49:18Z</time>
      </trkpt>
      <trkpt lat="43.66995" lon="3.03434">
        <ele>427.288</ele>
        <time>2019-12-05T18:49:38Z</time>
      </trkpt>
      <trkpt lat="43.66949" lon="3.03404">
        <ele>430.467</ele>
        <time>2019-12-05T18:49:58Z</time>
      </trkpt>
      <trkpt lat="43.66909" lon="3.03428">
        <ele>428.918</ele>
        <time>2019-12-05T18:50:18Z</time>
      </trkpt>
      <trkpt lat="43.66876" lon="3.03425">
        <ele>435.623</ele>
        <time>2019-12-05T18:50:38Z</time>
      </trkpt>
      <trkpt lat="43.66823" lon="3.035">
        <ele>434.483</ele>
        <time>2019-12-05T18:50:58Z</time>
      </trkpt>
      <trkpt lat="43.66793" lon="3.0358">
        <ele>436.811</ele>
        <time>2019-12-05T18:51:18Z</time>
      </trkpt>
      <trkpt lat="43.66743" lon="3.03639">
        <ele>441.008</ele>
        <time>2019-12-05T18:51:38Z</time>
      </trkpt>
      <trkpt lat="43.66692" lon="3.03659">
        <ele>436.399</ele>
        <time>2019-12-05T18:51:58Z</time>
      </trkpt>
      <trkpt lat="43.66621" lon="3.03566">
        <ele>433.192</ele>
        <time>2019-12-05T18:52:18Z</time>
      </trkpt>
      <trkpt lat="43.66579" lon="3.03585">
        <ele>430.228</ele>
        <time>2019-12-05T18:52:38Z</time>
      </trkpt>
      <trkpt lat="43.66526" lon="3.03631">
        <ele>431.027</ele>
        <time>2019-12-05T18:52:58Z</time>
      </trkpt>
      <trkpt lat="43.66478" lon="3.03626">
        <ele>431.464</ele>
        <time>2019-12-05T18:53:18Z</time>
      </trkpt>
      <trkpt lat="43.6637" lon="3.0369">
        <ele>429.535</ele>
        <time>2019-12-05T18:53:38Z</time>
      </trkpt>
      <trkpt lat="43.66321" lon="3.03743">
        <ele>426.214</ele>
        <time>2019-12-05T18:53:58Z</time>
      </trkpt>
      <trkpt lat="43.66289" lon="3.03792">
        <ele>424.575</ele>
        <time>2019-12-05T18:54:18Z</time>
      </trkpt>
      <trkpt lat="43.66228" lon="3.03826">
        <ele>420.035</ele>
        <time>2019-12-05T18:54:38Z</time>
      </trkpt>
      <trkpt lat="43.66179" lon="3.03866">
        <ele>419.986</ele>
        <time>2019-12-05T18:54:58Z</time>
      </trkpt>
      <trkpt lat="43.66138" lon="3.03852">
        <ele>413.114</ele>
        <time>2019-12-05T18:55:18Z</time>
      </trkpt>
      <trkpt lat="43.66091" lon="3.03898">
        <ele>415.008</ele>
        <time>2019-12-05T18:55:38Z</time>
      </trkpt>
      <trkpt lat="43.66057" lon="3.03914">
        <ele>410.23</ele>
        <time>2019-12-05T18:55:58Z</time>
      </trkpt>
      <trkpt lat="43.66025" lon="3.0394">
        <ele>407.173</ele>
        <time>2019-12-05T18:56:18Z</time>
      </trkpt>
      <trkpt lat="43.65979" lon="3.03958">
        <ele>393.999</ele>
        <time>2019-12-05T18:56:38Z</time>
      </trkpt>
      <trkpt lat="43.65949" lon="3.03958">
        <ele>378.968</ele>
        <time>2019-12-05T18:56:58Z</time>
      </trkpt>
      <trkpt lat="43.6596" lon="3.03916">
        <ele>371.465</ele>
        <time>2019-12-05T18:57:18Z</time>
      </trkpt>
      <trkpt lat="43.6592" lon="3.03944">
        <ele>360.326</ele>
        <time>2019-12-05T18:57:38Z</time>
      </trkpt>
      <trkpt lat="43.65902" lon="3.0392">
        <ele>347.165</ele>
        <time>2019-12-05T18:57:58Z</time>
      </trkpt>
      <trkpt lat="43.65885" lon="3.0394">
        <ele>347.086</ele>
        <time>2019-12-05T18:58:18Z</time>
      </trkpt>
      <trkpt lat="43.65863" lon="3.03942">
        <ele>342.727</ele>
        <time>2019-12-05T18:58:38Z</time>
      </trkpt>
      <trkpt lat="43.65831" lon="3.03934">
        <ele>330.968</ele>
        <time>2019-12-05T18:58:58Z</time>
      </trkpt>
      <trkpt lat="43.65811" lon="3.03949">
        <ele>325.914</ele>
        <time>2019-12-05T18:59:18Z</time>
      </trkpt>
      <trkpt lat="43.65777" lon="3.03993">
        <ele>321.108</ele>
        <time>2019-12-05T18:59:38Z</time>
      </trkpt>
      <trkpt lat="43.65753" lon="3.04005">
        <ele>316.989</ele>
        <time>2019-12-05T18:59:58Z</time>
      </trkpt>
      <trkpt lat="43.65733" lon="3.0403">
        <ele>316.252</ele>
        <time>2019-12-05T19:00:18Z</time>
      </trkpt>
      <trkpt lat="43.65681" lon="3.03987">
        <ele>316.068</ele>
        <time>2019-12-05T19:00:38Z</time>
      </trkpt>
      <trkpt lat="43.65615" lon="3.0405">
        <ele>316.977</ele>
        <time>2019-12-05T19:00:58Z</time>
      </trkpt>
      <trkpt lat="43.65575" lon="3.04066">
        <ele>319.854</ele>
        <time>2019-12-05T19:01:18Z</time>
      </trkpt>
      <trkpt lat="43.65543" lon="3.04146">
        <ele>324.455</ele>
        <time>2019-12-05T19:01:38Z</time>
      </trkpt>
      <trkpt lat="43.65505" lon="3.0416">
        <ele>330.124</ele>
        <time>2019-12-05T19:01:58Z</time>
      </trkpt>
      <trkpt lat="43.6544" lon="3.04146">
        <ele>331.465</ele>
        <time>2019-12-05T19:02:18Z</time>
      </trkpt>
      <trkpt lat="43.6532" lon="3.04084">
        <ele>327.524</ele>
        <time>2019-12-05T19:02:38Z</time>
      </trkpt>
      <trkpt lat="43.65253" lon="3.0402">
        <ele>321.104</ele>
        <time>2019-12-05T19:02:58Z</time>
      </trkpt>
      <trkpt lat="43.65203" lon="3.03924">
        <ele>324.114</ele>
        <time>2019-12-05T19:03:18Z</time>
      </trkpt>
      <trkpt lat="43.65197" lon="3.03884">
        <ele>331.108</ele>
        <time>2019-12-05T19:03:38Z</time>
      </trkpt>
      <trkpt lat="43.65158" lon="3.03844">
        <ele>332.179</ele>
        <time>2019-12-05T19:03:58Z</time>
      </trkpt>
      <trkpt lat="43.65152" lon="3.03788">
        <ele>336.972</ele>
        <time>2019-12-05T19:04:18Z</time>
      </trkpt>
      <trkpt lat="43.65129" lon="3.03757">
        <ele>338.788</ele>
        <time>2019-12-05T19:04:38Z</time>
      </trkpt>
      <trkpt lat="43.651" lon="3.03741">
        <ele>339.277</ele>
        <time>2019-12-05T19:04:58Z</time>
      </trkpt>
      <trkpt lat="43.65051" lon="3.03697">
        <ele>343.364</ele>
        <time>2019-12-05T19:05:18Z</time>
      </trkpt>
      <trkpt lat="43.6504" lon="3.03673">
        <ele>344.835</ele>
        <time>2019-12-05T19:05:38Z</time>
      </trkpt>
      <trkpt lat="43.65004" lon="3.03511">
        <ele>358.694</ele>
        <time>2019-12-05T19:05:58Z</time>
      </trkpt>
      <trkpt lat="43.64985" lon="3.03475">
        <ele>366.085</ele>
        <time>2019-12-05T19:06:18Z</time>
      </trkpt>
      <trkpt lat="43.64977" lon="3.03375">
        <ele>381.755</ele>
        <time>2019-12-05T19:06:38Z</time>
      </trkpt>
      <trkpt lat="43.64962" lon="3.03331">
        <ele>386.507</ele>
        <time>2019-12-05T19:06:58Z</time>
      </trkpt>
      <trkpt lat="43.64975" lon="3.03289">
        <ele>391.917</ele>
        <time>2019-12-05T19:07:18Z</time>
      </trkpt>
      <trkpt lat="43.6498" lon="3.03263">
        <ele>395.308</ele>
        <time>2019-12-05T19:07:38Z</time>
      </trkpt>
      <trkpt lat="43.65007" lon="3.03267">
        <ele>398.352</ele>
        <time>2019-12-05T19:07:58Z</time>
      </trkpt>
      <trkpt lat="43.65101" lon="3.03209">
        <ele>409.175</ele>
        <time>2019-12-05T19:08:18Z</time>
      </trkpt>
      <trkpt lat="43.6513" lon="3.03179">
        <ele>413.841</ele>
        <time>2019-12-05T19:08:38Z</time>
      </trkpt>
      <trkpt lat="43.65171" lon="3.03093">
        <ele>425.94</ele>
        <time>2019-12-05T19:08:58Z</time>
      </trkpt>
      <trkpt lat="43.65179" lon="3.03097">
        <ele>426.057</ele>
        <time>2019-12-05T19:09:18Z</time>
      </trkpt>
      <trkpt lat="43.65191" lon="3.03147">
        <ele>423.758</ele>
        <time>2019-12-05T19:09:38Z</time>
      </trkpt>
      <trkpt lat="43.65191" lon="3.03201">
        <ele>425.257</ele>
        <time>2019-12-05T19:09:58Z</time>
      </trkpt>
      <trkpt lat="43.65207" lon="3.03269">
        <ele>427.588</ele>
        <time>2019-12-05T19:10:18Z</time>
      </trkpt>
      <trkpt lat="43.65224" lon="3.03267">
        <ele>429.579</ele>
        <time>2019-12-05T19:10:38Z</time>
      </trkpt>
      <trkpt lat="43.65266" lon="3.03239">
        <ele>432.305</ele>
        <time>2019-12-05T19:10:58Z</time>
      </trkpt>
      <trkpt lat="43.65313" lon="3.03175">
        <ele>437.525</ele>
        <time>2019-12-05T19:11:18Z</time>
      </trkpt>
      <trkpt lat="43.65382" lon="3.03039">
        <ele>443.708</ele>
        <time>2019-12-05T19:11:38Z</time>
      </trkpt>
      <trkpt lat="43.65397" lon="3.03001">
        <ele>447.354</ele>
        <time>2019-12-05T19:11:58Z</time>
      </trkpt>
      <trkpt lat="43.6544" lon="3.02929">
        <ele>450.047</ele>
        <time>2019-12-05T19:12:18Z</time>
      </trkpt>
      <trkpt lat="43.65462" lon="3.02903">
        <ele>452.633</ele>
        <time>2019-12-05T19:12:38Z</time>
      </trkpt>
      <trkpt lat="43.65474" lon="3.02881">
        <ele>457.362</ele>
        <time>2019-12-05T19:12:58Z</time>
      </trkpt>
      <trkpt lat="43.65519" lon="3.02865">
        <ele>466.139</ele>
        <time>2019-12-05T19:13:18Z</time>
      </trkpt>
      <trkpt lat="43.65534" lon="3.02842">
        <ele>468.87</ele>
        <time>2019-12-05T19:13:38Z</time>
      </trkpt>
      <trkpt lat="43.65562" lon="3.02827">
        <ele>467.739</ele>
        <time>2019-12-05T19:13:58Z</time>
      </trkpt>
      <trkpt lat="43.65611" lon="3.02739">
        <ele>469.41</ele>
        <time>2019-12-05T19:14:18Z</time>
      </trkpt>
      <trkpt lat="43.6565" lon="3.02688">
        <ele>474.634</ele>
        <time>2019-12-05T19:14:38Z</time>
      </trkpt>
      <trkpt lat="43.65716" lon="3.02654">
        <ele>481.555</ele>
        <time>2019-12-05T19:14:58Z</time>
      </trkpt>
      <trkpt lat="43.65736" lon="3.02635">
        <ele>486.01</ele>
        <time>2019-12-05T19:15:18Z</time>
      </trkpt>
      <trkpt lat="43.6578" lon="3.02608">
        <ele>491.408</ele>
        <time>2019-12-05T19:15:38Z</time>
      </trkpt>
      <trkpt lat="43.65826" lon="3.02589">
        <ele>490.24</ele>
        <time>2019-12-05T19:15:58Z</time>
      </trkpt>
      <trkpt lat="43.65871" lon="3.02537">
        <ele>485.063</ele>
        <time>2019-12-05T19:16:18Z</time>
      </trkpt>
      <trkpt lat="43.65905" lon="3.02468">
        <ele>479.499</ele>
        <time>2019-12-05T19:16:38Z</time>
      </trkpt>
      <trkpt lat="43.65947" lon="3.02394">
        <ele>474.098</ele>
        <time>2019-12-05T19:16:58Z</time>
      </trkpt>
      <trkpt lat="43.6598" lon="3.02294">
        <ele>472.835</ele>
        <time>2019-12-05T19:17:18Z</time>
      </trkpt>
      <trkpt lat="43.6601" lon="3.02197">
        <ele>469.376</ele>
        <time>2019-12-05T19:17:38Z</time>
      </trkpt>
      <trkpt lat="43.66016" lon="3.02164">
        <ele>468.185</ele>
        <time>2019-12-05T19:17:58Z</time>
      </trkpt>
      <trkpt lat="43.66073" lon="3.02055">
        <ele>459.746</ele>
        <time>2019-12-05T19:18:18Z</time>
      </trkpt>
      <trkpt lat="43.66082" lon="3.0202">
        <ele>462.679</ele>
        <time>2019-12-05T19:18:38Z</time>
      </trkpt>
      <trkpt lat="43.66118" lon="3.01963">
        <ele>457.905</ele>
        <time>2019-12-05T19:18:58Z</time>
      </trkpt>
      <trkpt lat="43.66134" lon="3.01915">
        <ele>456.925</ele>
        <time>2019-12-05T19:19:18Z</time>
      </trkpt>
      <trkpt lat="43.6614" lon="3.01847">
        <ele>451.608</ele>
        <time>2019-12-05T19:19:38Z</time>
      </trkpt>
      <trkpt lat="43.66198" lon="3.01737">
        <ele>446.194</ele>
        <time>2019-12-05T19:19:58Z</time>
      </trkpt>
      <trkpt lat="43.66214" lon="3.01667">
        <ele>447.087</ele>
        <time>2019-12-05T19:20:18Z</time>
      </trkpt>
      <trkpt lat="43.66217" lon="3.01613">
        <ele>446.483</ele>
        <time>2019-12-05T19:20:38Z</time>
      </trkpt>
      <trkpt lat="43.6628" lon="3.01598">
        <ele>446.592</ele>
        <time>2019-12-05T19:20:58Z</time>
      </trkpt>
      <trkpt lat="43.66352" lon="3.01543">
        <ele>441.769</ele>
        <time>2019-12-05T19:21:18Z</time>
      </trkpt>
      <trkpt lat="43.66353" lon="3.0147">
        <ele>433.65</ele>
        <time>2019-12-05T19:21:38Z</time>
      </trkpt>
      <trkpt lat="43.66367" lon="3.01427">
        <ele>428.989</ele>
        <time>2019-12-05T19:21:58Z</time>
      </trkpt>
      <trkpt lat="43.66394" lon="3.01418">
        <ele>420.95</ele>
        <time>2019-12-05T19:22:18Z</time>
      </trkpt>
      <trkpt lat="43.66503" lon="3.01319">
        <ele>421.844</ele>
        <time>2019-12-05T19:22:38Z</time>
      </trkpt>
      <trkpt lat="43.66547" lon="3.01253">
        <ele>422.305</ele>
        <time>2019-12-05T19:22:58Z</time>
      </trkpt>
      <trkpt lat="43.66553" lon="3.01217">
        <ele>423.115</ele>
        <time>2019-12-05T19:23:18Z</time>
      </trkpt>
      <trkpt lat="43.66538" lon="3.01152">
        <ele>421.608</ele>
        <time>2019-12-05T19:23:38Z</time>
      </trkpt>
      <trkpt lat="43.66527" lon="3.00999">
        <ele>415.941</ele>
        <time>2019-12-05T19:23:58Z</time>
      </trkpt>
      <trkpt lat="43.6651" lon="3.00965">
        <ele>417.244</ele>
        <time>2019-12-05T19:24:18Z</time>
      </trkpt>
      <trkpt lat="43.66525" lon="3.00818">
        <ele>409.88</ele>
        <time>2019-12-05T19:24:38Z</time>
      </trkpt>
      <trkpt lat="43.66494" lon="3.00564">
        <ele>384.999</ele>
        <time>2019-12-05T19:24:58Z</time>
      </trkpt>
      <trkpt lat="43.66524" lon="3.00484">
        <ele>369.656</ele>
        <time>2019-12-05T19:25:18Z</time>
      </trkpt>
      <trkpt lat="43.66586" lon="3.00488">
        <ele>362.527</ele>
        <time>2019-12-05T19:25:38Z</time>
      </trkpt>
      <trkpt lat="43.66573" lon="3.00353">
        <ele>368.256</ele>
        <time>2019-12-05T19:25:58Z</time>
      </trkpt>
      <trkpt lat="43.66577" lon="3.00244">
        <ele>369.327</ele>
        <time>2019-12-05T19:26:18Z</time>
      </trkpt>
      <trkpt lat="43.66535" lon="3.00106">
        <ele>378.173</ele>
        <time>2019-12-05T19:26:38Z</time>
      </trkpt>
      <trkpt lat="43.66521" lon="2.999">
        <ele>377.785</ele>
        <time>2019-12-05T19:26:58Z</time>
      </trkpt>
      <trkpt lat="43.66508" lon="2.99875">
        <ele>382.313</ele>
        <time>2019-12-05T19:27:18Z</time>
      </trkpt>
      <trkpt lat="43.66515" lon="2.99778">
        <ele>387.808</ele>
        <time>2019-12-05T19:27:38Z</time>
      </trkpt>
      <trkpt lat="43.66543" lon="2.99727">
        <ele>386.494</ele>
        <time>2019-12-05T19:27:58Z</time>
      </trkpt>
      <trkpt lat="43.66567" lon="2.99578">
        <ele>392.317</ele>
        <time>2019-12-05T19:28:18Z</time>
      </trkpt>
      <trkpt lat="43.66568" lon="2.99499">
        <ele>397.783</ele>
        <time>2019-12-05T19:28:38Z</time>
      </trkpt>
      <trkpt lat="43.66597" lon="2.99355">
        <ele>401.422</ele>
        <time>2019-12-05T19:28:58Z</time>
      </trkpt>
      <trkpt lat="43.66588" lon="2.99294">
        <ele>397.219</ele>
        <time>2019-12-05T19:29:18Z</time>
      </trkpt>
      <trkpt lat="43.66521" lon="2.99269">
        <ele>403.18</ele>
        <time>2019-12-05T19:29:38Z</time>
      </trkpt>
      <trkpt lat="43.66525" lon="2.99248">
        <ele>404.769</ele>
        <time>2019-12-05T19:29:58Z</time>
      </trkpt>
      <trkpt lat="43.66551" lon="2.9925">
        <ele>402.33</ele>
        <time>2019-12-05T19:30:18Z</time>
      </trkpt>
      <trkpt lat="43.66554" lon="2.99232">
        <ele>404.217</ele>
        <time>2019-12-05T19:30:38Z</time>
      </trkpt>
      <trkpt lat="43.66513" lon="2.99148">
        <ele>414.687</ele>
        <time>2019-12-05T19:30:58Z</time>
      </trkpt>
      <trkpt lat="43.66515" lon="2.99056">
        <ele>415.415</ele>
        <time>2019-12-05T19:31:18Z</time>
      </trkpt>
      <trkpt lat="43.66523" lon="2.9895">
        <ele>421.808</ele>
        <time>2019-12-05T19:31:38Z</time>
      </trkpt>
      <trkpt lat="43.66499" lon="2.98858">
        <ele>425.428</ele>
        <time>2019-12-05T19:31:58Z</time>
      </trkpt>
      <trkpt lat="43.66515" lon="2.98828">
        <ele>424.591</ele>
        <time>2019-12-05T19:32:18Z</time>
      </trkpt>
      <trkpt lat="43.66526" lon="2.98739">
        <ele>423.097</ele>
        <time>2019-12-05T19:32:38Z</time>
      </trkpt>
      <trkpt lat="43.66535" lon="2.98534">
        <ele>420.696</ele>
        <time>2019-12-05T19:32:58Z</time>
      </trkpt>
      <trkpt lat="43.66556" lon="2.98453">
        <ele>419.433</ele>
        <time>2019-12-05T19:33:18Z</time>
      </trkpt>
      <trkpt lat="43.66588" lon="2.98442">
        <ele>408.364</ele>
        <time>2019-12-05T19:33:38Z</time>
      </trkpt>
      <trkpt lat="43.66608" lon="2.98403">
        <ele>412.513</ele>
        <time>2019-12-05T19:33:58Z</time>
      </trkpt>
      <trkpt lat="43.66671" lon="2.98323">
        <ele>416.924</ele>
        <time>2019-12-05T19:34:18Z</time>
      </trkpt>
      <trkpt lat="43.66695" lon="2.98136">
        <ele>415.149</ele>
        <time>2019-12-05T19:34:38Z</time>
      </trkpt>
      <trkpt lat="43.66684" lon="2.9804">
        <ele>425.102</ele>
        <time>2019-12-05T19:34:58Z</time>
      </trkpt>
      <trkpt lat="43.66682" lon="2.97798">
        <ele>422.922</ele>
        <time>2019-12-05T19:35:18Z</time>
      </trkpt>
      <trkpt lat="43.66732" lon="2.97532">
        <ele>438.808</ele>
        <time>2021-04-17T02:49:30Z</time>
      </trkpt>
      <trkpt lat="43.66713" lon="2.97461">
        <ele>450.131</ele>
        <time>2021-04-17T02:49:50Z</time>
      </trkpt>
      <trkpt lat="43.66722" lon="2.9734">
        <ele>433.774</ele>
        <time>2019-12-05T19:36:18Z</time>
      </trkpt>
      <trkpt lat="43.66774" lon="2.97332">
        <ele>438.89</ele>
        <time>2021-04-17T02:50:30Z</time>
      </trkpt>
      <trkpt lat="43.66795" lon="2.97349">
        <ele>442.839</ele>
        <time>2021-04-17T02:50:50Z</time>
      </trkpt>
      <trkpt lat="43.6679" lon="2.97276">
        <ele>436.036</ele>
        <time>2016-12-29T20:10:23Z</time>
      </trkpt>
      <trkpt lat="43.66803" lon="2.97185">
        <ele>441.937</ele>
        <time>2016-12-29T20:10:43Z</time>
      </trkpt>
      <trkpt lat="43.66782" lon="2.9716">
        <ele>445.176</ele>
        <time>2016-12-29T20:11:03Z</time>
      </trkpt>
      <trkpt lat="43.66802" lon="2.9702">
        <ele>462.657</ele>
        <time>2016-12-29T20:11:23Z</time>
      </trkpt>
      <trkpt lat="43.66787" lon="2.96873">
        <ele>457.893</ele>
        <time>2016-12-29T20:11:43Z</time>
      </trkpt>
      <trkpt lat="43.66759" lon="2.9682">
        <ele>450.365</ele>
        <time>2016-12-29T20:12:03Z</time>
      </trkpt>
      <trkpt lat="43.66818" lon="2.96711">
        <ele>454.821</ele>
        <time>2016-12-29T20:12:23Z</time>
      </trkpt>
      <trkpt lat="43.66824" lon="2.96624">
        <ele>461.408</ele>
        <time>2016-12-29T20:12:43Z</time>
      </trkpt>
      <trkpt lat="43.66782" lon="2.96488">
        <ele>465.246</ele>
        <time>2016-12-29T20:13:03Z</time>
      </trkpt>
      <trkpt lat="43.66787" lon="2.96427">
        <ele>475.229</ele>
        <time>2016-12-29T20:13:23Z</time>
      </trkpt>
      <trkpt lat="43.66849" lon="2.96291">
        <ele>478.585</ele>
        <time>2016-12-29T20:13:43Z</time>
      </trkpt>
      <trkpt lat="43.66908" lon="2.96187">
        <ele>485.614</ele>
        <time>2016-12-29T20:14:03Z</time>
      </trkpt>
      <trkpt lat="43.66953" lon="2.96074">
        <ele>486.911</ele>
        <time>2016-12-29T20:14:23Z</time>
      </trkpt>
      <trkpt lat="43.66946" lon="2.96025">
        <ele>496.182</ele>
        <time>2016-12-29T20:14:43Z</time>
      </trkpt>
      <trkpt lat="43.67003" lon="2.95862">
        <ele>496.371</ele>
        <time>2016-12-29T20:15:03Z</time>
      </trkpt>
      <trkpt lat="43.66979" lon="2.95788">
        <ele>500.263</ele>
        <time>2016-12-29T20:15:43Z</time>
      </trkpt>
      <trkpt lat="43.66957" lon="2.95751">
        <ele>501.044</ele>
        <time>2016-12-29T20:16:03Z</time>
      </trkpt>
      <trkpt lat="43.66911" lon="2.95732">
        <ele>511.218</ele>
        <time>2016-12-29T20:16:23Z</time>
      </trkpt>
      <trkpt lat="43.66928" lon="2.95687">
        <ele>509.808</ele>
        <time>2016-12-29T20:16:43Z</time>
      </trkpt>
      <trkpt lat="43.66918" lon="2.95655">
        <ele>518.933</ele>
        <time>2016-12-29T20:17:03Z</time>
      </trkpt>
      <trkpt lat="43.66923" lon="2.95616">
        <ele>525.876</ele>
        <time>2016-12-29T20:17:23Z</time>
      </trkpt>
      <trkpt lat="43.66946" lon="2.95558">
        <ele>522.052</ele>
        <time>2016-12-29T20:17:43Z</time>
      </trkpt>
      <trkpt lat="43.66915" lon="2.95571">
        <ele>537.621</ele>
        <time>2016-12-29T20:18:03Z</time>
      </trkpt>
      <trkpt lat="43.66923" lon="2.95489">
        <ele>544.438</ele>
        <time>2016-12-29T20:18:23Z</time>
      </trkpt>
      <trkpt lat="43.66877" lon="2.95556">
        <ele>558.789</ele>
        <time>2016-12-29T20:18:43Z</time>
      </trkpt>
      <trkpt lat="43.66856" lon="2.95539">
        <ele>564.978</ele>
        <time>2016-12-29T20:19:03Z</time>
      </trkpt>
      <trkpt lat="43.66844" lon="2.95498">
        <ele>574.279</ele>
        <time>2016-12-29T20:19:23Z</time>
      </trkpt>
      <trkpt lat="43.66842" lon="2.95459">
        <ele>584.943</ele>
        <time>2016-12-29T20:19:43Z</time>
      </trkpt>
      <trkpt lat="43.6683" lon="2.95397">
        <ele>607.664</ele>
        <time>2016-12-29T20:20:03Z</time>
      </trkpt>
      <trkpt lat="43.66878" lon="2.95324">
        <ele>620.91</ele>
        <time>2016-12-29T20:20:23Z</time>
      </trkpt>
      <trkpt lat="43.66953" lon="2.95289">
        <ele>621.608</ele>
        <time>2016-12-29T20:20:43Z</time>
      </trkpt>
      <trkpt lat="43.6696" lon="2.95245">
        <ele>627.461</ele>
        <time>2016-12-29T20:21:03Z</time>
      </trkpt>
      <trkpt lat="43.66946" lon="2.95134">
        <ele>635.274</ele>
        <time>2016-12-29T20:21:23Z</time>
      </trkpt>
      <trkpt lat="43.66936" lon="2.95152">
        <ele>641.36</ele>
        <time>2016-12-29T20:21:43Z</time>
      </trkpt>
      <trkpt lat="43.66937" lon="2.95219">
        <ele>641.349</ele>
        <time>2016-12-29T20:22:03Z</time>
      </trkpt>
      <trkpt lat="43.66906" lon="2.95251">
        <ele>644.616</ele>
        <time>2016-12-29T20:22:23Z</time>
      </trkpt>
      <trkpt lat="43.66842" lon="2.95274">
        <ele>648.997</ele>
        <time>2016-12-29T20:22:43Z</time>
      </trkpt>
      <trkpt lat="43.66819" lon="2.95273">
        <ele>650.136</ele>
        <time>2016-12-29T20:23:03Z</time>
      </trkpt>
      <trkpt lat="43.66848" lon="2.95253">
        <ele>656.447</ele>
        <time>2016-12-29T20:23:23Z</time>
      </trkpt>
      <trkpt lat="43.6688" lon="2.95203">
        <ele>659.699</ele>
        <time>2016-12-29T20:23:43Z</time>
      </trkpt>
      <trkpt lat="43.66884" lon="2.95163">
        <ele>661.907</ele>
        <time>2016-12-29T20:24:03Z</time>
      </trkpt>
      <trkpt lat="43.66883" lon="2.95131">
        <ele>666.627</ele>
        <time>2016-12-29T20:24:23Z</time>
      </trkpt>
      <trkpt lat="43.66896" lon="2.95055">
        <ele>674.208</ele>
        <time>2016-12-29T20:24:43Z</time>
      </trkpt>
      <trkpt lat="43.66922" lon="2.95019">
        <ele>672.696</ele>
        <time>2016-12-29T20:25:03Z</time>
      </trkpt>
      <trkpt lat="43.66967" lon="2.94929">
        <ele>678.519</ele>
        <time>2016-12-29T20:25:23Z</time>
      </trkpt>
      <trkpt lat="43.6698" lon="2.94864">
        <ele>686.495</ele>
        <time>2016-12-29T20:25:43Z</time>
      </trkpt>
      <trkpt lat="43.6698" lon="2.9479">
        <ele>694.714</ele>
        <time>2016-12-29T20:26:03Z</time>
      </trkpt>
      <trkpt lat="43.66973" lon="2.94743">
        <ele>702.171</ele>
        <time>2016-12-29T20:26:23Z</time>
      </trkpt>
      <trkpt lat="43.67002" lon="2.94681">
        <ele>704.792</ele>
        <time>2016-12-29T20:26:43Z</time>
      </trkpt>
      <trkpt lat="43.67008" lon="2.94637">
        <ele>708.671</ele>
        <time>2016-12-29T20:27:03Z</time>
      </trkpt>
      <trkpt lat="43.66978" lon="2.94672">
        <ele>712.942</ele>
        <time>2016-12-29T20:27:23Z</time>
      </trkpt>
      <trkpt lat="43.66951" lon="2.94689">
        <ele>722.768</ele>
        <time>2016-12-29T20:27:43Z</time>
      </trkpt>
      <trkpt lat="43.6694" lon="2.94724">
        <ele>721.442</ele>
        <time>2016-12-29T20:28:03Z</time>
      </trkpt>
      <trkpt lat="43.66933" lon="2.94778">
        <ele>717.526</ele>
        <time>2016-12-29T20:28:23Z</time>
      </trkpt>
      <trkpt lat="43.66866" lon="2.94849">
        <ele>727.908</ele>
        <time>2016-12-29T20:28:43Z</time>
      </trkpt>
      <trkpt lat="43.66785" lon="2.94892">
        <ele>735.353</ele>
        <time>2016-12-29T20:29:03Z</time>
      </trkpt>
      <trkpt lat="43.66761" lon="2.94936">
        <ele>742.716</ele>
        <time>2016-12-29T20:29:23Z</time>
      </trkpt>
      <trkpt lat="43.66748" lon="2.94874">
        <ele>750.952</ele>
        <time>2016-12-29T20:29:43Z</time>
      </trkpt>
      <trkpt lat="43.66841" lon="2.94725">
        <ele>750.431</ele>
        <time>2016-12-29T20:30:03Z</time>
      </trkpt>
      <trkpt lat="43.66844" lon="2.94648">
        <ele>756.728</ele>
        <time>2016-12-29T20:30:23Z</time>
      </trkpt>
      <trkpt lat="43.66908" lon="2.94487">
        <ele>761.249</ele>
        <time>2016-12-29T20:30:43Z</time>
      </trkpt>
      <trkpt lat="43.66832" lon="2.94351">
        <ele>769.918</ele>
        <time>2016-12-29T20:31:03Z</time>
      </trkpt>
      <trkpt lat="43.6679" lon="2.9433">
        <ele>784.449</ele>
        <time>2016-12-29T20:31:23Z</time>
      </trkpt>
      <trkpt lat="43.66868" lon="2.9426">
        <ele>786.389</ele>
        <time>2016-12-29T20:31:43Z</time>
      </trkpt>
      <trkpt lat="43.66925" lon="2.94259">
        <ele>784.706</ele>
        <time>2016-12-29T20:32:03Z</time>
      </trkpt>
      <trkpt lat="43.67014" lon="2.94242">
        <ele>789.826</ele>
        <time>2016-12-29T20:32:23Z</time>
      </trkpt>
      <trkpt lat="43.67041" lon="2.94188">
        <ele>793.708</ele>
        <time>2016-12-29T20:32:43Z</time>
      </trkpt>
      <trkpt lat="43.67046" lon="2.94074">
        <ele>800.725</ele>
        <time>2016-12-29T20:33:03Z</time>
      </trkpt>
      <trkpt lat="43.67068" lon="2.94032">
        <ele>797.838</ele>
        <time>2016-12-29T20:33:23Z</time>
      </trkpt>
      <trkpt lat="43.67093" lon="2.939">
        <ele>813.194</ele>
        <time>2016-12-29T20:33:43Z</time>
      </trkpt>
      <trkpt lat="43.6712" lon="2.93883">
        <ele>815.733</ele>
        <time>2016-12-29T20:34:03Z</time>
      </trkpt>
      <trkpt lat="43.67155" lon="2.93971">
        <ele>820.13</ele>
        <time>2016-12-29T20:34:23Z</time>
      </trkpt>
      <trkpt lat="43.6718" lon="2.93998">
        <ele>828.091</ele>
        <time>2016-12-29T20:34:43Z</time>
      </trkpt>
      <trkpt lat="43.67199" lon="2.9404">
        <ele>831.97</ele>
        <time>2016-12-29T20:35:03Z</time>
      </trkpt>
      <trkpt lat="43.67187" lon="2.93981">
        <ele>833.931</ele>
        <time>2016-12-29T20:35:23Z</time>
      </trkpt>
      <trkpt lat="43.67167" lon="2.93943">
        <ele>829.575</ele>
        <time>2016-12-29T20:35:43Z</time>
      </trkpt>
      <trkpt lat="43.67164" lon="2.93907">
        <ele>832.828</ele>
        <time>2016-12-29T20:36:03Z</time>
      </trkpt>
      <trkpt lat="43.67144" lon="2.93836">
        <ele>828.72</ele>
        <time>2016-12-29T20:37:23Z</time>
      </trkpt>
      <trkpt lat="43.67156" lon="2.93757">
        <ele>840.608</ele>
        <time>2016-12-29T20:37:43Z</time>
      </trkpt>
      <trkpt lat="43.67152" lon="2.93733">
        <ele>843.484</ele>
        <time>2016-12-29T20:38:03Z</time>
      </trkpt>
      <trkpt lat="43.6713" lon="2.93742">
        <ele>838.997</ele>
        <time>2016-12-29T20:38:23Z</time>
      </trkpt>
      <trkpt lat="43.67076" lon="2.93744">
        <ele>845.993</ele>
        <time>2016-12-29T20:38:43Z</time>
      </trkpt>
      <trkpt lat="43.67053" lon="2.93756">
        <ele>847.432</ele>
        <time>2016-12-29T20:39:03Z</time>
      </trkpt>
      <trkpt lat="43.67025" lon="2.9376">
        <ele>853.539</ele>
        <time>2016-12-29T20:39:23Z</time>
      </trkpt>
      <trkpt lat="43.66959" lon="2.93861">
        <ele>857.06</ele>
        <time>2016-12-29T20:39:43Z</time>
      </trkpt>
      <trkpt lat="43.66992" lon="2.9373">
        <ele>873.339</ele>
        <time>2016-12-29T20:40:03Z</time>
      </trkpt>
      <trkpt lat="43.6703" lon="2.93676">
        <ele>874.58</ele>
        <time>2016-12-29T20:40:23Z</time>
      </trkpt>
      <trkpt lat="43.67079" lon="2.93568">
        <ele>878.737</ele>
        <time>2016-12-29T20:40:43Z</time>
      </trkpt>
      <trkpt lat="43.67119" lon="2.93538">
        <ele>877.149</ele>
        <time>2016-12-29T20:41:03Z</time>
      </trkpt>
      <trkpt lat="43.67135" lon="2.935">
        <ele>879.413</ele>
        <time>2016-12-29T20:41:23Z</time>
      </trkpt>
      <trkpt lat="43.6718" lon="2.93471">
        <ele>881.108</ele>
        <time>2016-12-29T20:41:43Z</time>
      </trkpt>
      <trkpt lat="43.67285" lon="2.93104">
        <ele>885.22</ele>
        <time>2016-12-29T20:42:03Z</time>
      </trkpt>
      <trkpt lat="43.67284" lon="2.93023">
        <ele>888.863</ele>
        <time>2016-12-29T20:42:23Z</time>
      </trkpt>
      <trkpt lat="43.67246" lon="2.92952">
        <ele>890.449</ele>
        <time>2016-12-29T20:42:43Z</time>
      </trkpt>
      <trkpt lat="43.67164" lon="2.92852">
        <ele>881.158</ele>
        <time>2016-12-29T20:43:03Z</time>
      </trkpt>
      <trkpt lat="43.6716" lon="2.92814">
        <ele>876.645</ele>
        <time>2016-12-29T20:43:23Z</time>
      </trkpt>
      <trkpt lat="43.67125" lon="2.92774">
        <ele>879.826</ele>
        <time>2016-12-29T20:43:43Z</time>
      </trkpt>
      <trkpt lat="43.67098" lon="2.92763">
        <ele>881.135</ele>
        <time>2016-12-29T20:44:03Z</time>
      </trkpt>
      <trkpt lat="43.67078" lon="2.92687">
        <ele>881.796</ele>
        <time>2016-12-29T20:44:23Z</time>
      </trkpt>
      <trkpt lat="43.67075" lon="2.92643">
        <ele>881.185</ele>
        <time>2016-12-29T20:44:43Z</time>
      </trkpt>
      <trkpt lat="43.67057" lon="2.9261">
        <ele>880.089</ele>
        <time>2016-12-29T20:45:03Z</time>
      </trkpt>
      <trkpt lat="43.67021" lon="2.92598">
        <ele>881.717</ele>
        <time>2016-12-29T20:45:23Z</time>
      </trkpt>
      <trkpt lat="43.67003" lon="2.92574">
        <ele>880.108</ele>
        <time>2016-12-29T20:45:43Z</time>
      </trkpt>
      <trkpt lat="43.6699" lon="2.92531">
        <ele>870.165</ele>
        <time>2016-12-29T20:46:03Z</time>
      </trkpt>
      <trkpt lat="43.66962" lon="2.92519">
        <ele>866.148</ele>
        <time>2016-12-29T20:46:23Z</time>
      </trkpt>
      <trkpt lat="43.66927" lon="2.92526">
        <ele>866.364</ele>
        <time>2016-12-29T20:46:43Z</time>
      </trkpt>
      <trkpt lat="43.66863" lon="2.92505">
        <ele>868.463</ele>
        <time>2016-12-29T20:47:03Z</time>
      </trkpt>
      <trkpt lat="43.66863" lon="2.92481">
        <ele>868.32</ele>
        <time>2016-12-29T20:47:23Z</time>
      </trkpt>
      <trkpt lat="43.66916" lon="2.92427">
        <ele>870.121</ele>
        <time>2016-12-29T20:47:43Z</time>
      </trkpt>
      <trkpt lat="43.66963" lon="2.92422">
        <ele>867.48</ele>
        <time>2016-12-29T20:48:03Z</time>
      </trkpt>
      <trkpt lat="43.67011" lon="2.92376">
        <ele>873.711</ele>
        <time>2016-12-29T20:48:23Z</time>
      </trkpt>
      <trkpt lat="43.6702" lon="2.92327">
        <ele>883.518</ele>
        <time>2016-12-29T20:48:43Z</time>
      </trkpt>
      <trkpt lat="43.67085" lon="2.92255">
        <ele>883.698</ele>
        <time>2016-12-29T20:49:03Z</time>
      </trkpt>
      <trkpt lat="43.6711" lon="2.92245">
        <ele>883.417</ele>
        <time>2016-12-29T20:49:23Z</time>
      </trkpt>
      <trkpt lat="43.67147" lon="2.92208">
        <ele>882.508</ele>
        <time>2016-12-29T20:49:43Z</time>
      </trkpt>
      <trkpt lat="43.67182" lon="2.92141">
        <ele>881.728</ele>
        <time>2016-12-29T20:50:03Z</time>
      </trkpt>
      <trkpt lat="43.67199" lon="2.92041">
        <ele>886.271</ele>
        <time>2016-12-29T20:50:23Z</time>
      </trkpt>
      <trkpt lat="43.67178" lon="2.91991">
        <ele>892.197</ele>
        <time>2016-12-29T20:50:43Z</time>
      </trkpt>
      <trkpt lat="43.67118" lon="2.91928">
        <ele>898.856</ele>
        <time>2016-12-29T20:51:03Z</time>
      </trkpt>
      <trkpt lat="43.67083" lon="2.91922">
        <ele>903.493</ele>
        <time>2016-12-29T20:51:23Z</time>
      </trkpt>
      <trkpt lat="43.67057" lon="2.91927">
        <ele>907.644</ele>
        <time>2016-12-29T20:51:43Z</time>
      </trkpt>
      <trkpt lat="43.67005" lon="2.91869">
        <ele>910.484</ele>
        <time>2016-12-29T20:52:23Z</time>
      </trkpt>
      <trkpt lat="43.66967" lon="2.91872">
        <ele>914.019</ele>
        <time>2016-12-29T20:52:43Z</time>
      </trkpt>
      <trkpt lat="43.66925" lon="2.91897">
        <ele>921.509</ele>
        <time>2016-12-29T20:53:03Z</time>
      </trkpt>
      <trkpt lat="43.66891" lon="2.91878">
        <ele>924.819</ele>
        <time>2016-12-29T20:53:23Z</time>
      </trkpt>
      <trkpt lat="43.66863" lon="2.91824">
        <ele>924.908</ele>
        <time>2016-12-29T20:53:43Z</time>
      </trkpt>
      <trkpt lat="43.66811" lon="2.91839">
        <ele>933.468</ele>
        <time>2016-12-29T20:54:03Z</time>
      </trkpt>
      <trkpt lat="43.66777" lon="2.91839">
        <ele>931.731</ele>
        <time>2016-12-29T20:54:23Z</time>
      </trkpt>
      <trkpt lat="43.66684" lon="2.91895">
        <ele>936.477</ele>
        <time>2016-12-29T20:54:43Z</time>
      </trkpt>
      <trkpt lat="43.66628" lon="2.91917">
        <ele>937.426</ele>
        <time>2016-12-29T20:55:03Z</time>
      </trkpt>
      <trkpt lat="43.66589" lon="2.91945">
        <ele>942.523</ele>
        <time>2016-12-29T20:55:23Z</time>
      </trkpt>
      <trkpt lat="43.6652" lon="2.91945">
        <ele>941.314</ele>
        <time>2016-12-29T20:55:43Z</time>
      </trkpt>
      <trkpt lat="43.66496" lon="2.91938">
        <ele>940.863</ele>
        <time>2016-12-29T20:56:03Z</time>
      </trkpt>
      <trkpt lat="43.66476" lon="2.91949">
        <ele>944.484</ele>
        <time>2016-12-29T20:56:23Z</time>
      </trkpt>
      <trkpt lat="43.66454" lon="2.91933">
        <ele>963.189</ele>
        <time>2021-04-17T03:36:30Z</time>
      </trkpt>
      <trkpt lat="43.66422" lon="2.91947">
        <ele>945.506</ele>
        <time>2016-12-29T20:57:03Z</time>
      </trkpt>
      <trkpt lat="43.66386" lon="2.91921">
        <ele>947.326</ele>
        <time>2016-12-29T20:57:23Z</time>
      </trkpt>
      <trkpt lat="43.66431" lon="2.91906">
        <ele>945.108</ele>
        <time>2016-12-29T20:57:43Z</time>
      </trkpt>
      <trkpt lat="43.66481" lon="2.91842">
        <ele>959.655</ele>
        <time>2016-12-29T20:58:03Z</time>
      </trkpt>
      <trkpt lat="43.66506" lon="2.91779">
        <ele>966.418</ele>
        <time>2016-12-29T20:58:23Z</time>
      </trkpt>
      <trkpt lat="43.66515" lon="2.91715">
        <ele>974.634</ele>
        <time>2016-12-29T20:58:43Z</time>
      </trkpt>
      <trkpt lat="43.66481" lon="2.91719">
        <ele>984.773</ele>
        <time>2016-12-29T20:59:03Z</time>
      </trkpt>
      <trkpt lat="43.66481" lon="2.91661">
        <ele>992.71</ele>
        <time>2016-12-29T20:59:23Z</time>
      </trkpt>
      <trkpt lat="43.66493" lon="2.9159">
        <ele>999.081</ele>
        <time>2016-12-29T20:59:43Z</time>
      </trkpt>
      <trkpt lat="43.66481" lon="2.9158">
        <ele>1005.01</ele>
        <time>2016-12-29T21:00:03Z</time>
      </trkpt>
      <trkpt lat="43.66428" lon="2.91629">
        <ele>1013.851</ele>
        <time>2016-12-29T21:00:23Z</time>
      </trkpt>
      <trkpt lat="43.66461" lon="2.91571">
        <ele>1012.651</ele>
        <time>2016-12-29T21:00:43Z</time>
      </trkpt>
      <trkpt lat="43.66467" lon="2.91526">
        <ele>1017.601</ele>
        <time>2016-12-29T21:01:03Z</time>
      </trkpt>
      <trkpt lat="43.6649" lon="2.91466">
        <ele>1016.411</ele>
        <time>2016-12-29T21:01:23Z</time>
      </trkpt>
      <trkpt lat="43.66498" lon="2.91373">
        <ele>1007.508</ele>
        <time>2016-12-29T21:01:43Z</time>
      </trkpt>
      <trkpt lat="43.66477" lon="2.91379">
        <ele>1007.282</ele>
        <time>2016-12-29T21:02:03Z</time>
      </trkpt>
      <trkpt lat="43.6644" lon="2.91337">
        <ele>995.431</ele>
        <time>2016-12-29T21:02:43Z</time>
      </trkpt>
      <trkpt lat="43.66417" lon="2.91337">
        <ele>996.75</ele>
        <time>2016-12-29T21:03:03Z</time>
      </trkpt>
      <trkpt lat="43.6643" lon="2.91275">
        <ele>992.327</ele>
        <time>2016-12-29T21:03:23Z</time>
      </trkpt>
      <trkpt lat="43.66451" lon="2.91236">
        <ele>987.188</ele>
        <time>2016-12-29T21:03:43Z</time>
      </trkpt>
      <trkpt lat="43.66462" lon="2.91183">
        <ele>984.657</ele>
        <time>2016-12-29T21:04:03Z</time>
      </trkpt>
      <trkpt lat="43.66459" lon="2.91112">
        <ele>987.478</ele>
        <time>2016-12-29T21:04:23Z</time>
      </trkpt>
      <trkpt lat="43.66467" lon="2.91054">
        <ele>984.244</ele>
        <time>2016-12-29T21:04:43Z</time>
      </trkpt>
      <trkpt lat="43.66481" lon="2.90994">
        <ele>983.805</ele>
        <time>2016-12-29T21:05:03Z</time>
      </trkpt>
      <trkpt lat="43.66516" lon="2.90951">
        <ele>978.615</ele>
        <time>2016-12-29T21:05:23Z</time>
      </trkpt>
      <trkpt lat="43.66588" lon="2.90908">
        <ele>970.808</ele>
        <time>2016-12-29T21:05:43Z</time>
      </trkpt>
      <trkpt lat="43.6663" lon="2.9088">
        <ele>972.271</ele>
        <time>2016-12-29T21:06:03Z</time>
      </trkpt>
      <trkpt lat="43.66689" lon="2.90874">
        <ele>962.524</ele>
        <time>2016-12-29T21:06:23Z</time>
      </trkpt>
      <trkpt lat="43.66734" lon="2.90833">
        <ele>957.54</ele>
        <time>2016-12-29T21:06:43Z</time>
      </trkpt>
      <trkpt lat="43.66757" lon="2.90777">
        <ele>954.439</ele>
        <time>2016-12-29T21:07:03Z</time>
      </trkpt>
      <trkpt lat="43.66746" lon="2.9067">
        <ele>938.886</ele>
        <time>2016-12-29T21:07:23Z</time>
      </trkpt>
      <trkpt lat="43.66726" lon="2.90623">
        <ele>934.437</ele>
        <time>2016-12-29T21:07:43Z</time>
      </trkpt>
      <trkpt lat="43.66722" lon="2.90576">
        <ele>928.876</ele>
        <time>2016-12-29T21:08:03Z</time>
      </trkpt>
      <trkpt lat="43.66731" lon="2.90542">
        <ele>928.667</ele>
        <time>2016-12-29T21:08:23Z</time>
      </trkpt>
      <trkpt lat="43.66756" lon="2.90559">
        <ele>926.458</ele>
        <time>2016-12-29T21:08:43Z</time>
      </trkpt>
      <trkpt lat="43.66869" lon="2.90622">
        <ele>933.952</ele>
        <time>2016-12-29T21:09:03Z</time>
      </trkpt>
      <trkpt lat="43.66911" lon="2.90612">
        <ele>937.717</ele>
        <time>2016-12-29T21:09:23Z</time>
      </trkpt>
      <trkpt lat="43.66972" lon="2.90623">
        <ele>933.308</ele>
        <time>2016-12-29T21:09:43Z</time>
      </trkpt>
      <trkpt lat="43.67011" lon="2.90598">
        <ele>932.662</ele>
        <time>2016-12-29T21:10:03Z</time>
      </trkpt>
      <trkpt lat="43.67036" lon="2.90515">
        <ele>932.725</ele>
        <time>2016-12-29T21:10:23Z</time>
      </trkpt>
      <trkpt lat="43.67032" lon="2.90438">
        <ele>932.971</ele>
        <time>2016-12-29T21:10:43Z</time>
      </trkpt>
      <trkpt lat="43.67016" lon="2.90399">
        <ele>930.34</ele>
        <time>2016-12-29T21:11:03Z</time>
      </trkpt>
      <trkpt lat="43.66956" lon="2.90349">
        <ele>935.827</ele>
        <time>2016-12-29T21:11:23Z</time>
      </trkpt>
      <trkpt lat="43.66957" lon="2.9033">
        <ele>936.938</ele>
        <time>2016-12-29T21:11:43Z</time>
      </trkpt>
      <trkpt lat="43.67001" lon="2.90289">
        <ele>937.857</ele>
        <time>2016-12-29T21:12:03Z</time>
      </trkpt>
      <trkpt lat="43.67052" lon="2.90279">
        <ele>934.298</ele>
        <time>2016-12-29T21:12:23Z</time>
      </trkpt>
      <trkpt lat="43.67096" lon="2.90274">
        <ele>931.341</ele>
        <time>2016-12-29T21:12:43Z</time>
      </trkpt>
      <trkpt lat="43.67124" lon="2.90195">
        <ele>932.681</ele>
        <time>2016-12-29T21:13:03Z</time>
      </trkpt>
      <trkpt lat="43.67122" lon="2.90043">
        <ele>923.809</ele>
        <time>2016-12-29T21:13:23Z</time>
      </trkpt>
      <trkpt lat="43.67061" lon="2.89906">
        <ele>911.508</ele>
        <time>2016-12-29T21:13:43Z</time>
      </trkpt>
      <trkpt lat="43.67001" lon="2.89835">
        <ele>904.151</ele>
        <time>2016-12-29T21:14:03Z</time>
      </trkpt>
      <trkpt lat="43.66994" lon="2.89768">
        <ele>900.754</ele>
        <time>2016-12-29T21:14:23Z</time>
      </trkpt>
      <trkpt lat="43.67035" lon="2.89713">
        <ele>887.88</ele>
        <time>2016-12-29T21:14:43Z</time>
      </trkpt>
      <trkpt lat="43.67077" lon="2.89587">
        <ele>872.389</ele>
        <time>2016-12-29T21:15:03Z</time>
      </trkpt>
      <trkpt lat="43.67073" lon="2.89536">
        <ele>870.116</ele>
        <time>2016-12-29T21:15:23Z</time>
      </trkpt>
      <trkpt lat="43.6709" lon="2.89478">
        <ele>873.947</ele>
        <time>2016-12-29T21:15:43Z</time>
      </trkpt>
      <trkpt lat="43.6711" lon="2.89477">
        <ele>875.476</ele>
        <time>2016-12-29T21:16:03Z</time>
      </trkpt>
      <trkpt lat="43.67129" lon="2.89458">
        <ele>880.757</ele>
        <time>2016-12-29T21:16:23Z</time>
      </trkpt>
      <trkpt lat="43.67175" lon="2.89464">
        <ele>885.598</ele>
        <time>2016-12-29T21:16:43Z</time>
      </trkpt>
      <trkpt lat="43.67383" lon="2.89062">
        <ele>891.415</ele>
        <time>2016-12-29T21:17:03Z</time>
      </trkpt>
      <trkpt lat="43.67409" lon="2.88954">
        <ele>893.226</ele>
        <time>2016-12-29T21:17:23Z</time>
      </trkpt>
      <trkpt lat="43.67427" lon="2.88803">
        <ele>895.808</ele>
        <time>2016-12-29T21:17:43Z</time>
      </trkpt>
      <trkpt lat="43.67479" lon="2.88679">
        <ele>888.086</ele>
        <time>2016-12-29T21:18:03Z</time>
      </trkpt>
      <trkpt lat="43.67482" lon="2.88647">
        <ele>887.389</ele>
        <time>2016-12-29T21:18:23Z</time>
      </trkpt>
      <trkpt lat="43.67518" lon="2.88588">
        <ele>888.245</ele>
        <time>2016-12-29T21:18:43Z</time>
      </trkpt>
      <trkpt lat="43.67565" lon="2.88549">
        <ele>889.244</ele>
        <time>2016-12-29T21:19:03Z</time>
      </trkpt>
      <trkpt lat="43.6759" lon="2.88498">
        <ele>892.681</ele>
        <time>2016-12-29T21:19:23Z</time>
      </trkpt>
      <trkpt lat="43.67601" lon="2.88434">
        <ele>896.522</ele>
        <time>2016-12-29T21:19:43Z</time>
      </trkpt>
      <trkpt lat="43.67673" lon="2.88305">
        <ele>899.661</ele>
        <time>2016-12-29T21:20:03Z</time>
      </trkpt>
      <trkpt lat="43.67773" lon="2.88185">
        <ele>901.552</ele>
        <time>2016-12-29T21:20:23Z</time>
      </trkpt>
      <trkpt lat="43.67929" lon="2.87953">
        <ele>901.833</ele>
        <time>2016-12-29T21:20:43Z</time>
      </trkpt>
      <trkpt lat="43.68047" lon="2.87883">
        <ele>892.423</ele>
        <time>2016-12-29T21:21:03Z</time>
      </trkpt>
      <trkpt lat="43.68153" lon="2.87834">
        <ele>880.515</ele>
        <time>2016-12-29T21:21:23Z</time>
      </trkpt>
      <trkpt lat="43.68165" lon="2.87798">
        <ele>878.808</ele>
        <time>2016-12-29T21:21:43Z</time>
      </trkpt>
      <trkpt lat="43.68155" lon="2.87676">
        <ele>877.49</ele>
        <time>2016-12-29T21:22:03Z</time>
      </trkpt>
      <trkpt lat="43.6817" lon="2.87658">
        <ele>875.163</ele>
        <time>2016-12-29T21:22:23Z</time>
      </trkpt>
      <trkpt lat="43.68227" lon="2.87681">
        <ele>867.049</ele>
        <time>2016-12-29T21:22:43Z</time>
      </trkpt>
      <trkpt lat="43.6824" lon="2.87661">
        <ele>864.968</ele>
        <time>2016-12-29T21:23:03Z</time>
      </trkpt>
      <trkpt lat="43.68276" lon="2.87596">
        <ele>859.795</ele>
        <time>2016-12-29T21:23:23Z</time>
      </trkpt>
      <trkpt lat="43.68339" lon="2.87533">
        <ele>854.866</ele>
        <time>2016-12-29T21:23:43Z</time>
      </trkpt>
      <trkpt lat="43.68297" lon="2.87361">
        <ele>851.945</ele>
        <time>2016-12-29T21:24:03Z</time>
      </trkpt>
      <trkpt lat="43.6827" lon="2.87202">
        <ele>847.956</ele>
        <time>2016-12-29T21:24:23Z</time>
      </trkpt>
      <trkpt lat="43.68229" lon="2.87041">
        <ele>846.545</ele>
        <time>2016-12-29T21:24:43Z</time>
      </trkpt>
      <trkpt lat="43.68221" lon="2.86897">
        <ele>845.147</ele>
        <time>2016-12-29T21:25:03Z</time>
      </trkpt>
      <trkpt lat="43.6823" lon="2.86754">
        <ele>845.711</ele>
        <time>2016-12-29T21:25:23Z</time>
      </trkpt>
      <trkpt lat="43.68211" lon="2.86618">
        <ele>849.508</ele>
        <time>2021-04-17T04:05:30Z</time>
      </trkpt>
      <trkpt lat="43.68214" lon="2.8645">
        <ele>848.411</ele>
        <time>2016-12-29T21:26:03Z</time>
      </trkpt>
      <trkpt lat="43.682" lon="2.86215">
        <ele>846.864</ele>
        <time>2016-12-29T21:26:23Z</time>
      </trkpt>
      <trkpt lat="43.6817" lon="2.86066">
        <ele>846.89</ele>
        <time>2016-12-29T21:26:43Z</time>
      </trkpt>
      <trkpt lat="43.68125" lon="2.85945">
        <ele>846.049</ele>
        <time>2016-12-29T21:27:03Z</time>
      </trkpt>
      <trkpt lat="43.68137" lon="2.85931">
        <ele>845.546</ele>
        <time>2016-12-29T21:27:23Z</time>
      </trkpt>
      <trkpt lat="43.68124" lon="2.85883">
        <ele>844.497</ele>
        <time>2016-12-29T21:27:43Z</time>
      </trkpt>
      <trkpt lat="43.68057" lon="2.85736">
        <ele>842.496</ele>
        <time>2016-12-29T21:28:03Z</time>
      </trkpt>
      <trkpt lat="43.67973" lon="2.85597">
        <ele>840.577</ele>
        <time>2016-12-29T21:28:23Z</time>
      </trkpt>
      <trkpt lat="43.67912" lon="2.85476">
        <ele>837.375</ele>
        <time>2016-12-29T21:28:43Z</time>
      </trkpt>
      <trkpt lat="43.67858" lon="2.85327">
        <ele>835.928</ele>
        <time>2016-12-29T21:29:03Z</time>
      </trkpt>
      <trkpt lat="43.67846" lon="2.85253">
        <ele>834.72</ele>
        <time>2016-12-29T21:29:23Z</time>
      </trkpt>
      <trkpt lat="43.67804" lon="2.85136">
        <ele>833.808</ele>
        <time>2016-12-29T21:29:43Z</time>
      </trkpt>
      <trkpt lat="43.67707" lon="2.85021">
        <ele>830.374</ele>
        <time>2016-12-29T21:30:03Z</time>
      </trkpt>
      <trkpt lat="43.6765" lon="2.84988">
        <ele>832.027</ele>
        <time>2016-12-29T21:30:23Z</time>
      </trkpt>
      <trkpt lat="43.67623" lon="2.84916">
        <ele>831.323</ele>
        <time>2016-12-29T21:30:43Z</time>
      </trkpt>
      <trkpt lat="43.67604" lon="2.84824">
        <ele>832.772</ele>
        <time>2016-12-29T21:31:03Z</time>
      </trkpt>
      <trkpt lat="43.67623" lon="2.84733">
        <ele>834.179</ele>
        <time>2016-12-29T21:31:23Z</time>
      </trkpt>
      <trkpt lat="43.67648" lon="2.84693">
        <ele>832.46</ele>
        <time>2016-12-29T21:31:43Z</time>
      </trkpt>
      <trkpt lat="43.677" lon="2.84446">
        <ele>831.479</ele>
        <time>2016-12-29T21:32:03Z</time>
      </trkpt>
      <trkpt lat="43.67659" lon="2.84268">
        <ele>843.44</ele>
        <time>2016-12-29T21:32:23Z</time>
      </trkpt>
      <trkpt lat="43.67659" lon="2.84153">
        <ele>844.251</ele>
        <time>2016-12-29T21:32:43Z</time>
      </trkpt>
      <trkpt lat="43.67632" lon="2.84085">
        <ele>844.801</ele>
        <time>2016-12-29T21:33:03Z</time>
      </trkpt>
      <trkpt lat="43.67584" lon="2.8397">
        <ele>845.811</ele>
        <time>2016-12-29T21:33:23Z</time>
      </trkpt>
      <trkpt lat="43.67555" lon="2.83927">
        <ele>847.408</ele>
        <time>2016-12-29T21:33:43Z</time>
      </trkpt>
      <trkpt lat="43.67545" lon="2.83881">
        <ele>846.152</ele>
        <time>2016-12-29T21:34:03Z</time>
      </trkpt>
      <trkpt lat="43.67572" lon="2.83734">
        <ele>840.825</ele>
        <time>2016-12-29T21:34:43Z</time>
      </trkpt>
      <trkpt lat="43.67547" lon="2.83706">
        <ele>845.521</ele>
        <time>2021-04-17T04:14:30Z</time>
      </trkpt>
      <trkpt lat="43.67541" lon="2.83663">
        <ele>844.95</ele>
        <time>2021-04-17T04:14:50Z</time>
      </trkpt>
      <trkpt lat="43.67517" lon="2.83629">
        <ele>844.757</ele>
        <time>2021-04-17T04:15:10Z</time>
      </trkpt>
      <trkpt lat="43.67536" lon="2.83589">
        <ele>839.048</ele>
        <time>2016-12-29T21:35:43Z</time>
      </trkpt>
      <trkpt lat="43.67518" lon="2.83522">
        <ele>841.467</ele>
        <time>2016-12-29T21:36:03Z</time>
      </trkpt>
      <trkpt lat="43.67487" lon="2.83467">
        <ele>850.718</ele>
        <time>2016-12-29T21:36:23Z</time>
      </trkpt>
      <trkpt lat="43.67515" lon="2.83426">
        <ele>851.092</ele>
        <time>2016-12-29T21:36:43Z</time>
      </trkpt>
      <trkpt lat="43.67567" lon="2.83396">
        <ele>847.673</ele>
        <time>2016-12-29T21:37:03Z</time>
      </trkpt>
      <trkpt lat="43.67612" lon="2.83315">
        <ele>851.22</ele>
        <time>2016-12-29T21:37:23Z</time>
      </trkpt>
      <trkpt lat="43.67625" lon="2.83235">
        <ele>853.608</ele>
        <time>2016-12-29T21:37:43Z</time>
      </trkpt>
      <trkpt lat="43.67624" lon="2.83148">
        <ele>849.646</ele>
        <time>2016-12-29T21:38:03Z</time>
      </trkpt>
      <trkpt lat="43.67583" lon="2.83041">
        <ele>843.959</ele>
        <time>2016-12-29T21:38:23Z</time>
      </trkpt>
      <trkpt lat="43.6753" lon="2.82999">
        <ele>840.795</ele>
        <time>2016-12-29T21:38:43Z</time>
      </trkpt>
      <trkpt lat="43.67409" lon="2.82939">
        <ele>843.094</ele>
        <time>2016-12-29T21:39:03Z</time>
      </trkpt>
      <trkpt lat="43.67376" lon="2.82859">
        <ele>833.651</ele>
        <time>2016-12-29T21:39:23Z</time>
      </trkpt>
      <trkpt lat="43.67327" lon="2.82797">
        <ele>830.232</ele>
        <time>2016-12-29T21:39:43Z</time>
      </trkpt>
      <trkpt lat="43.67266" lon="2.8277">
        <ele>828.551</ele>
        <time>2016-12-29T21:40:03Z</time>
      </trkpt>
      <trkpt lat="43.67263" lon="2.82746">
        <ele>824.352</ele>
        <time>2016-12-29T21:40:23Z</time>
      </trkpt>
      <trkpt lat="43.67247" lon="2.8272">
        <ele>820.837</ele>
        <time>2016-12-29T21:40:43Z</time>
      </trkpt>
      <trkpt lat="43.67244" lon="2.82648">
        <ele>809.449</ele>
        <time>2016-12-29T21:41:03Z</time>
      </trkpt>
      <trkpt lat="43.67166" lon="2.82638">
        <ele>809.913</ele>
        <time>2016-12-29T21:41:23Z</time>
      </trkpt>
      <trkpt lat="43.67087" lon="2.82593">
        <ele>807.608</ele>
        <time>2016-12-29T21:41:43Z</time>
      </trkpt>
      <trkpt lat="43.66997" lon="2.82503">
        <ele>811.79</ele>
        <time>2016-12-29T21:42:03Z</time>
      </trkpt>
      <trkpt lat="43.66943" lon="2.82444">
        <ele>808.153</ele>
        <time>2016-12-29T21:42:23Z</time>
      </trkpt>
      <trkpt lat="43.66891" lon="2.82409">
        <ele>809.269</ele>
        <time>2016-12-29T21:42:43Z</time>
      </trkpt>
      <trkpt lat="43.66835" lon="2.82357">
        <ele>809.078</ele>
        <time>2016-12-29T21:43:03Z</time>
      </trkpt>
      <trkpt lat="43.66724" lon="2.82324">
        <ele>809.325</ele>
        <time>2016-12-29T21:43:23Z</time>
      </trkpt>
      <trkpt lat="43.66634" lon="2.82299">
        <ele>812.596</ele>
        <time>2016-12-29T21:43:43Z</time>
      </trkpt>
      <trkpt lat="43.66622" lon="2.82274">
        <ele>810.035</ele>
        <time>2016-12-29T21:44:23Z</time>
      </trkpt>
      <trkpt lat="43.6658" lon="2.82224">
        <ele>807.646</ele>
        <time>2016-12-29T21:44:43Z</time>
      </trkpt>
      <trkpt lat="43.66512" lon="2.82182">
        <ele>809.422</ele>
        <time>2016-12-29T21:45:03Z</time>
      </trkpt>
      <trkpt lat="43.66488" lon="2.8215">
        <ele>808.462</ele>
        <time>2016-12-29T21:45:23Z</time>
      </trkpt>
      <trkpt lat="43.66412" lon="2.82077">
        <ele>809.108</ele>
        <time>2016-12-29T21:45:43Z</time>
      </trkpt>
      <trkpt lat="43.66401" lon="2.81995">
        <ele>803.808</ele>
        <time>2016-12-29T21:46:03Z</time>
      </trkpt>
      <trkpt lat="43.66407" lon="2.81966">
        <ele>801.469</ele>
        <time>2016-12-29T21:46:23Z</time>
      </trkpt>
      <trkpt lat="43.66389" lon="2.81905">
        <ele>800.062</ele>
        <time>2016-12-29T21:46:43Z</time>
      </trkpt>
      <trkpt lat="43.6633" lon="2.81836">
        <ele>800.058</ele>
        <time>2016-12-29T21:47:03Z</time>
      </trkpt>
      <trkpt lat="43.66305" lon="2.81786">
        <ele>800.027</ele>
        <time>2016-12-29T21:47:23Z</time>
      </trkpt>
      <trkpt lat="43.66295" lon="2.81747">
        <ele>800.024</ele>
        <time>2016-12-29T21:47:43Z</time>
      </trkpt>
      <trkpt lat="43.66272" lon="2.81774">
        <ele>800.035</ele>
        <time>2016-12-29T21:48:03Z</time>
      </trkpt>
      <trkpt lat="43.66233" lon="2.81782">
        <ele>802.184</ele>
        <time>2016-12-29T21:48:23Z</time>
      </trkpt>
      <trkpt lat="43.66184" lon="2.81758">
        <ele>805.075</ele>
        <time>2016-12-29T21:48:43Z</time>
      </trkpt>
      <trkpt lat="43.66151" lon="2.81706">
        <ele>807.943</ele>
        <time>2016-12-29T21:49:03Z</time>
      </trkpt>
      <trkpt lat="43.66141" lon="2.81648">
        <ele>808.964</ele>
        <time>2016-12-29T21:49:23Z</time>
      </trkpt>
      <trkpt lat="43.66164" lon="2.81585">
        <ele>804.51</ele>
        <time>2016-12-29T21:49:43Z</time>
      </trkpt>
      <trkpt lat="43.66184" lon="2.81502">
        <ele>806.408</ele>
        <time>2016-12-29T21:50:03Z</time>
      </trkpt>
      <trkpt lat="43.66208" lon="2.8146">
        <ele>807.871</ele>
        <time>2016-12-29T21:50:23Z</time>
      </trkpt>
      <trkpt lat="43.66289" lon="2.81405">
        <ele>805.934</ele>
        <time>2016-12-29T21:50:43Z</time>
      </trkpt>
      <trkpt lat="43.66343" lon="2.81388">
        <ele>803.86</ele>
        <time>2016-12-29T21:51:03Z</time>
      </trkpt>
      <trkpt lat="43.66412" lon="2.81397">
        <ele>799.459</ele>
        <time>2016-12-29T21:51:23Z</time>
      </trkpt>
      <trkpt lat="43.66456" lon="2.81401">
        <ele>799.316</ele>
        <time>2016-12-29T21:51:43Z</time>
      </trkpt>
      <trkpt lat="43.6652" lon="2.8138">
        <ele>799.287</ele>
        <time>2016-12-29T21:52:23Z</time>
      </trkpt>
      <trkpt lat="43.66583" lon="2.81333">
        <ele>798.376</ele>
        <time>2016-12-29T21:52:43Z</time>
      </trkpt>
      <trkpt lat="43.66563" lon="2.81327">
        <ele>802.587</ele>
        <time>2016-12-29T21:53:03Z</time>
      </trkpt>
      <trkpt lat="43.6648" lon="2.81355">
        <ele>811.213</ele>
        <time>2016-12-29T21:53:23Z</time>
      </trkpt>
      <trkpt lat="43.66448" lon="2.81339">
        <ele>821.843</ele>
        <time>2021-04-17T04:32:50Z</time>
      </trkpt>
      <trkpt lat="43.66402" lon="2.81292">
        <ele>828.307</ele>
        <time>2016-12-29T21:53:43Z</time>
      </trkpt>
      <trkpt lat="43.66267" lon="2.81305">
        <ele>841.508</ele>
        <time>2016-12-29T21:54:03Z</time>
      </trkpt>
      <trkpt lat="43.66259" lon="2.81294">
        <ele>842.868</ele>
        <time>2016-12-29T21:54:23Z</time>
      </trkpt>
      <trkpt lat="43.66164" lon="2.81315">
        <ele>852.461</ele>
        <time>2016-12-29T21:54:43Z</time>
      </trkpt>
      <trkpt lat="43.66149" lon="2.81191">
        <ele>852.057</ele>
        <time>2016-12-29T21:55:03Z</time>
      </trkpt>
      <trkpt lat="43.66113" lon="2.81085">
        <ele>850.926</ele>
        <time>2016-12-29T21:55:23Z</time>
      </trkpt>
      <trkpt lat="43.66011" lon="2.80966">
        <ele>856.593</ele>
        <time>2016-12-29T21:55:43Z</time>
      </trkpt>
      <trkpt lat="43.6604" lon="2.80945">
        <ele>848.524</ele>
        <time>2016-12-29T21:56:03Z</time>
      </trkpt>
      <trkpt lat="43.66028" lon="2.8088">
        <ele>845.433</ele>
        <time>2016-12-29T21:56:23Z</time>
      </trkpt>
      <trkpt lat="43.65983" lon="2.80792">
        <ele>843.564</ele>
        <time>2016-12-29T21:56:43Z</time>
      </trkpt>
      <trkpt lat="43.65973" lon="2.80729">
        <ele>839.577</ele>
        <time>2016-12-29T21:57:03Z</time>
      </trkpt>
      <trkpt lat="43.6595" lon="2.80644">
        <ele>836.661</ele>
        <time>2016-12-29T21:57:23Z</time>
      </trkpt>
      <trkpt lat="43.65905" lon="2.8053">
        <ele>831.527</ele>
        <time>2016-12-29T21:57:43Z</time>
      </trkpt>
      <trkpt lat="43.65869" lon="2.80496">
        <ele>829.008</ele>
        <time>2016-12-29T21:58:03Z</time>
      </trkpt>
      <trkpt lat="43.65818" lon="2.80489">
        <ele>823.694</ele>
        <time>2016-12-29T21:58:23Z</time>
      </trkpt>
      <trkpt lat="43.6577" lon="2.80516">
        <ele>823.777</ele>
        <time>2016-12-29T21:58:43Z</time>
      </trkpt>
      <trkpt lat="43.65739" lon="2.80505">
        <ele>818.583</ele>
        <time>2016-12-29T21:59:03Z</time>
      </trkpt>
      <trkpt lat="43.65699" lon="2.80513">
        <ele>819.362</ele>
        <time>2016-12-29T21:59:23Z</time>
      </trkpt>
      <trkpt lat="43.6559" lon="2.80502">
        <ele>809.669</ele>
        <time>2016-12-29T21:59:43Z</time>
      </trkpt>
      <trkpt lat="43.65481" lon="2.80459">
        <ele>799.32</ele>
        <time>2016-12-29T22:00:03Z</time>
      </trkpt>
      <trkpt lat="43.65437" lon="2.80501">
        <ele>802.299</ele>
        <time>2016-12-29T22:00:23Z</time>
      </trkpt>
      <trkpt lat="43.6542" lon="2.80464">
        <ele>800.07</ele>
        <time>2016-12-29T22:00:43Z</time>
      </trkpt>
      <trkpt lat="43.6542" lon="2.80419">
        <ele>792.478</ele>
        <time>2016-12-29T22:01:03Z</time>
      </trkpt>
      <trkpt lat="43.65409" lon="2.8039">
        <ele>788.733</ele>
        <time>2016-12-29T22:01:23Z</time>
      </trkpt>
      <trkpt lat="43.65313" lon="2.8031">
        <ele>788.726</ele>
        <time>2016-12-29T22:01:43Z</time>
      </trkpt>
      <trkpt lat="43.65276" lon="2.803">
        <ele>791.408</ele>
        <time>2016-12-29T22:02:03Z</time>
      </trkpt>
      <trkpt lat="43.65229" lon="2.8026">
        <ele>790.544</ele>
        <time>2016-12-29T22:02:23Z</time>
      </trkpt>
      <trkpt lat="43.65251" lon="2.80214">
        <ele>781.093</ele>
        <time>2016-12-29T22:03:03Z</time>
      </trkpt>
      <trkpt lat="43.65254" lon="2.80156">
        <ele>777.042</ele>
        <time>2016-12-29T22:03:23Z</time>
      </trkpt>
      <trkpt lat="43.65192" lon="2.80048">
        <ele>777.119</ele>
        <time>2016-12-29T22:03:43Z</time>
      </trkpt>
      <trkpt lat="43.65144" lon="2.79997">
        <ele>777.04</ele>
        <time>2016-12-29T22:04:03Z</time>
      </trkpt>
      <trkpt lat="43.65096" lon="2.79967">
        <ele>777.089</ele>
        <time>2016-12-29T22:04:23Z</time>
      </trkpt>
      <trkpt lat="43.65043" lon="2.79896">
        <ele>777.69</ele>
        <time>2016-12-29T22:04:43Z</time>
      </trkpt>
      <trkpt lat="43.65009" lon="2.79802">
        <ele>777.858</ele>
        <time>2016-12-29T22:05:03Z</time>
      </trkpt>
      <trkpt lat="43.65003" lon="2.79703">
        <ele>781.952</ele>
        <time>2016-12-29T22:05:23Z</time>
      </trkpt>
      <trkpt lat="43.65014" lon="2.79647">
        <ele>782.117</ele>
        <time>2016-12-29T22:05:43Z</time>
      </trkpt>
      <trkpt lat="43.65014" lon="2.79576">
        <ele>784.108</ele>
        <time>2016-12-29T22:06:03Z</time>
      </trkpt>
      <trkpt lat="43.65023" lon="2.7951">
        <ele>779.912</ele>
        <time>2016-12-29T22:06:23Z</time>
      </trkpt>
      <trkpt lat="43.65017" lon="2.79452">
        <ele>778.355</ele>
        <time>2016-12-29T22:06:43Z</time>
      </trkpt>
      <trkpt lat="43.64995" lon="2.79433">
        <ele>778.031</ele>
        <time>2016-12-29T22:07:03Z</time>
      </trkpt>
      <trkpt lat="43.64952" lon="2.7942">
        <ele>777.01</ele>
        <time>2016-12-29T22:07:23Z</time>
      </trkpt>
      <trkpt lat="43.64903" lon="2.79491">
        <ele>777.087</ele>
        <time>2016-12-29T22:07:43Z</time>
      </trkpt>
      <trkpt lat="43.6488" lon="2.79463">
        <ele>777.128</ele>
        <time>2016-12-29T22:08:03Z</time>
      </trkpt>
      <trkpt lat="43.64835" lon="2.79347">
        <ele>779.337</ele>
        <time>2016-12-29T22:08:23Z</time>
      </trkpt>
      <trkpt lat="43.64841" lon="2.79263">
        <ele>777.328</ele>
        <time>2016-12-29T22:08:43Z</time>
      </trkpt>
      <trkpt lat="43.64829" lon="2.79207">
        <ele>777.398</ele>
        <time>2016-12-29T22:09:03Z</time>
      </trkpt>
      <trkpt lat="43.64809" lon="2.79175">
        <ele>777.915</ele>
        <time>2016-12-29T22:09:23Z</time>
      </trkpt>
      <trkpt lat="43.64804" lon="2.79139">
        <ele>779.226</ele>
        <time>2016-12-29T22:09:43Z</time>
      </trkpt>
      <trkpt lat="43.64844" lon="2.7904">
        <ele>779.508</ele>
        <time>2016-12-29T22:10:03Z</time>
      </trkpt>
      <trkpt lat="43.64823" lon="2.78911">
        <ele>778.726</ele>
        <time>2016-12-29T22:10:23Z</time>
      </trkpt>
      <trkpt lat="43.64795" lon="2.78832">
        <ele>779.639</ele>
        <time>2016-12-29T22:10:43Z</time>
      </trkpt>
      <trkpt lat="43.64776" lon="2.78763">
        <ele>777.745</ele>
        <time>2016-12-29T22:11:03Z</time>
      </trkpt>
      <trkpt lat="43.64733" lon="2.78716">
        <ele>778.054</ele>
        <time>2016-12-29T22:11:23Z</time>
      </trkpt>
      <trkpt lat="43.64702" lon="2.78664">
        <ele>777.071</ele>
        <time>2016-12-29T22:11:43Z</time>
      </trkpt>
      <trkpt lat="43.6465" lon="2.78611">
        <ele>778.792</ele>
        <time>2016-12-29T22:12:03Z</time>
      </trkpt>
      <trkpt lat="43.64618" lon="2.78626">
        <ele>786.141</ele>
        <time>2016-12-29T22:12:23Z</time>
      </trkpt>
      <trkpt lat="43.6459" lon="2.78572">
        <ele>786.782</ele>
        <time>2016-12-29T22:12:43Z</time>
      </trkpt>
      <trkpt lat="43.64501" lon="2.78267">
        <ele>788.741</ele>
        <time>2016-12-29T22:13:03Z</time>
      </trkpt>
      <trkpt lat="43.64456" lon="2.78216">
        <ele>791.181</ele>
        <time>2016-12-29T22:13:23Z</time>
      </trkpt>
      <trkpt lat="43.64433" lon="2.7822">
        <ele>794.009</ele>
        <time>2016-12-29T22:13:43Z</time>
      </trkpt>
      <trkpt lat="43.64404" lon="2.78263">
        <ele>804.108</ele>
        <time>2016-12-29T22:14:03Z</time>
      </trkpt>
      <trkpt lat="43.64352" lon="2.78049">
        <ele>788.231</ele>
        <time>2016-12-29T22:14:23Z</time>
      </trkpt>
      <trkpt lat="43.64324" lon="2.77993">
        <ele>788.794</ele>
        <time>2016-12-29T22:14:43Z</time>
      </trkpt>
      <trkpt lat="43.6431" lon="2.77988">
        <ele>791.26</ele>
        <time>2016-12-29T22:15:03Z</time>
      </trkpt>
      <trkpt lat="43.64332" lon="2.77933">
        <ele>781.889</ele>
        <time>2016-12-29T22:15:23Z</time>
      </trkpt>
      <trkpt lat="43.64334" lon="2.7784">
        <ele>778.276</ele>
        <time>2016-12-29T22:15:43Z</time>
      </trkpt>
      <trkpt lat="43.64326" lon="2.77808">
        <ele>777.127</ele>
        <time>2016-12-29T22:16:03Z</time>
      </trkpt>
      <trkpt lat="43.64293" lon="2.77832">
        <ele>777.586</ele>
        <time>2016-12-29T22:16:23Z</time>
      </trkpt>
      <trkpt lat="43.64244" lon="2.77894">
        <ele>778.287</ele>
        <time>2016-12-29T22:16:43Z</time>
      </trkpt>
      <trkpt lat="43.64203" lon="2.7786">
        <ele>777.049</ele>
        <time>2016-12-29T22:17:03Z</time>
      </trkpt>
      <trkpt lat="43.64119" lon="2.77855">
        <ele>777.002</ele>
        <time>2016-12-29T22:17:23Z</time>
      </trkpt>
      <trkpt lat="43.64039" lon="2.77868">
        <ele>777.722</ele>
        <time>2016-12-29T22:17:43Z</time>
      </trkpt>
      <trkpt lat="43.64012" lon="2.77821">
        <ele>777.008</ele>
        <time>2016-12-29T22:18:03Z</time>
      </trkpt>
      <trkpt lat="43.63976" lon="2.77823">
        <ele>777.021</ele>
        <time>2016-12-29T22:18:23Z</time>
      </trkpt>
      <trkpt lat="43.63941" lon="2.77858">
        <ele>777.894</ele>
        <time>2016-12-29T22:18:43Z</time>
      </trkpt>
      <trkpt lat="43.6388" lon="2.77797">
        <ele>777.05</ele>
        <time>2016-12-29T22:19:03Z</time>
      </trkpt>
      <trkpt lat="43.63809" lon="2.77757">
        <ele>777.089</ele>
        <time>2016-12-29T22:19:23Z</time>
      </trkpt>
      <trkpt lat="43.63768" lon="2.7777">
        <ele>777.016</ele>
        <time>2016-12-29T22:19:43Z</time>
      </trkpt>
      <trkpt lat="43.63694" lon="2.77727">
        <ele>777.027</ele>
        <time>2016-12-29T22:20:03Z</time>
      </trkpt>
      <trkpt lat="43.63591" lon="2.77583">
        <ele>777.026</ele>
        <time>2016-12-29T22:20:23Z</time>
      </trkpt>
      <trkpt lat="43.63514" lon="2.77542">
        <ele>777.377</ele>
        <time>2016-12-29T22:20:43Z</time>
      </trkpt>
      <trkpt lat="43.63484" lon="2.77544">
        <ele>777.939</ele>
        <time>2016-12-29T22:21:03Z</time>
      </trkpt>
      <trkpt lat="43.63459" lon="2.77514">
        <ele>777.201</ele>
        <time>2016-12-29T22:21:23Z</time>
      </trkpt>
      <trkpt lat="43.63436" lon="2.77473">
        <ele>777.321</ele>
        <time>2016-12-29T22:21:43Z</time>
      </trkpt>
      <trkpt lat="43.63421" lon="2.77407">
        <ele>777.008</ele>
        <time>2016-12-29T22:22:03Z</time>
      </trkpt>
      <trkpt lat="43.63368" lon="2.77435">
        <ele>781.97</ele>
        <time>2016-12-29T22:22:23Z</time>
      </trkpt>
      <trkpt lat="43.63344" lon="2.77284">
        <ele>778.763</ele>
        <time>2016-12-29T22:22:43Z</time>
      </trkpt>
      <trkpt lat="43.63326" lon="2.77122">
        <ele>778.839</ele>
        <time>2016-12-29T22:23:03Z</time>
      </trkpt>
      <trkpt lat="43.63298" lon="2.77039">
        <ele>781.558</ele>
        <time>2016-12-29T22:23:23Z</time>
      </trkpt>
      <trkpt lat="43.63317" lon="2.76995">
        <ele>782.685</ele>
        <time>2016-12-29T22:23:43Z</time>
      </trkpt>
      <trkpt lat="43.63391" lon="2.76938">
        <ele>780.596</ele>
        <time>2016-12-29T22:24:03Z</time>
      </trkpt>
      <trkpt lat="43.63462" lon="2.7686">
        <ele>780.665</ele>
        <time>2016-12-29T22:24:23Z</time>
      </trkpt>
      <trkpt lat="43.63457" lon="2.76833">
        <ele>784.356</ele>
        <time>2016-12-29T22:24:43Z</time>
      </trkpt>
      <trkpt lat="43.6346" lon="2.76801">
        <ele>787.831</ele>
        <time>2016-12-29T22:25:03Z</time>
      </trkpt>
      <trkpt lat="43.63445" lon="2.76794">
        <ele>791.661</ele>
        <time>2016-12-29T22:25:23Z</time>
      </trkpt>
      <trkpt lat="43.63427" lon="2.76817">
        <ele>791.207</ele>
        <time>2016-12-29T22:25:43Z</time>
      </trkpt>
      <trkpt lat="43.63334" lon="2.76817">
        <ele>807.008</ele>
        <time>2016-12-29T22:26:03Z</time>
      </trkpt>
      <trkpt lat="43.63281" lon="2.76854">
        <ele>817.69</ele>
        <time>2021-04-17T05:05:50Z</time>
      </trkpt>
      <trkpt lat="43.63226" lon="2.76854">
        <ele>823.073</ele>
        <time>2021-04-17T05:06:10Z</time>
      </trkpt>
      <trkpt lat="43.63209" lon="2.76837">
        <ele>828.119</ele>
        <time>2021-04-17T05:06:30Z</time>
      </trkpt>
      <trkpt lat="43.63166" lon="2.76832">
        <ele>825.278</ele>
        <time>2016-12-29T22:26:43Z</time>
      </trkpt>
      <trkpt lat="43.63109" lon="2.76712">
        <ele>840.465</ele>
        <time>2016-12-29T22:27:03Z</time>
      </trkpt>
      <trkpt lat="43.63073" lon="2.76572">
        <ele>845.386</ele>
        <time>2016-12-29T22:27:23Z</time>
      </trkpt>
      <trkpt lat="43.62972" lon="2.76532">
        <ele>850.145</ele>
        <time>2016-12-29T22:27:43Z</time>
      </trkpt>
      <trkpt lat="43.62885" lon="2.76466">
        <ele>849.476</ele>
        <time>2016-12-29T22:28:03Z</time>
      </trkpt>
      <trkpt lat="43.62807" lon="2.76447">
        <ele>844.263</ele>
        <time>2016-12-29T22:28:23Z</time>
      </trkpt>
      <trkpt lat="43.62781" lon="2.76386">
        <ele>843.344</ele>
        <time>2016-12-29T22:28:43Z</time>
      </trkpt>
      <trkpt lat="43.62748" lon="2.76339">
        <ele>845.618</ele>
        <time>2016-12-29T22:29:03Z</time>
      </trkpt>
      <trkpt lat="43.6275" lon="2.76218">
        <ele>843.808</ele>
        <time>2016-12-29T22:29:23Z</time>
      </trkpt>
      <trkpt lat="43.62697" lon="2.76121">
        <ele>859.893</ele>
        <time>2021-04-17T05:09:50Z</time>
      </trkpt>
      <trkpt lat="43.62651" lon="2.76091">
        <ele>857.546</ele>
        <time>2016-12-29T22:30:03Z</time>
      </trkpt>
      <trkpt lat="43.62592" lon="2.76084">
        <ele>863.792</ele>
        <time>2016-12-29T22:30:23Z</time>
      </trkpt>
      <trkpt lat="43.62507" lon="2.76111">
        <ele>864.241</ele>
        <time>2016-12-29T22:30:43Z</time>
      </trkpt>
      <trkpt lat="43.62471" lon="2.76126">
        <ele>864.198</ele>
        <time>2016-12-29T22:31:03Z</time>
      </trkpt>
      <trkpt lat="43.62447" lon="2.76152">
        <ele>866.949</ele>
        <time>2016-12-29T22:31:23Z</time>
      </trkpt>
      <trkpt lat="43.62381" lon="2.7617">
        <ele>871.588</ele>
        <time>2016-12-29T22:31:43Z</time>
      </trkpt>
      <trkpt lat="43.6233" lon="2.76235">
        <ele>875.419</ele>
        <time>2016-12-29T22:32:03Z</time>
      </trkpt>
      <trkpt lat="43.62253" lon="2.76228">
        <ele>873.517</ele>
        <time>2016-12-29T22:32:23Z</time>
      </trkpt>
      <trkpt lat="43.62186" lon="2.76234">
        <ele>877.687</ele>
        <time>2016-12-29T22:32:43Z</time>
      </trkpt>
      <trkpt lat="43.62116" lon="2.76227">
        <ele>883.815</ele>
        <time>2016-12-29T22:33:03Z</time>
      </trkpt>
      <trkpt lat="43.62055" lon="2.76265">
        <ele>890.708</ele>
        <time>2016-12-29T22:33:23Z</time>
      </trkpt>
      <trkpt lat="43.61981" lon="2.76276">
        <ele>893.498</ele>
        <time>2016-12-29T22:33:43Z</time>
      </trkpt>
      <trkpt lat="43.61897" lon="2.76227">
        <ele>895.621</ele>
        <time>2016-12-29T22:34:03Z</time>
      </trkpt>
      <trkpt lat="43.61831" lon="2.76235">
        <ele>904.527</ele>
        <time>2016-12-29T22:34:23Z</time>
      </trkpt>
      <trkpt lat="43.61707" lon="2.7628">
        <ele>918.556</ele>
        <time>2016-12-29T22:34:43Z</time>
      </trkpt>
      <trkpt lat="43.61647" lon="2.76283">
        <ele>920.563</ele>
        <time>2016-12-29T22:35:03Z</time>
      </trkpt>
      <trkpt lat="43.61615" lon="2.7626">
        <ele>920.444</ele>
        <time>2016-12-29T22:35:23Z</time>
      </trkpt>
      <trkpt lat="43.61597" lon="2.7622">
        <ele>915.793</ele>
        <time>2016-12-29T22:35:43Z</time>
      </trkpt>
      <trkpt lat="43.61573" lon="2.76145">
        <ele>907.354</ele>
        <time>2016-12-29T22:36:03Z</time>
      </trkpt>
      <trkpt lat="43.61549" lon="2.76125">
        <ele>907.149</ele>
        <time>2016-12-29T22:36:23Z</time>
      </trkpt>
      <trkpt lat="43.615" lon="2.76023">
        <ele>910.702</ele>
        <time>2016-12-29T22:36:43Z</time>
      </trkpt>
      <trkpt lat="43.61465" lon="2.75992">
        <ele>917.122</ele>
        <time>2016-12-29T22:37:03Z</time>
      </trkpt>
      <trkpt lat="43.6147" lon="2.75964">
        <ele>920.508</ele>
        <time>2016-12-29T22:37:23Z</time>
      </trkpt>
      <trkpt lat="43.6142" lon="2.75903">
        <ele>927.941</ele>
        <time>2016-12-29T22:37:43Z</time>
      </trkpt>
      <trkpt lat="43.61494" lon="2.75837">
        <ele>934.934</ele>
        <time>2016-12-29T22:38:03Z</time>
      </trkpt>
      <trkpt lat="43.61544" lon="2.75737">
        <ele>937.62</ele>
        <time>2016-12-29T22:38:23Z</time>
      </trkpt>
      <trkpt lat="43.61576" lon="2.7571">
        <ele>943.239</ele>
        <time>2016-12-29T22:38:43Z</time>
      </trkpt>
      <trkpt lat="43.616" lon="2.75711">
        <ele>948.336</ele>
        <time>2016-12-29T22:39:03Z</time>
      </trkpt>
      <trkpt lat="43.61614" lon="2.75681">
        <ele>952.957</ele>
        <time>2016-12-29T22:39:23Z</time>
      </trkpt>
      <trkpt lat="43.61609" lon="2.75654">
        <ele>954.016</ele>
        <time>2016-12-29T22:39:43Z</time>
      </trkpt>
      <trkpt lat="43.61573" lon="2.75628">
        <ele>950.397</ele>
        <time>2016-12-29T22:40:03Z</time>
      </trkpt>
      <trkpt lat="43.61569" lon="2.75578">
        <ele>953.138</ele>
        <time>2016-12-29T22:40:23Z</time>
      </trkpt>
      <trkpt lat="43.61588" lon="2.75498">
        <ele>955.87</ele>
        <time>2016-12-29T22:40:43Z</time>
      </trkpt>
      <trkpt lat="43.61623" lon="2.75396">
        <ele>952.217</ele>
        <time>2016-12-29T22:41:03Z</time>
      </trkpt>
      <trkpt lat="43.61644" lon="2.75373">
        <ele>952.408</ele>
        <time>2016-12-29T22:41:23Z</time>
      </trkpt>
      <trkpt lat="43.61673" lon="2.75311">
        <ele>950.09</ele>
        <time>2016-12-29T22:41:43Z</time>
      </trkpt>
      <trkpt lat="43.61594" lon="2.75311">
        <ele>952.013</ele>
        <time>2016-12-29T22:42:03Z</time>
      </trkpt>
      <trkpt lat="43.61524" lon="2.75292">
        <ele>944.229</ele>
        <time>2016-12-29T22:42:23Z</time>
      </trkpt>
      <trkpt lat="43.61406" lon="2.75144">
        <ele>932.598</ele>
        <time>2016-12-29T22:42:43Z</time>
      </trkpt>
      <trkpt lat="43.61324" lon="2.75169">
        <ele>921.235</ele>
        <time>2016-12-29T22:43:03Z</time>
      </trkpt>
      <trkpt lat="43.6124" lon="2.75153">
        <ele>918.716</ele>
        <time>2016-12-29T22:43:23Z</time>
      </trkpt>
      <trkpt lat="43.61204" lon="2.751">
        <ele>916.655</ele>
        <time>2016-12-29T22:43:43Z</time>
      </trkpt>
      <trkpt lat="43.61209" lon="2.75041">
        <ele>914.046</ele>
        <time>2016-12-29T22:44:03Z</time>
      </trkpt>
      <trkpt lat="43.6124" lon="2.74978">
        <ele>911.686</ele>
        <time>2016-12-29T22:44:23Z</time>
      </trkpt>
      <trkpt lat="43.6127" lon="2.74935">
        <ele>910.06</ele>
        <time>2016-12-29T22:44:43Z</time>
      </trkpt>
      <trkpt lat="43.613" lon="2.74848">
        <ele>907.526</ele>
        <time>2016-12-29T22:45:03Z</time>
      </trkpt>
      <trkpt lat="43.61269" lon="2.74764">
        <ele>906.608</ele>
        <time>2016-12-29T22:45:23Z</time>
      </trkpt>
      <trkpt lat="43.61233" lon="2.74748">
        <ele>900.885</ele>
        <time>2016-12-29T22:45:43Z</time>
      </trkpt>
      <trkpt lat="43.61216" lon="2.74709">
        <ele>900.328</ele>
        <time>2016-12-29T22:46:03Z</time>
      </trkpt>
      <trkpt lat="43.61222" lon="2.74531">
        <ele>895.154</ele>
        <time>2016-12-29T22:46:23Z</time>
      </trkpt>
      <trkpt lat="43.6118" lon="2.74404">
        <ele>893.723</ele>
        <time>2016-12-29T22:46:43Z</time>
      </trkpt>
      <trkpt lat="43.61149" lon="2.74385">
        <ele>892.69</ele>
        <time>2016-12-29T22:47:03Z</time>
      </trkpt>
      <trkpt lat="43.61091" lon="2.74461">
        <ele>887.671</ele>
        <time>2016-12-29T22:47:23Z</time>
      </trkpt>
      <trkpt lat="43.61066" lon="2.74454">
        <ele>885.57</ele>
        <time>2016-12-29T22:47:43Z</time>
      </trkpt>
      <trkpt lat="43.61028" lon="2.7433">
        <ele>884.351</ele>
        <time>2016-12-29T22:48:03Z</time>
      </trkpt>
      <trkpt lat="43.60994" lon="2.74249">
        <ele>881.162</ele>
        <time>2016-12-29T22:48:23Z</time>
      </trkpt>
      <trkpt lat="43.60997" lon="2.74174">
        <ele>877.083</ele>
        <time>2016-12-29T22:48:43Z</time>
      </trkpt>
      <trkpt lat="43.61048" lon="2.74042">
        <ele>879.411</ele>
        <time>2016-12-29T22:49:03Z</time>
      </trkpt>
      <trkpt lat="43.61045" lon="2.73989">
        <ele>875.408</ele>
        <time>2016-12-29T22:49:23Z</time>
      </trkpt>
      <trkpt lat="43.61019" lon="2.7383">
        <ele>869.923</ele>
        <time>2016-12-29T22:49:43Z</time>
      </trkpt>
      <trkpt lat="43.61004" lon="2.7377">
        <ele>868.096</ele>
        <time>2016-12-29T22:50:03Z</time>
      </trkpt>
      <trkpt lat="43.61021" lon="2.7367">
        <ele>871.632</ele>
        <time>2016-12-29T22:50:23Z</time>
      </trkpt>
      <trkpt lat="43.61006" lon="2.73621">
        <ele>871.231</ele>
        <time>2016-12-29T22:50:43Z</time>
      </trkpt>
      <trkpt lat="43.60962" lon="2.73598">
        <ele>866.728</ele>
        <time>2016-12-29T22:51:03Z</time>
      </trkpt>
      <trkpt lat="43.60882" lon="2.73618">
        <ele>855.779</ele>
        <time>2016-12-29T22:51:23Z</time>
      </trkpt>
      <trkpt lat="43.60846" lon="2.73564">
        <ele>858.078</ele>
        <time>2016-12-29T22:51:43Z</time>
      </trkpt>
      <trkpt lat="43.60805" lon="2.73536">
        <ele>853.699</ele>
        <time>2016-12-29T22:52:03Z</time>
      </trkpt>
      <trkpt lat="43.6078" lon="2.73458">
        <ele>844.927</ele>
        <time>2016-12-29T22:52:23Z</time>
      </trkpt>
      <trkpt lat="43.60797" lon="2.73347">
        <ele>838.768</ele>
        <time>2016-12-29T22:52:43Z</time>
      </trkpt>
      <trkpt lat="43.60833" lon="2.73216">
        <ele>827.614</ele>
        <time>2016-12-29T22:53:03Z</time>
      </trkpt>
      <trkpt lat="43.60833" lon="2.7306">
        <ele>818.108</ele>
        <time>2016-12-29T22:53:23Z</time>
      </trkpt>
      <trkpt lat="43.60813" lon="2.72965">
        <ele>818.279</ele>
        <time>2016-12-29T22:53:43Z</time>
      </trkpt>
      <trkpt lat="43.60851" lon="2.72884">
        <ele>819.922</ele>
        <time>2016-12-29T22:54:03Z</time>
      </trkpt>
      <trkpt lat="43.60878" lon="2.72776">
        <ele>821.568</ele>
        <time>2016-12-29T22:54:23Z</time>
      </trkpt>
      <trkpt lat="43.60879" lon="2.72766">
        <ele>822.087</ele>
        <time>2016-12-29T22:54:43Z</time>
      </trkpt>
      <trkpt lat="43.60853" lon="2.72649">
        <ele>829.524</ele>
        <time>2016-12-29T22:55:03Z</time>
      </trkpt>
      <trkpt lat="43.60875" lon="2.72619">
        <ele>826.575</ele>
        <time>2016-12-29T22:55:23Z</time>
      </trkpt>
      <trkpt lat="43.60958" lon="2.72414">
        <ele>818.954</ele>
        <time>2016-12-29T22:55:43Z</time>
      </trkpt>
      <trkpt lat="43.60984" lon="2.72249">
        <ele>811.155</ele>
        <time>2016-12-29T22:59:43Z</time>
      </trkpt>
      <trkpt lat="43.60959" lon="2.72164">
        <ele>807.795</ele>
        <time>2016-12-29T23:00:43Z</time>
      </trkpt>
      <trkpt lat="43.60896" lon="2.72048">
        <ele>799.749</ele>
        <time>2016-12-29T23:02:23Z</time>
      </trkpt>
      <trkpt lat="43.6083" lon="2.71833">
        <ele>789.923</ele>
        <time>2016-12-29T23:02:43Z</time>
      </trkpt>
      <trkpt lat="43.60788" lon="2.71661">
        <ele>780.608</ele>
        <time>2016-12-29T23:03:03Z</time>
      </trkpt>
      <trkpt lat="43.60729" lon="2.71515">
        <ele>771.366</ele>
        <time>2016-12-29T23:04:03Z</time>
      </trkpt>
      <trkpt lat="43.60704" lon="2.71358">
        <ele>768.749</ele>
        <time>2016-12-29T23:04:23Z</time>
      </trkpt>
      <trkpt lat="43.60662" lon="2.71253">
        <ele>766.285</ele>
        <time>2016-12-29T23:04:43Z</time>
      </trkpt>
      <trkpt lat="43.60546" lon="2.71075">
        <ele>748.374</ele>
        <time>2016-12-29T23:05:03Z</time>
      </trkpt>
      <trkpt lat="43.6044" lon="2.70936">
        <ele>728.351</ele>
        <time>2016-12-29T23:05:23Z</time>
      </trkpt>
      <trkpt lat="43.60342" lon="2.70697">
        <ele>705.162</ele>
        <time>2016-12-29T23:05:43Z</time>
      </trkpt>
      <trkpt lat="43.60295" lon="2.7055">
        <ele>688.671</ele>
        <time>2016-12-29T23:06:03Z</time>
      </trkpt>
      <trkpt lat="43.60265" lon="2.70546">
        <ele>690.922</ele>
        <time>2016-12-29T23:06:23Z</time>
      </trkpt>
      <trkpt lat="43.60252" lon="2.70486">
        <ele>692.247</ele>
        <time>2016-12-29T23:06:43Z</time>
      </trkpt>
      <trkpt lat="43.60226" lon="2.70441">
        <ele>693.629</ele>
        <time>2021-04-17T05:40:50Z</time>
      </trkpt>
      <trkpt lat="43.60214" lon="2.70435">
        <ele>693.621</ele>
        <time>2021-04-17T05:41:10Z</time>
      </trkpt>
      <trkpt lat="43.60211" lon="2.70317">
        <ele>687.608</ele>
        <time>2021-04-17T05:41:30Z</time>
      </trkpt>
      <trkpt lat="43.60219" lon="2.70293">
        <ele>685.221</ele>
        <time>2021-04-17T05:41:50Z</time>
      </trkpt>
      <trkpt lat="43.60202" lon="2.70265">
        <ele>685.214</ele>
        <time>2021-04-17T05:42:10Z</time>
      </trkpt>
      <trkpt lat="43.60188" lon="2.70303">
        <ele>689.33</ele>
        <time>2021-04-17T05:42:30Z</time>
      </trkpt>
      <trkpt lat="43.60172" lon="2.70292">
        <ele>690.439</ele>
        <time>2021-04-17T05:42:50Z</time>
      </trkpt>
      <trkpt lat="43.60164" lon="2.70269">
        <ele>689.946</ele>
        <time>2021-04-17T05:43:10Z</time>
      </trkpt>
      <trkpt lat="43.60147" lon="2.70262">
        <ele>694.287</ele>
        <time>2021-04-17T05:43:30Z</time>
      </trkpt>
      <trkpt lat="43.60118" lon="2.70228">
        <ele>698.326</ele>
        <time>2021-04-17T05:43:50Z</time>
      </trkpt>
      <trkpt lat="43.60101" lon="2.70232">
        <ele>703.377</ele>
        <time>2021-04-17T05:44:10Z</time>
      </trkpt>
      <trkpt lat="43.60094" lon="2.70249">
        <ele>681.693</ele>
        <time>2016-12-29T23:11:03Z</time>
      </trkpt>
      <trkpt lat="43.60078" lon="2.70244">
        <ele>682.065</ele>
        <time>2016-12-29T23:11:23Z</time>
      </trkpt>
      <trkpt lat="43.60051" lon="2.70208">
        <ele>681.721</ele>
        <time>2016-12-29T23:11:43Z</time>
      </trkpt>
      <trkpt lat="43.60007" lon="2.70184">
        <ele>682.408</ele>
        <time>2016-12-29T23:12:03Z</time>
      </trkpt>
      <trkpt lat="43.59994" lon="2.70174">
        <ele>682.246</ele>
        <time>2016-12-29T23:12:23Z</time>
      </trkpt>
      <trkpt lat="43.59982" lon="2.70178">
        <ele>682.479</ele>
        <time>2016-12-29T23:12:43Z</time>
      </trkpt>
      <trkpt lat="43.59964" lon="2.7019">
        <ele>683.115</ele>
        <time>2016-12-29T23:13:03Z</time>
      </trkpt>
      <trkpt lat="43.59951" lon="2.70208">
        <ele>684.344</ele>
        <time>2016-12-29T23:13:23Z</time>
      </trkpt>
      <trkpt lat="43.59945" lon="2.70198">
        <ele>684.161</ele>
        <time>2016-12-29T23:13:43Z</time>
      </trkpt>
      <trkpt lat="43.59955" lon="2.70161">
        <ele>681.882</ele>
        <time>2016-12-29T23:14:03Z</time>
      </trkpt>
      <trkpt lat="43.5995" lon="2.70156">
        <ele>681.671</ele>
        <time>2016-12-29T23:14:23Z</time>
      </trkpt>
      <trkpt lat="43.59936" lon="2.70165">
        <ele>681.962</ele>
        <time>2016-12-29T23:14:43Z</time>
      </trkpt>
      <trkpt lat="43.59855" lon="2.70103">
        <ele>709.028</ele>
        <time>2016-12-29T23:15:03Z</time>
      </trkpt>
      <trkpt lat="43.59897" lon="2.70004">
        <ele>707.189</ele>
        <time>2016-12-29T23:15:23Z</time>
      </trkpt>
      <trkpt lat="43.59956" lon="2.6994">
        <ele>698.317</ele>
        <time>2016-12-29T23:15:43Z</time>
      </trkpt>
      <trkpt lat="43.59972" lon="2.69892">
        <ele>695.108</ele>
        <time>2016-12-29T23:16:03Z</time>
      </trkpt>
      <trkpt lat="43.59959" lon="2.69713">
        <ele>690.569</ele>
        <time>2016-12-29T23:16:23Z</time>
      </trkpt>
      <trkpt lat="43.59926" lon="2.6958">
        <ele>690.932</ele>
        <time>2016-12-29T23:16:43Z</time>
      </trkpt>
      <trkpt lat="43.59819" lon="2.69448">
        <ele>692.688</ele>
        <time>2016-12-29T23:17:03Z</time>
      </trkpt>
      <trkpt lat="43.59753" lon="2.69415">
        <ele>697.617</ele>
        <time>2016-12-29T23:17:23Z</time>
      </trkpt>
      <trkpt lat="43.59749" lon="2.69373">
        <ele>698.994</ele>
        <time>2016-12-29T23:17:43Z</time>
      </trkpt>
      <trkpt lat="43.59824" lon="2.69179">
        <ele>707.355</ele>
        <time>2016-12-29T23:18:03Z</time>
      </trkpt>
      <trkpt lat="43.59821" lon="2.69035">
        <ele>712.374</ele>
        <time>2016-12-29T23:18:23Z</time>
      </trkpt>
      <trkpt lat="43.59764" lon="2.68945">
        <ele>719.965</ele>
        <time>2016-12-29T23:18:43Z</time>
      </trkpt>
      <trkpt lat="43.59794" lon="2.68661">
        <ele>708.662</ele>
        <time>2016-12-29T23:19:03Z</time>
      </trkpt>
      <trkpt lat="43.59718" lon="2.6813">
        <ele>693.883</ele>
        <time>2016-12-29T23:19:23Z</time>
      </trkpt>
      <trkpt lat="43.5969" lon="2.68034">
        <ele>695.311</ele>
        <time>2016-12-29T23:19:43Z</time>
      </trkpt>
      <trkpt lat="43.59651" lon="2.6799">
        <ele>697.108</ele>
        <time>2016-12-29T23:20:03Z</time>
      </trkpt>
      <trkpt lat="43.59553" lon="2.67937">
        <ele>701.383</ele>
        <time>2016-12-29T23:20:23Z</time>
      </trkpt>
      <trkpt lat="43.59535" lon="2.67882">
        <ele>705.666</ele>
        <time>2016-12-29T23:20:43Z</time>
      </trkpt>
      <trkpt lat="43.59551" lon="2.67797">
        <ele>708.042</ele>
        <time>2016-12-29T23:21:03Z</time>
      </trkpt>
      <trkpt lat="43.59559" lon="2.67617">
        <ele>714.871</ele>
        <time>2016-12-29T23:21:23Z</time>
      </trkpt>
      <trkpt lat="43.59609" lon="2.67532">
        <ele>712.268</ele>
        <time>2016-12-29T23:21:43Z</time>
      </trkpt>
      <trkpt lat="43.59611" lon="2.67484">
        <ele>714.439</ele>
        <time>2016-12-29T23:22:03Z</time>
      </trkpt>
      <trkpt lat="43.59572" lon="2.67365">
        <ele>720.068</ele>
        <time>2016-12-29T23:22:23Z</time>
      </trkpt>
      <trkpt lat="43.59557" lon="2.67351">
        <ele>723.869</ele>
        <time>2016-12-29T23:22:43Z</time>
      </trkpt>
      <trkpt lat="43.59515" lon="2.67256">
        <ele>724.697</ele>
        <time>2016-12-29T23:23:03Z</time>
      </trkpt>
      <trkpt lat="43.59445" lon="2.67188">
        <ele>737.423</ele>
        <time>2016-12-29T23:23:23Z</time>
      </trkpt>
      <trkpt lat="43.59484" lon="2.67094">
        <ele>739.925</ele>
        <time>2016-12-29T23:23:43Z</time>
      </trkpt>
      <trkpt lat="43.59473" lon="2.66988">
        <ele>743.608</ele>
        <time>2016-12-29T23:24:03Z</time>
      </trkpt>
      <trkpt lat="43.59504" lon="2.66817">
        <ele>735.876</ele>
        <time>2016-12-29T23:24:23Z</time>
      </trkpt>
      <trkpt lat="43.59547" lon="2.66686">
        <ele>730.469</ele>
        <time>2016-12-29T23:24:43Z</time>
      </trkpt>
      <trkpt lat="43.59592" lon="2.66606">
        <ele>730.585</ele>
        <time>2016-12-29T23:25:03Z</time>
      </trkpt>
      <trkpt lat="43.59614" lon="2.66456">
        <ele>728.664</ele>
        <time>2016-12-29T23:25:23Z</time>
      </trkpt>
      <trkpt lat="43.596" lon="2.66406">
        <ele>724.131</ele>
        <time>2016-12-29T23:25:43Z</time>
      </trkpt>
      <trkpt lat="43.59599" lon="2.66302">
        <ele>725.172</ele>
        <time>2016-12-29T23:26:03Z</time>
      </trkpt>
      <trkpt lat="43.59588" lon="2.6629">
        <ele>722.081</ele>
        <time>2016-12-29T23:26:23Z</time>
      </trkpt>
      <trkpt lat="43.59581" lon="2.66337">
        <ele>719.752</ele>
        <time>2016-12-29T23:26:43Z</time>
      </trkpt>
      <trkpt lat="43.5953" lon="2.66368">
        <ele>715.487</ele>
        <time>2016-12-29T23:27:03Z</time>
      </trkpt>
      <trkpt lat="43.5948" lon="2.66361">
        <ele>714.742</ele>
        <time>2016-12-29T23:27:23Z</time>
      </trkpt>
      <trkpt lat="43.59359" lon="2.66323">
        <ele>715.526</ele>
        <time>2016-12-29T23:27:43Z</time>
      </trkpt>
      <trkpt lat="43.59311" lon="2.66351">
        <ele>718.108</ele>
        <time>2016-12-29T23:28:03Z</time>
      </trkpt>
      <trkpt lat="43.59234" lon="2.6634">
        <ele>723.855</ele>
        <time>2016-12-29T23:28:23Z</time>
      </trkpt>
      <trkpt lat="43.5922" lon="2.66278">
        <ele>723.338</ele>
        <time>2016-12-29T23:28:43Z</time>
      </trkpt>
      <trkpt lat="43.59167" lon="2.66148">
        <ele>726.354</ele>
        <time>2016-12-29T23:29:03Z</time>
      </trkpt>
      <trkpt lat="43.59143" lon="2.66114">
        <ele>729.443</ele>
        <time>2016-12-29T23:29:23Z</time>
      </trkpt>
      <trkpt lat="43.59117" lon="2.65986">
        <ele>731.29</ele>
        <time>2016-12-29T23:29:43Z</time>
      </trkpt>
      <trkpt lat="43.59094" lon="2.65932">
        <ele>735.261</ele>
        <time>2016-12-29T23:30:03Z</time>
      </trkpt>
      <trkpt lat="43.59099" lon="2.65919">
        <ele>736.56</ele>
        <time>2016-12-29T23:30:23Z</time>
      </trkpt>
      <trkpt lat="43.59123" lon="2.65908">
        <ele>734.881</ele>
        <time>2016-12-29T23:30:43Z</time>
      </trkpt>
      <trkpt lat="43.59138" lon="2.65848">
        <ele>736.696</ele>
        <time>2016-12-29T23:31:03Z</time>
      </trkpt>
      <trkpt lat="43.59094" lon="2.65802">
        <ele>737.931</ele>
        <time>2016-12-29T23:31:23Z</time>
      </trkpt>
      <trkpt lat="43.59058" lon="2.65745">
        <ele>739.524</ele>
        <time>2016-12-29T23:31:43Z</time>
      </trkpt>
      <trkpt lat="43.59038" lon="2.65651">
        <ele>745.108</ele>
        <time>2016-12-29T23:32:03Z</time>
      </trkpt>
      <trkpt lat="43.59032" lon="2.65511">
        <ele>739.036</ele>
        <time>2016-12-29T23:32:23Z</time>
      </trkpt>
      <trkpt lat="43.59067" lon="2.65399">
        <ele>740.299</ele>
        <time>2016-12-29T23:32:43Z</time>
      </trkpt>
      <trkpt lat="43.59088" lon="2.65392">
        <ele>740.955</ele>
        <time>2016-12-29T23:33:03Z</time>
      </trkpt>
      <trkpt lat="43.59155" lon="2.65454">
        <ele>743.954</ele>
        <time>2016-12-29T23:33:23Z</time>
      </trkpt>
      <trkpt lat="43.59182" lon="2.65472">
        <ele>745.711</ele>
        <time>2016-12-29T23:33:43Z</time>
      </trkpt>
      <trkpt lat="43.59213" lon="2.65553">
        <ele>746.292</ele>
        <time>2016-12-29T23:34:03Z</time>
      </trkpt>
      <trkpt lat="43.59233" lon="2.65564">
        <ele>748.591</ele>
        <time>2016-12-29T23:34:23Z</time>
      </trkpt>
      <trkpt lat="43.59275" lon="2.65524">
        <ele>758.922</ele>
        <time>2016-12-29T23:34:43Z</time>
      </trkpt>
      <trkpt lat="43.59245" lon="2.65515">
        <ele>757.976</ele>
        <time>2016-12-29T23:35:03Z</time>
      </trkpt>
      <trkpt lat="43.59225" lon="2.65472">
        <ele>759.49</ele>
        <time>2016-12-29T23:35:23Z</time>
      </trkpt>
      <trkpt lat="43.59219" lon="2.65409">
        <ele>760.219</ele>
        <time>2016-12-29T23:35:43Z</time>
      </trkpt>
      <trkpt lat="43.59146" lon="2.65186">
        <ele>768.708</ele>
        <time>2016-12-29T23:36:03Z</time>
      </trkpt>
      <trkpt lat="43.59092" lon="2.6507">
        <ele>769.624</ele>
        <time>2016-12-29T23:36:23Z</time>
      </trkpt>
      <trkpt lat="43.59036" lon="2.64986">
        <ele>768.797</ele>
        <time>2016-12-29T23:36:43Z</time>
      </trkpt>
      <trkpt lat="43.58991" lon="2.64958">
        <ele>771.893</ele>
        <time>2016-12-29T23:37:03Z</time>
      </trkpt>
      <trkpt lat="43.58907" lon="2.6492">
        <ele>780.022</ele>
        <time>2016-12-29T23:37:23Z</time>
      </trkpt>
      <trkpt lat="43.58888" lon="2.64925">
        <ele>780.039</ele>
        <time>2016-12-29T23:37:43Z</time>
      </trkpt>
      <trkpt lat="43.58882" lon="2.64899">
        <ele>780.16</ele>
        <time>2016-12-29T23:38:03Z</time>
      </trkpt>
      <trkpt lat="43.58805" lon="2.64891">
        <ele>771.449</ele>
        <time>2016-12-29T23:38:23Z</time>
      </trkpt>
      <trkpt lat="43.58773" lon="2.64869">
        <ele>768.79</ele>
        <time>2016-12-29T23:38:43Z</time>
      </trkpt>
      <trkpt lat="43.58732" lon="2.64856">
        <ele>772.081</ele>
        <time>2016-12-29T23:39:03Z</time>
      </trkpt>
      <trkpt lat="43.58737" lon="2.6481">
        <ele>769.561</ele>
        <time>2016-12-29T23:39:23Z</time>
      </trkpt>
      <trkpt lat="43.58728" lon="2.64777">
        <ele>768.517</ele>
        <time>2016-12-29T23:39:43Z</time>
      </trkpt>
      <trkpt lat="43.5868" lon="2.64732">
        <ele>770.008</ele>
        <time>2016-12-29T23:40:03Z</time>
      </trkpt>
      <trkpt lat="43.58669" lon="2.64649">
        <ele>774.015</ele>
        <time>2016-12-29T23:40:23Z</time>
      </trkpt>
      <trkpt lat="43.58644" lon="2.64567">
        <ele>782.978</ele>
        <time>2016-12-29T23:40:43Z</time>
      </trkpt>
      <trkpt lat="43.58651" lon="2.64531">
        <ele>781.554</ele>
        <time>2016-12-29T23:41:03Z</time>
      </trkpt>
      <trkpt lat="43.58587" lon="2.64484">
        <ele>788.523</ele>
        <time>2016-12-29T23:41:23Z</time>
      </trkpt>
      <trkpt lat="43.58523" lon="2.64486">
        <ele>789.73</ele>
        <time>2016-12-29T23:41:43Z</time>
      </trkpt>
      <trkpt lat="43.58468" lon="2.64515">
        <ele>789.341</ele>
        <time>2016-12-29T23:42:03Z</time>
      </trkpt>
      <trkpt lat="43.58408" lon="2.64568">
        <ele>786.43</ele>
        <time>2016-12-29T23:42:23Z</time>
      </trkpt>
      <trkpt lat="43.58369" lon="2.64572">
        <ele>785.091</ele>
        <time>2016-12-29T23:42:43Z</time>
      </trkpt>
      <trkpt lat="43.58331" lon="2.64516">
        <ele>781.692</ele>
        <time>2016-12-29T23:43:03Z</time>
      </trkpt>
      <trkpt lat="43.58278" lon="2.64487">
        <ele>780.973</ele>
        <time>2016-12-29T23:43:23Z</time>
      </trkpt>
      <trkpt lat="43.58208" lon="2.64498">
        <ele>772.92</ele>
        <time>2016-12-29T23:43:43Z</time>
      </trkpt>
      <trkpt lat="43.58038" lon="2.64625">
        <ele>762.208</ele>
        <time>2016-12-29T23:44:03Z</time>
      </trkpt>
      <trkpt lat="43.58009" lon="2.64612">
        <ele>759.486</ele>
        <time>2016-12-29T23:44:23Z</time>
      </trkpt>
      <trkpt lat="43.58002" lon="2.64547">
        <ele>752.749</ele>
        <time>2016-12-29T23:44:43Z</time>
      </trkpt>
      <trkpt lat="43.57973" lon="2.64522">
        <ele>751.235</ele>
        <time>2016-12-29T23:45:03Z</time>
      </trkpt>
      <trkpt lat="43.57898" lon="2.64522">
        <ele>745.624</ele>
        <time>2016-12-29T23:45:23Z</time>
      </trkpt>
      <trkpt lat="43.57872" lon="2.64489">
        <ele>741.351</ele>
        <time>2016-12-29T23:45:43Z</time>
      </trkpt>
      <trkpt lat="43.57874" lon="2.64457">
        <ele>742.312</ele>
        <time>2016-12-29T23:46:03Z</time>
      </trkpt>
      <trkpt lat="43.57915" lon="2.64403">
        <ele>741.891</ele>
        <time>2016-12-29T23:46:23Z</time>
      </trkpt>
      <trkpt lat="43.57977" lon="2.64389">
        <ele>740.752</ele>
        <time>2016-12-29T23:46:43Z</time>
      </trkpt>
      <trkpt lat="43.5803" lon="2.6434">
        <ele>747.581</ele>
        <time>2016-12-29T23:47:03Z</time>
      </trkpt>
      <trkpt lat="43.58032" lon="2.64294">
        <ele>754.461</ele>
        <time>2016-12-29T23:47:23Z</time>
      </trkpt>
      <trkpt lat="43.57992" lon="2.64234">
        <ele>762.317</ele>
        <time>2016-12-29T23:47:43Z</time>
      </trkpt>
      <trkpt lat="43.5799" lon="2.64174">
        <ele>770.708</ele>
        <time>2016-12-29T23:48:03Z</time>
      </trkpt>
      <trkpt lat="43.58009" lon="2.64116">
        <ele>773.455</ele>
        <time>2016-12-29T23:48:23Z</time>
      </trkpt>
      <trkpt lat="43.57956" lon="2.64127">
        <ele>780.048</ele>
        <time>2016-12-29T23:48:43Z</time>
      </trkpt>
      <trkpt lat="43.57901" lon="2.64158">
        <ele>784.444</ele>
        <time>2016-12-29T23:49:03Z</time>
      </trkpt>
      <trkpt lat="43.57858" lon="2.64158">
        <ele>787.163</ele>
        <time>2016-12-29T23:49:23Z</time>
      </trkpt>
      <trkpt lat="43.57834" lon="2.64134">
        <ele>789.24</ele>
        <time>2016-12-29T23:49:43Z</time>
      </trkpt>
      <trkpt lat="43.57852" lon="2.64084">
        <ele>792.051</ele>
        <time>2016-12-29T23:50:03Z</time>
      </trkpt>
      <trkpt lat="43.57856" lon="2.6401">
        <ele>796.41</ele>
        <time>2016-12-29T23:50:23Z</time>
      </trkpt>
      <trkpt lat="43.57835" lon="2.63942">
        <ele>801.011</ele>
        <time>2016-12-29T23:50:43Z</time>
      </trkpt>
      <trkpt lat="43.57799" lon="2.63915">
        <ele>803.316</ele>
        <time>2016-12-29T23:51:03Z</time>
      </trkpt>
      <trkpt lat="43.57833" lon="2.63855">
        <ele>800.876</ele>
        <time>2016-12-29T23:51:23Z</time>
      </trkpt>
      <trkpt lat="43.57814" lon="2.63797">
        <ele>798.713</ele>
        <time>2016-12-29T23:51:43Z</time>
      </trkpt>
      <trkpt lat="43.57761" lon="2.63688">
        <ele>796.608</ele>
        <time>2016-12-29T23:52:03Z</time>
      </trkpt>
      <trkpt lat="43.5774" lon="2.63653">
        <ele>798.558</ele>
        <time>2016-12-29T23:52:23Z</time>
      </trkpt>
      <trkpt lat="43.57722" lon="2.63573">
        <ele>794.921</ele>
        <time>2016-12-29T23:52:43Z</time>
      </trkpt>
      <trkpt lat="43.57692" lon="2.63527">
        <ele>793.857</ele>
        <time>2016-12-29T23:53:03Z</time>
      </trkpt>
      <trkpt lat="43.57646" lon="2.63487">
        <ele>801.946</ele>
        <time>2016-12-29T23:53:23Z</time>
      </trkpt>
      <trkpt lat="43.57599" lon="2.63344">
        <ele>809.183</ele>
        <time>2016-12-29T23:53:43Z</time>
      </trkpt>
      <trkpt lat="43.57605" lon="2.63264">
        <ele>802.444</ele>
        <time>2016-12-29T23:54:03Z</time>
      </trkpt>
      <trkpt lat="43.57617" lon="2.63203">
        <ele>794.863</ele>
        <time>2016-12-29T23:54:23Z</time>
      </trkpt>
      <trkpt lat="43.57599" lon="2.63147">
        <ele>792.674</ele>
        <time>2016-12-29T23:54:43Z</time>
      </trkpt>
      <trkpt lat="43.57558" lon="2.63149">
        <ele>790.814</ele>
        <time>2016-12-29T23:55:03Z</time>
      </trkpt>
      <trkpt lat="43.57521" lon="2.63114">
        <ele>789.354</ele>
        <time>2016-12-29T23:55:23Z</time>
      </trkpt>
      <trkpt lat="43.57486" lon="2.63095">
        <ele>794.409</ele>
        <time>2016-12-29T23:55:43Z</time>
      </trkpt>
      <trkpt lat="43.57501" lon="2.62947">
        <ele>806.808</ele>
        <time>2016-12-29T23:56:03Z</time>
      </trkpt>
      <trkpt lat="43.57483" lon="2.6292">
        <ele>809.298</ele>
        <time>2016-12-29T23:56:23Z</time>
      </trkpt>
      <trkpt lat="43.57449" lon="2.62904">
        <ele>825.871</ele>
        <time>2021-04-17T06:30:10Z</time>
      </trkpt>
      <trkpt lat="43.57387" lon="2.62836">
        <ele>815.517</ele>
        <time>2016-12-29T23:56:43Z</time>
      </trkpt>
      <trkpt lat="43.57326" lon="2.62764">
        <ele>821.366</ele>
        <time>2016-12-29T23:57:03Z</time>
      </trkpt>
      <trkpt lat="43.57267" lon="2.62731">
        <ele>827.143</ele>
        <time>2016-12-29T23:57:23Z</time>
      </trkpt>
      <trkpt lat="43.57233" lon="2.627">
        <ele>830.844</ele>
        <time>2016-12-29T23:57:43Z</time>
      </trkpt>
      <trkpt lat="43.57176" lon="2.6268">
        <ele>826.953</ele>
        <time>2016-12-29T23:58:03Z</time>
      </trkpt>
      <trkpt lat="43.57132" lon="2.62687">
        <ele>826.634</ele>
        <time>2016-12-29T23:58:23Z</time>
      </trkpt>
      <trkpt lat="43.571" lon="2.62701">
        <ele>826.075</ele>
        <time>2016-12-29T23:58:43Z</time>
      </trkpt>
      <trkpt lat="43.56995" lon="2.62652">
        <ele>828.428</ele>
        <time>2016-12-29T23:59:03Z</time>
      </trkpt>
      <trkpt lat="43.56916" lon="2.62579">
        <ele>840.92</ele>
        <time>2016-12-29T23:59:23Z</time>
      </trkpt>
      <trkpt lat="43.56904" lon="2.62541">
        <ele>840.908</ele>
        <time>2016-12-29T23:59:43Z</time>
      </trkpt>
      <trkpt lat="43.56971" lon="2.62481">
        <ele>837.734</ele>
        <time>2016-12-30T00:00:03Z</time>
      </trkpt>
      <trkpt lat="43.5705" lon="2.62482">
        <ele>830.487</ele>
        <time>2016-12-30T00:00:23Z</time>
      </trkpt>
      <trkpt lat="43.57119" lon="2.62441">
        <ele>829.653</ele>
        <time>2016-12-30T00:00:43Z</time>
      </trkpt>
      <trkpt lat="43.57162" lon="2.62434">
        <ele>826.842</ele>
        <time>2016-12-30T00:01:03Z</time>
      </trkpt>
      <trkpt lat="43.57195" lon="2.62386">
        <ele>821.659</ele>
        <time>2016-12-30T00:01:23Z</time>
      </trkpt>
      <trkpt lat="43.57208" lon="2.62321">
        <ele>812.05</ele>
        <time>2016-12-30T00:01:43Z</time>
      </trkpt>
      <trkpt lat="43.57232" lon="2.62306">
        <ele>809.039</ele>
        <time>2016-12-30T00:02:03Z</time>
      </trkpt>
      <trkpt lat="43.57321" lon="2.62302">
        <ele>795.15</ele>
        <time>2016-12-30T00:02:23Z</time>
      </trkpt>
      <trkpt lat="43.57366" lon="2.62255">
        <ele>789.194</ele>
        <time>2016-12-30T00:02:43Z</time>
      </trkpt>
      <trkpt lat="43.57376" lon="2.6221">
        <ele>793.657</ele>
        <time>2016-12-30T00:03:03Z</time>
      </trkpt>
      <trkpt lat="43.57369" lon="2.62124">
        <ele>810.722</ele>
        <time>2016-12-30T00:03:23Z</time>
      </trkpt>
      <trkpt lat="43.57354" lon="2.6211">
        <ele>812.708</ele>
        <time>2016-12-30T00:03:43Z</time>
      </trkpt>
      <trkpt lat="43.57396" lon="2.62093">
        <ele>813.746</ele>
        <time>2016-12-30T00:04:03Z</time>
      </trkpt>
      <trkpt lat="43.57428" lon="2.62057">
        <ele>817.139</ele>
        <time>2016-12-30T00:04:23Z</time>
      </trkpt>
      <trkpt lat="43.57455" lon="2.62084">
        <ele>814.375</ele>
        <time>2016-12-30T00:04:43Z</time>
      </trkpt>
      <trkpt lat="43.57507" lon="2.62072">
        <ele>820.194</ele>
        <time>2016-12-30T00:05:03Z</time>
      </trkpt>
      <trkpt lat="43.57529" lon="2.62125">
        <ele>815.621</ele>
        <time>2016-12-30T00:05:23Z</time>
      </trkpt>
      <trkpt lat="43.57568" lon="2.62119">
        <ele>820.562</ele>
        <time>2016-12-30T00:05:43Z</time>
      </trkpt>
      <trkpt lat="43.57652" lon="2.62219">
        <ele>821.011</ele>
        <time>2016-12-30T00:06:03Z</time>
      </trkpt>
      <trkpt lat="43.57689" lon="2.62213">
        <ele>824.682</ele>
        <time>2016-12-30T00:06:23Z</time>
      </trkpt>
      <trkpt lat="43.57741" lon="2.62136">
        <ele>827.225</ele>
        <time>2016-12-30T00:06:43Z</time>
      </trkpt>
      <trkpt lat="43.57752" lon="2.62086">
        <ele>829.426</ele>
        <time>2016-12-30T00:07:03Z</time>
      </trkpt>
      <trkpt lat="43.57784" lon="2.61954">
        <ele>834.808</ele>
        <time>2016-12-30T00:07:23Z</time>
      </trkpt>
      <trkpt lat="43.57829" lon="2.61945">
        <ele>833.308</ele>
        <time>2016-12-30T00:07:43Z</time>
      </trkpt>
      <trkpt lat="43.57896" lon="2.61859">
        <ele>828.599</ele>
        <time>2016-12-30T00:08:03Z</time>
      </trkpt>
      <trkpt lat="43.57924" lon="2.61792">
        <ele>823.442</ele>
        <time>2016-12-30T00:08:23Z</time>
      </trkpt>
      <trkpt lat="43.57968" lon="2.61825">
        <ele>819.138</ele>
        <time>2016-12-30T00:08:43Z</time>
      </trkpt>
      <trkpt lat="43.57975" lon="2.61794">
        <ele>815.847</ele>
        <time>2016-12-30T00:09:03Z</time>
      </trkpt>
      <trkpt lat="43.5801" lon="2.6175">
        <ele>809.264</ele>
        <time>2016-12-30T00:09:23Z</time>
      </trkpt>
      <trkpt lat="43.58027" lon="2.61716">
        <ele>807.445</ele>
        <time>2016-12-30T00:09:43Z</time>
      </trkpt>
      <trkpt lat="43.5807" lon="2.61698">
        <ele>800.834</ele>
        <time>2016-12-30T00:10:03Z</time>
      </trkpt>
      <trkpt lat="43.58089" lon="2.61639">
        <ele>798.265</ele>
        <time>2016-12-30T00:10:23Z</time>
      </trkpt>
      <trkpt lat="43.58086" lon="2.61493">
        <ele>793.486</ele>
        <time>2016-12-30T00:10:43Z</time>
      </trkpt>
      <trkpt lat="43.58068" lon="2.61429">
        <ele>793.76</ele>
        <time>2016-12-30T00:11:03Z</time>
      </trkpt>
      <trkpt lat="43.58025" lon="2.61377">
        <ele>790.726</ele>
        <time>2016-12-30T00:11:23Z</time>
      </trkpt>
      <trkpt lat="43.57972" lon="2.61385">
        <ele>786.608</ele>
        <time>2016-12-30T00:11:43Z</time>
      </trkpt>
      <trkpt lat="43.57935" lon="2.61331">
        <ele>786.065</ele>
        <time>2016-12-30T00:12:03Z</time>
      </trkpt>
      <trkpt lat="43.57765" lon="2.61203">
        <ele>786.898</ele>
        <time>2016-12-30T00:12:23Z</time>
      </trkpt>
      <trkpt lat="43.57741" lon="2.61169">
        <ele>785.964</ele>
        <time>2016-12-30T00:12:43Z</time>
      </trkpt>
      <trkpt lat="43.57733" lon="2.61132">
        <ele>784.133</ele>
        <time>2016-12-30T00:13:03Z</time>
      </trkpt>
      <trkpt lat="43.57703" lon="2.61084">
        <ele>783.99</ele>
        <time>2016-12-30T00:13:23Z</time>
      </trkpt>
      <trkpt lat="43.57677" lon="2.60884">
        <ele>794.831</ele>
        <time>2016-12-30T00:13:43Z</time>
      </trkpt>
      <trkpt lat="43.57658" lon="2.60835">
        <ele>794.89</ele>
        <time>2016-12-30T00:14:03Z</time>
      </trkpt>
      <trkpt lat="43.57605" lon="2.60774">
        <ele>802.671</ele>
        <time>2016-12-30T00:14:23Z</time>
      </trkpt>
      <trkpt lat="43.57575" lon="2.60716">
        <ele>805.135</ele>
        <time>2016-12-30T00:14:43Z</time>
      </trkpt>
      <trkpt lat="43.57513" lon="2.60661">
        <ele>807.886</ele>
        <time>2016-12-30T00:15:03Z</time>
      </trkpt>
      <trkpt lat="43.57478" lon="2.60625">
        <ele>808.114</ele>
        <time>2016-12-30T00:15:23Z</time>
      </trkpt>
      <trkpt lat="43.57406" lon="2.60595">
        <ele>814.708</ele>
        <time>2016-12-30T00:15:43Z</time>
      </trkpt>
      <trkpt lat="43.57371" lon="2.60558">
        <ele>815.06</ele>
        <time>2016-12-30T00:16:03Z</time>
      </trkpt>
      <trkpt lat="43.57319" lon="2.60407">
        <ele>816.753</ele>
        <time>2016-12-30T00:16:23Z</time>
      </trkpt>
      <trkpt lat="43.57314" lon="2.60343">
        <ele>818.349</ele>
        <time>2016-12-30T00:16:43Z</time>
      </trkpt>
      <trkpt lat="43.57326" lon="2.60278">
        <ele>818.548</ele>
        <time>2016-12-30T00:17:03Z</time>
      </trkpt>
      <trkpt lat="43.57475" lon="2.60132">
        <ele>824.695</ele>
        <time>2016-12-30T00:17:23Z</time>
      </trkpt>
      <trkpt lat="43.57496" lon="2.60077">
        <ele>829.986</ele>
        <time>2016-12-30T00:17:43Z</time>
      </trkpt>
      <trkpt lat="43.57517" lon="2.6002">
        <ele>837.125</ele>
        <time>2016-12-30T00:18:03Z</time>
      </trkpt>
      <trkpt lat="43.57565" lon="2.60018">
        <ele>838.496</ele>
        <time>2016-12-30T00:18:23Z</time>
      </trkpt>
      <trkpt lat="43.57594" lon="2.59991">
        <ele>843.357</ele>
        <time>2016-12-30T00:18:43Z</time>
      </trkpt>
      <trkpt lat="43.57622" lon="2.5998">
        <ele>845.4</ele>
        <time>2016-12-30T00:19:03Z</time>
      </trkpt>
      <trkpt lat="43.57747" lon="2.59908">
        <ele>852.82</ele>
        <time>2016-12-30T00:19:23Z</time>
      </trkpt>
      <trkpt lat="43.57844" lon="2.59887">
        <ele>850.008</ele>
        <time>2016-12-30T00:19:43Z</time>
      </trkpt>
      <trkpt lat="43.57917" lon="2.5985">
        <ele>850.032</ele>
        <time>2016-12-30T00:20:03Z</time>
      </trkpt>
      <trkpt lat="43.57951" lon="2.59804">
        <ele>850.015</ele>
        <time>2016-12-30T00:20:23Z</time>
      </trkpt>
      <trkpt lat="43.58005" lon="2.59705">
        <ele>844.891</ele>
        <time>2016-12-30T00:20:43Z</time>
      </trkpt>
      <trkpt lat="43.58043" lon="2.59584">
        <ele>839.23</ele>
        <time>2016-12-30T00:21:03Z</time>
      </trkpt>
      <trkpt lat="43.58057" lon="2.5946">
        <ele>836.367</ele>
        <time>2016-12-30T00:21:23Z</time>
      </trkpt>
      <trkpt lat="43.58044" lon="2.59381">
        <ele>832.958</ele>
        <time>2016-12-30T00:21:43Z</time>
      </trkpt>
      <trkpt lat="43.58045" lon="2.59346">
        <ele>831.937</ele>
        <time>2016-12-30T00:22:03Z</time>
      </trkpt>
      <trkpt lat="43.58081" lon="2.59277">
        <ele>836.718</ele>
        <time>2016-12-30T00:22:23Z</time>
      </trkpt>
      <trkpt lat="43.58084" lon="2.59224">
        <ele>840.514</ele>
        <time>2021-04-17T06:56:30Z</time>
      </trkpt>
      <trkpt lat="43.5805" lon="2.59157">
        <ele>845.654</ele>
        <time>2021-04-17T06:56:50Z</time>
      </trkpt>
      <trkpt lat="43.58034" lon="2.59153">
        <ele>845.109</ele>
        <time>2021-04-17T06:57:10Z</time>
      </trkpt>
      <trkpt lat="43.58006" lon="2.59163">
        <ele>843.408</ele>
        <time>2021-04-17T06:57:30Z</time>
      </trkpt>
      <trkpt lat="43.57995" lon="2.59142">
        <ele>843.738</ele>
        <time>2021-04-17T06:57:50Z</time>
      </trkpt>
      <trkpt lat="43.58059" lon="2.58968">
        <ele>848.171</ele>
        <time>2016-12-30T00:23:23Z</time>
      </trkpt>
      <trkpt lat="43.58107" lon="2.58917">
        <ele>848.257</ele>
        <time>2016-12-30T00:23:43Z</time>
      </trkpt>
      <trkpt lat="43.58108" lon="2.58888">
        <ele>847.286</ele>
        <time>2016-12-30T00:24:03Z</time>
      </trkpt>
      <trkpt lat="43.58068" lon="2.58785">
        <ele>851.593</ele>
        <time>2016-12-30T00:24:23Z</time>
      </trkpt>
      <trkpt lat="43.5804" lon="2.58664">
        <ele>850.334</ele>
        <time>2016-12-30T00:24:43Z</time>
      </trkpt>
      <trkpt lat="43.58014" lon="2.58495">
        <ele>846.993</ele>
        <time>2016-12-30T00:25:03Z</time>
      </trkpt>
      <trkpt lat="43.57982" lon="2.58468">
        <ele>849.044</ele>
        <time>2016-12-30T00:25:23Z</time>
      </trkpt>
      <trkpt lat="43.5792" lon="2.5847">
        <ele>852.619</ele>
        <time>2016-12-30T00:25:43Z</time>
      </trkpt>
      <trkpt lat="43.57838" lon="2.58392">
        <ele>859.609</ele>
        <time>2016-12-30T00:26:03Z</time>
      </trkpt>
      <trkpt lat="43.57771" lon="2.58292">
        <ele>852.319</ele>
        <time>2016-12-30T00:26:23Z</time>
      </trkpt>
      <trkpt lat="43.57716" lon="2.58126">
        <ele>844.508</ele>
        <time>2016-12-30T00:26:43Z</time>
      </trkpt>
      <trkpt lat="43.57703" lon="2.5804">
        <ele>841.798</ele>
        <time>2016-12-30T00:27:03Z</time>
      </trkpt>
      <trkpt lat="43.57703" lon="2.57946">
        <ele>839.941</ele>
        <time>2016-12-30T00:27:23Z</time>
      </trkpt>
      <trkpt lat="43.57716" lon="2.57771">
        <ele>837.467</ele>
        <time>2016-12-30T00:27:43Z</time>
      </trkpt>
      <trkpt lat="43.57676" lon="2.57691">
        <ele>829.236</ele>
        <time>2016-12-30T00:28:03Z</time>
      </trkpt>
      <trkpt lat="43.57619" lon="2.5744">
        <ele>811.853</ele>
        <time>2016-12-30T00:28:23Z</time>
      </trkpt>
      <trkpt lat="43.57552" lon="2.57269">
        <ele>810.044</ele>
        <time>2016-12-30T00:28:43Z</time>
      </trkpt>
      <trkpt lat="43.5745" lon="2.57243">
        <ele>810.013</ele>
        <time>2016-12-30T00:29:03Z</time>
      </trkpt>
      <trkpt lat="43.57387" lon="2.57215">
        <ele>808.644</ele>
        <time>2016-12-30T00:29:23Z</time>
      </trkpt>
      <trkpt lat="43.57333" lon="2.57177">
        <ele>802.057</ele>
        <time>2016-12-30T00:29:43Z</time>
      </trkpt>
      <trkpt lat="43.57284" lon="2.57131">
        <ele>799.8</ele>
        <time>2016-12-30T00:30:03Z</time>
      </trkpt>
      <trkpt lat="43.5725" lon="2.57133">
        <ele>799.52</ele>
        <time>2016-12-30T00:30:23Z</time>
      </trkpt>
      <trkpt lat="43.57078" lon="2.57272">
        <ele>794.208</ele>
        <time>2016-12-30T00:30:43Z</time>
      </trkpt>
      <trkpt lat="43.57044" lon="2.5727">
        <ele>792.222</ele>
        <time>2016-12-30T00:31:03Z</time>
      </trkpt>
      <trkpt lat="43.57016" lon="2.57239">
        <ele>789.655</ele>
        <time>2016-12-30T00:31:23Z</time>
      </trkpt>
      <trkpt lat="43.56994" lon="2.57177">
        <ele>789.361</ele>
        <time>2016-12-30T00:31:43Z</time>
      </trkpt>
      <trkpt lat="43.5683" lon="2.56999">
        <ele>780.26</ele>
        <time>2016-12-30T00:32:03Z</time>
      </trkpt>
      <trkpt lat="43.56712" lon="2.56809">
        <ele>773.767</ele>
        <time>2016-12-30T00:32:23Z</time>
      </trkpt>
      <trkpt lat="43.56712" lon="2.56768">
        <ele>772.328</ele>
        <time>2016-12-30T00:32:43Z</time>
      </trkpt>
      <trkpt lat="43.56767" lon="2.56654">
        <ele>767.277</ele>
        <time>2016-12-30T00:33:03Z</time>
      </trkpt>
      <trkpt lat="43.56758" lon="2.56605">
        <ele>764.748</ele>
        <time>2016-12-30T00:33:23Z</time>
      </trkpt>
      <trkpt lat="43.56722" lon="2.56581">
        <ele>764.828</ele>
        <time>2016-12-30T00:33:43Z</time>
      </trkpt>
      <trkpt lat="43.56605" lon="2.56543">
        <ele>758.689</ele>
        <time>2016-12-30T00:34:03Z</time>
      </trkpt>
      <trkpt lat="43.56492" lon="2.56426">
        <ele>750.017</ele>
        <time>2016-12-30T00:34:23Z</time>
      </trkpt>
      <trkpt lat="43.56376" lon="2.56316">
        <ele>750.008</ele>
        <time>2016-12-30T00:34:43Z</time>
      </trkpt>
      <trkpt lat="43.56342" lon="2.56224">
        <ele>750.049</ele>
        <time>2016-12-30T00:35:03Z</time>
      </trkpt>
      <trkpt lat="43.56327" lon="2.56151">
        <ele>750.022</ele>
        <time>2016-12-30T00:35:23Z</time>
      </trkpt>
      <trkpt lat="43.56345" lon="2.56039">
        <ele>750.088</ele>
        <time>2016-12-30T00:35:43Z</time>
      </trkpt>
      <trkpt lat="43.56337" lon="2.559">
        <ele>745.177</ele>
        <time>2016-12-30T00:36:03Z</time>
      </trkpt>
      <trkpt lat="43.5637" lon="2.55818">
        <ele>743.094</ele>
        <time>2016-12-30T00:36:23Z</time>
      </trkpt>
      <trkpt lat="43.56331" lon="2.55807">
        <ele>738.915</ele>
        <time>2016-12-30T00:36:43Z</time>
      </trkpt>
      <trkpt lat="43.563" lon="2.55766">
        <ele>734.974</ele>
        <time>2016-12-30T00:37:03Z</time>
      </trkpt>
      <trkpt lat="43.56321" lon="2.55649">
        <ele>730.435</ele>
        <time>2016-12-30T00:37:23Z</time>
      </trkpt>
      <trkpt lat="43.56317" lon="2.55567">
        <ele>729.864</ele>
        <time>2016-12-30T00:37:43Z</time>
      </trkpt>
      <trkpt lat="43.56233" lon="2.55385">
        <ele>720.006</ele>
        <time>2016-12-30T00:38:23Z</time>
      </trkpt>
      <trkpt lat="43.56238" lon="2.55339">
        <ele>720.316</ele>
        <time>2016-12-30T00:39:03Z</time>
      </trkpt>
      <trkpt lat="43.56232" lon="2.55258">
        <ele>723.408</ele>
        <time>2016-12-30T00:39:23Z</time>
      </trkpt>
      <trkpt lat="43.56203" lon="2.55152">
        <ele>726.213</ele>
        <time>2016-12-30T00:39:43Z</time>
      </trkpt>
      <trkpt lat="43.56149" lon="2.55033">
        <ele>734.976</ele>
        <time>2016-12-30T00:40:03Z</time>
      </trkpt>
      <trkpt lat="43.56133" lon="2.54968">
        <ele>746.742</ele>
        <time>2021-04-17T07:14:30Z</time>
      </trkpt>
      <trkpt lat="43.56176" lon="2.54559">
        <ele>767.331</ele>
        <time>2016-12-30T00:40:43Z</time>
      </trkpt>
      <trkpt lat="43.56175" lon="2.54488">
        <ele>765.458</ele>
        <time>2016-12-30T00:41:03Z</time>
      </trkpt>
      <trkpt lat="43.56222" lon="2.54301">
        <ele>759.869</ele>
        <time>2016-12-30T00:41:23Z</time>
      </trkpt>
      <trkpt lat="43.56093" lon="2.54261">
        <ele>759.638</ele>
        <time>2016-12-30T00:41:43Z</time>
      </trkpt>
      <trkpt lat="43.56072" lon="2.54216">
        <ele>759.899</ele>
        <time>2016-12-30T00:42:03Z</time>
      </trkpt>
      <trkpt lat="43.56015" lon="2.54151">
        <ele>759.633</ele>
        <time>2016-12-30T00:42:23Z</time>
      </trkpt>
      <trkpt lat="43.55964" lon="2.54149">
        <ele>758.923</ele>
        <time>2016-12-30T00:42:43Z</time>
      </trkpt>
      <trkpt lat="43.55933" lon="2.54032">
        <ele>758.915</ele>
        <time>2021-04-17T07:17:10Z</time>
      </trkpt>
      <trkpt lat="43.55906" lon="2.53972">
        <ele>754.308</ele>
        <time>2016-12-30T00:43:23Z</time>
      </trkpt>
      <trkpt lat="43.55904" lon="2.53928">
        <ele>753.54</ele>
        <time>2016-12-30T00:45:03Z</time>
      </trkpt>
      <trkpt lat="43.55883" lon="2.53883">
        <ele>752.983</ele>
        <time>2016-12-30T00:45:43Z</time>
      </trkpt>
      <trkpt lat="43.55834" lon="2.53883">
        <ele>753.299</ele>
        <time>2016-12-30T00:46:03Z</time>
      </trkpt>
      <trkpt lat="43.55796" lon="2.5386">
        <ele>749.338</ele>
        <time>2016-12-30T00:47:23Z</time>
      </trkpt>
      <trkpt lat="43.55744" lon="2.53784">
        <ele>747.815</ele>
        <time>2016-12-30T00:47:43Z</time>
      </trkpt>
      <trkpt lat="43.55712" lon="2.5376">
        <ele>747.356</ele>
        <time>2016-12-30T00:48:03Z</time>
      </trkpt>
      <trkpt lat="43.55693" lon="2.53731">
        <ele>746.255</ele>
        <time>2016-12-30T00:48:23Z</time>
      </trkpt>
      <trkpt lat="43.55665" lon="2.53731">
        <ele>745.136</ele>
        <time>2016-12-30T00:48:43Z</time>
      </trkpt>
      <trkpt lat="43.55611" lon="2.53767">
        <ele>741.039</ele>
        <time>2016-12-30T00:49:03Z</time>
      </trkpt>
      <trkpt lat="43.55551" lon="2.53769">
        <ele>747.301</ele>
        <time>2021-04-17T07:20:50Z</time>
      </trkpt>
      <trkpt lat="43.5546" lon="2.53738">
        <ele>737.221</ele>
        <time>2021-04-17T07:21:10Z</time>
      </trkpt>
      <trkpt lat="43.55429" lon="2.53693">
        <ele>733.408</ele>
        <time>2021-04-17T07:21:30Z</time>
      </trkpt>
      <trkpt lat="43.55419" lon="2.53629">
        <ele>726.26</ele>
        <time>2016-12-30T00:50:03Z</time>
      </trkpt>
      <trkpt lat="43.55481" lon="2.53516">
        <ele>720.683</ele>
        <time>2016-12-30T00:50:23Z</time>
      </trkpt>
      <trkpt lat="43.55516" lon="2.53483">
        <ele>716.169</ele>
        <time>2016-12-30T00:50:43Z</time>
      </trkpt>
      <trkpt lat="43.55608" lon="2.53418">
        <ele>719.798</ele>
        <time>2016-12-30T00:51:03Z</time>
      </trkpt>
      <trkpt lat="43.55591" lon="2.53356">
        <ele>720.015</ele>
        <time>2016-12-30T00:51:43Z</time>
      </trkpt>
      <trkpt lat="43.55605" lon="2.53281">
        <ele>720.786</ele>
        <time>2016-12-30T00:53:03Z</time>
      </trkpt>
      <trkpt lat="43.55599" lon="2.5324">
        <ele>720.815</ele>
        <time>2016-12-30T00:53:23Z</time>
      </trkpt>
      <trkpt lat="43.55568" lon="2.53171">
        <ele>719.426</ele>
        <time>2016-12-30T00:53:43Z</time>
      </trkpt>
      <trkpt lat="43.55561" lon="2.53119">
        <ele>720.068</ele>
        <time>2016-12-30T00:54:03Z</time>
      </trkpt>
      <trkpt lat="43.55576" lon="2.53106">
        <ele>720.042</ele>
        <time>2016-12-30T00:54:23Z</time>
      </trkpt>
      <trkpt lat="43.55637" lon="2.53116">
        <ele>720.926</ele>
        <time>2016-12-30T00:54:43Z</time>
      </trkpt>
      <trkpt lat="43.55749" lon="2.53164">
        <ele>727.808</ele>
        <time>2016-12-30T00:55:03Z</time>
      </trkpt>
      <trkpt lat="43.55835" lon="2.53178">
        <ele>730.013</ele>
        <time>2016-12-30T00:55:23Z</time>
      </trkpt>
      <trkpt lat="43.55887" lon="2.53149">
        <ele>731.866</ele>
        <time>2016-12-30T00:55:43Z</time>
      </trkpt>
      <trkpt lat="43.55963" lon="2.53206">
        <ele>738.322</ele>
        <time>2016-12-30T00:56:03Z</time>
      </trkpt>
      <trkpt lat="43.56183" lon="2.53289">
        <ele>746.621</ele>
        <time>2016-12-30T00:56:23Z</time>
      </trkpt>
      <trkpt lat="43.56228" lon="2.53261">
        <ele>748.038</ele>
        <time>2016-12-30T00:56:43Z</time>
      </trkpt>
      <trkpt lat="43.56289" lon="2.53261">
        <ele>750.469</ele>
        <time>2016-12-30T00:57:03Z</time>
      </trkpt>
      <trkpt lat="43.56358" lon="2.53268">
        <ele>758.188</ele>
        <time>2016-12-30T00:57:23Z</time>
      </trkpt>
      <trkpt lat="43.56386" lon="2.53228">
        <ele>773.929</ele>
        <time>2021-04-17T07:28:10Z</time>
      </trkpt>
      <trkpt lat="43.56564" lon="2.53179">
        <ele>776.285</ele>
        <time>2016-12-30T00:58:03Z</time>
      </trkpt>
      <trkpt lat="43.56646" lon="2.5314">
        <ele>781.389</ele>
        <time>2016-12-30T00:58:23Z</time>
      </trkpt>
      <trkpt lat="43.56723" lon="2.53117">
        <ele>798.017</ele>
        <time>2021-04-17T07:29:10Z</time>
      </trkpt>
      <trkpt lat="43.56834" lon="2.53103">
        <ele>793.608</ele>
        <time>2016-12-30T00:59:03Z</time>
      </trkpt>
      <trkpt lat="43.56849" lon="2.53079">
        <ele>809.235</ele>
        <time>2021-04-17T07:29:50Z</time>
      </trkpt>
      <trkpt lat="43.5685" lon="2.53042">
        <ele>792.878</ele>
        <time>2016-12-30T00:59:23Z</time>
      </trkpt>
      <trkpt lat="43.56813" lon="2.52896">
        <ele>792.424</ele>
        <time>2016-12-30T00:59:43Z</time>
      </trkpt>
      <trkpt lat="43.56786" lon="2.52852">
        <ele>790.753</ele>
        <time>2016-12-30T01:00:03Z</time>
      </trkpt>
      <trkpt lat="43.56788" lon="2.52835">
        <ele>792.85</ele>
        <time>2016-12-30T01:00:23Z</time>
      </trkpt>
      <trkpt lat="43.56772" lon="2.52817">
        <ele>790.591</ele>
        <time>2016-12-30T01:00:43Z</time>
      </trkpt>
      <trkpt lat="43.56751" lon="2.52821">
        <ele>786.26</ele>
        <time>2016-12-30T01:01:03Z</time>
      </trkpt>
      <trkpt lat="43.56774" lon="2.52678">
        <ele>790.381</ele>
        <time>2016-12-30T01:01:23Z</time>
      </trkpt>
      <trkpt lat="43.56767" lon="2.5263">
        <ele>787.124</ele>
        <time>2016-12-30T01:01:43Z</time>
      </trkpt>
      <trkpt lat="43.56774" lon="2.52545">
        <ele>785.604</ele>
        <time>2016-12-30T01:02:03Z</time>
      </trkpt>
      <trkpt lat="43.56788" lon="2.52543">
        <ele>787.414</ele>
        <time>2016-12-30T01:02:23Z</time>
      </trkpt>
      <trkpt lat="43.56772" lon="2.52513">
        <ele>783.608</ele>
        <time>2016-12-30T01:02:43Z</time>
      </trkpt>
      <trkpt lat="43.5676" lon="2.52456">
        <ele>779.519</ele>
        <time>2016-12-30T01:03:03Z</time>
      </trkpt>
      <trkpt lat="43.56763" lon="2.52413">
        <ele>777.672</ele>
        <time>2016-12-30T01:03:23Z</time>
      </trkpt>
      <trkpt lat="43.56786" lon="2.52238">
        <ele>768.058</ele>
        <time>2016-12-30T01:03:43Z</time>
      </trkpt>
      <trkpt lat="43.56789" lon="2.51948">
        <ele>736.757</ele>
        <time>2016-12-30T01:04:03Z</time>
      </trkpt>
      <trkpt lat="43.56879" lon="2.51938">
        <ele>735.134</ele>
        <time>2016-12-30T01:04:23Z</time>
      </trkpt>
      <trkpt lat="43.5693" lon="2.519">
        <ele>736.445</ele>
        <time>2016-12-30T01:04:43Z</time>
      </trkpt>
      <trkpt lat="43.56959" lon="2.51844">
        <ele>733.664</ele>
        <time>2016-12-30T01:05:03Z</time>
      </trkpt>
      <trkpt lat="43.57023" lon="2.51796">
        <ele>736.995</ele>
        <time>2016-12-30T01:05:23Z</time>
      </trkpt>
      <trkpt lat="43.57031" lon="2.51656">
        <ele>740.351</ele>
        <time>2016-12-30T01:05:43Z</time>
      </trkpt>
      <trkpt lat="43.57026" lon="2.51488">
        <ele>734.901</ele>
        <time>2016-12-30T01:06:03Z</time>
      </trkpt>
      <trkpt lat="43.5705" lon="2.51373">
        <ele>732.911</ele>
        <time>2016-12-30T01:06:23Z</time>
      </trkpt>
      <trkpt lat="43.57051" lon="2.51281">
        <ele>727.608</ele>
        <time>2016-12-30T01:06:43Z</time>
      </trkpt>
      <trkpt lat="43.57073" lon="2.51246">
        <ele>727.382</ele>
        <time>2016-12-30T01:07:03Z</time>
      </trkpt>
      <trkpt lat="43.57129" lon="2.51233">
        <ele>730.495</ele>
        <time>2016-12-30T01:07:23Z</time>
      </trkpt>
      <trkpt lat="43.5717" lon="2.51234">
        <ele>734.621</ele>
        <time>2016-12-30T01:07:43Z</time>
      </trkpt>
      <trkpt lat="43.57197" lon="2.51202">
        <ele>738.68</ele>
        <time>2016-12-30T01:08:03Z</time>
      </trkpt>
      <trkpt lat="43.57245" lon="2.51062">
        <ele>735.657</ele>
        <time>2016-12-30T01:08:23Z</time>
      </trkpt>
      <trkpt lat="43.57244" lon="2.51018">
        <ele>731.698</ele>
        <time>2016-12-30T01:08:43Z</time>
      </trkpt>
      <trkpt lat="43.57254" lon="2.50974">
        <ele>730.017</ele>
        <time>2016-12-30T01:09:03Z</time>
      </trkpt>
      <trkpt lat="43.57255" lon="2.50941">
        <ele>727.538</ele>
        <time>2016-12-30T01:09:23Z</time>
      </trkpt>
      <trkpt lat="43.57267" lon="2.50902">
        <ele>723.814</ele>
        <time>2016-12-30T01:09:43Z</time>
      </trkpt>
      <trkpt lat="43.57231" lon="2.50801">
        <ele>720.754</ele>
        <time>2016-12-30T01:10:03Z</time>
      </trkpt>
      <trkpt lat="43.57226" lon="2.50735">
        <ele>722.709</ele>
        <time>2016-12-30T01:10:23Z</time>
      </trkpt>
      <trkpt lat="43.57209" lon="2.50671">
        <ele>729.108</ele>
        <time>2016-12-30T01:10:43Z</time>
      </trkpt>
      <trkpt lat="43.57193" lon="2.50647">
        <ele>733.928</ele>
        <time>2016-12-30T01:11:03Z</time>
      </trkpt>
      <trkpt lat="43.57187" lon="2.50588">
        <ele>739.011</ele>
        <time>2016-12-30T01:11:23Z</time>
      </trkpt>
      <trkpt lat="43.57194" lon="2.50537">
        <ele>740.587</ele>
        <time>2016-12-30T01:11:43Z</time>
      </trkpt>
      <trkpt lat="43.5722" lon="2.50483">
        <ele>736.016</ele>
        <time>2016-12-30T01:12:03Z</time>
      </trkpt>
      <trkpt lat="43.57221" lon="2.50336">
        <ele>741.313</ele>
        <time>2016-12-30T01:12:23Z</time>
      </trkpt>
      <trkpt lat="43.57241" lon="2.50164">
        <ele>740.434</ele>
        <time>2016-12-30T01:12:43Z</time>
      </trkpt>
      <trkpt lat="43.57268" lon="2.4985">
        <ele>746.243</ele>
        <time>2016-12-30T01:13:03Z</time>
      </trkpt>
      <trkpt lat="43.57271" lon="2.49613">
        <ele>760.954</ele>
        <time>2016-12-30T01:13:23Z</time>
      </trkpt>
      <trkpt lat="43.57262" lon="2.49389">
        <ele>769.618</ele>
        <time>2016-12-30T01:13:43Z</time>
      </trkpt>
      <trkpt lat="43.57246" lon="2.49351">
        <ele>770.898</ele>
        <time>2016-12-30T01:14:03Z</time>
      </trkpt>
      <trkpt lat="43.57243" lon="2.49217">
        <ele>775.017</ele>
        <time>2016-12-30T01:14:23Z</time>
      </trkpt>
      <trkpt lat="43.57264" lon="2.49198">
        <ele>775.908</ele>
        <time>2016-12-30T01:14:43Z</time>
      </trkpt>
      <trkpt lat="43.57269" lon="2.48776">
        <ele>784.718</ele>
        <time>2016-12-30T01:15:03Z</time>
      </trkpt>
      <trkpt lat="43.5713" lon="2.48171">
        <ele>797.761</ele>
        <time>2021-04-17T07:46:10Z</time>
      </trkpt>
      <trkpt lat="43.57075" lon="2.48029">
        <ele>779.747</ele>
        <time>2016-12-30T01:15:43Z</time>
      </trkpt>
      <trkpt lat="43.57037" lon="2.47981">
        <ele>778.236</ele>
        <time>2016-12-30T01:16:03Z</time>
      </trkpt>
      <trkpt lat="43.56894" lon="2.47889">
        <ele>770.043</ele>
        <time>2016-12-30T01:16:23Z</time>
      </trkpt>
      <trkpt lat="43.56815" lon="2.47901">
        <ele>768.234</ele>
        <time>2016-12-30T01:16:43Z</time>
      </trkpt>
      <trkpt lat="43.56767" lon="2.4788">
        <ele>763.923</ele>
        <time>2016-12-30T01:17:03Z</time>
      </trkpt>
      <trkpt lat="43.56614" lon="2.47728">
        <ele>758.824</ele>
        <time>2016-12-30T01:17:23Z</time>
      </trkpt>
      <trkpt lat="43.56466" lon="2.47625">
        <ele>764.383</ele>
        <time>2016-12-30T01:17:43Z</time>
      </trkpt>
      <trkpt lat="43.56438" lon="2.47344">
        <ele>758.125</ele>
        <time>2016-12-30T01:18:03Z</time>
      </trkpt>
      <trkpt lat="43.56465" lon="2.47226">
        <ele>753.717</ele>
        <time>2016-12-30T01:18:23Z</time>
      </trkpt>
      <trkpt lat="43.56454" lon="2.47157">
        <ele>750.308</ele>
        <time>2016-12-30T01:18:43Z</time>
      </trkpt>
      <trkpt lat="43.56513" lon="2.47075">
        <ele>751.715</ele>
        <time>2016-12-30T01:19:03Z</time>
      </trkpt>
      <trkpt lat="43.56538" lon="2.47">
        <ele>754.518</ele>
        <time>2016-12-30T01:19:23Z</time>
      </trkpt>
      <trkpt lat="43.56527" lon="2.46968">
        <ele>756.524</ele>
        <time>2016-12-30T01:19:43Z</time>
      </trkpt>
      <trkpt lat="43.56504" lon="2.46922">
        <ele>757.023</ele>
        <time>2016-12-30T01:20:03Z</time>
      </trkpt>
      <trkpt lat="43.56537" lon="2.46804">
        <ele>760.06</ele>
        <time>2016-12-30T01:20:23Z</time>
      </trkpt>
      <trkpt lat="43.56587" lon="2.46713">
        <ele>758.341</ele>
        <time>2016-12-30T01:20:43Z</time>
      </trkpt>
      <trkpt lat="43.56644" lon="2.46552">
        <ele>754.84</ele>
        <time>2016-12-30T01:21:03Z</time>
      </trkpt>
      <trkpt lat="43.56649" lon="2.46482">
        <ele>754.031</ele>
        <time>2016-12-30T01:21:23Z</time>
      </trkpt>
      <trkpt lat="43.56676" lon="2.46412">
        <ele>749.835</ele>
        <time>2016-12-30T01:21:43Z</time>
      </trkpt>
      <trkpt lat="43.56733" lon="2.46332">
        <ele>741.986</ele>
        <time>2016-12-30T01:22:03Z</time>
      </trkpt>
      <trkpt lat="43.56764" lon="2.46293">
        <ele>740.614</ele>
        <time>2016-12-30T01:22:23Z</time>
      </trkpt>
      <trkpt lat="43.56769" lon="2.46231">
        <ele>738.208</ele>
        <time>2016-12-30T01:22:43Z</time>
      </trkpt>
      <trkpt lat="43.56734" lon="2.46122">
        <ele>735.06</ele>
        <time>2016-12-30T01:23:03Z</time>
      </trkpt>
      <trkpt lat="43.5672" lon="2.45998">
        <ele>735.023</ele>
        <time>2016-12-30T01:23:23Z</time>
      </trkpt>
      <trkpt lat="43.56701" lon="2.45924">
        <ele>735.019</ele>
        <time>2016-12-30T01:23:43Z</time>
      </trkpt>
      <trkpt lat="43.56668" lon="2.45813">
        <ele>730.418</ele>
        <time>2016-12-30T01:24:03Z</time>
      </trkpt>
      <trkpt lat="43.56612" lon="2.45679">
        <ele>722.745</ele>
        <time>2016-12-30T01:24:23Z</time>
      </trkpt>
      <trkpt lat="43.56576" lon="2.45641">
        <ele>720.546</ele>
        <time>2016-12-30T01:24:43Z</time>
      </trkpt>
      <trkpt lat="43.56535" lon="2.45555">
        <ele>714.875</ele>
        <time>2016-12-30T01:25:03Z</time>
      </trkpt>
      <trkpt lat="43.565" lon="2.45532">
        <ele>712.046</ele>
        <time>2016-12-30T01:25:23Z</time>
      </trkpt>
      <trkpt lat="43.56551" lon="2.45488">
        <ele>715.048</ele>
        <time>2016-12-30T01:25:43Z</time>
      </trkpt>
      <trkpt lat="43.56599" lon="2.45381">
        <ele>718.061</ele>
        <time>2016-12-30T01:26:03Z</time>
      </trkpt>
      <trkpt lat="43.5675" lon="2.45232">
        <ele>708.117</ele>
        <time>2016-12-30T01:26:23Z</time>
      </trkpt>
      <trkpt lat="43.56847" lon="2.45166">
        <ele>695.908</ele>
        <time>2016-12-30T01:26:43Z</time>
      </trkpt>
      <trkpt lat="43.56897" lon="2.45145">
        <ele>685.691</ele>
        <time>2016-12-30T01:27:03Z</time>
      </trkpt>
      <trkpt lat="43.56897" lon="2.4508">
        <ele>680.184</ele>
        <time>2016-12-30T01:27:23Z</time>
      </trkpt>
      <trkpt lat="43.56871" lon="2.45028">
        <ele>674.43</ele>
        <time>2016-12-30T01:27:43Z</time>
      </trkpt>
      <trkpt lat="43.56815" lon="2.45001">
        <ele>669.469</ele>
        <time>2016-12-30T01:28:03Z</time>
      </trkpt>
      <trkpt lat="43.56904" lon="2.44972">
        <ele>661.336</ele>
        <time>2016-12-30T01:28:23Z</time>
      </trkpt>
      <trkpt lat="43.56934" lon="2.44984">
        <ele>660.317</ele>
        <time>2016-12-30T01:29:03Z</time>
      </trkpt>
      <trkpt lat="43.56973" lon="2.45029">
        <ele>656.896</ele>
        <time>2016-12-30T01:29:23Z</time>
      </trkpt>
      <trkpt lat="43.56998" lon="2.45102">
        <ele>666.987</ele>
        <time>2021-04-17T08:00:10Z</time>
      </trkpt>
      <trkpt lat="43.5701" lon="2.45148">
        <ele>648.841</ele>
        <time>2016-12-30T01:29:43Z</time>
      </trkpt>
      <trkpt lat="43.57015" lon="2.45042">
        <ele>643.681</ele>
        <time>2016-12-30T01:30:23Z</time>
      </trkpt>
      <trkpt lat="43.56994" lon="2.44963">
        <ele>640.809</ele>
        <time>2016-12-30T01:30:43Z</time>
      </trkpt>
      <trkpt lat="43.56885" lon="2.44845">
        <ele>632.508</ele>
        <time>2016-12-30T01:31:03Z</time>
      </trkpt>
      <trkpt lat="43.56892" lon="2.44725">
        <ele>626.721</ele>
        <time>2016-12-30T01:31:23Z</time>
      </trkpt>
      <trkpt lat="43.56888" lon="2.44681">
        <ele>628.844</ele>
        <time>2016-12-30T01:31:43Z</time>
      </trkpt>
      <trkpt lat="43.56894" lon="2.4462">
        <ele>630.05</ele>
        <time>2016-12-30T01:32:03Z</time>
      </trkpt>
      <trkpt lat="43.56867" lon="2.44542">
        <ele>631.589</ele>
        <time>2016-12-30T01:32:43Z</time>
      </trkpt>
      <trkpt lat="43.56801" lon="2.44474">
        <ele>636.146</ele>
        <time>2016-12-30T01:33:03Z</time>
      </trkpt>
      <trkpt lat="43.56819" lon="2.44324">
        <ele>637.117</ele>
        <time>2016-12-30T01:33:23Z</time>
      </trkpt>
      <trkpt lat="43.56809" lon="2.44292">
        <ele>638.246</ele>
        <time>2016-12-30T01:33:43Z</time>
      </trkpt>
      <trkpt lat="43.56876" lon="2.44228">
        <ele>641.257</ele>
        <time>2016-12-30T01:34:03Z</time>
      </trkpt>
      <trkpt lat="43.56891" lon="2.44151">
        <ele>646.825</ele>
        <time>2016-12-30T01:34:23Z</time>
      </trkpt>
      <trkpt lat="43.56889" lon="2.44109">
        <ele>647.026</ele>
        <time>2016-12-30T01:34:43Z</time>
      </trkpt>
      <trkpt lat="43.56917" lon="2.43947">
        <ele>649.008</ele>
        <time>2016-12-30T01:35:03Z</time>
      </trkpt>
      <trkpt lat="43.56905" lon="2.43795">
        <ele>647.108</ele>
        <time>2016-12-30T01:35:23Z</time>
      </trkpt>
      <trkpt lat="43.56871" lon="2.43697">
        <ele>647.689</ele>
        <time>2016-12-30T01:35:43Z</time>
      </trkpt>
      <trkpt lat="43.56856" lon="2.43606">
        <ele>647.842</ele>
        <time>2016-12-30T01:36:03Z</time>
      </trkpt>
      <trkpt lat="43.56873" lon="2.4347">
        <ele>647.658</ele>
        <time>2016-12-30T01:36:23Z</time>
      </trkpt>
      <trkpt lat="43.56817" lon="2.43253">
        <ele>640.967</ele>
        <time>2016-12-30T01:36:43Z</time>
      </trkpt>
      <trkpt lat="43.56704" lon="2.43121">
        <ele>629.144</ele>
        <time>2016-12-30T01:37:03Z</time>
      </trkpt>
      <trkpt lat="43.56608" lon="2.42973">
        <ele>615.745</ele>
        <time>2016-12-30T01:37:23Z</time>
      </trkpt>
      <trkpt lat="43.56603" lon="2.42928">
        <ele>620.724</ele>
        <time>2021-04-17T08:07:50Z</time>
      </trkpt>
      <trkpt lat="43.56594" lon="2.42361">
        <ele>620.015</ele>
        <time>2016-12-30T01:37:43Z</time>
      </trkpt>
      <trkpt lat="43.5657" lon="2.42274">
        <ele>616.363</ele>
        <time>2016-12-30T01:38:03Z</time>
      </trkpt>
      <trkpt lat="43.56514" lon="2.42149">
        <ele>614.344</ele>
        <time>2016-12-30T01:38:23Z</time>
      </trkpt>
      <trkpt lat="43.56521" lon="2.42053">
        <ele>617.618</ele>
        <time>2016-12-30T01:38:43Z</time>
      </trkpt>
      <trkpt lat="43.56567" lon="2.41917">
        <ele>620.008</ele>
        <time>2016-12-30T01:39:03Z</time>
      </trkpt>
      <trkpt lat="43.56659" lon="2.41802">
        <ele>611.283</ele>
        <time>2016-12-30T01:39:23Z</time>
      </trkpt>
      <trkpt lat="43.56753" lon="2.41713">
        <ele>599.046</ele>
        <time>2016-12-30T01:39:43Z</time>
      </trkpt>
      <trkpt lat="43.56882" lon="2.41449">
        <ele>586.022</ele>
        <time>2016-12-30T01:40:03Z</time>
      </trkpt>
      <trkpt lat="43.56915" lon="2.41291">
        <ele>565.461</ele>
        <time>2016-12-30T01:40:23Z</time>
      </trkpt>
      <trkpt lat="43.56955" lon="2.41199">
        <ele>552.038</ele>
        <time>2016-12-30T01:40:43Z</time>
      </trkpt>
      <trkpt lat="43.57035" lon="2.41093">
        <ele>537.279</ele>
        <time>2016-12-30T01:41:03Z</time>
      </trkpt>
      <trkpt lat="43.57047" lon="2.4103">
        <ele>529.758</ele>
        <time>2016-12-30T01:41:23Z</time>
      </trkpt>
      <trkpt lat="43.57006" lon="2.41007">
        <ele>528.299</ele>
        <time>2016-12-30T01:41:43Z</time>
      </trkpt>
      <trkpt lat="43.57014" lon="2.40992">
        <ele>524.146</ele>
        <time>2016-12-30T01:42:03Z</time>
      </trkpt>
      <trkpt lat="43.57049" lon="2.40974">
        <ele>517.688</ele>
        <time>2016-12-30T01:42:23Z</time>
      </trkpt>
      <trkpt lat="43.57097" lon="2.40943">
        <ele>505.316</ele>
        <time>2016-12-30T01:42:43Z</time>
      </trkpt>
      <trkpt lat="43.57137" lon="2.40976">
        <ele>499.108</ele>
        <time>2016-12-30T01:43:03Z</time>
      </trkpt>
      <trkpt lat="43.57202" lon="2.4094">
        <ele>491.561</ele>
        <time>2016-12-30T01:43:23Z</time>
      </trkpt>
      <trkpt lat="43.57241" lon="2.40879">
        <ele>494.224</ele>
        <time>2016-12-30T01:43:43Z</time>
      </trkpt>
      <trkpt lat="43.57274" lon="2.40768">
        <ele>489.93</ele>
        <time>2016-12-30T01:44:03Z</time>
      </trkpt>
      <trkpt lat="43.57438" lon="2.40647">
        <ele>490.229</ele>
        <time>2016-12-30T01:44:23Z</time>
      </trkpt>
      <trkpt lat="43.57478" lon="2.4048">
        <ele>472.046</ele>
        <time>2016-12-30T01:44:43Z</time>
      </trkpt>
      <trkpt lat="43.57485" lon="2.40398">
        <ele>468.127</ele>
        <time>2016-12-30T01:45:03Z</time>
      </trkpt>
      <trkpt lat="43.57474" lon="2.40249">
        <ele>467.816</ele>
        <time>2016-12-30T01:45:23Z</time>
      </trkpt>
      <trkpt lat="43.57458" lon="2.40205">
        <ele>468.737</ele>
        <time>2016-12-30T01:45:43Z</time>
      </trkpt>
      <trkpt lat="43.5748" lon="2.40051">
        <ele>469.637</ele>
        <time>2016-12-30T01:46:03Z</time>
      </trkpt>
      <trkpt lat="43.57462" lon="2.39894">
        <ele>474.149</ele>
        <time>2016-12-30T01:46:23Z</time>
      </trkpt>
      <trkpt lat="43.57475" lon="2.39728">
        <ele>473.813</ele>
        <time>2016-12-30T01:46:43Z</time>
      </trkpt>
      <trkpt lat="43.57462" lon="2.39531">
        <ele>463.708</ele>
        <time>2016-12-30T01:47:03Z</time>
      </trkpt>
      <trkpt lat="43.57431" lon="2.39257">
        <ele>435.78</ele>
        <time>2016-12-30T01:47:23Z</time>
      </trkpt>
      <trkpt lat="43.57431" lon="2.39252">
        <ele>435.273</ele>
        <time>2016-12-30T01:47:43Z</time>
      </trkpt>
      <trkpt lat="43.57471" lon="2.39107">
        <ele>421.619</ele>
        <time>2016-12-30T01:48:03Z</time>
      </trkpt>
      <trkpt lat="43.57518" lon="2.39132">
        <ele>419.828</ele>
        <time>2016-12-30T01:48:23Z</time>
      </trkpt>
      <trkpt lat="43.57538" lon="2.39133">
        <ele>419.455</ele>
        <time>2016-12-30T01:49:03Z</time>
      </trkpt>
      <trkpt lat="43.57518" lon="2.39116">
        <ele>417.946</ele>
        <time>2016-12-30T01:49:23Z</time>
      </trkpt>
      <trkpt lat="43.57523" lon="2.39067">
        <ele>412.135</ele>
        <time>2016-12-30T01:49:43Z</time>
      </trkpt>
      <trkpt lat="43.57514" lon="2.38995">
        <ele>408.636</ele>
        <time>2016-12-30T01:50:03Z</time>
      </trkpt>
      <trkpt lat="43.57518" lon="2.38968">
        <ele>405.523</ele>
        <time>2016-12-30T01:50:23Z</time>
      </trkpt>
      <trkpt lat="43.57484" lon="2.38981">
        <ele>405.883</ele>
        <time>2016-12-30T01:50:43Z</time>
      </trkpt>
      <trkpt lat="43.57448" lon="2.39022">
        <ele>404.311</ele>
        <time>2016-12-30T01:51:03Z</time>
      </trkpt>
      <trkpt lat="43.57428" lon="2.39059">
        <ele>403.608</ele>
        <time>2016-12-30T01:51:23Z</time>
      </trkpt>
      <trkpt lat="43.57332" lon="2.3912">
        <ele>388.029</ele>
        <time>2016-12-30T01:51:43Z</time>
      </trkpt>
      <trkpt lat="43.57335" lon="2.39069">
        <ele>380.922</ele>
        <time>2016-12-30T01:52:03Z</time>
      </trkpt>
      <trkpt lat="43.57356" lon="2.38981">
        <ele>373.978</ele>
        <time>2016-12-30T01:52:23Z</time>
      </trkpt>
      <trkpt lat="43.57361" lon="2.3893">
        <ele>367.667</ele>
        <time>2016-12-30T01:52:43Z</time>
      </trkpt>
      <trkpt lat="43.57418" lon="2.38856">
        <ele>351.834</ele>
        <time>2016-12-30T01:53:03Z</time>
      </trkpt>
      <trkpt lat="43.57486" lon="2.38699">
        <ele>332.675</ele>
        <time>2016-12-30T01:53:23Z</time>
      </trkpt>
      <trkpt lat="43.57496" lon="2.38658">
        <ele>324.274</ele>
        <time>2016-12-30T01:53:43Z</time>
      </trkpt>
      <trkpt lat="43.57515" lon="2.38617">
        <ele>320.635</ele>
        <time>2016-12-30T01:54:03Z</time>
      </trkpt>
      <trkpt lat="43.57549" lon="2.38566">
        <ele>316.437</ele>
        <time>2016-12-30T01:54:23Z</time>
      </trkpt>
      <trkpt lat="43.57563" lon="2.38505">
        <ele>314.949</ele>
        <time>2016-12-30T01:54:43Z</time>
      </trkpt>
      <trkpt lat="43.57583" lon="2.38453">
        <ele>311.813</ele>
        <time>2016-12-30T01:55:03Z</time>
      </trkpt>
      <trkpt lat="43.57575" lon="2.38383">
        <ele>310.808</ele>
        <time>2016-12-30T01:55:23Z</time>
      </trkpt>
      <trkpt lat="43.57549" lon="2.38362">
        <ele>316.55</ele>
        <time>2016-12-30T01:55:43Z</time>
      </trkpt>
      <trkpt lat="43.57515" lon="2.38283">
        <ele>306.223</ele>
        <time>2016-12-30T01:56:03Z</time>
      </trkpt>
      <trkpt lat="43.57494" lon="2.38259">
        <ele>304.889</ele>
        <time>2016-12-30T01:56:23Z</time>
      </trkpt>
      <trkpt lat="43.57463" lon="2.38241">
        <ele>310.798</ele>
        <time>2016-12-30T01:56:43Z</time>
      </trkpt>
      <trkpt lat="43.57458" lon="2.38185">
        <ele>299.435</ele>
        <time>2016-12-30T01:57:03Z</time>
      </trkpt>
      <trkpt lat="43.5741" lon="2.38103">
        <ele>300.886</ele>
        <time>2016-12-30T01:57:23Z</time>
      </trkpt>
      <trkpt lat="43.5742" lon="2.38059">
        <ele>296.685</ele>
        <time>2016-12-30T01:57:43Z</time>
      </trkpt>
      <trkpt lat="43.57459" lon="2.38004">
        <ele>289.446</ele>
        <time>2016-12-30T01:58:03Z</time>
      </trkpt>
      <trkpt lat="43.5748" lon="2.37951">
        <ele>288.533</ele>
        <time>2016-12-30T01:58:23Z</time>
      </trkpt>
      <trkpt lat="43.57557" lon="2.37919">
        <ele>272.723</ele>
        <time>2016-12-30T01:58:43Z</time>
      </trkpt>
      <trkpt lat="43.57573" lon="2.37892">
        <ele>269.215</ele>
        <time>2016-12-30T01:59:03Z</time>
      </trkpt>
      <trkpt lat="43.57611" lon="2.37867">
        <ele>266.208</ele>
        <time>2016-12-30T01:59:23Z</time>
      </trkpt>
      <trkpt lat="43.57637" lon="2.37838">
        <ele>262.59</ele>
        <time>2016-12-30T01:59:43Z</time>
      </trkpt>
      <trkpt lat="43.57632" lon="2.37815">
        <ele>263.693</ele>
        <time>2016-12-30T02:00:03Z</time>
      </trkpt>
      <trkpt lat="43.57754" lon="2.37725">
        <ele>272.519</ele>
        <time>2016-12-30T02:00:23Z</time>
      </trkpt>
      <trkpt lat="43.57796" lon="2.37723">
        <ele>272.518</ele>
        <time>2016-12-30T02:00:43Z</time>
      </trkpt>
      <trkpt lat="43.57817" lon="2.37704">
        <ele>276.555</ele>
        <time>2016-12-30T02:01:03Z</time>
      </trkpt>
      <trkpt lat="43.57972" lon="2.37674">
        <ele>294.836</ele>
        <time>2016-12-30T02:02:43Z</time>
      </trkpt>
      <trkpt lat="43.58029" lon="2.37635">
        <ele>304.985</ele>
        <time>2016-12-30T02:03:03Z</time>
      </trkpt>
      <trkpt lat="43.58065" lon="2.37468">
        <ele>311.856</ele>
        <time>2016-12-30T02:03:23Z</time>
      </trkpt>
      <trkpt lat="43.5806" lon="2.37353">
        <ele>314.063</ele>
        <time>2016-12-30T02:03:43Z</time>
      </trkpt>
      <trkpt lat="43.58038" lon="2.37236">
        <ele>325.844</ele>
        <time>2016-12-30T02:04:03Z</time>
      </trkpt>
      <trkpt lat="43.58072" lon="2.37117">
        <ele>333.918</ele>
        <time>2016-12-30T02:04:23Z</time>
      </trkpt>
      <trkpt lat="43.5808" lon="2.37033">
        <ele>339.608</ele>
        <time>2016-12-30T02:04:43Z</time>
      </trkpt>
      <trkpt lat="43.58069" lon="2.37024">
        <ele>339.543</ele>
        <time>2016-12-30T02:05:23Z</time>
      </trkpt>
      <trkpt lat="43.58077" lon="2.37002">
        <ele>340.216</ele>
        <time>2016-12-30T02:05:43Z</time>
      </trkpt>
      <trkpt lat="43.58093" lon="2.37009">
        <ele>341.352</ele>
        <time>2016-12-30T02:06:03Z</time>
      </trkpt>
      <trkpt lat="43.58136" lon="2.36884">
        <ele>346.061</ele>
        <time>2016-12-30T02:06:23Z</time>
      </trkpt>
      <trkpt lat="43.58167" lon="2.36745">
        <ele>347.228</ele>
        <time>2016-12-30T02:06:43Z</time>
      </trkpt>
      <trkpt lat="43.58211" lon="2.36688">
        <ele>347.569</ele>
        <time>2016-12-30T02:09:03Z</time>
      </trkpt>
      <trkpt lat="43.58219" lon="2.36587">
        <ele>345.778</ele>
        <time>2016-12-30T02:10:03Z</time>
      </trkpt>
      <trkpt lat="43.5827" lon="2.36469">
        <ele>343.219</ele>
        <time>2021-04-17T08:36:10Z</time>
      </trkpt>
      <trkpt lat="43.58286" lon="2.36402">
        <ele>340.871</ele>
        <time>2021-04-17T08:36:30Z</time>
      </trkpt>
      <trkpt lat="43.58293" lon="2.36326">
        <ele>339.041</ele>
        <time>2021-04-17T08:36:50Z</time>
      </trkpt>
      <trkpt lat="43.58265" lon="2.36271">
        <ele>333.815</ele>
        <time>2021-04-17T08:37:10Z</time>
      </trkpt>
      <trkpt lat="43.58194" lon="2.36166">
        <ele>325.008</ele>
        <time>2016-12-30T02:11:43Z</time>
      </trkpt>
      <trkpt lat="43.58148" lon="2.36108">
        <ele>319.794</ele>
        <time>2016-12-30T02:14:43Z</time>
      </trkpt>
      <trkpt lat="43.58127" lon="2.36058">
        <ele>318.697</ele>
        <time>2016-12-30T02:15:03Z</time>
      </trkpt>
      <trkpt lat="43.58101" lon="2.35949">
        <ele>312.433</ele>
        <time>2016-12-30T02:15:23Z</time>
      </trkpt>
      <trkpt lat="43.58056" lon="2.35963">
        <ele>310.072</ele>
        <time>2016-12-30T02:15:43Z</time>
      </trkpt>
      <trkpt lat="43.58017" lon="2.35942">
        <ele>305.039</ele>
        <time>2016-12-30T02:16:03Z</time>
      </trkpt>
      <trkpt lat="43.57983" lon="2.35902">
        <ele>298.92</ele>
        <time>2016-12-30T02:16:23Z</time>
      </trkpt>
      <trkpt lat="43.57945" lon="2.35879">
        <ele>292.639</ele>
        <time>2016-12-30T02:16:43Z</time>
      </trkpt>
      <trkpt lat="43.57904" lon="2.35798">
        <ele>280.83</ele>
        <time>2016-12-30T02:17:03Z</time>
      </trkpt>
      <trkpt lat="43.57883" lon="2.35713">
        <ele>270.482</ele>
        <time>2016-12-30T02:17:23Z</time>
      </trkpt>
      <trkpt lat="43.57836" lon="2.35593">
        <ele>252.243</ele>
        <time>2016-12-30T02:17:43Z</time>
      </trkpt>
      <trkpt lat="43.57832" lon="2.35516">
        <ele>245.517</ele>
        <time>2016-12-30T02:18:03Z</time>
      </trkpt>
      <trkpt lat="43.57805" lon="2.3542">
        <ele>243.608</ele>
        <time>2016-12-30T02:18:23Z</time>
      </trkpt>
      <trkpt lat="43.57773" lon="2.35365">
        <ele>245.215</ele>
        <time>2016-12-30T02:18:43Z</time>
      </trkpt>
      <trkpt lat="43.57724" lon="2.35327">
        <ele>247.078</ele>
        <time>2016-12-30T02:19:03Z</time>
      </trkpt>
      <trkpt lat="43.57667" lon="2.35275">
        <ele>246.554</ele>
        <time>2016-12-30T02:19:23Z</time>
      </trkpt>
      <trkpt lat="43.57618" lon="2.35225">
        <ele>244.643</ele>
        <time>2016-12-30T02:19:43Z</time>
      </trkpt>
      <trkpt lat="43.57542" lon="2.35188">
        <ele>239.09</ele>
        <time>2016-12-30T02:20:03Z</time>
      </trkpt>
      <trkpt lat="43.57515" lon="2.35146">
        <ele>238.161</ele>
        <time>2016-12-30T02:22:43Z</time>
      </trkpt>
      <trkpt lat="43.57438" lon="2.35112">
        <ele>233.56</ele>
        <time>2016-12-30T02:23:03Z</time>
      </trkpt>
      <trkpt lat="43.57453" lon="2.35007">
        <ele>234.111</ele>
        <time>2016-12-30T02:23:23Z</time>
      </trkpt>
      <trkpt lat="43.57491" lon="2.34624">
        <ele>237.582</ele>
        <time>2016-12-30T02:23:43Z</time>
      </trkpt>
      <trkpt lat="43.57476" lon="2.345">
        <ele>237.243</ele>
        <time>2016-12-30T02:24:03Z</time>
      </trkpt>
      <trkpt lat="43.5751" lon="2.34482">
        <ele>239.317</ele>
        <time>2016-12-30T02:24:23Z</time>
      </trkpt>
      <trkpt lat="43.57569" lon="2.34483">
        <ele>244.008</ele>
        <time>2016-12-30T02:24:43Z</time>
      </trkpt>
      <trkpt lat="43.57643" lon="2.34464">
        <ele>251.575</ele>
        <time>2016-12-30T02:25:03Z</time>
      </trkpt>
      <trkpt lat="43.57724" lon="2.34484">
        <ele>255.428</ele>
        <time>2016-12-30T02:25:23Z</time>
      </trkpt>
      <trkpt lat="43.57681" lon="2.34502">
        <ele>258.974</ele>
        <time>2021-04-17T08:46:30Z</time>
      </trkpt>
      <trkpt lat="43.57662" lon="2.34529">
        <ele>259.843</ele>
        <time>2021-04-17T08:46:50Z</time>
      </trkpt>
      <trkpt lat="43.57711" lon="2.34781">
        <ele>282.97</ele>
        <time>2021-04-17T08:47:10Z</time>
      </trkpt>
      <trkpt lat="43.5786" lon="2.35063">
        <ele>311.031</ele>
        <time>2016-12-30T02:26:23Z</time>
      </trkpt>
      <trkpt lat="43.57954" lon="2.35079">
        <ele>317.06</ele>
        <time>2016-12-30T02:26:43Z</time>
      </trkpt>
      <trkpt lat="43.58165" lon="2.34992">
        <ele>318.281</ele>
        <time>2016-12-30T02:27:03Z</time>
      </trkpt>
      <trkpt lat="43.582" lon="2.3501">
        <ele>314.215</ele>
        <time>2016-12-30T02:27:23Z</time>
      </trkpt>
      <trkpt lat="43.58238" lon="2.34941">
        <ele>309.965</ele>
        <time>2016-12-30T02:27:43Z</time>
      </trkpt>
      <trkpt lat="43.58255" lon="2.3493">
        <ele>309.811</ele>
        <time>2016-12-30T02:28:03Z</time>
      </trkpt>
      <trkpt lat="43.58261" lon="2.34895">
        <ele>310.008</ele>
        <time>2016-12-30T02:28:23Z</time>
      </trkpt>
      <trkpt lat="43.58328" lon="2.34802">
        <ele>310.068</ele>
        <time>2016-12-30T02:28:43Z</time>
      </trkpt>
      <trkpt lat="43.58353" lon="2.34788">
        <ele>310.041</ele>
        <time>2016-12-30T02:29:03Z</time>
      </trkpt>
      <trkpt lat="43.58458" lon="2.34653">
        <ele>317.397</ele>
        <time>2016-12-30T02:29:23Z</time>
      </trkpt>
      <trkpt lat="43.58473" lon="2.34544">
        <ele>321.186</ele>
        <time>2016-12-30T02:29:43Z</time>
      </trkpt>
      <trkpt lat="43.58505" lon="2.34483">
        <ele>326.123</ele>
        <time>2016-12-30T02:30:03Z</time>
      </trkpt>
      <trkpt lat="43.58586" lon="2.34451">
        <ele>330.044</ele>
        <time>2016-12-30T02:30:23Z</time>
      </trkpt>
      <trkpt lat="43.58654" lon="2.34434">
        <ele>330.043</ele>
        <time>2016-12-30T02:30:43Z</time>
      </trkpt>
      <trkpt lat="43.58706" lon="2.34444">
        <ele>335.144</ele>
        <time>2016-12-30T02:31:23Z</time>
      </trkpt>
      <trkpt lat="43.58728" lon="2.34464">
        <ele>339.726</ele>
        <time>2016-12-30T02:31:43Z</time>
      </trkpt>
      <trkpt lat="43.5877" lon="2.34423">
        <ele>342.847</ele>
        <time>2016-12-30T02:32:03Z</time>
      </trkpt>
      <trkpt lat="43.58804" lon="2.34414">
        <ele>344.511</ele>
        <time>2016-12-30T02:32:23Z</time>
      </trkpt>
      <trkpt lat="43.58849" lon="2.34442">
        <ele>350.808</ele>
        <time>2016-12-30T02:32:43Z</time>
      </trkpt>
      <trkpt lat="43.58886" lon="2.34432">
        <ele>352.879</ele>
        <time>2016-12-30T02:33:03Z</time>
      </trkpt>
      <trkpt lat="43.58934" lon="2.34392">
        <ele>354.182</ele>
        <time>2016-12-30T02:33:23Z</time>
      </trkpt>
      <trkpt lat="43.59032" lon="2.34231">
        <ele>358.768</ele>
        <time>2016-12-30T02:33:43Z</time>
      </trkpt>
      <trkpt lat="43.59155" lon="2.33966">
        <ele>332.347</ele>
        <time>2016-12-30T02:34:03Z</time>
      </trkpt>
      <trkpt lat="43.59192" lon="2.33844">
        <ele>335.494</ele>
        <time>2016-12-30T02:34:23Z</time>
      </trkpt>
      <trkpt lat="43.5923" lon="2.33633">
        <ele>348.875</ele>
        <time>2016-12-30T02:35:03Z</time>
      </trkpt>
      <trkpt lat="43.59236" lon="2.33498">
        <ele>350.054</ele>
        <time>2016-12-30T02:35:23Z</time>
      </trkpt>
      <trkpt lat="43.59223" lon="2.33359">
        <ele>350.035</ele>
        <time>2016-12-30T02:35:43Z</time>
      </trkpt>
      <trkpt lat="43.59233" lon="2.33166">
        <ele>344.319</ele>
        <time>2016-12-30T02:36:03Z</time>
      </trkpt>
      <trkpt lat="43.59229" lon="2.33088">
        <ele>339.409</ele>
        <time>2016-12-30T02:36:23Z</time>
      </trkpt>
      <trkpt lat="43.59255" lon="2.32941">
        <ele>331.419</ele>
        <time>2016-12-30T02:36:43Z</time>
      </trkpt>
      <trkpt lat="43.59266" lon="2.32787">
        <ele>319.908</ele>
        <time>2016-12-30T02:38:03Z</time>
      </trkpt>
      <trkpt lat="43.59278" lon="2.32716">
        <ele>314.698</ele>
        <time>2016-12-30T02:38:23Z</time>
      </trkpt>
      <trkpt lat="43.59248" lon="2.32707">
        <ele>315.551</ele>
        <time>2016-12-30T02:38:43Z</time>
      </trkpt>
      <trkpt lat="43.59191" lon="2.32597">
        <ele>311.547</ele>
        <time>2016-12-30T02:39:03Z</time>
      </trkpt>
      <trkpt lat="43.59064" lon="2.32504">
        <ele>298.036</ele>
        <time>2016-12-30T02:39:23Z</time>
      </trkpt>
      <trkpt lat="43.58939" lon="2.32274">
        <ele>277.693</ele>
        <time>2016-12-30T02:39:43Z</time>
      </trkpt>
      <trkpt lat="43.58908" lon="2.32259">
        <ele>275.214</ele>
        <time>2016-12-30T02:40:03Z</time>
      </trkpt>
      <trkpt lat="43.58975" lon="2.32092">
        <ele>267.613</ele>
        <time>2016-12-30T02:40:43Z</time>
      </trkpt>
      <trkpt lat="43.58983" lon="2.32024">
        <ele>262.134</ele>
        <time>2016-12-30T02:41:03Z</time>
      </trkpt>
      <trkpt lat="43.59014" lon="2.31897">
        <ele>264.091</ele>
        <time>2016-12-30T02:41:23Z</time>
      </trkpt>
      <trkpt lat="43.59085" lon="2.31828">
        <ele>281.681</ele>
        <time>2021-04-17T09:00:50Z</time>
      </trkpt>
      <trkpt lat="43.59132" lon="2.31756">
        <ele>279.019</ele>
        <time>2016-12-30T02:42:23Z</time>
      </trkpt>
      <trkpt lat="43.59093" lon="2.31694">
        <ele>286.008</ele>
        <time>2016-12-30T02:42:43Z</time>
      </trkpt>
      <trkpt lat="43.59098" lon="2.31642">
        <ele>288.776</ele>
        <time>2016-12-30T02:43:03Z</time>
      </trkpt>
      <trkpt lat="43.59154" lon="2.3146">
        <ele>299.669</ele>
        <time>2016-12-30T02:43:23Z</time>
      </trkpt>
      <trkpt lat="43.59183" lon="2.31431">
        <ele>313.165</ele>
        <time>2021-04-17T09:02:30Z</time>
      </trkpt>
      <trkpt lat="43.59231" lon="2.31473">
        <ele>296.354</ele>
        <time>2016-12-30T02:44:03Z</time>
      </trkpt>
      <trkpt lat="43.5932" lon="2.31376">
        <ele>301.661</ele>
        <time>2016-12-30T02:44:23Z</time>
      </trkpt>
      <trkpt lat="43.5934" lon="2.31318">
        <ele>302.782</ele>
        <time>2016-12-30T02:44:43Z</time>
      </trkpt>
      <trkpt lat="43.5935" lon="2.31217">
        <ele>303.581</ele>
        <time>2016-12-30T02:45:03Z</time>
      </trkpt>
      <trkpt lat="43.59343" lon="2.31159">
        <ele>307.172</ele>
        <time>2016-12-30T02:45:23Z</time>
      </trkpt>
      <trkpt lat="43.59366" lon="2.31064">
        <ele>304.641</ele>
        <time>2016-12-30T02:45:43Z</time>
      </trkpt>
      <trkpt lat="43.59407" lon="2.30981">
        <ele>306.681</ele>
        <time>2021-04-17T09:04:50Z</time>
      </trkpt>
      <trkpt lat="43.59506" lon="2.30844">
        <ele>310.409</ele>
        <time>2016-12-30T02:46:23Z</time>
      </trkpt>
      <trkpt lat="43.59549" lon="2.30835">
        <ele>309.508</ele>
        <time>2016-12-30T02:46:43Z</time>
      </trkpt>
      <trkpt lat="43.59589" lon="2.30862">
        <ele>305.981</ele>
        <time>2016-12-30T02:47:03Z</time>
      </trkpt>
      <trkpt lat="43.59626" lon="2.30982">
        <ele>292.044</ele>
        <time>2016-12-30T02:47:23Z</time>
      </trkpt>
      <trkpt lat="43.59727" lon="2.30947">
        <ele>280.98</ele>
        <time>2016-12-30T02:47:43Z</time>
      </trkpt>
      <trkpt lat="43.59707" lon="2.30771">
        <ele>292.369</ele>
        <time>2016-12-30T02:48:03Z</time>
      </trkpt>
      <trkpt lat="43.5975" lon="2.30661">
        <ele>294.736</ele>
        <time>2016-12-30T02:48:23Z</time>
      </trkpt>
      <trkpt lat="43.5977" lon="2.30569">
        <ele>299.647</ele>
        <time>2016-12-30T02:48:43Z</time>
      </trkpt>
      <trkpt lat="43.59767" lon="2.30496">
        <ele>297.826</ele>
        <time>2016-12-30T02:49:03Z</time>
      </trkpt>
      <trkpt lat="43.59774" lon="2.30449">
        <ele>295.357</ele>
        <time>2016-12-30T02:49:23Z</time>
      </trkpt>
      <trkpt lat="43.59811" lon="2.30398">
        <ele>292.513</ele>
        <time>2016-12-30T02:49:43Z</time>
      </trkpt>
      <trkpt lat="43.59836" lon="2.30318">
        <ele>298.943</ele>
        <time>2016-12-30T02:50:03Z</time>
      </trkpt>
      <trkpt lat="43.59881" lon="2.30236">
        <ele>306.807</ele>
        <time>2016-12-30T02:50:23Z</time>
      </trkpt>
      <trkpt lat="43.59933" lon="2.30154">
        <ele>310.708</ele>
        <time>2016-12-30T02:50:43Z</time>
      </trkpt>
      <trkpt lat="43.59945" lon="2.30114">
        <ele>313.968</ele>
        <time>2016-12-30T02:51:03Z</time>
      </trkpt>
      <trkpt lat="43.59968" lon="2.30025">
        <ele>316.541</ele>
        <time>2016-12-30T02:51:23Z</time>
      </trkpt>
      <trkpt lat="43.59966" lon="2.29984">
        <ele>313.377</ele>
        <time>2016-12-30T02:51:43Z</time>
      </trkpt>
      <trkpt lat="43.59948" lon="2.29895">
        <ele>305.146</ele>
        <time>2016-12-30T02:52:03Z</time>
      </trkpt>
      <trkpt lat="43.59966" lon="2.29786">
        <ele>301.073</ele>
        <time>2016-12-30T02:52:23Z</time>
      </trkpt>
      <trkpt lat="43.59934" lon="2.29542">
        <ele>291.594</ele>
        <time>2016-12-30T02:52:43Z</time>
      </trkpt>
      <trkpt lat="43.59933" lon="2.29445">
        <ele>289.913</ele>
        <time>2016-12-30T02:53:03Z</time>
      </trkpt>
      <trkpt lat="43.59862" lon="2.29312">
        <ele>298.554</ele>
        <time>2016-12-30T02:53:23Z</time>
      </trkpt>
      <trkpt lat="43.59835" lon="2.29206">
        <ele>295.782</ele>
        <time>2021-04-17T09:12:30Z</time>
      </trkpt>
      <trkpt lat="43.59809" lon="2.29067">
        <ele>292.643</ele>
        <time>2016-12-30T02:53:43Z</time>
      </trkpt>
      <trkpt lat="43.5978" lon="2.28838">
        <ele>279.117</ele>
        <time>2016-12-30T02:54:03Z</time>
      </trkpt>
      <trkpt lat="43.5973" lon="2.28736">
        <ele>270.708</ele>
        <time>2016-12-30T02:54:23Z</time>
      </trkpt>
      <trkpt lat="43.59697" lon="2.28574">
        <ele>270.065</ele>
        <time>2016-12-30T02:54:43Z</time>
      </trkpt>
      <trkpt lat="43.59551" lon="2.28247">
        <ele>269.968</ele>
        <time>2016-12-30T02:55:03Z</time>
      </trkpt>
      <trkpt lat="43.59526" lon="2.28142">
        <ele>265.154</ele>
        <time>2016-12-30T02:55:23Z</time>
      </trkpt>
      <trkpt lat="43.59564" lon="2.28015">
        <ele>258.653</ele>
        <time>2016-12-30T02:55:43Z</time>
      </trkpt>
      <trkpt lat="43.59619" lon="2.27908">
        <ele>250.02</ele>
        <time>2016-12-30T02:56:23Z</time>
      </trkpt>
      <trkpt lat="43.59703" lon="2.27825">
        <ele>249.041</ele>
        <time>2016-12-30T02:56:43Z</time>
      </trkpt>
      <trkpt lat="43.59726" lon="2.27787">
        <ele>249.27</ele>
        <time>2016-12-30T02:57:03Z</time>
      </trkpt>
      <trkpt lat="43.59894" lon="2.27643">
        <ele>239.141</ele>
        <time>2016-12-30T02:57:23Z</time>
      </trkpt>
      <trkpt lat="43.59926" lon="2.27416">
        <ele>238.363</ele>
        <time>2016-12-30T02:57:43Z</time>
      </trkpt>
      <trkpt lat="43.59794" lon="2.2706">
        <ele>205.744</ele>
        <time>2016-12-30T02:58:03Z</time>
      </trkpt>
      <trkpt lat="43.59726" lon="2.2691">
        <ele>198.318</ele>
        <time>2016-12-30T02:58:23Z</time>
      </trkpt>
      <trkpt lat="43.59848" lon="2.26548">
        <ele>193.308</ele>
        <time>2016-12-30T02:58:43Z</time>
      </trkpt>
      <trkpt lat="43.59914" lon="2.26395">
        <ele>191.983</ele>
        <time>2016-12-30T02:59:03Z</time>
      </trkpt>
      <trkpt lat="43.5993" lon="2.26322">
        <ele>190.636</ele>
        <time>2016-12-30T03:00:23Z</time>
      </trkpt>
      <trkpt lat="43.60021" lon="2.26185">
        <ele>190.882</ele>
        <time>2016-12-30T03:00:43Z</time>
      </trkpt>
      <trkpt lat="43.60152" lon="2.26015">
        <ele>191.511</ele>
        <time>2016-12-30T03:01:03Z</time>
      </trkpt>
      <trkpt lat="43.60222" lon="2.25904">
        <ele>190.028</ele>
        <time>2016-12-30T03:01:23Z</time>
      </trkpt>
      <trkpt lat="43.60247" lon="2.25638">
        <ele>185.769</ele>
        <time>2016-12-30T03:01:43Z</time>
      </trkpt>
      <trkpt lat="43.60276" lon="2.25499">
        <ele>184.898</ele>
        <time>2016-12-30T03:02:03Z</time>
      </trkpt>
      <trkpt lat="43.60365" lon="2.25279">
        <ele>183.269</ele>
        <time>2016-12-30T03:02:23Z</time>
      </trkpt>
      <trkpt lat="43.60379" lon="2.25217">
        <ele>182.512</ele>
        <time>2016-12-30T03:04:23Z</time>
      </trkpt>
      <trkpt lat="43.60418" lon="2.25131">
        <ele>182.032</ele>
        <time>2016-12-30T03:04:43Z</time>
      </trkpt>
      <trkpt lat="43.60538" lon="2.24747">
        <ele>176.905</ele>
        <time>2016-12-30T03:05:03Z</time>
      </trkpt>
      <trkpt lat="43.60573" lon="2.24694">
        <ele>176.608</ele>
        <time>2016-12-30T03:05:23Z</time>
      </trkpt>
      <trkpt lat="43.60602" lon="2.2467">
        <ele>176.228</ele>
        <time>2016-12-30T03:05:43Z</time>
      </trkpt>
      <trkpt lat="43.60517" lon="2.24622">
        <ele>174.021</ele>
        <time>2016-12-30T03:06:03Z</time>
      </trkpt>
      <trkpt lat="43.60627" lon="2.24392">
        <ele>169.267</ele>
        <time>2016-12-30T03:06:23Z</time>
      </trkpt>
      <trkpt lat="43.60528" lon="2.2436">
        <ele>166.066</ele>
        <time>2016-12-30T03:06:43Z</time>
      </trkpt>
      <trkpt lat="43.60524" lon="2.24315">
        <ele>165.493</ele>
        <time>2016-12-30T03:07:03Z</time>
      </trkpt>
      <trkpt lat="43.60475" lon="2.24312">
        <ele>165.234</ele>
        <time>2016-12-30T03:07:23Z</time>
      </trkpt>
      <trkpt lat="43.60481" lon="2.24238">
        <ele>168.583</ele>
        <time>2016-12-30T03:07:43Z</time>
      </trkpt>
      <trkpt lat="43.60405" lon="2.24226">
        <ele>169.474</ele>
        <time>2016-12-30T03:08:03Z</time>
      </trkpt>
      <trkpt lat="43.60403" lon="2.24145">
        <ele>178.184</ele>
        <time>2021-04-17T09:24:30Z</time>
      </trkpt>
      <trkpt lat="43.60296" lon="2.24135">
        <ele>177.507</ele>
        <time>2021-04-17T09:24:50Z</time>
      </trkpt>
      <trkpt lat="43.60286" lon="2.24204">
        <ele>173.517</ele>
        <time>2021-04-17T09:25:10Z</time>
      </trkpt>
      <trkpt lat="43.60227" lon="2.24193">
        <ele>174.808</ele>
        <time>2021-04-17T09:25:30Z</time>
      </trkpt>
      <trkpt lat="43.60215" lon="2.24214">
        <ele>173.565</ele>
        <time>2021-04-17T09:25:50Z</time>
      </trkpt>
      <trkpt lat="43.59966" lon="2.24129">
        <ele>165.588</ele>
        <time>2016-12-30T03:10:03Z</time>
      </trkpt>
      <trkpt lat="43.59793" lon="2.24042">
        <ele>167.314</ele>
        <time>2016-12-30T03:10:23Z</time>
      </trkpt>
      <trkpt lat="43.59654" lon="2.23966">
        <ele>167.893</ele>
        <time>2016-12-30T03:10:43Z</time>
      </trkpt>
      <trkpt lat="43.5962" lon="2.24075">
        <ele>166.84</ele>
        <time>2016-12-30T03:11:03Z</time>
      </trkpt>
      <trkpt lat="43.59632" lon="2.24106">
        <ele>168.591</ele>
        <time>2016-12-30T03:11:23Z</time>
      </trkpt>
      <trkpt lat="43.59627" lon="2.24191">
        <ele>172.78</ele>
        <time>2016-12-30T03:11:43Z</time>
      </trkpt>
      <trkpt lat="43.59537" lon="2.24181">
        <ele>176.781</ele>
        <time>2016-12-30T03:12:03Z</time>
      </trkpt>
      <trkpt lat="43.59533" lon="2.24163">
        <ele>176.633</ele>
        <time>2016-12-30T03:12:23Z</time>
      </trkpt>
      <trkpt lat="43.59457" lon="2.24104">
        <ele>176.523</ele>
        <time>2016-12-30T03:12:43Z</time>
      </trkpt>
      <trkpt lat="43.59418" lon="2.24095">
        <ele>178.815</ele>
        <time>2016-12-30T03:13:03Z</time>
      </trkpt>
      <trkpt lat="43.59344" lon="2.24051">
        <ele>180.208</ele>
        <time>2016-12-30T03:13:23Z</time>
      </trkpt>
      <trkpt lat="43.59268" lon="2.23957">
        <ele>180.54</ele>
        <time>2016-12-30T03:13:43Z</time>
      </trkpt>
      <trkpt lat="43.59195" lon="2.23841">
        <ele>182.653</ele>
        <time>2016-12-30T03:14:03Z</time>
      </trkpt>
      <trkpt lat="43.591" lon="2.23717">
        <ele>181.729</ele>
        <time>2016-12-30T03:14:23Z</time>
      </trkpt>
      <trkpt lat="43.59028" lon="2.23711">
        <ele>181.848</ele>
        <time>2016-12-30T03:14:43Z</time>
      </trkpt>
      <trkpt lat="43.58907" lon="2.23604">
        <ele>182.225</ele>
        <time>2016-12-30T03:15:03Z</time>
      </trkpt>
      <trkpt lat="43.58879" lon="2.23592">
        <ele>183.766</ele>
        <time>2016-12-30T03:15:23Z</time>
      </trkpt>
      <trkpt lat="43.58665" lon="2.23069">
        <ele>174.065</ele>
        <time>2016-12-30T03:15:43Z</time>
      </trkpt>
      <trkpt lat="43.58599" lon="2.22947">
        <ele>179.566</ele>
        <time>2016-12-30T03:16:03Z</time>
      </trkpt>
      <trkpt lat="43.5852" lon="2.22861">
        <ele>179.387</ele>
        <time>2016-12-30T03:17:03Z</time>
      </trkpt>
      <trkpt lat="43.58448" lon="2.22844">
        <ele>179.542</ele>
        <time>2021-04-17T09:32:50Z</time>
      </trkpt>
      <trkpt lat="43.58363" lon="2.22674">
        <ele>176.026</ele>
        <time>2016-12-30T03:17:43Z</time>
      </trkpt>
      <trkpt lat="43.58388" lon="2.22563">
        <ele>170.608</ele>
        <time>2016-12-30T03:18:03Z</time>
      </trkpt>
      <trkpt lat="43.58465" lon="2.22501">
        <ele>170.015</ele>
        <time>2016-12-30T03:18:23Z</time>
      </trkpt>
      <trkpt lat="43.58322" lon="2.22285">
        <ele>163.958</ele>
        <time>2016-12-30T03:18:43Z</time>
      </trkpt>
      <trkpt lat="43.58252" lon="2.22209">
        <ele>160.594</ele>
        <time>2016-12-30T03:19:03Z</time>
      </trkpt>
      <trkpt lat="43.58218" lon="2.22221">
        <ele>161.013</ele>
        <time>2016-12-30T03:19:23Z</time>
      </trkpt>
      <trkpt lat="43.58171" lon="2.22166">
        <ele>160.06</ele>
        <time>2016-12-30T03:19:43Z</time>
      </trkpt>
      <trkpt lat="43.58096" lon="2.22147">
        <ele>160.031</ele>
        <time>2016-12-30T03:20:03Z</time>
      </trkpt>
      <trkpt lat="43.58052" lon="2.22143">
        <ele>160.02</ele>
        <time>2016-12-30T03:20:23Z</time>
      </trkpt>
      <trkpt lat="43.58008" lon="2.22139">
        <ele>160.091</ele>
        <time>2016-12-30T03:20:43Z</time>
      </trkpt>
      <trkpt lat="43.58002" lon="2.22198">
        <ele>160.056</ele>
        <time>2016-12-30T03:21:03Z</time>
      </trkpt>
      <trkpt lat="43.57981" lon="2.22279">
        <ele>159.359</ele>
        <time>2016-12-30T03:21:23Z</time>
      </trkpt>
      <trkpt lat="43.5802" lon="2.22317">
        <ele>161.114</ele>
        <time>2016-12-30T03:21:43Z</time>
      </trkpt>
      <trkpt lat="43.58017" lon="2.22329">
        <ele>166.208</ele>
        <time>2021-04-17T09:37:30Z</time>
      </trkpt>
      <trkpt lat="43.57873" lon="2.22279">
        <ele>168.242</ele>
        <time>2021-04-17T09:37:50Z</time>
      </trkpt>
      <trkpt lat="43.57763" lon="2.22305">
        <ele>171.575</ele>
        <time>2016-12-30T03:22:43Z</time>
      </trkpt>
      <trkpt lat="43.57722" lon="2.22278">
        <ele>173.081</ele>
        <time>2016-12-30T03:23:03Z</time>
      </trkpt>
      <trkpt lat="43.57743" lon="2.22246">
        <ele>172.44</ele>
        <time>2016-12-30T03:23:23Z</time>
      </trkpt>
      <trkpt lat="43.57828" lon="2.22238">
        <ele>170.227</ele>
        <time>2016-12-30T03:23:43Z</time>
      </trkpt>
      <trkpt lat="43.57888" lon="2.22199">
        <ele>168.168</ele>
        <time>2016-12-30T03:24:03Z</time>
      </trkpt>
      <trkpt lat="43.57921" lon="2.2212">
        <ele>165.567</ele>
        <time>2016-12-30T03:24:23Z</time>
      </trkpt>
      <trkpt lat="43.57951" lon="2.21905">
        <ele>172.178</ele>
        <time>2016-12-30T03:24:43Z</time>
      </trkpt>
      <trkpt lat="43.58014" lon="2.2174">
        <ele>173.711</ele>
        <time>2016-12-30T03:25:03Z</time>
      </trkpt>
      <trkpt lat="43.5802" lon="2.21678">
        <ele>173.021</ele>
        <time>2016-12-30T03:25:23Z</time>
      </trkpt>
      <trkpt lat="43.57864" lon="2.21564">
        <ele>184.803</ele>
        <time>2016-12-30T03:25:43Z</time>
      </trkpt>
      <trkpt lat="43.57802" lon="2.21534">
        <ele>190.408</ele>
        <time>2016-12-30T03:26:03Z</time>
      </trkpt>
      <trkpt lat="43.57665" lon="2.21437">
        <ele>207.828</ele>
        <time>2016-12-30T03:26:23Z</time>
      </trkpt>
      <trkpt lat="43.57704" lon="2.21276">
        <ele>208.061</ele>
        <time>2016-12-30T03:26:43Z</time>
      </trkpt>
      <trkpt lat="43.57703" lon="2.21183">
        <ele>205.397</ele>
        <time>2016-12-30T03:27:03Z</time>
      </trkpt>
      <trkpt lat="43.57747" lon="2.21096">
        <ele>202.316</ele>
        <time>2016-12-30T03:27:23Z</time>
      </trkpt>
      <trkpt lat="43.57744" lon="2.20983">
        <ele>191.813</ele>
        <time>2016-12-30T03:27:43Z</time>
      </trkpt>
      <trkpt lat="43.57728" lon="2.20949">
        <ele>190.284</ele>
        <time>2016-12-30T03:28:03Z</time>
      </trkpt>
      <trkpt lat="43.57688" lon="2.20906">
        <ele>192.353</ele>
        <time>2016-12-30T03:28:23Z</time>
      </trkpt>
      <trkpt lat="43.57839" lon="2.20665">
        <ele>187.824</ele>
        <time>2016-12-30T03:28:43Z</time>
      </trkpt>
      <trkpt lat="43.57732" lon="2.20481">
        <ele>202.199</ele>
        <time>2016-12-30T03:29:03Z</time>
      </trkpt>
      <trkpt lat="43.57724" lon="2.20345">
        <ele>215.907</ele>
        <time>2016-12-30T03:29:23Z</time>
      </trkpt>
      <trkpt lat="43.57696" lon="2.202">
        <ele>222.527</ele>
        <time>2016-12-30T03:29:43Z</time>
      </trkpt>
      <trkpt lat="43.57653" lon="2.20101">
        <ele>225.208</ele>
        <time>2019-12-05T18:42:56Z</time>
      </trkpt>
      <trkpt lat="43.57581" lon="2.19875">
        <ele>233.696</ele>
        <time>2019-12-05T18:43:16Z</time>
      </trkpt>
      <trkpt lat="43.5761" lon="2.19809">
        <ele>237.719</ele>
        <time>2019-12-05T18:43:36Z</time>
      </trkpt>
      <trkpt lat="43.57607" lon="2.1977">
        <ele>238.435</ele>
        <time>2019-12-05T18:43:56Z</time>
      </trkpt>
      <trkpt lat="43.57573" lon="2.19711">
        <ele>239.474</ele>
        <time>2019-12-05T18:44:16Z</time>
      </trkpt>
      <trkpt lat="43.5756" lon="2.19661">
        <ele>241.221</ele>
        <time>2019-12-05T18:44:36Z</time>
      </trkpt>
      <trkpt lat="43.5749" lon="2.19603">
        <ele>249.782</ele>
        <time>2019-12-05T18:44:56Z</time>
      </trkpt>
      <trkpt lat="43.57457" lon="2.19503">
        <ele>259.081</ele>
        <time>2019-12-05T18:45:16Z</time>
      </trkpt>
      <trkpt lat="43.57355" lon="2.1947">
        <ele>257.172</ele>
        <time>2019-12-05T18:45:36Z</time>
      </trkpt>
      <trkpt lat="43.57285" lon="2.19461">
        <ele>248.694</ele>
        <time>2019-12-05T18:45:56Z</time>
      </trkpt>
      <trkpt lat="43.57115" lon="2.19363">
        <ele>228.057</ele>
        <time>2021-04-17T09:48:50Z</time>
      </trkpt>
      <trkpt lat="43.56938" lon="2.19249">
        <ele>239.322</ele>
        <time>2019-12-05T18:46:16Z</time>
      </trkpt>
      <trkpt lat="43.56854" lon="2.19346">
        <ele>245.608</ele>
        <time>2019-12-05T18:46:36Z</time>
      </trkpt>
      <trkpt lat="43.56765" lon="2.19404">
        <ele>250.086</ele>
        <time>2019-12-05T18:46:56Z</time>
      </trkpt>
      <trkpt lat="43.56671" lon="2.19442">
        <ele>248.329</ele>
        <time>2019-12-05T18:47:16Z</time>
      </trkpt>
      <trkpt lat="43.56496" lon="2.19628">
        <ele>253.715</ele>
        <time>2019-12-05T18:47:36Z</time>
      </trkpt>
      <trkpt lat="43.56495" lon="2.19211">
        <ele>235.364</ele>
        <time>2019-12-05T18:47:56Z</time>
      </trkpt>
      <trkpt lat="43.56451" lon="2.19135">
        <ele>242.471</ele>
        <time>2019-12-05T18:48:16Z</time>
      </trkpt>
      <trkpt lat="43.56442" lon="2.1907">
        <ele>244.312</ele>
        <time>2019-12-05T18:48:36Z</time>
      </trkpt>
      <trkpt lat="43.56415" lon="2.19058">
        <ele>242.831</ele>
        <time>2019-12-05T18:48:56Z</time>
      </trkpt>
      <trkpt lat="43.56388" lon="2.19084">
        <ele>241.942</ele>
        <time>2021-04-17T09:52:10Z</time>
      </trkpt>
      <trkpt lat="43.56369" lon="2.19172">
        <ele>233.524</ele>
        <time>2019-12-05T18:49:36Z</time>
      </trkpt>
      <trkpt lat="43.56342" lon="2.19207">
        <ele>230.504</ele>
        <time>2019-12-05T18:49:56Z</time>
      </trkpt>
      <trkpt lat="43.56265" lon="2.19248">
        <ele>229.214</ele>
        <time>2019-12-05T18:50:16Z</time>
      </trkpt>
      <trkpt lat="43.56247" lon="2.19246">
        <ele>229.708</ele>
        <time>2019-12-05T18:50:36Z</time>
      </trkpt>
      <trkpt lat="43.56248" lon="2.19321">
        <ele>221.489</ele>
        <time>2019-12-05T18:50:56Z</time>
      </trkpt>
      <trkpt lat="43.56177" lon="2.19345">
        <ele>216.812</ele>
        <time>2019-12-05T18:51:16Z</time>
      </trkpt>
      <trkpt lat="43.56114" lon="2.19355">
        <ele>210.428</ele>
        <time>2019-12-05T18:51:36Z</time>
      </trkpt>
      <trkpt lat="43.56054" lon="2.19243">
        <ele>211.457</ele>
        <time>2019-12-05T18:51:56Z</time>
      </trkpt>
      <trkpt lat="43.56022" lon="2.19213">
        <ele>210.384</ele>
        <time>2019-12-05T18:52:16Z</time>
      </trkpt>
      <trkpt lat="43.55993" lon="2.19147">
        <ele>210.085</ele>
        <time>2019-12-05T18:52:36Z</time>
      </trkpt>
      <trkpt lat="43.55933" lon="2.19091">
        <ele>210.034</ele>
        <time>2019-12-05T18:52:56Z</time>
      </trkpt>
      <trkpt lat="43.55873" lon="2.19061">
        <ele>210.845</ele>
        <time>2019-12-05T18:53:16Z</time>
      </trkpt>
      <trkpt lat="43.55824" lon="2.19069">
        <ele>210.397</ele>
        <time>2019-12-05T18:53:36Z</time>
      </trkpt>
      <trkpt lat="43.55747" lon="2.1906">
        <ele>200.723</ele>
        <time>2019-12-05T18:53:56Z</time>
      </trkpt>
      <trkpt lat="43.55712" lon="2.19046">
        <ele>200.225</ele>
        <time>2019-12-05T18:54:16Z</time>
      </trkpt>
      <trkpt lat="43.55678" lon="2.19049">
        <ele>198.208</ele>
        <time>2019-12-05T18:54:36Z</time>
      </trkpt>
      <trkpt lat="43.55627" lon="2.19017">
        <ele>196.786</ele>
        <time>2019-12-05T18:54:56Z</time>
      </trkpt>
      <trkpt lat="43.55618" lon="2.18933">
        <ele>199.589</ele>
        <time>2019-12-05T18:55:16Z</time>
      </trkpt>
      <trkpt lat="43.55575" lon="2.18873">
        <ele>196.765</ele>
        <time>2019-12-05T18:55:36Z</time>
      </trkpt>
      <trkpt lat="43.55552" lon="2.18727">
        <ele>197.314</ele>
        <time>2019-12-05T18:55:56Z</time>
      </trkpt>
      <trkpt lat="43.55502" lon="2.18643">
        <ele>190.321</ele>
        <time>2019-12-05T18:56:16Z</time>
      </trkpt>
      <trkpt lat="43.55452" lon="2.18632">
        <ele>183.952</ele>
        <time>2019-12-05T18:56:36Z</time>
      </trkpt>
      <trkpt lat="43.55458" lon="2.18582">
        <ele>184.581</ele>
        <time>2019-12-05T18:56:56Z</time>
      </trkpt>
      <trkpt lat="43.55504" lon="2.18334">
        <ele>187.092</ele>
        <time>2019-12-05T18:57:16Z</time>
      </trkpt>
      <trkpt lat="43.55499" lon="2.1825">
        <ele>188.533</ele>
        <time>2019-12-05T18:57:36Z</time>
      </trkpt>
      <trkpt lat="43.55442" lon="2.18098">
        <ele>186.823</ele>
        <time>2019-12-05T18:57:56Z</time>
      </trkpt>
      <trkpt lat="43.55421" lon="2.17981">
        <ele>191.015</ele>
        <time>2019-12-05T18:58:16Z</time>
      </trkpt>
      <trkpt lat="43.55391" lon="2.17864">
        <ele>197.408</ele>
        <time>2021-04-17T10:01:30Z</time>
      </trkpt>
      <trkpt lat="43.55454" lon="2.17947">
        <ele>204.85</ele>
        <time>2021-04-17T10:01:50Z</time>
      </trkpt>
      <trkpt lat="43.55471" lon="2.17938">
        <ele>207.973</ele>
        <time>2021-04-17T10:02:10Z</time>
      </trkpt>
      <trkpt lat="43.55509" lon="2.17837">
        <ele>204.069</ele>
        <time>2021-04-17T10:02:30Z</time>
      </trkpt>
      <trkpt lat="43.55435" lon="2.17767">
        <ele>199.378</ele>
        <time>2021-04-17T10:02:50Z</time>
      </trkpt>
      <trkpt lat="43.554" lon="2.17761">
        <ele>195.015</ele>
        <time>2019-12-05T18:58:56Z</time>
      </trkpt>
      <trkpt lat="43.55392" lon="2.17657">
        <ele>186.586</ele>
        <time>2019-12-05T18:59:16Z</time>
      </trkpt>
      <trkpt lat="43.55383" lon="2.17604">
        <ele>178.895</ele>
        <time>2019-12-05T18:59:36Z</time>
      </trkpt>
      <trkpt lat="43.55405" lon="2.17557">
        <ele>177.676</ele>
        <time>2019-12-05T18:59:56Z</time>
      </trkpt>
      <trkpt lat="43.55351" lon="2.1748">
        <ele>175.387</ele>
        <time>2019-12-05T19:00:16Z</time>
      </trkpt>
      <trkpt lat="43.55314" lon="2.17356">
        <ele>175.042</ele>
        <time>2019-12-05T19:00:36Z</time>
      </trkpt>
      <trkpt lat="43.55283" lon="2.17344">
        <ele>175.026</ele>
        <time>2019-12-05T19:00:56Z</time>
      </trkpt>
      <trkpt lat="43.55216" lon="2.17282">
        <ele>175.008</ele>
        <time>2019-12-05T19:01:16Z</time>
      </trkpt>
      <trkpt lat="43.54878" lon="2.17142">
        <ele>176.085</ele>
        <time>2019-12-05T19:01:36Z</time>
      </trkpt>
      <trkpt lat="43.54762" lon="2.17018">
        <ele>176.848</ele>
        <time>2019-12-05T19:01:56Z</time>
      </trkpt>
      <trkpt lat="43.54715" lon="2.1694">
        <ele>179.464</ele>
        <time>2019-12-05T19:02:16Z</time>
      </trkpt>
      <trkpt lat="43.54694" lon="2.16872">
        <ele>180.623</ele>
        <time>2019-12-05T19:02:36Z</time>
      </trkpt>
      <trkpt lat="43.54448" lon="2.16605">
        <ele>185.29</ele>
        <time>2019-12-05T19:02:56Z</time>
      </trkpt>
      <trkpt lat="43.5432" lon="2.16504">
        <ele>188.081</ele>
        <time>2019-12-05T19:03:16Z</time>
      </trkpt>
      <trkpt lat="43.5421" lon="2.1647">
        <ele>190.01</ele>
        <time>2019-12-05T19:03:36Z</time>
      </trkpt>
      <trkpt lat="43.54" lon="2.16158">
        <ele>199.311</ele>
        <time>2019-12-05T19:03:56Z</time>
      </trkpt>
      <trkpt lat="43.53883" lon="2.16091">
        <ele>205.921</ele>
        <time>2019-12-05T19:04:16Z</time>
      </trkpt>
      <trkpt lat="43.53832" lon="2.16031">
        <ele>210.041</ele>
        <time>2019-12-05T19:04:36Z</time>
      </trkpt>
      <trkpt lat="43.53802" lon="2.15947">
        <ele>211.105</ele>
        <time>2019-12-05T19:04:56Z</time>
      </trkpt>
      <trkpt lat="43.53778" lon="2.15869">
        <ele>213.008</ele>
        <time>2019-12-05T19:05:16Z</time>
      </trkpt>
      <trkpt lat="43.53713" lon="2.158">
        <ele>218.929</ele>
        <time>2019-12-05T19:05:36Z</time>
      </trkpt>
      <trkpt lat="43.53486" lon="2.15683">
        <ele>225.882</ele>
        <time>2019-12-05T19:05:56Z</time>
      </trkpt>
      <trkpt lat="43.53379" lon="2.15638">
        <ele>224.038</ele>
        <time>2019-12-05T19:06:16Z</time>
      </trkpt>
      <trkpt lat="43.53315" lon="2.15561">
        <ele>223.017</ele>
        <time>2019-12-05T19:06:36Z</time>
      </trkpt>
      <trkpt lat="43.53309" lon="2.15505">
        <ele>223.584</ele>
        <time>2019-12-05T19:06:56Z</time>
      </trkpt>
      <trkpt lat="43.5334" lon="2.15415">
        <ele>219.255</ele>
        <time>2019-12-05T19:07:16Z</time>
      </trkpt>
      <trkpt lat="43.53334" lon="2.15385">
        <ele>218.724</ele>
        <time>2019-12-05T19:07:36Z</time>
      </trkpt>
      <trkpt lat="43.53303" lon="2.15342">
        <ele>214.455</ele>
        <time>2019-12-05T19:07:56Z</time>
      </trkpt>
      <trkpt lat="43.53223" lon="2.15333">
        <ele>208.088</ele>
        <time>2019-12-05T19:08:16Z</time>
      </trkpt>
      <trkpt lat="43.53124" lon="2.15169">
        <ele>203.624</ele>
        <time>2019-12-05T19:08:36Z</time>
      </trkpt>
      <trkpt lat="43.53107" lon="2.15089">
        <ele>203.026</ele>
        <time>2019-12-05T19:08:56Z</time>
      </trkpt>
      <trkpt lat="43.52975" lon="2.15212">
        <ele>205.008</ele>
        <time>2019-12-05T19:09:16Z</time>
      </trkpt>
      <trkpt lat="43.52977" lon="2.15256">
        <ele>205.955</ele>
        <time>2019-12-05T19:09:36Z</time>
      </trkpt>
      <trkpt lat="43.5292" lon="2.15315">
        <ele>207.078</ele>
        <time>2019-12-05T19:09:56Z</time>
      </trkpt>
      <trkpt lat="43.52933" lon="2.15334">
        <ele>207.084</ele>
        <time>2019-12-05T19:10:16Z</time>
      </trkpt>
      <trkpt lat="43.52902" lon="2.15389">
        <ele>208.093</ele>
        <time>2019-12-05T19:10:36Z</time>
      </trkpt>
      <trkpt lat="43.52766" lon="2.15554">
        <ele>209.01</ele>
        <time>2019-12-05T19:10:56Z</time>
      </trkpt>
      <trkpt lat="43.52659" lon="2.15543">
        <ele>209.061</ele>
        <time>2019-12-05T19:11:16Z</time>
      </trkpt>
      <trkpt lat="43.52483" lon="2.15621">
        <ele>213.38</ele>
        <time>2019-12-05T19:11:36Z</time>
      </trkpt>
      <trkpt lat="43.52404" lon="2.15611">
        <ele>214.091</ele>
        <time>2019-12-05T19:11:56Z</time>
      </trkpt>
      <trkpt lat="43.52351" lon="2.15622">
        <ele>214.062</ele>
        <time>2019-12-05T19:12:16Z</time>
      </trkpt>
      <trkpt lat="43.52329" lon="2.15624">
        <ele>214.083</ele>
        <time>2019-12-05T19:12:36Z</time>
      </trkpt>
      <trkpt lat="43.52074" lon="2.15711">
        <ele>218.911</ele>
        <time>2019-12-05T19:12:56Z</time>
      </trkpt>
      <trkpt lat="43.51986" lon="2.15536">
        <ele>218.008</ele>
        <time>2019-12-05T19:13:16Z</time>
      </trkpt>
      <trkpt lat="43.51959" lon="2.15329">
        <ele>218.593</ele>
        <time>2019-12-05T19:13:36Z</time>
      </trkpt>
      <trkpt lat="43.51908" lon="2.15221">
        <ele>219.056</ele>
        <time>2019-12-05T19:13:56Z</time>
      </trkpt>
      <trkpt lat="43.5178" lon="2.15337">
        <ele>221.922</ele>
        <time>2019-12-05T19:14:16Z</time>
      </trkpt>
      <trkpt lat="43.51766" lon="2.15298">
        <ele>222.411</ele>
        <time>2019-12-05T19:14:36Z</time>
      </trkpt>
      <trkpt lat="43.51764" lon="2.1527">
        <ele>222.518</ele>
        <time>2019-12-05T19:14:56Z</time>
      </trkpt>
      <trkpt lat="43.51621" lon="2.151">
        <ele>229.639</ele>
        <time>2019-12-05T19:15:16Z</time>
      </trkpt>
      <trkpt lat="43.5156" lon="2.15315">
        <ele>228.478</ele>
        <time>2019-12-05T19:15:36Z</time>
      </trkpt>
      <trkpt lat="43.51197" lon="2.1536">
        <ele>237.089</ele>
        <time>2019-12-05T19:15:56Z</time>
      </trkpt>
      <trkpt lat="43.51168" lon="2.15304">
        <ele>238.033</ele>
        <time>2019-12-05T19:16:16Z</time>
      </trkpt>
      <trkpt lat="43.51087" lon="2.15269">
        <ele>239.623</ele>
        <time>2019-12-05T19:16:36Z</time>
      </trkpt>
      <trkpt lat="43.50839" lon="2.15403">
        <ele>243.815</ele>
        <time>2019-12-05T19:16:56Z</time>
      </trkpt>
      <trkpt lat="43.5071" lon="2.15188">
        <ele>245.508</ele>
        <time>2019-12-05T19:17:16Z</time>
      </trkpt>
      <trkpt lat="43.50666" lon="2.15052">
        <ele>247.05</ele>
        <time>2019-12-05T19:17:36Z</time>
      </trkpt>
      <trkpt lat="43.50468" lon="2.14796">
        <ele>251.013</ele>
        <time>2019-12-05T19:17:56Z</time>
      </trkpt>
      <trkpt lat="43.5061" lon="2.14664">
        <ele>250.039</ele>
        <time>2019-12-05T19:18:16Z</time>
      </trkpt>
      <trkpt lat="43.50525" lon="2.14504">
        <ele>235.188</ele>
        <time>2019-12-05T19:18:36Z</time>
      </trkpt>
      <trkpt lat="43.50522" lon="2.14469">
        <ele>233.365</ele>
        <time>2019-12-05T19:18:56Z</time>
      </trkpt>
      <trkpt lat="43.50416" lon="2.14415">
        <ele>221.926</ele>
        <time>2019-12-05T19:19:16Z</time>
      </trkpt>
      <trkpt lat="43.504" lon="2.14384">
        <ele>219.015</ele>
        <time>2019-12-05T19:19:36Z</time>
      </trkpt>
      <trkpt lat="43.50379" lon="2.14372">
        <ele>217.426</ele>
        <time>2019-12-05T19:19:56Z</time>
      </trkpt>
      <trkpt lat="43.50271" lon="2.141">
        <ele>209.045</ele>
        <time>2019-12-05T19:20:16Z</time>
      </trkpt>
      <trkpt lat="43.5027" lon="2.1401">
        <ele>210.047</ele>
        <time>2019-12-05T19:20:36Z</time>
      </trkpt>
      <trkpt lat="43.50187" lon="2.13873">
        <ele>212.011</ele>
        <time>2019-12-05T19:20:56Z</time>
      </trkpt>
      <trkpt lat="43.50089" lon="2.13898">
        <ele>214.608</ele>
        <time>2019-12-05T19:21:16Z</time>
      </trkpt>
      <trkpt lat="43.49935" lon="2.13994">
        <ele>216.021</ele>
        <time>2019-12-05T19:21:36Z</time>
      </trkpt>
      <trkpt lat="43.49755" lon="2.1407">
        <ele>219.944</ele>
        <time>2019-12-05T19:21:56Z</time>
      </trkpt>
      <trkpt lat="43.49621" lon="2.14141">
        <ele>222.64</ele>
        <time>2019-12-05T19:22:16Z</time>
      </trkpt>
      <trkpt lat="43.49537" lon="2.14168">
        <ele>223.789</ele>
        <time>2019-12-05T19:22:36Z</time>
      </trkpt>
      <trkpt lat="43.49453" lon="2.14171">
        <ele>225.736</ele>
        <time>2019-12-05T19:22:56Z</time>
      </trkpt>
      <trkpt lat="43.49392" lon="2.14186">
        <ele>226.917</ele>
        <time>2019-12-05T19:23:16Z</time>
      </trkpt>
      <trkpt lat="43.49311" lon="2.14196">
        <ele>229.846</ele>
        <time>2019-12-05T19:23:36Z</time>
      </trkpt>
      <trkpt lat="43.49147" lon="2.14166">
        <ele>233.797</ele>
        <time>2019-12-05T19:23:56Z</time>
      </trkpt>
      <trkpt lat="43.48987" lon="2.14175">
        <ele>237.516</ele>
        <time>2019-12-05T19:24:16Z</time>
      </trkpt>
      <trkpt lat="43.48752" lon="2.14173">
        <ele>245.076</ele>
        <time>2019-12-05T19:24:36Z</time>
      </trkpt>
      <trkpt lat="43.48697" lon="2.14199">
        <ele>246.913</ele>
        <time>2019-12-05T19:24:56Z</time>
      </trkpt>
      <trkpt lat="43.48634" lon="2.14074">
        <ele>246.708</ele>
        <time>2019-12-05T19:25:16Z</time>
      </trkpt>
      <trkpt lat="43.48569" lon="2.13983">
        <ele>248.648</ele>
        <time>2019-12-05T19:25:36Z</time>
      </trkpt>
      <trkpt lat="43.48571" lon="2.13946">
        <ele>257.061</ele>
        <time>2021-04-17T10:30:10Z</time>
      </trkpt>
      <trkpt lat="43.48507" lon="2.13964">
        <ele>263.597</ele>
        <time>2021-04-17T10:30:30Z</time>
      </trkpt>
      <trkpt lat="43.48475" lon="2.13911">
        <ele>270.246</ele>
        <time>2021-04-17T10:30:50Z</time>
      </trkpt>
      <trkpt lat="43.48561" lon="2.13787">
        <ele>259.723</ele>
        <time>2016-12-30T08:26:22Z</time>
      </trkpt>
      <trkpt lat="43.48463" lon="2.13435">
        <ele>258.433</ele>
        <time>2016-12-30T08:26:42Z</time>
      </trkpt>
      <trkpt lat="43.48618" lon="2.13152">
        <ele>251.554</ele>
        <time>2016-12-30T08:27:02Z</time>
      </trkpt>
      <trkpt lat="43.48535" lon="2.12966">
        <ele>245.829</ele>
        <time>2016-12-30T08:27:22Z</time>
      </trkpt>
      <trkpt lat="43.4855" lon="2.12937">
        <ele>244.3</ele>
        <time>2016-12-30T08:27:42Z</time>
      </trkpt>
      <trkpt lat="43.48551" lon="2.12885">
        <ele>241.02</ele>
        <time>2016-12-30T08:28:02Z</time>
      </trkpt>
      <trkpt lat="43.486" lon="2.12833">
        <ele>239.008</ele>
        <time>2016-12-30T08:28:22Z</time>
      </trkpt>
      <trkpt lat="43.48691" lon="2.12756">
        <ele>238.219</ele>
        <time>2016-12-30T08:28:42Z</time>
      </trkpt>
      <trkpt lat="43.48738" lon="2.12708">
        <ele>236.242</ele>
        <time>2016-12-30T08:29:02Z</time>
      </trkpt>
      <trkpt lat="43.4879" lon="2.12626">
        <ele>234.818</ele>
        <time>2016-12-30T08:29:22Z</time>
      </trkpt>
      <trkpt lat="43.4864" lon="2.12223">
        <ele>235.057</ele>
        <time>2016-12-30T08:29:42Z</time>
      </trkpt>
      <trkpt lat="43.48488" lon="2.12072">
        <ele>236.874</ele>
        <time>2016-12-30T08:30:02Z</time>
      </trkpt>
      <trkpt lat="43.48381" lon="2.11988">
        <ele>238.255</ele>
        <time>2016-12-30T08:30:22Z</time>
      </trkpt>
      <trkpt lat="43.48282" lon="2.11716">
        <ele>239.024</ele>
        <time>2016-12-30T08:30:42Z</time>
      </trkpt>
      <trkpt lat="43.48227" lon="2.1165">
        <ele>246.195</ele>
        <time>2016-12-30T08:31:02Z</time>
      </trkpt>
      <trkpt lat="43.48217" lon="2.11618">
        <ele>248.495</ele>
        <time>2016-12-30T08:31:22Z</time>
      </trkpt>
      <trkpt lat="43.48188" lon="2.11615">
        <ele>251.749</ele>
        <time>2016-12-30T08:31:42Z</time>
      </trkpt>
      <trkpt lat="43.48159" lon="2.11588">
        <ele>256.923</ele>
        <time>2016-12-30T08:32:02Z</time>
      </trkpt>
      <trkpt lat="43.4813" lon="2.11337">
        <ele>248.908</ele>
        <time>2016-12-30T08:32:22Z</time>
      </trkpt>
      <trkpt lat="43.48135" lon="2.11323">
        <ele>246.976</ele>
        <time>2016-12-30T08:32:42Z</time>
      </trkpt>
      <trkpt lat="43.47958" lon="2.10998">
        <ele>242.049</ele>
        <time>2016-12-30T08:33:02Z</time>
      </trkpt>
      <trkpt lat="43.47865" lon="2.10912">
        <ele>240.855</ele>
        <time>2016-12-30T08:33:22Z</time>
      </trkpt>
      <trkpt lat="43.47627" lon="2.10891">
        <ele>235.154</ele>
        <time>2016-12-30T08:33:42Z</time>
      </trkpt>
      <trkpt lat="43.47587" lon="2.10869">
        <ele>235.051</ele>
        <time>2016-12-30T08:34:02Z</time>
      </trkpt>
      <trkpt lat="43.47516" lon="2.10766">
        <ele>240.622</ele>
        <time>2016-12-30T08:34:22Z</time>
      </trkpt>
      <trkpt lat="43.47441" lon="2.1054">
        <ele>244.921</ele>
        <time>2016-12-30T08:34:42Z</time>
      </trkpt>
      <trkpt lat="43.47371" lon="2.1036">
        <ele>253.922</ele>
        <time>2016-12-30T08:35:02Z</time>
      </trkpt>
      <trkpt lat="43.47288" lon="2.10258">
        <ele>253.968</ele>
        <time>2016-12-30T08:35:22Z</time>
      </trkpt>
      <trkpt lat="43.47125" lon="2.10094">
        <ele>256.942</ele>
        <time>2016-12-30T08:35:42Z</time>
      </trkpt>
      <trkpt lat="43.47454" lon="2.09841">
        <ele>244.726</ele>
        <time>2016-12-30T08:36:02Z</time>
      </trkpt>
      <trkpt lat="43.47528" lon="2.09796">
        <ele>241.008</ele>
        <time>2016-12-30T08:36:22Z</time>
      </trkpt>
      <trkpt lat="43.47669" lon="2.09678">
        <ele>236.353</ele>
        <time>2016-12-30T08:36:42Z</time>
      </trkpt>
      <trkpt lat="43.47756" lon="2.09621">
        <ele>233.626</ele>
        <time>2016-12-30T08:37:02Z</time>
      </trkpt>
      <trkpt lat="43.47813" lon="2.09564">
        <ele>229.052</ele>
        <time>2016-12-30T08:37:22Z</time>
      </trkpt>
      <trkpt lat="43.47761" lon="2.09518">
        <ele>226.331</ele>
        <time>2016-12-30T08:37:42Z</time>
      </trkpt>
      <trkpt lat="43.47743" lon="2.09473">
        <ele>224.078</ele>
        <time>2016-12-30T08:38:02Z</time>
      </trkpt>
      <trkpt lat="43.47744" lon="2.09374">
        <ele>231.299</ele>
        <time>2016-12-30T08:38:22Z</time>
      </trkpt>
      <trkpt lat="43.47724" lon="2.09214">
        <ele>241.238</ele>
        <time>2021-04-17T10:43:50Z</time>
      </trkpt>
      <trkpt lat="43.47688" lon="2.09019">
        <ele>240.259</ele>
        <time>2016-12-30T08:39:02Z</time>
      </trkpt>
      <trkpt lat="43.47746" lon="2.08764">
        <ele>236.556</ele>
        <time>2016-12-30T08:39:22Z</time>
      </trkpt>
      <trkpt lat="43.47595" lon="2.08527">
        <ele>237.959</ele>
        <time>2016-12-30T08:39:42Z</time>
      </trkpt>
      <trkpt lat="43.47284" lon="2.08461">
        <ele>239.714</ele>
        <time>2016-12-30T08:40:02Z</time>
      </trkpt>
      <trkpt lat="43.47244" lon="2.08496">
        <ele>239.608</ele>
        <time>2016-12-30T08:40:22Z</time>
      </trkpt>
      <trkpt lat="43.47189" lon="2.08472">
        <ele>236.032</ele>
        <time>2016-12-30T08:40:42Z</time>
      </trkpt>
      <trkpt lat="43.47138" lon="2.08388">
        <ele>235.165</ele>
        <time>2016-12-30T08:41:02Z</time>
      </trkpt>
      <trkpt lat="43.47064" lon="2.08373">
        <ele>239.151</ele>
        <time>2016-12-30T08:41:22Z</time>
      </trkpt>
      <trkpt lat="43.4699" lon="2.08257">
        <ele>245.05</ele>
        <time>2016-12-30T08:41:42Z</time>
      </trkpt>
      <trkpt lat="43.46945" lon="2.08135">
        <ele>260.287</ele>
        <time>2021-04-17T10:47:10Z</time>
      </trkpt>
      <trkpt lat="43.46993" lon="2.08001">
        <ele>262.638</ele>
        <time>2016-12-30T08:42:22Z</time>
      </trkpt>
      <trkpt lat="43.47075" lon="2.07876">
        <ele>263.637</ele>
        <time>2016-12-30T08:42:42Z</time>
      </trkpt>
      <trkpt lat="43.47144" lon="2.07791">
        <ele>260.678</ele>
        <time>2016-12-30T08:43:02Z</time>
      </trkpt>
      <trkpt lat="43.471" lon="2.07779">
        <ele>264.474</ele>
        <time>2016-12-30T08:43:22Z</time>
      </trkpt>
      <trkpt lat="43.4706" lon="2.07724">
        <ele>257.856</ele>
        <time>2016-12-30T08:43:42Z</time>
      </trkpt>
      <trkpt lat="43.46996" lon="2.07721">
        <ele>250.221</ele>
        <time>2016-12-30T08:44:02Z</time>
      </trkpt>
      <trkpt lat="43.46958" lon="2.07692">
        <ele>253.708</ele>
        <time>2016-12-30T08:44:22Z</time>
      </trkpt>
      <trkpt lat="43.4699" lon="2.07573">
        <ele>255.474</ele>
        <time>2016-12-30T08:44:42Z</time>
      </trkpt>
      <trkpt lat="43.46998" lon="2.07486">
        <ele>256.877</ele>
        <time>2016-12-30T08:45:02Z</time>
      </trkpt>
      <trkpt lat="43.46988" lon="2.07358">
        <ele>258.913</ele>
        <time>2016-12-30T08:45:22Z</time>
      </trkpt>
      <trkpt lat="43.46698" lon="2.06843">
        <ele>256.522</ele>
        <time>2016-12-30T08:45:42Z</time>
      </trkpt>
      <trkpt lat="43.46652" lon="2.06784">
        <ele>252.669</ele>
        <time>2016-12-30T08:46:02Z</time>
      </trkpt>
      <trkpt lat="43.46626" lon="2.06776">
        <ele>251.97</ele>
        <time>2016-12-30T08:46:22Z</time>
      </trkpt>
      <trkpt lat="43.46504" lon="2.06648">
        <ele>251.559</ele>
        <time>2016-12-30T08:46:42Z</time>
      </trkpt>
      <trkpt lat="43.46277" lon="2.06393">
        <ele>260.06</ele>
        <time>2016-12-30T08:47:02Z</time>
      </trkpt>
      <trkpt lat="43.46167" lon="2.06541">
        <ele>260.459</ele>
        <time>2016-12-30T08:47:22Z</time>
      </trkpt>
      <trkpt lat="43.46126" lon="2.06622">
        <ele>264.203</ele>
        <time>2016-12-30T08:47:42Z</time>
      </trkpt>
      <trkpt lat="43.46117" lon="2.06659">
        <ele>265.023</ele>
        <time>2016-12-30T08:48:02Z</time>
      </trkpt>
      <trkpt lat="43.46023" lon="2.06789">
        <ele>265.008</ele>
        <time>2016-12-30T08:48:22Z</time>
      </trkpt>
      <trkpt lat="43.45847" lon="2.06985">
        <ele>273.462</ele>
        <time>2016-12-30T08:48:42Z</time>
      </trkpt>
      <trkpt lat="43.45692" lon="2.07151">
        <ele>281.475</ele>
        <time>2016-12-30T08:49:02Z</time>
      </trkpt>
      <trkpt lat="43.45631" lon="2.07078">
        <ele>276.661</ele>
        <time>2016-12-30T08:49:22Z</time>
      </trkpt>
      <trkpt lat="43.45599" lon="2.07074">
        <ele>276.27</ele>
        <time>2016-12-30T08:49:42Z</time>
      </trkpt>
      <trkpt lat="43.45566" lon="2.07027">
        <ele>274.037</ele>
        <time>2016-12-30T08:50:02Z</time>
      </trkpt>
      <trkpt lat="43.45517" lon="2.06998">
        <ele>275.728</ele>
        <time>2016-12-30T08:50:22Z</time>
      </trkpt>
      <trkpt lat="43.45491" lon="2.06951">
        <ele>275.617</ele>
        <time>2016-12-30T08:50:42Z</time>
      </trkpt>
      <trkpt lat="43.45482" lon="2.06898">
        <ele>274.748</ele>
        <time>2016-12-30T08:51:02Z</time>
      </trkpt>
      <trkpt lat="43.45444" lon="2.06839">
        <ele>274.289</ele>
        <time>2016-12-30T08:51:22Z</time>
      </trkpt>
      <trkpt lat="43.45388" lon="2.06801">
        <ele>275.906</ele>
        <time>2016-12-30T08:51:42Z</time>
      </trkpt>
      <trkpt lat="43.4537" lon="2.06773">
        <ele>278.026</ele>
        <time>2021-04-17T10:57:10Z</time>
      </trkpt>
      <trkpt lat="43.4532" lon="2.06861">
        <ele>281.408</ele>
        <time>2021-04-17T10:57:30Z</time>
      </trkpt>
      <trkpt lat="43.4525" lon="2.06777">
        <ele>283.625</ele>
        <time>2021-04-17T10:57:50Z</time>
      </trkpt>
      <trkpt lat="43.45252" lon="2.06738">
        <ele>282.568</ele>
        <time>2021-04-17T10:58:10Z</time>
      </trkpt>
      <trkpt lat="43.45086" lon="2.06646">
        <ele>271.694</ele>
        <time>2016-12-30T08:53:02Z</time>
      </trkpt>
      <trkpt lat="43.45139" lon="2.06504">
        <ele>269.053</ele>
        <time>2016-12-30T08:53:22Z</time>
      </trkpt>
      <trkpt lat="43.45106" lon="2.06457">
        <ele>267.88</ele>
        <time>2016-12-30T08:53:42Z</time>
      </trkpt>
      <trkpt lat="43.45056" lon="2.06338">
        <ele>266.221</ele>
        <time>2016-12-30T08:54:02Z</time>
      </trkpt>
      <trkpt lat="43.44999" lon="2.06143">
        <ele>261.24</ele>
        <time>2016-12-30T08:54:22Z</time>
      </trkpt>
      <trkpt lat="43.45006" lon="2.06">
        <ele>258.861</ele>
        <time>2016-12-30T08:54:42Z</time>
      </trkpt>
      <trkpt lat="43.44822" lon="2.05802">
        <ele>258.348</ele>
        <time>2016-12-30T08:55:02Z</time>
      </trkpt>
      <trkpt lat="43.44804" lon="2.05669">
        <ele>257.061</ele>
        <time>2016-12-30T08:55:22Z</time>
      </trkpt>
      <trkpt lat="43.4473" lon="2.05525">
        <ele>256.017</ele>
        <time>2016-12-30T08:55:42Z</time>
      </trkpt>
      <trkpt lat="43.44685" lon="2.05414">
        <ele>255.008</ele>
        <time>2016-12-30T08:56:02Z</time>
      </trkpt>
      <trkpt lat="43.44651" lon="2.05297">
        <ele>254.051</ele>
        <time>2016-12-30T08:56:22Z</time>
      </trkpt>
      <trkpt lat="43.44596" lon="2.05212">
        <ele>262.994</ele>
        <time>2021-04-17T11:02:10Z</time>
      </trkpt>
      <trkpt lat="43.44641" lon="2.05094">
        <ele>260.43</ele>
        <time>2016-12-30T08:57:02Z</time>
      </trkpt>
      <trkpt lat="43.4466" lon="2.05009">
        <ele>260.929</ele>
        <time>2016-12-30T08:57:22Z</time>
      </trkpt>
      <trkpt lat="43.4468" lon="2.04884">
        <ele>262.596</ele>
        <time>2016-12-30T08:57:42Z</time>
      </trkpt>
      <trkpt lat="43.44725" lon="2.04744">
        <ele>257.967</ele>
        <time>2016-12-30T08:58:02Z</time>
      </trkpt>
      <trkpt lat="43.44778" lon="2.04518">
        <ele>257.636</ele>
        <time>2016-12-30T08:58:22Z</time>
      </trkpt>
      <trkpt lat="43.45083" lon="2.0463">
        <ele>244.447</ele>
        <time>2016-12-30T08:58:42Z</time>
      </trkpt>
      <trkpt lat="43.44962" lon="2.03544">
        <ele>243.413</ele>
        <time>2016-12-30T08:59:02Z</time>
      </trkpt>
      <trkpt lat="43.44943" lon="2.03461">
        <ele>244.643</ele>
        <time>2016-12-30T08:59:22Z</time>
      </trkpt>
      <trkpt lat="43.4505" lon="2.0307">
        <ele>240.207</ele>
        <time>2016-12-30T08:59:42Z</time>
      </trkpt>
      <trkpt lat="43.45068" lon="2.0293">
        <ele>239.508</ele>
        <time>2016-12-30T09:00:02Z</time>
      </trkpt>
      <trkpt lat="43.45132" lon="2.02691">
        <ele>237.238</ele>
        <time>2016-12-30T09:00:22Z</time>
      </trkpt>
      <trkpt lat="43.45097" lon="2.02657">
        <ele>238.131</ele>
        <time>2016-12-30T09:00:42Z</time>
      </trkpt>
      <trkpt lat="43.44799" lon="2.02194">
        <ele>253.227</ele>
        <time>2016-12-30T09:01:02Z</time>
      </trkpt>
      <trkpt lat="43.44786" lon="2.02124">
        <ele>252.916</ele>
        <time>2016-12-30T09:01:22Z</time>
      </trkpt>
      <trkpt lat="43.44915" lon="2.02011">
        <ele>244.133</ele>
        <time>2016-12-30T09:01:42Z</time>
      </trkpt>
      <trkpt lat="43.45016" lon="2.01902">
        <ele>239.494</ele>
        <time>2016-12-30T09:02:02Z</time>
      </trkpt>
      <trkpt lat="43.45283" lon="2.01798">
        <ele>230.843</ele>
        <time>2016-12-30T09:02:22Z</time>
      </trkpt>
      <trkpt lat="43.45346" lon="2.01753">
        <ele>228.644</ele>
        <time>2016-12-30T09:02:42Z</time>
      </trkpt>
      <trkpt lat="43.45406" lon="2.01596">
        <ele>226.416</ele>
        <time>2016-12-30T09:03:02Z</time>
      </trkpt>
      <trkpt lat="43.45496" lon="2.01452">
        <ele>223.176</ele>
        <time>2016-12-30T09:03:22Z</time>
      </trkpt>
      <trkpt lat="43.45473" lon="2.0142">
        <ele>223.113</ele>
        <time>2016-12-30T09:03:42Z</time>
      </trkpt>
      <trkpt lat="43.45842" lon="2.00383">
        <ele>211.008</ele>
        <time>2016-12-30T09:04:02Z</time>
      </trkpt>
      <trkpt lat="43.45458" lon="2.00118">
        <ele>212.478</ele>
        <time>2016-12-30T09:04:22Z</time>
      </trkpt>
      <trkpt lat="43.45359" lon="2.00102">
        <ele>217.181</ele>
        <time>2016-12-30T09:04:42Z</time>
      </trkpt>
      <trkpt lat="43.45132" lon="1.99948">
        <ele>223.387</ele>
        <time>2016-12-30T09:05:02Z</time>
      </trkpt>
      <trkpt lat="43.45142" lon="1.99902">
        <ele>222.976</ele>
        <time>2016-12-30T09:05:22Z</time>
      </trkpt>
      <trkpt lat="43.45139" lon="1.99833">
        <ele>224.043</ele>
        <time>2016-12-30T09:05:42Z</time>
      </trkpt>
      <trkpt lat="43.4517" lon="1.99716">
        <ele>222.914</ele>
        <time>2016-12-30T09:06:02Z</time>
      </trkpt>
      <trkpt lat="43.45169" lon="1.99669">
        <ele>222.913</ele>
        <time>2016-12-30T09:06:22Z</time>
      </trkpt>
      <trkpt lat="43.45157" lon="1.996">
        <ele>223.074</ele>
        <time>2016-12-30T09:06:42Z</time>
      </trkpt>
      <trkpt lat="43.45111" lon="1.99549">
        <ele>224.039</ele>
        <time>2016-12-30T09:07:02Z</time>
      </trkpt>
      <trkpt lat="43.451" lon="1.99481">
        <ele>223.601</ele>
        <time>2016-12-30T09:07:22Z</time>
      </trkpt>
      <trkpt lat="43.45029" lon="1.99239">
        <ele>223.521</ele>
        <time>2016-12-30T09:07:42Z</time>
      </trkpt>
      <trkpt lat="43.45035" lon="1.9901">
        <ele>223.208</ele>
        <time>2016-12-30T09:08:02Z</time>
      </trkpt>
      <trkpt lat="43.45021" lon="1.98888">
        <ele>222.26</ele>
        <time>2016-12-30T09:08:22Z</time>
      </trkpt>
      <trkpt lat="43.45011" lon="1.98856">
        <ele>221.533</ele>
        <time>2016-12-30T09:08:42Z</time>
      </trkpt>
      <trkpt lat="43.44943" lon="1.98727">
        <ele>224.179</ele>
        <time>2016-12-30T09:09:02Z</time>
      </trkpt>
      <trkpt lat="43.4494" lon="1.98662">
        <ele>224.038</ele>
        <time>2016-12-30T09:09:22Z</time>
      </trkpt>
      <trkpt lat="43.44902" lon="1.98394">
        <ele>221.665</ele>
        <time>2016-12-30T09:09:42Z</time>
      </trkpt>
      <trkpt lat="43.44873" lon="1.98373">
        <ele>222.626</ele>
        <time>2016-12-30T09:10:02Z</time>
      </trkpt>
      <trkpt lat="43.44831" lon="1.98397">
        <ele>224.015</ele>
        <time>2016-12-30T09:10:22Z</time>
      </trkpt>
      <trkpt lat="43.44822" lon="1.98334">
        <ele>223.476</ele>
        <time>2016-12-30T09:10:42Z</time>
      </trkpt>
      <trkpt lat="43.44833" lon="1.98259">
        <ele>222.453</ele>
        <time>2016-12-30T09:11:02Z</time>
      </trkpt>
      <trkpt lat="43.44818" lon="1.98198">
        <ele>223.504</ele>
        <time>2016-12-30T09:11:22Z</time>
      </trkpt>
      <trkpt lat="43.44864" lon="1.98131">
        <ele>221.914</ele>
        <time>2016-12-30T09:11:42Z</time>
      </trkpt>
      <trkpt lat="43.4487" lon="1.98084">
        <ele>221.708</ele>
        <time>2016-12-30T09:12:02Z</time>
      </trkpt>
      <trkpt lat="43.4485" lon="1.98034">
        <ele>221.182</ele>
        <time>2016-12-30T09:12:22Z</time>
      </trkpt>
      <trkpt lat="43.44817" lon="1.98026">
        <ele>221.635</ele>
        <time>2016-12-30T09:12:42Z</time>
      </trkpt>
      <trkpt lat="43.44763" lon="1.97976">
        <ele>223.131</ele>
        <time>2016-12-30T09:13:02Z</time>
      </trkpt>
      <trkpt lat="43.44703" lon="1.97907">
        <ele>223.09</ele>
        <time>2016-12-30T09:13:22Z</time>
      </trkpt>
      <trkpt lat="43.44692" lon="1.97845">
        <ele>223.027</ele>
        <time>2016-12-30T09:13:42Z</time>
      </trkpt>
      <trkpt lat="43.44659" lon="1.97745">
        <ele>222.948</ele>
        <time>2016-12-30T09:14:02Z</time>
      </trkpt>
      <trkpt lat="43.44635" lon="1.97705">
        <ele>223.077</ele>
        <time>2016-12-30T09:14:22Z</time>
      </trkpt>
      <trkpt lat="43.44615" lon="1.97618">
        <ele>222.958</ele>
        <time>2016-12-30T09:14:42Z</time>
      </trkpt>
      <trkpt lat="43.44572" lon="1.97579">
        <ele>223.476</ele>
        <time>2016-12-30T09:15:02Z</time>
      </trkpt>
      <trkpt lat="43.44543" lon="1.97506">
        <ele>223.69</ele>
        <time>2016-12-30T09:15:22Z</time>
      </trkpt>
      <trkpt lat="43.44559" lon="1.97463">
        <ele>223.919</ele>
        <time>2016-12-30T09:15:42Z</time>
      </trkpt>
      <trkpt lat="43.44586" lon="1.97377">
        <ele>223.908</ele>
        <time>2016-12-30T09:16:02Z</time>
      </trkpt>
      <trkpt lat="43.44624" lon="1.97323">
        <ele>223.624</ele>
        <time>2016-12-30T09:16:22Z</time>
      </trkpt>
      <trkpt lat="43.44636" lon="1.97249">
        <ele>223.037</ele>
        <time>2016-12-30T09:16:42Z</time>
      </trkpt>
      <trkpt lat="43.44583" lon="1.97186">
        <ele>223.043</ele>
        <time>2016-12-30T09:17:02Z</time>
      </trkpt>
      <trkpt lat="43.44569" lon="1.97152">
        <ele>223.272</ele>
        <time>2016-12-30T09:17:22Z</time>
      </trkpt>
      <trkpt lat="43.4457" lon="1.97058">
        <ele>222.099</ele>
        <time>2016-12-30T09:17:42Z</time>
      </trkpt>
      <trkpt lat="43.44484" lon="1.96846">
        <ele>224.62</ele>
        <time>2016-12-30T09:18:02Z</time>
      </trkpt>
      <trkpt lat="43.44517" lon="1.96782">
        <ele>222.819</ele>
        <time>2016-12-30T09:18:22Z</time>
      </trkpt>
      <trkpt lat="43.44555" lon="1.96637">
        <ele>222.05</ele>
        <time>2016-12-30T09:18:42Z</time>
      </trkpt>
      <trkpt lat="43.44544" lon="1.96574">
        <ele>223.142</ele>
        <time>2016-12-30T09:19:02Z</time>
      </trkpt>
      <trkpt lat="43.44542" lon="1.96517">
        <ele>222.822</ele>
        <time>2016-12-30T09:19:22Z</time>
      </trkpt>
      <trkpt lat="43.445" lon="1.96435">
        <ele>220.714</ele>
        <time>2016-12-30T09:19:42Z</time>
      </trkpt>
      <trkpt lat="43.44423" lon="1.96446">
        <ele>222.908</ele>
        <time>2016-12-30T09:20:02Z</time>
      </trkpt>
      <trkpt lat="43.44402" lon="1.96426">
        <ele>222.731</ele>
        <time>2016-12-30T09:20:22Z</time>
      </trkpt>
      <trkpt lat="43.44402" lon="1.96326">
        <ele>221.824</ele>
        <time>2016-12-30T09:20:42Z</time>
      </trkpt>
      <trkpt lat="43.44466" lon="1.96229">
        <ele>221.27</ele>
        <time>2016-12-30T09:21:02Z</time>
      </trkpt>
      <trkpt lat="43.44472" lon="1.96174">
        <ele>221.879</ele>
        <time>2016-12-30T09:21:22Z</time>
      </trkpt>
      <trkpt lat="43.4449" lon="1.96101">
        <ele>220.686</ele>
        <time>2016-12-30T09:21:42Z</time>
      </trkpt>
      <trkpt lat="43.44472" lon="1.96027">
        <ele>220.047</ele>
        <time>2016-12-30T09:22:02Z</time>
      </trkpt>
      <trkpt lat="43.44423" lon="1.95985">
        <ele>221.256</ele>
        <time>2016-12-30T09:22:22Z</time>
      </trkpt>
      <trkpt lat="43.44375" lon="1.95886">
        <ele>221.977</ele>
        <time>2016-12-30T09:22:42Z</time>
      </trkpt>
      <trkpt lat="43.4435" lon="1.95645">
        <ele>222.254</ele>
        <time>2016-12-30T09:23:02Z</time>
      </trkpt>
      <trkpt lat="43.44436" lon="1.955">
        <ele>220.256</ele>
        <time>2016-12-30T09:23:22Z</time>
      </trkpt>
      <trkpt lat="43.44488" lon="1.95388">
        <ele>220.211</ele>
        <time>2016-12-30T09:23:42Z</time>
      </trkpt>
      <trkpt lat="43.44497" lon="1.95328">
        <ele>220.308</ele>
        <time>2016-12-30T09:24:02Z</time>
      </trkpt>
      <trkpt lat="43.44475" lon="1.95299">
        <ele>221.642</ele>
        <time>2016-12-30T09:24:22Z</time>
      </trkpt>
      <trkpt lat="43.44444" lon="1.95308">
        <ele>222.285</ele>
        <time>2016-12-30T09:24:42Z</time>
      </trkpt>
      <trkpt lat="43.44415" lon="1.95327">
        <ele>222.391</ele>
        <time>2016-12-30T09:25:02Z</time>
      </trkpt>
      <trkpt lat="43.44377" lon="1.95301">
        <ele>221.09</ele>
        <time>2016-12-30T09:25:22Z</time>
      </trkpt>
      <trkpt lat="43.44282" lon="1.95275">
        <ele>220.927</ele>
        <time>2016-12-30T09:25:42Z</time>
      </trkpt>
      <trkpt lat="43.44256" lon="1.95297">
        <ele>220.368</ele>
        <time>2016-12-30T09:26:02Z</time>
      </trkpt>
      <trkpt lat="43.44253" lon="1.95388">
        <ele>221.427</ele>
        <time>2016-12-30T09:26:22Z</time>
      </trkpt>
      <trkpt lat="43.44222" lon="1.95468">
        <ele>221.888</ele>
        <time>2016-12-30T09:26:42Z</time>
      </trkpt>
      <trkpt lat="43.44117" lon="1.95571">
        <ele>222.032</ele>
        <time>2016-12-30T09:27:02Z</time>
      </trkpt>
      <trkpt lat="43.4401" lon="1.95724">
        <ele>222.492</ele>
        <time>2016-12-30T09:27:22Z</time>
      </trkpt>
      <trkpt lat="43.4394" lon="1.95782">
        <ele>222.311</ele>
        <time>2016-12-30T09:27:42Z</time>
      </trkpt>
      <trkpt lat="43.43922" lon="1.95761">
        <ele>222.708</ele>
        <time>2016-12-30T09:28:02Z</time>
      </trkpt>
      <trkpt lat="43.43934" lon="1.95713">
        <ele>221.19</ele>
        <time>2016-12-30T09:28:22Z</time>
      </trkpt>
      <trkpt lat="43.43972" lon="1.9561">
        <ele>220.073</ele>
        <time>2016-12-30T09:28:42Z</time>
      </trkpt>
      <trkpt lat="43.43969" lon="1.95538">
        <ele>219.789</ele>
        <time>2016-12-30T09:29:02Z</time>
      </trkpt>
      <trkpt lat="43.43919" lon="1.95461">
        <ele>222.278</ele>
        <time>2016-12-30T09:29:22Z</time>
      </trkpt>
      <trkpt lat="43.4392" lon="1.95397">
        <ele>221.035</ele>
        <time>2016-12-30T09:29:42Z</time>
      </trkpt>
      <trkpt lat="43.43926" lon="1.95358">
        <ele>219.986</ele>
        <time>2016-12-30T09:30:02Z</time>
      </trkpt>
      <trkpt lat="43.43906" lon="1.95335">
        <ele>220.495</ele>
        <time>2016-12-30T09:30:22Z</time>
      </trkpt>
      <trkpt lat="43.43873" lon="1.95344">
        <ele>221.276</ele>
        <time>2016-12-30T09:30:42Z</time>
      </trkpt>
      <trkpt lat="43.43697" lon="1.955">
        <ele>222.158</ele>
        <time>2016-12-30T09:31:02Z</time>
      </trkpt>
      <trkpt lat="43.43541" lon="1.95529">
        <ele>220.552</ele>
        <time>2016-12-30T09:31:22Z</time>
      </trkpt>
      <trkpt lat="43.43509" lon="1.9557">
        <ele>220.817</ele>
        <time>2016-12-30T09:31:42Z</time>
      </trkpt>
      <trkpt lat="43.43477" lon="1.95575">
        <ele>220.708</ele>
        <time>2016-12-30T09:32:02Z</time>
      </trkpt>
      <trkpt lat="43.43416" lon="1.95527">
        <ele>219.012</ele>
        <time>2016-12-30T09:32:22Z</time>
      </trkpt>
      <trkpt lat="43.4333" lon="1.95512">
        <ele>219.045</ele>
        <time>2016-12-30T09:32:42Z</time>
      </trkpt>
      <trkpt lat="43.4325" lon="1.9552">
        <ele>219.011</ele>
        <time>2016-12-30T09:33:02Z</time>
      </trkpt>
      <trkpt lat="43.43203" lon="1.95499">
        <ele>218.03</ele>
        <time>2016-12-30T09:33:22Z</time>
      </trkpt>
      <trkpt lat="43.43058" lon="1.95578">
        <ele>219.027</ele>
        <time>2016-12-30T09:33:42Z</time>
      </trkpt>
      <trkpt lat="43.42996" lon="1.95519">
        <ele>218.798</ele>
        <time>2016-12-30T09:34:02Z</time>
      </trkpt>
      <trkpt lat="43.43003" lon="1.95425">
        <ele>217.957</ele>
        <time>2016-12-30T09:34:22Z</time>
      </trkpt>
      <trkpt lat="43.42987" lon="1.95369">
        <ele>217.568</ele>
        <time>2016-12-30T09:34:42Z</time>
      </trkpt>
      <trkpt lat="43.42868" lon="1.95173">
        <ele>218.295</ele>
        <time>2016-12-30T09:35:02Z</time>
      </trkpt>
      <trkpt lat="43.42851" lon="1.95064">
        <ele>218.449</ele>
        <time>2016-12-30T09:35:22Z</time>
      </trkpt>
      <trkpt lat="43.42827" lon="1.94926">
        <ele>219.023</ele>
        <time>2016-12-30T09:35:42Z</time>
      </trkpt>
      <trkpt lat="43.4283" lon="1.94834">
        <ele>219.008</ele>
        <time>2016-12-30T09:36:02Z</time>
      </trkpt>
      <trkpt lat="43.42856" lon="1.94762">
        <ele>219.036</ele>
        <time>2016-12-30T09:36:22Z</time>
      </trkpt>
      <trkpt lat="43.42928" lon="1.94724">
        <ele>218.059</ele>
        <time>2016-12-30T09:36:42Z</time>
      </trkpt>
      <trkpt lat="43.42975" lon="1.94681">
        <ele>218.095</ele>
        <time>2016-12-30T09:37:02Z</time>
      </trkpt>
      <trkpt lat="43.43041" lon="1.94544">
        <ele>218.074</ele>
        <time>2016-12-30T09:37:22Z</time>
      </trkpt>
      <trkpt lat="43.43082" lon="1.94247">
        <ele>217.011</ele>
        <time>2016-12-30T09:37:42Z</time>
      </trkpt>
      <trkpt lat="43.43077" lon="1.94091">
        <ele>216.052</ele>
        <time>2016-12-30T09:38:02Z</time>
      </trkpt>
      <trkpt lat="43.43061" lon="1.94057">
        <ele>216.021</ele>
        <time>2016-12-30T09:38:22Z</time>
      </trkpt>
      <trkpt lat="43.43024" lon="1.94042">
        <ele>216.072</ele>
        <time>2016-12-30T09:38:42Z</time>
      </trkpt>
      <trkpt lat="43.43007" lon="1.94012">
        <ele>216.067</ele>
        <time>2016-12-30T09:39:02Z</time>
      </trkpt>
      <trkpt lat="43.42986" lon="1.93864">
        <ele>215.581</ele>
        <time>2016-12-30T09:39:22Z</time>
      </trkpt>
      <trkpt lat="43.42945" lon="1.93721">
        <ele>215.019</ele>
        <time>2016-12-30T09:39:42Z</time>
      </trkpt>
      <trkpt lat="43.42869" lon="1.93592">
        <ele>215.008</ele>
        <time>2016-12-30T09:40:02Z</time>
      </trkpt>
      <trkpt lat="43.42868" lon="1.93551">
        <ele>214.743</ele>
        <time>2016-12-30T09:40:22Z</time>
      </trkpt>
      <trkpt lat="43.42902" lon="1.93431">
        <ele>214.566</ele>
        <time>2016-12-30T09:40:42Z</time>
      </trkpt>
      <trkpt lat="43.42887" lon="1.93337">
        <ele>214.222</ele>
        <time>2016-12-30T09:41:02Z</time>
      </trkpt>
      <trkpt lat="43.42865" lon="1.93267">
        <ele>214.971</ele>
        <time>2016-12-30T09:41:22Z</time>
      </trkpt>
      <trkpt lat="43.42886" lon="1.93193">
        <ele>215.198</ele>
        <time>2016-12-30T09:41:42Z</time>
      </trkpt>
      <trkpt lat="43.42887" lon="1.93123">
        <ele>215.759</ele>
        <time>2016-12-30T09:42:02Z</time>
      </trkpt>
      <trkpt lat="43.43053" lon="1.92835">
        <ele>215.088</ele>
        <time>2016-12-30T09:42:22Z</time>
      </trkpt>
      <trkpt lat="43.43061" lon="1.9277">
        <ele>214.849</ele>
        <time>2016-12-30T09:42:42Z</time>
      </trkpt>
      <trkpt lat="43.43054" lon="1.92703">
        <ele>215.078</ele>
        <time>2016-12-30T09:43:02Z</time>
      </trkpt>
      <trkpt lat="43.43055" lon="1.92631">
        <ele>214.733</ele>
        <time>2016-12-30T09:43:22Z</time>
      </trkpt>
      <trkpt lat="43.43031" lon="1.92616">
        <ele>214.926</ele>
        <time>2016-12-30T09:43:42Z</time>
      </trkpt>
      <trkpt lat="43.4296" lon="1.92665">
        <ele>215.008</ele>
        <time>2016-12-30T09:44:02Z</time>
      </trkpt>
      <trkpt lat="43.42887" lon="1.92751">
        <ele>216.184</ele>
        <time>2016-12-30T09:44:22Z</time>
      </trkpt>
      <trkpt lat="43.42865" lon="1.92727">
        <ele>216.077</ele>
        <time>2016-12-30T09:44:42Z</time>
      </trkpt>
      <trkpt lat="43.42864" lon="1.92674">
        <ele>215.823</ele>
        <time>2016-12-30T09:45:02Z</time>
      </trkpt>
      <trkpt lat="43.42936" lon="1.92375">
        <ele>216.142</ele>
        <time>2016-12-30T09:45:22Z</time>
      </trkpt>
      <trkpt lat="43.42978" lon="1.92268">
        <ele>216.869</ele>
        <time>2016-12-30T09:45:42Z</time>
      </trkpt>
      <trkpt lat="43.43102" lon="1.92094">
        <ele>214.24</ele>
        <time>2016-12-30T09:46:02Z</time>
      </trkpt>
      <trkpt lat="43.43119" lon="1.92027">
        <ele>213.839</ele>
        <time>2016-12-30T09:46:22Z</time>
      </trkpt>
      <trkpt lat="43.4315" lon="1.91959">
        <ele>214.12</ele>
        <time>2016-12-30T09:46:42Z</time>
      </trkpt>
      <trkpt lat="43.43173" lon="1.91931">
        <ele>213.952</ele>
        <time>2016-12-30T09:47:02Z</time>
      </trkpt>
      <trkpt lat="43.43196" lon="1.91872">
        <ele>214.553</ele>
        <time>2016-12-30T09:47:22Z</time>
      </trkpt>
      <trkpt lat="43.43239" lon="1.91816">
        <ele>213.408</ele>
        <time>2016-12-30T09:47:42Z</time>
      </trkpt>
      <trkpt lat="43.43244" lon="1.9177">
        <ele>214.208</ele>
        <time>2016-12-30T09:48:02Z</time>
      </trkpt>
      <trkpt lat="43.43207" lon="1.91742">
        <ele>214.972</ele>
        <time>2016-12-30T09:48:22Z</time>
      </trkpt>
      <trkpt lat="43.43206" lon="1.91702">
        <ele>214.645</ele>
        <time>2016-12-30T09:48:42Z</time>
      </trkpt>
      <trkpt lat="43.43235" lon="1.91566">
        <ele>213.611</ele>
        <time>2016-12-30T09:49:02Z</time>
      </trkpt>
      <trkpt lat="43.43207" lon="1.91501">
        <ele>213.67</ele>
        <time>2016-12-30T09:49:22Z</time>
      </trkpt>
      <trkpt lat="43.43224" lon="1.91427">
        <ele>212.977</ele>
        <time>2016-12-30T09:49:42Z</time>
      </trkpt>
      <trkpt lat="43.43211" lon="1.91386">
        <ele>213.378</ele>
        <time>2016-12-30T09:50:02Z</time>
      </trkpt>
      <trkpt lat="43.43182" lon="1.91353">
        <ele>213.377</ele>
        <time>2016-12-30T09:50:22Z</time>
      </trkpt>
      <trkpt lat="43.43133" lon="1.91343">
        <ele>213.468</ele>
        <time>2016-12-30T09:50:42Z</time>
      </trkpt>
      <trkpt lat="43.43091" lon="1.91369">
        <ele>213.617</ele>
        <time>2016-12-30T09:51:02Z</time>
      </trkpt>
      <trkpt lat="43.43055" lon="1.91408">
        <ele>213.787</ele>
        <time>2016-12-30T09:51:22Z</time>
      </trkpt>
      <trkpt lat="43.43029" lon="1.91415">
        <ele>214.015</ele>
        <time>2016-12-30T09:51:42Z</time>
      </trkpt>
      <trkpt lat="43.43016" lon="1.91401">
        <ele>213.908</ele>
        <time>2016-12-30T09:52:02Z</time>
      </trkpt>
      <trkpt lat="43.43018" lon="1.91299">
        <ele>212.148</ele>
        <time>2016-12-30T09:52:22Z</time>
      </trkpt>
      <trkpt lat="43.42909" lon="1.91189">
        <ele>213.951</ele>
        <time>2016-12-30T09:52:42Z</time>
      </trkpt>
      <trkpt lat="43.42844" lon="1.91012">
        <ele>213.627</ele>
        <time>2016-12-30T09:53:02Z</time>
      </trkpt>
      <trkpt lat="43.42817" lon="1.90987">
        <ele>213.876</ele>
        <time>2016-12-30T09:53:22Z</time>
      </trkpt>
      <trkpt lat="43.42815" lon="1.90957">
        <ele>213.143</ele>
        <time>2016-12-30T09:53:42Z</time>
      </trkpt>
      <trkpt lat="43.42798" lon="1.90954">
        <ele>213.674</ele>
        <time>2016-12-30T09:54:02Z</time>
      </trkpt>
      <trkpt lat="43.42793" lon="1.90915">
        <ele>212.443</ele>
        <time>2016-12-30T09:54:22Z</time>
      </trkpt>
      <trkpt lat="43.42763" lon="1.90879">
        <ele>212.514</ele>
        <time>2016-12-30T09:54:42Z</time>
      </trkpt>
      <trkpt lat="43.42626" lon="1.90875">
        <ele>214.769</ele>
        <time>2016-12-30T09:55:02Z</time>
      </trkpt>
      <trkpt lat="43.42604" lon="1.90832">
        <ele>214.204</ele>
        <time>2016-12-30T09:55:22Z</time>
      </trkpt>
      <trkpt lat="43.4261" lon="1.90736">
        <ele>214.024</ele>
        <time>2016-12-30T09:55:42Z</time>
      </trkpt>
      <trkpt lat="43.42592" lon="1.90659">
        <ele>214.008</ele>
        <time>2016-12-30T09:56:02Z</time>
      </trkpt>
      <trkpt lat="43.42558" lon="1.90596">
        <ele>215.063</ele>
        <time>2016-12-30T09:56:22Z</time>
      </trkpt>
      <trkpt lat="43.42547" lon="1.90554">
        <ele>215.056</ele>
        <time>2016-12-30T09:56:42Z</time>
      </trkpt>
      <trkpt lat="43.42477" lon="1.90454">
        <ele>214.082</ele>
        <time>2016-12-30T09:57:02Z</time>
      </trkpt>
      <trkpt lat="43.42461" lon="1.90376">
        <ele>212.641</ele>
        <time>2016-12-30T09:57:22Z</time>
      </trkpt>
      <trkpt lat="43.42481" lon="1.90321">
        <ele>212.258</ele>
        <time>2016-12-30T09:57:42Z</time>
      </trkpt>
      <trkpt lat="43.42556" lon="1.90256">
        <ele>212.259</ele>
        <time>2016-12-30T09:58:02Z</time>
      </trkpt>
      <trkpt lat="43.4263" lon="1.90167">
        <ele>212.478</ele>
        <time>2016-12-30T09:58:22Z</time>
      </trkpt>
      <trkpt lat="43.42682" lon="1.90052">
        <ele>212.459</ele>
        <time>2016-12-30T09:58:42Z</time>
      </trkpt>
      <trkpt lat="43.42656" lon="1.89992">
        <ele>210.852</ele>
        <time>2016-12-30T09:59:02Z</time>
      </trkpt>
      <trkpt lat="43.42676" lon="1.89891">
        <ele>212.053</ele>
        <time>2016-12-30T09:59:22Z</time>
      </trkpt>
      <trkpt lat="43.4267" lon="1.89835">
        <ele>211.208</ele>
        <time>2016-12-30T09:59:42Z</time>
      </trkpt>
      <trkpt lat="43.42688" lon="1.8973">
        <ele>209.808</ele>
        <time>2016-12-30T10:00:02Z</time>
      </trkpt>
      <trkpt lat="43.42713" lon="1.8969">
        <ele>210.152</ele>
        <time>2016-12-30T10:00:22Z</time>
      </trkpt>
      <trkpt lat="43.42777" lon="1.89675">
        <ele>212.045</ele>
        <time>2016-12-30T10:00:42Z</time>
      </trkpt>
      <trkpt lat="43.42848" lon="1.89786">
        <ele>214.211</ele>
        <time>2021-04-17T12:06:30Z</time>
      </trkpt>
      <trkpt lat="43.4289" lon="1.89803">
        <ele>214.08</ele>
        <time>2016-12-30T10:01:42Z</time>
      </trkpt>
      <trkpt lat="43.42925" lon="1.89804">
        <ele>214.097</ele>
        <time>2016-12-30T10:02:02Z</time>
      </trkpt>
      <trkpt lat="43.42932" lon="1.89746">
        <ele>214.128</ele>
        <time>2016-12-30T10:02:22Z</time>
      </trkpt>
      <trkpt lat="43.42878" lon="1.89707">
        <ele>214.027</ele>
        <time>2016-12-30T10:02:42Z</time>
      </trkpt>
      <trkpt lat="43.42854" lon="1.8966">
        <ele>214.058</ele>
        <time>2016-12-30T10:03:02Z</time>
      </trkpt>
      <trkpt lat="43.42781" lon="1.89611">
        <ele>212.191</ele>
        <time>2016-12-30T10:03:22Z</time>
      </trkpt>
      <trkpt lat="43.42773" lon="1.89573">
        <ele>211.981</ele>
        <time>2016-12-30T10:03:42Z</time>
      </trkpt>
      <trkpt lat="43.42811" lon="1.8951">
        <ele>212.519</ele>
        <time>2016-12-30T10:04:02Z</time>
      </trkpt>
      <trkpt lat="43.42821" lon="1.89423">
        <ele>212.908</ele>
        <time>2016-12-30T10:04:22Z</time>
      </trkpt>
      <trkpt lat="43.42813" lon="1.89417">
        <ele>213.046</ele>
        <time>2016-12-30T10:04:42Z</time>
      </trkpt>
      <trkpt lat="43.42753" lon="1.89433">
        <ele>210.549</ele>
        <time>2016-12-30T10:05:02Z</time>
      </trkpt>
      <trkpt lat="43.42729" lon="1.89417">
        <ele>210.295</ele>
        <time>2016-12-30T10:05:22Z</time>
      </trkpt>
      <trkpt lat="43.42666" lon="1.89244">
        <ele>211.014</ele>
        <time>2016-12-30T10:05:42Z</time>
      </trkpt>
      <trkpt lat="43.42685" lon="1.89129">
        <ele>212.231</ele>
        <time>2016-12-30T10:06:02Z</time>
      </trkpt>
      <trkpt lat="43.42676" lon="1.89111">
        <ele>212.342</ele>
        <time>2016-12-30T10:06:22Z</time>
      </trkpt>
      <trkpt lat="43.42603" lon="1.89105">
        <ele>210.071</ele>
        <time>2016-12-30T10:06:42Z</time>
      </trkpt>
      <trkpt lat="43.4258" lon="1.89041">
        <ele>211.862</ele>
        <time>2016-12-30T10:07:02Z</time>
      </trkpt>
      <trkpt lat="43.42511" lon="1.88923">
        <ele>211.458</ele>
        <time>2016-12-30T10:07:22Z</time>
      </trkpt>
      <trkpt lat="43.42437" lon="1.88913">
        <ele>210.852</ele>
        <time>2016-12-30T10:07:42Z</time>
      </trkpt>
      <trkpt lat="43.4237" lon="1.88852">
        <ele>210.017</ele>
        <time>2016-12-30T10:08:02Z</time>
      </trkpt>
      <trkpt lat="43.42368" lon="1.88802">
        <ele>209.208</ele>
        <time>2016-12-30T10:08:22Z</time>
      </trkpt>
      <trkpt lat="43.42389" lon="1.88729">
        <ele>210.072</ele>
        <time>2016-12-30T10:08:42Z</time>
      </trkpt>
      <trkpt lat="43.42391" lon="1.88661">
        <ele>211.335</ele>
        <time>2016-12-30T10:09:02Z</time>
      </trkpt>
      <trkpt lat="43.4236" lon="1.886">
        <ele>209.881</ele>
        <time>2016-12-30T10:09:22Z</time>
      </trkpt>
      <trkpt lat="43.42366" lon="1.8855">
        <ele>210.47</ele>
        <time>2016-12-30T10:09:42Z</time>
      </trkpt>
      <trkpt lat="43.42397" lon="1.88464">
        <ele>211.937</ele>
        <time>2016-12-30T10:10:02Z</time>
      </trkpt>
      <trkpt lat="43.42353" lon="1.88436">
        <ele>210.068</ele>
        <time>2016-12-30T10:10:22Z</time>
      </trkpt>
      <trkpt lat="43.42297" lon="1.8835">
        <ele>210.427</ele>
        <time>2016-12-30T10:10:42Z</time>
      </trkpt>
      <trkpt lat="43.4223" lon="1.88305">
        <ele>213.098</ele>
        <time>2016-12-30T10:11:02Z</time>
      </trkpt>
      <trkpt lat="43.42181" lon="1.88242">
        <ele>211.738</ele>
        <time>2016-12-30T10:11:22Z</time>
      </trkpt>
      <trkpt lat="43.42165" lon="1.88176">
        <ele>211.57</ele>
        <time>2016-12-30T10:11:42Z</time>
      </trkpt>
      <trkpt lat="43.42167" lon="1.88125">
        <ele>212.017</ele>
        <time>2016-12-30T10:12:02Z</time>
      </trkpt>
      <trkpt lat="43.42162" lon="1.88116">
        <ele>211.808</ele>
        <time>2016-12-30T10:12:22Z</time>
      </trkpt>
      <trkpt lat="43.42135" lon="1.88116">
        <ele>210.74</ele>
        <time>2016-12-30T10:12:42Z</time>
      </trkpt>
      <trkpt lat="43.42113" lon="1.88092">
        <ele>210.883</ele>
        <time>2016-12-30T10:13:02Z</time>
      </trkpt>
      <trkpt lat="43.42085" lon="1.88041">
        <ele>210.689</ele>
        <time>2016-12-30T10:13:22Z</time>
      </trkpt>
      <trkpt lat="43.42042" lon="1.88012">
        <ele>210.668</ele>
        <time>2016-12-30T10:13:42Z</time>
      </trkpt>
      <trkpt lat="43.41884" lon="1.88016">
        <ele>208.945</ele>
        <time>2016-12-30T10:14:02Z</time>
      </trkpt>
      <trkpt lat="43.41736" lon="1.87957">
        <ele>209.046</ele>
        <time>2016-12-30T10:14:22Z</time>
      </trkpt>
      <trkpt lat="43.41707" lon="1.87964">
        <ele>209.295</ele>
        <time>2016-12-30T10:14:42Z</time>
      </trkpt>
      <trkpt lat="43.41476" lon="1.88115">
        <ele>208.926</ele>
        <time>2016-12-30T10:15:02Z</time>
      </trkpt>
      <trkpt lat="43.41372" lon="1.88137">
        <ele>207.516</ele>
        <time>2016-12-30T10:15:22Z</time>
      </trkpt>
      <trkpt lat="43.41355" lon="1.88122">
        <ele>207.176</ele>
        <time>2016-12-30T10:15:42Z</time>
      </trkpt>
      <trkpt lat="43.41348" lon="1.88069">
        <ele>208.313</ele>
        <time>2016-12-30T10:16:02Z</time>
      </trkpt>
      <trkpt lat="43.41332" lon="1.88064">
        <ele>207.808</ele>
        <time>2016-12-30T10:16:22Z</time>
      </trkpt>
      <trkpt lat="43.4124" lon="1.88121">
        <ele>207.378</ele>
        <time>2016-12-30T10:16:42Z</time>
      </trkpt>
      <trkpt lat="43.41224" lon="1.88098">
        <ele>207.541</ele>
        <time>2016-12-30T10:17:02Z</time>
      </trkpt>
      <trkpt lat="43.41215" lon="1.88009">
        <ele>207.917</ele>
        <time>2016-12-30T10:17:22Z</time>
      </trkpt>
      <trkpt lat="43.41163" lon="1.88018">
        <ele>204.996</ele>
        <time>2016-12-30T10:17:42Z</time>
      </trkpt>
      <trkpt lat="43.41141" lon="1.88015">
        <ele>205.853</ele>
        <time>2016-12-30T10:18:02Z</time>
      </trkpt>
      <trkpt lat="43.41075" lon="1.88057">
        <ele>206.954</ele>
        <time>2016-12-30T10:18:22Z</time>
      </trkpt>
      <trkpt lat="43.41006" lon="1.88083">
        <ele>207.843</ele>
        <time>2016-12-30T10:18:42Z</time>
      </trkpt>
      <trkpt lat="43.40947" lon="1.88162">
        <ele>205.284</ele>
        <time>2016-12-30T10:19:02Z</time>
      </trkpt>
      <trkpt lat="43.40914" lon="1.88176">
        <ele>205.385</ele>
        <time>2016-12-30T10:19:22Z</time>
      </trkpt>
      <trkpt lat="43.40874" lon="1.8818">
        <ele>206.989</ele>
        <time>2016-12-30T10:19:42Z</time>
      </trkpt>
      <trkpt lat="43.40835" lon="1.88269">
        <ele>205.217</ele>
        <time>2016-12-30T10:20:02Z</time>
      </trkpt>
      <trkpt lat="43.40791" lon="1.88322">
        <ele>205.308</ele>
        <time>2016-12-30T10:20:22Z</time>
      </trkpt>
      <trkpt lat="43.40752" lon="1.8832">
        <ele>206.945</ele>
        <time>2016-12-30T10:20:42Z</time>
      </trkpt>
      <trkpt lat="43.40702" lon="1.88294">
        <ele>207.788</ele>
        <time>2016-12-30T10:21:02Z</time>
      </trkpt>
      <trkpt lat="43.40615" lon="1.88355">
        <ele>207.974</ele>
        <time>2016-12-30T10:21:22Z</time>
      </trkpt>
      <trkpt lat="43.40548" lon="1.88375">
        <ele>208.123</ele>
        <time>2016-12-30T10:21:42Z</time>
      </trkpt>
      <trkpt lat="43.40495" lon="1.88357">
        <ele>209.07</ele>
        <time>2016-12-30T10:22:02Z</time>
      </trkpt>
      <trkpt lat="43.40461" lon="1.88338">
        <ele>209.091</ele>
        <time>2016-12-30T10:22:22Z</time>
      </trkpt>
      <trkpt lat="43.40308" lon="1.88452">
        <ele>205.72</ele>
        <time>2016-12-30T10:22:42Z</time>
      </trkpt>
      <trkpt lat="43.40286" lon="1.88437">
        <ele>205.561</ele>
        <time>2016-12-30T10:23:02Z</time>
      </trkpt>
      <trkpt lat="43.40284" lon="1.8839">
        <ele>206.224</ele>
        <time>2016-12-30T10:23:22Z</time>
      </trkpt>
      <trkpt lat="43.40333" lon="1.8817">
        <ele>209.004</ele>
        <time>2016-12-30T10:23:42Z</time>
      </trkpt>
      <trkpt lat="43.40314" lon="1.88112">
        <ele>207.614</ele>
        <time>2016-12-30T10:24:02Z</time>
      </trkpt>
      <trkpt lat="43.40278" lon="1.88062">
        <ele>206.808</ele>
        <time>2016-12-30T10:24:22Z</time>
      </trkpt>
      <trkpt lat="43.40276" lon="1.88015">
        <ele>206.839</ele>
        <time>2016-12-30T10:24:42Z</time>
      </trkpt>
      <trkpt lat="43.40344" lon="1.87841">
        <ele>208.142</ele>
        <time>2016-12-30T10:25:02Z</time>
      </trkpt>
      <trkpt lat="43.40336" lon="1.87806">
        <ele>207.378</ele>
        <time>2016-12-30T10:25:22Z</time>
      </trkpt>
      <trkpt lat="43.40289" lon="1.87803">
        <ele>207.287</ele>
        <time>2016-12-30T10:25:42Z</time>
      </trkpt>
      <trkpt lat="43.40246" lon="1.87754">
        <ele>208.674</ele>
        <time>2016-12-30T10:26:02Z</time>
      </trkpt>
      <trkpt lat="43.4017" lon="1.87757">
        <ele>205.885</ele>
        <time>2016-12-30T10:26:22Z</time>
      </trkpt>
      <trkpt lat="43.4011" lon="1.87778">
        <ele>204.074</ele>
        <time>2016-12-30T10:26:42Z</time>
      </trkpt>
      <trkpt lat="43.40081" lon="1.87774">
        <ele>205.175</ele>
        <time>2016-12-30T10:27:02Z</time>
      </trkpt>
      <trkpt lat="43.40046" lon="1.87728">
        <ele>206.429</ele>
        <time>2016-12-30T10:27:22Z</time>
      </trkpt>
      <trkpt lat="43.40038" lon="1.8769">
        <ele>206.5</ele>
        <time>2016-12-30T10:27:42Z</time>
      </trkpt>
      <trkpt lat="43.39979" lon="1.8764">
        <ele>205.42</ele>
        <time>2016-12-30T10:28:02Z</time>
      </trkpt>
      <trkpt lat="43.39964" lon="1.87534">
        <ele>206.808</ele>
        <time>2016-12-30T10:28:22Z</time>
      </trkpt>
      <trkpt lat="43.39946" lon="1.87513">
        <ele>206.229</ele>
        <time>2016-12-30T10:28:42Z</time>
      </trkpt>
      <trkpt lat="43.39861" lon="1.87512">
        <ele>205.112</ele>
        <time>2016-12-30T10:29:02Z</time>
      </trkpt>
      <trkpt lat="43.39819" lon="1.87459">
        <ele>207.058</ele>
        <time>2016-12-30T10:29:22Z</time>
      </trkpt>
      <trkpt lat="43.39779" lon="1.8744">
        <ele>206.257</ele>
        <time>2016-12-30T10:29:42Z</time>
      </trkpt>
      <trkpt lat="43.39739" lon="1.87392">
        <ele>207.114</ele>
        <time>2016-12-30T10:30:02Z</time>
      </trkpt>
      <trkpt lat="43.3971" lon="1.87374">
        <ele>206.365</ele>
        <time>2016-12-30T10:30:22Z</time>
      </trkpt>
      <trkpt lat="43.39645" lon="1.87485">
        <ele>206.514</ele>
        <time>2016-12-30T10:30:42Z</time>
      </trkpt>
      <trkpt lat="43.39623" lon="1.8757">
        <ele>204.795</ele>
        <time>2016-12-30T10:31:02Z</time>
      </trkpt>
      <trkpt lat="43.39601" lon="1.87584">
        <ele>205.651</ele>
        <time>2016-12-30T10:31:22Z</time>
      </trkpt>
      <trkpt lat="43.39577" lon="1.87542">
        <ele>207.401</ele>
        <time>2016-12-30T10:31:42Z</time>
      </trkpt>
      <trkpt lat="43.39548" lon="1.87528">
        <ele>206.911</ele>
        <time>2016-12-30T10:32:02Z</time>
      </trkpt>
      <trkpt lat="43.39474" lon="1.87578">
        <ele>205.208</ele>
        <time>2016-12-30T10:32:22Z</time>
      </trkpt>
      <trkpt lat="43.39428" lon="1.8754">
        <ele>207.732</ele>
        <time>2016-12-30T10:32:42Z</time>
      </trkpt>
      <trkpt lat="43.39396" lon="1.87542">
        <ele>207.095</ele>
        <time>2016-12-30T10:33:02Z</time>
      </trkpt>
      <trkpt lat="43.39349" lon="1.87577">
        <ele>204.881</ele>
        <time>2016-12-30T10:33:22Z</time>
      </trkpt>
      <trkpt lat="43.39326" lon="1.87563">
        <ele>205.33</ele>
        <time>2016-12-30T10:33:42Z</time>
      </trkpt>
      <trkpt lat="43.39314" lon="1.87526">
        <ele>204.957</ele>
        <time>2016-12-30T10:34:02Z</time>
      </trkpt>
      <trkpt lat="43.39316" lon="1.87433">
        <ele>204.788</ele>
        <time>2016-12-30T10:34:22Z</time>
      </trkpt>
      <trkpt lat="43.39359" lon="1.87309">
        <ele>205.857</ele>
        <time>2016-12-30T10:34:42Z</time>
      </trkpt>
      <trkpt lat="43.39372" lon="1.87242">
        <ele>205.688</ele>
        <time>2016-12-30T10:35:02Z</time>
      </trkpt>
      <trkpt lat="43.39364" lon="1.8719">
        <ele>205.237</ele>
        <time>2016-12-30T10:35:22Z</time>
      </trkpt>
      <trkpt lat="43.39348" lon="1.87173">
        <ele>204.449</ele>
        <time>2016-12-30T10:35:42Z</time>
      </trkpt>
      <trkpt lat="43.39325" lon="1.87187">
        <ele>203.313</ele>
        <time>2016-12-30T10:36:02Z</time>
      </trkpt>
      <trkpt lat="43.393" lon="1.87221">
        <ele>202.008</ele>
        <time>2016-12-30T10:36:22Z</time>
      </trkpt>
      <trkpt lat="43.3927" lon="1.87213">
        <ele>202.24</ele>
        <time>2016-12-30T10:36:42Z</time>
      </trkpt>
      <trkpt lat="43.39243" lon="1.8716">
        <ele>202.423</ele>
        <time>2016-12-30T10:37:02Z</time>
      </trkpt>
      <trkpt lat="43.39237" lon="1.87095">
        <ele>202.669</ele>
        <time>2016-12-30T10:37:22Z</time>
      </trkpt>
      <trkpt lat="43.39243" lon="1.87073">
        <ele>203.678</ele>
        <time>2016-12-30T10:37:42Z</time>
      </trkpt>
      <trkpt lat="43.39235" lon="1.87056">
        <ele>203.455</ele>
        <time>2016-12-30T10:38:02Z</time>
      </trkpt>
      <trkpt lat="43.39179" lon="1.87076">
        <ele>203.746</ele>
        <time>2016-12-30T10:38:22Z</time>
      </trkpt>
      <trkpt lat="43.3914" lon="1.87059">
        <ele>202.135</ele>
        <time>2016-12-30T10:38:42Z</time>
      </trkpt>
      <trkpt lat="43.39136" lon="1.87003">
        <ele>202.736</ele>
        <time>2016-12-30T10:39:02Z</time>
      </trkpt>
      <trkpt lat="43.39158" lon="1.86873">
        <ele>203.195</ele>
        <time>2016-12-30T10:39:22Z</time>
      </trkpt>
      <trkpt lat="43.39145" lon="1.8686">
        <ele>202.549</ele>
        <time>2016-12-30T10:39:42Z</time>
      </trkpt>
      <trkpt lat="43.39077" lon="1.86946">
        <ele>203.123</ele>
        <time>2016-12-30T10:40:02Z</time>
      </trkpt>
      <trkpt lat="43.3901" lon="1.87103">
        <ele>201.708</ele>
        <time>2016-12-30T10:40:22Z</time>
      </trkpt>
      <trkpt lat="43.38989" lon="1.87107">
        <ele>202.786</ele>
        <time>2016-12-30T10:40:42Z</time>
      </trkpt>
      <trkpt lat="43.38921" lon="1.87067">
        <ele>204.639</ele>
        <time>2016-12-30T10:41:02Z</time>
      </trkpt>
      <trkpt lat="43.38861" lon="1.871">
        <ele>204.025</ele>
        <time>2016-12-30T10:41:22Z</time>
      </trkpt>
      <trkpt lat="43.38821" lon="1.87081">
        <ele>203.254</ele>
        <time>2016-12-30T10:41:42Z</time>
      </trkpt>
      <trkpt lat="43.38799" lon="1.8702">
        <ele>202.011</ele>
        <time>2016-12-30T10:42:02Z</time>
      </trkpt>
      <trkpt lat="43.38805" lon="1.86981">
        <ele>201.272</ele>
        <time>2016-12-30T10:42:22Z</time>
      </trkpt>
      <trkpt lat="43.38873" lon="1.8692">
        <ele>203.051</ele>
        <time>2016-12-30T10:42:42Z</time>
      </trkpt>
      <trkpt lat="43.38965" lon="1.86772">
        <ele>202.792</ele>
        <time>2016-12-30T10:43:02Z</time>
      </trkpt>
      <trkpt lat="43.38956" lon="1.86744">
        <ele>203.158</ele>
        <time>2016-12-30T10:43:22Z</time>
      </trkpt>
      <trkpt lat="43.38912" lon="1.86745">
        <ele>202.752</ele>
        <time>2016-12-30T10:43:42Z</time>
      </trkpt>
      <trkpt lat="43.38834" lon="1.86806">
        <ele>201.917</ele>
        <time>2016-12-30T10:44:02Z</time>
      </trkpt>
      <trkpt lat="43.38802" lon="1.86802">
        <ele>202.908</ele>
        <time>2016-12-30T10:44:22Z</time>
      </trkpt>
      <trkpt lat="43.38765" lon="1.86762">
        <ele>203.932</ele>
        <time>2016-12-30T10:44:42Z</time>
      </trkpt>
      <trkpt lat="43.38625" lon="1.86877">
        <ele>203.025</ele>
        <time>2016-12-30T10:45:02Z</time>
      </trkpt>
      <trkpt lat="43.38568" lon="1.86958">
        <ele>203.061</ele>
        <time>2016-12-30T10:45:22Z</time>
      </trkpt>
      <trkpt lat="43.38481" lon="1.87117">
        <ele>201.91</ele>
        <time>2016-12-30T10:45:42Z</time>
      </trkpt>
      <trkpt lat="43.38461" lon="1.87218">
        <ele>200.297</ele>
        <time>2016-12-30T10:46:02Z</time>
      </trkpt>
      <trkpt lat="43.38425" lon="1.87326">
        <ele>199.368</ele>
        <time>2016-12-30T10:46:22Z</time>
      </trkpt>
      <trkpt lat="43.38393" lon="1.87351">
        <ele>200.857</ele>
        <time>2016-12-30T10:46:42Z</time>
      </trkpt>
      <trkpt lat="43.38341" lon="1.87349">
        <ele>204.738</ele>
        <time>2016-12-30T10:47:02Z</time>
      </trkpt>
      <trkpt lat="43.38319" lon="1.87291">
        <ele>204.596</ele>
        <time>2016-12-30T10:47:22Z</time>
      </trkpt>
      <trkpt lat="43.38348" lon="1.87153">
        <ele>203.331</ele>
        <time>2016-12-30T10:47:42Z</time>
      </trkpt>
      <trkpt lat="43.38378" lon="1.86943">
        <ele>202.424</ele>
        <time>2016-12-30T10:48:02Z</time>
      </trkpt>
      <trkpt lat="43.38379" lon="1.86842">
        <ele>201.908</ele>
        <time>2016-12-30T10:48:22Z</time>
      </trkpt>
      <trkpt lat="43.3838" lon="1.86838">
        <ele>202.066</ele>
        <time>2016-12-30T10:48:42Z</time>
      </trkpt>
      <trkpt lat="43.38405" lon="1.86767">
        <ele>203.259</ele>
        <time>2016-12-30T10:49:02Z</time>
      </trkpt>
      <trkpt lat="43.38367" lon="1.86689">
        <ele>202.475</ele>
        <time>2016-12-30T10:49:22Z</time>
      </trkpt>
      <trkpt lat="43.38319" lon="1.86688">
        <ele>201.434</ele>
        <time>2016-12-30T10:49:42Z</time>
      </trkpt>
      <trkpt lat="43.38287" lon="1.866">
        <ele>203.741</ele>
        <time>2016-12-30T10:50:02Z</time>
      </trkpt>
      <trkpt lat="43.38284" lon="1.86506">
        <ele>203.462</ele>
        <time>2016-12-30T10:50:22Z</time>
      </trkpt>
      <trkpt lat="43.38302" lon="1.8642">
        <ele>204.011</ele>
        <time>2016-12-30T10:50:42Z</time>
      </trkpt>
      <trkpt lat="43.38287" lon="1.86395">
        <ele>204.382</ele>
        <time>2016-12-30T10:51:02Z</time>
      </trkpt>
      <trkpt lat="43.38182" lon="1.86432">
        <ele>202.979</ele>
        <time>2016-12-30T10:51:22Z</time>
      </trkpt>
      <trkpt lat="43.38079" lon="1.86523">
        <ele>203.305</ele>
        <time>2016-12-30T10:51:42Z</time>
      </trkpt>
      <trkpt lat="43.3802" lon="1.86623">
        <ele>203.425</ele>
        <time>2016-12-30T10:52:02Z</time>
      </trkpt>
      <trkpt lat="43.37975" lon="1.86693">
        <ele>203.908</ele>
        <time>2016-12-30T10:52:22Z</time>
      </trkpt>
      <trkpt lat="43.37927" lon="1.86818">
        <ele>201.534</ele>
        <time>2016-12-30T10:52:42Z</time>
      </trkpt>
      <trkpt lat="43.37877" lon="1.86853">
        <ele>203.287</ele>
        <time>2016-12-30T10:53:02Z</time>
      </trkpt>
      <trkpt lat="43.37731" lon="1.87124">
        <ele>201.393</ele>
        <time>2016-12-30T10:53:22Z</time>
      </trkpt>
      <trkpt lat="43.37658" lon="1.87219">
        <ele>201.172</ele>
        <time>2016-12-30T10:53:42Z</time>
      </trkpt>
      <trkpt lat="43.37625" lon="1.87289">
        <ele>202.589</ele>
        <time>2016-12-30T10:54:02Z</time>
      </trkpt>
      <trkpt lat="43.37573" lon="1.87349">
        <ele>208.27</ele>
        <time>2021-04-17T12:59:30Z</time>
      </trkpt>
      <trkpt lat="43.37549" lon="1.87424">
        <ele>204.889</ele>
        <time>2021-04-17T12:59:50Z</time>
      </trkpt>
      <trkpt lat="43.37508" lon="1.87478">
        <ele>206.44</ele>
        <time>2021-04-17T13:00:10Z</time>
      </trkpt>
      <trkpt lat="43.3747" lon="1.87508">
        <ele>205.792</ele>
        <time>2021-04-17T13:00:30Z</time>
      </trkpt>
      <trkpt lat="43.37437" lon="1.87505">
        <ele>205.373</ele>
        <time>2016-12-30T10:55:22Z</time>
      </trkpt>
      <trkpt lat="43.37386" lon="1.87448">
        <ele>202.62</ele>
        <time>2021-04-17T13:01:10Z</time>
      </trkpt>
      <trkpt lat="43.3737" lon="1.87347">
        <ele>203.808</ele>
        <time>2021-04-17T13:01:30Z</time>
      </trkpt>
      <trkpt lat="43.37371" lon="1.87191">
        <ele>203.326</ele>
        <time>2021-04-17T13:01:50Z</time>
      </trkpt>
      <trkpt lat="43.37359" lon="1.87085">
        <ele>205.779</ele>
        <time>2016-12-30T10:56:42Z</time>
      </trkpt>
      <trkpt lat="43.37382" lon="1.86967">
        <ele>205.785</ele>
        <time>2016-12-30T10:57:02Z</time>
      </trkpt>
      <trkpt lat="43.37422" lon="1.86816">
        <ele>205.024</ele>
        <time>2016-12-30T10:57:22Z</time>
      </trkpt>
      <trkpt lat="43.37475" lon="1.867">
        <ele>207.261</ele>
        <time>2016-12-30T10:57:42Z</time>
      </trkpt>
      <trkpt lat="43.37487" lon="1.86623">
        <ele>206.322</ele>
        <time>2016-12-30T10:58:02Z</time>
      </trkpt>
      <trkpt lat="43.37437" lon="1.86539">
        <ele>206.861</ele>
        <time>2016-12-30T10:58:22Z</time>
      </trkpt>
      <trkpt lat="43.37343" lon="1.86529">
        <ele>204.552</ele>
        <time>2016-12-30T10:58:42Z</time>
      </trkpt>
      <trkpt lat="43.37307" lon="1.86477">
        <ele>203.914</ele>
        <time>2016-12-30T10:59:02Z</time>
      </trkpt>
      <trkpt lat="43.37305" lon="1.86413">
        <ele>201.854</ele>
        <time>2016-12-30T10:59:22Z</time>
      </trkpt>
      <trkpt lat="43.37483" lon="1.85969">
        <ele>202.809</ele>
        <time>2016-12-30T10:59:42Z</time>
      </trkpt>
      <trkpt lat="43.37502" lon="1.85855">
        <ele>205.008</ele>
        <time>2016-12-30T11:00:02Z</time>
      </trkpt>
      <trkpt lat="43.37509" lon="1.85625">
        <ele>205.798</ele>
        <time>2016-12-30T11:00:22Z</time>
      </trkpt>
      <trkpt lat="43.37486" lon="1.85576">
        <ele>205.511</ele>
        <time>2016-12-30T11:00:42Z</time>
      </trkpt>
      <trkpt lat="43.37451" lon="1.85558">
        <ele>205.097</ele>
        <time>2016-12-30T11:01:02Z</time>
      </trkpt>
      <trkpt lat="43.37339" lon="1.85535">
        <ele>205.016</ele>
        <time>2016-12-30T11:01:22Z</time>
      </trkpt>
      <trkpt lat="43.37271" lon="1.85576">
        <ele>205.043</ele>
        <time>2016-12-30T11:01:42Z</time>
      </trkpt>
      <trkpt lat="43.37172" lon="1.85699">
        <ele>202.344</ele>
        <time>2016-12-30T11:02:02Z</time>
      </trkpt>
      <trkpt lat="43.37136" lon="1.85705">
        <ele>200.513</ele>
        <time>2016-12-30T11:02:22Z</time>
      </trkpt>
      <trkpt lat="43.37106" lon="1.8567">
        <ele>200.534</ele>
        <time>2016-12-30T11:02:42Z</time>
      </trkpt>
      <trkpt lat="43.37111" lon="1.85593">
        <ele>201.055</ele>
        <time>2016-12-30T11:03:02Z</time>
      </trkpt>
      <trkpt lat="43.37145" lon="1.85452">
        <ele>203.207</ele>
        <time>2016-12-30T11:03:22Z</time>
      </trkpt>
      <trkpt lat="43.37146" lon="1.85407">
        <ele>203.517</ele>
        <time>2016-12-30T11:03:42Z</time>
      </trkpt>
      <trkpt lat="43.3704" lon="1.8546">
        <ele>203.008</ele>
        <time>2016-12-30T11:04:02Z</time>
      </trkpt>
      <trkpt lat="43.36925" lon="1.85607">
        <ele>200.362</ele>
        <time>2016-12-30T11:04:22Z</time>
      </trkpt>
      <trkpt lat="43.36868" lon="1.85631">
        <ele>201.925</ele>
        <time>2016-12-30T11:04:42Z</time>
      </trkpt>
      <trkpt lat="43.36824" lon="1.85595">
        <ele>203.031</ele>
        <time>2016-12-30T11:05:02Z</time>
      </trkpt>
      <trkpt lat="43.36799" lon="1.85491">
        <ele>202.79</ele>
        <time>2016-12-30T11:05:22Z</time>
      </trkpt>
      <trkpt lat="43.36807" lon="1.85386">
        <ele>202.087</ele>
        <time>2016-12-30T11:05:42Z</time>
      </trkpt>
      <trkpt lat="43.36824" lon="1.85289">
        <ele>201.458</ele>
        <time>2016-12-30T11:06:02Z</time>
      </trkpt>
      <trkpt lat="43.36815" lon="1.85147">
        <ele>200.647</ele>
        <time>2016-12-30T11:06:22Z</time>
      </trkpt>
      <trkpt lat="43.36781" lon="1.85101">
        <ele>200.358</ele>
        <time>2016-12-30T11:06:42Z</time>
      </trkpt>
      <trkpt lat="43.36688" lon="1.85046">
        <ele>202.881</ele>
        <time>2016-12-30T11:07:02Z</time>
      </trkpt>
      <trkpt lat="43.36669" lon="1.85002">
        <ele>201.261</ele>
        <time>2016-12-30T11:07:22Z</time>
      </trkpt>
      <trkpt lat="43.36675" lon="1.84929">
        <ele>200.717</ele>
        <time>2016-12-30T11:07:42Z</time>
      </trkpt>
      <trkpt lat="43.36662" lon="1.84908">
        <ele>200.308</ele>
        <time>2016-12-30T11:08:02Z</time>
      </trkpt>
      <trkpt lat="43.36396" lon="1.85251">
        <ele>198.985</ele>
        <time>2016-12-30T11:08:22Z</time>
      </trkpt>
      <trkpt lat="43.36335" lon="1.85255">
        <ele>199.728</ele>
        <time>2016-12-30T11:08:42Z</time>
      </trkpt>
      <trkpt lat="43.36234" lon="1.85165">
        <ele>201.854</ele>
        <time>2016-12-30T11:09:02Z</time>
      </trkpt>
      <trkpt lat="43.36229" lon="1.85099">
        <ele>202.113</ele>
        <time>2016-12-30T11:09:22Z</time>
      </trkpt>
      <trkpt lat="43.36261" lon="1.84978">
        <ele>200.07</ele>
        <time>2016-12-30T11:09:42Z</time>
      </trkpt>
      <trkpt lat="43.36296" lon="1.84887">
        <ele>200.221</ele>
        <time>2016-12-30T11:10:02Z</time>
      </trkpt>
      <trkpt lat="43.36342" lon="1.8463">
        <ele>201.68</ele>
        <time>2016-12-30T11:10:22Z</time>
      </trkpt>
      <trkpt lat="43.3631" lon="1.84562">
        <ele>201.191</ele>
        <time>2016-12-30T11:10:42Z</time>
      </trkpt>
      <trkpt lat="43.36254" lon="1.84503">
        <ele>200.347</ele>
        <time>2016-12-30T11:11:02Z</time>
      </trkpt>
      <trkpt lat="43.36173" lon="1.84497">
        <ele>200.129</ele>
        <time>2016-12-30T11:11:22Z</time>
      </trkpt>
      <trkpt lat="43.36095" lon="1.84497">
        <ele>200.721</ele>
        <time>2016-12-30T11:11:42Z</time>
      </trkpt>
      <trkpt lat="43.36031" lon="1.84451">
        <ele>201.008</ele>
        <time>2016-12-30T11:12:02Z</time>
      </trkpt>
      <trkpt lat="43.36001" lon="1.84388">
        <ele>200.121</ele>
        <time>2016-12-30T11:12:22Z</time>
      </trkpt>
      <trkpt lat="43.36025" lon="1.84117">
        <ele>201.124</ele>
        <time>2016-12-30T11:12:42Z</time>
      </trkpt>
      <trkpt lat="43.36055" lon="1.84004">
        <ele>202.09</ele>
        <time>2016-12-30T11:13:02Z</time>
      </trkpt>
      <trkpt lat="43.36041" lon="1.8399">
        <ele>201.889</ele>
        <time>2016-12-30T11:13:22Z</time>
      </trkpt>
      <trkpt lat="43.35936" lon="1.84086">
        <ele>200.816</ele>
        <time>2016-12-30T11:13:42Z</time>
      </trkpt>
      <trkpt lat="43.35887" lon="1.84212">
        <ele>200.637</ele>
        <time>2016-12-30T11:14:02Z</time>
      </trkpt>
      <trkpt lat="43.35858" lon="1.84341">
        <ele>197.626</ele>
        <time>2016-12-30T11:14:22Z</time>
      </trkpt>
      <trkpt lat="43.35821" lon="1.84431">
        <ele>196.217</ele>
        <time>2016-12-30T11:14:42Z</time>
      </trkpt>
      <trkpt lat="43.35779" lon="1.84458">
        <ele>200.423</ele>
        <time>2016-12-30T11:15:02Z</time>
      </trkpt>
      <trkpt lat="43.35749" lon="1.84449">
        <ele>200.883</ele>
        <time>2016-12-30T11:15:22Z</time>
      </trkpt>
      <trkpt lat="43.3563" lon="1.843">
        <ele>198.711</ele>
        <time>2016-12-30T11:15:42Z</time>
      </trkpt>
      <trkpt lat="43.35611" lon="1.84152">
        <ele>199.008</ele>
        <time>2016-12-30T11:16:02Z</time>
      </trkpt>
      <trkpt lat="43.35483" lon="1.84048">
        <ele>198.439</ele>
        <time>2016-12-30T11:16:22Z</time>
      </trkpt>
      <trkpt lat="43.35447" lon="1.83911">
        <ele>198.172</ele>
        <time>2016-12-30T11:16:42Z</time>
      </trkpt>
      <trkpt lat="43.35439" lon="1.8379">
        <ele>198.868</ele>
        <time>2016-12-30T11:17:02Z</time>
      </trkpt>
      <trkpt lat="43.35458" lon="1.83676">
        <ele>199.597</ele>
        <time>2016-12-30T11:17:22Z</time>
      </trkpt>
      <trkpt lat="43.35438" lon="1.83664">
        <ele>199.064</ele>
        <time>2016-12-30T11:17:42Z</time>
      </trkpt>
      <trkpt lat="43.35297" lon="1.83702">
        <ele>198.055</ele>
        <time>2016-12-30T11:18:02Z</time>
      </trkpt>
      <trkpt lat="43.35232" lon="1.8377">
        <ele>196.364</ele>
        <time>2016-12-30T11:18:22Z</time>
      </trkpt>
      <trkpt lat="43.35191" lon="1.83769">
        <ele>196.665</ele>
        <time>2016-12-30T11:18:42Z</time>
      </trkpt>
      <trkpt lat="43.3512" lon="1.83746">
        <ele>195.859</ele>
        <time>2016-12-30T11:19:02Z</time>
      </trkpt>
      <trkpt lat="43.35095" lon="1.83685">
        <ele>195.403</ele>
        <time>2016-12-30T11:19:22Z</time>
      </trkpt>
      <trkpt lat="43.35104" lon="1.83622">
        <ele>195.723</ele>
        <time>2016-12-30T11:19:42Z</time>
      </trkpt>
      <trkpt lat="43.35098" lon="1.83441">
        <ele>195.008</ele>
        <time>2016-12-30T11:20:02Z</time>
      </trkpt>
      <trkpt lat="43.35078" lon="1.83431">
        <ele>195.082</ele>
        <time>2016-12-30T11:20:22Z</time>
      </trkpt>
      <trkpt lat="43.35031" lon="1.83538">
        <ele>194.775</ele>
        <time>2016-12-30T11:20:42Z</time>
      </trkpt>
      <trkpt lat="43.35005" lon="1.83556">
        <ele>194.021</ele>
        <time>2016-12-30T11:21:02Z</time>
      </trkpt>
      <trkpt lat="43.34965" lon="1.83543">
        <ele>193.53</ele>
        <time>2016-12-30T11:21:22Z</time>
      </trkpt>
      <trkpt lat="43.34948" lon="1.83484">
        <ele>192.367</ele>
        <time>2016-12-30T11:21:42Z</time>
      </trkpt>
      <trkpt lat="43.34959" lon="1.83367">
        <ele>193.178</ele>
        <time>2016-12-30T11:22:02Z</time>
      </trkpt>
      <trkpt lat="43.3493" lon="1.83099">
        <ele>193.287</ele>
        <time>2016-12-30T11:22:22Z</time>
      </trkpt>
      <trkpt lat="43.349" lon="1.83055">
        <ele>193.428</ele>
        <time>2016-12-30T11:22:42Z</time>
      </trkpt>
      <trkpt lat="43.34852" lon="1.83054">
        <ele>192.778</ele>
        <time>2016-12-30T11:23:02Z</time>
      </trkpt>
      <trkpt lat="43.34771" lon="1.82988">
        <ele>192.233</ele>
        <time>2016-12-30T11:23:22Z</time>
      </trkpt>
      <trkpt lat="43.34728" lon="1.82925">
        <ele>191.426</ele>
        <time>2016-12-30T11:23:42Z</time>
      </trkpt>
      <trkpt lat="43.34732" lon="1.82827">
        <ele>191.508</ele>
        <time>2016-12-30T11:24:02Z</time>
      </trkpt>
      <trkpt lat="43.34752" lon="1.82771">
        <ele>191.924</ele>
        <time>2016-12-30T11:24:22Z</time>
      </trkpt>
      <trkpt lat="43.34982" lon="1.82404">
        <ele>193.147</ele>
        <time>2016-12-30T11:24:42Z</time>
      </trkpt>
      <trkpt lat="43.35041" lon="1.8236">
        <ele>193.473</ele>
        <time>2016-12-30T11:25:02Z</time>
      </trkpt>
      <trkpt lat="43.35104" lon="1.82332">
        <ele>193.092</ele>
        <time>2016-12-30T11:25:22Z</time>
      </trkpt>
      <trkpt lat="43.35139" lon="1.82266">
        <ele>191.049</ele>
        <time>2016-12-30T11:25:42Z</time>
      </trkpt>
      <trkpt lat="43.3509" lon="1.82126">
        <ele>190.05</ele>
        <time>2016-12-30T11:26:02Z</time>
      </trkpt>
      <trkpt lat="43.35102" lon="1.81982">
        <ele>190.019</ele>
        <time>2016-12-30T11:26:22Z</time>
      </trkpt>
      <trkpt lat="43.35135" lon="1.81943">
        <ele>191.01</ele>
        <time>2016-12-30T11:26:42Z</time>
      </trkpt>
      <trkpt lat="43.35247" lon="1.81932">
        <ele>191.081</ele>
        <time>2016-12-30T11:27:02Z</time>
      </trkpt>
      <trkpt lat="43.35354" lon="1.8202">
        <ele>191.061</ele>
        <time>2016-12-30T11:27:22Z</time>
      </trkpt>
      <trkpt lat="43.35409" lon="1.81951">
        <ele>191.917</ele>
        <time>2016-12-30T11:27:42Z</time>
      </trkpt>
      <trkpt lat="43.35446" lon="1.81929">
        <ele>192.008</ele>
        <time>2016-12-30T11:28:02Z</time>
      </trkpt>
      <trkpt lat="43.35513" lon="1.81859">
        <ele>191.085</ele>
        <time>2016-12-30T11:28:22Z</time>
      </trkpt>
      <trkpt lat="43.35572" lon="1.81803">
        <ele>190.448</ele>
        <time>2016-12-30T11:28:42Z</time>
      </trkpt>
      <trkpt lat="43.35647" lon="1.81709">
        <ele>189.474</ele>
        <time>2016-12-30T11:29:02Z</time>
      </trkpt>
      <trkpt lat="43.35684" lon="1.81638">
        <ele>189.023</ele>
        <time>2016-12-30T11:29:22Z</time>
      </trkpt>
      <trkpt lat="43.3582" lon="1.8175">
        <ele>191.54</ele>
        <time>2016-12-30T11:29:42Z</time>
      </trkpt>
      <trkpt lat="43.35815" lon="1.8177">
        <ele>191.311</ele>
        <time>2016-12-30T11:30:02Z</time>
      </trkpt>
      <trkpt lat="43.3599" lon="1.81824">
        <ele>202.59</ele>
        <time>2016-12-30T11:30:22Z</time>
      </trkpt>
      <trkpt lat="43.36183" lon="1.81979">
        <ele>218.431</ele>
        <time>2016-12-30T11:30:42Z</time>
      </trkpt>
      <trkpt lat="43.363" lon="1.82005">
        <ele>236.111</ele>
        <time>2016-12-30T11:31:02Z</time>
      </trkpt>
      <trkpt lat="43.36387" lon="1.81973">
        <ele>254.821</ele>
        <time>2021-04-17T13:36:50Z</time>
      </trkpt>
      <trkpt lat="43.36412" lon="1.81878">
        <ele>262.003</ele>
        <time>2016-12-30T11:31:42Z</time>
      </trkpt>
      <trkpt lat="43.36429" lon="1.81841">
        <ele>260.808</ele>
        <time>2021-04-17T13:37:30Z</time>
      </trkpt>
      <trkpt lat="43.36453" lon="1.81822">
        <ele>268.838</ele>
        <time>2016-12-30T11:32:02Z</time>
      </trkpt>
      <trkpt lat="43.36473" lon="1.8181">
        <ele>274.871</ele>
        <time>2016-12-30T11:32:22Z</time>
      </trkpt>
      <trkpt lat="43.36501" lon="1.81762">
        <ele>272.017</ele>
        <time>2021-04-17T13:38:30Z</time>
      </trkpt>
      <trkpt lat="43.36522" lon="1.81742">
        <ele>270.766</ele>
        <time>2021-04-17T13:38:50Z</time>
      </trkpt>
      <trkpt lat="43.36531" lon="1.81744">
        <ele>271.133</ele>
        <time>2021-04-17T13:39:10Z</time>
      </trkpt>
      <trkpt lat="43.36513" lon="1.81766">
        <ele>272.314</ele>
        <time>2021-04-17T13:39:30Z</time>
      </trkpt>
      <trkpt lat="43.36482" lon="1.8189">
        <ele>277.973</ele>
        <time>2021-04-17T13:39:50Z</time>
      </trkpt>
      <trkpt lat="43.3649" lon="1.81916">
        <ele>281.694</ele>
        <time>2021-04-17T13:40:10Z</time>
      </trkpt>
      <trkpt lat="43.36466" lon="1.81938">
        <ele>274.569</ele>
        <time>2021-04-17T13:40:30Z</time>
      </trkpt>
      <trkpt lat="43.36447" lon="1.81937">
        <ele>270.804</ele>
        <time>2021-04-17T13:40:50Z</time>
      </trkpt>
      <trkpt lat="43.36445" lon="1.81966">
        <ele>268.724</ele>
        <time>2021-04-17T13:41:10Z</time>
      </trkpt>
      <trkpt lat="43.36477" lon="1.8199">
        <ele>272.008</ele>
        <time>2021-04-17T13:41:30Z</time>
      </trkpt>
      <trkpt lat="43.36526" lon="1.81941">
        <ele>275.853</ele>
        <time>2021-04-17T13:41:50Z</time>
      </trkpt>
      <trkpt lat="43.36572" lon="1.81863">
        <ele>273.026</ele>
        <time>2021-04-17T13:42:10Z</time>
      </trkpt>
      <trkpt lat="43.36585" lon="1.81808">
        <ele>273.012</ele>
        <time>2021-04-17T13:42:30Z</time>
      </trkpt>
      <trkpt lat="43.36583" lon="1.81746">
        <ele>272.091</ele>
        <time>2021-04-17T13:42:50Z</time>
      </trkpt>
      <trkpt lat="43.36593" lon="1.81718">
        <ele>269.378</ele>
        <time>2021-04-17T13:43:10Z</time>
      </trkpt>
      <trkpt lat="43.366" lon="1.81715">
        <ele>267.399</ele>
        <time>2021-04-17T13:43:30Z</time>
      </trkpt>
      <trkpt lat="43.36615" lon="1.81626">
        <ele>264.948</ele>
        <time>2021-04-17T13:43:50Z</time>
      </trkpt>
      <trkpt lat="43.36658" lon="1.81526">
        <ele>268.119</ele>
        <time>2016-12-30T11:36:02Z</time>
      </trkpt>
      <trkpt lat="43.36712" lon="1.81457">
        <ele>264.074</ele>
        <time>2016-12-30T11:36:22Z</time>
      </trkpt>
      <trkpt lat="43.36776" lon="1.81323">
        <ele>263.756</ele>
        <time>2016-12-30T11:36:42Z</time>
      </trkpt>
      <trkpt lat="43.36821" lon="1.81207">
        <ele>257.821</ele>
        <time>2016-12-30T11:37:02Z</time>
      </trkpt>
      <trkpt lat="43.36828" lon="1.81164">
        <ele>246.108</ele>
        <time>2021-04-17T13:45:30Z</time>
      </trkpt>
      <trkpt lat="43.36871" lon="1.81091">
        <ele>239.324</ele>
        <time>2021-04-17T13:45:50Z</time>
      </trkpt>
      <trkpt lat="43.36899" lon="1.80997">
        <ele>233.937</ele>
        <time>2021-04-17T13:46:10Z</time>
      </trkpt>
      <trkpt lat="43.36924" lon="1.80859">
        <ele>226.163</ele>
        <time>2016-12-30T11:38:02Z</time>
      </trkpt>
      <trkpt lat="43.36961" lon="1.80736">
        <ele>212.472</ele>
        <time>2016-12-30T11:38:22Z</time>
      </trkpt>
      <trkpt lat="43.3698" lon="1.80651">
        <ele>205.029</ele>
        <time>2016-12-30T11:38:42Z</time>
      </trkpt>
      <trkpt lat="43.37042" lon="1.80623">
        <ele>208.35</ele>
        <time>2016-12-30T11:39:02Z</time>
      </trkpt>
      <trkpt lat="43.37024" lon="1.80552">
        <ele>207.759</ele>
        <time>2016-12-30T11:39:22Z</time>
      </trkpt>
      <trkpt lat="43.37019" lon="1.80449">
        <ele>209.48</ele>
        <time>2016-12-30T11:39:42Z</time>
      </trkpt>
      <trkpt lat="43.3686" lon="1.80265">
        <ele>210.372</ele>
        <time>2016-12-30T11:40:02Z</time>
      </trkpt>
      <trkpt lat="43.3676" lon="1.80256">
        <ele>205.713</ele>
        <time>2016-12-30T11:40:22Z</time>
      </trkpt>
      <trkpt lat="43.36731" lon="1.80219">
        <ele>206.914</ele>
        <time>2016-12-30T11:40:42Z</time>
      </trkpt>
      <trkpt lat="43.36676" lon="1.8011">
        <ele>204.708</ele>
        <time>2016-12-30T11:41:02Z</time>
      </trkpt>
      <trkpt lat="43.36626" lon="1.79947">
        <ele>205.674</ele>
        <time>2016-12-30T11:41:22Z</time>
      </trkpt>
      <trkpt lat="43.36573" lon="1.7986">
        <ele>201.677</ele>
        <time>2016-12-30T11:41:42Z</time>
      </trkpt>
      <trkpt lat="43.36519" lon="1.79749">
        <ele>203.983</ele>
        <time>2016-12-30T11:42:02Z</time>
      </trkpt>
      <trkpt lat="43.36425" lon="1.79691">
        <ele>203.782</ele>
        <time>2016-12-30T11:42:22Z</time>
      </trkpt>
      <trkpt lat="43.36413" lon="1.79618">
        <ele>205.319</ele>
        <time>2016-12-30T11:42:42Z</time>
      </trkpt>
      <trkpt lat="43.36454" lon="1.79407">
        <ele>209.14</ele>
        <time>2016-12-30T11:43:02Z</time>
      </trkpt>
      <trkpt lat="43.36456" lon="1.7931">
        <ele>202.139</ele>
        <time>2016-12-30T11:43:22Z</time>
      </trkpt>
      <trkpt lat="43.36489" lon="1.79213">
        <ele>201.04</ele>
        <time>2016-12-30T11:43:42Z</time>
      </trkpt>
      <trkpt lat="43.36554" lon="1.79162">
        <ele>200.089</ele>
        <time>2016-12-30T11:44:02Z</time>
      </trkpt>
      <trkpt lat="43.36575" lon="1.79124">
        <ele>200.006</ele>
        <time>2016-12-30T11:44:22Z</time>
      </trkpt>
      <trkpt lat="43.36668" lon="1.79042">
        <ele>207.126</ele>
        <time>2016-12-30T11:44:42Z</time>
      </trkpt>
      <trkpt lat="43.3672" lon="1.79072">
        <ele>204.808</ele>
        <time>2016-12-30T11:45:02Z</time>
      </trkpt>
      <trkpt lat="43.36727" lon="1.79106">
        <ele>203.295</ele>
        <time>2016-12-30T11:45:22Z</time>
      </trkpt>
      <trkpt lat="43.36744" lon="1.79123">
        <ele>205.428</ele>
        <time>2016-12-30T11:45:42Z</time>
      </trkpt>
      <trkpt lat="43.36773" lon="1.79134">
        <ele>207.464</ele>
        <time>2016-12-30T11:46:02Z</time>
      </trkpt>
      <trkpt lat="43.36792" lon="1.79176">
        <ele>211.333</ele>
        <time>2016-12-30T11:46:22Z</time>
      </trkpt>
      <trkpt lat="43.36853" lon="1.79205">
        <ele>214.17</ele>
        <time>2016-12-30T11:46:42Z</time>
      </trkpt>
      <trkpt lat="43.36903" lon="1.79305">
        <ele>216.031</ele>
        <time>2016-12-30T11:47:02Z</time>
      </trkpt>
      <trkpt lat="43.36966" lon="1.79389">
        <ele>220.03</ele>
        <time>2016-12-30T11:47:22Z</time>
      </trkpt>
      <trkpt lat="43.37007" lon="1.79415">
        <ele>220.851</ele>
        <time>2016-12-30T11:47:42Z</time>
      </trkpt>
      <trkpt lat="43.37187" lon="1.79419">
        <ele>233.188</ele>
        <time>2016-12-30T11:48:02Z</time>
      </trkpt>
      <trkpt lat="43.37281" lon="1.79411">
        <ele>245.924</ele>
        <time>2016-12-30T11:48:22Z</time>
      </trkpt>
      <trkpt lat="43.37297" lon="1.79399">
        <ele>247.926</ele>
        <time>2016-12-30T11:48:42Z</time>
      </trkpt>
      <trkpt lat="43.37357" lon="1.79397">
        <ele>246.808</ele>
        <time>2016-12-30T11:49:02Z</time>
      </trkpt>
      <trkpt lat="43.37411" lon="1.79445">
        <ele>249.185</ele>
        <time>2016-12-30T11:49:22Z</time>
      </trkpt>
      <trkpt lat="43.37495" lon="1.79467">
        <ele>248.068</ele>
        <time>2016-12-30T11:49:42Z</time>
      </trkpt>
      <trkpt lat="43.37587" lon="1.79437">
        <ele>253.774</ele>
        <time>2016-12-30T11:50:02Z</time>
      </trkpt>
      <trkpt lat="43.37637" lon="1.79412">
        <ele>254.683</ele>
        <time>2016-12-30T11:50:22Z</time>
      </trkpt>
      <trkpt lat="43.37753" lon="1.79394">
        <ele>258.11</ele>
        <time>2016-12-30T11:50:42Z</time>
      </trkpt>
      <trkpt lat="43.37802" lon="1.79278">
        <ele>251.021</ele>
        <time>2016-12-30T11:51:02Z</time>
      </trkpt>
      <trkpt lat="43.37858" lon="1.79171">
        <ele>242.35</ele>
        <time>2016-12-30T11:51:22Z</time>
      </trkpt>
      <trkpt lat="43.3791" lon="1.79104">
        <ele>236.761</ele>
        <time>2016-12-30T11:51:42Z</time>
      </trkpt>
      <trkpt lat="43.37954" lon="1.78885">
        <ele>230.625</ele>
        <time>2016-12-30T11:52:02Z</time>
      </trkpt>
      <trkpt lat="43.38068" lon="1.78501">
        <ele>217.626</ele>
        <time>2016-12-30T11:52:22Z</time>
      </trkpt>
      <trkpt lat="43.38132" lon="1.78391">
        <ele>213.308</ele>
        <time>2016-12-30T11:52:42Z</time>
      </trkpt>
      <trkpt lat="43.38203" lon="1.78159">
        <ele>205.408</ele>
        <time>2016-12-30T11:53:02Z</time>
      </trkpt>
      <trkpt lat="43.38089" lon="1.78137">
        <ele>201.389</ele>
        <time>2016-12-30T11:53:22Z</time>
      </trkpt>
      <trkpt lat="43.38057" lon="1.78087">
        <ele>199.032</ele>
        <time>2016-12-30T11:53:42Z</time>
      </trkpt>
      <trkpt lat="43.38004" lon="1.78025">
        <ele>200.788</ele>
        <time>2016-12-30T11:54:02Z</time>
      </trkpt>
      <trkpt lat="43.37907" lon="1.77915">
        <ele>205.747</ele>
        <time>2016-12-30T11:54:22Z</time>
      </trkpt>
      <trkpt lat="43.37995" lon="1.77617">
        <ele>191.364</ele>
        <time>2021-04-17T14:03:10Z</time>
      </trkpt>
      <trkpt lat="43.38063" lon="1.77646">
        <ele>191.335</ele>
        <time>2021-04-17T14:03:30Z</time>
      </trkpt>
      <trkpt lat="43.38049" lon="1.77629">
        <ele>191.384</ele>
        <time>2021-04-17T14:03:50Z</time>
      </trkpt>
      <trkpt lat="43.38065" lon="1.77574">
        <ele>190.865</ele>
        <time>2021-04-17T14:04:10Z</time>
      </trkpt>
      <trkpt lat="43.38192" lon="1.77493">
        <ele>196.815</ele>
        <time>2021-04-17T14:04:30Z</time>
      </trkpt>
      <trkpt lat="43.3831" lon="1.77427">
        <ele>206.865</ele>
        <time>2021-04-17T14:04:50Z</time>
      </trkpt>
      <trkpt lat="43.38406" lon="1.77384">
        <ele>216.011</ele>
        <time>2021-04-17T14:05:10Z</time>
      </trkpt>
      <trkpt lat="43.38492" lon="1.77314">
        <ele>225.408</ele>
        <time>2021-04-17T14:05:30Z</time>
      </trkpt>
      <trkpt lat="43.38538" lon="1.77273">
        <ele>228.628</ele>
        <time>2021-04-17T14:05:50Z</time>
      </trkpt>
      <trkpt lat="43.38605" lon="1.77239">
        <ele>234.821</ele>
        <time>2021-04-17T14:06:10Z</time>
      </trkpt>
      <trkpt lat="43.38655" lon="1.77207">
        <ele>239.377</ele>
        <time>2021-04-17T14:06:30Z</time>
      </trkpt>
      <trkpt lat="43.38722" lon="1.77151">
        <ele>244.676</ele>
        <time>2021-04-17T14:06:50Z</time>
      </trkpt>
      <trkpt lat="43.38746" lon="1.77132">
        <ele>248.853</ele>
        <time>2021-04-17T14:07:10Z</time>
      </trkpt>
      <trkpt lat="43.38796" lon="1.77118">
        <ele>251.964</ele>
        <time>2021-04-17T14:07:30Z</time>
      </trkpt>
      <trkpt lat="43.38768" lon="1.77042">
        <ele>254.873</ele>
        <time>2021-04-17T14:07:50Z</time>
      </trkpt>
      <trkpt lat="43.38727" lon="1.76886">
        <ele>254.744</ele>
        <time>2021-04-17T14:08:10Z</time>
      </trkpt>
      <trkpt lat="43.38709" lon="1.76858">
        <ele>253.761</ele>
        <time>2021-04-17T14:08:30Z</time>
      </trkpt>
      <trkpt lat="43.3864" lon="1.76782">
        <ele>250.221</ele>
        <time>2021-04-17T14:08:50Z</time>
      </trkpt>
      <trkpt lat="43.38564" lon="1.76759">
        <ele>249.313</ele>
        <time>2016-12-30T11:59:02Z</time>
      </trkpt>
      <trkpt lat="43.38585" lon="1.7665">
        <ele>250.008</ele>
        <time>2016-12-30T11:59:22Z</time>
      </trkpt>
      <trkpt lat="43.38672" lon="1.76514">
        <ele>249.193</ele>
        <time>2016-12-30T11:59:42Z</time>
      </trkpt>
      <trkpt lat="43.38775" lon="1.76308">
        <ele>236.316</ele>
        <time>2016-12-30T12:00:02Z</time>
      </trkpt>
      <trkpt lat="43.38811" lon="1.76207">
        <ele>229.182</ele>
        <time>2016-12-30T12:00:22Z</time>
      </trkpt>
      <trkpt lat="43.38926" lon="1.76164">
        <ele>231.141</ele>
        <time>2016-12-30T12:00:42Z</time>
      </trkpt>
      <trkpt lat="43.38986" lon="1.76176">
        <ele>228.588</ele>
        <time>2016-12-30T12:01:02Z</time>
      </trkpt>
      <trkpt lat="43.39079" lon="1.76209">
        <ele>237.169</ele>
        <time>2016-12-30T12:01:22Z</time>
      </trkpt>
      <trkpt lat="43.39159" lon="1.75958">
        <ele>234.688</ele>
        <time>2016-12-30T12:01:42Z</time>
      </trkpt>
      <trkpt lat="43.39193" lon="1.75767">
        <ele>230.829</ele>
        <time>2016-12-30T12:02:02Z</time>
      </trkpt>
      <trkpt lat="43.39186" lon="1.75747">
        <ele>230.883</ele>
        <time>2016-12-30T12:02:22Z</time>
      </trkpt>
      <trkpt lat="43.39265" lon="1.75532">
        <ele>215.725</ele>
        <time>2016-12-30T12:02:42Z</time>
      </trkpt>
      <trkpt lat="43.393" lon="1.75361">
        <ele>202.617</ele>
        <time>2016-12-30T12:03:02Z</time>
      </trkpt>
      <trkpt lat="43.39369" lon="1.75309">
        <ele>194.308</ele>
        <time>2016-12-30T12:03:22Z</time>
      </trkpt>
      <trkpt lat="43.39417" lon="1.75289">
        <ele>190.465</ele>
        <time>2016-12-30T12:03:42Z</time>
      </trkpt>
      <trkpt lat="43.39414" lon="1.75206">
        <ele>190.048</ele>
        <time>2016-12-30T12:04:02Z</time>
      </trkpt>
      <trkpt lat="43.39516" lon="1.75179">
        <ele>192.564</ele>
        <time>2016-12-30T12:04:22Z</time>
      </trkpt>
      <trkpt lat="43.39529" lon="1.75257">
        <ele>192.913</ele>
        <time>2016-12-30T12:04:42Z</time>
      </trkpt>
      <trkpt lat="43.3956" lon="1.75335">
        <ele>195.36</ele>
        <time>2016-12-30T12:05:02Z</time>
      </trkpt>
      <trkpt lat="43.39705" lon="1.75382">
        <ele>209.681</ele>
        <time>2016-12-30T12:05:22Z</time>
      </trkpt>
      <trkpt lat="43.39783" lon="1.75438">
        <ele>222.71</ele>
        <time>2016-12-30T12:05:42Z</time>
      </trkpt>
      <trkpt lat="43.40036" lon="1.7552">
        <ele>237.641</ele>
        <time>2016-12-30T12:06:02Z</time>
      </trkpt>
      <trkpt lat="43.40155" lon="1.75125">
        <ele>231.463</ele>
        <time>2021-04-17T14:16:30Z</time>
      </trkpt>
      <trkpt lat="43.40208" lon="1.74859">
        <ele>246.844</ele>
        <time>2016-12-30T12:06:42Z</time>
      </trkpt>
      <trkpt lat="43.40152" lon="1.74812">
        <ele>252.618</ele>
        <time>2016-12-30T12:07:02Z</time>
      </trkpt>
      <trkpt lat="43.40116" lon="1.74704">
        <ele>251.308</ele>
        <time>2016-12-30T12:07:22Z</time>
      </trkpt>
      <trkpt lat="43.4016" lon="1.74471">
        <ele>249.133</ele>
        <time>2016-12-30T12:07:42Z</time>
      </trkpt>
      <trkpt lat="43.40162" lon="1.74402">
        <ele>247.486</ele>
        <time>2016-12-30T12:08:02Z</time>
      </trkpt>
      <trkpt lat="43.40265" lon="1.73512">
        <ele>215.482</ele>
        <time>2016-12-30T12:08:22Z</time>
      </trkpt>
      <trkpt lat="43.40146" lon="1.73485">
        <ele>209.651</ele>
        <time>2016-12-30T12:08:42Z</time>
      </trkpt>
      <trkpt lat="43.40155" lon="1.73307">
        <ele>208.848</ele>
        <time>2016-12-30T12:09:02Z</time>
      </trkpt>
      <trkpt lat="43.40149" lon="1.73137">
        <ele>210.239</ele>
        <time>2016-12-30T12:09:22Z</time>
      </trkpt>
      <trkpt lat="43.40141" lon="1.73111">
        <ele>209.918</ele>
        <time>2016-12-30T12:09:42Z</time>
      </trkpt>
      <trkpt lat="43.40208" lon="1.72823">
        <ele>193.029</ele>
        <time>2016-12-30T12:10:02Z</time>
      </trkpt>
      <trkpt lat="43.40155" lon="1.72719">
        <ele>190.654</ele>
        <time>2016-12-30T12:10:22Z</time>
      </trkpt>
      <trkpt lat="43.40127" lon="1.72621">
        <ele>190.056</ele>
        <time>2016-12-30T12:10:42Z</time>
      </trkpt>
      <trkpt lat="43.40085" lon="1.7254">
        <ele>188.211</ele>
        <time>2016-12-30T12:11:02Z</time>
      </trkpt>
      <trkpt lat="43.40054" lon="1.72416">
        <ele>185.008</ele>
        <time>2016-12-30T12:11:22Z</time>
      </trkpt>
      <trkpt lat="43.40011" lon="1.72349">
        <ele>185.232</ele>
        <time>2016-12-30T12:11:42Z</time>
      </trkpt>
      <trkpt lat="43.39993" lon="1.72292">
        <ele>185.275</ele>
        <time>2016-12-30T12:12:02Z</time>
      </trkpt>
      <trkpt lat="43.39927" lon="1.72157">
        <ele>180.531</ele>
        <time>2016-12-30T12:12:22Z</time>
      </trkpt>
      <trkpt lat="43.39886" lon="1.71983">
        <ele>179.03</ele>
        <time>2016-12-30T12:12:42Z</time>
      </trkpt>
      <trkpt lat="43.39828" lon="1.7193">
        <ele>178.067</ele>
        <time>2016-12-30T12:13:02Z</time>
      </trkpt>
      <trkpt lat="43.39931" lon="1.71816">
        <ele>183.038</ele>
        <time>2021-04-17T14:23:30Z</time>
      </trkpt>
      <trkpt lat="43.39911" lon="1.71781">
        <ele>183.067</ele>
        <time>2021-04-17T14:23:50Z</time>
      </trkpt>
      <trkpt lat="43.40016" lon="1.7167">
        <ele>182.088</ele>
        <time>2021-04-17T14:24:10Z</time>
      </trkpt>
      <trkpt lat="43.40038" lon="1.71699">
        <ele>179.019</ele>
        <time>2016-12-30T12:13:22Z</time>
      </trkpt>
      <trkpt lat="43.40456" lon="1.72046">
        <ele>190.409</ele>
        <time>2016-12-30T12:13:42Z</time>
      </trkpt>
      <trkpt lat="43.40569" lon="1.72071">
        <ele>181.319</ele>
        <time>2016-12-30T12:14:02Z</time>
      </trkpt>
      <trkpt lat="43.40587" lon="1.72036">
        <ele>179.608</ele>
        <time>2016-12-30T12:14:22Z</time>
      </trkpt>
      <trkpt lat="43.4086" lon="1.72164">
        <ele>191.918</ele>
        <time>2016-12-30T12:14:42Z</time>
      </trkpt>
      <trkpt lat="43.409" lon="1.71962">
        <ele>182.961</ele>
        <time>2016-12-30T12:15:02Z</time>
      </trkpt>
      <trkpt lat="43.41059" lon="1.71998">
        <ele>182.227</ele>
        <time>2016-12-30T12:15:22Z</time>
      </trkpt>
      <trkpt lat="43.41074" lon="1.71948">
        <ele>180.296</ele>
        <time>2016-12-30T12:15:42Z</time>
      </trkpt>
      <trkpt lat="43.41162" lon="1.72005">
        <ele>185.223</ele>
        <time>2016-12-30T12:16:02Z</time>
      </trkpt>
      <trkpt lat="43.41178" lon="1.71962">
        <ele>183.614</ele>
        <time>2016-12-30T12:16:22Z</time>
      </trkpt>
      <trkpt lat="43.41185" lon="1.71882">
        <ele>180.013</ele>
        <time>2016-12-30T12:16:42Z</time>
      </trkpt>
      <trkpt lat="43.41167" lon="1.71859">
        <ele>180.084</ele>
        <time>2016-12-30T12:17:02Z</time>
      </trkpt>
      <trkpt lat="43.41159" lon="1.71831">
        <ele>180.352</ele>
        <time>2016-12-30T12:17:22Z</time>
      </trkpt>
      <trkpt lat="43.41183" lon="1.71798">
        <ele>186.353</ele>
        <time>2016-12-30T12:17:42Z</time>
      </trkpt>
      <trkpt lat="43.4119" lon="1.71685">
        <ele>205.808</ele>
        <time>2016-12-30T12:18:02Z</time>
      </trkpt>
      <trkpt lat="43.41118" lon="1.71634">
        <ele>205.008</ele>
        <time>2016-12-30T12:18:22Z</time>
      </trkpt>
      <trkpt lat="43.41314" lon="1.71577">
        <ele>210.062</ele>
        <time>2016-12-30T12:18:42Z</time>
      </trkpt>
      <trkpt lat="43.4141" lon="1.71586">
        <ele>209.875</ele>
        <time>2016-12-30T12:19:02Z</time>
      </trkpt>
      <trkpt lat="43.4147" lon="1.71434">
        <ele>206.681</ele>
        <time>2016-12-30T12:19:22Z</time>
      </trkpt>
      <trkpt lat="43.41524" lon="1.71331">
        <ele>201.67</ele>
        <time>2016-12-30T12:19:42Z</time>
      </trkpt>
      <trkpt lat="43.41555" lon="1.71237">
        <ele>197.597</ele>
        <time>2016-12-30T12:20:02Z</time>
      </trkpt>
      <trkpt lat="43.41602" lon="1.71205">
        <ele>198.178</ele>
        <time>2016-12-30T12:20:22Z</time>
      </trkpt>
      <trkpt lat="43.4162" lon="1.71016">
        <ele>190.697</ele>
        <time>2016-12-30T12:20:42Z</time>
      </trkpt>
      <trkpt lat="43.41633" lon="1.70993">
        <ele>189.738</ele>
        <time>2016-12-30T12:21:02Z</time>
      </trkpt>
      <trkpt lat="43.41733" lon="1.7105">
        <ele>189.213</ele>
        <time>2016-12-30T12:21:22Z</time>
      </trkpt>
      <trkpt lat="43.41866" lon="1.71152">
        <ele>192.643</ele>
        <time>2016-12-30T12:21:42Z</time>
      </trkpt>
      <trkpt lat="43.41949" lon="1.71166">
        <ele>189.307</ele>
        <time>2016-12-30T12:22:02Z</time>
      </trkpt>
      <trkpt lat="43.42075" lon="1.71263">
        <ele>199.508</ele>
        <time>2016-12-30T12:22:22Z</time>
      </trkpt>
      <trkpt lat="43.42159" lon="1.7137">
        <ele>201.878</ele>
        <time>2016-12-30T12:22:42Z</time>
      </trkpt>
      <trkpt lat="43.42169" lon="1.71451">
        <ele>203.251</ele>
        <time>2016-12-30T12:23:02Z</time>
      </trkpt>
      <trkpt lat="43.42116" lon="1.71572">
        <ele>206.617</ele>
        <time>2016-12-30T12:23:22Z</time>
      </trkpt>
      <trkpt lat="43.42205" lon="1.71661">
        <ele>205.516</ele>
        <time>2016-12-30T12:23:42Z</time>
      </trkpt>
      <trkpt lat="43.42249" lon="1.71573">
        <ele>201.183</ele>
        <time>2016-12-30T12:24:02Z</time>
      </trkpt>
      <trkpt lat="43.4235" lon="1.71475">
        <ele>195.484</ele>
        <time>2016-12-30T12:26:02Z</time>
      </trkpt>
      <trkpt lat="43.424" lon="1.71268">
        <ele>194.233</ele>
        <time>2016-12-30T12:26:22Z</time>
      </trkpt>
      <trkpt lat="43.42445" lon="1.71076">
        <ele>189.034</ele>
        <time>2016-12-30T12:26:42Z</time>
      </trkpt>
      <trkpt lat="43.42536" lon="1.7082">
        <ele>185.447</ele>
        <time>2016-12-30T12:28:02Z</time>
      </trkpt>
      <trkpt lat="43.42742" lon="1.70379">
        <ele>175.029</ele>
        <time>2016-12-30T12:28:22Z</time>
      </trkpt>
      <trkpt lat="43.42794" lon="1.70334">
        <ele>185.321</ele>
        <time>2016-12-30T12:28:42Z</time>
      </trkpt>
      <trkpt lat="43.42847" lon="1.70252">
        <ele>201.308</ele>
        <time>2016-12-30T12:29:02Z</time>
      </trkpt>
      <trkpt lat="43.42978" lon="1.70213">
        <ele>219.711</ele>
        <time>2016-12-30T12:29:22Z</time>
      </trkpt>
      <trkpt lat="43.43061" lon="1.70075">
        <ele>230.174</ele>
        <time>2016-12-30T12:29:42Z</time>
      </trkpt>
      <trkpt lat="43.43074" lon="1.70007">
        <ele>236.58</ele>
        <time>2016-12-30T12:30:02Z</time>
      </trkpt>
      <trkpt lat="43.43039" lon="1.69993">
        <ele>236.979</ele>
        <time>2016-12-30T12:30:22Z</time>
      </trkpt>
      <trkpt lat="43.43069" lon="1.69886">
        <ele>240.036</ele>
        <time>2016-12-30T12:30:42Z</time>
      </trkpt>
      <trkpt lat="43.43119" lon="1.69806">
        <ele>243.627</ele>
        <time>2016-12-30T12:31:02Z</time>
      </trkpt>
      <trkpt lat="43.4315" lon="1.69733">
        <ele>243.216</ele>
        <time>2016-12-30T12:31:22Z</time>
      </trkpt>
      <trkpt lat="43.43166" lon="1.69718">
        <ele>243.737</ele>
        <time>2016-12-30T12:31:42Z</time>
      </trkpt>
      <trkpt lat="43.43171" lon="1.69669">
        <ele>241.278</ele>
        <time>2016-12-30T12:32:02Z</time>
      </trkpt>
      <trkpt lat="43.43161" lon="1.69646">
        <ele>238.833</ele>
        <time>2016-12-30T12:32:22Z</time>
      </trkpt>
      <trkpt lat="43.43162" lon="1.6955">
        <ele>236.126</ele>
        <time>2016-12-30T12:32:42Z</time>
      </trkpt>
      <trkpt lat="43.43229" lon="1.69579">
        <ele>238.808</ele>
        <time>2016-12-30T12:33:02Z</time>
      </trkpt>
      <trkpt lat="43.43325" lon="1.69444">
        <ele>228.624</ele>
        <time>2016-12-30T12:33:22Z</time>
      </trkpt>
      <trkpt lat="43.43402" lon="1.69228">
        <ele>217.217</ele>
        <time>2016-12-30T12:33:42Z</time>
      </trkpt>
      <trkpt lat="43.43436" lon="1.69221">
        <ele>217.673</ele>
        <time>2016-12-30T12:34:02Z</time>
      </trkpt>
      <trkpt lat="43.43605" lon="1.68986">
        <ele>212.822</ele>
        <time>2016-12-30T12:34:22Z</time>
      </trkpt>
      <trkpt lat="43.43769" lon="1.68931">
        <ele>208.319</ele>
        <time>2016-12-30T12:34:42Z</time>
      </trkpt>
      <trkpt lat="43.43822" lon="1.6894">
        <ele>204.43</ele>
        <time>2016-12-30T12:35:02Z</time>
      </trkpt>
      <trkpt lat="43.43882" lon="1.68905">
        <ele>207.799</ele>
        <time>2016-12-30T12:35:22Z</time>
      </trkpt>
      <trkpt lat="43.4393" lon="1.68843">
        <ele>215.96</ele>
        <time>2016-12-30T12:35:42Z</time>
      </trkpt>
      <trkpt lat="43.44058" lon="1.68551">
        <ele>226.994</ele>
        <time>2016-12-30T12:36:02Z</time>
      </trkpt>
      <trkpt lat="43.44068" lon="1.6849">
        <ele>225.557</ele>
        <time>2016-12-30T12:36:22Z</time>
      </trkpt>
      <trkpt lat="43.44101" lon="1.68454">
        <ele>225.822</ele>
        <time>2016-12-30T12:36:42Z</time>
      </trkpt>
      <trkpt lat="43.44159" lon="1.68246">
        <ele>219.808</ele>
        <time>2016-12-30T12:37:02Z</time>
      </trkpt>
      <trkpt lat="43.44253" lon="1.67818">
        <ele>204.056</ele>
        <time>2016-12-30T12:37:22Z</time>
      </trkpt>
      <trkpt lat="43.44156" lon="1.67764">
        <ele>200.539</ele>
        <time>2016-12-30T12:37:42Z</time>
      </trkpt>
      <trkpt lat="43.44099" lon="1.67743">
        <ele>196.575</ele>
        <time>2016-12-30T12:38:02Z</time>
      </trkpt>
      <trkpt lat="43.44022" lon="1.67674">
        <ele>194.094</ele>
        <time>2016-12-30T12:38:22Z</time>
      </trkpt>
      <trkpt lat="43.43972" lon="1.67611">
        <ele>194.071</ele>
        <time>2016-12-30T12:39:22Z</time>
      </trkpt>
      <trkpt lat="43.44016" lon="1.67453">
        <ele>193.712</ele>
        <time>2016-12-30T12:39:42Z</time>
      </trkpt>
      <trkpt lat="43.44018" lon="1.67361">
        <ele>192.031</ele>
        <time>2016-12-30T12:40:42Z</time>
      </trkpt>
      <trkpt lat="43.44" lon="1.6727">
        <ele>192.072</ele>
        <time>2016-12-30T12:41:22Z</time>
      </trkpt>
      <trkpt lat="43.43969" lon="1.67207">
        <ele>192.417</ele>
        <time>2016-12-30T12:41:42Z</time>
      </trkpt>
      <trkpt lat="43.43986" lon="1.67073">
        <ele>189.587</ele>
        <time>2016-12-30T12:42:02Z</time>
      </trkpt>
      <trkpt lat="43.44064" lon="1.6689">
        <ele>185.015</ele>
        <time>2016-12-30T12:42:42Z</time>
      </trkpt>
      <trkpt lat="43.44111" lon="1.66823">
        <ele>183.008</ele>
        <time>2016-12-30T12:43:02Z</time>
      </trkpt>
      <trkpt lat="43.4413" lon="1.6674">
        <ele>181.328</ele>
        <time>2016-12-30T12:43:22Z</time>
      </trkpt>
      <trkpt lat="43.44144" lon="1.66524">
        <ele>179.571</ele>
        <time>2016-12-30T12:43:42Z</time>
      </trkpt>
      <trkpt lat="43.44109" lon="1.66474">
        <ele>179.167</ele>
        <time>2016-12-30T12:44:02Z</time>
      </trkpt>
      <trkpt lat="43.44107" lon="1.66427">
        <ele>175.716</ele>
        <time>2016-12-30T12:44:22Z</time>
      </trkpt>
      <trkpt lat="43.44121" lon="1.66303">
        <ele>170.243</ele>
        <time>2016-12-30T12:44:42Z</time>
      </trkpt>
      <trkpt lat="43.44151" lon="1.66289">
        <ele>171.944</ele>
        <time>2016-12-30T12:45:02Z</time>
      </trkpt>
      <trkpt lat="43.44234" lon="1.6634">
        <ele>179.373</ele>
        <time>2016-12-30T12:45:22Z</time>
      </trkpt>
      <trkpt lat="43.44273" lon="1.66406">
        <ele>175.364</ele>
        <time>2016-12-30T12:45:42Z</time>
      </trkpt>
      <trkpt lat="43.44302" lon="1.66425">
        <ele>175.066</ele>
        <time>2016-12-30T12:46:02Z</time>
      </trkpt>
      <trkpt lat="43.44365" lon="1.66415">
        <ele>176.229</ele>
        <time>2016-12-30T12:46:22Z</time>
      </trkpt>
      <trkpt lat="43.44395" lon="1.6639">
        <ele>179.621</ele>
        <time>2016-12-30T12:46:42Z</time>
      </trkpt>
      <trkpt lat="43.44425" lon="1.6642">
        <ele>175.008</ele>
        <time>2016-12-30T12:47:02Z</time>
      </trkpt>
      <trkpt lat="43.44449" lon="1.6642">
        <ele>175.143</ele>
        <time>2016-12-30T12:47:22Z</time>
      </trkpt>
      <trkpt lat="43.4446" lon="1.66458">
        <ele>175.266</ele>
        <time>2016-12-30T12:47:42Z</time>
      </trkpt>
      <trkpt lat="43.44487" lon="1.66451">
        <ele>175.432</ele>
        <time>2016-12-30T12:48:02Z</time>
      </trkpt>
      <trkpt lat="43.44504" lon="1.66471">
        <ele>175.291</ele>
        <time>2016-12-30T12:48:22Z</time>
      </trkpt>
      <trkpt lat="43.44523" lon="1.66473">
        <ele>175.888</ele>
        <time>2016-12-30T12:48:42Z</time>
      </trkpt>
      <trkpt lat="43.44538" lon="1.66545">
        <ele>178.549</ele>
        <time>2016-12-30T12:49:02Z</time>
      </trkpt>
      <trkpt lat="43.44558" lon="1.66534">
        <ele>179.178</ele>
        <time>2016-12-30T12:49:22Z</time>
      </trkpt>
      <trkpt lat="43.4464" lon="1.66425">
        <ele>200.519</ele>
        <time>2016-12-30T12:49:42Z</time>
      </trkpt>
      <trkpt lat="43.447" lon="1.66261">
        <ele>227.464</ele>
        <time>2016-12-30T12:50:02Z</time>
      </trkpt>
      <trkpt lat="43.44735" lon="1.66095">
        <ele>227.206</ele>
        <time>2016-12-30T12:50:22Z</time>
      </trkpt>
      <trkpt lat="43.44828" lon="1.66067">
        <ele>227.916</ele>
        <time>2016-12-30T12:50:42Z</time>
      </trkpt>
      <trkpt lat="43.45026" lon="1.66048">
        <ele>236.508</ele>
        <time>2016-12-30T12:51:02Z</time>
      </trkpt>
      <trkpt lat="43.45112" lon="1.66018">
        <ele>240.043</ele>
        <time>2016-12-30T12:51:22Z</time>
      </trkpt>
      <trkpt lat="43.45153" lon="1.65928">
        <ele>237.266</ele>
        <time>2016-12-30T12:51:42Z</time>
      </trkpt>
      <trkpt lat="43.45174" lon="1.65786">
        <ele>233.832</ele>
        <time>2016-12-30T12:52:02Z</time>
      </trkpt>
      <trkpt lat="43.45179" lon="1.65641">
        <ele>230.671</ele>
        <time>2016-12-30T12:52:22Z</time>
      </trkpt>
      <trkpt lat="43.45199" lon="1.65523">
        <ele>228.558</ele>
        <time>2016-12-30T12:52:42Z</time>
      </trkpt>
      <trkpt lat="43.45282" lon="1.65021">
        <ele>224.779</ele>
        <time>2016-12-30T12:53:02Z</time>
      </trkpt>
      <trkpt lat="43.45331" lon="1.64905">
        <ele>223.688</ele>
        <time>2016-12-30T12:53:22Z</time>
      </trkpt>
      <trkpt lat="43.45336" lon="1.64834">
        <ele>222.819</ele>
        <time>2016-12-30T12:53:42Z</time>
      </trkpt>
      <trkpt lat="43.45362" lon="1.64762">
        <ele>220.433</ele>
        <time>2016-12-30T12:54:02Z</time>
      </trkpt>
      <trkpt lat="43.4544" lon="1.64796">
        <ele>217.723</ele>
        <time>2016-12-30T12:54:22Z</time>
      </trkpt>
      <trkpt lat="43.45525" lon="1.64865">
        <ele>205.115</ele>
        <time>2016-12-30T12:54:42Z</time>
      </trkpt>
      <trkpt lat="43.45583" lon="1.64844">
        <ele>200.708</ele>
        <time>2016-12-30T12:55:02Z</time>
      </trkpt>
      <trkpt lat="43.45714" lon="1.64887">
        <ele>193.92</ele>
        <time>2016-12-30T12:55:22Z</time>
      </trkpt>
      <trkpt lat="43.45823" lon="1.6475">
        <ele>198.993</ele>
        <time>2016-12-30T12:55:42Z</time>
      </trkpt>
      <trkpt lat="43.45905" lon="1.64798">
        <ele>207.239</ele>
        <time>2016-12-30T12:56:02Z</time>
      </trkpt>
      <trkpt lat="43.45948" lon="1.64696">
        <ele>202.098</ele>
        <time>2016-12-30T12:56:22Z</time>
      </trkpt>
      <trkpt lat="43.46143" lon="1.64351">
        <ele>184.635</ele>
        <time>2016-12-30T12:56:42Z</time>
      </trkpt>
      <trkpt lat="43.46141" lon="1.64351">
        <ele>184.656</ele>
        <time>2016-12-30T12:57:42Z</time>
      </trkpt>
      <trkpt lat="43.46478" lon="1.64266">
        <ele>178.665</ele>
        <time>2016-12-30T12:58:02Z</time>
      </trkpt>
      <trkpt lat="43.46465" lon="1.64061">
        <ele>179.426</ele>
        <time>2016-12-30T12:59:02Z</time>
      </trkpt>
      <trkpt lat="43.46441" lon="1.63969">
        <ele>179.018</ele>
        <time>2016-12-30T12:59:22Z</time>
      </trkpt>
      <trkpt lat="43.46335" lon="1.63751">
        <ele>178.198</ele>
        <time>2016-12-30T12:59:42Z</time>
      </trkpt>
      <trkpt lat="43.46322" lon="1.63658">
        <ele>179.217</ele>
        <time>2016-12-30T13:00:02Z</time>
      </trkpt>
      <trkpt lat="43.46243" lon="1.63489">
        <ele>175.008</ele>
        <time>2016-12-30T13:00:22Z</time>
      </trkpt>
      <trkpt lat="43.46206" lon="1.63309">
        <ele>174.438</ele>
        <time>2016-12-30T13:00:42Z</time>
      </trkpt>
      <trkpt lat="43.46183" lon="1.6312">
        <ele>173.581</ele>
        <time>2016-12-30T13:01:02Z</time>
      </trkpt>
      <trkpt lat="43.46157" lon="1.62803">
        <ele>174.557</ele>
        <time>2016-12-30T13:01:22Z</time>
      </trkpt>
      <trkpt lat="43.46124" lon="1.62716">
        <ele>174.886</ele>
        <time>2016-12-30T13:01:42Z</time>
      </trkpt>
      <trkpt lat="43.46087" lon="1.62687">
        <ele>175.643</ele>
        <time>2016-12-30T13:02:02Z</time>
      </trkpt>
      <trkpt lat="43.4608" lon="1.62566">
        <ele>188.014</ele>
        <time>2016-12-30T13:02:22Z</time>
      </trkpt>
      <trkpt lat="43.46024" lon="1.6241">
        <ele>201.783</ele>
        <time>2016-12-30T13:02:42Z</time>
      </trkpt>
      <trkpt lat="43.45961" lon="1.62277">
        <ele>211.634</ele>
        <time>2016-12-30T13:03:02Z</time>
      </trkpt>
      <trkpt lat="43.45906" lon="1.62192">
        <ele>206.688</ele>
        <time>2016-12-30T13:03:22Z</time>
      </trkpt>
      <trkpt lat="43.45924" lon="1.62087">
        <ele>205.324</ele>
        <time>2016-12-30T13:03:42Z</time>
      </trkpt>
      <trkpt lat="43.45868" lon="1.6207">
        <ele>204.926</ele>
        <time>2016-12-30T13:04:02Z</time>
      </trkpt>
      <trkpt lat="43.45776" lon="1.61839">
        <ele>185.308</ele>
        <time>2016-12-30T13:04:22Z</time>
      </trkpt>
      <trkpt lat="43.4562" lon="1.616">
        <ele>164.225</ele>
        <time>2016-12-30T13:04:42Z</time>
      </trkpt>
      <trkpt lat="43.45557" lon="1.61537">
        <ele>163.078</ele>
        <time>2016-12-30T13:05:02Z</time>
      </trkpt>
      <trkpt lat="43.45501" lon="1.61511">
        <ele>162.094</ele>
        <time>2016-12-30T13:05:22Z</time>
      </trkpt>
      <trkpt lat="43.45499" lon="1.61387">
        <ele>163.063</ele>
        <time>2021-04-17T15:10:50Z</time>
      </trkpt>
      <trkpt lat="43.45466" lon="1.61372">
        <ele>160.67</ele>
        <time>2016-12-30T13:06:02Z</time>
      </trkpt>
      <trkpt lat="43.45405" lon="1.61338">
        <ele>160.011</ele>
        <time>2021-04-17T15:11:30Z</time>
      </trkpt>
      <trkpt lat="43.45415" lon="1.61328">
        <ele>160.02</ele>
        <time>2021-04-17T15:11:50Z</time>
      </trkpt>
      <trkpt lat="43.45432" lon="1.61324">
        <ele>158.051</ele>
        <time>2016-12-30T13:06:42Z</time>
      </trkpt>
      <trkpt lat="43.45457" lon="1.61275">
        <ele>158.919</ele>
        <time>2016-12-30T13:07:02Z</time>
      </trkpt>
      <trkpt lat="43.45452" lon="1.61123">
        <ele>158.309</ele>
        <time>2016-12-30T13:07:22Z</time>
      </trkpt>
      <trkpt lat="43.45489" lon="1.60924">
        <ele>157.019</ele>
        <time>2016-12-30T13:07:42Z</time>
      </trkpt>
      <trkpt lat="43.45486" lon="1.60869">
        <ele>157.008</ele>
        <time>2016-12-30T13:08:02Z</time>
      </trkpt>
      <trkpt lat="43.45493" lon="1.60822">
        <ele>157.038</ele>
        <time>2016-12-30T13:08:22Z</time>
      </trkpt>
      <trkpt lat="43.454" lon="1.60781">
        <ele>157.031</ele>
        <time>2016-12-30T13:08:42Z</time>
      </trkpt>
      <trkpt lat="43.45655" lon="1.60398">
        <ele>157.087</ele>
        <time>2016-12-30T13:09:02Z</time>
      </trkpt>
      <trkpt lat="43.45631" lon="1.60359">
        <ele>157.046</ele>
        <time>2016-12-30T13:09:42Z</time>
      </trkpt>
      <trkpt lat="43.45647" lon="1.59621">
        <ele>157.053</ele>
        <time>2016-12-30T13:10:02Z</time>
      </trkpt>
      <trkpt lat="43.45621" lon="1.59507">
        <ele>157.024</ele>
        <time>2016-12-30T13:10:22Z</time>
      </trkpt>
      <trkpt lat="43.45646" lon="1.59436">
        <ele>157.033</ele>
        <time>2016-12-30T13:10:42Z</time>
      </trkpt>
      <trkpt lat="43.45631" lon="1.59328">
        <ele>157.044</ele>
        <time>2016-12-30T13:11:02Z</time>
      </trkpt>
      <trkpt lat="43.45571" lon="1.5911">
        <ele>157.025</ele>
        <time>2016-12-30T13:11:22Z</time>
      </trkpt>
      <trkpt lat="43.45584" lon="1.58919">
        <ele>157.026</ele>
        <time>2016-12-30T13:11:42Z</time>
      </trkpt>
      <trkpt lat="43.45585" lon="1.58759">
        <ele>157.008</ele>
        <time>2016-12-30T13:12:02Z</time>
      </trkpt>
      <trkpt lat="43.45564" lon="1.58472">
        <ele>158.708</ele>
        <time>2016-12-30T13:12:22Z</time>
      </trkpt>
      <trkpt lat="43.45567" lon="1.58395">
        <ele>159.049</ele>
        <time>2016-12-30T13:12:42Z</time>
      </trkpt>
      <trkpt lat="43.45589" lon="1.58317">
        <ele>159.062</ele>
        <time>2016-12-30T13:13:02Z</time>
      </trkpt>
      <trkpt lat="43.4564" lon="1.58231">
        <ele>158.088</ele>
        <time>2016-12-30T13:13:22Z</time>
      </trkpt>
      <trkpt lat="43.45803" lon="1.57993">
        <ele>158.067</ele>
        <time>2016-12-30T13:13:42Z</time>
      </trkpt>
      <trkpt lat="43.45847" lon="1.57873">
        <ele>157.864</ele>
        <time>2016-12-30T13:14:02Z</time>
      </trkpt>
      <trkpt lat="43.4591" lon="1.57699">
        <ele>157.055</ele>
        <time>2016-12-30T13:14:22Z</time>
      </trkpt>
      <trkpt lat="43.46201" lon="1.57173">
        <ele>156.994</ele>
        <time>2016-12-30T13:14:42Z</time>
      </trkpt>
      <trkpt lat="43.46295" lon="1.57087">
        <ele>154.845</ele>
        <time>2016-12-30T13:15:02Z</time>
      </trkpt>
      <trkpt lat="43.46298" lon="1.57075">
        <ele>158.151</ele>
        <time>2021-04-17T15:20:30Z</time>
      </trkpt>
      <trkpt lat="43.46337" lon="1.57045">
        <ele>156.801</ele>
        <time>2021-04-17T15:20:50Z</time>
      </trkpt>
      <trkpt lat="43.46323" lon="1.57022">
        <ele>158.311</ele>
        <time>2021-04-17T15:21:10Z</time>
      </trkpt>
      <trkpt lat="43.46284" lon="1.5705">
        <ele>156.808</ele>
        <time>2016-12-30T13:17:22Z</time>
      </trkpt>
      <trkpt lat="43.46258" lon="1.57013">
        <ele>161.462</ele>
        <time>2016-12-30T13:18:42Z</time>
      </trkpt>
      <trkpt lat="43.46204" lon="1.57078">
        <ele>162.265</ele>
        <time>2016-12-30T13:19:02Z</time>
      </trkpt>
      <trkpt lat="43.45942" lon="1.57254">
        <ele>183.231</ele>
        <time>2016-12-30T13:19:22Z</time>
      </trkpt>
      <trkpt lat="43.45857" lon="1.57338">
        <ele>190.05</ele>
        <time>2016-12-30T13:19:42Z</time>
      </trkpt>
      <trkpt lat="43.45808" lon="1.57234">
        <ele>190.477</ele>
        <time>2016-12-30T13:20:02Z</time>
      </trkpt>
      <trkpt lat="43.45874" lon="1.5715">
        <ele>186.578</ele>
        <time>2016-12-30T13:20:22Z</time>
      </trkpt>
      <trkpt lat="43.45821" lon="1.57117">
        <ele>186.767</ele>
        <time>2016-12-30T13:20:42Z</time>
      </trkpt>
      <trkpt lat="43.45797" lon="1.57067">
        <ele>185.778</ele>
        <time>2016-12-30T13:21:02Z</time>
      </trkpt>
      <trkpt lat="43.45795" lon="1.57006">
        <ele>185.281</ele>
        <time>2016-12-30T13:21:22Z</time>
      </trkpt>
      <trkpt lat="43.45821" lon="1.56904">
        <ele>185.761</ele>
        <time>2016-12-30T13:21:42Z</time>
      </trkpt>
      <trkpt lat="43.45747" lon="1.56791">
        <ele>190.717</ele>
        <time>2016-12-30T13:22:02Z</time>
      </trkpt>
      <trkpt lat="43.45578" lon="1.56632">
        <ele>207.108</ele>
        <time>2016-12-30T13:22:22Z</time>
      </trkpt>
      <trkpt lat="43.45736" lon="1.56457">
        <ele>197.435</ele>
        <time>2016-12-30T13:22:42Z</time>
      </trkpt>
      <trkpt lat="43.45827" lon="1.56345">
        <ele>195.088</ele>
        <time>2016-12-30T13:23:02Z</time>
      </trkpt>
      <trkpt lat="43.45836" lon="1.56234">
        <ele>193.124</ele>
        <time>2016-12-30T13:23:22Z</time>
      </trkpt>
      <trkpt lat="43.45898" lon="1.56072">
        <ele>184.293</ele>
        <time>2016-12-30T13:24:22Z</time>
      </trkpt>
      <trkpt lat="43.4595" lon="1.55909">
        <ele>173.92</ele>
        <time>2016-12-30T13:24:42Z</time>
      </trkpt>
      <trkpt lat="43.46001" lon="1.55807">
        <ele>170.181</ele>
        <time>2016-12-30T13:25:02Z</time>
      </trkpt>
      <trkpt lat="43.4597" lon="1.55634">
        <ele>174.16</ele>
        <time>2016-12-30T13:25:22Z</time>
      </trkpt>
      <trkpt lat="43.45917" lon="1.55482">
        <ele>175.041</ele>
        <time>2016-12-30T13:25:42Z</time>
      </trkpt>
      <trkpt lat="43.4591" lon="1.55423">
        <ele>175.098</ele>
        <time>2016-12-30T13:26:02Z</time>
      </trkpt>
      <trkpt lat="43.45942" lon="1.55336">
        <ele>176.615</ele>
        <time>2016-12-30T13:26:22Z</time>
      </trkpt>
      <trkpt lat="43.45913" lon="1.5526">
        <ele>182.626</ele>
        <time>2016-12-30T13:26:42Z</time>
      </trkpt>
      <trkpt lat="43.45839" lon="1.55157">
        <ele>183.808</ele>
        <time>2016-12-30T13:27:02Z</time>
      </trkpt>
      <trkpt lat="43.458" lon="1.55054">
        <ele>187.536</ele>
        <time>2016-12-30T13:28:22Z</time>
      </trkpt>
      <trkpt lat="43.4579" lon="1.5497">
        <ele>191.059</ele>
        <time>2016-12-30T13:28:42Z</time>
      </trkpt>
      <trkpt lat="43.45826" lon="1.54785">
        <ele>209.765</ele>
        <time>2016-12-30T13:29:02Z</time>
      </trkpt>
      <trkpt lat="43.45816" lon="1.54547">
        <ele>230.084</ele>
        <time>2016-12-30T13:29:22Z</time>
      </trkpt>
      <trkpt lat="43.45795" lon="1.54382">
        <ele>237.051</ele>
        <time>2016-12-30T13:29:42Z</time>
      </trkpt>
      <trkpt lat="43.45807" lon="1.5429">
        <ele>238.082</ele>
        <time>2016-12-30T13:30:02Z</time>
      </trkpt>
      <trkpt lat="43.45811" lon="1.54247">
        <ele>238.811</ele>
        <time>2016-12-30T13:30:22Z</time>
      </trkpt>
      <trkpt lat="43.45889" lon="1.54076">
        <ele>229.132</ele>
        <time>2016-12-30T13:30:42Z</time>
      </trkpt>
      <trkpt lat="43.45916" lon="1.53952">
        <ele>224.374</ele>
        <time>2016-12-30T13:31:02Z</time>
      </trkpt>
      <trkpt lat="43.45981" lon="1.53769">
        <ele>215.256</ele>
        <time>2016-12-30T13:31:22Z</time>
      </trkpt>
      <trkpt lat="43.45983" lon="1.53726">
        <ele>214.021</ele>
        <time>2016-12-30T13:31:42Z</time>
      </trkpt>
      <trkpt lat="43.46079" lon="1.53405">
        <ele>201.408</ele>
        <time>2016-12-30T13:32:02Z</time>
      </trkpt>
      <trkpt lat="43.46109" lon="1.53357">
        <ele>199.174</ele>
        <time>2016-12-30T13:32:22Z</time>
      </trkpt>
      <trkpt lat="43.46151" lon="1.53225">
        <ele>193.617</ele>
        <time>2016-12-30T13:32:42Z</time>
      </trkpt>
      <trkpt lat="43.46173" lon="1.53179">
        <ele>191.543</ele>
        <time>2016-12-30T13:33:02Z</time>
      </trkpt>
      <trkpt lat="43.46167" lon="1.53134">
        <ele>190.042</ele>
        <time>2016-12-30T13:33:22Z</time>
      </trkpt>
      <trkpt lat="43.46358" lon="1.53042">
        <ele>197.119</ele>
        <time>2021-04-17T15:35:10Z</time>
      </trkpt>
      <trkpt lat="43.46356" lon="1.53021">
        <ele>196.28</ele>
        <time>2021-04-17T15:35:30Z</time>
      </trkpt>
      <trkpt lat="43.46348" lon="1.5301">
        <ele>195.939</ele>
        <time>2021-04-17T15:35:50Z</time>
      </trkpt>
      <trkpt lat="43.46349" lon="1.52997">
        <ele>195.54</ele>
        <time>2021-04-17T15:36:10Z</time>
      </trkpt>
      <trkpt lat="43.46342" lon="1.52952">
        <ele>196.916</ele>
        <time>2021-04-17T15:36:30Z</time>
      </trkpt>
      <trkpt lat="43.46327" lon="1.52907">
        <ele>198.776</ele>
        <time>2021-04-17T15:36:50Z</time>
      </trkpt>
      <trkpt lat="43.46311" lon="1.52877">
        <ele>200.213</ele>
        <time>2021-04-17T15:37:10Z</time>
      </trkpt>
      <trkpt lat="43.46314" lon="1.52861">
        <ele>200.708</ele>
        <time>2021-04-17T15:37:30Z</time>
      </trkpt>
      <trkpt lat="43.46308" lon="1.5283">
        <ele>201.888</ele>
        <time>2021-04-17T15:37:50Z</time>
      </trkpt>
      <trkpt lat="43.463" lon="1.52799">
        <ele>202.281</ele>
        <time>2021-04-17T15:38:10Z</time>
      </trkpt>
      <trkpt lat="43.4631" lon="1.5279">
        <ele>202.417</ele>
        <time>2021-04-17T15:38:30Z</time>
      </trkpt>
      <trkpt lat="43.46343" lon="1.52668">
        <ele>206.896</ele>
        <time>2016-12-30T13:35:02Z</time>
      </trkpt>
      <trkpt lat="43.46376" lon="1.52606">
        <ele>217.863</ele>
        <time>2021-04-17T15:39:10Z</time>
      </trkpt>
      <trkpt lat="43.46546" lon="1.52429">
        <ele>247.174</ele>
        <time>2016-12-30T13:35:42Z</time>
      </trkpt>
      <trkpt lat="43.46603" lon="1.52104">
        <ele>261.093</ele>
        <time>2016-12-30T13:36:02Z</time>
      </trkpt>
      <trkpt lat="43.46557" lon="1.52001">
        <ele>260.324</ele>
        <time>2021-04-17T15:40:10Z</time>
      </trkpt>
      <trkpt lat="43.46607" lon="1.51768">
        <ele>253.961</ele>
        <time>2016-12-30T13:36:42Z</time>
      </trkpt>
      <trkpt lat="43.46648" lon="1.51718">
        <ele>252.921</ele>
        <time>2016-12-30T13:37:02Z</time>
      </trkpt>
      <trkpt lat="43.46719" lon="1.51384">
        <ele>234.013</ele>
        <time>2016-12-30T13:37:22Z</time>
      </trkpt>
      <trkpt lat="43.46845" lon="1.51133">
        <ele>225.508</ele>
        <time>2016-12-30T13:37:42Z</time>
      </trkpt>
      <trkpt lat="43.46859" lon="1.51047">
        <ele>220.373</ele>
        <time>2016-12-30T13:38:02Z</time>
      </trkpt>
      <trkpt lat="43.46923" lon="1.50874">
        <ele>215.476</ele>
        <time>2016-12-30T13:38:22Z</time>
      </trkpt>
      <trkpt lat="43.46954" lon="1.50808">
        <ele>215.052</ele>
        <time>2016-12-30T13:38:42Z</time>
      </trkpt>
      <trkpt lat="43.4698" lon="1.50737">
        <ele>215.431</ele>
        <time>2016-12-30T13:39:02Z</time>
      </trkpt>
      <trkpt lat="43.47038" lon="1.50585">
        <ele>214.448</ele>
        <time>2016-12-30T13:39:22Z</time>
      </trkpt>
      <trkpt lat="43.47099" lon="1.50292">
        <ele>209.999</ele>
        <time>2016-12-30T13:39:42Z</time>
      </trkpt>
      <trkpt lat="43.4709" lon="1.50225">
        <ele>209.258</ele>
        <time>2016-12-30T13:40:02Z</time>
      </trkpt>
      <trkpt lat="43.47088" lon="1.49983">
        <ele>213.179</ele>
        <time>2021-04-17T15:44:10Z</time>
      </trkpt>
      <trkpt lat="43.47064" lon="1.49958">
        <ele>212.369</ele>
        <time>2021-04-17T15:44:30Z</time>
      </trkpt>
      <trkpt lat="43.47069" lon="1.49738">
        <ele>201.004</ele>
        <time>2016-12-30T13:41:02Z</time>
      </trkpt>
      <trkpt lat="43.47098" lon="1.49537">
        <ele>200.324</ele>
        <time>2016-12-30T13:41:22Z</time>
      </trkpt>
      <trkpt lat="43.47256" lon="1.49574">
        <ele>222.108</ele>
        <time>2016-12-30T13:41:42Z</time>
      </trkpt>
      <trkpt lat="43.47313" lon="1.49516">
        <ele>232.833</ele>
        <time>2016-12-30T13:42:02Z</time>
      </trkpt>
      <trkpt lat="43.4733" lon="1.4948">
        <ele>234.696</ele>
        <time>2016-12-30T13:42:22Z</time>
      </trkpt>
      <trkpt lat="43.47349" lon="1.49506">
        <ele>236.342</ele>
        <time>2016-12-30T13:42:42Z</time>
      </trkpt>
      <trkpt lat="43.47417" lon="1.49502">
        <ele>236.021</ele>
        <time>2016-12-30T13:43:02Z</time>
      </trkpt>
      <trkpt lat="43.47473" lon="1.49518">
        <ele>232.788</ele>
        <time>2016-12-30T13:43:22Z</time>
      </trkpt>
      <trkpt lat="43.47524" lon="1.49492">
        <ele>233.419</ele>
        <time>2016-12-30T13:43:42Z</time>
      </trkpt>
      <trkpt lat="43.47597" lon="1.49427">
        <ele>243.428</ele>
        <time>2016-12-30T13:44:02Z</time>
      </trkpt>
      <trkpt lat="43.47629" lon="1.49372">
        <ele>248.579</ele>
        <time>2016-12-30T13:44:22Z</time>
      </trkpt>
      <trkpt lat="43.47651" lon="1.49289">
        <ele>247.193</ele>
        <time>2016-12-30T13:44:42Z</time>
      </trkpt>
      <trkpt lat="43.4767" lon="1.49168">
        <ele>246.065</ele>
        <time>2016-12-30T13:45:02Z</time>
      </trkpt>
      <trkpt lat="43.478" lon="1.4904">
        <ele>239.821</ele>
        <time>2016-12-30T13:45:22Z</time>
      </trkpt>
      <trkpt lat="43.47888" lon="1.48901">
        <ele>236.808</ele>
        <time>2016-12-30T13:45:42Z</time>
      </trkpt>
      <trkpt lat="43.48045" lon="1.48707">
        <ele>234.746</ele>
        <time>2016-12-30T13:46:02Z</time>
      </trkpt>
      <trkpt lat="43.4828" lon="1.48632">
        <ele>204.619</ele>
        <time>2016-12-30T13:46:22Z</time>
      </trkpt>
      <trkpt lat="43.48568" lon="1.4849">
        <ele>245.195</ele>
        <time>2016-12-30T13:47:22Z</time>
      </trkpt>
      <trkpt lat="43.48679" lon="1.48331">
        <ele>262.774</ele>
        <time>2016-12-30T13:47:42Z</time>
      </trkpt>
      <trkpt lat="43.48668" lon="1.48438">
        <ele>263.921</ele>
        <time>2016-12-30T13:48:02Z</time>
      </trkpt>
      <trkpt lat="43.48687" lon="1.4854">
        <ele>266.522</ele>
        <time>2016-12-30T13:48:22Z</time>
      </trkpt>
      <trkpt lat="43.48747" lon="1.48456">
        <ele>274.891</ele>
        <time>2016-12-30T13:48:42Z</time>
      </trkpt>
      <trkpt lat="43.48792" lon="1.48331">
        <ele>275.032</ele>
        <time>2016-12-30T13:49:02Z</time>
      </trkpt>
      <trkpt lat="43.48834" lon="1.48203">
        <ele>271.051</ele>
        <time>2016-12-30T13:49:22Z</time>
      </trkpt>
      <trkpt lat="43.4892" lon="1.48105">
        <ele>270.001</ele>
        <time>2016-12-30T13:49:42Z</time>
      </trkpt>
      <trkpt lat="43.48936" lon="1.4805">
        <ele>270.011</ele>
        <time>2016-12-30T13:50:02Z</time>
      </trkpt>
      <trkpt lat="43.48969" lon="1.47963">
        <ele>269.808</ele>
        <time>2016-12-30T13:50:22Z</time>
      </trkpt>
      <trkpt lat="43.49017" lon="1.47921">
        <ele>269.962</ele>
        <time>2016-12-30T13:50:42Z</time>
      </trkpt>
      <trkpt lat="43.49058" lon="1.47755">
        <ele>264.365</ele>
        <time>2016-12-30T13:51:02Z</time>
      </trkpt>
      <trkpt lat="43.48939" lon="1.47665">
        <ele>249.221</ele>
        <time>2016-12-30T13:51:22Z</time>
      </trkpt>
      <trkpt lat="43.48955" lon="1.47597">
        <ele>246.07</ele>
        <time>2016-12-30T13:51:42Z</time>
      </trkpt>
      <trkpt lat="43.48965" lon="1.4751">
        <ele>242.187</ele>
        <time>2016-12-30T13:52:02Z</time>
      </trkpt>
      <trkpt lat="43.48981" lon="1.47465">
        <ele>239.748</ele>
        <time>2016-12-30T13:52:22Z</time>
      </trkpt>
      <trkpt lat="43.48978" lon="1.47429">
        <ele>240.037</ele>
        <time>2016-12-30T13:52:42Z</time>
      </trkpt>
      <trkpt lat="43.49014" lon="1.47356">
        <ele>236.258</ele>
        <time>2016-12-30T13:53:02Z</time>
      </trkpt>
      <trkpt lat="43.49053" lon="1.47314">
        <ele>232.751</ele>
        <time>2016-12-30T13:53:22Z</time>
      </trkpt>
      <trkpt lat="43.49129" lon="1.47298">
        <ele>233.601</ele>
        <time>2016-12-30T13:53:42Z</time>
      </trkpt>
      <trkpt lat="43.49193" lon="1.47201">
        <ele>227.811</ele>
        <time>2016-12-30T13:54:02Z</time>
      </trkpt>
      <trkpt lat="43.49328" lon="1.47038">
        <ele>223.408</ele>
        <time>2016-12-30T13:54:22Z</time>
      </trkpt>
      <trkpt lat="43.49458" lon="1.46876">
        <ele>215.562</ele>
        <time>2016-12-30T13:54:42Z</time>
      </trkpt>
      <trkpt lat="43.49583" lon="1.46746">
        <ele>209.265</ele>
        <time>2016-12-30T13:55:02Z</time>
      </trkpt>
      <trkpt lat="43.49643" lon="1.46689">
        <ele>203.431</ele>
        <time>2016-12-30T13:55:22Z</time>
      </trkpt>
      <trkpt lat="43.49682" lon="1.46676">
        <ele>203.27</ele>
        <time>2016-12-30T13:55:42Z</time>
      </trkpt>
      <trkpt lat="43.49833" lon="1.46517">
        <ele>194.087</ele>
        <time>2016-12-30T13:56:02Z</time>
      </trkpt>
      <trkpt lat="43.49855" lon="1.46582">
        <ele>195.568</ele>
        <time>2016-12-30T13:56:22Z</time>
      </trkpt>
      <trkpt lat="43.49886" lon="1.46843">
        <ele>212.597</ele>
        <time>2016-12-30T13:56:42Z</time>
      </trkpt>
      <trkpt lat="43.49976" lon="1.46972">
        <ele>220.568</ele>
        <time>2016-12-30T13:57:02Z</time>
      </trkpt>
      <trkpt lat="43.50039" lon="1.47009">
        <ele>225.344</ele>
        <time>2016-12-30T13:57:22Z</time>
      </trkpt>
      <trkpt lat="43.50094" lon="1.47099">
        <ele>231.305</ele>
        <time>2016-12-30T13:57:42Z</time>
      </trkpt>
      <trkpt lat="43.5011" lon="1.47209">
        <ele>234.915</ele>
        <time>2016-12-30T13:58:02Z</time>
      </trkpt>
      <trkpt lat="43.50202" lon="1.46957">
        <ele>236.108</ele>
        <time>2016-12-30T13:58:22Z</time>
      </trkpt>
      <trkpt lat="43.50201" lon="1.46923">
        <ele>235.241</ele>
        <time>2016-12-30T13:58:42Z</time>
      </trkpt>
      <trkpt lat="43.50222" lon="1.46954">
        <ele>235.054</ele>
        <time>2016-12-30T13:59:02Z</time>
      </trkpt>
      <trkpt lat="43.50255" lon="1.47043">
        <ele>233.36</ele>
        <time>2016-12-30T13:59:22Z</time>
      </trkpt>
      <trkpt lat="43.50306" lon="1.47136">
        <ele>237.869</ele>
        <time>2016-12-30T13:59:42Z</time>
      </trkpt>
      <trkpt lat="43.50282" lon="1.47275">
        <ele>244.956</ele>
        <time>2016-12-30T14:00:02Z</time>
      </trkpt>
      <trkpt lat="43.50478" lon="1.47452">
        <ele>253.537</ele>
        <time>2016-12-30T14:00:22Z</time>
      </trkpt>
      <trkpt lat="43.50629" lon="1.47503">
        <ele>255.636</ele>
        <time>2016-12-30T14:00:42Z</time>
      </trkpt>
      <trkpt lat="43.50742" lon="1.47442">
        <ele>270.087</ele>
        <time>2016-12-30T14:01:02Z</time>
      </trkpt>
      <trkpt lat="43.50773" lon="1.47394">
        <ele>271.042</ele>
        <time>2016-12-30T14:01:22Z</time>
      </trkpt>
      <trkpt lat="43.5081" lon="1.47415">
        <ele>271.922</ele>
        <time>2016-12-30T14:01:42Z</time>
      </trkpt>
      <trkpt lat="43.50932" lon="1.47444">
        <ele>274.014</ele>
        <time>2016-12-30T14:02:02Z</time>
      </trkpt>
      <trkpt lat="43.50996" lon="1.47372">
        <ele>271.508</ele>
        <time>2016-12-30T14:02:22Z</time>
      </trkpt>
      <trkpt lat="43.51113" lon="1.47177">
        <ele>275.021</ele>
        <time>2016-12-30T14:02:42Z</time>
      </trkpt>
      <trkpt lat="43.51174" lon="1.47047">
        <ele>272.074</ele>
        <time>2016-12-30T14:03:02Z</time>
      </trkpt>
      <trkpt lat="43.51232" lon="1.47192">
        <ele>271.18</ele>
        <time>2016-12-30T14:03:22Z</time>
      </trkpt>
      <trkpt lat="43.5131" lon="1.4729">
        <ele>257.879</ele>
        <time>2016-12-30T14:03:42Z</time>
      </trkpt>
      <trkpt lat="43.51397" lon="1.47437">
        <ele>258.736</ele>
        <time>2016-12-30T14:04:02Z</time>
      </trkpt>
      <trkpt lat="43.51445" lon="1.47309">
        <ele>255.067</ele>
        <time>2016-12-30T14:04:22Z</time>
      </trkpt>
      <trkpt lat="43.51435" lon="1.47281">
        <ele>252.986</ele>
        <time>2016-12-30T14:04:42Z</time>
      </trkpt>
      <trkpt lat="43.51384" lon="1.47242">
        <ele>251.767</ele>
        <time>2016-12-30T14:05:02Z</time>
      </trkpt>
      <trkpt lat="43.51386" lon="1.47172">
        <ele>254.955</ele>
        <time>2016-12-30T14:05:22Z</time>
      </trkpt>
      <trkpt lat="43.51428" lon="1.46996">
        <ele>259.707</ele>
        <time>2016-12-30T14:05:42Z</time>
      </trkpt>
      <trkpt lat="43.51438" lon="1.46851">
        <ele>265.817</ele>
        <time>2016-12-30T14:07:22Z</time>
      </trkpt>
      <trkpt lat="43.51469" lon="1.46812">
        <ele>265.208</ele>
        <time>2016-12-30T14:07:42Z</time>
      </trkpt>
      <trkpt lat="43.51506" lon="1.46699">
        <ele>265.582</ele>
        <time>2016-12-30T14:08:02Z</time>
      </trkpt>
      <trkpt lat="43.51545" lon="1.46611">
        <ele>265.825</ele>
        <time>2016-12-30T14:08:22Z</time>
      </trkpt>
      <trkpt lat="43.51565" lon="1.46547">
        <ele>266.141</ele>
        <time>2016-12-30T14:08:42Z</time>
      </trkpt>
      <trkpt lat="43.51709" lon="1.46258">
        <ele>270.09</ele>
        <time>2016-12-30T14:09:02Z</time>
      </trkpt>
      <trkpt lat="43.51591" lon="1.46236">
        <ele>270.017</ele>
        <time>2016-12-30T14:09:22Z</time>
      </trkpt>
      <trkpt lat="43.51621" lon="1.46073">
        <ele>268.518</ele>
        <time>2016-12-30T14:09:42Z</time>
      </trkpt>
      <trkpt lat="43.51653" lon="1.45969">
        <ele>263.917</ele>
        <time>2016-12-30T14:11:02Z</time>
      </trkpt>
      <trkpt lat="43.51825" lon="1.46073">
        <ele>270.038</ele>
        <time>2016-12-30T14:11:22Z</time>
      </trkpt>
      <trkpt lat="43.51901" lon="1.46092">
        <ele>270.079</ele>
        <time>2016-12-30T14:11:42Z</time>
      </trkpt>
      <trkpt lat="43.51943" lon="1.4592">
        <ele>265.905</ele>
        <time>2016-12-30T14:12:02Z</time>
      </trkpt>
      <trkpt lat="43.52023" lon="1.4581">
        <ele>261.825</ele>
        <time>2016-12-30T14:12:42Z</time>
      </trkpt>
      <trkpt lat="43.52209" lon="1.4552">
        <ele>240.508</ele>
        <time>2016-12-30T14:13:02Z</time>
      </trkpt>
      <trkpt lat="43.52239" lon="1.45437">
        <ele>232.314</ele>
        <time>2016-12-30T14:13:22Z</time>
      </trkpt>
      <trkpt lat="43.52276" lon="1.45371">
        <ele>224.717</ele>
        <time>2016-12-30T14:13:42Z</time>
      </trkpt>
      <trkpt lat="43.5228" lon="1.45347">
        <ele>223.043</ele>
        <time>2016-12-30T14:14:02Z</time>
      </trkpt>
      <trkpt lat="43.52421" lon="1.45435">
        <ele>232.612</ele>
        <time>2016-12-30T14:14:22Z</time>
      </trkpt>
      <trkpt lat="43.52474" lon="1.45532">
        <ele>229.349</ele>
        <time>2016-12-30T14:14:42Z</time>
      </trkpt>
      <trkpt lat="43.52477" lon="1.45565">
        <ele>226.49</ele>
        <time>2016-12-30T14:15:02Z</time>
      </trkpt>
      <trkpt lat="43.52586" lon="1.45674">
        <ele>213.869</ele>
        <time>2016-12-30T14:15:22Z</time>
      </trkpt>
      <trkpt lat="43.52667" lon="1.45776">
        <ele>235.82</ele>
        <time>2016-12-30T14:15:42Z</time>
      </trkpt>
      <trkpt lat="43.527" lon="1.45838">
        <ele>247.125</ele>
        <time>2016-12-30T14:16:02Z</time>
      </trkpt>
      <trkpt lat="43.52753" lon="1.45898">
        <ele>255.026</ele>
        <time>2016-12-30T14:16:22Z</time>
      </trkpt>
      <trkpt lat="43.52956" lon="1.45625">
        <ele>244.008</ele>
        <time>2016-12-30T14:16:42Z</time>
      </trkpt>
      <trkpt lat="43.52975" lon="1.45641">
        <ele>241.508</ele>
        <time>2016-12-30T14:17:02Z</time>
      </trkpt>
      <trkpt lat="43.53048" lon="1.45594">
        <ele>231.569</ele>
        <time>2016-12-30T14:17:22Z</time>
      </trkpt>
      <trkpt lat="43.53145" lon="1.45579">
        <ele>214.442</ele>
        <time>2016-12-30T14:17:42Z</time>
      </trkpt>
      <trkpt lat="43.53224" lon="1.45537">
        <ele>205.858</ele>
        <time>2016-12-30T14:18:02Z</time>
      </trkpt>
      <trkpt lat="43.53278" lon="1.45551">
        <ele>197.537</ele>
        <time>2016-12-30T14:18:22Z</time>
      </trkpt>
      <trkpt lat="43.53392" lon="1.45665">
        <ele>175.734</ele>
        <time>2016-12-30T14:20:22Z</time>
      </trkpt>
      <trkpt lat="43.53453" lon="1.45691">
        <ele>174.955</ele>
        <time>2016-12-30T14:20:42Z</time>
      </trkpt>
      <trkpt lat="43.53489" lon="1.45728">
        <ele>184.074</ele>
        <time>2016-12-30T14:21:02Z</time>
      </trkpt>
      <trkpt lat="43.53462" lon="1.45785">
        <ele>184.885</ele>
        <time>2016-12-30T14:21:42Z</time>
      </trkpt>
      <trkpt lat="43.53461" lon="1.45825">
        <ele>189.289</ele>
        <time>2016-12-30T14:22:02Z</time>
      </trkpt>
      <trkpt lat="43.53443" lon="1.45867">
        <ele>189.206</ele>
        <time>2016-12-30T14:22:22Z</time>
      </trkpt>
      <trkpt lat="43.53411" lon="1.45852">
        <ele>181.726</ele>
        <time>2016-12-30T14:22:42Z</time>
      </trkpt>
      <trkpt lat="43.53399" lon="1.45882">
        <ele>182.208</ele>
        <time>2016-12-30T14:23:02Z</time>
      </trkpt>
      <trkpt lat="43.53415" lon="1.45904">
        <ele>186.695</ele>
        <time>2016-12-30T14:23:22Z</time>
      </trkpt>
      <trkpt lat="43.53388" lon="1.45951">
        <ele>185.388</ele>
        <time>2016-12-30T14:23:42Z</time>
      </trkpt>
      <trkpt lat="43.53326" lon="1.45924">
        <ele>180.254</ele>
        <time>2016-12-30T14:24:02Z</time>
      </trkpt>
      <trkpt lat="43.53275" lon="1.46086">
        <ele>181.333</ele>
        <time>2016-12-30T14:24:22Z</time>
      </trkpt>
      <trkpt lat="43.53271" lon="1.46132">
        <ele>182.33</ele>
        <time>2016-12-30T14:24:42Z</time>
      </trkpt>
      <trkpt lat="43.53296" lon="1.46105">
        <ele>181.871</ele>
        <time>2016-12-30T14:25:02Z</time>
      </trkpt>
      <trkpt lat="43.53317" lon="1.46037">
        <ele>180.51</ele>
        <time>2016-12-30T14:25:22Z</time>
      </trkpt>
      <trkpt lat="43.5349" lon="1.45894">
        <ele>203.481</ele>
        <time>2016-12-30T14:26:02Z</time>
      </trkpt>
      <trkpt lat="43.53582" lon="1.4586">
        <ele>217.515</ele>
        <time>2016-12-30T14:26:22Z</time>
      </trkpt>
      <trkpt lat="43.53781" lon="1.45724">
        <ele>236.765</ele>
        <time>2016-12-30T14:26:42Z</time>
      </trkpt>
      <trkpt lat="43.53949" lon="1.45498">
        <ele>240.211</ele>
        <time>2021-04-17T16:25:10Z</time>
      </trkpt>
      <trkpt lat="43.53986" lon="1.45483">
        <ele>245.008</ele>
        <time>2021-04-17T16:25:30Z</time>
      </trkpt>
      <trkpt lat="43.54094" lon="1.45467">
        <ele>252.028</ele>
        <time>2021-04-17T16:25:50Z</time>
      </trkpt>
      <trkpt lat="43.54341" lon="1.45702">
        <ele>228.781</ele>
        <time>2021-04-17T16:26:10Z</time>
      </trkpt>
      <trkpt lat="43.54512" lon="1.45418">
        <ele>232.097</ele>
        <time>2016-12-30T14:29:02Z</time>
      </trkpt>
      <trkpt lat="43.54522" lon="1.45371">
        <ele>231.286</ele>
        <time>2016-12-30T14:29:22Z</time>
      </trkpt>
      <trkpt lat="43.54563" lon="1.45297">
        <ele>231.543</ele>
        <time>2021-04-17T16:27:10Z</time>
      </trkpt>
      <trkpt lat="43.54586" lon="1.45316">
        <ele>231.584</ele>
        <time>2021-04-17T16:27:30Z</time>
      </trkpt>
      <trkpt lat="43.54637" lon="1.45298">
        <ele>227.023</ele>
        <time>2016-12-30T14:30:02Z</time>
      </trkpt>
      <trkpt lat="43.54677" lon="1.45304">
        <ele>227.054</ele>
        <time>2016-12-30T14:30:22Z</time>
      </trkpt>
      <trkpt lat="43.54836" lon="1.45382">
        <ele>234.113</ele>
        <time>2016-12-30T14:30:42Z</time>
      </trkpt>
      <trkpt lat="43.54846" lon="1.4537">
        <ele>234.243</ele>
        <time>2016-12-30T14:31:02Z</time>
      </trkpt>
      <trkpt lat="43.54877" lon="1.45389">
        <ele>234.407</ele>
        <time>2016-12-30T14:31:22Z</time>
      </trkpt>
      <trkpt lat="43.54902" lon="1.45388">
        <ele>233.508</ele>
        <time>2016-12-30T14:31:42Z</time>
      </trkpt>
      <trkpt lat="43.54927" lon="1.45405">
        <ele>233.978</ele>
        <time>2016-12-30T14:32:02Z</time>
      </trkpt>
      <trkpt lat="43.54947" lon="1.45366">
        <ele>231.351</ele>
        <time>2016-12-30T14:32:22Z</time>
      </trkpt>
      <trkpt lat="43.54948" lon="1.45266">
        <ele>230.037</ele>
        <time>2016-12-30T14:32:42Z</time>
      </trkpt>
      <trkpt lat="43.54964" lon="1.45184">
        <ele>230.026</ele>
        <time>2016-12-30T14:33:02Z</time>
      </trkpt>
      <trkpt lat="43.54989" lon="1.452">
        <ele>230.063</ele>
        <time>2016-12-30T14:33:22Z</time>
      </trkpt>
      <trkpt lat="43.55026" lon="1.45163">
        <ele>230.064</ele>
        <time>2016-12-30T14:33:42Z</time>
      </trkpt>
      <trkpt lat="43.55051" lon="1.45162">
        <ele>228.543</ele>
        <time>2016-12-30T14:34:22Z</time>
      </trkpt>
      <trkpt lat="43.55088" lon="1.45205">
        <ele>224.344</ele>
        <time>2019-12-05T19:43:52Z</time>
      </trkpt>
      <trkpt lat="43.55174" lon="1.4515">
        <ele>217.896</ele>
        <time>2019-12-05T19:44:12Z</time>
      </trkpt>
      <trkpt lat="43.55208" lon="1.45099">
        <ele>216.031</ele>
        <time>2019-12-05T19:44:32Z</time>
      </trkpt>
      <trkpt lat="43.55302" lon="1.45031">
        <ele>211.024</ele>
        <time>2019-12-05T19:44:52Z</time>
      </trkpt>
      <trkpt lat="43.55322" lon="1.44986">
        <ele>213.108</ele>
        <time>2019-12-05T19:45:12Z</time>
      </trkpt>
      <trkpt lat="43.55389" lon="1.45066">
        <ele>219.956</ele>
        <time>2021-04-17T16:33:50Z</time>
      </trkpt>
      <trkpt lat="43.55496" lon="1.44984">
        <ele>238.539</ele>
        <time>2019-12-05T19:48:12Z</time>
      </trkpt>
      <trkpt lat="43.55535" lon="1.45016">
        <ele>243.535</ele>
        <time>2019-12-05T19:48:32Z</time>
      </trkpt>
      <trkpt lat="43.55588" lon="1.4503">
        <ele>249.134</ele>
        <time>2019-12-05T19:48:52Z</time>
      </trkpt>
      <trkpt lat="43.55637" lon="1.45014">
        <ele>249.171</ele>
        <time>2019-12-05T19:49:12Z</time>
      </trkpt>
      <trkpt lat="43.55653" lon="1.44984">
        <ele>249.142</ele>
        <time>2019-12-05T19:49:32Z</time>
      </trkpt>
      <trkpt lat="43.55675" lon="1.44925">
        <ele>249.971</ele>
        <time>2019-12-05T19:49:52Z</time>
      </trkpt>
      <trkpt lat="43.55704" lon="1.44885">
        <ele>250.322</ele>
        <time>2019-12-05T19:50:12Z</time>
      </trkpt>
      <trkpt lat="43.55731" lon="1.4488">
        <ele>251.775</ele>
        <time>2019-12-05T19:50:32Z</time>
      </trkpt>
      <trkpt lat="43.55775" lon="1.44902">
        <ele>254.328</ele>
        <time>2019-12-05T19:50:52Z</time>
      </trkpt>
      <trkpt lat="43.55824" lon="1.44902">
        <ele>258.02</ele>
        <time>2019-12-05T19:51:12Z</time>
      </trkpt>
      <trkpt lat="43.55853" lon="1.44768">
        <ele>260.008</ele>
        <time>2019-12-05T19:51:32Z</time>
      </trkpt>
      <trkpt lat="43.55917" lon="1.44709">
        <ele>255.954</ele>
        <time>2019-12-05T19:51:52Z</time>
      </trkpt>
      <trkpt lat="43.55919" lon="1.44662">
        <ele>255.867</ele>
        <time>2019-12-05T19:52:12Z</time>
      </trkpt>
      <trkpt lat="43.5599" lon="1.44673">
        <ele>242.713</ele>
        <time>2019-12-05T19:52:32Z</time>
      </trkpt>
      <trkpt lat="43.56068" lon="1.4471">
        <ele>240.512</ele>
        <time>2019-12-05T19:52:52Z</time>
      </trkpt>
      <trkpt lat="43.56104" lon="1.44698">
        <ele>238.639</ele>
        <time>2019-12-05T19:53:12Z</time>
      </trkpt>
      <trkpt lat="43.56143" lon="1.44714">
        <ele>236.26</ele>
        <time>2019-12-05T19:53:32Z</time>
      </trkpt>
      <trkpt lat="43.56251" lon="1.44677">
        <ele>236.219</ele>
        <time>2019-12-05T19:53:52Z</time>
      </trkpt>
      <trkpt lat="43.56316" lon="1.44633">
        <ele>237.07</ele>
        <time>2019-12-05T19:54:12Z</time>
      </trkpt>
      <trkpt lat="43.56418" lon="1.44545">
        <ele>235.057</ele>
        <time>2019-12-05T19:54:32Z</time>
      </trkpt>
      <trkpt lat="43.56522" lon="1.44457">
        <ele>234.5</ele>
        <time>2019-12-05T19:54:52Z</time>
      </trkpt>
      <trkpt lat="43.56593" lon="1.4441">
        <ele>230.52</ele>
        <time>2019-12-05T19:55:12Z</time>
      </trkpt>
      <trkpt lat="43.56618" lon="1.44311">
        <ele>224.708</ele>
        <time>2019-12-05T19:55:32Z</time>
      </trkpt>
      <trkpt lat="43.56672" lon="1.44219">
        <ele>218.462</ele>
        <time>2019-12-05T19:55:52Z</time>
      </trkpt>
      <trkpt lat="43.56737" lon="1.44214">
        <ele>218.995</ele>
        <time>2019-12-05T19:56:12Z</time>
      </trkpt>
      <trkpt lat="43.56814" lon="1.44234">
        <ele>220.011</ele>
        <time>2019-12-05T19:56:32Z</time>
      </trkpt>
      <trkpt lat="43.56852" lon="1.44224">
        <ele>218.69</ele>
        <time>2019-12-05T19:56:52Z</time>
      </trkpt>
      <trkpt lat="43.56927" lon="1.44203">
        <ele>211.367</ele>
        <time>2019-12-05T19:57:12Z</time>
      </trkpt>
      <trkpt lat="43.57032" lon="1.44196">
        <ele>203.128</ele>
        <time>2019-12-05T19:57:32Z</time>
      </trkpt>
      <trkpt lat="43.57087" lon="1.4417">
        <ele>195.587</ele>
        <time>2019-12-05T19:57:52Z</time>
      </trkpt>
      <trkpt lat="43.57221" lon="1.44141">
        <ele>185.158</ele>
        <time>2019-12-05T19:58:12Z</time>
      </trkpt>
      <trkpt lat="43.57286" lon="1.44147">
        <ele>183.883</ele>
        <time>2019-12-05T19:58:32Z</time>
      </trkpt>
      <trkpt lat="43.57358" lon="1.44108">
        <ele>170.125</ele>
        <time>2019-12-05T19:58:52Z</time>
      </trkpt>
      <trkpt lat="43.5739" lon="1.44103">
        <ele>161.917</ele>
        <time>2019-12-05T19:59:12Z</time>
      </trkpt>
      <trkpt lat="43.57503" lon="1.44249">
        <ele>146.808</ele>
        <time>2019-12-05T19:59:32Z</time>
      </trkpt>
      <trkpt lat="43.57554" lon="1.44355">
        <ele>145.095</ele>
        <time>2019-12-05T19:59:52Z</time>
      </trkpt>
      <trkpt lat="43.57536" lon="1.44449">
        <ele>145.028</ele>
        <time>2019-12-05T20:00:12Z</time>
      </trkpt>
      <trkpt lat="43.57491" lon="1.44581">
        <ele>146.684</ele>
        <time>2019-12-05T20:00:32Z</time>
      </trkpt>
      <trkpt lat="43.57539" lon="1.44615">
        <ele>145.023</ele>
        <time>2019-12-05T20:00:52Z</time>
      </trkpt>
      <trkpt lat="43.57605" lon="1.44395">
        <ele>145.01</ele>
        <time>2019-12-05T20:01:12Z</time>
      </trkpt>
      <trkpt lat="43.57618" lon="1.44304">
        <ele>143.741</ele>
        <time>2019-12-05T20:01:32Z</time>
      </trkpt>
      <trkpt lat="43.57763" lon="1.4428">
        <ele>141.64</ele>
        <time>2019-12-05T20:01:52Z</time>
      </trkpt>
      <trkpt lat="43.57745" lon="1.44263">
        <ele>141.541</ele>
        <time>2019-12-05T20:02:12Z</time>
      </trkpt>
      <trkpt lat="43.57776" lon="1.44134">
        <ele>139.046</ele>
        <time>2019-12-05T20:02:32Z</time>
      </trkpt>
      <trkpt lat="43.57778" lon="1.44068">
        <ele>138.088</ele>
        <time>2019-12-05T20:02:52Z</time>
      </trkpt>
      <trkpt lat="43.57715" lon="1.44081">
        <ele>139.016</ele>
        <time>2019-12-05T20:03:12Z</time>
      </trkpt>
      <trkpt lat="43.57741" lon="1.43588">
        <ele>137.808</ele>
        <time>2019-12-05T20:03:32Z</time>
      </trkpt>
      <trkpt lat="43.57847" lon="1.43622">
        <ele>137.351</ele>
        <time>2019-12-05T20:03:52Z</time>
      </trkpt>
      <trkpt lat="43.57996" lon="1.437">
        <ele>137.074</ele>
        <time>2019-12-05T20:04:12Z</time>
      </trkpt>
      <trkpt lat="43.58108" lon="1.43793">
        <ele>137.03</ele>
        <time>2019-12-05T20:04:32Z</time>
      </trkpt>
      <trkpt lat="43.58149" lon="1.43816">
        <ele>137.099</ele>
        <time>2019-12-05T20:04:52Z</time>
      </trkpt>
      <trkpt lat="43.58191" lon="1.43846">
        <ele>137.086</ele>
        <time>2019-12-05T20:05:12Z</time>
      </trkpt>
      <trkpt lat="43.58291" lon="1.43893">
        <ele>137.037</ele>
        <time>2019-12-05T20:05:32Z</time>
      </trkpt>
      <trkpt lat="43.58462" lon="1.43932">
        <ele>137.056</ele>
        <time>2019-12-05T20:05:52Z</time>
      </trkpt>
      <trkpt lat="43.58545" lon="1.43932">
        <ele>137.047</ele>
        <time>2019-12-05T20:06:12Z</time>
      </trkpt>
      <trkpt lat="43.58705" lon="1.43896">
        <ele>137.025</ele>
        <time>2019-12-05T20:06:32Z</time>
      </trkpt>
      <trkpt lat="43.58805" lon="1.43921">
        <ele>137.026</ele>
        <time>2019-12-05T20:06:52Z</time>
      </trkpt>
      <trkpt lat="43.58875" lon="1.43975">
        <ele>137.008</ele>
        <time>2019-12-05T20:07:12Z</time>
      </trkpt>
      <trkpt lat="43.58978" lon="1.44065">
        <ele>137.008</ele>
        <time>2019-12-05T20:07:32Z</time>
      </trkpt>
      <trkpt lat="43.59087" lon="1.44105">
        <ele>137.069</ele>
        <time>2019-12-05T20:07:52Z</time>
      </trkpt>
      <trkpt lat="43.59174" lon="1.44134">
        <ele>137.962</ele>
        <time>2019-12-05T20:08:12Z</time>
      </trkpt>
      <trkpt lat="43.59202" lon="1.4418">
        <ele>139.538</ele>
        <time>2019-12-05T20:08:32Z</time>
      </trkpt>
      <trkpt lat="43.59324" lon="1.44288">
        <ele>141.647</ele>
        <time>2019-12-05T20:08:52Z</time>
      </trkpt>
      <trkpt lat="43.59454" lon="1.44064">
        <ele>134.964</ele>
        <time>2019-12-05T20:09:12Z</time>
      </trkpt>
      <trkpt lat="43.59778" lon="1.44016">
        <ele>146.055</ele>
        <time>2021-04-17T16:55:30Z</time>
      </trkpt>
      <trkpt lat="43.59963" lon="1.4406">
        <ele>148.654</ele>
        <time>2021-04-17T16:55:50Z</time>
      </trkpt>
      <trkpt lat="43.60092" lon="1.43926">
        <ele>141.655</ele>
        <time>2021-04-17T16:56:10Z</time>
      </trkpt>
      <trkpt lat="43.6013" lon="1.43977">
        <ele>148.476</ele>
        <time>2021-04-17T16:56:30Z</time>
      </trkpt>
      <trkpt lat="43.60183" lon="1.43902">
        <ele>145.69</ele>
        <time>2021-04-17T16:56:50Z</time>
      </trkpt>
      <trkpt lat="43.60146" lon="1.43839">
        <ele>141.219</ele>
        <time>2021-04-17T16:57:10Z</time>
      </trkpt>
      <trkpt lat="43.60377" lon="1.4343">
        <ele>135.908</ele>
        <time>2016-12-30T11:10:05Z</time>
      </trkpt>
      <trkpt lat="43.60434" lon="1.43459">
        <ele>138.834</ele>
        <time>2016-12-30T11:10:25Z</time>
      </trkpt>
      <trkpt lat="43.60504" lon="1.43461">
        <ele>139.097</ele>
        <time>2016-12-30T11:10:45Z</time>
      </trkpt>
      <trkpt lat="43.60545" lon="1.4339">
        <ele>138.633</ele>
        <time>2016-12-30T11:11:05Z</time>
      </trkpt>
      <trkpt lat="43.609" lon="1.42394">
        <ele>146.172</ele>
        <time>2021-04-17T16:58:50Z</time>
      </trkpt>
      <trkpt lat="43.6086" lon="1.4235">
        <ele>144.289</ele>
        <time>2021-04-17T16:59:10Z</time>
      </trkpt>
      <trkpt lat="43.61012" lon="1.41937">
        <ele>134.47</ele>
        <time>2016-12-30T11:12:05Z</time>
      </trkpt>
      <trkpt lat="43.6086" lon="1.41608">
        <ele>136.919</ele>
        <time>2021-04-17T16:59:50Z</time>
      </trkpt>
      <trkpt lat="43.60888" lon="1.41584">
        <ele>131.08</ele>
        <time>2016-12-30T11:12:45Z</time>
      </trkpt>
      <trkpt lat="43.60872" lon="1.4153">
        <ele>130.477</ele>
        <time>2016-12-30T11:13:05Z</time>
      </trkpt>
      <trkpt lat="43.60851" lon="1.41534">
        <ele>130.161</ele>
        <time>2016-12-30T11:13:25Z</time>
      </trkpt>
      <trkpt lat="43.60817" lon="1.41491">
        <ele>127.127</ele>
        <time>2016-12-30T11:13:45Z</time>
      </trkpt>
      <trkpt lat="43.6098" lon="1.41201">
        <ele>126.308</ele>
        <time>2016-12-30T11:14:05Z</time>
      </trkpt>
      <trkpt lat="43.61074" lon="1.41061">
        <ele>125.134</ele>
        <time>2016-12-30T11:14:25Z</time>
      </trkpt>
      <trkpt lat="43.61291" lon="1.40813">
        <ele>125.017</ele>
        <time>2016-12-30T11:14:45Z</time>
      </trkpt>
      <trkpt lat="43.6143" lon="1.4065">
        <ele>125.043</ele>
        <time>2016-12-30T11:15:05Z</time>
      </trkpt>
      <trkpt lat="43.61565" lon="1.40522">
        <ele>125.062</ele>
        <time>2016-12-30T11:15:25Z</time>
      </trkpt>
      <trkpt lat="43.61675" lon="1.40422">
        <ele>125.099</ele>
        <time>2016-12-30T11:15:45Z</time>
      </trkpt>
      <trkpt lat="43.619" lon="1.40329">
        <ele>125.39</ele>
        <time>2016-12-30T11:16:05Z</time>
      </trkpt>
      <trkpt lat="43.62227" lon="1.40214">
        <ele>124.769</ele>
        <time>2021-04-17T17:03:50Z</time>
      </trkpt>
      <trkpt lat="43.62298" lon="1.40217">
        <ele>125.06</ele>
        <time>2016-12-30T11:16:45Z</time>
      </trkpt>
      <trkpt lat="43.62461" lon="1.40212">
        <ele>126.762</ele>
        <time>2021-04-17T17:04:30Z</time>
      </trkpt>
      <trkpt lat="43.62476" lon="1.40016">
        <ele>125.883</ele>
        <time>2016-12-30T11:17:25Z</time>
      </trkpt>
      <trkpt lat="43.6283" lon="1.40047">
        <ele>124.911</ele>
        <time>2016-12-30T11:17:45Z</time>
      </trkpt>
      <trkpt lat="43.63108" lon="1.40107">
        <ele>124.008</ele>
        <time>2016-12-30T11:18:05Z</time>
      </trkpt>
      <trkpt lat="43.63297" lon="1.40179">
        <ele>127.123</ele>
        <time>2021-04-17T17:05:50Z</time>
      </trkpt>
      <trkpt lat="43.63304" lon="1.40048">
        <ele>131.876</ele>
        <time>2021-04-17T17:06:10Z</time>
      </trkpt>
      <trkpt lat="43.63341" lon="1.39998">
        <ele>130.622</ele>
        <time>2016-12-30T11:19:25Z</time>
      </trkpt>
      <trkpt lat="43.63384" lon="1.39987">
        <ele>131.241</ele>
        <time>2016-12-30T11:19:45Z</time>
      </trkpt>
      <trkpt lat="43.63404" lon="1.4">
        <ele>130.068</ele>
        <time>2016-12-30T11:20:05Z</time>
      </trkpt>
      <trkpt lat="43.63424" lon="1.3999">
        <ele>137.329</ele>
        <time>2021-04-17T17:07:30Z</time>
      </trkpt>
      <trkpt lat="43.63431" lon="1.39948">
        <ele>138.618</ele>
        <time>2021-04-17T17:07:50Z</time>
      </trkpt>
      <trkpt lat="43.6343" lon="1.39902">
        <ele>133.579</ele>
        <time>2016-12-30T11:21:05Z</time>
      </trkpt>
      <trkpt lat="43.63439" lon="1.3987">
        <ele>134.162</ele>
        <time>2016-12-30T11:21:25Z</time>
      </trkpt>
      <trkpt lat="43.63453" lon="1.39685">
        <ele>135.083</ele>
        <time>2016-12-30T11:21:45Z</time>
      </trkpt>
      <trkpt lat="43.63467" lon="1.39684">
        <ele>135.011</ele>
        <time>2016-12-30T11:22:05Z</time>
      </trkpt>
      <trkpt lat="43.63463" lon="1.39569">
        <ele>136.208</ele>
        <time>2016-12-30T11:22:25Z</time>
      </trkpt>
      <trkpt lat="43.63451" lon="1.39463">
        <ele>138.063</ele>
        <time>2016-12-30T11:22:45Z</time>
      </trkpt>
      <trkpt lat="43.6345" lon="1.39191">
        <ele>144.156</ele>
        <time>2016-12-30T11:23:05Z</time>
      </trkpt>
      <trkpt lat="43.63402" lon="1.39035">
        <ele>150.412</ele>
        <time>2021-04-17T17:10:30Z</time>
      </trkpt>
      <trkpt lat="43.63442" lon="1.39017">
        <ele>150.311</ele>
        <time>2021-04-17T17:10:50Z</time>
      </trkpt>
      <trkpt lat="43.63462" lon="1.39033">
        <ele>145.068</ele>
        <time>2016-12-30T11:23:45Z</time>
      </trkpt>
      <trkpt lat="43.63453" lon="1.38987">
        <ele>145.039</ele>
        <time>2016-12-30T11:24:05Z</time>
      </trkpt>
      <trkpt lat="43.63463" lon="1.38959">
        <ele>145.248</ele>
        <time>2016-12-30T11:24:25Z</time>
      </trkpt>
      <trkpt lat="43.63441" lon="1.38866">
        <ele>146.069</ele>
        <time>2016-12-30T11:24:45Z</time>
      </trkpt>
      <trkpt lat="43.63408" lon="1.386">
        <ele>147.141</ele>
        <time>2016-12-30T11:25:05Z</time>
      </trkpt>
      <trkpt lat="43.63357" lon="1.38614">
        <ele>147.081</ele>
        <time>2016-12-30T11:25:25Z</time>
      </trkpt>
      <trkpt lat="43.63338" lon="1.38568">
        <ele>147.109</ele>
        <time>2016-12-30T11:25:45Z</time>
      </trkpt>
      <trkpt lat="43.63309" lon="1.38454">
        <ele>147.108</ele>
        <time>2016-12-30T11:26:05Z</time>
      </trkpt>
      <trkpt lat="43.6331" lon="1.38402">
        <ele>147.271</ele>
        <time>2016-12-30T11:26:25Z</time>
      </trkpt>
      <trkpt lat="43.63274" lon="1.38326">
        <ele>147.194</ele>
        <time>2016-12-30T11:26:45Z</time>
      </trkpt>
      <trkpt lat="43.63277" lon="1.38118">
        <ele>147.02</ele>
        <time>2016-12-30T11:27:05Z</time>
      </trkpt>
      <trkpt lat="43.63494" lon="1.37936">
        <ele>147.049</ele>
        <time>2016-12-30T11:27:25Z</time>
      </trkpt>
      <trkpt lat="43.63724" lon="1.37766">
        <ele>147.046</ele>
        <time>2016-12-30T11:27:45Z</time>
      </trkpt>
      <trkpt lat="43.63739" lon="1.37801">
        <ele>147.037</ele>
        <time>2016-12-30T11:28:05Z</time>
      </trkpt>
      <trkpt lat="43.63776" lon="1.37806">
        <ele>146.146</ele>
        <time>2016-12-30T11:28:25Z</time>
      </trkpt>
      <trkpt lat="43.6378" lon="1.37745">
        <ele>147.767</ele>
        <time>2021-04-17T17:16:10Z</time>
      </trkpt>
      <trkpt lat="43.63815" lon="1.37719">
        <ele>148.812</ele>
        <time>2021-04-17T17:16:30Z</time>
      </trkpt>
      <trkpt lat="43.6388" lon="1.37776">
        <ele>150.132</ele>
        <time>2021-04-17T17:16:50Z</time>
      </trkpt>
      <trkpt lat="43.63994" lon="1.377">
        <ele>145.005</ele>
        <time>2016-12-30T11:30:25Z</time>
      </trkpt>
      <trkpt lat="43.64067" lon="1.37564">
        <ele>145.708</ele>
        <time>2016-12-30T11:32:25Z</time>
      </trkpt>
      <trkpt lat="43.64131" lon="1.37583">
        <ele>145.098</ele>
        <time>2016-12-30T11:32:45Z</time>
      </trkpt>
      <trkpt lat="43.6416" lon="1.37593">
        <ele>145.531</ele>
        <time>2016-12-30T11:33:05Z</time>
      </trkpt>
      <trkpt lat="43.64146" lon="1.37654">
        <ele>145.037</ele>
        <time>2016-12-30T11:33:25Z</time>
      </trkpt>
      <trkpt lat="43.64203" lon="1.37674">
        <ele>146.076</ele>
        <time>2021-04-17T17:18:50Z</time>
      </trkpt>
      <trkpt lat="43.64217" lon="1.37772">
        <ele>146.183</ele>
        <time>2021-04-17T17:19:10Z</time>
      </trkpt>
      <trkpt lat="43.64286" lon="1.37735">
        <ele>144.934</ele>
        <time>2021-04-17T17:19:30Z</time>
      </trkpt>
      <trkpt lat="43.64323" lon="1.37752">
        <ele>144.173</ele>
        <time>2021-04-17T17:19:50Z</time>
      </trkpt>
      <trkpt lat="43.64349" lon="1.37795">
        <ele>145.034</ele>
        <time>2016-12-30T11:34:45Z</time>
      </trkpt>
      <trkpt lat="43.6443" lon="1.37811">
        <ele>145.017</ele>
        <time>2016-12-30T11:35:05Z</time>
      </trkpt>
      <trkpt lat="43.64515" lon="1.3787">
        <ele>144.087</ele>
        <time>2016-12-30T11:35:25Z</time>
      </trkpt>
      <trkpt lat="43.64595" lon="1.37871">
        <ele>143.915</ele>
        <time>2016-12-30T11:35:45Z</time>
      </trkpt>
      <trkpt lat="43.64639" lon="1.3788">
        <ele>143.008</ele>
        <time>2016-12-30T11:36:05Z</time>
      </trkpt>
      <trkpt lat="43.64716" lon="1.37876">
        <ele>143.088</ele>
        <time>2016-12-30T11:36:25Z</time>
      </trkpt>
      <trkpt lat="43.6476" lon="1.37864">
        <ele>145.821</ele>
        <time>2021-04-17T17:22:10Z</time>
      </trkpt>
      <trkpt lat="43.64757" lon="1.37831">
        <ele>143.067</ele>
        <time>2019-02-28T16:31:46Z</time>
      </trkpt>
      <trkpt lat="43.64784" lon="1.37807">
        <ele>143.056</ele>
        <time>2019-02-28T16:32:06Z</time>
      </trkpt>
      <trkpt lat="43.64813" lon="1.37735">
        <ele>143.413</ele>
        <time>2019-02-28T16:32:26Z</time>
      </trkpt>
      <trkpt lat="43.64862" lon="1.37654">
        <ele>147.314</ele>
        <time>2021-04-17T17:23:30Z</time>
      </trkpt>
      <trkpt lat="43.64861" lon="1.37586">
        <ele>147.353</ele>
        <time>2021-04-17T17:23:50Z</time>
      </trkpt>
      <trkpt lat="43.64883" lon="1.37593">
        <ele>147.594</ele>
        <time>2021-04-17T17:24:10Z</time>
      </trkpt>
      <trkpt lat="43.64907" lon="1.37541">
        <ele>145.032</ele>
        <time>2019-02-28T16:33:06Z</time>
      </trkpt>
      <trkpt lat="43.65116" lon="1.3745">
        <ele>145.792</ele>
        <time>2021-04-17T17:24:50Z</time>
      </trkpt>
      <trkpt lat="43.65198" lon="1.37443">
        <ele>144.511</ele>
        <time>2021-04-17T17:25:10Z</time>
      </trkpt>
      <trkpt lat="43.65306" lon="1.37455">
        <ele>144.208</ele>
        <time>2021-04-17T17:25:30Z</time>
      </trkpt>
      <trkpt lat="43.65376" lon="1.37442">
        <ele>144.29</ele>
        <time>2021-04-17T17:25:50Z</time>
      </trkpt>
      <trkpt lat="43.65819" lon="1.37115">
        <ele>145.063</ele>
        <time>2021-04-17T17:26:10Z</time>
      </trkpt>
      <trkpt lat="43.65787" lon="1.37029">
        <ele>144.029</ele>
        <time>2019-02-28T16:35:06Z</time>
      </trkpt>
      <trkpt lat="43.65731" lon="1.36969">
        <ele>144.018</ele>
        <time>2019-02-28T16:35:26Z</time>
      </trkpt>
      <trkpt lat="43.65725" lon="1.36926">
        <ele>144.055</ele>
        <time>2019-02-28T16:35:46Z</time>
      </trkpt>
      <trkpt lat="43.6583" lon="1.36685">
        <ele>144.046</ele>
        <time>2019-02-28T16:36:06Z</time>
      </trkpt>
      <trkpt lat="43.65886" lon="1.3664">
        <ele>144.045</ele>
        <time>2019-02-28T16:36:26Z</time>
      </trkpt>
      <trkpt lat="43.65792" lon="1.36293">
        <ele>144.016</ele>
        <time>2016-12-30T11:41:05Z</time>
      </trkpt>
      <trkpt lat="43.65788" lon="1.36136">
        <ele>145.526</ele>
        <time>2021-04-17T17:28:30Z</time>
      </trkpt>
      <trkpt lat="43.65872" lon="1.36001">
        <ele>144.647</ele>
        <time>2021-04-17T17:28:50Z</time>
      </trkpt>
      <trkpt lat="43.65801" lon="1.35934">
        <ele>145.711</ele>
        <time>2021-04-17T17:29:10Z</time>
      </trkpt>
      <trkpt lat="43.65795" lon="1.35859">
        <ele>144.008</ele>
        <time>2016-12-30T11:42:25Z</time>
      </trkpt>
      <trkpt lat="43.65937" lon="1.35836">
        <ele>144.029</ele>
        <time>2016-12-30T11:42:45Z</time>
      </trkpt>
      <trkpt lat="43.65943" lon="1.35837">
        <ele>144.052</ele>
        <time>2016-12-30T11:43:05Z</time>
      </trkpt>
      <trkpt lat="43.66109" lon="1.35815">
        <ele>143.337</ele>
        <time>2016-12-30T11:43:45Z</time>
      </trkpt>
      <trkpt lat="43.66157" lon="1.35687">
        <ele>143.094</ele>
        <time>2016-12-30T11:44:05Z</time>
      </trkpt>
      <trkpt lat="43.66097" lon="1.35573">
        <ele>143.055</ele>
        <time>2016-12-30T11:44:25Z</time>
      </trkpt>
      <trkpt lat="43.66051" lon="1.35378">
        <ele>143.424</ele>
        <time>2016-12-30T11:44:45Z</time>
      </trkpt>
      <trkpt lat="43.6602" lon="1.34991">
        <ele>146.055</ele>
        <time>2016-12-30T11:45:05Z</time>
      </trkpt>
      <trkpt lat="43.66035" lon="1.34895">
        <ele>146.055</ele>
        <time>2016-12-30T11:45:25Z</time>
      </trkpt>
      <trkpt lat="43.66022" lon="1.34771">
        <ele>147.007</ele>
        <time>2016-12-30T11:45:45Z</time>
      </trkpt>
      <trkpt lat="43.66032" lon="1.34708">
        <ele>147.017</ele>
        <time>2016-12-30T11:46:05Z</time>
      </trkpt>
      <trkpt lat="43.66007" lon="1.34558">
        <ele>147.008</ele>
        <time>2016-12-30T11:46:25Z</time>
      </trkpt>
      <trkpt lat="43.65952" lon="1.34459">
        <ele>146.942</ele>
        <time>2016-12-30T11:46:45Z</time>
      </trkpt>
      <trkpt lat="43.65839" lon="1.34356">
        <ele>146.045</ele>
        <time>2016-12-30T11:47:05Z</time>
      </trkpt>
      <trkpt lat="43.65803" lon="1.34269">
        <ele>146.091</ele>
        <time>2016-12-30T11:47:25Z</time>
      </trkpt>
      <trkpt lat="43.65764" lon="1.3395">
        <ele>146.51</ele>
        <time>2016-12-30T11:47:45Z</time>
      </trkpt>
      <trkpt lat="43.65758" lon="1.33755">
        <ele>147.037</ele>
        <time>2016-12-30T11:48:05Z</time>
      </trkpt>
      <trkpt lat="43.65792" lon="1.3364">
        <ele>147.038</ele>
        <time>2016-12-30T11:48:25Z</time>
      </trkpt>
      <trkpt lat="43.65862" lon="1.33521">
        <ele>147.057</ele>
        <time>2016-12-30T11:48:45Z</time>
      </trkpt>
      <trkpt lat="43.65535" lon="1.3332">
        <ele>147.028</ele>
        <time>2016-12-30T11:49:05Z</time>
      </trkpt>
      <trkpt lat="43.65262" lon="1.33194">
        <ele>150.043</ele>
        <time>2016-12-30T11:49:25Z</time>
      </trkpt>
      <trkpt lat="43.65376" lon="1.33114">
        <ele>146.564</ele>
        <time>2016-12-30T11:49:45Z</time>
      </trkpt>
      <trkpt lat="43.65417" lon="1.33042">
        <ele>142.01</ele>
        <time>2016-12-30T11:50:05Z</time>
      </trkpt>
      <trkpt lat="43.65479" lon="1.32864">
        <ele>140.008</ele>
        <time>2016-12-30T11:51:25Z</time>
      </trkpt>
      <trkpt lat="43.65535" lon="1.32806">
        <ele>140.031</ele>
        <time>2016-12-30T11:51:45Z</time>
      </trkpt>
      <trkpt lat="43.65671" lon="1.32737">
        <ele>140.044</ele>
        <time>2016-12-30T11:52:05Z</time>
      </trkpt>
      <trkpt lat="43.65474" lon="1.32661">
        <ele>142.01</ele>
        <time>2016-12-30T11:52:25Z</time>
      </trkpt>
      <trkpt lat="43.65421" lon="1.32622">
        <ele>141.269</ele>
        <time>2016-12-30T11:52:45Z</time>
      </trkpt>
      <trkpt lat="43.65332" lon="1.32352">
        <ele>142.086</ele>
        <time>2016-12-30T11:53:05Z</time>
      </trkpt>
      <trkpt lat="43.65244" lon="1.32427">
        <ele>140.097</ele>
        <time>2016-12-30T11:53:25Z</time>
      </trkpt>
      <trkpt lat="43.65215" lon="1.32413">
        <ele>140.046</ele>
        <time>2016-12-30T11:53:45Z</time>
      </trkpt>
      <trkpt lat="43.65183" lon="1.32413">
        <ele>140.057</ele>
        <time>2016-12-30T11:54:05Z</time>
      </trkpt>
      <trkpt lat="43.65176" lon="1.32437">
        <ele>140.036</ele>
        <time>2016-12-30T11:54:25Z</time>
      </trkpt>
      <trkpt lat="43.65158" lon="1.32437">
        <ele>140.017</ele>
        <time>2016-12-30T11:54:45Z</time>
      </trkpt>
      <trkpt lat="43.65138" lon="1.32471">
        <ele>140.018</ele>
        <time>2016-12-30T11:55:05Z</time>
      </trkpt>
      <trkpt lat="43.65152" lon="1.32487">
        <ele>140.008</ele>
        <time>2016-12-30T11:55:25Z</time>
      </trkpt>
      <trkpt lat="43.65154" lon="1.32499">
        <ele>140.03</ele>
        <time>2016-12-30T11:55:45Z</time>
      </trkpt>
      <trkpt lat="43.65129" lon="1.32499">
        <ele>140.083</ele>
        <time>2016-12-30T11:56:05Z</time>
      </trkpt>
      <trkpt lat="43.651" lon="1.324">
        <ele>140.099</ele>
        <time>2016-12-30T11:56:25Z</time>
      </trkpt>
      <trkpt lat="43.65131" lon="1.32355">
        <ele>140.058</ele>
        <time>2016-12-30T11:56:45Z</time>
      </trkpt>
      <trkpt lat="43.65111" lon="1.32306">
        <ele>140.015</ele>
        <time>2016-12-30T11:57:05Z</time>
      </trkpt>
      <trkpt lat="43.651" lon="1.32264">
        <ele>140.026</ele>
        <time>2016-12-30T11:57:25Z</time>
      </trkpt>
      <trkpt lat="43.65072" lon="1.3224">
        <ele>140.055</ele>
        <time>2016-12-30T11:57:45Z</time>
      </trkpt>
      <trkpt lat="43.65047" lon="1.32193">
        <ele>140.066</ele>
        <time>2016-12-30T11:58:05Z</time>
      </trkpt>
      <trkpt lat="43.64915" lon="1.3228">
        <ele>140.084</ele>
        <time>2016-12-30T11:58:25Z</time>
      </trkpt>
      <trkpt lat="43.64881" lon="1.32286">
        <ele>140.107</ele>
        <time>2016-12-30T11:58:45Z</time>
      </trkpt>
      <trkpt lat="43.64858" lon="1.3233">
        <ele>142.817</ele>
        <time>2016-12-30T11:59:05Z</time>
      </trkpt>
      <trkpt lat="43.64809" lon="1.32383">
        <ele>147.608</ele>
        <time>2016-12-30T11:59:25Z</time>
      </trkpt>
      <trkpt lat="43.64788" lon="1.32469">
        <ele>151.875</ele>
        <time>2016-12-30T11:59:45Z</time>
      </trkpt>
      <trkpt lat="43.6479" lon="1.32501">
        <ele>152.848</ele>
        <time>2016-12-30T12:00:05Z</time>
      </trkpt>
      <trkpt lat="43.64783" lon="1.32511">
        <ele>150.014</ele>
        <time>2016-12-30T12:00:25Z</time>
      </trkpt>
      <trkpt lat="43.6473" lon="1.32503">
        <ele>140.783</ele>
        <time>2016-12-30T12:00:45Z</time>
      </trkpt>
      <trkpt lat="43.64722" lon="1.3248">
        <ele>140.08</ele>
        <time>2016-12-30T12:01:05Z</time>
      </trkpt>
      <trkpt lat="43.64568" lon="1.32369">
        <ele>142.721</ele>
        <time>2016-12-30T12:01:25Z</time>
      </trkpt>
      <trkpt lat="43.6445" lon="1.32297">
        <ele>144.85</ele>
        <time>2016-12-30T12:01:45Z</time>
      </trkpt>
      <trkpt lat="43.64372" lon="1.32177">
        <ele>147.331</ele>
        <time>2016-12-30T12:02:05Z</time>
      </trkpt>
      <trkpt lat="43.64308" lon="1.32041">
        <ele>147.172</ele>
        <time>2016-12-30T12:02:25Z</time>
      </trkpt>
      <trkpt lat="43.64276" lon="1.31936">
        <ele>147.913</ele>
        <time>2016-12-30T12:03:25Z</time>
      </trkpt>
      <trkpt lat="43.64194" lon="1.3187">
        <ele>145.014</ele>
        <time>2016-12-30T12:03:45Z</time>
      </trkpt>
      <trkpt lat="43.63966" lon="1.31754">
        <ele>145.008</ele>
        <time>2016-12-30T12:04:05Z</time>
      </trkpt>
      <trkpt lat="43.63868" lon="1.31672">
        <ele>145.934</ele>
        <time>2016-12-30T12:04:25Z</time>
      </trkpt>
      <trkpt lat="43.6382" lon="1.31609">
        <ele>145.567</ele>
        <time>2016-12-30T12:04:45Z</time>
      </trkpt>
      <trkpt lat="43.6373" lon="1.31424">
        <ele>146.243</ele>
        <time>2016-12-30T12:05:05Z</time>
      </trkpt>
      <trkpt lat="43.6368" lon="1.31242">
        <ele>147.422</ele>
        <time>2016-12-30T12:05:25Z</time>
      </trkpt>
      <trkpt lat="43.63647" lon="1.31205">
        <ele>147.259</ele>
        <time>2016-12-30T12:05:45Z</time>
      </trkpt>
      <trkpt lat="43.63612" lon="1.31114">
        <ele>149.92</ele>
        <time>2016-12-30T12:06:05Z</time>
      </trkpt>
      <trkpt lat="43.63595" lon="1.31097">
        <ele>149.059</ele>
        <time>2016-12-30T12:06:25Z</time>
      </trkpt>
      <trkpt lat="43.63528" lon="1.30971">
        <ele>147.02</ele>
        <time>2016-12-30T12:06:45Z</time>
      </trkpt>
      <trkpt lat="43.63424" lon="1.30922">
        <ele>146.895</ele>
        <time>2016-12-30T12:07:05Z</time>
      </trkpt>
      <trkpt lat="43.63298" lon="1.30748">
        <ele>147.549</ele>
        <time>2016-12-30T12:07:25Z</time>
      </trkpt>
      <trkpt lat="43.63282" lon="1.30748">
        <ele>146.323</ele>
        <time>2016-12-30T12:07:45Z</time>
      </trkpt>
      <trkpt lat="43.63259" lon="1.30792">
        <ele>145.008</ele>
        <time>2016-12-30T12:08:05Z</time>
      </trkpt>
      <trkpt lat="43.63233" lon="1.30744">
        <ele>145.016</ele>
        <time>2016-12-30T12:08:25Z</time>
      </trkpt>
      <trkpt lat="43.63232" lon="1.30704">
        <ele>145.079</ele>
        <time>2016-12-30T12:08:45Z</time>
      </trkpt>
      <trkpt lat="43.63213" lon="1.30689">
        <ele>145.095</ele>
        <time>2016-12-30T12:09:05Z</time>
      </trkpt>
      <trkpt lat="43.63201" lon="1.30366">
        <ele>145.084</ele>
        <time>2016-12-30T12:09:25Z</time>
      </trkpt>
      <trkpt lat="43.63182" lon="1.30365">
        <ele>145.091</ele>
        <time>2016-12-30T12:09:45Z</time>
      </trkpt>
      <trkpt lat="43.63088" lon="1.30468">
        <ele>145.082</ele>
        <time>2016-12-30T12:10:05Z</time>
      </trkpt>
      <trkpt lat="43.6301" lon="1.30408">
        <ele>149.621</ele>
        <time>2021-04-17T17:55:50Z</time>
      </trkpt>
      <trkpt lat="43.62944" lon="1.30276">
        <ele>147.092</ele>
        <time>2016-12-30T12:12:05Z</time>
      </trkpt>
      <trkpt lat="43.6277" lon="1.30194">
        <ele>150.087</ele>
        <time>2019-02-28T17:08:26Z</time>
      </trkpt>
      <trkpt lat="43.62738" lon="1.30201">
        <ele>150.142</ele>
        <time>2019-02-28T17:08:46Z</time>
      </trkpt>
      <trkpt lat="43.62767" lon="1.30154">
        <ele>150.026</ele>
        <time>2019-02-28T17:09:06Z</time>
      </trkpt>
      <trkpt lat="43.62817" lon="1.30023">
        <ele>150.008</ele>
        <time>2019-02-28T17:09:26Z</time>
      </trkpt>
      <trkpt lat="43.62675" lon="1.29831">
        <ele>150.165</ele>
        <time>2019-02-28T17:09:46Z</time>
      </trkpt>
      <trkpt lat="43.62529" lon="1.29688">
        <ele>154.248</ele>
        <time>2019-02-28T17:10:06Z</time>
      </trkpt>
      <trkpt lat="43.62456" lon="1.29598">
        <ele>154.244</ele>
        <time>2019-02-28T17:10:26Z</time>
      </trkpt>
      <trkpt lat="43.62394" lon="1.29457">
        <ele>156.943</ele>
        <time>2019-02-28T17:10:46Z</time>
      </trkpt>
      <trkpt lat="43.62361" lon="1.29228">
        <ele>155.06</ele>
        <time>2019-02-28T17:11:06Z</time>
      </trkpt>
      <trkpt lat="43.62327" lon="1.29141">
        <ele>153.541</ele>
        <time>2019-02-28T17:11:26Z</time>
      </trkpt>
      <trkpt lat="43.62267" lon="1.29031">
        <ele>152.49</ele>
        <time>2019-02-28T17:11:46Z</time>
      </trkpt>
      <trkpt lat="43.62255" lon="1.28848">
        <ele>153.811</ele>
        <time>2016-12-30T12:15:05Z</time>
      </trkpt>
      <trkpt lat="43.62284" lon="1.28742">
        <ele>154.115</ele>
        <time>2016-12-30T12:15:25Z</time>
      </trkpt>
      <trkpt lat="43.62276" lon="1.28694">
        <ele>154.165</ele>
        <time>2016-12-30T12:15:45Z</time>
      </trkpt>
      <trkpt lat="43.62145" lon="1.28701">
        <ele>157.811</ele>
        <time>2016-12-30T12:16:05Z</time>
      </trkpt>
      <trkpt lat="43.61942" lon="1.28644">
        <ele>176.508</ele>
        <time>2016-12-30T12:16:25Z</time>
      </trkpt>
      <trkpt lat="43.61912" lon="1.28613">
        <ele>177.488</ele>
        <time>2016-12-30T12:16:45Z</time>
      </trkpt>
      <trkpt lat="43.61881" lon="1.28551">
        <ele>178.411</ele>
        <time>2016-12-30T12:17:05Z</time>
      </trkpt>
      <trkpt lat="43.61898" lon="1.28533">
        <ele>182.097</ele>
        <time>2021-04-17T18:02:30Z</time>
      </trkpt>
      <trkpt lat="43.61884" lon="1.28488">
        <ele>183.726</ele>
        <time>2021-04-17T18:02:50Z</time>
      </trkpt>
      <trkpt lat="43.61933" lon="1.28439">
        <ele>179.483</ele>
        <time>2016-12-30T12:18:05Z</time>
      </trkpt>
      <trkpt lat="43.61909" lon="1.28212">
        <ele>180.844</ele>
        <time>2016-12-30T12:18:25Z</time>
      </trkpt>
      <trkpt lat="43.61915" lon="1.28117">
        <ele>178.533</ele>
        <time>2016-12-30T12:18:45Z</time>
      </trkpt>
      <trkpt lat="43.62086" lon="1.28104">
        <ele>160.034</ele>
        <time>2021-04-17T18:04:10Z</time>
      </trkpt>
      <trkpt lat="43.62112" lon="1.28088">
        <ele>159.396</ele>
        <time>2021-04-17T18:04:30Z</time>
      </trkpt>
      <trkpt lat="43.62179" lon="1.28086">
        <ele>158.431</ele>
        <time>2021-04-17T18:04:50Z</time>
      </trkpt>
      <trkpt lat="43.62223" lon="1.28109">
        <ele>159.924</ele>
        <time>2021-04-17T18:05:10Z</time>
      </trkpt>
      <trkpt lat="43.62311" lon="1.28118">
        <ele>168.908</ele>
        <time>2021-04-17T18:05:30Z</time>
      </trkpt>
      <trkpt lat="43.62312" lon="1.28041">
        <ele>167.886</ele>
        <time>2021-04-17T18:05:50Z</time>
      </trkpt>
      <trkpt lat="43.62284" lon="1.27867">
        <ele>166.849</ele>
        <time>2021-04-17T18:06:10Z</time>
      </trkpt>
      <trkpt lat="43.62222" lon="1.27631">
        <ele>167.585</ele>
        <time>2021-04-17T18:06:30Z</time>
      </trkpt>
      <trkpt lat="43.62142" lon="1.27384">
        <ele>165.234</ele>
        <time>2021-04-17T18:06:50Z</time>
      </trkpt>
      <trkpt lat="43.62125" lon="1.27253">
        <ele>162.511</ele>
        <time>2016-12-30T12:22:05Z</time>
      </trkpt>
      <trkpt lat="43.62131" lon="1.27203">
        <ele>163.732</ele>
        <time>2016-12-30T12:22:25Z</time>
      </trkpt>
      <trkpt lat="43.62131" lon="1.27198">
        <ele>163.791</ele>
        <time>2016-12-30T12:22:45Z</time>
      </trkpt>
      <trkpt lat="43.62043" lon="1.26717">
        <ele>164.752</ele>
        <time>2016-12-30T12:23:05Z</time>
      </trkpt>
      <trkpt lat="43.6201" lon="1.26466">
        <ele>165.881</ele>
        <time>2016-12-30T12:23:25Z</time>
      </trkpt>
      <trkpt lat="43.61975" lon="1.26289">
        <ele>166.361</ele>
        <time>2016-12-30T12:24:25Z</time>
      </trkpt>
      <trkpt lat="43.61937" lon="1.26303">
        <ele>165.017</ele>
        <time>2016-12-30T12:24:45Z</time>
      </trkpt>
      <trkpt lat="43.61916" lon="1.26022">
        <ele>167.208</ele>
        <time>2016-12-30T12:25:05Z</time>
      </trkpt>
      <trkpt lat="43.61889" lon="1.25907">
        <ele>169.315</ele>
        <time>2016-12-30T12:25:25Z</time>
      </trkpt>
      <trkpt lat="43.61834" lon="1.25782">
        <ele>174.538</ele>
        <time>2021-04-17T18:10:10Z</time>
      </trkpt>
      <trkpt lat="43.61857" lon="1.25524">
        <ele>180.814</ele>
        <time>2021-04-17T18:10:30Z</time>
      </trkpt>
      <trkpt lat="43.61894" lon="1.2533">
        <ele>188.853</ele>
        <time>2021-04-17T18:10:50Z</time>
      </trkpt>
      <trkpt lat="43.61941" lon="1.25271">
        <ele>189.83</ele>
        <time>2021-04-17T18:11:10Z</time>
      </trkpt>
      <trkpt lat="43.62021" lon="1.25152">
        <ele>188.521</ele>
        <time>2021-04-17T18:11:30Z</time>
      </trkpt>
      <trkpt lat="43.62125" lon="1.25054">
        <ele>188.22</ele>
        <time>2021-04-17T18:11:50Z</time>
      </trkpt>
      <trkpt lat="43.62232" lon="1.24943">
        <ele>188.551</ele>
        <time>2021-04-17T18:12:10Z</time>
      </trkpt>
      <trkpt lat="43.62284" lon="1.24859">
        <ele>189.694</ele>
        <time>2021-04-17T18:12:30Z</time>
      </trkpt>
      <trkpt lat="43.62343" lon="1.24888">
        <ele>190.957</ele>
        <time>2021-04-17T18:12:50Z</time>
      </trkpt>
      <trkpt lat="43.62576" lon="1.25026">
        <ele>189.222</ele>
        <time>2021-04-17T18:13:10Z</time>
      </trkpt>
      <trkpt lat="43.62664" lon="1.25055">
        <ele>189.308</ele>
        <time>2021-04-17T18:13:30Z</time>
      </trkpt>
      <trkpt lat="43.62734" lon="1.25055">
        <ele>190.746</ele>
        <time>2021-04-17T18:13:50Z</time>
      </trkpt>
      <trkpt lat="43.62833" lon="1.2509">
        <ele>189.119</ele>
        <time>2021-04-17T18:14:10Z</time>
      </trkpt>
      <trkpt lat="43.6292" lon="1.25159">
        <ele>188.895</ele>
        <time>2021-04-17T18:14:30Z</time>
      </trkpt>
      <trkpt lat="43.62997" lon="1.25241">
        <ele>189.614</ele>
        <time>2021-04-17T18:14:50Z</time>
      </trkpt>
      <trkpt lat="43.63082" lon="1.25345">
        <ele>188.281</ele>
        <time>2021-04-17T18:15:10Z</time>
      </trkpt>
      <trkpt lat="43.63151" lon="1.25397">
        <ele>189.652</ele>
        <time>2021-04-17T18:15:30Z</time>
      </trkpt>
      <trkpt lat="43.63206" lon="1.25451">
        <ele>188.461</ele>
        <time>2021-04-17T18:15:50Z</time>
      </trkpt>
      <trkpt lat="43.63302" lon="1.25531">
        <ele>187.492</ele>
        <time>2021-04-17T18:16:10Z</time>
      </trkpt>
      <trkpt lat="43.63363" lon="1.25368">
        <ele>185.751</ele>
        <time>2021-04-17T18:16:30Z</time>
      </trkpt>
      <trkpt lat="43.63344" lon="1.25207">
        <ele>185.401</ele>
        <time>2021-04-17T18:16:50Z</time>
      </trkpt>
      <trkpt lat="43.63329" lon="1.24828">
        <ele>187.111</ele>
        <time>2021-04-17T18:17:10Z</time>
      </trkpt>
      <trkpt lat="43.63335" lon="1.24667">
        <ele>188.008</ele>
        <time>2021-04-17T18:17:30Z</time>
      </trkpt>
      <trkpt lat="43.6342" lon="1.24323">
        <ele>188.892</ele>
        <time>2021-04-17T18:17:50Z</time>
      </trkpt>
      <trkpt lat="43.63497" lon="1.24221">
        <ele>190.635</ele>
        <time>2021-04-17T18:18:10Z</time>
      </trkpt>
      <trkpt lat="43.63534" lon="1.24206">
        <ele>191.981</ele>
        <time>2021-04-17T18:18:30Z</time>
      </trkpt>
      <trkpt lat="43.63573" lon="1.24201">
        <ele>192.92</ele>
        <time>2021-04-17T18:18:50Z</time>
      </trkpt>
      <trkpt lat="43.63584" lon="1.24209">
        <ele>193.037</ele>
        <time>2021-04-17T18:19:10Z</time>
      </trkpt>
      <trkpt lat="43.6363" lon="1.24201">
        <ele>190.058</ele>
        <time>2016-12-30T12:37:25Z</time>
      </trkpt>
      <trkpt lat="43.6364" lon="1.24087">
        <ele>191.987</ele>
        <time>2016-12-30T12:37:45Z</time>
      </trkpt>
      <trkpt lat="43.63652" lon="1.2406">
        <ele>192.098</ele>
        <time>2016-12-30T12:38:05Z</time>
      </trkpt>
      <trkpt lat="43.63653" lon="1.24034">
        <ele>192.098</ele>
        <time>2016-12-30T12:38:25Z</time>
      </trkpt>
      <trkpt lat="43.63752" lon="1.2379">
        <ele>193.915</ele>
        <time>2016-12-30T12:38:45Z</time>
      </trkpt>
      <trkpt lat="43.63754" lon="1.23648">
        <ele>194.926</ele>
        <time>2016-12-30T12:39:05Z</time>
      </trkpt>
      <trkpt lat="43.6372" lon="1.23603">
        <ele>197.108</ele>
        <time>2016-12-30T12:39:25Z</time>
      </trkpt>
      <trkpt lat="43.63752" lon="1.23513">
        <ele>198.036</ele>
        <time>2016-12-30T12:39:45Z</time>
      </trkpt>
      <trkpt lat="43.63774" lon="1.23476">
        <ele>198.929</ele>
        <time>2016-12-30T12:40:05Z</time>
      </trkpt>
      <trkpt lat="43.6382" lon="1.23316">
        <ele>201.145</ele>
        <time>2016-12-30T12:40:25Z</time>
      </trkpt>
      <trkpt lat="43.63749" lon="1.23271">
        <ele>204.914</ele>
        <time>2016-12-30T12:40:45Z</time>
      </trkpt>
      <trkpt lat="43.63736" lon="1.23244">
        <ele>205.151</ele>
        <time>2019-02-28T17:38:06Z</time>
      </trkpt>
      <trkpt lat="43.63728" lon="1.2319">
        <ele>206.022</ele>
        <time>2019-02-28T17:38:26Z</time>
      </trkpt>
      <trkpt lat="43.63577" lon="1.23115">
        <ele>203.451</ele>
        <time>2019-02-28T17:38:46Z</time>
      </trkpt>
      <trkpt lat="43.63541" lon="1.23121">
        <ele>202.392</ele>
        <time>2019-02-28T17:39:06Z</time>
      </trkpt>
      <trkpt lat="43.63549" lon="1.23106">
        <ele>203.255</ele>
        <time>2019-02-28T17:39:26Z</time>
      </trkpt>
      <trkpt lat="43.63514" lon="1.23056">
        <ele>205.007</ele>
        <time>2019-02-28T17:39:46Z</time>
      </trkpt>
      <trkpt lat="43.63483" lon="1.23061">
        <ele>204.317</ele>
        <time>2019-02-28T17:40:06Z</time>
      </trkpt>
      <trkpt lat="43.63385" lon="1.22914">
        <ele>205.108</ele>
        <time>2019-02-28T17:40:26Z</time>
      </trkpt>
      <trkpt lat="43.63304" lon="1.22805">
        <ele>213.672</ele>
        <time>2021-04-17T18:25:50Z</time>
      </trkpt>
      <trkpt lat="43.63178" lon="1.22743">
        <ele>215.975</ele>
        <time>2021-04-17T18:26:10Z</time>
      </trkpt>
      <trkpt lat="43.63123" lon="1.22638">
        <ele>217.311</ele>
        <time>2021-04-17T18:26:30Z</time>
      </trkpt>
      <trkpt lat="43.63031" lon="1.22543">
        <ele>210.02</ele>
        <time>2019-02-28T17:41:46Z</time>
      </trkpt>
      <trkpt lat="43.63001" lon="1.22458">
        <ele>210.077</ele>
        <time>2019-02-28T17:42:26Z</time>
      </trkpt>
      <trkpt lat="43.63242" lon="1.21925">
        <ele>234.458</ele>
        <time>2021-04-17T18:27:30Z</time>
      </trkpt>
      <trkpt lat="43.63288" lon="1.21919">
        <ele>235.047</ele>
        <time>2021-04-17T18:27:50Z</time>
      </trkpt>
      <trkpt lat="43.63369" lon="1.21859">
        <ele>228.078</ele>
        <time>2019-02-28T17:43:26Z</time>
      </trkpt>
      <trkpt lat="43.634" lon="1.21558">
        <ele>228.024</ele>
        <time>2019-02-28T17:43:46Z</time>
      </trkpt>
      <trkpt lat="43.63043" lon="1.21256">
        <ele>231.004</ele>
        <time>2019-02-28T17:44:06Z</time>
      </trkpt>
      <trkpt lat="43.62938" lon="1.21483">
        <ele>230.014</ele>
        <time>2019-02-28T17:44:26Z</time>
      </trkpt>
      <trkpt lat="43.62248" lon="1.20932">
        <ele>235.008</ele>
        <time>2019-02-28T17:44:46Z</time>
      </trkpt>
      <trkpt lat="43.62255" lon="1.20915">
        <ele>235.099</ele>
        <time>2019-02-28T17:45:06Z</time>
      </trkpt>
      <trkpt lat="43.61912" lon="1.20635">
        <ele>216.442</ele>
        <time>2016-12-30T12:43:25Z</time>
      </trkpt>
      <trkpt lat="43.61865" lon="1.20741">
        <ele>214.448</ele>
        <time>2016-12-30T12:43:45Z</time>
      </trkpt>
      <trkpt lat="43.61411" lon="1.20372">
        <ele>209.827</ele>
        <time>2016-12-30T12:44:05Z</time>
      </trkpt>
      <trkpt lat="43.61404" lon="1.20383">
        <ele>209.514</ele>
        <time>2016-12-30T12:44:25Z</time>
      </trkpt>
      <trkpt lat="43.60944" lon="1.19997">
        <ele>234.165</ele>
        <time>2016-12-30T12:44:45Z</time>
      </trkpt>
      <trkpt lat="43.60935" lon="1.20012">
        <ele>233.644</ele>
        <time>2016-12-30T12:45:05Z</time>
      </trkpt>
      <trkpt lat="43.60494" lon="1.19654">
        <ele>229.475</ele>
        <time>2016-12-30T12:45:25Z</time>
      </trkpt>
      <trkpt lat="43.6066" lon="1.19276">
        <ele>237.037</ele>
        <time>2016-12-30T12:45:45Z</time>
      </trkpt>
      <trkpt lat="43.60398" lon="1.19062">
        <ele>233.349</ele>
        <time>2016-12-30T12:46:05Z</time>
      </trkpt>
      <trkpt lat="43.59696" lon="1.18496">
        <ele>252.313</ele>
        <time>2021-04-17T18:33:10Z</time>
      </trkpt>
      <trkpt lat="43.59734" lon="1.18337">
        <ele>247.108</ele>
        <time>2016-12-30T12:48:05Z</time>
      </trkpt>
      <trkpt lat="43.59756" lon="1.18178">
        <ele>254.89</ele>
        <time>2016-12-30T12:48:25Z</time>
      </trkpt>
      <trkpt lat="43.59734" lon="1.18056">
        <ele>259.823</ele>
        <time>2016-12-30T12:48:45Z</time>
      </trkpt>
      <trkpt lat="43.59734" lon="1.17914">
        <ele>266.019</ele>
        <time>2016-12-30T12:49:05Z</time>
      </trkpt>
      <trkpt lat="43.59723" lon="1.1785">
        <ele>268.828</ele>
        <time>2016-12-30T12:49:25Z</time>
      </trkpt>
      <trkpt lat="43.59731" lon="1.17796">
        <ele>270.015</ele>
        <time>2016-12-30T12:49:45Z</time>
      </trkpt>
      <trkpt lat="43.59726" lon="1.17685">
        <ele>270.146</ele>
        <time>2016-12-30T12:50:05Z</time>
      </trkpt>
      <trkpt lat="43.59755" lon="1.17633">
        <ele>272.765</ele>
        <time>2021-04-17T18:35:50Z</time>
      </trkpt>
      <trkpt lat="43.59786" lon="1.17523">
        <ele>274.416</ele>
        <time>2021-04-17T18:36:10Z</time>
      </trkpt>
      <trkpt lat="43.59792" lon="1.17438">
        <ele>274.649</ele>
        <time>2016-12-30T12:50:45Z</time>
      </trkpt>
      <trkpt lat="43.59813" lon="1.17406">
        <ele>274.602</ele>
        <time>2016-12-30T12:51:05Z</time>
      </trkpt>
      <trkpt lat="43.59874" lon="1.17361">
        <ele>272.622</ele>
        <time>2016-12-30T12:51:25Z</time>
      </trkpt>
      <trkpt lat="43.59902" lon="1.17268">
        <ele>274.708</ele>
        <time>2016-12-30T12:51:45Z</time>
      </trkpt>
      <trkpt lat="43.59942" lon="1.17225">
        <ele>274.991</ele>
        <time>2016-12-30T12:52:05Z</time>
      </trkpt>
      <trkpt lat="43.59978" lon="1.17116">
        <ele>272.034</ele>
        <time>2016-12-30T12:52:25Z</time>
      </trkpt>
      <trkpt lat="43.6004" lon="1.17037">
        <ele>271.68</ele>
        <time>2016-12-30T12:52:45Z</time>
      </trkpt>
      <trkpt lat="43.60079" lon="1.16966">
        <ele>274.069</ele>
        <time>2016-12-30T12:53:05Z</time>
      </trkpt>
      <trkpt lat="43.60083" lon="1.16956">
        <ele>274.516</ele>
        <time>2016-12-30T12:53:25Z</time>
      </trkpt>
      <trkpt lat="43.60118" lon="1.168">
        <ele>280.067</ele>
        <time>2016-12-30T12:53:45Z</time>
      </trkpt>
      <trkpt lat="43.60109" lon="1.1668">
        <ele>283.046</ele>
        <time>2016-12-30T12:54:05Z</time>
      </trkpt>
      <trkpt lat="43.60115" lon="1.16586">
        <ele>284.617</ele>
        <time>2016-12-30T12:54:25Z</time>
      </trkpt>
      <trkpt lat="43.60114" lon="1.1658">
        <ele>284.874</ele>
        <time>2016-12-30T12:54:45Z</time>
      </trkpt>
      <trkpt lat="43.60109" lon="1.16545">
        <ele>285.056</ele>
        <time>2016-12-30T12:55:05Z</time>
      </trkpt>
      <trkpt lat="43.6011" lon="1.16496">
        <ele>286.021</ele>
        <time>2016-12-30T12:55:25Z</time>
      </trkpt>
      <trkpt lat="43.6009" lon="1.16396">
        <ele>285.408</ele>
        <time>2016-12-30T12:55:45Z</time>
      </trkpt>
      <trkpt lat="43.60105" lon="1.16351">
        <ele>286.644</ele>
        <time>2016-12-30T12:56:05Z</time>
      </trkpt>
      <trkpt lat="43.60112" lon="1.16206">
        <ele>287.017</ele>
        <time>2016-12-30T12:56:25Z</time>
      </trkpt>
      <trkpt lat="43.60183" lon="1.1598">
        <ele>286.673</ele>
        <time>2016-12-30T12:56:45Z</time>
      </trkpt>
      <trkpt lat="43.60276" lon="1.15776">
        <ele>290.092</ele>
        <time>2016-12-30T12:57:05Z</time>
      </trkpt>
      <trkpt lat="43.60323" lon="1.15568">
        <ele>289.639</ele>
        <time>2016-12-30T12:57:25Z</time>
      </trkpt>
      <trkpt lat="43.6033" lon="1.15478">
        <ele>288.34</ele>
        <time>2016-12-30T12:57:45Z</time>
      </trkpt>
      <trkpt lat="43.60348" lon="1.15397">
        <ele>284.649</ele>
        <time>2016-12-30T12:58:05Z</time>
      </trkpt>
      <trkpt lat="43.60412" lon="1.15319">
        <ele>279.74</ele>
        <time>2016-12-30T12:58:25Z</time>
      </trkpt>
      <trkpt lat="43.60529" lon="1.15115">
        <ele>264.955</ele>
        <time>2016-12-30T12:58:45Z</time>
      </trkpt>
      <trkpt lat="43.60644" lon="1.14873">
        <ele>243.407</ele>
        <time>2016-12-30T12:59:05Z</time>
      </trkpt>
      <trkpt lat="43.60693" lon="1.1476">
        <ele>235.017</ele>
        <time>2016-12-30T12:59:25Z</time>
      </trkpt>
      <trkpt lat="43.60863" lon="1.1466">
        <ele>221.708</ele>
        <time>2016-12-30T12:59:45Z</time>
      </trkpt>
      <trkpt lat="43.60956" lon="1.14575">
        <ele>217.552</ele>
        <time>2016-12-30T13:00:05Z</time>
      </trkpt>
      <trkpt lat="43.61097" lon="1.14465">
        <ele>202.655</ele>
        <time>2016-12-30T13:00:25Z</time>
      </trkpt>
      <trkpt lat="43.61175" lon="1.14339">
        <ele>187.161</ele>
        <time>2016-12-30T13:00:45Z</time>
      </trkpt>
      <trkpt lat="43.61195" lon="1.14243">
        <ele>181.71</ele>
        <time>2016-12-30T13:01:05Z</time>
      </trkpt>
      <trkpt lat="43.61195" lon="1.14133">
        <ele>180.027</ele>
        <time>2016-12-30T13:01:25Z</time>
      </trkpt>
      <trkpt lat="43.61237" lon="1.1406">
        <ele>180.058</ele>
        <time>2016-12-30T13:01:45Z</time>
      </trkpt>
      <trkpt lat="43.61266" lon="1.13923">
        <ele>181.397</ele>
        <time>2016-12-30T13:02:05Z</time>
      </trkpt>
      <trkpt lat="43.61289" lon="1.13857">
        <ele>185.158</ele>
        <time>2016-12-30T13:02:25Z</time>
      </trkpt>
      <trkpt lat="43.6125" lon="1.13835">
        <ele>185.023</ele>
        <time>2016-12-30T13:02:45Z</time>
      </trkpt>
      <trkpt lat="43.6123" lon="1.13662">
        <ele>196.883</ele>
        <time>2016-12-30T13:03:05Z</time>
      </trkpt>
      <trkpt lat="43.61195" lon="1.13545">
        <ele>209.711</ele>
        <time>2016-12-30T13:03:25Z</time>
      </trkpt>
      <trkpt lat="43.61163" lon="1.13352">
        <ele>220.108</ele>
        <time>2016-12-30T13:03:45Z</time>
      </trkpt>
      <trkpt lat="43.6111" lon="1.13292">
        <ele>229.099</ele>
        <time>2016-12-30T13:04:05Z</time>
      </trkpt>
      <trkpt lat="43.61103" lon="1.13201">
        <ele>235.312</ele>
        <time>2016-12-30T13:04:25Z</time>
      </trkpt>
      <trkpt lat="43.61121" lon="1.12992">
        <ele>240.068</ele>
        <time>2016-12-30T13:04:45Z</time>
      </trkpt>
      <trkpt lat="43.61097" lon="1.12851">
        <ele>237.137</ele>
        <time>2016-12-30T13:05:05Z</time>
      </trkpt>
      <trkpt lat="43.61071" lon="1.12791">
        <ele>238.044</ele>
        <time>2016-12-30T13:05:25Z</time>
      </trkpt>
      <trkpt lat="43.61065" lon="1.12726">
        <ele>239.445</ele>
        <time>2016-12-30T13:05:45Z</time>
      </trkpt>
      <trkpt lat="43.60987" lon="1.12639">
        <ele>244.484</ele>
        <time>2016-12-30T13:06:05Z</time>
      </trkpt>
      <trkpt lat="43.6098" lon="1.12497">
        <ele>246.445</ele>
        <time>2016-12-30T13:06:25Z</time>
      </trkpt>
      <trkpt lat="43.61025" lon="1.12193">
        <ele>242.899</ele>
        <time>2016-12-30T13:06:45Z</time>
      </trkpt>
      <trkpt lat="43.61045" lon="1.12064">
        <ele>243.807</ele>
        <time>2016-12-30T13:07:05Z</time>
      </trkpt>
      <trkpt lat="43.61097" lon="1.11924">
        <ele>240.027</ele>
        <time>2016-12-30T13:07:25Z</time>
      </trkpt>
      <trkpt lat="43.61156" lon="1.11631">
        <ele>230.308</ele>
        <time>2016-12-30T13:07:45Z</time>
      </trkpt>
      <trkpt lat="43.61194" lon="1.11524">
        <ele>230.036</ele>
        <time>2016-12-30T13:08:05Z</time>
      </trkpt>
      <trkpt lat="43.61213" lon="1.11421">
        <ele>226.279</ele>
        <time>2019-02-28T18:10:26Z</time>
      </trkpt>
      <trkpt lat="43.61295" lon="1.11124">
        <ele>214.065</ele>
        <time>2019-02-28T18:10:46Z</time>
      </trkpt>
      <trkpt lat="43.61381" lon="1.10946">
        <ele>204.774</ele>
        <time>2019-02-28T18:11:06Z</time>
      </trkpt>
      <trkpt lat="43.61383" lon="1.10859">
        <ele>204.391</ele>
        <time>2019-02-28T18:11:26Z</time>
      </trkpt>
      <trkpt lat="43.61411" lon="1.10781">
        <ele>202.152</ele>
        <time>2019-02-28T18:11:46Z</time>
      </trkpt>
      <trkpt lat="43.61424" lon="1.10639">
        <ele>197.041</ele>
        <time>2019-02-28T18:12:06Z</time>
      </trkpt>
      <trkpt lat="43.61445" lon="1.10581">
        <ele>194.872</ele>
        <time>2019-02-28T18:12:26Z</time>
      </trkpt>
      <trkpt lat="43.61526" lon="1.10418">
        <ele>189.815</ele>
        <time>2019-02-28T18:12:46Z</time>
      </trkpt>
      <trkpt lat="43.61546" lon="1.10338">
        <ele>185.765</ele>
        <time>2019-02-28T18:13:06Z</time>
      </trkpt>
      <trkpt lat="43.61595" lon="1.10215">
        <ele>180.111</ele>
        <time>2016-12-30T13:10:45Z</time>
      </trkpt>
      <trkpt lat="43.61643" lon="1.10035">
        <ele>168.608</ele>
        <time>2016-12-30T13:11:05Z</time>
      </trkpt>
      <trkpt lat="43.61742" lon="1.09821">
        <ele>153.928</ele>
        <time>2016-12-30T13:11:25Z</time>
      </trkpt>
      <trkpt lat="43.61814" lon="1.09707">
        <ele>151.041</ele>
        <time>2016-12-30T13:11:45Z</time>
      </trkpt>
      <trkpt lat="43.61814" lon="1.0964">
        <ele>149.417</ele>
        <time>2016-12-30T13:12:05Z</time>
      </trkpt>
      <trkpt lat="43.6184" lon="1.09588">
        <ele>150.086</ele>
        <time>2016-12-30T13:12:25Z</time>
      </trkpt>
      <trkpt lat="43.6186" lon="1.09514">
        <ele>149.413</ele>
        <time>2016-12-30T13:12:45Z</time>
      </trkpt>
      <trkpt lat="43.61912" lon="1.09467">
        <ele>149.714</ele>
        <time>2016-12-30T13:13:05Z</time>
      </trkpt>
      <trkpt lat="43.62112" lon="1.09672">
        <ele>148.043</ele>
        <time>2016-12-30T13:13:25Z</time>
      </trkpt>
      <trkpt lat="43.62374" lon="1.09415">
        <ele>139.014</ele>
        <time>2016-12-30T13:13:45Z</time>
      </trkpt>
      <trkpt lat="43.62352" lon="1.08804">
        <ele>139.085</ele>
        <time>2016-12-30T13:14:05Z</time>
      </trkpt>
      <trkpt lat="43.62317" lon="1.08595">
        <ele>139.089</ele>
        <time>2016-12-30T13:14:25Z</time>
      </trkpt>
      <trkpt lat="43.62276" lon="1.08501">
        <ele>139.017</ele>
        <time>2016-12-30T13:14:45Z</time>
      </trkpt>
      <trkpt lat="43.62122" lon="1.08413">
        <ele>139.008</ele>
        <time>2016-12-30T13:15:05Z</time>
      </trkpt>
      <trkpt lat="43.62046" lon="1.08336">
        <ele>139.045</ele>
        <time>2016-12-30T13:15:25Z</time>
      </trkpt>
      <trkpt lat="43.61901" lon="1.08134">
        <ele>139.058</ele>
        <time>2016-12-30T13:15:45Z</time>
      </trkpt>
      <trkpt lat="43.6191" lon="1.08101">
        <ele>139.074</ele>
        <time>2016-12-30T13:16:05Z</time>
      </trkpt>
      <trkpt lat="43.62033" lon="1.07959">
        <ele>139.173</ele>
        <time>2016-12-30T13:16:25Z</time>
      </trkpt>
      <trkpt lat="43.61902" lon="1.07917">
        <ele>139.05</ele>
        <time>2016-12-30T13:17:45Z</time>
      </trkpt>
      <trkpt lat="43.61829" lon="1.07868">
        <ele>139.031</ele>
        <time>2016-12-30T13:18:05Z</time>
      </trkpt>
      <trkpt lat="43.61644" lon="1.0766">
        <ele>139.46</ele>
        <time>2016-12-30T13:18:25Z</time>
      </trkpt>
      <trkpt lat="43.61667" lon="1.07636">
        <ele>140.081</ele>
        <time>2016-12-30T13:19:25Z</time>
      </trkpt>
      <trkpt lat="43.61662" lon="1.07612">
        <ele>140.014</ele>
        <time>2016-12-30T13:19:45Z</time>
      </trkpt>
      <trkpt lat="43.6162" lon="1.07602">
        <ele>140.154</ele>
        <time>2016-12-30T13:20:05Z</time>
      </trkpt>
      <trkpt lat="43.61522" lon="1.0752">
        <ele>140.009</ele>
        <time>2016-12-30T13:20:25Z</time>
      </trkpt>
      <trkpt lat="43.61516" lon="1.07415">
        <ele>141.608</ele>
        <time>2016-12-30T13:20:45Z</time>
      </trkpt>
      <trkpt lat="43.61519" lon="1.07325">
        <ele>142.318</ele>
        <time>2016-12-30T13:21:05Z</time>
      </trkpt>
      <trkpt lat="43.6149" lon="1.0728">
        <ele>142.681</ele>
        <time>2016-12-30T13:21:25Z</time>
      </trkpt>
      <trkpt lat="43.61508" lon="1.07153">
        <ele>142.337</ele>
        <time>2016-12-30T13:21:45Z</time>
      </trkpt>
      <trkpt lat="43.6144" lon="1.07121">
        <ele>140.916</ele>
        <time>2016-12-30T13:22:05Z</time>
      </trkpt>
      <trkpt lat="43.6143" lon="1.07112">
        <ele>140.523</ele>
        <time>2019-02-28T18:25:06Z</time>
      </trkpt>
      <trkpt lat="43.61397" lon="1.07064">
        <ele>140.224</ele>
        <time>2019-02-28T18:25:26Z</time>
      </trkpt>
      <trkpt lat="43.61333" lon="1.07018">
        <ele>140.073</ele>
        <time>2019-02-28T18:25:46Z</time>
      </trkpt>
      <trkpt lat="43.61283" lon="1.07019">
        <ele>140.054</ele>
        <time>2019-02-28T18:26:06Z</time>
      </trkpt>
      <trkpt lat="43.6125" lon="1.07075">
        <ele>141.024</ele>
        <time>2019-02-28T18:26:26Z</time>
      </trkpt>
      <trkpt lat="43.61243" lon="1.07189">
        <ele>141.004</ele>
        <time>2016-12-30T13:24:25Z</time>
      </trkpt>
      <trkpt lat="43.61213" lon="1.07227">
        <ele>140.914</ele>
        <time>2016-12-30T13:24:45Z</time>
      </trkpt>
      <trkpt lat="43.61154" lon="1.07225">
        <ele>141.008</ele>
        <time>2016-12-30T13:25:25Z</time>
      </trkpt>
      <trkpt lat="43.61112" lon="1.07175">
        <ele>141.039</ele>
        <time>2016-12-30T13:25:45Z</time>
      </trkpt>
      <trkpt lat="43.611" lon="1.07099">
        <ele>141.012</ele>
        <time>2016-12-30T13:26:05Z</time>
      </trkpt>
      <trkpt lat="43.61056" lon="1.07019">
        <ele>141.098</ele>
        <time>2016-12-30T13:26:25Z</time>
      </trkpt>
      <trkpt lat="43.61017" lon="1.0702">
        <ele>141.057</ele>
        <time>2016-12-30T13:26:45Z</time>
      </trkpt>
      <trkpt lat="43.60989" lon="1.07068">
        <ele>141.054</ele>
        <time>2016-12-30T13:27:05Z</time>
      </trkpt>
      <trkpt lat="43.60959" lon="1.07068">
        <ele>141.075</ele>
        <time>2016-12-30T13:27:25Z</time>
      </trkpt>
      <trkpt lat="43.60912" lon="1.07005">
        <ele>141.274</ele>
        <time>2016-12-30T13:27:45Z</time>
      </trkpt>
      <trkpt lat="43.60827" lon="1.06957">
        <ele>146.465</ele>
        <time>2021-04-17T19:12:10Z</time>
      </trkpt>
      <trkpt lat="43.60861" lon="1.06832">
        <ele>141.026</ele>
        <time>2016-12-30T13:28:25Z</time>
      </trkpt>
      <trkpt lat="43.6083" lon="1.06758">
        <ele>141.047</ele>
        <time>2016-12-30T13:28:45Z</time>
      </trkpt>
      <trkpt lat="43.60731" lon="1.06663">
        <ele>141.011</ele>
        <time>2016-12-30T13:29:05Z</time>
      </trkpt>
      <trkpt lat="43.60692" lon="1.06521">
        <ele>141.008</ele>
        <time>2016-12-30T13:29:25Z</time>
      </trkpt>
      <trkpt lat="43.60704" lon="1.06328">
        <ele>142.019</ele>
        <time>2016-12-30T13:29:45Z</time>
      </trkpt>
      <trkpt lat="43.60679" lon="1.06159">
        <ele>142.022</ele>
        <time>2016-12-30T13:30:05Z</time>
      </trkpt>
      <trkpt lat="43.60597" lon="1.05918">
        <ele>142.028</ele>
        <time>2016-12-30T13:30:25Z</time>
      </trkpt>
      <trkpt lat="43.60461" lon="1.05562">
        <ele>142.067</ele>
        <time>2016-12-30T13:30:45Z</time>
      </trkpt>
      <trkpt lat="43.60499" lon="1.05514">
        <ele>142.024</ele>
        <time>2016-12-30T13:31:05Z</time>
      </trkpt>
      <trkpt lat="43.60526" lon="1.0544">
        <ele>143.115</ele>
        <time>2016-12-30T13:31:25Z</time>
      </trkpt>
      <trkpt lat="43.60565" lon="1.05363">
        <ele>147.934</ele>
        <time>2016-12-30T13:31:45Z</time>
      </trkpt>
      <trkpt lat="43.60449" lon="1.05246">
        <ele>145.215</ele>
        <time>2016-12-30T13:32:05Z</time>
      </trkpt>
      <trkpt lat="43.60366" lon="1.05102">
        <ele>143.125</ele>
        <time>2016-12-30T13:32:25Z</time>
      </trkpt>
      <trkpt lat="43.60378" lon="1.05039">
        <ele>143.626</ele>
        <time>2016-12-30T13:32:45Z</time>
      </trkpt>
      <trkpt lat="43.60364" lon="1.04974">
        <ele>143.908</ele>
        <time>2016-12-30T13:33:05Z</time>
      </trkpt>
      <trkpt lat="43.60418" lon="1.04821">
        <ele>145.108</ele>
        <time>2016-12-30T13:33:25Z</time>
      </trkpt>
      <trkpt lat="43.60454" lon="1.04785">
        <ele>149.759</ele>
        <time>2021-04-17T19:17:50Z</time>
      </trkpt>
      <trkpt lat="43.60677" lon="1.04336">
        <ele>150.082</ele>
        <time>2016-12-30T13:34:25Z</time>
      </trkpt>
      <trkpt lat="43.6076" lon="1.04153">
        <ele>150.098</ele>
        <time>2016-12-30T13:34:45Z</time>
      </trkpt>
      <trkpt lat="43.60786" lon="1.04065">
        <ele>150.927</ele>
        <time>2021-04-17T19:18:50Z</time>
      </trkpt>
      <trkpt lat="43.60832" lon="1.03832">
        <ele>150.154</ele>
        <time>2021-04-17T19:19:10Z</time>
      </trkpt>
      <trkpt lat="43.60893" lon="1.03653">
        <ele>150.495</ele>
        <time>2016-12-30T13:35:45Z</time>
      </trkpt>
      <trkpt lat="43.60387" lon="1.02201">
        <ele>195.954</ele>
        <time>2016-12-30T13:36:05Z</time>
      </trkpt>
      <trkpt lat="43.60386" lon="1.02198">
        <ele>196.085</ele>
        <time>2016-12-30T13:36:25Z</time>
      </trkpt>
      <trkpt lat="43.60279" lon="1.01611">
        <ele>200.042</ele>
        <time>2016-12-30T13:36:45Z</time>
      </trkpt>
      <trkpt lat="43.6026" lon="1.01515">
        <ele>201.922</ele>
        <time>2016-12-30T13:37:05Z</time>
      </trkpt>
      <trkpt lat="43.60252" lon="1.00996">
        <ele>216.014</ele>
        <time>2016-12-30T13:37:25Z</time>
      </trkpt>
      <trkpt lat="43.60281" lon="1.0084">
        <ele>216.108</ele>
        <time>2016-12-30T13:37:45Z</time>
      </trkpt>
      <trkpt lat="43.60262" lon="1.00834">
        <ele>216.041</ele>
        <time>2016-12-30T13:38:05Z</time>
      </trkpt>
      <trkpt lat="43.60253" lon="1.00717">
        <ele>210.014</ele>
        <time>2016-12-30T13:38:25Z</time>
      </trkpt>
      <trkpt lat="43.60239" lon="1.00629">
        <ele>206.07</ele>
        <time>2016-12-30T13:38:45Z</time>
      </trkpt>
      <trkpt lat="43.60206" lon="1.00484">
        <ele>200.989</ele>
        <time>2016-12-30T13:39:05Z</time>
      </trkpt>
      <trkpt lat="43.60169" lon="1.00388">
        <ele>198.266</ele>
        <time>2016-12-30T13:39:25Z</time>
      </trkpt>
      <trkpt lat="43.60094" lon="1.00335">
        <ele>200.227</ele>
        <time>2016-12-30T13:39:45Z</time>
      </trkpt>
      <trkpt lat="43.5995" lon="1.00042">
        <ele>206.486</ele>
        <time>2016-12-30T13:40:05Z</time>
      </trkpt>
      <trkpt lat="43.59912" lon="0.99906">
        <ele>200.527</ele>
        <time>2016-12-30T13:40:25Z</time>
      </trkpt>
      <trkpt lat="43.5985" lon="0.99799">
        <ele>190.237</ele>
        <time>2016-12-30T13:40:45Z</time>
      </trkpt>
      <trkpt lat="43.59835" lon="0.99729">
        <ele>182.849</ele>
        <time>2016-12-30T13:41:05Z</time>
      </trkpt>
      <trkpt lat="43.59835" lon="0.99625">
        <ele>178.213</ele>
        <time>2016-12-30T13:41:25Z</time>
      </trkpt>
      <trkpt lat="43.59796" lon="0.99417">
        <ele>179.008</ele>
        <time>2016-12-30T13:41:45Z</time>
      </trkpt>
      <trkpt lat="43.59783" lon="0.99081">
        <ele>190.94</ele>
        <time>2016-12-30T13:42:05Z</time>
      </trkpt>
      <trkpt lat="43.59767" lon="0.98863">
        <ele>199.373</ele>
        <time>2016-12-30T13:42:25Z</time>
      </trkpt>
      <trkpt lat="43.59743" lon="0.98747">
        <ele>205.769</ele>
        <time>2016-12-30T13:42:45Z</time>
      </trkpt>
      <trkpt lat="43.59697" lon="0.98676">
        <ele>213.258</ele>
        <time>2016-12-30T13:43:05Z</time>
      </trkpt>
      <trkpt lat="43.59698" lon="0.98527">
        <ele>220.025</ele>
        <time>2016-12-30T13:43:25Z</time>
      </trkpt>
      <trkpt lat="43.59748" lon="0.9842">
        <ele>219.966</ele>
        <time>2016-12-30T13:43:45Z</time>
      </trkpt>
      <trkpt lat="43.59785" lon="0.98248">
        <ele>213.245</ele>
        <time>2016-12-30T13:44:05Z</time>
      </trkpt>
      <trkpt lat="43.598" lon="0.98137">
        <ele>208.846</ele>
        <time>2016-12-30T13:44:25Z</time>
      </trkpt>
      <trkpt lat="43.59755" lon="0.98112">
        <ele>203.999</ele>
        <time>2016-12-30T13:44:45Z</time>
      </trkpt>
      <trkpt lat="43.59771" lon="0.97983">
        <ele>200.907</ele>
        <time>2016-12-30T13:45:05Z</time>
      </trkpt>
      <trkpt lat="43.59747" lon="0.97994">
        <ele>197.327</ele>
        <time>2016-12-30T13:45:25Z</time>
      </trkpt>
      <trkpt lat="43.5965" lon="0.97916">
        <ele>176.808</ele>
        <time>2016-12-30T13:45:45Z</time>
      </trkpt>
      <trkpt lat="43.59616" lon="0.97838">
        <ele>175.846</ele>
        <time>2016-12-30T13:46:05Z</time>
      </trkpt>
      <trkpt lat="43.59563" lon="0.97859">
        <ele>176.199</ele>
        <time>2016-12-30T13:46:25Z</time>
      </trkpt>
      <trkpt lat="43.59488" lon="0.97865">
        <ele>175.975</ele>
        <time>2016-12-30T13:46:45Z</time>
      </trkpt>
      <trkpt lat="43.59475" lon="0.97794">
        <ele>181.374</ele>
        <time>2016-12-30T13:47:05Z</time>
      </trkpt>
      <trkpt lat="43.59409" lon="0.97683">
        <ele>187.741</ele>
        <time>2016-12-30T13:47:25Z</time>
      </trkpt>
      <trkpt lat="43.59363" lon="0.97651">
        <ele>190.512</ele>
        <time>2016-12-30T13:47:45Z</time>
      </trkpt>
      <trkpt lat="43.59336" lon="0.97605">
        <ele>192.321</ele>
        <time>2016-12-30T13:48:05Z</time>
      </trkpt>
      <trkpt lat="43.59219" lon="0.97489">
        <ele>170.072</ele>
        <time>2016-12-30T13:48:25Z</time>
      </trkpt>
      <trkpt lat="43.59251" lon="0.97425">
        <ele>170.567</ele>
        <time>2016-12-30T13:48:45Z</time>
      </trkpt>
      <trkpt lat="43.59338" lon="0.97346">
        <ele>173.381</ele>
        <time>2016-12-30T13:49:05Z</time>
      </trkpt>
      <trkpt lat="43.5938" lon="0.97248">
        <ele>175.019</ele>
        <time>2016-12-30T13:49:25Z</time>
      </trkpt>
      <trkpt lat="43.59407" lon="0.97045">
        <ele>176.708</ele>
        <time>2016-12-30T13:49:45Z</time>
      </trkpt>
      <trkpt lat="43.59432" lon="0.9694">
        <ele>177.113</ele>
        <time>2016-12-30T13:50:05Z</time>
      </trkpt>
      <trkpt lat="43.59492" lon="0.96778">
        <ele>177.576</ele>
        <time>2016-12-30T13:50:25Z</time>
      </trkpt>
      <trkpt lat="43.59552" lon="0.96665">
        <ele>180.082</ele>
        <time>2016-12-30T13:50:45Z</time>
      </trkpt>
      <trkpt lat="43.59545" lon="0.96608">
        <ele>180.021</ele>
        <time>2016-12-30T13:51:05Z</time>
      </trkpt>
      <trkpt lat="43.59602" lon="0.96196">
        <ele>194.648</ele>
        <time>2016-12-30T13:51:25Z</time>
      </trkpt>
      <trkpt lat="43.59604" lon="0.96091">
        <ele>200.249</ele>
        <time>2016-12-30T13:51:45Z</time>
      </trkpt>
      <trkpt lat="43.59653" lon="0.95823">
        <ele>213.488</ele>
        <time>2016-12-30T13:52:05Z</time>
      </trkpt>
      <trkpt lat="43.59707" lon="0.95609">
        <ele>218.799</ele>
        <time>2016-12-30T13:52:25Z</time>
      </trkpt>
      <trkpt lat="43.59736" lon="0.95452">
        <ele>220.429</ele>
        <time>2016-12-30T13:52:45Z</time>
      </trkpt>
      <trkpt lat="43.59739" lon="0.9532">
        <ele>222.9</ele>
        <time>2016-12-30T13:53:05Z</time>
      </trkpt>
      <trkpt lat="43.59823" lon="0.95098">
        <ele>225.02</ele>
        <time>2016-12-30T13:53:25Z</time>
      </trkpt>
      <trkpt lat="43.59969" lon="0.94842">
        <ele>235.408</ele>
        <time>2016-12-30T13:53:45Z</time>
      </trkpt>
      <trkpt lat="43.60424" lon="0.95099">
        <ele>222.329</ele>
        <time>2016-12-30T13:54:05Z</time>
      </trkpt>
      <trkpt lat="43.60445" lon="0.94802">
        <ele>231.112</ele>
        <time>2019-02-28T18:56:46Z</time>
      </trkpt>
      <trkpt lat="43.60436" lon="0.9473">
        <ele>229.788</ele>
        <time>2019-02-28T18:57:06Z</time>
      </trkpt>
      <trkpt lat="43.60468" lon="0.94418">
        <ele>219.537</ele>
        <time>2019-02-28T18:57:26Z</time>
      </trkpt>
      <trkpt lat="43.60463" lon="0.94264">
        <ele>210.074</ele>
        <time>2019-02-28T18:57:46Z</time>
      </trkpt>
      <trkpt lat="43.605" lon="0.94081">
        <ele>208.995</ele>
        <time>2019-02-28T18:58:06Z</time>
      </trkpt>
      <trkpt lat="43.60495" lon="0.94015">
        <ele>206.894</ele>
        <time>2016-12-30T13:54:45Z</time>
      </trkpt>
      <trkpt lat="43.60503" lon="0.93927">
        <ele>205.025</ele>
        <time>2016-12-30T13:55:05Z</time>
      </trkpt>
      <trkpt lat="43.60488" lon="0.93824">
        <ele>207.984</ele>
        <time>2016-12-30T13:55:25Z</time>
      </trkpt>
      <trkpt lat="43.60495" lon="0.93645">
        <ele>220.307</ele>
        <time>2016-12-30T13:55:45Z</time>
      </trkpt>
      <trkpt lat="43.60524" lon="0.93534">
        <ele>225.217</ele>
        <time>2016-12-30T13:56:05Z</time>
      </trkpt>
      <trkpt lat="43.60576" lon="0.93439">
        <ele>224.908</ele>
        <time>2016-12-30T13:56:25Z</time>
      </trkpt>
      <trkpt lat="43.60642" lon="0.93272">
        <ele>220.775</ele>
        <time>2016-12-30T13:56:45Z</time>
      </trkpt>
      <trkpt lat="43.60663" lon="0.93169">
        <ele>217.968</ele>
        <time>2016-12-30T13:57:05Z</time>
      </trkpt>
      <trkpt lat="43.60683" lon="0.93063">
        <ele>215.644</ele>
        <time>2016-12-30T13:57:25Z</time>
      </trkpt>
      <trkpt lat="43.60713" lon="0.9296">
        <ele>215.053</ele>
        <time>2016-12-30T13:57:45Z</time>
      </trkpt>
      <trkpt lat="43.60722" lon="0.92823">
        <ele>215.03</ele>
        <time>2021-04-17T19:43:10Z</time>
      </trkpt>
      <trkpt lat="43.60779" lon="0.92536">
        <ele>211.331</ele>
        <time>2016-12-30T13:58:25Z</time>
      </trkpt>
      <trkpt lat="43.60893" lon="0.92285">
        <ele>207.31</ele>
        <time>2016-12-30T13:58:45Z</time>
      </trkpt>
      <trkpt lat="43.6101" lon="0.92">
        <ele>185.031</ele>
        <time>2016-12-30T13:59:05Z</time>
      </trkpt>
      <trkpt lat="43.61032" lon="0.91822">
        <ele>208.741</ele>
        <time>2016-12-30T13:59:25Z</time>
      </trkpt>
      <trkpt lat="43.61077" lon="0.91634">
        <ele>209.681</ele>
        <time>2016-12-30T13:59:45Z</time>
      </trkpt>
      <trkpt lat="43.61085" lon="0.915">
        <ele>211.909</ele>
        <time>2016-12-30T14:00:05Z</time>
      </trkpt>
      <trkpt lat="43.61075" lon="0.91388">
        <ele>210.608</ele>
        <time>2016-12-30T14:00:25Z</time>
      </trkpt>
      <trkpt lat="43.61136" lon="0.91092">
        <ele>209.711</ele>
        <time>2016-12-30T14:00:45Z</time>
      </trkpt>
      <trkpt lat="43.60964" lon="0.91186">
        <ele>212.914</ele>
        <time>2021-04-17T19:46:10Z</time>
      </trkpt>
      <trkpt lat="43.60952" lon="0.91117">
        <ele>211.62</ele>
        <time>2021-04-17T19:46:30Z</time>
      </trkpt>
      <trkpt lat="43.60961" lon="0.90842">
        <ele>210.299</ele>
        <time>2016-12-30T14:02:05Z</time>
      </trkpt>
      <trkpt lat="43.6101" lon="0.90605">
        <ele>207.826</ele>
        <time>2016-12-30T14:02:25Z</time>
      </trkpt>
      <trkpt lat="43.61045" lon="0.90316">
        <ele>202.287</ele>
        <time>2016-12-30T14:02:45Z</time>
      </trkpt>
      <trkpt lat="43.61046" lon="0.90204">
        <ele>200.976</ele>
        <time>2016-12-30T14:03:05Z</time>
      </trkpt>
      <trkpt lat="43.61036" lon="0.90074">
        <ele>200.417</ele>
        <time>2016-12-30T14:03:25Z</time>
      </trkpt>
      <trkpt lat="43.60967" lon="0.89856">
        <ele>178.096</ele>
        <time>2021-04-17T19:48:30Z</time>
      </trkpt>
      <trkpt lat="43.60899" lon="0.8969">
        <ele>165.831</ele>
        <time>2021-04-17T19:48:50Z</time>
      </trkpt>
      <trkpt lat="43.60906" lon="0.89644">
        <ele>164.324</ele>
        <time>2021-04-17T19:49:10Z</time>
      </trkpt>
      <trkpt lat="43.60863" lon="0.89583">
        <ele>164.908</ele>
        <time>2021-04-17T19:49:30Z</time>
      </trkpt>
      <trkpt lat="43.6078" lon="0.89547">
        <ele>165.076</ele>
        <time>2016-12-30T14:08:05Z</time>
      </trkpt>
      <trkpt lat="43.60672" lon="0.89534">
        <ele>165.019</ele>
        <time>2016-12-30T14:08:25Z</time>
      </trkpt>
      <trkpt lat="43.60723" lon="0.89457">
        <ele>165.045</ele>
        <time>2016-12-30T14:08:45Z</time>
      </trkpt>
      <trkpt lat="43.60782" lon="0.89318">
        <ele>165.064</ele>
        <time>2016-12-30T14:09:05Z</time>
      </trkpt>
      <trkpt lat="43.60807" lon="0.89237">
        <ele>164.851</ele>
        <time>2021-04-17T19:51:10Z</time>
      </trkpt>
      <trkpt lat="43.60868" lon="0.89174">
        <ele>167.142</ele>
        <time>2021-04-17T19:51:30Z</time>
      </trkpt>
      <trkpt lat="43.60915" lon="0.89157">
        <ele>168.971</ele>
        <time>2021-04-17T19:51:50Z</time>
      </trkpt>
      <trkpt lat="43.60983" lon="0.8909">
        <ele>167.012</ele>
        <time>2016-12-30T14:09:25Z</time>
      </trkpt>
      <trkpt lat="43.61096" lon="0.88947">
        <ele>166.033</ele>
        <time>2016-12-30T14:09:45Z</time>
      </trkpt>
      <trkpt lat="43.61202" lon="0.88851">
        <ele>167.623</ele>
        <time>2016-12-30T14:10:05Z</time>
      </trkpt>
      <trkpt lat="43.61298" lon="0.8878">
        <ele>172.915</ele>
        <time>2016-12-30T14:10:25Z</time>
      </trkpt>
      <trkpt lat="43.6132" lon="0.88665">
        <ele>179.208</ele>
        <time>2021-04-17T19:53:30Z</time>
      </trkpt>
      <trkpt lat="43.6131" lon="0.88537">
        <ele>182.58</ele>
        <time>2016-12-30T14:11:05Z</time>
      </trkpt>
      <trkpt lat="43.61318" lon="0.88411">
        <ele>187.263</ele>
        <time>2016-12-30T14:11:25Z</time>
      </trkpt>
      <trkpt lat="43.61343" lon="0.8828">
        <ele>191.979</ele>
        <time>2016-12-30T14:11:45Z</time>
      </trkpt>
      <trkpt lat="43.61364" lon="0.88262">
        <ele>192.798</ele>
        <time>2016-12-30T14:12:05Z</time>
      </trkpt>
      <trkpt lat="43.61419" lon="0.88066">
        <ele>202.675</ele>
        <time>2021-04-17T19:55:10Z</time>
      </trkpt>
      <trkpt lat="43.61618" lon="0.88115">
        <ele>200.066</ele>
        <time>2016-12-30T14:13:05Z</time>
      </trkpt>
      <trkpt lat="43.61633" lon="0.88086">
        <ele>200.045</ele>
        <time>2016-12-30T14:13:25Z</time>
      </trkpt>
      <trkpt lat="43.61684" lon="0.87872">
        <ele>200.016</ele>
        <time>2016-12-30T14:13:45Z</time>
      </trkpt>
      <trkpt lat="43.61744" lon="0.87698">
        <ele>196.858</ele>
        <time>2016-12-30T14:14:05Z</time>
      </trkpt>
      <trkpt lat="43.61782" lon="0.87534">
        <ele>196.652</ele>
        <time>2016-12-30T14:14:25Z</time>
      </trkpt>
      <trkpt lat="43.61848" lon="0.87588">
        <ele>190.417</ele>
        <time>2016-12-30T14:14:45Z</time>
      </trkpt>
      <trkpt lat="43.61964" lon="0.87428">
        <ele>184.508</ele>
        <time>2016-12-30T14:15:05Z</time>
      </trkpt>
      <trkpt lat="43.62107" lon="0.87162">
        <ele>176.512</ele>
        <time>2016-12-30T14:15:25Z</time>
      </trkpt>
      <trkpt lat="43.62171" lon="0.87035">
        <ele>175.075</ele>
        <time>2016-12-30T14:15:45Z</time>
      </trkpt>
      <trkpt lat="43.622" lon="0.87028">
        <ele>174.441</ele>
        <time>2016-12-30T14:16:05Z</time>
      </trkpt>
      <trkpt lat="43.62235" lon="0.87019">
        <ele>171.12</ele>
        <time>2016-12-30T14:16:25Z</time>
      </trkpt>
      <trkpt lat="43.62274" lon="0.87033">
        <ele>168.697</ele>
        <time>2016-12-30T14:16:45Z</time>
      </trkpt>
      <trkpt lat="43.6237" lon="0.87009">
        <ele>154.648</ele>
        <time>2021-04-17T19:59:30Z</time>
      </trkpt>
      <trkpt lat="43.62372" lon="0.87039">
        <ele>155.427</ele>
        <time>2021-04-17T19:59:50Z</time>
      </trkpt>
      <trkpt lat="43.62417" lon="0.87081">
        <ele>153.938</ele>
        <time>2021-04-17T20:00:10Z</time>
      </trkpt>
      <trkpt lat="43.62459" lon="0.87013">
        <ele>151.248</ele>
        <time>2021-04-17T20:00:30Z</time>
      </trkpt>
      <trkpt lat="43.62532" lon="0.8705">
        <ele>146.461</ele>
        <time>2016-12-30T14:18:05Z</time>
      </trkpt>
      <trkpt lat="43.62573" lon="0.86885">
        <ele>145.017</ele>
        <time>2016-12-30T14:18:25Z</time>
      </trkpt>
      <trkpt lat="43.62571" lon="0.86812">
        <ele>145.008</ele>
        <time>2016-12-30T14:18:45Z</time>
      </trkpt>
      <trkpt lat="43.62736" lon="0.86862">
        <ele>145.051</ele>
        <time>2016-12-30T14:19:05Z</time>
      </trkpt>
      <trkpt lat="43.62764" lon="0.86846">
        <ele>145.014</ele>
        <time>2016-12-30T14:19:25Z</time>
      </trkpt>
      <trkpt lat="43.62822" lon="0.86868">
        <ele>145.08</ele>
        <time>2016-12-30T14:19:45Z</time>
      </trkpt>
      <trkpt lat="43.62958" lon="0.86954">
        <ele>145.079</ele>
        <time>2016-12-30T14:20:05Z</time>
      </trkpt>
      <trkpt lat="43.63006" lon="0.8677">
        <ele>145.086</ele>
        <time>2016-12-30T14:20:25Z</time>
      </trkpt>
      <trkpt lat="43.63094" lon="0.86496">
        <ele>149.057</ele>
        <time>2016-12-30T14:20:45Z</time>
      </trkpt>
      <trkpt lat="43.63117" lon="0.86459">
        <ele>149.966</ele>
        <time>2016-12-30T14:21:05Z</time>
      </trkpt>
      <trkpt lat="43.631" lon="0.86423">
        <ele>152.197</ele>
        <time>2016-12-30T14:21:25Z</time>
      </trkpt>
      <trkpt lat="43.63057" lon="0.86396">
        <ele>150.654</ele>
        <time>2016-12-30T14:21:45Z</time>
      </trkpt>
      <trkpt lat="43.63021" lon="0.86333">
        <ele>151.356</ele>
        <time>2016-12-30T14:22:05Z</time>
      </trkpt>
      <trkpt lat="43.62975" lon="0.86062">
        <ele>154.711</ele>
        <time>2016-12-30T14:22:25Z</time>
      </trkpt>
      <trkpt lat="43.62983" lon="0.8599">
        <ele>156.108</ele>
        <time>2016-12-30T14:22:45Z</time>
      </trkpt>
      <trkpt lat="43.63041" lon="0.85738">
        <ele>160.562</ele>
        <time>2016-12-30T14:23:05Z</time>
      </trkpt>
      <trkpt lat="43.6301" lon="0.8558">
        <ele>159.955</ele>
        <time>2016-12-30T14:23:25Z</time>
      </trkpt>
      <trkpt lat="43.63006" lon="0.85488">
        <ele>159.681</ele>
        <time>2016-12-30T14:23:45Z</time>
      </trkpt>
      <trkpt lat="43.62932" lon="0.85418">
        <ele>165.32</ele>
        <time>2016-12-30T14:24:05Z</time>
      </trkpt>
      <trkpt lat="43.62838" lon="0.85378">
        <ele>178.027</ele>
        <time>2016-12-30T14:24:25Z</time>
      </trkpt>
      <trkpt lat="43.62809" lon="0.85294">
        <ele>179.798</ele>
        <time>2016-12-30T14:24:45Z</time>
      </trkpt>
      <trkpt lat="43.62711" lon="0.85271">
        <ele>193.137</ele>
        <time>2016-12-30T14:25:05Z</time>
      </trkpt>
      <trkpt lat="43.62705" lon="0.85146">
        <ele>194.968</ele>
        <time>2016-12-30T14:25:25Z</time>
      </trkpt>
      <trkpt lat="43.6266" lon="0.85059">
        <ele>195.321</ele>
        <time>2016-12-30T14:25:45Z</time>
      </trkpt>
      <trkpt lat="43.62626" lon="0.84947">
        <ele>198.841</ele>
        <time>2016-12-30T14:26:05Z</time>
      </trkpt>
      <trkpt lat="43.6259" lon="0.84754">
        <ele>205.005</ele>
        <time>2016-12-30T14:26:25Z</time>
      </trkpt>
      <trkpt lat="43.62615" lon="0.84643">
        <ele>204.608</ele>
        <time>2021-04-17T20:09:30Z</time>
      </trkpt>
      <trkpt lat="43.6266" lon="0.84595">
        <ele>203.129</ele>
        <time>2021-04-17T20:09:50Z</time>
      </trkpt>
      <trkpt lat="43.62752" lon="0.84564">
        <ele>197.212</ele>
        <time>2021-04-17T20:10:10Z</time>
      </trkpt>
      <trkpt lat="43.62791" lon="0.84507">
        <ele>197.168</ele>
        <time>2021-04-17T20:10:30Z</time>
      </trkpt>
      <trkpt lat="43.62806" lon="0.8444">
        <ele>198.687</ele>
        <time>2021-04-17T20:10:50Z</time>
      </trkpt>
      <trkpt lat="43.62802" lon="0.84174">
        <ele>212.494</ele>
        <time>2021-04-17T20:11:10Z</time>
      </trkpt>
      <trkpt lat="43.62781" lon="0.84177">
        <ele>212.965</ele>
        <time>2021-04-17T20:11:30Z</time>
      </trkpt>
      <trkpt lat="43.6273" lon="0.84361">
        <ele>208.754</ele>
        <time>2021-04-17T20:11:50Z</time>
      </trkpt>
      <trkpt lat="43.62629" lon="0.844">
        <ele>208.285</ele>
        <time>2021-04-17T20:12:10Z</time>
      </trkpt>
      <trkpt lat="43.62587" lon="0.844">
        <ele>206.265</ele>
        <time>2021-04-17T20:12:30Z</time>
      </trkpt>
      <trkpt lat="43.62409" lon="0.84115">
        <ele>204.568</ele>
        <time>2016-12-30T14:27:05Z</time>
      </trkpt>
      <trkpt lat="43.62335" lon="0.83925">
        <ele>182.814</ele>
        <time>2016-12-30T14:27:25Z</time>
      </trkpt>
      <trkpt lat="43.62241" lon="0.83728">
        <ele>170.108</ele>
        <time>2016-12-30T14:27:45Z</time>
      </trkpt>
      <trkpt lat="43.62215" lon="0.83558">
        <ele>175.443</ele>
        <time>2016-12-30T14:28:05Z</time>
      </trkpt>
      <trkpt lat="43.62162" lon="0.83395">
        <ele>184.516</ele>
        <time>2016-12-30T14:28:25Z</time>
      </trkpt>
      <trkpt lat="43.62128" lon="0.83334">
        <ele>188.262</ele>
        <time>2016-12-30T14:28:45Z</time>
      </trkpt>
      <trkpt lat="43.62069" lon="0.83112">
        <ele>201.521</ele>
        <time>2016-12-30T14:29:05Z</time>
      </trkpt>
      <trkpt lat="43.62032" lon="0.82844">
        <ele>219.728</ele>
        <time>2016-12-30T14:29:25Z</time>
      </trkpt>
      <trkpt lat="43.62054" lon="0.82771">
        <ele>219.999</ele>
        <time>2016-12-30T14:29:45Z</time>
      </trkpt>
      <trkpt lat="43.62022" lon="0.82089">
        <ele>198.578</ele>
        <time>2016-12-30T14:30:05Z</time>
      </trkpt>
      <trkpt lat="43.62032" lon="0.81959">
        <ele>195.229</ele>
        <time>2016-12-30T14:30:25Z</time>
      </trkpt>
      <trkpt lat="43.62067" lon="0.81863">
        <ele>195.054</ele>
        <time>2016-12-30T14:30:45Z</time>
      </trkpt>
      <trkpt lat="43.621" lon="0.81817">
        <ele>195.056</ele>
        <time>2016-12-30T14:31:05Z</time>
      </trkpt>
      <trkpt lat="43.62084" lon="0.81778">
        <ele>195.011</ele>
        <time>2016-12-30T14:31:25Z</time>
      </trkpt>
      <trkpt lat="43.62099" lon="0.8149">
        <ele>207.608</ele>
        <time>2016-12-30T14:31:45Z</time>
      </trkpt>
      <trkpt lat="43.62116" lon="0.81365">
        <ele>211.342</ele>
        <time>2016-12-30T14:32:05Z</time>
      </trkpt>
      <trkpt lat="43.62106" lon="0.81005">
        <ele>230.195</ele>
        <time>2016-12-30T14:32:25Z</time>
      </trkpt>
      <trkpt lat="43.6208" lon="0.80913">
        <ele>227.841</ele>
        <time>2016-12-30T14:32:45Z</time>
      </trkpt>
      <trkpt lat="43.61959" lon="0.80785">
        <ele>218.69</ele>
        <time>2016-12-30T14:33:05Z</time>
      </trkpt>
      <trkpt lat="43.61835" lon="0.80556">
        <ele>230.227</ele>
        <time>2021-04-17T20:19:10Z</time>
      </trkpt>
      <trkpt lat="43.61801" lon="0.80358">
        <ele>232.778</ele>
        <time>2016-12-30T14:33:45Z</time>
      </trkpt>
      <trkpt lat="43.61916" lon="0.79832">
        <ele>219.987</ele>
        <time>2016-12-30T14:34:05Z</time>
      </trkpt>
      <trkpt lat="43.61973" lon="0.79622">
        <ele>216.498</ele>
        <time>2016-12-30T14:34:25Z</time>
      </trkpt>
      <trkpt lat="43.6198" lon="0.79495">
        <ele>212.436</ele>
        <time>2016-12-30T14:34:45Z</time>
      </trkpt>
      <trkpt lat="43.61977" lon="0.79486">
        <ele>211.817</ele>
        <time>2016-12-30T14:35:05Z</time>
      </trkpt>
      <trkpt lat="43.61934" lon="0.79282">
        <ele>200.118</ele>
        <time>2016-12-30T14:35:25Z</time>
      </trkpt>
      <trkpt lat="43.61932" lon="0.79138">
        <ele>196.808</ele>
        <time>2016-12-30T14:35:45Z</time>
      </trkpt>
      <trkpt lat="43.62024" lon="0.78588">
        <ele>195.33</ele>
        <time>2016-12-30T14:36:05Z</time>
      </trkpt>
      <trkpt lat="43.62022" lon="0.78336">
        <ele>195.613</ele>
        <time>2016-12-30T14:36:25Z</time>
      </trkpt>
      <trkpt lat="43.61967" lon="0.78321">
        <ele>199.739</ele>
        <time>2016-12-30T14:36:45Z</time>
      </trkpt>
      <trkpt lat="43.61894" lon="0.78091">
        <ele>194.758</ele>
        <time>2016-12-30T14:37:05Z</time>
      </trkpt>
      <trkpt lat="43.61894" lon="0.78036">
        <ele>194.845</ele>
        <time>2016-12-30T14:37:25Z</time>
      </trkpt>
      <trkpt lat="43.61926" lon="0.7787">
        <ele>194.656</ele>
        <time>2016-12-30T14:37:45Z</time>
      </trkpt>
      <trkpt lat="43.61918" lon="0.77783">
        <ele>190.695</ele>
        <time>2016-12-30T14:38:05Z</time>
      </trkpt>
      <trkpt lat="43.61815" lon="0.7766">
        <ele>181.426</ele>
        <time>2016-12-30T14:38:25Z</time>
      </trkpt>
      <trkpt lat="43.61803" lon="0.77574">
        <ele>179.088</ele>
        <time>2016-12-30T14:38:45Z</time>
      </trkpt>
      <trkpt lat="43.61824" lon="0.77401">
        <ele>161.824</ele>
        <time>2016-12-30T14:39:05Z</time>
      </trkpt>
      <trkpt lat="43.61602" lon="0.77168">
        <ele>156.826</ele>
        <time>2016-12-30T14:39:25Z</time>
      </trkpt>
      <trkpt lat="43.61586" lon="0.77114">
        <ele>155.108</ele>
        <time>2016-12-30T14:39:45Z</time>
      </trkpt>
      <trkpt lat="43.61531" lon="0.77023">
        <ele>155.035</ele>
        <time>2016-12-30T14:40:05Z</time>
      </trkpt>
      <trkpt lat="43.61674" lon="0.76866">
        <ele>155.038</ele>
        <time>2016-12-30T14:40:25Z</time>
      </trkpt>
      <trkpt lat="43.61784" lon="0.76687">
        <ele>155.164</ele>
        <time>2016-12-30T14:40:45Z</time>
      </trkpt>
      <trkpt lat="43.61818" lon="0.76698">
        <ele>155.493</ele>
        <time>2016-12-30T14:41:05Z</time>
      </trkpt>
      <trkpt lat="43.61919" lon="0.76809">
        <ele>155.07</ele>
        <time>2016-12-30T14:41:25Z</time>
      </trkpt>
      <trkpt lat="43.62022" lon="0.76858">
        <ele>154.211</ele>
        <time>2016-12-30T14:41:45Z</time>
      </trkpt>
      <trkpt lat="43.62085" lon="0.76673">
        <ele>157.13</ele>
        <time>2016-12-30T14:42:05Z</time>
      </trkpt>
      <trkpt lat="43.62117" lon="0.76637">
        <ele>161.581</ele>
        <time>2016-12-30T14:42:25Z</time>
      </trkpt>
      <trkpt lat="43.6217" lon="0.76485">
        <ele>166.743</ele>
        <time>2016-12-30T14:42:45Z</time>
      </trkpt>
      <trkpt lat="43.62174" lon="0.76436">
        <ele>174.064</ele>
        <time>2021-04-17T20:28:50Z</time>
      </trkpt>
      <trkpt lat="43.62201" lon="0.76365">
        <ele>173.51</ele>
        <time>2021-04-17T20:29:10Z</time>
      </trkpt>
      <trkpt lat="43.62188" lon="0.76292">
        <ele>173.808</ele>
        <time>2021-04-17T20:29:30Z</time>
      </trkpt>
      <trkpt lat="43.62179" lon="0.76172">
        <ele>172.961</ele>
        <time>2021-04-17T20:29:50Z</time>
      </trkpt>
      <trkpt lat="43.62277" lon="0.75872">
        <ele>185.994</ele>
        <time>2016-12-30T14:43:45Z</time>
      </trkpt>
      <trkpt lat="43.62326" lon="0.75777">
        <ele>190.51</ele>
        <time>2016-12-30T14:44:05Z</time>
      </trkpt>
      <trkpt lat="43.62437" lon="0.75487">
        <ele>200.619</ele>
        <time>2016-12-30T14:44:25Z</time>
      </trkpt>
      <trkpt lat="43.6246" lon="0.75363">
        <ele>202.756</ele>
        <time>2016-12-30T14:44:45Z</time>
      </trkpt>
      <trkpt lat="43.6247" lon="0.75276">
        <ele>201.557</ele>
        <time>2016-12-30T14:45:05Z</time>
      </trkpt>
      <trkpt lat="43.62507" lon="0.75193">
        <ele>200.896</ele>
        <time>2016-12-30T14:45:25Z</time>
      </trkpt>
      <trkpt lat="43.6254" lon="0.75165">
        <ele>203.217</ele>
        <time>2016-12-30T14:45:45Z</time>
      </trkpt>
      <trkpt lat="43.62749" lon="0.74899">
        <ele>214.978</ele>
        <time>2016-12-30T14:46:05Z</time>
      </trkpt>
      <trkpt lat="43.62941" lon="0.74712">
        <ele>220.033</ele>
        <time>2016-12-30T14:46:25Z</time>
      </trkpt>
      <trkpt lat="43.62994" lon="0.74585">
        <ele>228.426</ele>
        <time>2021-04-17T20:33:10Z</time>
      </trkpt>
      <trkpt lat="43.63023" lon="0.74398">
        <ele>223.508</ele>
        <time>2016-12-30T14:47:05Z</time>
      </trkpt>
      <trkpt lat="43.63027" lon="0.74236">
        <ele>223.924</ele>
        <time>2016-12-30T14:47:25Z</time>
      </trkpt>
      <trkpt lat="43.62739" lon="0.7395">
        <ele>194.517</ele>
        <time>2016-12-30T14:47:45Z</time>
      </trkpt>
      <trkpt lat="43.62658" lon="0.73812">
        <ele>189.693</ele>
        <time>2016-12-30T14:48:05Z</time>
      </trkpt>
      <trkpt lat="43.6259" lon="0.73622">
        <ele>183.232</ele>
        <time>2016-12-30T14:48:25Z</time>
      </trkpt>
      <trkpt lat="43.62523" lon="0.73555">
        <ele>192.749</ele>
        <time>2016-12-30T14:48:45Z</time>
      </trkpt>
      <trkpt lat="43.62533" lon="0.73504">
        <ele>195.46</ele>
        <time>2016-12-30T14:49:05Z</time>
      </trkpt>
      <trkpt lat="43.62521" lon="0.73413">
        <ele>194.689</ele>
        <time>2016-12-30T14:49:25Z</time>
      </trkpt>
      <trkpt lat="43.62537" lon="0.73347">
        <ele>194.24</ele>
        <time>2016-12-30T14:49:45Z</time>
      </trkpt>
      <trkpt lat="43.6253" lon="0.73193">
        <ele>193.222</ele>
        <time>2016-12-30T14:50:05Z</time>
      </trkpt>
      <trkpt lat="43.62496" lon="0.73124">
        <ele>194.362</ele>
        <time>2016-12-30T14:50:25Z</time>
      </trkpt>
      <trkpt lat="43.62429" lon="0.72928">
        <ele>187.108</ele>
        <time>2016-12-30T14:50:45Z</time>
      </trkpt>
      <trkpt lat="43.62373" lon="0.72803">
        <ele>182.408</ele>
        <time>2016-12-30T14:51:05Z</time>
      </trkpt>
      <trkpt lat="43.62407" lon="0.72695">
        <ele>184.629</ele>
        <time>2016-12-30T14:51:25Z</time>
      </trkpt>
      <trkpt lat="43.62441" lon="0.72504">
        <ele>185.772</ele>
        <time>2016-12-30T14:51:45Z</time>
      </trkpt>
      <trkpt lat="43.6244" lon="0.72425">
        <ele>188.538</ele>
        <time>2016-12-30T14:52:05Z</time>
      </trkpt>
      <trkpt lat="43.6251" lon="0.72377">
        <ele>194.027</ele>
        <time>2016-12-30T14:52:25Z</time>
      </trkpt>
      <trkpt lat="43.62531" lon="0.7219">
        <ele>194.374</ele>
        <time>2016-12-30T14:52:45Z</time>
      </trkpt>
      <trkpt lat="43.6251" lon="0.71976">
        <ele>193.735</ele>
        <time>2016-12-30T14:53:05Z</time>
      </trkpt>
      <trkpt lat="43.62495" lon="0.71901">
        <ele>193.664</ele>
        <time>2016-12-30T14:53:25Z</time>
      </trkpt>
      <trkpt lat="43.62504" lon="0.71829">
        <ele>194.325</ele>
        <time>2016-12-30T14:53:45Z</time>
      </trkpt>
      <trkpt lat="43.6261" lon="0.7168">
        <ele>199.557</ele>
        <time>2016-12-30T14:54:05Z</time>
      </trkpt>
      <trkpt lat="43.62648" lon="0.71614">
        <ele>200.6</ele>
        <time>2016-12-30T14:54:25Z</time>
      </trkpt>
      <trkpt lat="43.62697" lon="0.71561">
        <ele>200.12</ele>
        <time>2016-12-30T14:54:45Z</time>
      </trkpt>
      <trkpt lat="43.62798" lon="0.71207">
        <ele>222.808</ele>
        <time>2016-12-30T14:55:05Z</time>
      </trkpt>
      <trkpt lat="43.62711" lon="0.71192">
        <ele>223.072</ele>
        <time>2016-12-30T14:55:25Z</time>
      </trkpt>
      <trkpt lat="43.62756" lon="0.70858">
        <ele>244.365</ele>
        <time>2016-12-30T14:55:45Z</time>
      </trkpt>
      <trkpt lat="43.6276" lon="0.70693">
        <ele>244.221</ele>
        <time>2016-12-30T14:56:05Z</time>
      </trkpt>
      <trkpt lat="43.62774" lon="0.70612">
        <ele>239.92</ele>
        <time>2016-12-30T14:56:25Z</time>
      </trkpt>
      <trkpt lat="43.62783" lon="0.70453">
        <ele>228.587</ele>
        <time>2016-12-30T14:56:45Z</time>
      </trkpt>
      <trkpt lat="43.62777" lon="0.70422">
        <ele>228.268</ele>
        <time>2016-12-30T14:57:05Z</time>
      </trkpt>
      <trkpt lat="43.62851" lon="0.69831">
        <ele>216.677</ele>
        <time>2016-12-30T14:57:25Z</time>
      </trkpt>
      <trkpt lat="43.62927" lon="0.69507">
        <ele>201.248</ele>
        <time>2016-12-30T14:57:45Z</time>
      </trkpt>
      <trkpt lat="43.6292" lon="0.6947">
        <ele>197.886</ele>
        <time>2016-12-30T14:58:05Z</time>
      </trkpt>
      <trkpt lat="43.62938" lon="0.69442">
        <ele>193.96</ele>
        <time>2016-12-30T14:58:25Z</time>
      </trkpt>
      <trkpt lat="43.62924" lon="0.69366">
        <ele>194.526</ele>
        <time>2016-12-30T14:58:45Z</time>
      </trkpt>
      <trkpt lat="43.62986" lon="0.69196">
        <ele>204.908</ele>
        <time>2016-12-30T14:59:05Z</time>
      </trkpt>
      <trkpt lat="43.63072" lon="0.69162">
        <ele>210.285</ele>
        <time>2016-12-30T14:59:25Z</time>
      </trkpt>
      <trkpt lat="43.63128" lon="0.6898">
        <ele>217.628</ele>
        <time>2016-12-30T14:59:45Z</time>
      </trkpt>
      <trkpt lat="43.63182" lon="0.68864">
        <ele>218.824</ele>
        <time>2016-12-30T15:00:05Z</time>
      </trkpt>
      <trkpt lat="43.63304" lon="0.68653">
        <ele>209.193</ele>
        <time>2016-12-30T15:00:25Z</time>
      </trkpt>
      <trkpt lat="43.63332" lon="0.68574">
        <ele>207.18</ele>
        <time>2016-12-30T15:00:45Z</time>
      </trkpt>
      <trkpt lat="43.63474" lon="0.68549">
        <ele>199.231</ele>
        <time>2016-12-30T15:01:05Z</time>
      </trkpt>
      <trkpt lat="43.63564" lon="0.68537">
        <ele>195.41</ele>
        <time>2016-12-30T15:01:25Z</time>
      </trkpt>
      <trkpt lat="43.63654" lon="0.68495">
        <ele>192.681</ele>
        <time>2016-12-30T15:01:45Z</time>
      </trkpt>
      <trkpt lat="43.63688" lon="0.68448">
        <ele>192.391</ele>
        <time>2019-02-28T20:05:46Z</time>
      </trkpt>
      <trkpt lat="43.63737" lon="0.68307">
        <ele>201.381</ele>
        <time>2019-02-28T20:06:06Z</time>
      </trkpt>
      <trkpt lat="43.6374" lon="0.68273">
        <ele>203.719</ele>
        <time>2019-02-28T20:06:26Z</time>
      </trkpt>
      <trkpt lat="43.63864" lon="0.68139">
        <ele>205.708</ele>
        <time>2019-02-28T20:33:26Z</time>
      </trkpt>
      <trkpt lat="43.63961" lon="0.67972">
        <ele>200.486</ele>
        <time>2019-02-28T20:33:46Z</time>
      </trkpt>
      <trkpt lat="43.64048" lon="0.67789">
        <ele>193.749</ele>
        <time>2019-02-28T20:34:06Z</time>
      </trkpt>
      <trkpt lat="43.64083" lon="0.67655">
        <ele>186.625</ele>
        <time>2019-02-28T20:34:26Z</time>
      </trkpt>
      <trkpt lat="43.64114" lon="0.67601">
        <ele>180.954</ele>
        <time>2019-02-28T20:34:46Z</time>
      </trkpt>
      <trkpt lat="43.6414" lon="0.67511">
        <ele>172.631</ele>
        <time>2019-02-28T20:35:06Z</time>
      </trkpt>
      <trkpt lat="43.64185" lon="0.67438">
        <ele>165.062</ele>
        <time>2019-02-28T20:35:26Z</time>
      </trkpt>
      <trkpt lat="43.64201" lon="0.67316">
        <ele>165.071</ele>
        <time>2019-02-28T20:35:46Z</time>
      </trkpt>
      <trkpt lat="43.64222" lon="0.67039">
        <ele>179.672</ele>
        <time>2019-02-28T20:36:06Z</time>
      </trkpt>
      <trkpt lat="43.64248" lon="0.66964">
        <ele>180.493</ele>
        <time>2019-02-28T20:36:26Z</time>
      </trkpt>
      <trkpt lat="43.642" lon="0.66738">
        <ele>192.465</ele>
        <time>2019-02-28T20:36:46Z</time>
      </trkpt>
      <trkpt lat="43.64191" lon="0.66373">
        <ele>223.621</ele>
        <time>2021-04-17T20:53:10Z</time>
      </trkpt>
      <trkpt lat="43.64206" lon="0.66247">
        <ele>231.008</ele>
        <time>2019-02-28T20:37:26Z</time>
      </trkpt>
      <trkpt lat="43.64264" lon="0.66281">
        <ele>230.856</ele>
        <time>2019-02-28T20:37:46Z</time>
      </trkpt>
      <trkpt lat="43.64331" lon="0.66289">
        <ele>233.079</ele>
        <time>2019-02-28T20:38:06Z</time>
      </trkpt>
      <trkpt lat="43.64386" lon="0.66245">
        <ele>233.635</ele>
        <time>2019-02-28T20:38:26Z</time>
      </trkpt>
      <trkpt lat="43.64432" lon="0.66228">
        <ele>233.164</ele>
        <time>2019-02-28T20:38:46Z</time>
      </trkpt>
      <trkpt lat="43.64528" lon="0.66141">
        <ele>234.831</ele>
        <time>2019-02-28T20:39:06Z</time>
      </trkpt>
      <trkpt lat="43.64615" lon="0.66034">
        <ele>234.042</ele>
        <time>2019-02-28T20:39:26Z</time>
      </trkpt>
      <trkpt lat="43.64653" lon="0.65933">
        <ele>231.821</ele>
        <time>2019-02-28T20:39:46Z</time>
      </trkpt>
      <trkpt lat="43.6471" lon="0.65859">
        <ele>231.562</ele>
        <time>2019-02-28T20:40:06Z</time>
      </trkpt>
      <trkpt lat="43.64725" lon="0.65812">
        <ele>231.921</ele>
        <time>2019-02-28T20:40:26Z</time>
      </trkpt>
      <trkpt lat="43.64788" lon="0.65735">
        <ele>230.441</ele>
        <time>2019-02-28T20:40:46Z</time>
      </trkpt>
      <trkpt lat="43.64843" lon="0.65717">
        <ele>221.905</ele>
        <time>2019-02-28T20:41:06Z</time>
      </trkpt>
      <trkpt lat="43.64869" lon="0.65732">
        <ele>215.608</ele>
        <time>2019-02-28T20:41:26Z</time>
      </trkpt>
      <trkpt lat="43.64887" lon="0.6576">
        <ele>211.439</ele>
        <time>2019-02-28T20:41:46Z</time>
      </trkpt>
      <trkpt lat="43.64962" lon="0.65783">
        <ele>210.012</ele>
        <time>2019-02-28T20:42:06Z</time>
      </trkpt>
      <trkpt lat="43.65122" lon="0.65522">
        <ele>219.478</ele>
        <time>2019-02-28T20:42:26Z</time>
      </trkpt>
      <trkpt lat="43.65191" lon="0.65341">
        <ele>226.767</ele>
        <time>2019-02-28T20:42:46Z</time>
      </trkpt>
      <trkpt lat="43.65223" lon="0.6518">
        <ele>231.054</ele>
        <time>2019-02-28T20:43:06Z</time>
      </trkpt>
      <trkpt lat="43.65243" lon="0.65058">
        <ele>234.585</ele>
        <time>2019-02-28T20:43:26Z</time>
      </trkpt>
      <trkpt lat="43.65309" lon="0.64987">
        <ele>232.844</ele>
        <time>2019-02-28T20:43:46Z</time>
      </trkpt>
      <trkpt lat="43.65334" lon="0.64914">
        <ele>232.855</ele>
        <time>2019-02-28T20:44:06Z</time>
      </trkpt>
      <trkpt lat="43.65335" lon="0.64858">
        <ele>228.424</ele>
        <time>2019-02-28T20:44:26Z</time>
      </trkpt>
      <trkpt lat="43.65301" lon="0.64736">
        <ele>219.804</ele>
        <time>2019-02-28T20:45:26Z</time>
      </trkpt>
      <trkpt lat="43.65239" lon="0.64656">
        <ele>213.614</ele>
        <time>2019-02-28T20:45:46Z</time>
      </trkpt>
      <trkpt lat="43.6524" lon="0.6465">
        <ele>213.508</ele>
        <time>2021-04-17T21:01:30Z</time>
      </trkpt>
      <trkpt lat="43.65261" lon="0.64666">
        <ele>214.769</ele>
        <time>2021-04-17T21:01:50Z</time>
      </trkpt>
      <trkpt lat="43.65291" lon="0.64661">
        <ele>213.342</ele>
        <time>2021-04-17T21:02:10Z</time>
      </trkpt>
      <trkpt lat="43.65326" lon="0.64669">
        <ele>213.488</ele>
        <time>2021-04-17T21:02:30Z</time>
      </trkpt>
      <trkpt lat="43.65352" lon="0.64689">
        <ele>211.047</ele>
        <time>2021-04-17T21:02:50Z</time>
      </trkpt>
      <trkpt lat="43.65384" lon="0.64748">
        <ele>211.484</ele>
        <time>2021-04-17T21:03:10Z</time>
      </trkpt>
      <trkpt lat="43.65393" lon="0.64786">
        <ele>213.375</ele>
        <time>2021-04-17T21:03:30Z</time>
      </trkpt>
      <trkpt lat="43.65416" lon="0.6484">
        <ele>215.844</ele>
        <time>2021-04-17T21:03:50Z</time>
      </trkpt>
      <trkpt lat="43.65459" lon="0.64883">
        <ele>208.215</ele>
        <time>2021-04-17T21:04:10Z</time>
      </trkpt>
      <trkpt lat="43.65478" lon="0.64919">
        <ele>205.558</ele>
        <time>2021-04-17T21:04:30Z</time>
      </trkpt>
      <trkpt lat="43.65481" lon="0.64958">
        <ele>204.452</ele>
        <time>2021-04-17T21:04:50Z</time>
      </trkpt>
      <trkpt lat="43.65466" lon="0.65051">
        <ele>204.017</ele>
        <time>2021-04-17T21:05:10Z</time>
      </trkpt>
      <trkpt lat="43.65476" lon="0.65058">
        <ele>200.608</ele>
        <time>2021-04-17T21:05:30Z</time>
      </trkpt>
      <trkpt lat="43.65493" lon="0.65036">
        <ele>197.392</ele>
        <time>2021-04-17T21:05:50Z</time>
      </trkpt>
      <trkpt lat="43.65502" lon="0.65002">
        <ele>197.445</ele>
        <time>2021-04-17T21:06:10Z</time>
      </trkpt>
      <trkpt lat="43.65523" lon="0.64948">
        <ele>192.791</ele>
        <time>2021-04-17T21:06:30Z</time>
      </trkpt>
      <trkpt lat="43.65517" lon="0.64897">
        <ele>193.59</ele>
        <time>2021-04-17T21:06:50Z</time>
      </trkpt>
      <trkpt lat="43.65522" lon="0.64861">
        <ele>190.067</ele>
        <time>2021-04-17T21:07:10Z</time>
      </trkpt>
      <trkpt lat="43.65534" lon="0.64834">
        <ele>185.858</ele>
        <time>2021-04-17T21:07:30Z</time>
      </trkpt>
      <trkpt lat="43.65567" lon="0.6478">
        <ele>177.577</ele>
        <time>2021-04-17T21:07:50Z</time>
      </trkpt>
      <trkpt lat="43.65582" lon="0.64736">
        <ele>174.788</ele>
        <time>2021-04-17T21:08:10Z</time>
      </trkpt>
      <trkpt lat="43.65577" lon="0.64714">
        <ele>174.599</ele>
        <time>2021-04-17T21:08:30Z</time>
      </trkpt>
      <trkpt lat="43.65564" lon="0.64719">
        <ele>175.507</ele>
        <time>2021-04-17T21:08:50Z</time>
      </trkpt>
      <trkpt lat="43.65546" lon="0.64741">
        <ele>177.427</ele>
        <time>2021-04-17T21:09:10Z</time>
      </trkpt>
      <trkpt lat="43.65536" lon="0.64737">
        <ele>177.908</ele>
        <time>2021-04-17T21:09:30Z</time>
      </trkpt>
      <trkpt lat="43.65537" lon="0.64716">
        <ele>177.136</ele>
        <time>2021-04-17T21:09:50Z</time>
      </trkpt>
      <trkpt lat="43.65558" lon="0.64696">
        <ele>175.159</ele>
        <time>2021-04-17T21:10:10Z</time>
      </trkpt>
      <trkpt lat="43.65584" lon="0.64638">
        <ele>171.185</ele>
        <time>2021-04-17T21:10:30Z</time>
      </trkpt>
      <trkpt lat="43.65596" lon="0.646">
        <ele>167.034</ele>
        <time>2021-04-17T21:10:50Z</time>
      </trkpt>
      <trkpt lat="43.65612" lon="0.64593">
        <ele>164.281</ele>
        <time>2021-04-17T21:11:10Z</time>
      </trkpt>
      <trkpt lat="43.65622" lon="0.64602">
        <ele>163.242</ele>
        <time>2021-04-17T21:11:30Z</time>
      </trkpt>
      <trkpt lat="43.6565" lon="0.64712">
        <ele>164.531</ele>
        <time>2021-04-17T21:11:50Z</time>
      </trkpt>
      <trkpt lat="43.65645" lon="0.64789">
        <ele>166.052</ele>
        <time>2021-04-17T21:12:10Z</time>
      </trkpt>
      <trkpt lat="43.65651" lon="0.64811">
        <ele>165.014</ele>
        <time>2021-04-17T21:12:30Z</time>
      </trkpt>
      <trkpt lat="43.65672" lon="0.64815">
        <ele>161.554</ele>
        <time>2021-04-17T21:12:50Z</time>
      </trkpt>
      <trkpt lat="43.65702" lon="0.64807">
        <ele>157.409</ele>
        <time>2021-04-17T21:13:10Z</time>
      </trkpt>
      <trkpt lat="43.65704" lon="0.64756">
        <ele>157.908</ele>
        <time>2021-04-17T21:13:30Z</time>
      </trkpt>
      <trkpt lat="43.65715" lon="0.64746">
        <ele>156.598</ele>
        <time>2021-04-17T21:13:50Z</time>
      </trkpt>
      <trkpt lat="43.65774" lon="0.64723">
        <ele>149.211</ele>
        <time>2021-04-17T21:14:10Z</time>
      </trkpt>
      <trkpt lat="43.65812" lon="0.64713">
        <ele>147.397</ele>
        <time>2021-04-17T21:14:30Z</time>
      </trkpt>
      <trkpt lat="43.65836" lon="0.64683">
        <ele>146.956</ele>
        <time>2021-04-17T21:14:50Z</time>
      </trkpt>
      <trkpt lat="43.6584" lon="0.64647">
        <ele>147.493</ele>
        <time>2021-04-17T21:15:10Z</time>
      </trkpt>
      <trkpt lat="43.65793" lon="0.6451">
        <ele>146.054</ele>
        <time>2021-04-17T21:15:30Z</time>
      </trkpt>
      <trkpt lat="43.65765" lon="0.64406">
        <ele>146.233</ele>
        <time>2021-04-17T21:15:50Z</time>
      </trkpt>
      <trkpt lat="43.65795" lon="0.64392">
        <ele>148.624</ele>
        <time>2021-04-17T21:16:10Z</time>
      </trkpt>
      <trkpt lat="43.65876" lon="0.64332">
        <ele>156.671</ele>
        <time>2021-04-17T21:16:30Z</time>
      </trkpt>
      <trkpt lat="43.6604" lon="0.64235">
        <ele>169.541</ele>
        <time>2021-04-17T21:16:50Z</time>
      </trkpt>
      <trkpt lat="43.6609" lon="0.64446">
        <ele>167.815</ele>
        <time>2021-04-17T21:17:10Z</time>
      </trkpt>
      <trkpt lat="43.66106" lon="0.64542">
        <ele>168.408</ele>
        <time>2021-04-17T21:17:30Z</time>
      </trkpt>
      <trkpt lat="43.66119" lon="0.64668">
        <ele>166.994</ele>
        <time>2021-04-17T21:17:50Z</time>
      </trkpt>
      <trkpt lat="43.66122" lon="0.64812">
        <ele>163.277</ele>
        <time>2021-04-17T21:18:10Z</time>
      </trkpt>
      <trkpt lat="43.66134" lon="0.64829">
        <ele>163.283</ele>
        <time>2021-04-17T21:18:30Z</time>
      </trkpt>
      <trkpt lat="43.66184" lon="0.64819">
        <ele>167.472</ele>
        <time>2021-04-17T21:18:50Z</time>
      </trkpt>
      <trkpt lat="43.66195" lon="0.64802">
        <ele>169.169</ele>
        <time>2021-04-17T21:19:10Z</time>
      </trkpt>
      <trkpt lat="43.6618" lon="0.64697">
        <ele>170.81</ele>
        <time>2021-04-17T21:19:30Z</time>
      </trkpt>
      <trkpt lat="43.66195" lon="0.6469">
        <ele>172.089</ele>
        <time>2021-04-17T21:19:50Z</time>
      </trkpt>
      <trkpt lat="43.66154" lon="0.6443">
        <ele>172.66</ele>
        <time>2021-04-17T21:20:10Z</time>
      </trkpt>
      <trkpt lat="43.66298" lon="0.64329">
        <ele>194.792</ele>
        <time>2021-04-17T21:20:30Z</time>
      </trkpt>
      <trkpt lat="43.66324" lon="0.64256">
        <ele>203.673</ele>
        <time>2021-04-17T21:20:50Z</time>
      </trkpt>
      <trkpt lat="43.66354" lon="0.6419">
        <ele>212.12</ele>
        <time>2021-04-17T21:21:10Z</time>
      </trkpt>
      <trkpt lat="43.66362" lon="0.64121">
        <ele>216.208</ele>
        <time>2021-04-17T21:21:30Z</time>
      </trkpt>
      <trkpt lat="43.66368" lon="0.64109">
        <ele>217.846</ele>
        <time>2021-04-17T21:21:50Z</time>
      </trkpt>
      <trkpt lat="43.66374" lon="0.64103">
        <ele>219.219</ele>
        <time>2021-04-17T21:22:10Z</time>
      </trkpt>
      <trkpt lat="43.66373" lon="0.64085">
        <ele>219.635</ele>
        <time>2021-04-17T21:22:30Z</time>
      </trkpt>
      <trkpt lat="43.66344" lon="0.64014">
        <ele>218.794</ele>
        <time>2021-04-17T21:22:50Z</time>
      </trkpt>
      <trkpt lat="43.66344" lon="0.63984">
        <ele>219.621</ele>
        <time>2021-04-17T21:23:10Z</time>
      </trkpt>
      <trkpt lat="43.6633" lon="0.63953">
        <ele>218.582</ele>
        <time>2021-04-17T21:23:30Z</time>
      </trkpt>
      <trkpt lat="43.6633" lon="0.63929">
        <ele>219.071</ele>
        <time>2021-04-17T21:23:50Z</time>
      </trkpt>
      <trkpt lat="43.66315" lon="0.63892">
        <ele>213.622</ele>
        <time>2021-04-17T21:24:10Z</time>
      </trkpt>
      <trkpt lat="43.6632" lon="0.63866">
        <ele>212.019</ele>
        <time>2021-04-17T21:24:30Z</time>
      </trkpt>
      <trkpt lat="43.66356" lon="0.63822">
        <ele>209.409</ele>
        <time>2021-04-17T21:24:50Z</time>
      </trkpt>
      <trkpt lat="43.66421" lon="0.63713">
        <ele>194.419</ele>
        <time>2021-04-17T21:25:10Z</time>
      </trkpt>
      <trkpt lat="43.66455" lon="0.637">
        <ele>191.508</ele>
        <time>2021-04-17T21:25:30Z</time>
      </trkpt>
      <trkpt lat="43.66488" lon="0.63669">
        <ele>188.228</ele>
        <time>2021-04-17T21:25:50Z</time>
      </trkpt>
      <trkpt lat="43.66488" lon="0.63581">
        <ele>186.841</ele>
        <time>2021-04-17T21:26:10Z</time>
      </trkpt>
      <trkpt lat="43.6646" lon="0.63502">
        <ele>182.327</ele>
        <time>2021-04-17T21:26:30Z</time>
      </trkpt>
      <trkpt lat="43.66443" lon="0.63478">
        <ele>179.366</ele>
        <time>2021-04-17T21:26:50Z</time>
      </trkpt>
      <trkpt lat="43.66423" lon="0.63463">
        <ele>176.433</ele>
        <time>2021-04-17T21:27:10Z</time>
      </trkpt>
      <trkpt lat="43.66425" lon="0.63377">
        <ele>175.594</ele>
        <time>2021-04-17T21:27:30Z</time>
      </trkpt>
      <trkpt lat="43.66419" lon="0.63333">
        <ele>173.223</ele>
        <time>2021-04-17T21:27:50Z</time>
      </trkpt>
      <trkpt lat="43.66424" lon="0.63144">
        <ele>184.494</ele>
        <time>2021-04-17T21:28:10Z</time>
      </trkpt>
      <trkpt lat="43.66386" lon="0.63147">
        <ele>185.696</ele>
        <time>2021-04-17T21:28:30Z</time>
      </trkpt>
      <trkpt lat="43.66324" lon="0.63184">
        <ele>185.131</ele>
        <time>2021-04-17T21:28:50Z</time>
      </trkpt>
      <trkpt lat="43.66323" lon="0.63162">
        <ele>187.724</ele>
        <time>2021-04-17T21:29:10Z</time>
      </trkpt>
      <trkpt lat="43.66402" lon="0.62844">
        <ele>175.008</ele>
        <time>2021-04-17T21:29:30Z</time>
      </trkpt>
      <trkpt lat="43.6644" lon="0.62807">
        <ele>173.456</ele>
        <time>2021-04-17T21:29:50Z</time>
      </trkpt>
      <trkpt lat="43.66523" lon="0.62603">
        <ele>164.049</ele>
        <time>2021-04-17T21:30:10Z</time>
      </trkpt>
      <trkpt lat="43.66551" lon="0.62481">
        <ele>152.265</ele>
        <time>2021-04-17T21:30:30Z</time>
      </trkpt>
      <trkpt lat="43.66573" lon="0.62448">
        <ele>149.674</ele>
        <time>2021-04-17T21:30:50Z</time>
      </trkpt>
      <trkpt lat="43.66552" lon="0.62384">
        <ele>144.251</ele>
        <time>2021-04-17T21:31:10Z</time>
      </trkpt>
      <trkpt lat="43.66456" lon="0.62201">
        <ele>137.452</ele>
        <time>2021-04-17T21:31:30Z</time>
      </trkpt>
      <trkpt lat="43.66384" lon="0.62257">
        <ele>137.571</ele>
        <time>2021-04-17T21:31:50Z</time>
      </trkpt>
      <trkpt lat="43.66368" lon="0.62237">
        <ele>137.512</ele>
        <time>2021-04-17T21:32:10Z</time>
      </trkpt>
      <trkpt lat="43.66414" lon="0.62152">
        <ele>137.255</ele>
        <time>2021-04-17T21:32:30Z</time>
      </trkpt>
      <trkpt lat="43.66413" lon="0.62114">
        <ele>137.607</ele>
        <time>2021-04-17T21:32:50Z</time>
      </trkpt>
      <trkpt lat="43.66391" lon="0.62111">
        <ele>137.717</ele>
        <time>2021-04-17T21:33:10Z</time>
      </trkpt>
      <trkpt lat="43.66373" lon="0.62063">
        <ele>138.408</ele>
        <time>2021-04-17T21:33:30Z</time>
      </trkpt>
      <trkpt lat="43.66308" lon="0.62073">
        <ele>138.672</ele>
        <time>2021-04-17T21:33:50Z</time>
      </trkpt>
      <trkpt lat="43.66267" lon="0.62069">
        <ele>139.335</ele>
        <time>2021-04-17T21:34:10Z</time>
      </trkpt>
      <trkpt lat="43.66215" lon="0.6203">
        <ele>141.941</ele>
        <time>2021-04-17T21:34:30Z</time>
      </trkpt>
      <trkpt lat="43.66184" lon="0.62013">
        <ele>143.21</ele>
        <time>2021-04-17T21:34:50Z</time>
      </trkpt>
      <trkpt lat="43.66203" lon="0.61971">
        <ele>144.017</ele>
        <time>2021-04-17T21:35:10Z</time>
      </trkpt>
      <trkpt lat="43.6617" lon="0.61801">
        <ele>149.298</ele>
        <time>2021-04-17T21:35:30Z</time>
      </trkpt>
      <trkpt lat="43.66182" lon="0.61791">
        <ele>149.837</ele>
        <time>2021-04-17T21:35:50Z</time>
      </trkpt>
      <trkpt lat="43.66173" lon="0.61757">
        <ele>150.998</ele>
        <time>2021-04-17T21:36:10Z</time>
      </trkpt>
      <trkpt lat="43.6616" lon="0.61734">
        <ele>151.944</ele>
        <time>2021-04-17T21:36:30Z</time>
      </trkpt>
      <trkpt lat="43.66147" lon="0.61682">
        <ele>154.505</ele>
        <time>2021-04-17T21:36:50Z</time>
      </trkpt>
      <trkpt lat="43.66048" lon="0.61749">
        <ele>155.015</ele>
        <time>2021-04-17T21:37:10Z</time>
      </trkpt>
      <trkpt lat="43.65966" lon="0.61576">
        <ele>165.208</ele>
        <time>2021-04-17T21:37:30Z</time>
      </trkpt>
      <trkpt lat="43.65916" lon="0.61449">
        <ele>171.421</ele>
        <time>2021-04-17T21:37:50Z</time>
      </trkpt>
      <trkpt lat="43.65864" lon="0.61295">
        <ele>182.184</ele>
        <time>2021-04-17T21:38:10Z</time>
      </trkpt>
      <trkpt lat="43.6584" lon="0.61258">
        <ele>184.49</ele>
        <time>2021-04-17T21:38:30Z</time>
      </trkpt>
      <trkpt lat="43.65817" lon="0.61239">
        <ele>187.519</ele>
        <time>2021-04-17T21:38:50Z</time>
      </trkpt>
      <trkpt lat="43.65801" lon="0.61203">
        <ele>190.496</ele>
        <time>2021-04-17T21:39:10Z</time>
      </trkpt>
      <trkpt lat="43.65779" lon="0.61145">
        <ele>194.177</ele>
        <time>2021-04-17T21:39:30Z</time>
      </trkpt>
      <trkpt lat="43.65721" lon="0.61103">
        <ele>193.876</ele>
        <time>2021-04-17T21:39:50Z</time>
      </trkpt>
      <trkpt lat="43.65669" lon="0.61054">
        <ele>184.247</ele>
        <time>2019-12-05T21:22:39Z</time>
      </trkpt>
      <trkpt lat="43.6565" lon="0.61037">
        <ele>182.017</ele>
        <time>2019-12-05T21:22:59Z</time>
      </trkpt>
      <trkpt lat="43.65644" lon="0.61026">
        <ele>181.387</ele>
        <time>2019-12-05T21:23:19Z</time>
      </trkpt>
      <trkpt lat="43.65592" lon="0.60915">
        <ele>173.915</ele>
        <time>2019-12-05T21:23:39Z</time>
      </trkpt>
      <trkpt lat="43.65536" lon="0.6082">
        <ele>167.608</ele>
        <time>2019-12-05T21:23:59Z</time>
      </trkpt>
      <trkpt lat="43.65526" lon="0.60789">
        <ele>168.998</ele>
        <time>2019-12-05T21:24:19Z</time>
      </trkpt>
      <trkpt lat="43.65534" lon="0.60779">
        <ele>169.961</ele>
        <time>2019-12-05T21:24:39Z</time>
      </trkpt>
      <trkpt lat="43.65609" lon="0.60538">
        <ele>155.497</ele>
        <time>2019-12-05T21:24:59Z</time>
      </trkpt>
      <trkpt lat="43.65631" lon="0.60442">
        <ele>149.396</ele>
        <time>2019-12-05T21:25:19Z</time>
      </trkpt>
      <trkpt lat="43.65668" lon="0.60418">
        <ele>149.173</ele>
        <time>2019-12-05T21:25:39Z</time>
      </trkpt>
      <trkpt lat="43.65685" lon="0.60229">
        <ele>139.964</ele>
        <time>2019-12-05T21:25:59Z</time>
      </trkpt>
      <trkpt lat="43.65722" lon="0.59733">
        <ele>129.063</ele>
        <time>2019-12-05T21:26:19Z</time>
      </trkpt>
      <trkpt lat="43.65731" lon="0.59721">
        <ele>131.284</ele>
        <time>2021-04-17T21:44:10Z</time>
      </trkpt>
      <trkpt lat="43.65579" lon="0.59644">
        <ele>130.317</ele>
        <time>2021-04-17T21:44:30Z</time>
      </trkpt>
      <trkpt lat="43.65599" lon="0.59561">
        <ele>127.187</ele>
        <time>2019-12-05T21:26:59Z</time>
      </trkpt>
      <trkpt lat="43.65571" lon="0.59552">
        <ele>127.415</ele>
        <time>2019-12-05T21:27:19Z</time>
      </trkpt>
      <trkpt lat="43.6557" lon="0.59516">
        <ele>127.008</ele>
        <time>2019-12-05T21:27:39Z</time>
      </trkpt>
      <trkpt lat="43.6555" lon="0.59484">
        <ele>127.068</ele>
        <time>2019-12-05T21:27:59Z</time>
      </trkpt>
      <trkpt lat="43.6555" lon="0.59446">
        <ele>127.021</ele>
        <time>2019-12-05T21:28:19Z</time>
      </trkpt>
      <trkpt lat="43.65558" lon="0.59401">
        <ele>126.437</ele>
        <time>2019-12-05T21:28:39Z</time>
      </trkpt>
      <trkpt lat="43.65537" lon="0.59354">
        <ele>126.016</ele>
        <time>2019-12-05T21:28:59Z</time>
      </trkpt>
      <trkpt lat="43.65535" lon="0.59326">
        <ele>126.033</ele>
        <time>2019-12-05T21:29:19Z</time>
      </trkpt>
      <trkpt lat="43.6556" lon="0.5926">
        <ele>126.024</ele>
        <time>2019-12-05T21:29:39Z</time>
      </trkpt>
      <trkpt lat="43.65574" lon="0.59256">
        <ele>126.063</ele>
        <time>2019-12-05T21:29:59Z</time>
      </trkpt>
      <trkpt lat="43.65563" lon="0.59231">
        <ele>125.324</ele>
        <time>2019-12-05T21:30:19Z</time>
      </trkpt>
      <trkpt lat="43.65443" lon="0.59193">
        <ele>126.039</ele>
        <time>2019-12-05T21:30:39Z</time>
      </trkpt>
      <trkpt lat="43.65382" lon="0.59162">
        <ele>126.001</ele>
        <time>2019-12-05T21:30:59Z</time>
      </trkpt>
      <trkpt lat="43.65332" lon="0.59133">
        <ele>126.021</ele>
        <time>2019-12-05T21:31:19Z</time>
      </trkpt>
      <trkpt lat="43.65275" lon="0.59119">
        <ele>126.008</ele>
        <time>2019-12-05T21:31:39Z</time>
      </trkpt>
      <trkpt lat="43.65214" lon="0.59117">
        <ele>126.07</ele>
        <time>2019-12-05T21:31:59Z</time>
      </trkpt>
      <trkpt lat="43.65102" lon="0.59143">
        <ele>126.023</ele>
        <time>2019-12-05T21:32:19Z</time>
      </trkpt>
      <trkpt lat="43.65067" lon="0.59145">
        <ele>126.049</ele>
        <time>2019-12-05T21:32:39Z</time>
      </trkpt>
      <trkpt lat="43.65009" lon="0.59132">
        <ele>126.268</ele>
        <time>2019-12-05T21:32:59Z</time>
      </trkpt>
      <trkpt lat="43.64926" lon="0.59055">
        <ele>126.395</ele>
        <time>2019-12-05T21:33:19Z</time>
      </trkpt>
      <trkpt lat="43.6488" lon="0.59026">
        <ele>126.036</ele>
        <time>2019-12-05T21:33:39Z</time>
      </trkpt>
      <trkpt lat="43.64898" lon="0.58954">
        <ele>128.285</ele>
        <time>2019-12-05T21:33:59Z</time>
      </trkpt>
      <trkpt lat="43.64884" lon="0.58929">
        <ele>128.916</ele>
        <time>2019-12-05T21:34:19Z</time>
      </trkpt>
      <trkpt lat="43.64729" lon="0.58865">
        <ele>127.859</ele>
        <time>2019-12-05T21:34:39Z</time>
      </trkpt>
      <trkpt lat="43.64736" lon="0.58856">
        <ele>128.203</ele>
        <time>2019-12-05T21:34:59Z</time>
      </trkpt>
      <trkpt lat="43.64758" lon="0.58758">
        <ele>140.323</ele>
        <time>2019-12-05T21:35:19Z</time>
      </trkpt>
      <trkpt lat="43.64742" lon="0.58746">
        <ele>139.208</ele>
        <time>2019-12-05T21:35:39Z</time>
      </trkpt>
      <trkpt lat="43.64706" lon="0.58743">
        <ele>137.072</ele>
        <time>2019-12-05T21:35:59Z</time>
      </trkpt>
      <trkpt lat="43.64702" lon="0.58723">
        <ele>141.065</ele>
        <time>2019-12-05T21:36:19Z</time>
      </trkpt>
      <trkpt lat="43.64709" lon="0.58652">
        <ele>146.831</ele>
        <time>2019-12-05T21:36:39Z</time>
      </trkpt>
      <trkpt lat="43.64705" lon="0.58602">
        <ele>170.04</ele>
        <time>2020-06-08T00:27:32Z</time>
      </trkpt>
      <trkpt lat="43.64679" lon="0.58611">
        <ele>169.927</ele>
        <time>2020-06-08T00:27:52Z</time>
      </trkpt>
      <trkpt lat="43.6465" lon="0.58596">
        <ele>161.378</ele>
        <time>2016-12-30T12:49:45Z</time>
      </trkpt>
      <trkpt lat="43.64651" lon="0.58516">
        <ele>174.748</ele>
        <time>2021-04-17T21:56:10Z</time>
      </trkpt>
      <trkpt lat="43.64618" lon="0.58512">
        <ele>175.451</ele>
        <time>2021-04-17T21:56:30Z</time>
      </trkpt>
      <trkpt lat="43.64577" lon="0.58493">
        <ele>165.001</ele>
        <time>2016-12-30T12:51:05Z</time>
      </trkpt>
      <trkpt lat="43.64548" lon="0.58467">
        <ele>167.311</ele>
        <time>2021-04-17T21:57:10Z</time>
      </trkpt>
      <trkpt lat="43.64515" lon="0.58446">
        <ele>159.408</ele>
        <time>2021-04-17T21:57:30Z</time>
      </trkpt>
      <trkpt lat="43.64524" lon="0.58387">
        <ele>156.962</ele>
        <time>2021-04-17T21:57:50Z</time>
      </trkpt>
      <trkpt lat="43.64516" lon="0.58359">
        <ele>153.455</ele>
        <time>2021-04-17T21:58:10Z</time>
      </trkpt>
      <trkpt lat="43.64519" lon="0.58339">
        <ele>152.821</ele>
        <time>2021-04-17T21:58:30Z</time>
      </trkpt>
      <trkpt lat="43.64519" lon="0.58311">
        <ele>152.22</ele>
        <time>2021-04-17T21:58:50Z</time>
      </trkpt>
      <trkpt lat="43.64525" lon="0.58258">
        <ele>153.117</ele>
        <time>2021-04-17T21:59:10Z</time>
      </trkpt>
      <trkpt lat="43.64511" lon="0.58232">
        <ele>149.928</ele>
        <time>2021-04-17T21:59:30Z</time>
      </trkpt>
      <trkpt lat="43.6454" lon="0.58233">
        <ele>148.767</ele>
        <time>2016-12-30T12:52:45Z</time>
      </trkpt>
      <trkpt lat="43.64552" lon="0.58171">
        <ele>147.878</ele>
        <time>2016-12-30T12:53:05Z</time>
      </trkpt>
      <trkpt lat="43.64588" lon="0.57845">
        <ele>145.044</ele>
        <time>2016-12-30T12:53:25Z</time>
      </trkpt>
      <trkpt lat="43.64589" lon="0.57723">
        <ele>147.505</ele>
        <time>2016-12-30T12:53:45Z</time>
      </trkpt>
      <trkpt lat="43.64611" lon="0.57588">
        <ele>149.015</ele>
        <time>2016-12-30T12:54:05Z</time>
      </trkpt>
      <trkpt lat="43.64642" lon="0.57476">
        <ele>151.108</ele>
        <time>2016-12-30T12:54:25Z</time>
      </trkpt>
      <trkpt lat="43.64627" lon="0.57427">
        <ele>154.371</ele>
        <time>2016-12-30T12:54:45Z</time>
      </trkpt>
      <trkpt lat="43.64558" lon="0.57347">
        <ele>159.114</ele>
        <time>2016-12-30T12:55:05Z</time>
      </trkpt>
      <trkpt lat="43.64505" lon="0.57322">
        <ele>162.43</ele>
        <time>2021-04-17T22:02:30Z</time>
      </trkpt>
      <trkpt lat="43.64499" lon="0.57178">
        <ele>160.149</ele>
        <time>2016-12-30T12:55:45Z</time>
      </trkpt>
      <trkpt lat="43.64509" lon="0.57006">
        <ele>167.996</ele>
        <time>2016-12-30T12:56:05Z</time>
      </trkpt>
      <trkpt lat="43.6454" lon="0.56858">
        <ele>172.717</ele>
        <time>2016-12-30T12:56:25Z</time>
      </trkpt>
      <trkpt lat="43.64546" lon="0.5677">
        <ele>176.696</ele>
        <time>2016-12-30T12:56:45Z</time>
      </trkpt>
      <trkpt lat="43.6456" lon="0.56689">
        <ele>179.517</ele>
        <time>2016-12-30T12:57:05Z</time>
      </trkpt>
      <trkpt lat="43.6458" lon="0.56442">
        <ele>201.213</ele>
        <time>2021-04-17T22:04:30Z</time>
      </trkpt>
      <trkpt lat="43.6463" lon="0.56326">
        <ele>205.043</ele>
        <time>2016-12-30T12:57:45Z</time>
      </trkpt>
      <trkpt lat="43.64624" lon="0.56259">
        <ele>205.007</ele>
        <time>2016-12-30T12:58:05Z</time>
      </trkpt>
      <trkpt lat="43.64605" lon="0.56206">
        <ele>202.308</ele>
        <time>2016-12-30T12:58:25Z</time>
      </trkpt>
      <trkpt lat="43.6461" lon="0.56058">
        <ele>187.478</ele>
        <time>2016-12-30T12:58:45Z</time>
      </trkpt>
      <trkpt lat="43.64546" lon="0.55903">
        <ele>179.761</ele>
        <time>2016-12-30T12:59:05Z</time>
      </trkpt>
      <trkpt lat="43.64555" lon="0.55854">
        <ele>181.567</ele>
        <time>2016-12-30T12:59:25Z</time>
      </trkpt>
      <trkpt lat="43.64535" lon="0.55768">
        <ele>181.146</ele>
        <time>2016-12-30T12:59:45Z</time>
      </trkpt>
      <trkpt lat="43.64515" lon="0.55736">
        <ele>180.533</ele>
        <time>2016-12-30T13:00:05Z</time>
      </trkpt>
      <trkpt lat="43.64464" lon="0.55708">
        <ele>176.194</ele>
        <time>2016-12-30T13:00:25Z</time>
      </trkpt>
      <trkpt lat="43.6444" lon="0.55667">
        <ele>175.253</ele>
        <time>2016-12-30T13:00:45Z</time>
      </trkpt>
      <trkpt lat="43.64433" lon="0.55609">
        <ele>171.894</ele>
        <time>2016-12-30T13:01:05Z</time>
      </trkpt>
      <trkpt lat="43.64434" lon="0.55538">
        <ele>168.591</ele>
        <time>2016-12-30T13:01:25Z</time>
      </trkpt>
      <trkpt lat="43.64454" lon="0.55463">
        <ele>166.781</ele>
        <time>2016-12-30T13:01:45Z</time>
      </trkpt>
      <trkpt lat="43.64481" lon="0.55146">
        <ele>166.919</ele>
        <time>2016-12-30T13:02:05Z</time>
      </trkpt>
      <trkpt lat="43.64506" lon="0.54759">
        <ele>180.008</ele>
        <time>2016-12-30T13:02:25Z</time>
      </trkpt>
      <trkpt lat="43.64523" lon="0.54672">
        <ele>186.836</ele>
        <time>2016-12-30T13:02:45Z</time>
      </trkpt>
      <trkpt lat="43.64529" lon="0.5456">
        <ele>195.539</ele>
        <time>2016-12-30T13:03:05Z</time>
      </trkpt>
      <trkpt lat="43.64524" lon="0.54481">
        <ele>200.085</ele>
        <time>2016-12-30T13:03:25Z</time>
      </trkpt>
      <trkpt lat="43.64495" lon="0.54275">
        <ele>216.244</ele>
        <time>2016-12-30T13:03:45Z</time>
      </trkpt>
      <trkpt lat="43.64506" lon="0.54182">
        <ele>224.351</ele>
        <time>2016-12-30T13:04:05Z</time>
      </trkpt>
      <trkpt lat="43.64526" lon="0.54114">
        <ele>231.272</ele>
        <time>2016-12-30T13:04:25Z</time>
      </trkpt>
      <trkpt lat="43.64582" lon="0.54011">
        <ele>241.691</ele>
        <time>2016-12-30T13:04:45Z</time>
      </trkpt>
      <trkpt lat="43.64619" lon="0.53897">
        <ele>242.982</ele>
        <time>2016-12-30T13:05:05Z</time>
      </trkpt>
      <trkpt lat="43.64678" lon="0.5379">
        <ele>238.741</ele>
        <time>2016-12-30T13:05:25Z</time>
      </trkpt>
      <trkpt lat="43.6472" lon="0.53727">
        <ele>239.381</ele>
        <time>2016-12-30T13:05:45Z</time>
      </trkpt>
      <trkpt lat="43.64771" lon="0.53684">
        <ele>242.709</ele>
        <time>2016-12-30T13:06:05Z</time>
      </trkpt>
      <trkpt lat="43.64825" lon="0.5362">
        <ele>249.808</ele>
        <time>2016-12-30T13:06:25Z</time>
      </trkpt>
      <trkpt lat="43.6488" lon="0.53577">
        <ele>248.841</ele>
        <time>2016-12-30T13:06:45Z</time>
      </trkpt>
      <trkpt lat="43.64956" lon="0.53478">
        <ele>247.414</ele>
        <time>2016-12-30T13:07:05Z</time>
      </trkpt>
      <trkpt lat="43.65006" lon="0.53388">
        <ele>251.25</ele>
        <time>2016-12-30T13:07:25Z</time>
      </trkpt>
      <trkpt lat="43.6508" lon="0.53318">
        <ele>251.479</ele>
        <time>2016-12-30T13:07:45Z</time>
      </trkpt>
      <trkpt lat="43.65134" lon="0.5321">
        <ele>251.616</ele>
        <time>2016-12-30T13:08:05Z</time>
      </trkpt>
      <trkpt lat="43.65158" lon="0.53129">
        <ele>260.287</ele>
        <time>2016-12-30T13:08:25Z</time>
      </trkpt>
      <trkpt lat="43.65148" lon="0.53071">
        <ele>264.086</ele>
        <time>2016-12-30T13:08:45Z</time>
      </trkpt>
      <trkpt lat="43.65054" lon="0.52957">
        <ele>266.977</ele>
        <time>2016-12-30T13:09:05Z</time>
      </trkpt>
      <trkpt lat="43.6506" lon="0.52852">
        <ele>268.598</ele>
        <time>2016-12-30T13:09:25Z</time>
      </trkpt>
      <trkpt lat="43.65198" lon="0.52464">
        <ele>269.715</ele>
        <time>2016-12-30T13:09:45Z</time>
      </trkpt>
      <trkpt lat="43.65296" lon="0.52245">
        <ele>272.826</ele>
        <time>2016-12-30T13:10:05Z</time>
      </trkpt>
      <trkpt lat="43.65307" lon="0.5209">
        <ele>274.908</ele>
        <time>2016-12-30T13:10:25Z</time>
      </trkpt>
      <trkpt lat="43.65287" lon="0.51951">
        <ele>273.246</ele>
        <time>2016-12-30T13:10:45Z</time>
      </trkpt>
      <trkpt lat="43.6538" lon="0.51483">
        <ele>269.329</ele>
        <time>2016-12-30T13:11:05Z</time>
      </trkpt>
      <trkpt lat="43.65391" lon="0.51363">
        <ele>269.935</ele>
        <time>2016-12-30T13:11:25Z</time>
      </trkpt>
      <trkpt lat="43.65389" lon="0.5115">
        <ele>268.434</ele>
        <time>2016-12-30T13:11:45Z</time>
      </trkpt>
      <trkpt lat="43.65366" lon="0.5088">
        <ele>264.331</ele>
        <time>2016-12-30T13:12:05Z</time>
      </trkpt>
      <trkpt lat="43.65358" lon="0.50768">
        <ele>265.212</ele>
        <time>2016-12-30T13:12:25Z</time>
      </trkpt>
      <trkpt lat="43.65386" lon="0.50597">
        <ele>266.071</ele>
        <time>2016-12-30T13:12:45Z</time>
      </trkpt>
      <trkpt lat="43.65423" lon="0.50522">
        <ele>269.672</ele>
        <time>2016-12-30T13:13:05Z</time>
      </trkpt>
      <trkpt lat="43.6549" lon="0.50414">
        <ele>269.655</ele>
        <time>2016-12-30T13:13:25Z</time>
      </trkpt>
      <trkpt lat="43.65549" lon="0.50305">
        <ele>266.707</ele>
        <time>2016-12-30T13:13:45Z</time>
      </trkpt>
      <trkpt lat="43.65591" lon="0.50191">
        <ele>262.317</ele>
        <time>2016-12-30T13:14:05Z</time>
      </trkpt>
      <trkpt lat="43.65634" lon="0.49936">
        <ele>256.408</ele>
        <time>2016-12-30T13:14:25Z</time>
      </trkpt>
      <trkpt lat="43.65439" lon="0.49616">
        <ele>252.462</ele>
        <time>2016-12-30T13:14:45Z</time>
      </trkpt>
      <trkpt lat="43.65353" lon="0.49541">
        <ele>260.895</ele>
        <time>2016-12-30T13:15:05Z</time>
      </trkpt>
      <trkpt lat="43.65243" lon="0.49434">
        <ele>260.451</ele>
        <time>2016-12-30T13:15:25Z</time>
      </trkpt>
      <trkpt lat="43.65125" lon="0.49363">
        <ele>245.03</ele>
        <time>2016-12-30T13:15:45Z</time>
      </trkpt>
      <trkpt lat="43.65026" lon="0.4932">
        <ele>243.437</ele>
        <time>2016-12-30T13:16:05Z</time>
      </trkpt>
      <trkpt lat="43.64948" lon="0.49329">
        <ele>249.278</ele>
        <time>2016-12-30T13:16:25Z</time>
      </trkpt>
      <trkpt lat="43.64734" lon="0.49314">
        <ele>249.697</ele>
        <time>2016-12-30T13:16:45Z</time>
      </trkpt>
      <trkpt lat="43.6462" lon="0.49112">
        <ele>236.028</ele>
        <time>2016-12-30T13:17:05Z</time>
      </trkpt>
      <trkpt lat="43.64495" lon="0.4909">
        <ele>246.275</ele>
        <time>2016-12-30T13:17:25Z</time>
      </trkpt>
      <trkpt lat="43.64392" lon="0.48919">
        <ele>239.928</ele>
        <time>2016-12-30T13:17:45Z</time>
      </trkpt>
      <trkpt lat="43.64333" lon="0.48876">
        <ele>241.52</ele>
        <time>2016-12-30T13:18:05Z</time>
      </trkpt>
      <trkpt lat="43.64297" lon="0.4888">
        <ele>240.608</ele>
        <time>2016-12-30T13:18:25Z</time>
      </trkpt>
      <trkpt lat="43.64226" lon="0.48942">
        <ele>233.894</ele>
        <time>2016-12-30T13:18:45Z</time>
      </trkpt>
      <trkpt lat="43.64162" lon="0.48938">
        <ele>234.717</ele>
        <time>2016-12-30T13:19:05Z</time>
      </trkpt>
      <trkpt lat="43.64131" lon="0.48919">
        <ele>236.393</ele>
        <time>2016-12-30T13:19:25Z</time>
      </trkpt>
      <trkpt lat="43.6403" lon="0.48897">
        <ele>231.632</ele>
        <time>2016-12-30T13:19:45Z</time>
      </trkpt>
      <trkpt lat="43.63974" lon="0.48826">
        <ele>229.239</ele>
        <time>2016-12-30T13:20:05Z</time>
      </trkpt>
      <trkpt lat="43.63901" lon="0.48816">
        <ele>224.57</ele>
        <time>2016-12-30T13:20:25Z</time>
      </trkpt>
      <trkpt lat="43.63869" lon="0.48781">
        <ele>230.219</ele>
        <time>2016-12-30T13:20:45Z</time>
      </trkpt>
      <trkpt lat="43.63801" lon="0.48777">
        <ele>233.33</ele>
        <time>2016-12-30T13:21:05Z</time>
      </trkpt>
      <trkpt lat="43.63729" lon="0.48723">
        <ele>216.954</ele>
        <time>2016-12-30T13:21:25Z</time>
      </trkpt>
      <trkpt lat="43.63627" lon="0.48685">
        <ele>214.656</ele>
        <time>2016-12-30T13:21:45Z</time>
      </trkpt>
      <trkpt lat="43.63728" lon="0.48513">
        <ele>191.411</ele>
        <time>2016-12-30T13:22:05Z</time>
      </trkpt>
      <trkpt lat="43.63763" lon="0.4841">
        <ele>185.008</ele>
        <time>2016-12-30T13:22:25Z</time>
      </trkpt>
      <trkpt lat="43.63785" lon="0.48318">
        <ele>179.562</ele>
        <time>2016-12-30T13:22:45Z</time>
      </trkpt>
      <trkpt lat="43.63783" lon="0.48133">
        <ele>171.275</ele>
        <time>2016-12-30T13:23:05Z</time>
      </trkpt>
      <trkpt lat="43.63796" lon="0.48024">
        <ele>169.061</ele>
        <time>2016-12-30T13:23:25Z</time>
      </trkpt>
      <trkpt lat="43.63808" lon="0.47921">
        <ele>168.92</ele>
        <time>2016-12-30T13:23:45Z</time>
      </trkpt>
      <trkpt lat="43.63787" lon="0.47846">
        <ele>168.787</ele>
        <time>2016-12-30T13:24:05Z</time>
      </trkpt>
      <trkpt lat="43.63768" lon="0.47751">
        <ele>169.918</ele>
        <time>2016-12-30T13:24:25Z</time>
      </trkpt>
      <trkpt lat="43.63626" lon="0.47872">
        <ele>170.877</ele>
        <time>2021-04-17T22:31:50Z</time>
      </trkpt>
      <trkpt lat="43.63503" lon="0.47938">
        <ele>170.768</ele>
        <time>2021-04-17T22:32:10Z</time>
      </trkpt>
      <trkpt lat="43.63398" lon="0.47957">
        <ele>174.014</ele>
        <time>2021-04-17T22:32:30Z</time>
      </trkpt>
      <trkpt lat="43.63391" lon="0.47734">
        <ele>184.554</ele>
        <time>2016-12-30T13:25:45Z</time>
      </trkpt>
      <trkpt lat="43.63361" lon="0.47533">
        <ele>195.809</ele>
        <time>2016-12-30T13:26:05Z</time>
      </trkpt>
      <trkpt lat="43.63383" lon="0.47498">
        <ele>196.108</ele>
        <time>2016-12-30T13:26:25Z</time>
      </trkpt>
      <trkpt lat="43.63335" lon="0.47354">
        <ele>201.468</ele>
        <time>2016-12-30T13:26:45Z</time>
      </trkpt>
      <trkpt lat="43.63319" lon="0.47116">
        <ele>217.681</ele>
        <time>2016-12-30T13:27:05Z</time>
      </trkpt>
      <trkpt lat="43.63297" lon="0.46972">
        <ele>224.187</ele>
        <time>2016-12-30T13:27:25Z</time>
      </trkpt>
      <trkpt lat="43.63277" lon="0.46897">
        <ele>230.196</ele>
        <time>2016-12-30T13:27:45Z</time>
      </trkpt>
      <trkpt lat="43.63201" lon="0.46882">
        <ele>231.413</ele>
        <time>2016-12-30T13:28:05Z</time>
      </trkpt>
      <trkpt lat="43.63273" lon="0.46668">
        <ele>244.844</ele>
        <time>2016-12-30T13:28:25Z</time>
      </trkpt>
      <trkpt lat="43.63287" lon="0.46565">
        <ele>247.383</ele>
        <time>2016-12-30T13:28:45Z</time>
      </trkpt>
      <trkpt lat="43.63342" lon="0.4643">
        <ele>248.414</ele>
        <time>2016-12-30T13:29:05Z</time>
      </trkpt>
      <trkpt lat="43.634" lon="0.46342">
        <ele>245.711</ele>
        <time>2016-12-30T13:29:25Z</time>
      </trkpt>
      <trkpt lat="43.63443" lon="0.46239">
        <ele>249.921</ele>
        <time>2016-12-30T13:29:45Z</time>
      </trkpt>
      <trkpt lat="43.63462" lon="0.46129">
        <ele>249.403</ele>
        <time>2016-12-30T13:30:05Z</time>
      </trkpt>
      <trkpt lat="43.63509" lon="0.46069">
        <ele>247.708</ele>
        <time>2016-12-30T13:30:25Z</time>
      </trkpt>
      <trkpt lat="43.63569" lon="0.45979">
        <ele>251.188</ele>
        <time>2016-12-30T13:30:45Z</time>
      </trkpt>
      <trkpt lat="43.63613" lon="0.45891">
        <ele>251.931</ele>
        <time>2016-12-30T13:31:05Z</time>
      </trkpt>
      <trkpt lat="43.63673" lon="0.45747">
        <ele>251.827</ele>
        <time>2016-12-30T13:31:25Z</time>
      </trkpt>
      <trkpt lat="43.63701" lon="0.45571">
        <ele>252.056</ele>
        <time>2016-12-30T13:31:45Z</time>
      </trkpt>
      <trkpt lat="43.63763" lon="0.45297">
        <ele>249.863</ele>
        <time>2016-12-30T13:32:05Z</time>
      </trkpt>
      <trkpt lat="43.63803" lon="0.45163">
        <ele>246.674</ele>
        <time>2021-04-17T22:39:30Z</time>
      </trkpt>
      <trkpt lat="43.63813" lon="0.45064">
        <ele>242.833</ele>
        <time>2021-04-17T22:39:50Z</time>
      </trkpt>
      <trkpt lat="43.63794" lon="0.44975">
        <ele>241.214</ele>
        <time>2016-12-30T13:32:45Z</time>
      </trkpt>
      <trkpt lat="43.63749" lon="0.44865">
        <ele>240.029</ele>
        <time>2016-12-30T13:33:05Z</time>
      </trkpt>
      <trkpt lat="43.63707" lon="0.44846">
        <ele>243.1</ele>
        <time>2016-12-30T13:33:25Z</time>
      </trkpt>
      <trkpt lat="43.63651" lon="0.44846">
        <ele>242.32</ele>
        <time>2016-12-30T13:33:45Z</time>
      </trkpt>
      <trkpt lat="43.63544" lon="0.44743">
        <ele>235.308</ele>
        <time>2016-12-30T13:34:05Z</time>
      </trkpt>
      <trkpt lat="43.63451" lon="0.44696">
        <ele>227.839</ele>
        <time>2016-12-30T13:34:25Z</time>
      </trkpt>
      <trkpt lat="43.63318" lon="0.44582">
        <ele>217.852</ele>
        <time>2016-12-30T13:34:45Z</time>
      </trkpt>
      <trkpt lat="43.63259" lon="0.44488">
        <ele>215.088</ele>
        <time>2016-12-30T13:35:05Z</time>
      </trkpt>
      <trkpt lat="43.63153" lon="0.44398">
        <ele>209.497</ele>
        <time>2016-12-30T13:35:25Z</time>
      </trkpt>
      <trkpt lat="43.62973" lon="0.44297">
        <ele>190.144</ele>
        <time>2016-12-30T13:35:45Z</time>
      </trkpt>
      <trkpt lat="43.62909" lon="0.44275">
        <ele>183.135</ele>
        <time>2016-12-30T13:36:05Z</time>
      </trkpt>
      <trkpt lat="43.62819" lon="0.4429">
        <ele>169.734</ele>
        <time>2016-12-30T13:36:25Z</time>
      </trkpt>
      <trkpt lat="43.6274" lon="0.44333">
        <ele>160.995</ele>
        <time>2016-12-30T13:36:45Z</time>
      </trkpt>
      <trkpt lat="43.62679" lon="0.44391">
        <ele>159.172</ele>
        <time>2016-12-30T13:37:05Z</time>
      </trkpt>
      <trkpt lat="43.62639" lon="0.44368">
        <ele>157.713</ele>
        <time>2016-12-30T13:37:25Z</time>
      </trkpt>
      <trkpt lat="43.62584" lon="0.44348">
        <ele>155.514</ele>
        <time>2016-12-30T13:37:45Z</time>
      </trkpt>
      <trkpt lat="43.62435" lon="0.44241">
        <ele>156.108</ele>
        <time>2016-12-30T13:38:05Z</time>
      </trkpt>
      <trkpt lat="43.62112" lon="0.44406">
        <ele>158.684</ele>
        <time>2016-12-30T13:38:25Z</time>
      </trkpt>
      <trkpt lat="43.62078" lon="0.44444">
        <ele>164.417</ele>
        <time>2021-04-17T22:46:10Z</time>
      </trkpt>
      <trkpt lat="43.62036" lon="0.44522">
        <ele>160.093</ele>
        <time>2016-12-30T13:38:45Z</time>
      </trkpt>
      <trkpt lat="43.62011" lon="0.44492">
        <ele>159.052</ele>
        <time>2016-12-30T13:39:05Z</time>
      </trkpt>
      <trkpt lat="43.61678" lon="0.44297">
        <ele>169.739</ele>
        <time>2016-12-30T13:39:25Z</time>
      </trkpt>
      <trkpt lat="43.61511" lon="0.442">
        <ele>172.81</ele>
        <time>2016-12-30T13:39:45Z</time>
      </trkpt>
      <trkpt lat="43.60728" lon="0.43761">
        <ele>187.579</ele>
        <time>2016-12-30T13:40:05Z</time>
      </trkpt>
      <trkpt lat="43.60671" lon="0.43755">
        <ele>189.86</ele>
        <time>2021-04-17T22:48:10Z</time>
      </trkpt>
      <trkpt lat="43.60607" lon="0.43853">
        <ele>183.614</ele>
        <time>2021-04-17T22:48:30Z</time>
      </trkpt>
      <trkpt lat="43.60631" lon="0.43921">
        <ele>183.054</ele>
        <time>2021-04-17T22:48:50Z</time>
      </trkpt>
      <trkpt lat="43.60613" lon="0.43922">
        <ele>182.809</ele>
        <time>2021-04-17T22:49:10Z</time>
      </trkpt>
      <trkpt lat="43.60567" lon="0.439">
        <ele>183.108</ele>
        <time>2021-04-17T22:49:30Z</time>
      </trkpt>
      <trkpt lat="43.60532" lon="0.43906">
        <ele>184.658</ele>
        <time>2021-04-17T22:49:50Z</time>
      </trkpt>
      <trkpt lat="43.60438" lon="0.43778">
        <ele>191.741</ele>
        <time>2021-04-17T22:50:10Z</time>
      </trkpt>
      <trkpt lat="43.60397" lon="0.43809">
        <ele>193.867</ele>
        <time>2016-12-30T13:42:05Z</time>
      </trkpt>
      <trkpt lat="43.60284" lon="0.43698">
        <ele>198.236</ele>
        <time>2016-12-30T13:42:25Z</time>
      </trkpt>
      <trkpt lat="43.60248" lon="0.43688">
        <ele>195.883</ele>
        <time>2016-12-30T13:42:45Z</time>
      </trkpt>
      <trkpt lat="43.60272" lon="0.43709">
        <ele>200.674</ele>
        <time>2016-12-30T13:43:05Z</time>
      </trkpt>
      <trkpt lat="43.60275" lon="0.4377">
        <ele>210.983</ele>
        <time>2016-12-30T13:43:25Z</time>
      </trkpt>
      <trkpt lat="43.60196" lon="0.44035">
        <ele>230.194</ele>
        <time>2016-12-30T13:43:45Z</time>
      </trkpt>
      <trkpt lat="43.60156" lon="0.44099">
        <ele>234.781</ele>
        <time>2016-12-30T13:44:05Z</time>
      </trkpt>
      <trkpt lat="43.60098" lon="0.44134">
        <ele>235.561</ele>
        <time>2016-12-30T13:44:25Z</time>
      </trkpt>
      <trkpt lat="43.59946" lon="0.44167">
        <ele>243.817</ele>
        <time>2016-12-30T13:44:45Z</time>
      </trkpt>
      <trkpt lat="43.59572" lon="0.44274">
        <ele>247.008</ele>
        <time>2016-12-30T13:45:05Z</time>
      </trkpt>
      <trkpt lat="43.59537" lon="0.44259">
        <ele>245.315</ele>
        <time>2016-12-30T13:45:25Z</time>
      </trkpt>
      <trkpt lat="43.59475" lon="0.44275">
        <ele>245.798</ele>
        <time>2016-12-30T13:45:45Z</time>
      </trkpt>
      <trkpt lat="43.59357" lon="0.44329">
        <ele>247.924</ele>
        <time>2016-12-30T13:46:05Z</time>
      </trkpt>
      <trkpt lat="43.59266" lon="0.44297">
        <ele>251.843</ele>
        <time>2016-12-30T13:46:25Z</time>
      </trkpt>
      <trkpt lat="43.59199" lon="0.44303">
        <ele>251.99</ele>
        <time>2016-12-30T13:46:45Z</time>
      </trkpt>
      <trkpt lat="43.59121" lon="0.44232">
        <ele>250.631</ele>
        <time>2016-12-30T13:47:05Z</time>
      </trkpt>
      <trkpt lat="43.59093" lon="0.44235">
        <ele>250.88</ele>
        <time>2016-12-30T13:47:25Z</time>
      </trkpt>
      <trkpt lat="43.59103" lon="0.4411">
        <ele>249.011</ele>
        <time>2016-12-30T13:47:45Z</time>
      </trkpt>
      <trkpt lat="43.5914" lon="0.44033">
        <ele>246.865</ele>
        <time>2016-12-30T13:48:05Z</time>
      </trkpt>
      <trkpt lat="43.5916" lon="0.43845">
        <ele>237.468</ele>
        <time>2016-12-30T13:48:25Z</time>
      </trkpt>
      <trkpt lat="43.59144" lon="0.43761">
        <ele>234.014</ele>
        <time>2016-12-30T13:48:45Z</time>
      </trkpt>
      <trkpt lat="43.59123" lon="0.43693">
        <ele>227.908</ele>
        <time>2016-12-30T13:49:05Z</time>
      </trkpt>
      <trkpt lat="43.59122" lon="0.43659">
        <ele>227.013</ele>
        <time>2016-12-30T13:49:25Z</time>
      </trkpt>
      <trkpt lat="43.59077" lon="0.4354">
        <ele>221.126</ele>
        <time>2016-12-30T13:49:45Z</time>
      </trkpt>
      <trkpt lat="43.59123" lon="0.43229">
        <ele>200.342</ele>
        <time>2016-12-30T13:50:05Z</time>
      </trkpt>
      <trkpt lat="43.59077" lon="0.43201">
        <ele>213.581</ele>
        <time>2016-12-30T13:50:25Z</time>
      </trkpt>
      <trkpt lat="43.59028" lon="0.43194">
        <ele>221.728</ele>
        <time>2021-04-17T22:59:10Z</time>
      </trkpt>
      <trkpt lat="43.59064" lon="0.4311">
        <ele>222.999</ele>
        <time>2016-12-30T13:51:05Z</time>
      </trkpt>
      <trkpt lat="43.59108" lon="0.43">
        <ele>215.578</ele>
        <time>2016-12-30T13:51:25Z</time>
      </trkpt>
      <trkpt lat="43.59141" lon="0.42765">
        <ele>209.069</ele>
        <time>2016-12-30T13:51:45Z</time>
      </trkpt>
      <trkpt lat="43.59166" lon="0.42636">
        <ele>200.091</ele>
        <time>2016-12-30T13:52:05Z</time>
      </trkpt>
      <trkpt lat="43.59172" lon="0.42575">
        <ele>195.981</ele>
        <time>2016-12-30T13:52:25Z</time>
      </trkpt>
      <trkpt lat="43.59185" lon="0.42543">
        <ele>190.719</ele>
        <time>2016-12-30T13:52:45Z</time>
      </trkpt>
      <trkpt lat="43.59168" lon="0.42409">
        <ele>183.908</ele>
        <time>2016-12-30T13:53:05Z</time>
      </trkpt>
      <trkpt lat="43.59086" lon="0.42195">
        <ele>172.986</ele>
        <time>2016-12-30T13:53:25Z</time>
      </trkpt>
      <trkpt lat="43.59129" lon="0.42144">
        <ele>168.079</ele>
        <time>2016-12-30T13:53:45Z</time>
      </trkpt>
      <trkpt lat="43.59229" lon="0.42073">
        <ele>156.035</ele>
        <time>2016-12-30T13:54:05Z</time>
      </trkpt>
      <trkpt lat="43.5914" lon="0.41919">
        <ele>154.054</ele>
        <time>2016-12-30T13:54:25Z</time>
      </trkpt>
      <trkpt lat="43.59049" lon="0.41816">
        <ele>147.321</ele>
        <time>2016-12-30T13:54:45Z</time>
      </trkpt>
      <trkpt lat="43.59016" lon="0.41795">
        <ele>144.242</ele>
        <time>2016-12-30T13:55:05Z</time>
      </trkpt>
      <trkpt lat="43.58966" lon="0.4182">
        <ele>143.771</ele>
        <time>2016-12-30T13:55:25Z</time>
      </trkpt>
      <trkpt lat="43.58944" lon="0.41809">
        <ele>142.192</ele>
        <time>2016-12-30T13:55:45Z</time>
      </trkpt>
      <trkpt lat="43.58896" lon="0.4174">
        <ele>139.096</ele>
        <time>2016-12-30T13:56:05Z</time>
      </trkpt>
      <trkpt lat="43.58886" lon="0.41612">
        <ele>137.031</ele>
        <time>2016-12-30T13:56:25Z</time>
      </trkpt>
      <trkpt lat="43.58892" lon="0.41447">
        <ele>135.024</ele>
        <time>2016-12-30T13:56:45Z</time>
      </trkpt>
      <trkpt lat="43.5887" lon="0.41409">
        <ele>134.008</ele>
        <time>2016-12-30T13:57:05Z</time>
      </trkpt>
      <trkpt lat="43.5877" lon="0.41373">
        <ele>133.866</ele>
        <time>2016-12-30T13:57:25Z</time>
      </trkpt>
      <trkpt lat="43.58707" lon="0.41325">
        <ele>133.019</ele>
        <time>2016-12-30T13:57:45Z</time>
      </trkpt>
      <trkpt lat="43.58611" lon="0.41226">
        <ele>133.065</ele>
        <time>2016-12-30T13:58:05Z</time>
      </trkpt>
      <trkpt lat="43.58584" lon="0.41139">
        <ele>134.074</ele>
        <time>2016-12-30T13:58:25Z</time>
      </trkpt>
      <trkpt lat="43.5857" lon="0.41078">
        <ele>134.051</ele>
        <time>2016-12-30T13:58:45Z</time>
      </trkpt>
      <trkpt lat="43.5854" lon="0.41048">
        <ele>134.692</ele>
        <time>2016-12-30T13:59:05Z</time>
      </trkpt>
      <trkpt lat="43.58464" lon="0.41025">
        <ele>138.151</ele>
        <time>2016-12-30T13:59:25Z</time>
      </trkpt>
      <trkpt lat="43.58451" lon="0.41014">
        <ele>139.212</ele>
        <time>2016-12-30T13:59:45Z</time>
      </trkpt>
      <trkpt lat="43.58412" lon="0.41027">
        <ele>137.298</ele>
        <time>2016-12-30T14:00:05Z</time>
      </trkpt>
      <trkpt lat="43.58236" lon="0.41024">
        <ele>143.015</ele>
        <time>2016-12-30T14:00:25Z</time>
      </trkpt>
      <trkpt lat="43.5812" lon="0.40973">
        <ele>141.626</ele>
        <time>2016-12-30T14:00:45Z</time>
      </trkpt>
      <trkpt lat="43.58011" lon="0.40894">
        <ele>144.108</ele>
        <time>2016-12-30T14:01:05Z</time>
      </trkpt>
      <trkpt lat="43.57967" lon="0.40877">
        <ele>140.676</ele>
        <time>2016-12-30T14:01:25Z</time>
      </trkpt>
      <trkpt lat="43.57937" lon="0.40566">
        <ele>166.579</ele>
        <time>2016-12-30T14:01:45Z</time>
      </trkpt>
      <trkpt lat="43.57891" lon="0.40546">
        <ele>170.335</ele>
        <time>2016-12-30T14:02:05Z</time>
      </trkpt>
      <trkpt lat="43.57821" lon="0.40491">
        <ele>177.134</ele>
        <time>2021-04-17T23:10:50Z</time>
      </trkpt>
      <trkpt lat="43.57806" lon="0.40395">
        <ele>180.641</ele>
        <time>2021-04-17T23:11:10Z</time>
      </trkpt>
      <trkpt lat="43.57743" lon="0.40215">
        <ele>187.212</ele>
        <time>2021-04-17T23:11:30Z</time>
      </trkpt>
      <trkpt lat="43.57761" lon="0.40053">
        <ele>189.721</ele>
        <time>2021-04-17T23:11:50Z</time>
      </trkpt>
      <trkpt lat="43.57776" lon="0.40027">
        <ele>190.912</ele>
        <time>2016-12-30T14:03:45Z</time>
      </trkpt>
      <trkpt lat="43.57783" lon="0.39879">
        <ele>194.535</ele>
        <time>2016-12-30T14:04:05Z</time>
      </trkpt>
      <trkpt lat="43.57773" lon="0.3983">
        <ele>195.386</ele>
        <time>2016-12-30T14:04:25Z</time>
      </trkpt>
      <trkpt lat="43.57868" lon="0.39441">
        <ele>203.714</ele>
        <time>2016-12-30T14:04:45Z</time>
      </trkpt>
      <trkpt lat="43.57984" lon="0.39112">
        <ele>220.708</ele>
        <time>2021-04-17T23:13:30Z</time>
      </trkpt>
      <trkpt lat="43.57992" lon="0.39038">
        <ele>222.33</ele>
        <time>2021-04-17T23:13:50Z</time>
      </trkpt>
      <trkpt lat="43.58077" lon="0.38746">
        <ele>229.343</ele>
        <time>2016-12-30T14:05:25Z</time>
      </trkpt>
      <trkpt lat="43.58223" lon="0.38439">
        <ele>236.149</ele>
        <time>2016-12-30T14:05:45Z</time>
      </trkpt>
      <trkpt lat="43.58192" lon="0.38313">
        <ele>233.778</ele>
        <time>2016-12-30T14:06:05Z</time>
      </trkpt>
      <trkpt lat="43.5817" lon="0.38161">
        <ele>229.685</ele>
        <time>2016-12-30T14:06:25Z</time>
      </trkpt>
      <trkpt lat="43.58191" lon="0.38136">
        <ele>226.636</ele>
        <time>2016-12-30T14:06:45Z</time>
      </trkpt>
      <trkpt lat="43.58207" lon="0.38065">
        <ele>222.615</ele>
        <time>2016-12-30T14:07:05Z</time>
      </trkpt>
      <trkpt lat="43.58352" lon="0.37711">
        <ele>191.866</ele>
        <time>2016-12-30T14:07:25Z</time>
      </trkpt>
      <trkpt lat="43.58325" lon="0.37556">
        <ele>185.952</ele>
        <time>2016-12-30T14:07:45Z</time>
      </trkpt>
      <trkpt lat="43.5833" lon="0.37453">
        <ele>183.753</ele>
        <time>2016-12-30T14:08:05Z</time>
      </trkpt>
      <trkpt lat="43.58354" lon="0.37341">
        <ele>180.808</ele>
        <time>2016-12-30T14:08:25Z</time>
      </trkpt>
      <trkpt lat="43.58342" lon="0.36756">
        <ele>163.408</ele>
        <time>2016-12-30T14:08:45Z</time>
      </trkpt>
      <trkpt lat="43.5831" lon="0.36755">
        <ele>164.862</ele>
        <time>2016-12-30T14:09:05Z</time>
      </trkpt>
      <trkpt lat="43.58272" lon="0.36687">
        <ele>165.085</ele>
        <time>2016-12-30T14:09:25Z</time>
      </trkpt>
      <trkpt lat="43.58254" lon="0.36615">
        <ele>165.121</ele>
        <time>2021-04-17T23:18:30Z</time>
      </trkpt>
      <trkpt lat="43.58259" lon="0.36579">
        <ele>165.01</ele>
        <time>2016-12-30T14:09:45Z</time>
      </trkpt>
      <trkpt lat="43.58231" lon="0.36397">
        <ele>170.487</ele>
        <time>2016-12-30T14:10:05Z</time>
      </trkpt>
      <trkpt lat="43.5822" lon="0.36157">
        <ele>178.458</ele>
        <time>2016-12-30T14:10:25Z</time>
      </trkpt>
      <trkpt lat="43.58221" lon="0.36046">
        <ele>183.427</ele>
        <time>2016-12-30T14:10:45Z</time>
      </trkpt>
      <trkpt lat="43.58164" lon="0.35899">
        <ele>189.978</ele>
        <time>2016-12-30T14:11:05Z</time>
      </trkpt>
      <trkpt lat="43.58083" lon="0.35795">
        <ele>196.415</ele>
        <time>2016-12-30T14:11:25Z</time>
      </trkpt>
      <trkpt lat="43.58066" lon="0.35744">
        <ele>198.165</ele>
        <time>2016-12-30T14:11:45Z</time>
      </trkpt>
      <trkpt lat="43.58046" lon="0.35556">
        <ele>208.911</ele>
        <time>2016-12-30T14:12:05Z</time>
      </trkpt>
      <trkpt lat="43.58011" lon="0.35459">
        <ele>219.008</ele>
        <time>2016-12-30T14:12:25Z</time>
      </trkpt>
      <trkpt lat="43.5798" lon="0.35301">
        <ele>232.928</ele>
        <time>2016-12-30T14:12:45Z</time>
      </trkpt>
      <trkpt lat="43.57974" lon="0.35201">
        <ele>228.571</ele>
        <time>2016-12-30T14:13:05Z</time>
      </trkpt>
      <trkpt lat="43.5794" lon="0.35053">
        <ele>217.287</ele>
        <time>2016-12-30T14:13:25Z</time>
      </trkpt>
      <trkpt lat="43.57876" lon="0.34883">
        <ele>197.136</ele>
        <time>2016-12-30T14:13:45Z</time>
      </trkpt>
      <trkpt lat="43.57832" lon="0.34705">
        <ele>177.893</ele>
        <time>2016-12-30T14:14:05Z</time>
      </trkpt>
      <trkpt lat="43.57888" lon="0.34424">
        <ele>180.534</ele>
        <time>2016-12-30T14:14:25Z</time>
      </trkpt>
      <trkpt lat="43.57897" lon="0.34341">
        <ele>184.573</ele>
        <time>2016-12-30T14:14:45Z</time>
      </trkpt>
      <trkpt lat="43.57872" lon="0.34178">
        <ele>192.254</ele>
        <time>2016-12-30T14:15:05Z</time>
      </trkpt>
      <trkpt lat="43.57832" lon="0.3397">
        <ele>195.117</ele>
        <time>2016-12-30T14:15:25Z</time>
      </trkpt>
      <trkpt lat="43.57807" lon="0.33889">
        <ele>197.087</ele>
        <time>2016-12-30T14:15:45Z</time>
      </trkpt>
      <trkpt lat="43.578" lon="0.33753">
        <ele>197.615</ele>
        <time>2016-12-30T14:16:05Z</time>
      </trkpt>
      <trkpt lat="43.57748" lon="0.3357">
        <ele>200.708</ele>
        <time>2016-12-30T14:16:25Z</time>
      </trkpt>
      <trkpt lat="43.57772" lon="0.33365">
        <ele>213.178</ele>
        <time>2016-12-30T14:16:45Z</time>
      </trkpt>
      <trkpt lat="43.57773" lon="0.33322">
        <ele>214.611</ele>
        <time>2016-12-30T14:17:05Z</time>
      </trkpt>
      <trkpt lat="43.57781" lon="0.33311">
        <ele>214.437</ele>
        <time>2016-12-30T14:17:25Z</time>
      </trkpt>
      <trkpt lat="43.57832" lon="0.33135">
        <ele>219.946</ele>
        <time>2016-12-30T14:17:45Z</time>
      </trkpt>
      <trkpt lat="43.57852" lon="0.32914">
        <ele>206.923</ele>
        <time>2021-04-17T23:27:10Z</time>
      </trkpt>
      <trkpt lat="43.57848" lon="0.3288">
        <ele>206.444</ele>
        <time>2021-04-17T23:27:30Z</time>
      </trkpt>
      <trkpt lat="43.57839" lon="0.32863">
        <ele>206.473</ele>
        <time>2021-04-17T23:27:50Z</time>
      </trkpt>
      <trkpt lat="43.57853" lon="0.32807">
        <ele>205.724</ele>
        <time>2021-04-17T23:28:10Z</time>
      </trkpt>
      <trkpt lat="43.57868" lon="0.32675">
        <ele>196.957</ele>
        <time>2021-04-17T23:28:30Z</time>
      </trkpt>
      <trkpt lat="43.57846" lon="0.3266">
        <ele>195.8</ele>
        <time>2021-04-17T23:28:50Z</time>
      </trkpt>
      <trkpt lat="43.57819" lon="0.3266">
        <ele>193.12</ele>
        <time>2021-04-17T23:29:10Z</time>
      </trkpt>
      <trkpt lat="43.5785" lon="0.32641">
        <ele>191.708</ele>
        <time>2021-04-17T23:29:30Z</time>
      </trkpt>
      <trkpt lat="43.57841" lon="0.32624">
        <ele>188.982</ele>
        <time>2021-04-17T23:29:50Z</time>
      </trkpt>
      <trkpt lat="43.57819" lon="0.32616">
        <ele>185.055</ele>
        <time>2021-04-17T23:30:10Z</time>
      </trkpt>
      <trkpt lat="43.57804" lon="0.32605">
        <ele>180.361</ele>
        <time>2021-04-17T23:30:30Z</time>
      </trkpt>
      <trkpt lat="43.57782" lon="0.32627">
        <ele>179.58</ele>
        <time>2021-04-17T23:30:50Z</time>
      </trkpt>
      <trkpt lat="43.5778" lon="0.32609">
        <ele>176.457</ele>
        <time>2021-04-17T23:31:10Z</time>
      </trkpt>
      <trkpt lat="43.57766" lon="0.32648">
        <ele>179.298</ele>
        <time>2021-04-17T23:31:30Z</time>
      </trkpt>
      <trkpt lat="43.57734" lon="0.32688">
        <ele>177.247</ele>
        <time>2021-04-17T23:31:50Z</time>
      </trkpt>
      <trkpt lat="43.57708" lon="0.32687">
        <ele>172.348</ele>
        <time>2021-04-17T23:32:10Z</time>
      </trkpt>
      <trkpt lat="43.57677" lon="0.3268">
        <ele>166.499</ele>
        <time>2021-04-17T23:32:30Z</time>
      </trkpt>
      <trkpt lat="43.57633" lon="0.32686">
        <ele>164.507</ele>
        <time>2021-04-17T23:32:50Z</time>
      </trkpt>
      <trkpt lat="43.57595" lon="0.32668">
        <ele>163.227</ele>
        <time>2021-04-17T23:33:10Z</time>
      </trkpt>
      <trkpt lat="43.57468" lon="0.32643">
        <ele>159.108</ele>
        <time>2016-12-30T14:22:05Z</time>
      </trkpt>
      <trkpt lat="43.57378" lon="0.32683">
        <ele>159.096</ele>
        <time>2016-12-30T14:22:25Z</time>
      </trkpt>
      <trkpt lat="43.57315" lon="0.32682">
        <ele>163.339</ele>
        <time>2016-12-30T14:22:45Z</time>
      </trkpt>
      <trkpt lat="43.57226" lon="0.32809">
        <ele>172.255</ele>
        <time>2021-04-17T23:34:30Z</time>
      </trkpt>
      <trkpt lat="43.57124" lon="0.32882">
        <ele>169.834</ele>
        <time>2016-12-30T14:23:25Z</time>
      </trkpt>
      <trkpt lat="43.57101" lon="0.32867">
        <ele>172.161</ele>
        <time>2021-04-17T23:35:10Z</time>
      </trkpt>
      <trkpt lat="43.56981" lon="0.32909">
        <ele>169.122</ele>
        <time>2021-04-17T23:35:30Z</time>
      </trkpt>
      <trkpt lat="43.56752" lon="0.32915">
        <ele>159.971</ele>
        <time>2016-12-30T14:24:25Z</time>
      </trkpt>
      <trkpt lat="43.56633" lon="0.32952">
        <ele>160.622</ele>
        <time>2016-12-30T14:24:45Z</time>
      </trkpt>
      <trkpt lat="43.56544" lon="0.32998">
        <ele>160.095</ele>
        <time>2016-12-30T14:25:05Z</time>
      </trkpt>
      <trkpt lat="43.5653" lon="0.33027">
        <ele>160.049</ele>
        <time>2016-12-30T14:25:25Z</time>
      </trkpt>
      <trkpt lat="43.56479" lon="0.33075">
        <ele>160.023</ele>
        <time>2016-12-30T14:25:45Z</time>
      </trkpt>
      <trkpt lat="43.56261" lon="0.33105">
        <ele>160.008</ele>
        <time>2016-12-30T14:26:05Z</time>
      </trkpt>
      <trkpt lat="43.5601" lon="0.33186">
        <ele>160.326</ele>
        <time>2016-12-30T14:26:25Z</time>
      </trkpt>
      <trkpt lat="43.55938" lon="0.33181">
        <ele>160.139</ele>
        <time>2016-12-30T14:26:45Z</time>
      </trkpt>
      <trkpt lat="43.55895" lon="0.33191">
        <ele>161.645</ele>
        <time>2016-12-30T14:27:05Z</time>
      </trkpt>
      <trkpt lat="43.5588" lon="0.33191">
        <ele>161.484</ele>
        <time>2016-12-30T14:27:25Z</time>
      </trkpt>
      <trkpt lat="43.55762" lon="0.33249">
        <ele>163.051</ele>
        <time>2016-12-30T14:27:45Z</time>
      </trkpt>
      <trkpt lat="43.55714" lon="0.3331">
        <ele>163.722</ele>
        <time>2016-12-30T14:28:05Z</time>
      </trkpt>
      <trkpt lat="43.55556" lon="0.33339">
        <ele>164.051</ele>
        <time>2016-12-30T14:28:25Z</time>
      </trkpt>
      <trkpt lat="43.55328" lon="0.33438">
        <ele>164.032</ele>
        <time>2016-12-30T14:28:45Z</time>
      </trkpt>
      <trkpt lat="43.55278" lon="0.33442">
        <ele>164.018</ele>
        <time>2016-12-30T14:29:05Z</time>
      </trkpt>
      <trkpt lat="43.55178" lon="0.3351">
        <ele>164.598</ele>
        <time>2016-12-30T14:29:25Z</time>
      </trkpt>
      <trkpt lat="43.55137" lon="0.33398">
        <ele>164.017</ele>
        <time>2016-12-30T14:29:45Z</time>
      </trkpt>
      <trkpt lat="43.55008" lon="0.33259">
        <ele>164.008</ele>
        <time>2016-12-30T14:30:05Z</time>
      </trkpt>
      <trkpt lat="43.54929" lon="0.3305">
        <ele>164.058</ele>
        <time>2016-12-30T14:30:25Z</time>
      </trkpt>
      <trkpt lat="43.54916" lon="0.32914">
        <ele>174.031</ele>
        <time>2021-04-17T23:42:10Z</time>
      </trkpt>
      <trkpt lat="43.54889" lon="0.32761">
        <ele>176.677</ele>
        <time>2016-12-30T14:30:45Z</time>
      </trkpt>
      <trkpt lat="43.54839" lon="0.32697">
        <ele>180.916</ele>
        <time>2016-12-30T14:31:05Z</time>
      </trkpt>
      <trkpt lat="43.5483" lon="0.32483">
        <ele>187.413</ele>
        <time>2016-12-30T14:31:25Z</time>
      </trkpt>
      <trkpt lat="43.54835" lon="0.32149">
        <ele>197.724</ele>
        <time>2016-12-30T14:31:45Z</time>
      </trkpt>
      <trkpt lat="43.54943" lon="0.3203">
        <ele>202.173</ele>
        <time>2016-12-30T14:32:05Z</time>
      </trkpt>
      <trkpt lat="43.54821" lon="0.31657">
        <ele>214.454</ele>
        <time>2021-04-17T23:44:10Z</time>
      </trkpt>
      <trkpt lat="43.54792" lon="0.31618">
        <ele>216.029</ele>
        <time>2021-04-17T23:44:30Z</time>
      </trkpt>
      <trkpt lat="43.54831" lon="0.31519">
        <ele>215.2</ele>
        <time>2021-04-17T23:44:50Z</time>
      </trkpt>
      <trkpt lat="43.54861" lon="0.31407">
        <ele>203.32</ele>
        <time>2021-04-17T23:45:10Z</time>
      </trkpt>
      <trkpt lat="43.5494" lon="0.31161">
        <ele>181.308</ele>
        <time>2016-12-30T14:33:25Z</time>
      </trkpt>
      <trkpt lat="43.5494" lon="0.31071">
        <ele>187.289</ele>
        <time>2016-12-30T14:33:45Z</time>
      </trkpt>
      <trkpt lat="43.54908" lon="0.30942">
        <ele>198.232</ele>
        <time>2016-12-30T14:34:05Z</time>
      </trkpt>
      <trkpt lat="43.54877" lon="0.30814">
        <ele>206.368</ele>
        <time>2021-04-17T23:46:30Z</time>
      </trkpt>
      <trkpt lat="43.54896" lon="0.30753">
        <ele>212.867</ele>
        <time>2016-12-30T14:34:45Z</time>
      </trkpt>
      <trkpt lat="43.54897" lon="0.30697">
        <ele>213.434</ele>
        <time>2021-04-17T23:47:10Z</time>
      </trkpt>
      <trkpt lat="43.54915" lon="0.3064">
        <ele>218.495</ele>
        <time>2021-04-17T23:47:30Z</time>
      </trkpt>
      <trkpt lat="43.54989" lon="0.30511">
        <ele>220.874</ele>
        <time>2016-12-30T14:35:25Z</time>
      </trkpt>
      <trkpt lat="43.55009" lon="0.30414">
        <ele>225.335</ele>
        <time>2016-12-30T14:35:45Z</time>
      </trkpt>
      <trkpt lat="43.55006" lon="0.30336">
        <ele>229.713</ele>
        <time>2016-12-30T14:36:05Z</time>
      </trkpt>
      <trkpt lat="43.54975" lon="0.30165">
        <ele>236.643</ele>
        <time>2016-12-30T14:36:25Z</time>
      </trkpt>
      <trkpt lat="43.54892" lon="0.30134">
        <ele>250.807</ele>
        <time>2016-12-30T14:36:45Z</time>
      </trkpt>
      <trkpt lat="43.54875" lon="0.29981">
        <ele>255.308</ele>
        <time>2016-12-30T14:37:05Z</time>
      </trkpt>
      <trkpt lat="43.54859" lon="0.29931">
        <ele>256.658</ele>
        <time>2016-12-30T14:37:25Z</time>
      </trkpt>
      <trkpt lat="43.54884" lon="0.29868">
        <ele>255.951</ele>
        <time>2016-12-30T14:37:45Z</time>
      </trkpt>
      <trkpt lat="43.54798" lon="0.29509">
        <ele>264.447</ele>
        <time>2021-04-17T23:50:30Z</time>
      </trkpt>
      <trkpt lat="43.54822" lon="0.29491">
        <ele>265.426</ele>
        <time>2021-04-17T23:50:50Z</time>
      </trkpt>
      <trkpt lat="43.54833" lon="0.29425">
        <ele>256.173</ele>
        <time>2016-12-30T14:38:45Z</time>
      </trkpt>
      <trkpt lat="43.54825" lon="0.29369">
        <ele>259.424</ele>
        <time>2016-12-30T14:39:05Z</time>
      </trkpt>
      <trkpt lat="43.54842" lon="0.29324">
        <ele>260.013</ele>
        <time>2016-12-30T14:39:25Z</time>
      </trkpt>
      <trkpt lat="43.54785" lon="0.29258">
        <ele>260.084</ele>
        <time>2016-12-30T14:39:45Z</time>
      </trkpt>
      <trkpt lat="43.54813" lon="0.29059">
        <ele>256.447</ele>
        <time>2016-12-30T14:40:05Z</time>
      </trkpt>
      <trkpt lat="43.54823" lon="0.28921">
        <ele>246.929</ele>
        <time>2016-12-30T14:40:45Z</time>
      </trkpt>
      <trkpt lat="43.54789" lon="0.28658">
        <ele>241.721</ele>
        <time>2016-12-30T14:41:05Z</time>
      </trkpt>
      <trkpt lat="43.54752" lon="0.28544">
        <ele>236.508</ele>
        <time>2016-12-30T14:41:25Z</time>
      </trkpt>
      <trkpt lat="43.54766" lon="0.28474">
        <ele>225.911</ele>
        <time>2016-12-30T14:41:45Z</time>
      </trkpt>
      <trkpt lat="43.54712" lon="0.28417">
        <ele>209.284</ele>
        <time>2016-12-30T14:42:05Z</time>
      </trkpt>
      <trkpt lat="43.54698" lon="0.28386">
        <ele>201.17</ele>
        <time>2016-12-30T14:42:25Z</time>
      </trkpt>
      <trkpt lat="43.54671" lon="0.28375">
        <ele>209.659</ele>
        <time>2021-04-17T23:54:50Z</time>
      </trkpt>
      <trkpt lat="43.54666" lon="0.28342">
        <ele>201.986</ele>
        <time>2021-04-17T23:55:10Z</time>
      </trkpt>
      <trkpt lat="43.54639" lon="0.28282">
        <ele>194.227</ele>
        <time>2016-12-30T14:43:05Z</time>
      </trkpt>
      <trkpt lat="43.54624" lon="0.28261">
        <ele>196.816</ele>
        <time>2021-04-17T23:55:50Z</time>
      </trkpt>
      <trkpt lat="43.54604" lon="0.2827">
        <ele>197.447</ele>
        <time>2021-04-17T23:56:10Z</time>
      </trkpt>
      <trkpt lat="43.54603" lon="0.28256">
        <ele>197.311</ele>
        <time>2021-04-17T23:56:30Z</time>
      </trkpt>
      <trkpt lat="43.54742" lon="0.28202">
        <ele>199.521</ele>
        <time>2021-04-17T23:56:50Z</time>
      </trkpt>
      <trkpt lat="43.54743" lon="0.28181">
        <ele>200.303</ele>
        <time>2021-04-17T23:57:10Z</time>
      </trkpt>
      <trkpt lat="43.54712" lon="0.28162">
        <ele>200.508</ele>
        <time>2021-04-17T23:57:30Z</time>
      </trkpt>
      <trkpt lat="43.54562" lon="0.28214">
        <ele>199.328</ele>
        <time>2016-12-30T14:43:45Z</time>
      </trkpt>
      <trkpt lat="43.54563" lon="0.28014">
        <ele>209.981</ele>
        <time>2016-12-30T14:44:05Z</time>
      </trkpt>
      <trkpt lat="43.54496" lon="0.27894">
        <ele>219.137</ele>
        <time>2016-12-30T14:44:25Z</time>
      </trkpt>
      <trkpt lat="43.54409" lon="0.27824">
        <ele>228.136</ele>
        <time>2016-12-30T14:44:45Z</time>
      </trkpt>
      <trkpt lat="43.54383" lon="0.27759">
        <ele>233.143</ele>
        <time>2016-12-30T14:45:05Z</time>
      </trkpt>
      <trkpt lat="43.54382" lon="0.27714">
        <ele>235.074</ele>
        <time>2016-12-30T14:45:25Z</time>
      </trkpt>
      <trkpt lat="43.54366" lon="0.27643">
        <ele>238.913</ele>
        <time>2016-12-30T14:45:45Z</time>
      </trkpt>
      <trkpt lat="43.54354" lon="0.27514">
        <ele>239.614</ele>
        <time>2016-12-30T14:46:05Z</time>
      </trkpt>
      <trkpt lat="43.54335" lon="0.27412">
        <ele>244.912</ele>
        <time>2016-12-30T14:46:25Z</time>
      </trkpt>
      <trkpt lat="43.54355" lon="0.27304">
        <ele>245.532</ele>
        <time>2016-12-30T14:46:45Z</time>
      </trkpt>
      <trkpt lat="43.54335" lon="0.27193">
        <ele>248.005</ele>
        <time>2016-12-30T14:47:05Z</time>
      </trkpt>
      <trkpt lat="43.54315" lon="0.27129">
        <ele>248.008</ele>
        <time>2016-12-30T14:47:25Z</time>
      </trkpt>
      <trkpt lat="43.54296" lon="0.27065">
        <ele>248.578</ele>
        <time>2016-12-30T14:47:45Z</time>
      </trkpt>
      <trkpt lat="43.54233" lon="0.27">
        <ele>254.121</ele>
        <time>2016-12-30T14:48:05Z</time>
      </trkpt>
      <trkpt lat="43.54205" lon="0.26951">
        <ele>258.127</ele>
        <time>2016-12-30T14:48:25Z</time>
      </trkpt>
      <trkpt lat="43.54202" lon="0.26856">
        <ele>257.056</ele>
        <time>2016-12-30T14:48:45Z</time>
      </trkpt>
      <trkpt lat="43.54181" lon="0.26814">
        <ele>253.783</ele>
        <time>2016-12-30T14:49:05Z</time>
      </trkpt>
      <trkpt lat="43.54067" lon="0.26747">
        <ele>254.454</ele>
        <time>2016-12-30T14:49:25Z</time>
      </trkpt>
      <trkpt lat="43.53987" lon="0.26663">
        <ele>255.443</ele>
        <time>2016-12-30T14:50:05Z</time>
      </trkpt>
      <trkpt lat="43.53945" lon="0.26535">
        <ele>265.034</ele>
        <time>2016-12-30T14:50:45Z</time>
      </trkpt>
      <trkpt lat="43.5382" lon="0.26539">
        <ele>255.551</ele>
        <time>2016-12-30T14:51:05Z</time>
      </trkpt>
      <trkpt lat="43.53671" lon="0.26479">
        <ele>268.401</ele>
        <time>2016-12-30T14:51:25Z</time>
      </trkpt>
      <trkpt lat="43.53602" lon="0.26481">
        <ele>275.311</ele>
        <time>2016-12-30T14:51:45Z</time>
      </trkpt>
      <trkpt lat="43.53426" lon="0.26581">
        <ele>270.308</ele>
        <time>2016-12-30T14:52:05Z</time>
      </trkpt>
      <trkpt lat="43.53387" lon="0.26447">
        <ele>267.572</ele>
        <time>2016-12-30T14:52:25Z</time>
      </trkpt>
      <trkpt lat="43.53383" lon="0.26373">
        <ele>268.785</ele>
        <time>2016-12-30T14:52:45Z</time>
      </trkpt>
      <trkpt lat="43.52951" lon="0.2639">
        <ele>276.451</ele>
        <time>2021-04-18T00:06:30Z</time>
      </trkpt>
      <trkpt lat="43.5296" lon="0.26166">
        <ele>271.55</ele>
        <time>2021-04-18T00:06:50Z</time>
      </trkpt>
      <trkpt lat="43.52971" lon="0.26125">
        <ele>269.167</ele>
        <time>2021-04-18T00:07:10Z</time>
      </trkpt>
      <trkpt lat="43.52949" lon="0.26009">
        <ele>261.648</ele>
        <time>2016-12-30T14:53:45Z</time>
      </trkpt>
      <trkpt lat="43.5288" lon="0.25889">
        <ele>259.057</ele>
        <time>2016-12-30T14:54:05Z</time>
      </trkpt>
      <trkpt lat="43.52887" lon="0.25839">
        <ele>257.478</ele>
        <time>2016-12-30T14:54:25Z</time>
      </trkpt>
      <trkpt lat="43.52891" lon="0.25659">
        <ele>248.047</ele>
        <time>2016-12-30T14:54:45Z</time>
      </trkpt>
      <trkpt lat="43.52869" lon="0.2555">
        <ele>241.029</ele>
        <time>2016-12-30T14:55:05Z</time>
      </trkpt>
      <trkpt lat="43.52813" lon="0.25383">
        <ele>229.821</ele>
        <time>2016-12-30T14:55:25Z</time>
      </trkpt>
      <trkpt lat="43.52733" lon="0.2528">
        <ele>215.908</ele>
        <time>2016-12-30T14:55:45Z</time>
      </trkpt>
      <trkpt lat="43.52664" lon="0.25181">
        <ele>204.951</ele>
        <time>2016-12-30T14:56:05Z</time>
      </trkpt>
      <trkpt lat="43.52599" lon="0.25044">
        <ele>211.824</ele>
        <time>2016-12-30T14:56:25Z</time>
      </trkpt>
      <trkpt lat="43.52524" lon="0.24858">
        <ele>214.05</ele>
        <time>2016-12-30T14:56:45Z</time>
      </trkpt>
      <trkpt lat="43.52441" lon="0.24759">
        <ele>216.769</ele>
        <time>2016-12-30T14:57:05Z</time>
      </trkpt>
      <trkpt lat="43.52325" lon="0.24584">
        <ele>206.446</ele>
        <time>2016-12-30T14:57:25Z</time>
      </trkpt>
      <trkpt lat="43.52134" lon="0.24437">
        <ele>196.327</ele>
        <time>2016-12-30T14:57:45Z</time>
      </trkpt>
      <trkpt lat="43.52004" lon="0.24289">
        <ele>195.756</ele>
        <time>2016-12-30T14:58:05Z</time>
      </trkpt>
      <trkpt lat="43.51805" lon="0.24131">
        <ele>185.037</ele>
        <time>2016-12-30T14:58:25Z</time>
      </trkpt>
      <trkpt lat="43.51722" lon="0.24152">
        <ele>185.271</ele>
        <time>2021-04-18T00:12:30Z</time>
      </trkpt>
      <trkpt lat="43.51667" lon="0.24138">
        <ele>185.041</ele>
        <time>2021-04-18T00:12:50Z</time>
      </trkpt>
      <trkpt lat="43.51706" lon="0.24022">
        <ele>191.115</ele>
        <time>2021-04-18T00:13:10Z</time>
      </trkpt>
      <trkpt lat="43.51527" lon="0.23814">
        <ele>193.708</ele>
        <time>2016-12-30T14:59:05Z</time>
      </trkpt>
      <trkpt lat="43.51293" lon="0.23645">
        <ele>201.734</ele>
        <time>2016-12-30T14:59:25Z</time>
      </trkpt>
      <trkpt lat="43.51202" lon="0.23601">
        <ele>208.787</ele>
        <time>2016-12-30T14:59:45Z</time>
      </trkpt>
      <trkpt lat="43.51157" lon="0.23538">
        <ele>210.013</ele>
        <time>2016-12-30T15:00:05Z</time>
      </trkpt>
      <trkpt lat="43.51149" lon="0.2345">
        <ele>209.512</ele>
        <time>2016-12-30T15:00:25Z</time>
      </trkpt>
      <trkpt lat="43.51144" lon="0.23356">
        <ele>202.299</ele>
        <time>2016-12-30T15:00:45Z</time>
      </trkpt>
      <trkpt lat="43.5112" lon="0.23299">
        <ele>196.22</ele>
        <time>2016-12-30T15:01:05Z</time>
      </trkpt>
      <trkpt lat="43.51068" lon="0.23235">
        <ele>190.029</ele>
        <time>2016-12-30T15:01:25Z</time>
      </trkpt>
      <trkpt lat="43.51037" lon="0.23125">
        <ele>182.09</ele>
        <time>2016-12-30T15:01:45Z</time>
      </trkpt>
      <trkpt lat="43.50991" lon="0.23024">
        <ele>173.547</ele>
        <time>2016-12-30T15:02:05Z</time>
      </trkpt>
      <trkpt lat="43.50959" lon="0.22997">
        <ele>174.329</ele>
        <time>2016-12-30T15:02:25Z</time>
      </trkpt>
      <trkpt lat="43.50882" lon="0.22993">
        <ele>177.121</ele>
        <time>2016-12-30T15:02:45Z</time>
      </trkpt>
      <trkpt lat="43.50862" lon="0.22942">
        <ele>179.408</ele>
        <time>2021-04-18T00:17:30Z</time>
      </trkpt>
      <trkpt lat="43.50809" lon="0.22721">
        <ele>167.961</ele>
        <time>2016-12-30T15:03:05Z</time>
      </trkpt>
      <trkpt lat="43.50807" lon="0.2267">
        <ele>166.574</ele>
        <time>2016-12-30T15:03:25Z</time>
      </trkpt>
      <trkpt lat="43.50794" lon="0.2262">
        <ele>164.23</ele>
        <time>2016-12-30T15:03:45Z</time>
      </trkpt>
      <trkpt lat="43.50757" lon="0.22568">
        <ele>164.069</ele>
        <time>2016-12-30T15:04:05Z</time>
      </trkpt>
      <trkpt lat="43.50683" lon="0.22488">
        <ele>164.036</ele>
        <time>2016-12-30T15:04:25Z</time>
      </trkpt>
      <trkpt lat="43.50591" lon="0.22414">
        <ele>164.097</ele>
        <time>2016-12-30T15:04:45Z</time>
      </trkpt>
      <trkpt lat="43.50502" lon="0.22368">
        <ele>164.026</ele>
        <time>2016-12-30T15:05:05Z</time>
      </trkpt>
      <trkpt lat="43.5036" lon="0.22148">
        <ele>167.087</ele>
        <time>2016-12-30T15:05:25Z</time>
      </trkpt>
      <trkpt lat="43.50334" lon="0.22044">
        <ele>168.089</ele>
        <time>2016-12-30T15:05:45Z</time>
      </trkpt>
      <trkpt lat="43.50294" lon="0.21954">
        <ele>172.906</ele>
        <time>2016-12-30T15:06:05Z</time>
      </trkpt>
      <trkpt lat="43.50145" lon="0.21906">
        <ele>198.426</ele>
        <time>2016-12-30T15:06:25Z</time>
      </trkpt>
      <trkpt lat="43.5015" lon="0.21823">
        <ele>202.608</ele>
        <time>2016-12-30T15:06:45Z</time>
      </trkpt>
      <trkpt lat="43.50135" lon="0.2177">
        <ele>207.585</ele>
        <time>2016-12-30T15:07:05Z</time>
      </trkpt>
      <trkpt lat="43.50127" lon="0.21638">
        <ele>213.338</ele>
        <time>2016-12-30T15:07:25Z</time>
      </trkpt>
      <trkpt lat="43.50111" lon="0.21577">
        <ele>213.594</ele>
        <time>2016-12-30T15:07:45Z</time>
      </trkpt>
      <trkpt lat="43.50079" lon="0.21546">
        <ele>215.983</ele>
        <time>2016-12-30T15:08:05Z</time>
      </trkpt>
      <trkpt lat="43.50025" lon="0.21522">
        <ele>223.29</ele>
        <time>2016-12-30T15:08:25Z</time>
      </trkpt>
      <trkpt lat="43.49918" lon="0.2152">
        <ele>238.331</ele>
        <time>2016-12-30T15:08:45Z</time>
      </trkpt>
      <trkpt lat="43.49966" lon="0.21386">
        <ele>239.99</ele>
        <time>2016-12-30T15:09:05Z</time>
      </trkpt>
      <trkpt lat="43.49983" lon="0.21373">
        <ele>240.071</ele>
        <time>2016-12-30T15:09:25Z</time>
      </trkpt>
      <trkpt lat="43.50015" lon="0.21371">
        <ele>238.648</ele>
        <time>2016-12-30T15:09:45Z</time>
      </trkpt>
      <trkpt lat="43.50032" lon="0.21315">
        <ele>238.261</ele>
        <time>2016-12-30T15:10:05Z</time>
      </trkpt>
      <trkpt lat="43.50039" lon="0.21255">
        <ele>238.317</ele>
        <time>2016-12-30T15:10:25Z</time>
      </trkpt>
      <trkpt lat="43.50106" lon="0.21157">
        <ele>226.308</ele>
        <time>2016-12-30T15:10:45Z</time>
      </trkpt>
      <trkpt lat="43.50142" lon="0.21129">
        <ele>224.491</ele>
        <time>2016-12-30T15:11:05Z</time>
      </trkpt>
      <trkpt lat="43.50189" lon="0.21146">
        <ele>222.224</ele>
        <time>2016-12-30T15:11:25Z</time>
      </trkpt>
      <trkpt lat="43.50225" lon="0.21117">
        <ele>221.69</ele>
        <time>2016-12-30T15:11:45Z</time>
      </trkpt>
      <trkpt lat="43.5025" lon="0.21061">
        <ele>218.469</ele>
        <time>2016-12-30T15:12:05Z</time>
      </trkpt>
      <trkpt lat="43.50273" lon="0.20846">
        <ele>212.366</ele>
        <time>2016-12-30T15:12:25Z</time>
      </trkpt>
      <trkpt lat="43.5034" lon="0.20679">
        <ele>195.347</ele>
        <time>2016-12-30T15:12:45Z</time>
      </trkpt>
      <trkpt lat="43.50304" lon="0.20677">
        <ele>194.666</ele>
        <time>2016-12-30T15:13:05Z</time>
      </trkpt>
      <trkpt lat="43.50223" lon="0.2059">
        <ele>175.237</ele>
        <time>2021-04-18T00:28:10Z</time>
      </trkpt>
      <trkpt lat="43.50198" lon="0.20473">
        <ele>165.032</ele>
        <time>2016-12-30T15:13:45Z</time>
      </trkpt>
      <trkpt lat="43.50156" lon="0.20338">
        <ele>166.092</ele>
        <time>2021-04-18T00:28:50Z</time>
      </trkpt>
      <trkpt lat="43.50139" lon="0.20189">
        <ele>169.011</ele>
        <time>2016-12-30T15:14:25Z</time>
      </trkpt>
      <trkpt lat="43.50164" lon="0.20155">
        <ele>169.008</ele>
        <time>2016-12-30T15:14:45Z</time>
      </trkpt>
      <trkpt lat="43.50247" lon="0.20114">
        <ele>169.38</ele>
        <time>2021-04-18T00:29:50Z</time>
      </trkpt>
      <trkpt lat="43.503" lon="0.20132">
        <ele>167.453</ele>
        <time>2016-12-30T15:15:25Z</time>
      </trkpt>
      <trkpt lat="43.50397" lon="0.20021">
        <ele>168.849</ele>
        <time>2016-12-30T15:15:45Z</time>
      </trkpt>
      <trkpt lat="43.50396" lon="0.19915">
        <ele>171.838</ele>
        <time>2016-12-30T15:16:05Z</time>
      </trkpt>
      <trkpt lat="43.50386" lon="0.19877">
        <ele>172.575</ele>
        <time>2016-12-30T15:16:25Z</time>
      </trkpt>
      <trkpt lat="43.50404" lon="0.19854">
        <ele>173.396</ele>
        <time>2016-12-30T15:16:45Z</time>
      </trkpt>
      <trkpt lat="43.50529" lon="0.19794">
        <ele>172.885</ele>
        <time>2016-12-30T15:17:05Z</time>
      </trkpt>
      <trkpt lat="43.50614" lon="0.19709">
        <ele>170.536</ele>
        <time>2016-12-30T15:17:25Z</time>
      </trkpt>
      <trkpt lat="43.50689" lon="0.1969">
        <ele>170.966</ele>
        <time>2016-12-30T15:17:45Z</time>
      </trkpt>
      <trkpt lat="43.50773" lon="0.19602">
        <ele>170.229</ele>
        <time>2016-12-30T15:18:05Z</time>
      </trkpt>
      <trkpt lat="43.50938" lon="0.19257">
        <ele>171.621</ele>
        <time>2016-12-30T15:18:25Z</time>
      </trkpt>
      <trkpt lat="43.50999" lon="0.19183">
        <ele>169.508</ele>
        <time>2016-12-30T15:18:45Z</time>
      </trkpt>
      <trkpt lat="43.51055" lon="0.19085">
        <ele>168.093</ele>
        <time>2016-12-30T15:19:05Z</time>
      </trkpt>
      <trkpt lat="43.51077" lon="0.19019">
        <ele>167.946</ele>
        <time>2016-12-30T15:19:25Z</time>
      </trkpt>
      <trkpt lat="43.5113" lon="0.18886">
        <ele>165.082</ele>
        <time>2016-12-30T15:19:45Z</time>
      </trkpt>
      <trkpt lat="43.51225" lon="0.18576">
        <ele>169.091</ele>
        <time>2016-12-30T15:20:05Z</time>
      </trkpt>
      <trkpt lat="43.51117" lon="0.18528">
        <ele>184.558</ele>
        <time>2021-04-18T00:35:10Z</time>
      </trkpt>
      <trkpt lat="43.51047" lon="0.18462">
        <ele>190.079</ele>
        <time>2021-04-18T00:35:30Z</time>
      </trkpt>
      <trkpt lat="43.51269" lon="0.17995">
        <ele>188.658</ele>
        <time>2021-04-18T00:35:50Z</time>
      </trkpt>
      <trkpt lat="43.51207" lon="0.17942">
        <ele>178.849</ele>
        <time>2016-12-30T15:21:45Z</time>
      </trkpt>
      <trkpt lat="43.51292" lon="0.17771">
        <ele>175.767</ele>
        <time>2016-12-30T15:22:05Z</time>
      </trkpt>
      <trkpt lat="43.51326" lon="0.17654">
        <ele>164.181</ele>
        <time>2016-12-30T15:22:25Z</time>
      </trkpt>
      <trkpt lat="43.51375" lon="0.1766">
        <ele>168.119</ele>
        <time>2021-04-18T00:37:10Z</time>
      </trkpt>
      <trkpt lat="43.51576" lon="0.16955">
        <ele>180.608</ele>
        <time>2016-12-30T15:23:05Z</time>
      </trkpt>
      <trkpt lat="43.51641" lon="0.16863">
        <ele>171.913</ele>
        <time>2016-12-30T15:23:25Z</time>
      </trkpt>
      <trkpt lat="43.51828" lon="0.16739">
        <ele>160.646</ele>
        <time>2016-12-30T15:23:45Z</time>
      </trkpt>
      <trkpt lat="43.52025" lon="0.16367">
        <ele>159.012</ele>
        <time>2016-12-30T15:24:05Z</time>
      </trkpt>
      <trkpt lat="43.52233" lon="0.16271">
        <ele>155.081</ele>
        <time>2016-12-30T15:24:25Z</time>
      </trkpt>
      <trkpt lat="43.52082" lon="0.1573">
        <ele>163.888</ele>
        <time>2016-12-30T15:24:45Z</time>
      </trkpt>
      <trkpt lat="43.5179" lon="0.15401">
        <ele>199.419</ele>
        <time>2016-12-30T15:25:05Z</time>
      </trkpt>
      <trkpt lat="43.51681" lon="0.15415">
        <ele>202.748</ele>
        <time>2021-04-18T00:39:50Z</time>
      </trkpt>
      <trkpt lat="43.51573" lon="0.15468">
        <ele>201.199</ele>
        <time>2021-04-18T00:40:10Z</time>
      </trkpt>
      <trkpt lat="43.51548" lon="0.15388">
        <ele>194.684</ele>
        <time>2021-04-18T00:40:30Z</time>
      </trkpt>
      <trkpt lat="43.51576" lon="0.15302">
        <ele>177.107</ele>
        <time>2021-04-18T00:40:50Z</time>
      </trkpt>
      <trkpt lat="43.51558" lon="0.15246">
        <ele>158.917</ele>
        <time>2016-12-30T15:26:25Z</time>
      </trkpt>
      <trkpt lat="43.51494" lon="0.15148">
        <ele>157.108</ele>
        <time>2016-12-30T15:26:45Z</time>
      </trkpt>
      <trkpt lat="43.51403" lon="0.14846">
        <ele>159.035</ele>
        <time>2016-12-30T15:27:05Z</time>
      </trkpt>
      <trkpt lat="43.51174" lon="0.14938">
        <ele>160.738</ele>
        <time>2016-12-30T15:27:25Z</time>
      </trkpt>
      <trkpt lat="43.51141" lon="0.14967">
        <ele>161.034</ele>
        <time>2016-12-30T15:27:45Z</time>
      </trkpt>
      <trkpt lat="43.51035" lon="0.15025">
        <ele>161.853</ele>
        <time>2016-12-30T15:28:05Z</time>
      </trkpt>
      <trkpt lat="43.50951" lon="0.14903">
        <ele>166.36</ele>
        <time>2021-04-18T00:43:10Z</time>
      </trkpt>
      <trkpt lat="43.50877" lon="0.1496">
        <ele>165.461</ele>
        <time>2016-12-30T15:28:45Z</time>
      </trkpt>
      <trkpt lat="43.50805" lon="0.14972">
        <ele>167.03</ele>
        <time>2016-12-30T15:29:05Z</time>
      </trkpt>
      <trkpt lat="43.50735" lon="0.15028">
        <ele>168.011</ele>
        <time>2016-12-30T15:29:25Z</time>
      </trkpt>
      <trkpt lat="43.50709" lon="0.15072">
        <ele>167.927</ele>
        <time>2016-12-30T15:29:45Z</time>
      </trkpt>
      <trkpt lat="43.50707" lon="0.15071">
        <ele>168.068</ele>
        <time>2016-12-30T15:30:05Z</time>
      </trkpt>
      <trkpt lat="43.50636" lon="0.15108">
        <ele>169.214</ele>
        <time>2016-12-30T15:30:25Z</time>
      </trkpt>
      <trkpt lat="43.50599" lon="0.15019">
        <ele>172.808</ele>
        <time>2021-04-18T00:45:30Z</time>
      </trkpt>
      <trkpt lat="43.5052" lon="0.14962">
        <ele>175.479</ele>
        <time>2016-12-30T15:31:05Z</time>
      </trkpt>
      <trkpt lat="43.50481" lon="0.14918">
        <ele>178.662</ele>
        <time>2016-12-30T15:31:25Z</time>
      </trkpt>
      <trkpt lat="43.50444" lon="0.14846">
        <ele>182.698</ele>
        <time>2016-12-30T15:31:45Z</time>
      </trkpt>
      <trkpt lat="43.5035" lon="0.1475">
        <ele>187.417</ele>
        <time>2016-12-30T15:32:05Z</time>
      </trkpt>
      <trkpt lat="43.50269" lon="0.14648">
        <ele>198.184</ele>
        <time>2016-12-30T15:32:25Z</time>
      </trkpt>
      <trkpt lat="43.50109" lon="0.14476">
        <ele>219.475</ele>
        <time>2016-12-30T15:32:45Z</time>
      </trkpt>
      <trkpt lat="43.49867" lon="0.14313">
        <ele>218.614</ele>
        <time>2016-12-30T15:33:05Z</time>
      </trkpt>
      <trkpt lat="43.49853" lon="0.14259">
        <ele>209.645</ele>
        <time>2021-04-18T00:48:10Z</time>
      </trkpt>
      <trkpt lat="43.4987" lon="0.14225">
        <ele>199.928</ele>
        <time>2016-12-30T15:33:45Z</time>
      </trkpt>
      <trkpt lat="43.49928" lon="0.14197">
        <ele>195.889</ele>
        <time>2016-12-30T15:34:05Z</time>
      </trkpt>
      <trkpt lat="43.49952" lon="0.14079">
        <ele>184.317</ele>
        <time>2016-12-30T15:34:25Z</time>
      </trkpt>
      <trkpt lat="43.49974" lon="0.14036">
        <ele>183.508</ele>
        <time>2016-12-30T15:34:45Z</time>
      </trkpt>
      <trkpt lat="43.49974" lon="0.13967">
        <ele>173.779</ele>
        <time>2016-12-30T15:35:05Z</time>
      </trkpt>
      <trkpt lat="43.49894" lon="0.13927">
        <ele>160.822</ele>
        <time>2016-12-30T15:35:25Z</time>
      </trkpt>
      <trkpt lat="43.49825" lon="0.13992">
        <ele>155.278</ele>
        <time>2016-12-30T15:35:45Z</time>
      </trkpt>
      <trkpt lat="43.49806" lon="0.13987">
        <ele>154.097</ele>
        <time>2016-12-30T15:36:05Z</time>
      </trkpt>
      <trkpt lat="43.49767" lon="0.13864">
        <ele>152.684</ele>
        <time>2016-12-30T15:36:25Z</time>
      </trkpt>
      <trkpt lat="43.49728" lon="0.13791">
        <ele>151.185</ele>
        <time>2016-12-30T15:36:45Z</time>
      </trkpt>
      <trkpt lat="43.4969" lon="0.13773">
        <ele>151.064</ele>
        <time>2016-12-30T15:37:05Z</time>
      </trkpt>
      <trkpt lat="43.49673" lon="0.13727">
        <ele>150.245</ele>
        <time>2016-12-30T15:37:25Z</time>
      </trkpt>
      <trkpt lat="43.49675" lon="0.13678">
        <ele>150.085</ele>
        <time>2016-12-30T15:37:45Z</time>
      </trkpt>
      <trkpt lat="43.49655" lon="0.13623">
        <ele>149.489</ele>
        <time>2016-12-30T15:38:05Z</time>
      </trkpt>
      <trkpt lat="43.49613" lon="0.13595">
        <ele>149.417</ele>
        <time>2016-12-30T15:38:25Z</time>
      </trkpt>
      <trkpt lat="43.49589" lon="0.13549">
        <ele>149.108</ele>
        <time>2016-12-30T15:38:45Z</time>
      </trkpt>
      <trkpt lat="43.49609" lon="0.13528">
        <ele>149.975</ele>
        <time>2016-12-30T15:39:05Z</time>
      </trkpt>
      <trkpt lat="43.49571" lon="0.13446">
        <ele>149.578</ele>
        <time>2016-12-30T15:39:25Z</time>
      </trkpt>
      <trkpt lat="43.49532" lon="0.13382">
        <ele>150.084</ele>
        <time>2016-12-30T15:39:45Z</time>
      </trkpt>
      <trkpt lat="43.4946" lon="0.134">
        <ele>150.083</ele>
        <time>2016-12-30T15:40:05Z</time>
      </trkpt>
      <trkpt lat="43.49423" lon="0.13272">
        <ele>150.04</ele>
        <time>2016-12-30T15:40:25Z</time>
      </trkpt>
      <trkpt lat="43.50116" lon="0.12889">
        <ele>149.051</ele>
        <time>2016-12-30T15:40:45Z</time>
      </trkpt>
      <trkpt lat="43.49875" lon="0.12665">
        <ele>150.05</ele>
        <time>2016-12-30T15:41:05Z</time>
      </trkpt>
      <trkpt lat="43.49816" lon="0.12637">
        <ele>150.051</ele>
        <time>2016-12-30T15:41:25Z</time>
      </trkpt>
      <trkpt lat="43.49746" lon="0.12501">
        <ele>150.092</ele>
        <time>2016-12-30T15:41:45Z</time>
      </trkpt>
      <trkpt lat="43.49669" lon="0.12294">
        <ele>150.073</ele>
        <time>2016-12-30T15:42:05Z</time>
      </trkpt>
      <trkpt lat="43.49675" lon="0.12153">
        <ele>150.02</ele>
        <time>2016-12-30T15:42:25Z</time>
      </trkpt>
      <trkpt lat="43.49598" lon="0.11848">
        <ele>151.508</ele>
        <time>2016-12-30T15:42:45Z</time>
      </trkpt>
      <trkpt lat="43.49528" lon="0.11751">
        <ele>152.016</ele>
        <time>2016-12-30T15:43:05Z</time>
      </trkpt>
      <trkpt lat="43.49486" lon="0.11712">
        <ele>152.759</ele>
        <time>2016-12-30T15:43:25Z</time>
      </trkpt>
      <trkpt lat="43.49437" lon="0.11631">
        <ele>154.325</ele>
        <time>2016-12-30T15:43:45Z</time>
      </trkpt>
      <trkpt lat="43.49363" lon="0.11461">
        <ele>156.444</ele>
        <time>2016-12-30T15:44:05Z</time>
      </trkpt>
      <trkpt lat="43.4929" lon="0.11258">
        <ele>158.731</ele>
        <time>2016-12-30T15:44:25Z</time>
      </trkpt>
      <trkpt lat="43.49233" lon="0.11264">
        <ele>158.892</ele>
        <time>2016-12-30T15:44:45Z</time>
      </trkpt>
      <trkpt lat="43.49257" lon="0.11068">
        <ele>162.651</ele>
        <time>2016-12-30T15:45:05Z</time>
      </trkpt>
      <trkpt lat="43.49277" lon="0.1099">
        <ele>163.012</ele>
        <time>2016-12-30T15:45:25Z</time>
      </trkpt>
      <trkpt lat="43.49286" lon="0.10703">
        <ele>166.285</ele>
        <time>2016-12-30T15:45:45Z</time>
      </trkpt>
      <trkpt lat="43.49364" lon="0.10717">
        <ele>164.089</ele>
        <time>2016-12-30T15:46:05Z</time>
      </trkpt>
      <trkpt lat="43.49448" lon="0.10657">
        <ele>164.417</ele>
        <time>2016-12-30T15:46:25Z</time>
      </trkpt>
      <trkpt lat="43.49522" lon="0.10625">
        <ele>166.508</ele>
        <time>2016-12-30T15:46:45Z</time>
      </trkpt>
      <trkpt lat="43.49574" lon="0.10586">
        <ele>167.925</ele>
        <time>2016-12-30T15:47:05Z</time>
      </trkpt>
      <trkpt lat="43.49548" lon="0.10512">
        <ele>169.668</ele>
        <time>2016-12-30T15:47:25Z</time>
      </trkpt>
      <trkpt lat="43.49507" lon="0.10306">
        <ele>179.554</ele>
        <time>2016-12-30T15:47:45Z</time>
      </trkpt>
      <trkpt lat="43.49507" lon="0.10189">
        <ele>185.883</ele>
        <time>2016-12-30T15:48:05Z</time>
      </trkpt>
      <trkpt lat="43.4957" lon="0.10172">
        <ele>191.01</ele>
        <time>2016-12-30T15:48:25Z</time>
      </trkpt>
      <trkpt lat="43.49586" lon="0.10133">
        <ele>195.881</ele>
        <time>2016-12-30T15:48:45Z</time>
      </trkpt>
      <trkpt lat="43.49595" lon="0.10004">
        <ele>207.87</ele>
        <time>2016-12-30T15:49:05Z</time>
      </trkpt>
      <trkpt lat="43.49665" lon="0.09854">
        <ele>224.731</ele>
        <time>2016-12-30T15:49:25Z</time>
      </trkpt>
      <trkpt lat="43.49775" lon="0.09504">
        <ele>224.582</ele>
        <time>2016-12-30T15:49:45Z</time>
      </trkpt>
      <trkpt lat="43.4977" lon="0.09375">
        <ele>235.643</ele>
        <time>2016-12-30T15:50:05Z</time>
      </trkpt>
      <trkpt lat="43.49732" lon="0.09316">
        <ele>239.817</ele>
        <time>2016-12-30T15:50:25Z</time>
      </trkpt>
      <trkpt lat="43.49695" lon="0.09309">
        <ele>240.008</ele>
        <time>2016-12-30T15:50:45Z</time>
      </trkpt>
      <trkpt lat="43.49676" lon="0.09162">
        <ele>236.385</ele>
        <time>2016-12-30T15:51:05Z</time>
      </trkpt>
      <trkpt lat="43.49416" lon="0.09054">
        <ele>241.158</ele>
        <time>2016-12-30T15:51:25Z</time>
      </trkpt>
      <trkpt lat="43.49405" lon="0.08943">
        <ele>252.464</ele>
        <time>2016-12-30T15:51:45Z</time>
      </trkpt>
      <trkpt lat="43.49423" lon="0.08884">
        <ele>254.273</ele>
        <time>2016-12-30T15:52:05Z</time>
      </trkpt>
      <trkpt lat="43.49422" lon="0.08851">
        <ele>254.22</ele>
        <time>2016-12-30T15:52:25Z</time>
      </trkpt>
      <trkpt lat="43.49446" lon="0.08815">
        <ele>255.351</ele>
        <time>2021-04-18T01:07:30Z</time>
      </trkpt>
      <trkpt lat="43.49533" lon="0.08786">
        <ele>257.17</ele>
        <time>2021-04-18T01:07:50Z</time>
      </trkpt>
      <trkpt lat="43.497" lon="0.08657">
        <ele>258.881</ele>
        <time>2021-04-18T01:08:10Z</time>
      </trkpt>
      <trkpt lat="43.49725" lon="0.08616">
        <ele>251.764</ele>
        <time>2016-12-30T15:54:05Z</time>
      </trkpt>
      <trkpt lat="43.49753" lon="0.08535">
        <ele>250.006</ele>
        <time>2016-12-30T15:54:25Z</time>
      </trkpt>
      <trkpt lat="43.49793" lon="0.08487">
        <ele>248.216</ele>
        <time>2016-12-30T15:54:45Z</time>
      </trkpt>
      <trkpt lat="43.49875" lon="0.08424">
        <ele>249.608</ele>
        <time>2016-12-30T15:55:05Z</time>
      </trkpt>
      <trkpt lat="43.499" lon="0.08417">
        <ele>249.683</ele>
        <time>2016-12-30T15:55:25Z</time>
      </trkpt>
      <trkpt lat="43.49913" lon="0.08391">
        <ele>249.146</ele>
        <time>2016-12-30T15:55:45Z</time>
      </trkpt>
      <trkpt lat="43.49919" lon="0.0828">
        <ele>243.512</ele>
        <time>2016-12-30T15:56:05Z</time>
      </trkpt>
      <trkpt lat="43.49939" lon="0.08191">
        <ele>234.461</ele>
        <time>2016-12-30T15:56:25Z</time>
      </trkpt>
      <trkpt lat="43.49946" lon="0.08122">
        <ele>228.258</ele>
        <time>2016-12-30T15:56:45Z</time>
      </trkpt>
      <trkpt lat="43.50013" lon="0.08052">
        <ele>221.649</ele>
        <time>2016-12-30T15:57:05Z</time>
      </trkpt>
      <trkpt lat="43.50078" lon="0.07938">
        <ele>208.778</ele>
        <time>2016-12-30T15:57:25Z</time>
      </trkpt>
      <trkpt lat="43.50098" lon="0.07812">
        <ele>195.549</ele>
        <time>2016-12-30T15:57:45Z</time>
      </trkpt>
      <trkpt lat="43.50145" lon="0.07765">
        <ele>188.755</ele>
        <time>2016-12-30T15:58:05Z</time>
      </trkpt>
      <trkpt lat="43.50127" lon="0.07689">
        <ele>184.307</ele>
        <time>2016-12-30T15:58:25Z</time>
      </trkpt>
      <trkpt lat="43.50124" lon="0.07634">
        <ele>182.817</ele>
        <time>2016-12-30T15:58:45Z</time>
      </trkpt>
      <trkpt lat="43.5008" lon="0.07613">
        <ele>180.808</ele>
        <time>2016-12-30T15:59:05Z</time>
      </trkpt>
      <trkpt lat="43.50054" lon="0.07529">
        <ele>178.062</ele>
        <time>2016-12-30T15:59:25Z</time>
      </trkpt>
      <trkpt lat="43.50093" lon="0.0746">
        <ele>177.555</ele>
        <time>2016-12-30T15:59:45Z</time>
      </trkpt>
      <trkpt lat="43.50062" lon="0.07423">
        <ele>176.151</ele>
        <time>2016-12-30T16:00:05Z</time>
      </trkpt>
      <trkpt lat="43.5028" lon="0.07194">
        <ele>173.067</ele>
        <time>2016-12-30T16:00:45Z</time>
      </trkpt>
      <trkpt lat="43.50378" lon="0.07147">
        <ele>173.048</ele>
        <time>2016-12-30T16:01:05Z</time>
      </trkpt>
      <trkpt lat="43.5042" lon="0.07111">
        <ele>173.087</ele>
        <time>2016-12-30T16:01:25Z</time>
      </trkpt>
      <trkpt lat="43.50463" lon="0.07089">
        <ele>173.038</ele>
        <time>2016-12-30T16:01:45Z</time>
      </trkpt>
      <trkpt lat="43.50348" lon="0.06754">
        <ele>172.881</ele>
        <time>2021-04-18T01:16:30Z</time>
      </trkpt>
      <trkpt lat="43.50314" lon="0.06711">
        <ele>169.061</ele>
        <time>2016-12-30T16:02:25Z</time>
      </trkpt>
      <trkpt lat="43.50301" lon="0.06666">
        <ele>169.217</ele>
        <time>2016-12-30T16:02:45Z</time>
      </trkpt>
      <trkpt lat="43.50375" lon="0.06396">
        <ele>168.008</ele>
        <time>2016-12-30T16:03:05Z</time>
      </trkpt>
      <trkpt lat="43.50376" lon="0.06124">
        <ele>167.075</ele>
        <time>2016-12-30T16:03:25Z</time>
      </trkpt>
      <trkpt lat="43.50364" lon="0.05986">
        <ele>166.028</ele>
        <time>2016-12-30T16:03:45Z</time>
      </trkpt>
      <trkpt lat="43.50291" lon="0.05879">
        <ele>166.344</ele>
        <time>2016-12-30T16:04:05Z</time>
      </trkpt>
      <trkpt lat="43.50259" lon="0.05887">
        <ele>166.953</ele>
        <time>2016-12-30T16:04:25Z</time>
      </trkpt>
      <trkpt lat="43.50175" lon="0.05802">
        <ele>166.02</ele>
        <time>2016-12-30T16:04:45Z</time>
      </trkpt>
      <trkpt lat="43.50101" lon="0.05797">
        <ele>166.031</ele>
        <time>2016-12-30T16:05:05Z</time>
      </trkpt>
      <trkpt lat="43.49987" lon="0.0566">
        <ele>168.48</ele>
        <time>2016-12-30T16:05:25Z</time>
      </trkpt>
      <trkpt lat="43.49933" lon="0.05649">
        <ele>170.031</ele>
        <time>2016-12-30T16:05:45Z</time>
      </trkpt>
      <trkpt lat="43.49864" lon="0.05649">
        <ele>170.053</ele>
        <time>2016-12-30T16:06:05Z</time>
      </trkpt>
      <trkpt lat="43.49816" lon="0.0559">
        <ele>170.004</ele>
        <time>2016-12-30T16:06:25Z</time>
      </trkpt>
      <trkpt lat="43.4971" lon="0.05515">
        <ele>170.014</ele>
        <time>2016-12-30T16:06:45Z</time>
      </trkpt>
      <trkpt lat="43.49513" lon="0.05492">
        <ele>170.008</ele>
        <time>2016-12-30T16:07:05Z</time>
      </trkpt>
      <trkpt lat="43.49402" lon="0.05448">
        <ele>170.072</ele>
        <time>2016-12-30T16:07:25Z</time>
      </trkpt>
      <trkpt lat="43.49314" lon="0.05404">
        <ele>170.075</ele>
        <time>2016-12-30T16:07:45Z</time>
      </trkpt>
      <trkpt lat="43.49215" lon="0.05419">
        <ele>170.041</ele>
        <time>2016-12-30T16:08:05Z</time>
      </trkpt>
      <trkpt lat="43.49155" lon="0.05413">
        <ele>170.06</ele>
        <time>2016-12-30T16:08:25Z</time>
      </trkpt>
      <trkpt lat="43.49128" lon="0.05352">
        <ele>170.097</ele>
        <time>2016-12-30T16:08:45Z</time>
      </trkpt>
      <trkpt lat="43.49121" lon="0.05271">
        <ele>170.098</ele>
        <time>2016-12-30T16:09:05Z</time>
      </trkpt>
      <trkpt lat="43.491" lon="0.05231">
        <ele>170.037</ele>
        <time>2016-12-30T16:09:25Z</time>
      </trkpt>
      <trkpt lat="43.48936" lon="0.05043">
        <ele>170.078</ele>
        <time>2016-12-30T16:09:45Z</time>
      </trkpt>
      <trkpt lat="43.48812" lon="0.05012">
        <ele>170.034</ele>
        <time>2016-12-30T16:10:05Z</time>
      </trkpt>
      <trkpt lat="43.48569" lon="0.04875">
        <ele>171.055</ele>
        <time>2016-12-30T16:10:25Z</time>
      </trkpt>
      <trkpt lat="43.48483" lon="0.04819">
        <ele>171.01</ele>
        <time>2016-12-30T16:10:45Z</time>
      </trkpt>
      <trkpt lat="43.48349" lon="0.04787">
        <ele>171.008</ele>
        <time>2016-12-30T16:11:05Z</time>
      </trkpt>
      <trkpt lat="43.48294" lon="0.04748">
        <ele>171.09</ele>
        <time>2016-12-30T16:11:25Z</time>
      </trkpt>
      <trkpt lat="43.48266" lon="0.04712">
        <ele>171.053</ele>
        <time>2016-12-30T16:11:45Z</time>
      </trkpt>
      <trkpt lat="43.4815" lon="0.04761">
        <ele>172.089</ele>
        <time>2016-12-30T16:12:05Z</time>
      </trkpt>
      <trkpt lat="43.48111" lon="0.04752">
        <ele>172.058</ele>
        <time>2016-12-30T16:12:25Z</time>
      </trkpt>
      <trkpt lat="43.48066" lon="0.04697">
        <ele>172.035</ele>
        <time>2016-12-30T16:12:45Z</time>
      </trkpt>
      <trkpt lat="43.48015" lon="0.04664">
        <ele>172.016</ele>
        <time>2016-12-30T16:13:05Z</time>
      </trkpt>
      <trkpt lat="43.47941" lon="0.04666">
        <ele>173.095</ele>
        <time>2016-12-30T16:13:25Z</time>
      </trkpt>
      <trkpt lat="43.47852" lon="0.04632">
        <ele>173.096</ele>
        <time>2016-12-30T16:13:45Z</time>
      </trkpt>
      <trkpt lat="43.47607" lon="0.04595">
        <ele>174.024</ele>
        <time>2016-12-30T16:14:05Z</time>
      </trkpt>
      <trkpt lat="43.47475" lon="0.04464">
        <ele>174.004</ele>
        <time>2016-12-30T16:14:25Z</time>
      </trkpt>
      <trkpt lat="43.47411" lon="0.04437">
        <ele>174.214</ele>
        <time>2016-12-30T16:14:45Z</time>
      </trkpt>
      <trkpt lat="43.47359" lon="0.04425">
        <ele>175.008</ele>
        <time>2016-12-30T16:15:05Z</time>
      </trkpt>
      <trkpt lat="43.47333" lon="0.04332">
        <ele>174.019</ele>
        <time>2016-12-30T16:15:25Z</time>
      </trkpt>
      <trkpt lat="43.47308" lon="0.04325">
        <ele>174.912</ele>
        <time>2016-12-30T16:15:45Z</time>
      </trkpt>
      <trkpt lat="43.47292" lon="0.04289">
        <ele>174.758</ele>
        <time>2016-12-30T16:16:05Z</time>
      </trkpt>
      <trkpt lat="43.47282" lon="0.04234">
        <ele>174.027</ele>
        <time>2016-12-30T16:16:25Z</time>
      </trkpt>
      <trkpt lat="43.47256" lon="0.04217">
        <ele>174.694</ele>
        <time>2016-12-30T16:16:45Z</time>
      </trkpt>
      <trkpt lat="43.47119" lon="0.04153">
        <ele>175.025</ele>
        <time>2016-12-30T16:17:05Z</time>
      </trkpt>
      <trkpt lat="43.47111" lon="0.04054">
        <ele>174.174</ele>
        <time>2016-12-30T16:17:25Z</time>
      </trkpt>
      <trkpt lat="43.4704" lon="0.04043">
        <ele>174.275</ele>
        <time>2016-12-30T16:17:45Z</time>
      </trkpt>
      <trkpt lat="43.46994" lon="0.03992">
        <ele>174.261</ele>
        <time>2016-12-30T16:18:05Z</time>
      </trkpt>
      <trkpt lat="43.47" lon="0.03907">
        <ele>174.021</ele>
        <time>2016-12-30T16:18:25Z</time>
      </trkpt>
      <trkpt lat="43.46947" lon="0.03784">
        <ele>178.113</ele>
        <time>2021-04-18T01:33:10Z</time>
      </trkpt>
      <trkpt lat="43.46948" lon="0.03719">
        <ele>174.008</ele>
        <time>2016-12-30T16:19:05Z</time>
      </trkpt>
      <trkpt lat="43.46997" lon="0.03646">
        <ele>173.913</ele>
        <time>2016-12-30T16:19:25Z</time>
      </trkpt>
      <trkpt lat="43.47018" lon="0.03607">
        <ele>178.136</ele>
        <time>2021-04-18T01:34:10Z</time>
      </trkpt>
      <trkpt lat="43.47031" lon="0.0355">
        <ele>178.712</ele>
        <time>2021-04-18T01:34:30Z</time>
      </trkpt>
      <trkpt lat="43.47003" lon="0.03541">
        <ele>179.451</ele>
        <time>2021-04-18T01:34:50Z</time>
      </trkpt>
      <trkpt lat="43.46988" lon="0.03491">
        <ele>179.788</ele>
        <time>2021-04-18T01:35:10Z</time>
      </trkpt>
      <trkpt lat="43.46963" lon="0.03468">
        <ele>179.039</ele>
        <time>2021-04-18T01:35:30Z</time>
      </trkpt>
      <trkpt lat="43.46825" lon="0.0347">
        <ele>181.078</ele>
        <time>2021-04-18T01:35:50Z</time>
      </trkpt>
      <trkpt lat="43.46792" lon="0.02762">
        <ele>175.569</ele>
        <time>2016-12-30T16:21:45Z</time>
      </trkpt>
      <trkpt lat="43.46759" lon="0.02771">
        <ele>176.039</ele>
        <time>2016-12-30T16:22:05Z</time>
      </trkpt>
      <trkpt lat="43.46732" lon="0.02814">
        <ele>176.001</ele>
        <time>2016-12-30T16:22:25Z</time>
      </trkpt>
      <trkpt lat="43.46586" lon="0.02936">
        <ele>175.021</ele>
        <time>2016-12-30T16:22:45Z</time>
      </trkpt>
      <trkpt lat="43.46562" lon="0.02922">
        <ele>175.008</ele>
        <time>2016-12-30T16:23:05Z</time>
      </trkpt>
      <trkpt lat="43.46539" lon="0.02826">
        <ele>175.09</ele>
        <time>2016-12-30T16:23:25Z</time>
      </trkpt>
      <trkpt lat="43.46524" lon="0.02686">
        <ele>176.053</ele>
        <time>2016-12-30T16:23:45Z</time>
      </trkpt>
      <trkpt lat="43.46523" lon="0.025">
        <ele>177.029</ele>
        <time>2016-12-30T16:24:05Z</time>
      </trkpt>
      <trkpt lat="43.46504" lon="0.02365">
        <ele>177.068</ele>
        <time>2016-12-30T16:24:25Z</time>
      </trkpt>
      <trkpt lat="43.46443" lon="0.02165">
        <ele>178.015</ele>
        <time>2016-12-30T16:24:45Z</time>
      </trkpt>
      <trkpt lat="43.46428" lon="0.02034">
        <ele>178.056</ele>
        <time>2016-12-30T16:25:05Z</time>
      </trkpt>
      <trkpt lat="43.46379" lon="0.01863">
        <ele>178.075</ele>
        <time>2016-12-30T16:25:25Z</time>
      </trkpt>
      <trkpt lat="43.46348" lon="0.01649">
        <ele>177.716</ele>
        <time>2016-12-30T16:25:45Z</time>
      </trkpt>
      <trkpt lat="43.46293" lon="0.01387">
        <ele>178.085</ele>
        <time>2016-12-30T16:26:05Z</time>
      </trkpt>
      <trkpt lat="43.46288" lon="0.01313">
        <ele>178.589</ele>
        <time>2016-12-30T16:26:25Z</time>
      </trkpt>
      <trkpt lat="43.46242" lon="0.01211">
        <ele>179.017</ele>
        <time>2016-12-30T16:26:45Z</time>
      </trkpt>
      <trkpt lat="43.46231" lon="0.00975">
        <ele>179.908</ele>
        <time>2016-12-30T16:27:05Z</time>
      </trkpt>
      <trkpt lat="43.46213" lon="0.00879">
        <ele>180.115</ele>
        <time>2016-12-30T16:27:25Z</time>
      </trkpt>
      <trkpt lat="43.46246" lon="0.00826">
        <ele>180.498</ele>
        <time>2016-12-30T16:27:45Z</time>
      </trkpt>
      <trkpt lat="43.46193" lon="0.00603">
        <ele>194.774</ele>
        <time>2016-12-30T16:28:05Z</time>
      </trkpt>
      <trkpt lat="43.4614" lon="0.00241">
        <ele>223.723</ele>
        <time>2016-12-30T16:28:25Z</time>
      </trkpt>
      <trkpt lat="43.46119" lon="-0.00029">
        <ele>222.89</ele>
        <time>2016-12-30T16:28:45Z</time>
      </trkpt>
      <trkpt lat="43.46113" lon="-0.00227">
        <ele>239.211</ele>
        <time>2016-12-30T16:29:05Z</time>
      </trkpt>
      <trkpt lat="43.4608" lon="-0.00388">
        <ele>257.42</ele>
        <time>2016-12-30T16:29:25Z</time>
      </trkpt>
      <trkpt lat="43.46074" lon="-0.00451">
        <ele>263.811</ele>
        <time>2016-12-30T16:29:45Z</time>
      </trkpt>
      <trkpt lat="43.46044" lon="-0.00565">
        <ele>282.942</ele>
        <time>2016-12-30T16:30:05Z</time>
      </trkpt>
      <trkpt lat="43.45966" lon="-0.00819">
        <ele>287.322</ele>
        <time>2016-12-30T16:30:25Z</time>
      </trkpt>
      <trkpt lat="43.45922" lon="-0.00906">
        <ele>289.714</ele>
        <time>2016-12-30T16:30:45Z</time>
      </trkpt>
      <trkpt lat="43.45832" lon="-0.01187">
        <ele>282.608</ele>
        <time>2016-12-30T16:31:05Z</time>
      </trkpt>
      <trkpt lat="43.45807" lon="-0.01339">
        <ele>270.871</ele>
        <time>2016-12-30T16:31:25Z</time>
      </trkpt>
      <trkpt lat="43.45771" lon="-0.01408">
        <ele>270.534</ele>
        <time>2016-12-30T16:31:45Z</time>
      </trkpt>
      <trkpt lat="43.4579" lon="-0.01412">
        <ele>277.57</ele>
        <time>2021-04-18T01:46:30Z</time>
      </trkpt>
      <trkpt lat="43.45756" lon="-0.01675">
        <ele>290.269</ele>
        <time>2021-04-18T01:46:50Z</time>
      </trkpt>
      <trkpt lat="43.45699" lon="-0.01718">
        <ele>292.166</ele>
        <time>2021-04-18T01:47:10Z</time>
      </trkpt>
      <trkpt lat="43.45758" lon="-0.01843">
        <ele>290.047</ele>
        <time>2016-12-30T16:33:05Z</time>
      </trkpt>
      <trkpt lat="43.45762" lon="-0.01886">
        <ele>289.676</ele>
        <time>2016-12-30T16:33:25Z</time>
      </trkpt>
      <trkpt lat="43.45777" lon="-0.01894">
        <ele>288.427</ele>
        <time>2016-12-30T16:33:45Z</time>
      </trkpt>
      <trkpt lat="43.458" lon="-0.01937">
        <ele>279.087</ele>
        <time>2016-12-30T16:34:05Z</time>
      </trkpt>
      <trkpt lat="43.45839" lon="-0.01948">
        <ele>271.542</ele>
        <time>2016-12-30T16:34:25Z</time>
      </trkpt>
      <trkpt lat="43.45878" lon="-0.01937">
        <ele>269.226</ele>
        <time>2016-12-30T16:34:45Z</time>
      </trkpt>
      <trkpt lat="43.45832" lon="-0.02039">
        <ele>259.208</ele>
        <time>2016-12-30T16:35:05Z</time>
      </trkpt>
      <trkpt lat="43.45818" lon="-0.0213">
        <ele>257.045</ele>
        <time>2016-12-30T16:35:25Z</time>
      </trkpt>
      <trkpt lat="43.45832" lon="-0.02196">
        <ele>246.158</ele>
        <time>2016-12-30T16:35:45Z</time>
      </trkpt>
      <trkpt lat="43.45819" lon="-0.02238">
        <ele>242.884</ele>
        <time>2016-12-30T16:36:25Z</time>
      </trkpt>
      <trkpt lat="43.45691" lon="-0.02393">
        <ele>233.553</ele>
        <time>2016-12-30T16:36:45Z</time>
      </trkpt>
      <trkpt lat="43.45641" lon="-0.024">
        <ele>230.71</ele>
        <time>2016-12-30T16:37:05Z</time>
      </trkpt>
      <trkpt lat="43.45593" lon="-0.02479">
        <ele>214.911</ele>
        <time>2016-12-30T16:37:25Z</time>
      </trkpt>
      <trkpt lat="43.45614" lon="-0.02503">
        <ele>211.57</ele>
        <time>2016-12-30T16:37:45Z</time>
      </trkpt>
      <trkpt lat="43.45556" lon="-0.02615">
        <ele>201.621</ele>
        <time>2016-12-30T16:38:45Z</time>
      </trkpt>
      <trkpt lat="43.45487" lon="-0.02652">
        <ele>196.489</ele>
        <time>2021-04-18T01:52:30Z</time>
      </trkpt>
      <trkpt lat="43.45488" lon="-0.02785">
        <ele>185.306</ele>
        <time>2016-12-30T16:39:25Z</time>
      </trkpt>
      <trkpt lat="43.45464" lon="-0.02895">
        <ele>185.026</ele>
        <time>2016-12-30T16:39:45Z</time>
      </trkpt>
      <trkpt lat="43.45444" lon="-0.02933">
        <ele>187.908</ele>
        <time>2021-04-18T01:53:30Z</time>
      </trkpt>
      <trkpt lat="43.45409" lon="-0.0294">
        <ele>188.665</ele>
        <time>2021-04-18T01:53:50Z</time>
      </trkpt>
      <trkpt lat="43.45397" lon="-0.03001">
        <ele>185.098</ele>
        <time>2016-12-30T16:40:45Z</time>
      </trkpt>
      <trkpt lat="43.45404" lon="-0.03124">
        <ele>187.094</ele>
        <time>2016-12-30T16:41:05Z</time>
      </trkpt>
      <trkpt lat="43.45364" lon="-0.03205">
        <ele>189.413</ele>
        <time>2016-12-30T16:41:25Z</time>
      </trkpt>
      <trkpt lat="43.45289" lon="-0.03513">
        <ele>193.05</ele>
        <time>2016-12-30T16:41:45Z</time>
      </trkpt>
      <trkpt lat="43.45344" lon="-0.03779">
        <ele>197.041</ele>
        <time>2016-12-30T16:42:05Z</time>
      </trkpt>
      <trkpt lat="43.4533" lon="-0.03877">
        <ele>198.11</ele>
        <time>2016-12-30T16:42:25Z</time>
      </trkpt>
      <trkpt lat="43.45298" lon="-0.03989">
        <ele>200.691</ele>
        <time>2016-12-30T16:42:45Z</time>
      </trkpt>
      <trkpt lat="43.45195" lon="-0.04247">
        <ele>205.965</ele>
        <time>2016-12-30T16:43:05Z</time>
      </trkpt>
      <trkpt lat="43.45178" lon="-0.04337">
        <ele>207.168</ele>
        <time>2016-12-30T16:43:25Z</time>
      </trkpt>
      <trkpt lat="43.45005" lon="-0.04505">
        <ele>210.014</ele>
        <time>2016-12-30T16:43:45Z</time>
      </trkpt>
      <trkpt lat="43.44952" lon="-0.04523">
        <ele>209.808</ele>
        <time>2016-12-30T16:44:05Z</time>
      </trkpt>
      <trkpt lat="43.44888" lon="-0.04795">
        <ele>213.643</ele>
        <time>2016-12-30T16:44:25Z</time>
      </trkpt>
      <trkpt lat="43.44855" lon="-0.04786">
        <ele>212.226</ele>
        <time>2016-12-30T16:44:45Z</time>
      </trkpt>
      <trkpt lat="43.4479" lon="-0.04799">
        <ele>211.912</ele>
        <time>2016-12-30T16:45:05Z</time>
      </trkpt>
      <trkpt lat="43.44757" lon="-0.04821">
        <ele>211.671</ele>
        <time>2016-12-30T16:45:25Z</time>
      </trkpt>
      <trkpt lat="43.4473" lon="-0.0481">
        <ele>212.528</ele>
        <time>2016-12-30T16:45:45Z</time>
      </trkpt>
      <trkpt lat="43.44674" lon="-0.0473">
        <ele>213.719</ele>
        <time>2016-12-30T16:46:05Z</time>
      </trkpt>
      <trkpt lat="43.44651" lon="-0.04641">
        <ele>214.378</ele>
        <time>2016-12-30T16:46:25Z</time>
      </trkpt>
      <trkpt lat="43.44604" lon="-0.04617">
        <ele>217.989</ele>
        <time>2016-12-30T16:46:45Z</time>
      </trkpt>
      <trkpt lat="43.44573" lon="-0.04671">
        <ele>223.739</ele>
        <time>2016-12-30T16:47:05Z</time>
      </trkpt>
      <trkpt lat="43.44537" lon="-0.04811">
        <ele>235.201</ele>
        <time>2016-12-30T16:47:25Z</time>
      </trkpt>
      <trkpt lat="43.44393" lon="-0.04925">
        <ele>249.421</ele>
        <time>2016-12-30T16:47:45Z</time>
      </trkpt>
      <trkpt lat="43.44349" lon="-0.04935">
        <ele>252.108</ele>
        <time>2016-12-30T16:48:05Z</time>
      </trkpt>
      <trkpt lat="43.44214" lon="-0.04825">
        <ele>241.63</ele>
        <time>2016-12-30T16:48:25Z</time>
      </trkpt>
      <trkpt lat="43.44144" lon="-0.04826">
        <ele>241.323</ele>
        <time>2016-12-30T16:48:45Z</time>
      </trkpt>
      <trkpt lat="43.4408" lon="-0.04792">
        <ele>243.699</ele>
        <time>2016-12-30T16:49:05Z</time>
      </trkpt>
      <trkpt lat="43.44025" lon="-0.04786">
        <ele>244.818</ele>
        <time>2016-12-30T16:49:25Z</time>
      </trkpt>
      <trkpt lat="43.43856" lon="-0.04798">
        <ele>235.935</ele>
        <time>2016-12-30T16:49:45Z</time>
      </trkpt>
      <trkpt lat="43.43813" lon="-0.04715">
        <ele>236.326</ele>
        <time>2016-12-30T16:50:05Z</time>
      </trkpt>
      <trkpt lat="43.43771" lon="-0.04696">
        <ele>237.255</ele>
        <time>2016-12-30T16:50:25Z</time>
      </trkpt>
      <trkpt lat="43.43703" lon="-0.04663">
        <ele>232.046</ele>
        <time>2016-12-30T16:50:45Z</time>
      </trkpt>
      <trkpt lat="43.43656" lon="-0.04573">
        <ele>226.893</ele>
        <time>2016-12-30T16:51:05Z</time>
      </trkpt>
      <trkpt lat="43.43531" lon="-0.04427">
        <ele>222.065</ele>
        <time>2016-12-30T16:51:25Z</time>
      </trkpt>
      <trkpt lat="43.43462" lon="-0.04375">
        <ele>221.521</ele>
        <time>2016-12-30T16:51:45Z</time>
      </trkpt>
      <trkpt lat="43.43404" lon="-0.04353">
        <ele>220.708</ele>
        <time>2016-12-30T16:52:05Z</time>
      </trkpt>
      <trkpt lat="43.43331" lon="-0.04332">
        <ele>220.016</ele>
        <time>2016-12-30T16:52:25Z</time>
      </trkpt>
      <trkpt lat="43.43243" lon="-0.04333">
        <ele>221.049</ele>
        <time>2016-12-30T16:52:45Z</time>
      </trkpt>
      <trkpt lat="43.43105" lon="-0.0435">
        <ele>219.615</ele>
        <time>2016-12-30T16:53:05Z</time>
      </trkpt>
      <trkpt lat="43.43005" lon="-0.0438">
        <ele>219.834</ele>
        <time>2016-12-30T16:53:25Z</time>
      </trkpt>
      <trkpt lat="43.42975" lon="-0.04289">
        <ele>217.481</ele>
        <time>2016-12-30T16:53:45Z</time>
      </trkpt>
      <trkpt lat="43.4294" lon="-0.04262">
        <ele>215.392</ele>
        <time>2016-12-30T16:54:05Z</time>
      </trkpt>
      <trkpt lat="43.42669" lon="-0.0423">
        <ele>218.351</ele>
        <time>2016-12-30T16:54:25Z</time>
      </trkpt>
      <trkpt lat="43.42607" lon="-0.04214">
        <ele>217.222</ele>
        <time>2016-12-30T16:54:45Z</time>
      </trkpt>
      <trkpt lat="43.42416" lon="-0.04196">
        <ele>216.029</ele>
        <time>2016-12-30T16:55:05Z</time>
      </trkpt>
      <trkpt lat="43.4241" lon="-0.04244">
        <ele>216.8</ele>
        <time>2016-12-30T16:55:25Z</time>
      </trkpt>
      <trkpt lat="43.42267" lon="-0.04363">
        <ele>220.52</ele>
        <time>2021-04-18T02:09:10Z</time>
      </trkpt>
      <trkpt lat="43.42071" lon="-0.0448">
        <ele>223.308</ele>
        <time>2016-12-30T16:55:45Z</time>
      </trkpt>
      <trkpt lat="43.42071" lon="-0.04596">
        <ele>226.549</ele>
        <time>2016-12-30T16:56:05Z</time>
      </trkpt>
      <trkpt lat="43.41869" lon="-0.0465">
        <ele>225.842</ele>
        <time>2016-12-30T16:56:25Z</time>
      </trkpt>
      <trkpt lat="43.41803" lon="-0.04692">
        <ele>227.918</ele>
        <time>2016-12-30T16:56:45Z</time>
      </trkpt>
      <trkpt lat="43.41734" lon="-0.0476">
        <ele>230.487</ele>
        <time>2016-12-30T16:57:05Z</time>
      </trkpt>
      <trkpt lat="43.41739" lon="-0.04847">
        <ele>234.874</ele>
        <time>2016-12-30T16:57:25Z</time>
      </trkpt>
      <trkpt lat="43.41796" lon="-0.04905">
        <ele>237.845</ele>
        <time>2016-12-30T16:57:45Z</time>
      </trkpt>
      <trkpt lat="43.41863" lon="-0.04947">
        <ele>235.984</ele>
        <time>2016-12-30T16:58:05Z</time>
      </trkpt>
      <trkpt lat="43.41855" lon="-0.0503">
        <ele>239.335</ele>
        <time>2016-12-30T16:58:25Z</time>
      </trkpt>
      <trkpt lat="43.41818" lon="-0.05204">
        <ele>254.819</ele>
        <time>2016-12-30T16:58:45Z</time>
      </trkpt>
      <trkpt lat="43.41763" lon="-0.05207">
        <ele>262.409</ele>
        <time>2016-12-30T16:59:05Z</time>
      </trkpt>
      <trkpt lat="43.41764" lon="-0.05326">
        <ele>275.819</ele>
        <time>2016-12-30T16:59:25Z</time>
      </trkpt>
      <trkpt lat="43.417" lon="-0.05329">
        <ele>282.408</ele>
        <time>2016-12-30T16:59:45Z</time>
      </trkpt>
      <trkpt lat="43.41662" lon="-0.05469">
        <ele>298.798</ele>
        <time>2016-12-30T17:00:05Z</time>
      </trkpt>
      <trkpt lat="43.41508" lon="-0.05784">
        <ele>313.971</ele>
        <time>2016-12-30T17:00:25Z</time>
      </trkpt>
      <trkpt lat="43.41527" lon="-0.05904">
        <ele>315.097</ele>
        <time>2016-12-30T17:00:45Z</time>
      </trkpt>
      <trkpt lat="43.41416" lon="-0.06049">
        <ele>315.086</ele>
        <time>2016-12-30T17:01:05Z</time>
      </trkpt>
      <trkpt lat="43.41187" lon="-0.06297">
        <ele>315.063</ele>
        <time>2016-12-30T17:01:25Z</time>
      </trkpt>
      <trkpt lat="43.41105" lon="-0.06514">
        <ele>318.554</ele>
        <time>2016-12-30T17:01:45Z</time>
      </trkpt>
      <trkpt lat="43.41127" lon="-0.0663">
        <ele>319.853</ele>
        <time>2016-12-30T17:02:05Z</time>
      </trkpt>
      <trkpt lat="43.41043" lon="-0.06712">
        <ele>319.764</ele>
        <time>2016-12-30T17:02:25Z</time>
      </trkpt>
      <trkpt lat="43.41051" lon="-0.06908">
        <ele>316.267</ele>
        <time>2016-12-30T17:02:45Z</time>
      </trkpt>
      <trkpt lat="43.4084" lon="-0.06991">
        <ele>320.281</ele>
        <time>2016-12-30T17:03:05Z</time>
      </trkpt>
      <trkpt lat="43.40688" lon="-0.07006">
        <ele>315.419</ele>
        <time>2016-12-30T17:03:25Z</time>
      </trkpt>
      <trkpt lat="43.40513" lon="-0.07105">
        <ele>317.308</ele>
        <time>2016-12-30T17:03:45Z</time>
      </trkpt>
      <trkpt lat="43.40523" lon="-0.07192">
        <ele>304.483</ele>
        <time>2016-12-30T17:04:05Z</time>
      </trkpt>
      <trkpt lat="43.40554" lon="-0.07246">
        <ele>298.316</ele>
        <time>2016-12-30T17:04:25Z</time>
      </trkpt>
      <trkpt lat="43.4062" lon="-0.07393">
        <ele>284.452</ele>
        <time>2016-12-30T17:04:45Z</time>
      </trkpt>
      <trkpt lat="43.40618" lon="-0.07434">
        <ele>277.581</ele>
        <time>2016-12-30T17:05:05Z</time>
      </trkpt>
      <trkpt lat="43.40641" lon="-0.07513">
        <ele>258.548</ele>
        <time>2021-04-18T02:19:10Z</time>
      </trkpt>
      <trkpt lat="43.40641" lon="-0.07599">
        <ele>243.489</ele>
        <time>2016-12-30T17:05:45Z</time>
      </trkpt>
      <trkpt lat="43.40651" lon="-0.07675">
        <ele>241.058</ele>
        <time>2016-12-30T17:06:05Z</time>
      </trkpt>
      <trkpt lat="43.40719" lon="-0.07773">
        <ele>240.029</ele>
        <time>2016-12-30T17:06:25Z</time>
      </trkpt>
      <trkpt lat="43.40715" lon="-0.07811">
        <ele>240.081</ele>
        <time>2016-12-30T17:06:45Z</time>
      </trkpt>
      <trkpt lat="43.40693" lon="-0.07828">
        <ele>240.961</ele>
        <time>2016-12-30T17:07:05Z</time>
      </trkpt>
      <trkpt lat="43.40665" lon="-0.07829">
        <ele>244.017</ele>
        <time>2016-12-30T17:07:25Z</time>
      </trkpt>
      <trkpt lat="43.40569" lon="-0.07881">
        <ele>248.708</ele>
        <time>2016-12-30T17:07:45Z</time>
      </trkpt>
      <trkpt lat="43.40496" lon="-0.07965">
        <ele>253.735</ele>
        <time>2016-12-30T17:08:05Z</time>
      </trkpt>
      <trkpt lat="43.40462" lon="-0.08046">
        <ele>259.698</ele>
        <time>2016-12-30T17:08:25Z</time>
      </trkpt>
      <trkpt lat="43.40445" lon="-0.08209">
        <ele>265.034</ele>
        <time>2016-12-30T17:08:45Z</time>
      </trkpt>
      <trkpt lat="43.40415" lon="-0.08207">
        <ele>263.343</ele>
        <time>2016-12-30T17:09:05Z</time>
      </trkpt>
      <trkpt lat="43.4028" lon="-0.08244">
        <ele>255.17</ele>
        <time>2016-12-30T17:09:25Z</time>
      </trkpt>
      <trkpt lat="43.40229" lon="-0.08271">
        <ele>253.681</ele>
        <time>2016-12-30T17:09:45Z</time>
      </trkpt>
      <trkpt lat="43.40173" lon="-0.08167">
        <ele>250.25</ele>
        <time>2016-12-30T17:10:05Z</time>
      </trkpt>
      <trkpt lat="43.4011" lon="-0.08126">
        <ele>250.071</ele>
        <time>2016-12-30T17:10:25Z</time>
      </trkpt>
      <trkpt lat="43.40019" lon="-0.08244">
        <ele>259.065</ele>
        <time>2016-12-30T17:10:45Z</time>
      </trkpt>
      <trkpt lat="43.3999" lon="-0.08305">
        <ele>267.768</ele>
        <time>2016-12-30T17:11:05Z</time>
      </trkpt>
      <trkpt lat="43.39842" lon="-0.08349">
        <ele>272.914</ele>
        <time>2016-12-30T17:11:25Z</time>
      </trkpt>
      <trkpt lat="43.39779" lon="-0.08409">
        <ele>274.208</ele>
        <time>2021-04-18T02:25:30Z</time>
      </trkpt>
      <trkpt lat="43.39665" lon="-0.08492">
        <ele>277.353</ele>
        <time>2016-12-30T17:12:05Z</time>
      </trkpt>
      <trkpt lat="43.39482" lon="-0.08586">
        <ele>283.386</ele>
        <time>2016-12-30T17:12:25Z</time>
      </trkpt>
      <trkpt lat="43.39489" lon="-0.0883">
        <ele>293.252</ele>
        <time>2016-12-30T17:12:45Z</time>
      </trkpt>
      <trkpt lat="43.39501" lon="-0.08847">
        <ele>290.531</ele>
        <time>2016-12-30T17:13:05Z</time>
      </trkpt>
      <trkpt lat="43.39505" lon="-0.08874">
        <ele>286.298</ele>
        <time>2016-12-30T17:13:25Z</time>
      </trkpt>
      <trkpt lat="43.39481" lon="-0.08882">
        <ele>283.989</ele>
        <time>2016-12-30T17:13:45Z</time>
      </trkpt>
      <trkpt lat="43.39438" lon="-0.08925">
        <ele>276.168</ele>
        <time>2016-12-30T17:14:05Z</time>
      </trkpt>
      <trkpt lat="43.39312" lon="-0.0894">
        <ele>276.489</ele>
        <time>2016-12-30T17:14:25Z</time>
      </trkpt>
      <trkpt lat="43.39254" lon="-0.08977">
        <ele>274.597</ele>
        <time>2016-12-30T17:14:45Z</time>
      </trkpt>
      <trkpt lat="43.39134" lon="-0.0898">
        <ele>275.323</ele>
        <time>2016-12-30T17:15:05Z</time>
      </trkpt>
      <trkpt lat="43.39134" lon="-0.09006">
        <ele>274.225</ele>
        <time>2016-12-30T17:15:25Z</time>
      </trkpt>
      <trkpt lat="43.39212" lon="-0.09059">
        <ele>274.108</ele>
        <time>2016-12-30T17:15:45Z</time>
      </trkpt>
      <trkpt lat="43.3935" lon="-0.0907">
        <ele>269.796</ele>
        <time>2016-12-30T17:16:05Z</time>
      </trkpt>
      <trkpt lat="43.39393" lon="-0.09094">
        <ele>270.919</ele>
        <time>2016-12-30T17:16:25Z</time>
      </trkpt>
      <trkpt lat="43.39424" lon="-0.0915">
        <ele>275.075</ele>
        <time>2016-12-30T17:16:45Z</time>
      </trkpt>
      <trkpt lat="43.39461" lon="-0.09179">
        <ele>274.294</ele>
        <time>2016-12-30T17:17:05Z</time>
      </trkpt>
      <trkpt lat="43.39484" lon="-0.09252">
        <ele>274.151</ele>
        <time>2016-12-30T17:17:25Z</time>
      </trkpt>
      <trkpt lat="43.39566" lon="-0.09301">
        <ele>274.462</ele>
        <time>2016-12-30T17:17:45Z</time>
      </trkpt>
      <trkpt lat="43.39622" lon="-0.09376">
        <ele>272.981</ele>
        <time>2016-12-30T17:18:05Z</time>
      </trkpt>
      <trkpt lat="43.3965" lon="-0.09374">
        <ele>275.142</ele>
        <time>2016-12-30T17:18:25Z</time>
      </trkpt>
      <trkpt lat="43.3967" lon="-0.09458">
        <ele>284.764</ele>
        <time>2016-12-30T17:18:45Z</time>
      </trkpt>
      <trkpt lat="43.39711" lon="-0.09544">
        <ele>290.406</ele>
        <time>2016-12-30T17:19:05Z</time>
      </trkpt>
      <trkpt lat="43.397" lon="-0.09784">
        <ele>302.016</ele>
        <time>2016-12-30T17:19:25Z</time>
      </trkpt>
      <trkpt lat="43.3971" lon="-0.10059">
        <ele>322.508</ele>
        <time>2016-12-30T17:19:45Z</time>
      </trkpt>
      <trkpt lat="43.39728" lon="-0.10139">
        <ele>328.683</ele>
        <time>2016-12-30T17:20:05Z</time>
      </trkpt>
      <trkpt lat="43.39732" lon="-0.10261">
        <ele>333.476</ele>
        <time>2016-12-30T17:20:25Z</time>
      </trkpt>
      <trkpt lat="43.39687" lon="-0.10389">
        <ele>332.762</ele>
        <time>2016-12-30T17:20:45Z</time>
      </trkpt>
      <trkpt lat="43.39783" lon="-0.10611">
        <ele>336.851</ele>
        <time>2016-12-30T17:21:05Z</time>
      </trkpt>
      <trkpt lat="43.39715" lon="-0.10759">
        <ele>339.348</ele>
        <time>2016-12-30T17:21:25Z</time>
      </trkpt>
      <trkpt lat="43.39621" lon="-0.1105">
        <ele>340.039</ele>
        <time>2016-12-30T17:21:45Z</time>
      </trkpt>
      <trkpt lat="43.39582" lon="-0.11118">
        <ele>341.228</ele>
        <time>2021-04-18T02:35:50Z</time>
      </trkpt>
      <trkpt lat="43.39591" lon="-0.1116">
        <ele>339.599</ele>
        <time>2016-12-30T17:22:25Z</time>
      </trkpt>
      <trkpt lat="43.39581" lon="-0.11212">
        <ele>337.518</ele>
        <time>2016-12-30T17:22:45Z</time>
      </trkpt>
      <trkpt lat="43.39591" lon="-0.11275">
        <ele>331.598</ele>
        <time>2021-04-18T02:36:50Z</time>
      </trkpt>
      <trkpt lat="43.39634" lon="-0.11355">
        <ele>321.817</ele>
        <time>2021-04-18T02:37:10Z</time>
      </trkpt>
      <trkpt lat="43.39669" lon="-0.11379">
        <ele>318.008</ele>
        <time>2016-12-30T17:23:25Z</time>
      </trkpt>
      <trkpt lat="43.39731" lon="-0.11403">
        <ele>320.698</ele>
        <time>2016-12-30T17:23:45Z</time>
      </trkpt>
      <trkpt lat="43.39763" lon="-0.11496">
        <ele>307.711</ele>
        <time>2016-12-30T17:24:05Z</time>
      </trkpt>
      <trkpt lat="43.39801" lon="-0.11564">
        <ele>298.857</ele>
        <time>2016-12-30T17:24:25Z</time>
      </trkpt>
      <trkpt lat="43.39852" lon="-0.1174">
        <ele>283.416</ele>
        <time>2016-12-30T17:24:45Z</time>
      </trkpt>
      <trkpt lat="43.39875" lon="-0.11723">
        <ele>281.983</ele>
        <time>2016-12-30T17:25:05Z</time>
      </trkpt>
      <trkpt lat="43.39891" lon="-0.1174">
        <ele>277.474</ele>
        <time>2016-12-30T17:25:25Z</time>
      </trkpt>
      <trkpt lat="43.39884" lon="-0.11787">
        <ele>271.613</ele>
        <time>2016-12-30T17:25:45Z</time>
      </trkpt>
      <trkpt lat="43.39823" lon="-0.1191">
        <ele>256.144</ele>
        <time>2016-12-30T17:26:05Z</time>
      </trkpt>
      <trkpt lat="43.39826" lon="-0.11964">
        <ele>247.318</ele>
        <time>2016-12-30T17:26:25Z</time>
      </trkpt>
      <trkpt lat="43.39801" lon="-0.11979">
        <ele>243.198</ele>
        <time>2016-12-30T17:26:45Z</time>
      </trkpt>
      <trkpt lat="43.39745" lon="-0.11966">
        <ele>238.517</ele>
        <time>2016-12-30T17:27:05Z</time>
      </trkpt>
      <trkpt lat="43.39697" lon="-0.12049">
        <ele>232.508</ele>
        <time>2021-04-18T02:41:30Z</time>
      </trkpt>
      <trkpt lat="43.39703" lon="-0.12339">
        <ele>219.018</ele>
        <time>2016-12-30T17:27:45Z</time>
      </trkpt>
      <trkpt lat="43.39672" lon="-0.12394">
        <ele>219.071</ele>
        <time>2016-12-30T17:28:05Z</time>
      </trkpt>
      <trkpt lat="43.39677" lon="-0.12569">
        <ele>222.337</ele>
        <time>2016-12-30T17:28:25Z</time>
      </trkpt>
      <trkpt lat="43.39592" lon="-0.12752">
        <ele>226.726</ele>
        <time>2016-12-30T17:28:45Z</time>
      </trkpt>
      <trkpt lat="43.395" lon="-0.12919">
        <ele>229.183</ele>
        <time>2016-12-30T17:29:05Z</time>
      </trkpt>
      <trkpt lat="43.39504" lon="-0.13035">
        <ele>231.934</ele>
        <time>2016-12-30T17:29:25Z</time>
      </trkpt>
      <trkpt lat="43.39566" lon="-0.13177">
        <ele>233.613</ele>
        <time>2016-12-30T17:29:45Z</time>
      </trkpt>
      <trkpt lat="43.39573" lon="-0.13269">
        <ele>234.744</ele>
        <time>2016-12-30T17:30:05Z</time>
      </trkpt>
      <trkpt lat="43.39555" lon="-0.13347">
        <ele>235.141</ele>
        <time>2016-12-30T17:30:25Z</time>
      </trkpt>
      <trkpt lat="43.39521" lon="-0.13428">
        <ele>241.781</ele>
        <time>2021-04-18T02:44:50Z</time>
      </trkpt>
      <trkpt lat="43.39548" lon="-0.13558">
        <ele>236.109</ele>
        <time>2016-12-30T17:31:05Z</time>
      </trkpt>
      <trkpt lat="43.39533" lon="-0.13672">
        <ele>239.208</ele>
        <time>2016-12-30T17:31:25Z</time>
      </trkpt>
      <trkpt lat="43.39328" lon="-0.13938">
        <ele>247.651</ele>
        <time>2016-12-30T17:31:45Z</time>
      </trkpt>
      <trkpt lat="43.39317" lon="-0.14036">
        <ele>250.724</ele>
        <time>2016-12-30T17:32:05Z</time>
      </trkpt>
      <trkpt lat="43.39327" lon="-0.14081">
        <ele>252.79</ele>
        <time>2016-12-30T17:32:25Z</time>
      </trkpt>
      <trkpt lat="43.39376" lon="-0.14149">
        <ele>256.959</ele>
        <time>2016-12-30T17:32:45Z</time>
      </trkpt>
      <trkpt lat="43.3924" lon="-0.1431">
        <ele>264.956</ele>
        <time>2016-12-30T17:33:05Z</time>
      </trkpt>
      <trkpt lat="43.39242" lon="-0.14355">
        <ele>268.347</ele>
        <time>2016-12-30T17:33:25Z</time>
      </trkpt>
      <trkpt lat="43.39151" lon="-0.14501">
        <ele>275.686</ele>
        <time>2016-12-30T17:33:45Z</time>
      </trkpt>
      <trkpt lat="43.39117" lon="-0.14623">
        <ele>285.937</ele>
        <time>2016-12-30T17:34:05Z</time>
      </trkpt>
      <trkpt lat="43.39147" lon="-0.14777">
        <ele>303.336</ele>
        <time>2016-12-30T17:34:25Z</time>
      </trkpt>
      <trkpt lat="43.39144" lon="-0.14867">
        <ele>311.717</ele>
        <time>2016-12-30T17:34:45Z</time>
      </trkpt>
      <trkpt lat="43.39115" lon="-0.14995">
        <ele>319.118</ele>
        <time>2016-12-30T17:35:05Z</time>
      </trkpt>
      <trkpt lat="43.39111" lon="-0.15085">
        <ele>326.108</ele>
        <time>2016-12-30T17:35:25Z</time>
      </trkpt>
      <trkpt lat="43.39084" lon="-0.15172">
        <ele>329.48</ele>
        <time>2016-12-30T17:35:45Z</time>
      </trkpt>
      <trkpt lat="43.3906" lon="-0.1531">
        <ele>333.533</ele>
        <time>2016-12-30T17:36:05Z</time>
      </trkpt>
      <trkpt lat="43.39066" lon="-0.15437">
        <ele>335.429</ele>
        <time>2016-12-30T17:36:25Z</time>
      </trkpt>
      <trkpt lat="43.39041" lon="-0.15495">
        <ele>335.578</ele>
        <time>2016-12-30T17:36:45Z</time>
      </trkpt>
      <trkpt lat="43.39003" lon="-0.15534">
        <ele>335.055</ele>
        <time>2016-12-30T17:37:05Z</time>
      </trkpt>
      <trkpt lat="43.39003" lon="-0.1554">
        <ele>335.076</ele>
        <time>2016-12-30T17:37:25Z</time>
      </trkpt>
      <trkpt lat="43.38982" lon="-0.15828">
        <ele>336.035</ele>
        <time>2016-12-30T17:37:45Z</time>
      </trkpt>
      <trkpt lat="43.38942" lon="-0.16154">
        <ele>335.396</ele>
        <time>2016-12-30T17:38:05Z</time>
      </trkpt>
      <trkpt lat="43.38853" lon="-0.16145">
        <ele>334.825</ele>
        <time>2016-12-30T17:38:25Z</time>
      </trkpt>
      <trkpt lat="43.38832" lon="-0.16649">
        <ele>320.126</ele>
        <time>2016-12-30T17:38:45Z</time>
      </trkpt>
      <trkpt lat="43.38788" lon="-0.16763">
        <ele>309.508</ele>
        <time>2016-12-30T17:39:05Z</time>
      </trkpt>
      <trkpt lat="43.3873" lon="-0.168">
        <ele>302.908</ele>
        <time>2016-12-30T17:39:25Z</time>
      </trkpt>
      <trkpt lat="43.3868" lon="-0.16818">
        <ele>301.799</ele>
        <time>2016-12-30T17:39:45Z</time>
      </trkpt>
      <trkpt lat="43.3864" lon="-0.16871">
        <ele>303.722</ele>
        <time>2016-12-30T17:40:05Z</time>
      </trkpt>
      <trkpt lat="43.38609" lon="-0.16996">
        <ele>308.718</ele>
        <time>2016-12-30T17:40:25Z</time>
      </trkpt>
      <trkpt lat="43.38607" lon="-0.17124">
        <ele>316.237</ele>
        <time>2016-12-30T17:40:45Z</time>
      </trkpt>
      <trkpt lat="43.38592" lon="-0.17243">
        <ele>320.134</ele>
        <time>2016-12-30T17:41:05Z</time>
      </trkpt>
      <trkpt lat="43.38595" lon="-0.1735">
        <ele>322.855</ele>
        <time>2016-12-30T17:41:25Z</time>
      </trkpt>
      <trkpt lat="43.38582" lon="-0.17398">
        <ele>323.364</ele>
        <time>2016-12-30T17:41:45Z</time>
      </trkpt>
      <trkpt lat="43.38559" lon="-0.17448">
        <ele>324.235</ele>
        <time>2016-12-30T17:42:05Z</time>
      </trkpt>
      <trkpt lat="43.38511" lon="-0.17638">
        <ele>330.011</ele>
        <time>2016-12-30T17:42:25Z</time>
      </trkpt>
      <trkpt lat="43.38482" lon="-0.17691">
        <ele>330.021</ele>
        <time>2016-12-30T17:42:45Z</time>
      </trkpt>
      <trkpt lat="43.38448" lon="-0.17727">
        <ele>330.003</ele>
        <time>2016-12-30T17:43:05Z</time>
      </trkpt>
      <trkpt lat="43.38418" lon="-0.178">
        <ele>330.008</ele>
        <time>2016-12-30T17:43:25Z</time>
      </trkpt>
      <trkpt lat="43.38327" lon="-0.1791">
        <ele>327.098</ele>
        <time>2016-12-30T17:43:45Z</time>
      </trkpt>
      <trkpt lat="43.38096" lon="-0.1805">
        <ele>307.251</ele>
        <time>2016-12-30T17:44:05Z</time>
      </trkpt>
      <trkpt lat="43.37964" lon="-0.18099">
        <ele>294.077</ele>
        <time>2016-12-30T17:44:25Z</time>
      </trkpt>
      <trkpt lat="43.37764" lon="-0.18202">
        <ele>289.026</ele>
        <time>2016-12-30T17:44:45Z</time>
      </trkpt>
      <trkpt lat="43.3774" lon="-0.1825">
        <ele>291.463</ele>
        <time>2016-12-30T17:45:05Z</time>
      </trkpt>
      <trkpt lat="43.37727" lon="-0.18311">
        <ele>294.594</ele>
        <time>2016-12-30T17:45:25Z</time>
      </trkpt>
      <trkpt lat="43.37738" lon="-0.18343">
        <ele>297.313</ele>
        <time>2016-12-30T17:45:45Z</time>
      </trkpt>
      <trkpt lat="43.37722" lon="-0.18383">
        <ele>307.064</ele>
        <time>2021-04-18T03:00:10Z</time>
      </trkpt>
      <trkpt lat="43.37643" lon="-0.18444">
        <ele>311.061</ele>
        <time>2016-12-30T17:46:25Z</time>
      </trkpt>
      <trkpt lat="43.37609" lon="-0.18488">
        <ele>316.221</ele>
        <time>2016-12-30T17:46:45Z</time>
      </trkpt>
      <trkpt lat="43.37561" lon="-0.18485">
        <ele>316.313</ele>
        <time>2016-12-30T17:47:05Z</time>
      </trkpt>
      <trkpt lat="43.37505" lon="-0.18548">
        <ele>324.108</ele>
        <time>2016-12-30T17:47:25Z</time>
      </trkpt>
      <trkpt lat="43.37311" lon="-0.18856">
        <ele>341.113</ele>
        <time>2016-12-30T17:47:45Z</time>
      </trkpt>
      <trkpt lat="43.37166" lon="-0.19028">
        <ele>340.066</ele>
        <time>2016-12-30T17:48:05Z</time>
      </trkpt>
      <trkpt lat="43.37127" lon="-0.19048">
        <ele>340.072</ele>
        <time>2016-12-30T17:48:25Z</time>
      </trkpt>
      <trkpt lat="43.3699" lon="-0.19205">
        <ele>340.081</ele>
        <time>2016-12-30T17:48:45Z</time>
      </trkpt>
      <trkpt lat="43.36992" lon="-0.19279">
        <ele>339.028</ele>
        <time>2016-12-30T17:49:05Z</time>
      </trkpt>
      <trkpt lat="43.36892" lon="-0.19376">
        <ele>334.079</ele>
        <time>2016-12-30T17:49:25Z</time>
      </trkpt>
      <trkpt lat="43.36836" lon="-0.19406">
        <ele>327.318</ele>
        <time>2016-12-30T17:49:45Z</time>
      </trkpt>
      <trkpt lat="43.36773" lon="-0.19403">
        <ele>321.289</ele>
        <time>2016-12-30T17:50:05Z</time>
      </trkpt>
      <trkpt lat="43.36693" lon="-0.19321">
        <ele>326.873</ele>
        <time>2016-12-30T17:50:25Z</time>
      </trkpt>
      <trkpt lat="43.36569" lon="-0.19422">
        <ele>314.185</ele>
        <time>2016-12-30T17:50:45Z</time>
      </trkpt>
      <trkpt lat="43.3656" lon="-0.19503">
        <ele>306.313</ele>
        <time>2016-12-30T17:51:05Z</time>
      </trkpt>
      <trkpt lat="43.36487" lon="-0.1965">
        <ele>280.308</ele>
        <time>2016-12-30T17:51:25Z</time>
      </trkpt>
      <trkpt lat="43.36537" lon="-0.19675">
        <ele>284.344</ele>
        <time>2016-12-30T17:51:45Z</time>
      </trkpt>
      <trkpt lat="43.36589" lon="-0.19746">
        <ele>283.297</ele>
        <time>2016-12-30T17:52:05Z</time>
      </trkpt>
      <trkpt lat="43.36633" lon="-0.1979">
        <ele>282.913</ele>
        <time>2016-12-30T17:52:25Z</time>
      </trkpt>
      <trkpt lat="43.36618" lon="-0.1983">
        <ele>279.142</ele>
        <time>2016-12-30T17:52:45Z</time>
      </trkpt>
      <trkpt lat="43.36619" lon="-0.19862">
        <ele>281.729</ele>
        <time>2021-04-18T03:07:10Z</time>
      </trkpt>
      <trkpt lat="43.36695" lon="-0.199">
        <ele>281.25</ele>
        <time>2021-04-18T03:07:30Z</time>
      </trkpt>
      <trkpt lat="43.36683" lon="-0.19951">
        <ele>279.039</ele>
        <time>2016-12-30T17:53:25Z</time>
      </trkpt>
      <trkpt lat="43.36548" lon="-0.20088">
        <ele>279.45</ele>
        <time>2016-12-30T17:53:45Z</time>
      </trkpt>
      <trkpt lat="43.36534" lon="-0.20121">
        <ele>281.172</ele>
        <time>2016-12-30T17:54:05Z</time>
      </trkpt>
      <trkpt lat="43.36494" lon="-0.20092">
        <ele>281.313</ele>
        <time>2016-12-30T17:54:25Z</time>
      </trkpt>
      <trkpt lat="43.3646" lon="-0.20095">
        <ele>281.914</ele>
        <time>2016-12-30T17:54:45Z</time>
      </trkpt>
      <trkpt lat="43.36374" lon="-0.20134">
        <ele>284.508</ele>
        <time>2016-12-30T17:55:05Z</time>
      </trkpt>
      <trkpt lat="43.36338" lon="-0.20167">
        <ele>286.874</ele>
        <time>2016-12-30T17:55:25Z</time>
      </trkpt>
      <trkpt lat="43.3631" lon="-0.20205">
        <ele>289.667</ele>
        <time>2016-12-30T17:55:45Z</time>
      </trkpt>
      <trkpt lat="43.36049" lon="-0.20282">
        <ele>298.063</ele>
        <time>2016-12-30T17:56:05Z</time>
      </trkpt>
      <trkpt lat="43.35919" lon="-0.20413">
        <ele>301.942</ele>
        <time>2016-12-30T17:56:25Z</time>
      </trkpt>
      <trkpt lat="43.35875" lon="-0.2041">
        <ele>301.749</ele>
        <time>2016-12-30T17:56:45Z</time>
      </trkpt>
      <trkpt lat="43.35849" lon="-0.20444">
        <ele>303.08</ele>
        <time>2016-12-30T17:57:05Z</time>
      </trkpt>
      <trkpt lat="43.35824" lon="-0.20532">
        <ele>305.369</ele>
        <time>2016-12-30T17:57:25Z</time>
      </trkpt>
      <trkpt lat="43.35797" lon="-0.20589">
        <ele>307.47</ele>
        <time>2016-12-30T17:57:45Z</time>
      </trkpt>
      <trkpt lat="43.35798" lon="-0.20603">
        <ele>307.875</ele>
        <time>2016-12-30T17:58:05Z</time>
      </trkpt>
      <trkpt lat="43.35733" lon="-0.20676">
        <ele>310.028</ele>
        <time>2016-12-30T17:58:25Z</time>
      </trkpt>
      <trkpt lat="43.35698" lon="-0.20757">
        <ele>310.02</ele>
        <time>2016-12-30T17:58:45Z</time>
      </trkpt>
      <trkpt lat="43.35698" lon="-0.20775">
        <ele>310.008</ele>
        <time>2016-12-30T17:59:05Z</time>
      </trkpt>
      <trkpt lat="43.3566" lon="-0.20926">
        <ele>310.074</ele>
        <time>2016-12-30T17:59:25Z</time>
      </trkpt>
      <trkpt lat="43.3566" lon="-0.2097">
        <ele>309.127</ele>
        <time>2016-12-30T17:59:45Z</time>
      </trkpt>
      <trkpt lat="43.35539" lon="-0.2127">
        <ele>312.053</ele>
        <time>2016-12-30T18:00:05Z</time>
      </trkpt>
      <trkpt lat="43.35468" lon="-0.21149">
        <ele>312.042</ele>
        <time>2016-12-30T18:00:25Z</time>
      </trkpt>
      <trkpt lat="43.35383" lon="-0.2124">
        <ele>312.089</ele>
        <time>2016-12-30T18:00:45Z</time>
      </trkpt>
      <trkpt lat="43.35416" lon="-0.21694">
        <ele>308.17</ele>
        <time>2016-12-30T18:01:05Z</time>
      </trkpt>
      <trkpt lat="43.35373" lon="-0.21701">
        <ele>308.929</ele>
        <time>2016-12-30T18:01:25Z</time>
      </trkpt>
      <trkpt lat="43.35292" lon="-0.21819">
        <ele>304.58</ele>
        <time>2016-12-30T18:01:45Z</time>
      </trkpt>
      <trkpt lat="43.35222" lon="-0.21769">
        <ele>305.678</ele>
        <time>2016-12-30T18:02:05Z</time>
      </trkpt>
      <trkpt lat="43.35109" lon="-0.21635">
        <ele>307.133</ele>
        <time>2016-12-30T18:02:25Z</time>
      </trkpt>
      <trkpt lat="43.35006" lon="-0.21727">
        <ele>304.026</ele>
        <time>2016-12-30T18:02:45Z</time>
      </trkpt>
      <trkpt lat="43.34938" lon="-0.21876">
        <ele>309.208</ele>
        <time>2016-12-30T18:03:05Z</time>
      </trkpt>
      <trkpt lat="43.34853" lon="-0.21953">
        <ele>310.334</ele>
        <time>2016-12-30T18:03:25Z</time>
      </trkpt>
      <trkpt lat="43.3477" lon="-0.22201">
        <ele>309.857</ele>
        <time>2016-12-30T18:03:45Z</time>
      </trkpt>
      <trkpt lat="43.34716" lon="-0.22314">
        <ele>310.013</ele>
        <time>2016-12-30T18:04:05Z</time>
      </trkpt>
      <trkpt lat="43.34648" lon="-0.22296">
        <ele>310.062</ele>
        <time>2016-12-30T18:04:25Z</time>
      </trkpt>
      <trkpt lat="43.34596" lon="-0.22402">
        <ele>310.079</ele>
        <time>2016-12-30T18:04:45Z</time>
      </trkpt>
      <trkpt lat="43.34551" lon="-0.22565">
        <ele>308.69</ele>
        <time>2016-12-30T18:05:05Z</time>
      </trkpt>
      <trkpt lat="43.34533" lon="-0.22687">
        <ele>305.069</ele>
        <time>2016-12-30T18:05:25Z</time>
      </trkpt>
      <trkpt lat="43.34583" lon="-0.22704">
        <ele>305.06</ele>
        <time>2016-12-30T18:05:45Z</time>
      </trkpt>
      <trkpt lat="43.34509" lon="-0.22934">
        <ele>310.021</ele>
        <time>2016-12-30T18:06:05Z</time>
      </trkpt>
      <trkpt lat="43.34655" lon="-0.23039">
        <ele>310.041</ele>
        <time>2016-12-30T18:06:25Z</time>
      </trkpt>
      <trkpt lat="43.3466" lon="-0.23335">
        <ele>307.905</ele>
        <time>2016-12-30T18:06:45Z</time>
      </trkpt>
      <trkpt lat="43.34424" lon="-0.23889">
        <ele>309.708</ele>
        <time>2016-12-30T18:07:05Z</time>
      </trkpt>
      <trkpt lat="43.34607" lon="-0.24076">
        <ele>307.029</ele>
        <time>2016-12-30T18:07:25Z</time>
      </trkpt>
      <trkpt lat="43.34757" lon="-0.24145">
        <ele>305.672</ele>
        <time>2016-12-30T18:07:45Z</time>
      </trkpt>
      <trkpt lat="43.34917" lon="-0.24147">
        <ele>305.028</ele>
        <time>2016-12-30T18:08:05Z</time>
      </trkpt>
      <trkpt lat="43.34935" lon="-0.24175">
        <ele>305.097</ele>
        <time>2016-12-30T18:08:25Z</time>
      </trkpt>
      <trkpt lat="43.34998" lon="-0.24219">
        <ele>305.034</ele>
        <time>2016-12-30T18:08:45Z</time>
      </trkpt>
      <trkpt lat="43.34963" lon="-0.24493">
        <ele>300.145</ele>
        <time>2016-12-30T18:09:05Z</time>
      </trkpt>
      <trkpt lat="43.34907" lon="-0.24694">
        <ele>292.724</ele>
        <time>2016-12-30T18:09:25Z</time>
      </trkpt>
      <trkpt lat="43.3486" lon="-0.24725">
        <ele>290.085</ele>
        <time>2016-12-30T18:09:45Z</time>
      </trkpt>
      <trkpt lat="43.34819" lon="-0.24784">
        <ele>287.858</ele>
        <time>2016-12-30T18:10:05Z</time>
      </trkpt>
      <trkpt lat="43.34803" lon="-0.24833">
        <ele>285.052</ele>
        <time>2016-12-30T18:10:25Z</time>
      </trkpt>
      <trkpt lat="43.34733" lon="-0.24857">
        <ele>283.917</ele>
        <time>2021-04-18T03:25:10Z</time>
      </trkpt>
      <trkpt lat="43.34726" lon="-0.24934">
        <ele>277.408</ele>
        <time>2016-12-30T18:11:05Z</time>
      </trkpt>
      <trkpt lat="43.34683" lon="-0.24956">
        <ele>279.682</ele>
        <time>2021-04-18T03:25:50Z</time>
      </trkpt>
      <trkpt lat="43.3468" lon="-0.25006">
        <ele>278.255</ele>
        <time>2021-04-18T03:26:10Z</time>
      </trkpt>
      <trkpt lat="43.3466" lon="-0.25036">
        <ele>279.691</ele>
        <time>2021-04-18T03:26:30Z</time>
      </trkpt>
      <trkpt lat="43.34613" lon="-0.25019">
        <ele>280.09</ele>
        <time>2021-04-18T03:26:50Z</time>
      </trkpt>
      <trkpt lat="43.34502" lon="-0.25057">
        <ele>282.917</ele>
        <time>2016-12-30T18:12:25Z</time>
      </trkpt>
      <trkpt lat="43.34445" lon="-0.25111">
        <ele>288.068</ele>
        <time>2019-12-05T22:59:38Z</time>
      </trkpt>
      <trkpt lat="43.34387" lon="-0.25199">
        <ele>294.297</ele>
        <time>2019-12-05T22:59:58Z</time>
      </trkpt>
      <trkpt lat="43.34304" lon="-0.25394">
        <ele>296.088</ele>
        <time>2019-12-05T23:00:18Z</time>
      </trkpt>
      <trkpt lat="43.34292" lon="-0.25554">
        <ele>297.559</ele>
        <time>2019-12-05T23:00:38Z</time>
      </trkpt>
      <trkpt lat="43.34292" lon="-0.2587">
        <ele>291.703</ele>
        <time>2019-12-05T23:00:58Z</time>
      </trkpt>
      <trkpt lat="43.34303" lon="-0.2599">
        <ele>290.723</ele>
        <time>2019-12-05T23:01:18Z</time>
      </trkpt>
      <trkpt lat="43.34303" lon="-0.26059">
        <ele>292.108</ele>
        <time>2019-12-05T23:01:38Z</time>
      </trkpt>
      <trkpt lat="43.34483" lon="-0.26373">
        <ele>295.082</ele>
        <time>2019-12-05T23:01:58Z</time>
      </trkpt>
      <trkpt lat="43.34475" lon="-0.26373">
        <ele>295.085</ele>
        <time>2016-12-30T16:46:34Z</time>
      </trkpt>
      <trkpt lat="43.34371" lon="-0.26459">
        <ele>295.04</ele>
        <time>2016-12-30T16:46:54Z</time>
      </trkpt>
      <trkpt lat="43.34182" lon="-0.26723">
        <ele>300.587</ele>
        <time>2016-12-30T16:47:14Z</time>
      </trkpt>
      <trkpt lat="43.34124" lon="-0.268">
        <ele>307.338</ele>
        <time>2016-12-30T16:47:54Z</time>
      </trkpt>
      <trkpt lat="43.33952" lon="-0.26963">
        <ele>324.057</ele>
        <time>2016-12-30T16:48:14Z</time>
      </trkpt>
      <trkpt lat="43.33818" lon="-0.27225">
        <ele>337.328</ele>
        <time>2016-12-30T16:48:34Z</time>
      </trkpt>
      <trkpt lat="43.33845" lon="-0.27277">
        <ele>338.867</ele>
        <time>2016-12-30T16:48:54Z</time>
      </trkpt>
      <trkpt lat="43.33866" lon="-0.2738">
        <ele>340.081</ele>
        <time>2016-12-30T16:49:14Z</time>
      </trkpt>
      <trkpt lat="43.33851" lon="-0.27616">
        <ele>340.019</ele>
        <time>2016-12-30T16:49:34Z</time>
      </trkpt>
      <trkpt lat="43.33954" lon="-0.27633">
        <ele>339.908</ele>
        <time>2016-12-30T16:49:54Z</time>
      </trkpt>
      <trkpt lat="43.33952" lon="-0.27676">
        <ele>340.043</ele>
        <time>2016-12-30T16:50:14Z</time>
      </trkpt>
      <trkpt lat="43.33824" lon="-0.28025">
        <ele>334.476</ele>
        <time>2016-12-30T16:50:34Z</time>
      </trkpt>
      <trkpt lat="43.33793" lon="-0.28242">
        <ele>323.582</ele>
        <time>2016-12-30T16:50:54Z</time>
      </trkpt>
      <trkpt lat="43.33771" lon="-0.28491">
        <ele>306.291</ele>
        <time>2016-12-30T16:51:14Z</time>
      </trkpt>
      <trkpt lat="43.3379" lon="-0.28635">
        <ele>302.328</ele>
        <time>2021-04-18T03:35:10Z</time>
      </trkpt>
      <trkpt lat="43.33852" lon="-0.28852">
        <ele>287.539</ele>
        <time>2016-12-30T16:51:54Z</time>
      </trkpt>
      <trkpt lat="43.33893" lon="-0.2903">
        <ele>274.518</ele>
        <time>2016-12-30T16:52:14Z</time>
      </trkpt>
      <trkpt lat="43.3389" lon="-0.29105">
        <ele>267.729</ele>
        <time>2016-12-30T16:52:34Z</time>
      </trkpt>
      <trkpt lat="43.3386" lon="-0.29143">
        <ele>263.281</ele>
        <time>2016-12-30T16:52:54Z</time>
      </trkpt>
      <trkpt lat="43.33798" lon="-0.29197">
        <ele>255.961</ele>
        <time>2016-12-30T16:53:14Z</time>
      </trkpt>
      <trkpt lat="43.3382" lon="-0.29285">
        <ele>247.017</ele>
        <time>2016-12-30T16:53:34Z</time>
      </trkpt>
      <trkpt lat="43.33778" lon="-0.29309">
        <ele>245.008</ele>
        <time>2016-12-30T16:53:54Z</time>
      </trkpt>
      <trkpt lat="43.33734" lon="-0.29354">
        <ele>245.095</ele>
        <time>2016-12-30T16:54:14Z</time>
      </trkpt>
      <trkpt lat="43.33626" lon="-0.29392">
        <ele>242.548</ele>
        <time>2016-12-30T16:54:34Z</time>
      </trkpt>
      <trkpt lat="43.33406" lon="-0.29555">
        <ele>234.684</ele>
        <time>2016-12-30T16:54:54Z</time>
      </trkpt>
      <trkpt lat="43.33309" lon="-0.2968">
        <ele>232.153</ele>
        <time>2016-12-30T16:55:14Z</time>
      </trkpt>
      <trkpt lat="43.33238" lon="-0.29787">
        <ele>230.49</ele>
        <time>2016-12-30T16:55:34Z</time>
      </trkpt>
      <trkpt lat="43.33231" lon="-0.29821">
        <ele>230.031</ele>
        <time>2016-12-30T16:55:54Z</time>
      </trkpt>
      <trkpt lat="43.33283" lon="-0.29887">
        <ele>234.66</ele>
        <time>2021-04-18T03:39:50Z</time>
      </trkpt>
      <trkpt lat="43.33317" lon="-0.29916">
        <ele>230.441</ele>
        <time>2016-12-30T16:56:14Z</time>
      </trkpt>
      <trkpt lat="43.3335" lon="-0.29922">
        <ele>230.968</ele>
        <time>2016-12-30T16:56:34Z</time>
      </trkpt>
      <trkpt lat="43.33431" lon="-0.29899">
        <ele>232.542</ele>
        <time>2016-12-30T16:56:54Z</time>
      </trkpt>
      <trkpt lat="43.33515" lon="-0.29944">
        <ele>233.026</ele>
        <time>2016-12-30T16:57:14Z</time>
      </trkpt>
      <trkpt lat="43.3356" lon="-0.30001">
        <ele>238.108</ele>
        <time>2021-04-18T03:41:30Z</time>
      </trkpt>
      <trkpt lat="43.33612" lon="-0.30047">
        <ele>233.353</ele>
        <time>2016-12-30T16:57:34Z</time>
      </trkpt>
      <trkpt lat="43.33598" lon="-0.30083">
        <ele>232.566</ele>
        <time>2016-12-30T16:57:54Z</time>
      </trkpt>
      <trkpt lat="43.33643" lon="-0.30203">
        <ele>233.042</ele>
        <time>2016-12-30T16:58:14Z</time>
      </trkpt>
      <trkpt lat="43.33607" lon="-0.30257">
        <ele>231.191</ele>
        <time>2016-12-30T16:58:34Z</time>
      </trkpt>
      <trkpt lat="43.33589" lon="-0.30313">
        <ele>230.298</ele>
        <time>2016-12-30T16:58:54Z</time>
      </trkpt>
      <trkpt lat="43.3359" lon="-0.30403">
        <ele>230.019</ele>
        <time>2016-12-30T16:59:14Z</time>
      </trkpt>
      <trkpt lat="43.33581" lon="-0.30452">
        <ele>230.018</ele>
        <time>2016-12-30T16:59:34Z</time>
      </trkpt>
      <trkpt lat="43.33582" lon="-0.30526">
        <ele>229.139</ele>
        <time>2016-12-30T16:59:54Z</time>
      </trkpt>
      <trkpt lat="43.33568" lon="-0.3061">
        <ele>228.096</ele>
        <time>2016-12-30T17:00:14Z</time>
      </trkpt>
      <trkpt lat="43.33584" lon="-0.30702">
        <ele>227.031</ele>
        <time>2016-12-30T17:00:34Z</time>
      </trkpt>
      <trkpt lat="43.3364" lon="-0.30876">
        <ele>226.024</ele>
        <time>2016-12-30T17:00:54Z</time>
      </trkpt>
      <trkpt lat="43.33568" lon="-0.30887">
        <ele>225.008</ele>
        <time>2016-12-30T17:01:14Z</time>
      </trkpt>
      <trkpt lat="43.33501" lon="-0.30921">
        <ele>225.286</ele>
        <time>2016-12-30T17:01:34Z</time>
      </trkpt>
      <trkpt lat="43.33509" lon="-0.31">
        <ele>226.089</ele>
        <time>2016-12-30T17:01:54Z</time>
      </trkpt>
      <trkpt lat="43.33398" lon="-0.31157">
        <ele>228.085</ele>
        <time>2016-12-30T17:02:14Z</time>
      </trkpt>
      <trkpt lat="43.3351" lon="-0.31355">
        <ele>227.694</ele>
        <time>2016-12-30T17:02:34Z</time>
      </trkpt>
      <trkpt lat="43.33911" lon="-0.31908">
        <ele>222.251</ele>
        <time>2016-12-30T17:02:54Z</time>
      </trkpt>
      <trkpt lat="43.3389" lon="-0.31966">
        <ele>222.242</ele>
        <time>2016-12-30T17:03:14Z</time>
      </trkpt>
      <trkpt lat="43.33961" lon="-0.31966">
        <ele>221.051</ele>
        <time>2016-12-30T17:03:34Z</time>
      </trkpt>
      <trkpt lat="43.34222" lon="-0.32333">
        <ele>220.092</ele>
        <time>2016-12-30T17:03:54Z</time>
      </trkpt>
      <trkpt lat="43.34912" lon="-0.33668">
        <ele>214.297</ele>
        <time>2016-12-30T17:04:14Z</time>
      </trkpt>
      <trkpt lat="43.34798" lon="-0.33775">
        <ele>215.023</ele>
        <time>2016-12-30T17:04:34Z</time>
      </trkpt>
      <trkpt lat="43.3472" lon="-0.33631">
        <ele>215.025</ele>
        <time>2016-12-30T17:04:54Z</time>
      </trkpt>
      <trkpt lat="43.34007" lon="-0.34071">
        <ele>215.008</ele>
        <time>2016-12-30T17:05:14Z</time>
      </trkpt>
      <trkpt lat="43.33861" lon="-0.33876">
        <ele>217.056</ele>
        <time>2016-12-30T17:05:34Z</time>
      </trkpt>
      <trkpt lat="43.33512" lon="-0.34013">
        <ele>220.069</ele>
        <time>2016-12-30T17:05:54Z</time>
      </trkpt>
      <trkpt lat="43.33655" lon="-0.34419">
        <ele>218.025</ele>
        <time>2016-12-30T17:06:14Z</time>
      </trkpt>
      <trkpt lat="43.33808" lon="-0.34753">
        <ele>214.014</ele>
        <time>2016-12-30T17:06:34Z</time>
      </trkpt>
      <trkpt lat="43.34264" lon="-0.35854">
        <ele>210.021</ele>
        <time>2016-12-30T17:06:54Z</time>
      </trkpt>
      <trkpt lat="43.34042" lon="-0.36013">
        <ele>210.822</ele>
        <time>2016-12-30T17:07:14Z</time>
      </trkpt>
      <trkpt lat="43.34241" lon="-0.36473">
        <ele>217.551</ele>
        <time>2021-04-18T03:51:50Z</time>
      </trkpt>
      <trkpt lat="43.34099" lon="-0.36611">
        <ele>216.072</ele>
        <time>2021-04-18T03:52:10Z</time>
      </trkpt>
      <trkpt lat="43.33934" lon="-0.36703">
        <ele>214.235</ele>
        <time>2021-04-18T03:52:30Z</time>
      </trkpt>
      <trkpt lat="43.33933" lon="-0.3674">
        <ele>208.786</ele>
        <time>2016-12-30T17:08:34Z</time>
      </trkpt>
      <trkpt lat="43.33858" lon="-0.36781">
        <ele>207.914</ele>
        <time>2016-12-30T17:08:54Z</time>
      </trkpt>
      <trkpt lat="43.33801" lon="-0.36766">
        <ele>208.008</ele>
        <time>2016-12-30T17:09:14Z</time>
      </trkpt>
      <trkpt lat="43.33732" lon="-0.36801">
        <ele>208.14</ele>
        <time>2016-12-30T17:09:34Z</time>
      </trkpt>
      <trkpt lat="43.33693" lon="-0.36725">
        <ele>210.093</ele>
        <time>2016-12-30T17:09:54Z</time>
      </trkpt>
      <trkpt lat="43.33654" lon="-0.36682">
        <ele>210.089</ele>
        <time>2016-12-30T17:10:14Z</time>
      </trkpt>
      <trkpt lat="43.33565" lon="-0.36652">
        <ele>210.058</ele>
        <time>2016-12-30T17:10:34Z</time>
      </trkpt>
      <trkpt lat="43.33487" lon="-0.3667">
        <ele>210.045</ele>
        <time>2016-12-30T17:10:54Z</time>
      </trkpt>
      <trkpt lat="43.33415" lon="-0.36734">
        <ele>210.066</ele>
        <time>2016-12-30T17:11:14Z</time>
      </trkpt>
      <trkpt lat="43.33376" lon="-0.36813">
        <ele>210.075</ele>
        <time>2016-12-30T17:11:34Z</time>
      </trkpt>
      <trkpt lat="43.33359" lon="-0.36888">
        <ele>210.036</ele>
        <time>2016-12-30T17:11:54Z</time>
      </trkpt>
      <trkpt lat="43.33304" lon="-0.36921">
        <ele>210.019</ele>
        <time>2016-12-30T17:12:14Z</time>
      </trkpt>
      <trkpt lat="43.33545" lon="-0.37979">
        <ele>205.009</ele>
        <time>2016-12-30T17:12:34Z</time>
      </trkpt>
      <trkpt lat="43.33586" lon="-0.38411">
        <ele>203.019</ele>
        <time>2016-12-30T17:13:34Z</time>
      </trkpt>
      <trkpt lat="43.33576" lon="-0.38511">
        <ele>202.008</ele>
        <time>2016-12-30T17:13:54Z</time>
      </trkpt>
      <trkpt lat="43.33609" lon="-0.38601">
        <ele>201.978</ele>
        <time>2016-12-30T17:14:14Z</time>
      </trkpt>
      <trkpt lat="43.33652" lon="-0.38963">
        <ele>199.661</ele>
        <time>2016-12-30T17:14:34Z</time>
      </trkpt>
      <trkpt lat="43.33684" lon="-0.39077">
        <ele>199.667</ele>
        <time>2016-12-30T17:14:54Z</time>
      </trkpt>
      <trkpt lat="43.33757" lon="-0.39238">
        <ele>200.036</ele>
        <time>2016-12-30T17:15:14Z</time>
      </trkpt>
      <trkpt lat="43.33857" lon="-0.39506">
        <ele>200.043</ele>
        <time>2016-12-30T17:15:34Z</time>
      </trkpt>
      <trkpt lat="43.33593" lon="-0.39637">
        <ele>193.084</ele>
        <time>2016-12-30T17:15:54Z</time>
      </trkpt>
      <trkpt lat="43.3363" lon="-0.40781">
        <ele>187.373</ele>
        <time>2016-12-30T17:16:14Z</time>
      </trkpt>
      <trkpt lat="43.33601" lon="-0.40802">
        <ele>188.444</ele>
        <time>2016-12-30T17:16:34Z</time>
      </trkpt>
      <trkpt lat="43.33534" lon="-0.4092">
        <ele>190.034</ele>
        <time>2016-12-30T17:16:54Z</time>
      </trkpt>
      <trkpt lat="43.33537" lon="-0.41161">
        <ele>190.055</ele>
        <time>2016-12-30T17:17:14Z</time>
      </trkpt>
      <trkpt lat="43.33521" lon="-0.41227">
        <ele>190.01</ele>
        <time>2016-12-30T17:17:34Z</time>
      </trkpt>
      <trkpt lat="43.33535" lon="-0.41332">
        <ele>190.008</ele>
        <time>2016-12-30T17:17:54Z</time>
      </trkpt>
      <trkpt lat="43.33542" lon="-0.41556">
        <ele>189.58</ele>
        <time>2016-12-30T17:18:14Z</time>
      </trkpt>
      <trkpt lat="43.33501" lon="-0.41566">
        <ele>189.633</ele>
        <time>2016-12-30T17:18:34Z</time>
      </trkpt>
      <trkpt lat="43.3341" lon="-0.42006">
        <ele>185.569</ele>
        <time>2016-12-30T17:18:54Z</time>
      </trkpt>
      <trkpt lat="43.33382" lon="-0.42231">
        <ele>183.088</ele>
        <time>2016-12-30T17:19:14Z</time>
      </trkpt>
      <trkpt lat="43.33375" lon="-0.42358">
        <ele>182.035</ele>
        <time>2016-12-30T17:19:34Z</time>
      </trkpt>
      <trkpt lat="43.33385" lon="-0.4244">
        <ele>182.086</ele>
        <time>2016-12-30T17:19:54Z</time>
      </trkpt>
      <trkpt lat="43.33418" lon="-0.42566">
        <ele>182.195</ele>
        <time>2016-12-30T17:20:14Z</time>
      </trkpt>
      <trkpt lat="43.33415" lon="-0.42598">
        <ele>181.976</ele>
        <time>2016-12-30T17:20:34Z</time>
      </trkpt>
      <trkpt lat="43.3344" lon="-0.42639">
        <ele>182.788</ele>
        <time>2016-12-30T17:20:54Z</time>
      </trkpt>
      <trkpt lat="43.33459" lon="-0.42729">
        <ele>182.524</ele>
        <time>2016-12-30T17:21:14Z</time>
      </trkpt>
      <trkpt lat="43.33471" lon="-0.42927">
        <ele>182.026</ele>
        <time>2016-12-30T17:21:34Z</time>
      </trkpt>
      <trkpt lat="43.33409" lon="-0.42952">
        <ele>178.608</ele>
        <time>2016-12-30T17:21:54Z</time>
      </trkpt>
      <trkpt lat="43.33419" lon="-0.43003">
        <ele>183.065</ele>
        <time>2021-04-18T04:05:50Z</time>
      </trkpt>
      <trkpt lat="43.33367" lon="-0.43024">
        <ele>182.578</ele>
        <time>2021-04-18T04:06:10Z</time>
      </trkpt>
      <trkpt lat="43.33377" lon="-0.43093">
        <ele>181.694</ele>
        <time>2021-04-18T04:06:30Z</time>
      </trkpt>
      <trkpt lat="43.33379" lon="-0.43159">
        <ele>182.333</ele>
        <time>2021-04-18T04:06:50Z</time>
      </trkpt>
      <trkpt lat="43.33395" lon="-0.43193">
        <ele>181.05</ele>
        <time>2021-04-18T04:07:10Z</time>
      </trkpt>
      <trkpt lat="43.33397" lon="-0.43232">
        <ele>179.871</ele>
        <time>2021-04-18T04:07:30Z</time>
      </trkpt>
      <trkpt lat="43.33381" lon="-0.43187">
        <ele>181.88</ele>
        <time>2021-04-18T04:07:50Z</time>
      </trkpt>
      <trkpt lat="43.3334" lon="-0.43156">
        <ele>183.481</ele>
        <time>2021-04-18T04:08:10Z</time>
      </trkpt>
      <trkpt lat="43.33302" lon="-0.43115">
        <ele>182.483</ele>
        <time>2021-04-18T04:08:30Z</time>
      </trkpt>
      <trkpt lat="43.33256" lon="-0.43112">
        <ele>182.625</ele>
        <time>2021-04-18T04:08:50Z</time>
      </trkpt>
      <trkpt lat="43.33235" lon="-0.43117">
        <ele>182.017</ele>
        <time>2021-04-18T04:09:10Z</time>
      </trkpt>
      <trkpt lat="43.33238" lon="-0.43135">
        <ele>182.408</ele>
        <time>2021-04-18T04:09:30Z</time>
      </trkpt>
      <trkpt lat="43.33223" lon="-0.43148">
        <ele>181.645</ele>
        <time>2021-04-18T04:09:50Z</time>
      </trkpt>
      <trkpt lat="43.332" lon="-0.43155">
        <ele>179.828</ele>
        <time>2021-04-18T04:10:10Z</time>
      </trkpt>
      <trkpt lat="43.33178" lon="-0.43175">
        <ele>177.874</ele>
        <time>2021-04-18T04:10:30Z</time>
      </trkpt>
      <trkpt lat="43.33197" lon="-0.43216">
        <ele>179.393</ele>
        <time>2016-12-30T17:25:34Z</time>
      </trkpt>
      <trkpt lat="43.33232" lon="-0.4327">
        <ele>179.77</ele>
        <time>2016-12-30T17:25:54Z</time>
      </trkpt>
      <trkpt lat="43.3329" lon="-0.43387">
        <ele>178.011</ele>
        <time>2021-04-18T04:11:30Z</time>
      </trkpt>
      <trkpt lat="43.33306" lon="-0.43392">
        <ele>178.83</ele>
        <time>2021-04-18T04:11:50Z</time>
      </trkpt>
      <trkpt lat="43.33333" lon="-0.43372">
        <ele>181.631</ele>
        <time>2021-04-18T04:12:10Z</time>
      </trkpt>
      <trkpt lat="43.33328" lon="-0.43446">
        <ele>176.919</ele>
        <time>2021-04-18T04:12:30Z</time>
      </trkpt>
      <trkpt lat="43.33296" lon="-0.43519">
        <ele>168.809</ele>
        <time>2016-12-30T17:26:34Z</time>
      </trkpt>
      <trkpt lat="43.33263" lon="-0.43623">
        <ele>161.819</ele>
        <time>2021-04-18T04:13:10Z</time>
      </trkpt>
      <trkpt lat="43.33244" lon="-0.43664">
        <ele>160.808</ele>
        <time>2021-04-18T04:13:30Z</time>
      </trkpt>
      <trkpt lat="43.33287" lon="-0.43753">
        <ele>157.248</ele>
        <time>2016-12-30T17:27:34Z</time>
      </trkpt>
      <trkpt lat="43.3327" lon="-0.43779">
        <ele>155.791</ele>
        <time>2016-12-30T17:27:54Z</time>
      </trkpt>
      <trkpt lat="43.33281" lon="-0.43937">
        <ele>154.177</ele>
        <time>2016-12-30T17:28:14Z</time>
      </trkpt>
      <trkpt lat="43.33264" lon="-0.44023">
        <ele>154.046</ele>
        <time>2016-12-30T17:28:34Z</time>
      </trkpt>
      <trkpt lat="43.33303" lon="-0.44182">
        <ele>154.063</ele>
        <time>2016-12-30T17:28:54Z</time>
      </trkpt>
      <trkpt lat="43.33323" lon="-0.44369">
        <ele>152.794</ele>
        <time>2016-12-30T17:29:14Z</time>
      </trkpt>
      <trkpt lat="43.33354" lon="-0.44525">
        <ele>151.013</ele>
        <time>2016-12-30T17:29:34Z</time>
      </trkpt>
      <trkpt lat="43.33337" lon="-0.4483">
        <ele>149.164</ele>
        <time>2016-12-30T17:29:54Z</time>
      </trkpt>
      <trkpt lat="43.3334" lon="-0.45102">
        <ele>149.237</ele>
        <time>2016-12-30T17:30:14Z</time>
      </trkpt>
      <trkpt lat="43.33328" lon="-0.45246">
        <ele>148.049</ele>
        <time>2016-12-30T17:30:34Z</time>
      </trkpt>
      <trkpt lat="43.33273" lon="-0.45545">
        <ele>147.013</ele>
        <time>2016-12-30T17:30:54Z</time>
      </trkpt>
      <trkpt lat="43.33251" lon="-0.45605">
        <ele>146.008</ele>
        <time>2016-12-30T17:31:14Z</time>
      </trkpt>
      <trkpt lat="43.33232" lon="-0.45894">
        <ele>145.02</ele>
        <time>2016-12-30T17:31:34Z</time>
      </trkpt>
      <trkpt lat="43.33192" lon="-0.45965">
        <ele>145.053</ele>
        <time>2016-12-30T17:31:54Z</time>
      </trkpt>
      <trkpt lat="43.33117" lon="-0.46023">
        <ele>145.089</ele>
        <time>2016-12-30T17:32:14Z</time>
      </trkpt>
      <trkpt lat="43.33067" lon="-0.46051">
        <ele>145.018</ele>
        <time>2016-12-30T17:32:34Z</time>
      </trkpt>
      <trkpt lat="43.33048" lon="-0.46098">
        <ele>145.015</ele>
        <time>2016-12-30T17:32:54Z</time>
      </trkpt>
      <trkpt lat="43.3305" lon="-0.46162">
        <ele>145.086</ele>
        <time>2016-12-30T17:33:14Z</time>
      </trkpt>
      <trkpt lat="43.33105" lon="-0.46227">
        <ele>146.475</ele>
        <time>2021-04-18T04:19:50Z</time>
      </trkpt>
      <trkpt lat="43.33156" lon="-0.4627">
        <ele>145.026</ele>
        <time>2016-12-30T17:33:54Z</time>
      </trkpt>
      <trkpt lat="43.33203" lon="-0.46353">
        <ele>145.049</ele>
        <time>2016-12-30T17:34:14Z</time>
      </trkpt>
      <trkpt lat="43.33178" lon="-0.46444">
        <ele>145.002</ele>
        <time>2016-12-30T17:34:34Z</time>
      </trkpt>
      <trkpt lat="43.33184" lon="-0.46502">
        <ele>145.022</ele>
        <time>2016-12-30T17:34:54Z</time>
      </trkpt>
      <trkpt lat="43.3322" lon="-0.46568">
        <ele>145.008</ele>
        <time>2016-12-30T17:35:14Z</time>
      </trkpt>
      <trkpt lat="43.33247" lon="-0.46459">
        <ele>145.061</ele>
        <time>2016-12-30T17:35:34Z</time>
      </trkpt>
      <trkpt lat="43.33014" lon="-0.46635">
        <ele>145.034</ele>
        <time>2016-12-30T17:35:54Z</time>
      </trkpt>
      <trkpt lat="43.33072" lon="-0.46652">
        <ele>145.08</ele>
        <time>2016-12-30T17:36:14Z</time>
      </trkpt>
      <trkpt lat="43.33053" lon="-0.46708">
        <ele>145.039</ele>
        <time>2016-12-30T17:36:34Z</time>
      </trkpt>
      <trkpt lat="43.32989" lon="-0.46759">
        <ele>145.026</ele>
        <time>2016-12-30T17:36:54Z</time>
      </trkpt>
      <trkpt lat="43.32942" lon="-0.46834">
        <ele>145.077</ele>
        <time>2016-12-30T17:37:14Z</time>
      </trkpt>
      <trkpt lat="43.3288" lon="-0.46883">
        <ele>145.096</ele>
        <time>2016-12-30T17:37:34Z</time>
      </trkpt>
      <trkpt lat="43.32836" lon="-0.46971">
        <ele>145.097</ele>
        <time>2016-12-30T17:37:54Z</time>
      </trkpt>
      <trkpt lat="43.32809" lon="-0.47051">
        <ele>145.052</ele>
        <time>2016-12-30T17:38:14Z</time>
      </trkpt>
      <trkpt lat="43.3282" lon="-0.4715">
        <ele>145.053</ele>
        <time>2016-12-30T17:38:34Z</time>
      </trkpt>
      <trkpt lat="43.32811" lon="-0.47231">
        <ele>144.708</ele>
        <time>2016-12-30T17:38:54Z</time>
      </trkpt>
      <trkpt lat="43.32841" lon="-0.47446">
        <ele>143.008</ele>
        <time>2016-12-30T17:39:14Z</time>
      </trkpt>
      <trkpt lat="43.32875" lon="-0.4751">
        <ele>143.012</ele>
        <time>2016-12-30T17:39:34Z</time>
      </trkpt>
      <trkpt lat="43.32842" lon="-0.47538">
        <ele>143.025</ele>
        <time>2016-12-30T17:39:54Z</time>
      </trkpt>
      <trkpt lat="43.32806" lon="-0.47555">
        <ele>143.041</ele>
        <time>2016-12-30T17:40:14Z</time>
      </trkpt>
      <trkpt lat="43.32789" lon="-0.47574">
        <ele>143.08</ele>
        <time>2016-12-30T17:40:34Z</time>
      </trkpt>
      <trkpt lat="43.32763" lon="-0.47587">
        <ele>146.057</ele>
        <time>2021-04-18T04:27:10Z</time>
      </trkpt>
      <trkpt lat="43.32703" lon="-0.47576">
        <ele>144.468</ele>
        <time>2021-04-18T04:27:30Z</time>
      </trkpt>
      <trkpt lat="43.32673" lon="-0.47548">
        <ele>144.057</ele>
        <time>2021-04-18T04:27:50Z</time>
      </trkpt>
      <trkpt lat="43.32519" lon="-0.47639">
        <ele>143.378</ele>
        <time>2016-12-30T17:42:34Z</time>
      </trkpt>
      <trkpt lat="43.3244" lon="-0.47716">
        <ele>144.093</ele>
        <time>2016-12-30T17:42:54Z</time>
      </trkpt>
      <trkpt lat="43.3239" lon="-0.47682">
        <ele>144.065</ele>
        <time>2016-12-30T17:43:14Z</time>
      </trkpt>
      <trkpt lat="43.32332" lon="-0.47712">
        <ele>144.021</ele>
        <time>2016-12-30T17:43:34Z</time>
      </trkpt>
      <trkpt lat="43.32277" lon="-0.47785">
        <ele>146.008</ele>
        <time>2016-12-30T17:43:54Z</time>
      </trkpt>
      <trkpt lat="43.32212" lon="-0.47662">
        <ele>148.356</ele>
        <time>2016-12-30T17:44:14Z</time>
      </trkpt>
      <trkpt lat="43.32134" lon="-0.47585">
        <ele>149.279</ele>
        <time>2016-12-30T17:44:34Z</time>
      </trkpt>
      <trkpt lat="43.3212" lon="-0.47603">
        <ele>149.965</ele>
        <time>2021-04-18T04:30:30Z</time>
      </trkpt>
      <trkpt lat="43.32028" lon="-0.47577">
        <ele>151.614</ele>
        <time>2021-04-18T04:30:50Z</time>
      </trkpt>
      <trkpt lat="43.31992" lon="-0.47542">
        <ele>151.471</ele>
        <time>2021-04-18T04:31:10Z</time>
      </trkpt>
      <trkpt lat="43.31968" lon="-0.47534">
        <ele>150.982</ele>
        <time>2021-04-18T04:31:30Z</time>
      </trkpt>
      <trkpt lat="43.31895" lon="-0.47568">
        <ele>150.131</ele>
        <time>2021-04-18T04:31:50Z</time>
      </trkpt>
      <trkpt lat="43.31865" lon="-0.47571">
        <ele>150.112</ele>
        <time>2021-04-18T04:32:10Z</time>
      </trkpt>
      <trkpt lat="43.31848" lon="-0.47563">
        <ele>150.246</ele>
        <time>2021-04-18T04:32:30Z</time>
      </trkpt>
      <trkpt lat="43.31837" lon="-0.47553">
        <ele>150.488</ele>
        <time>2021-04-18T04:32:50Z</time>
      </trkpt>
      <trkpt lat="43.31778" lon="-0.47619">
        <ele>150.916</ele>
        <time>2021-04-18T04:33:10Z</time>
      </trkpt>
      <trkpt lat="43.31765" lon="-0.47615">
        <ele>151.308</ele>
        <time>2021-04-18T04:33:30Z</time>
      </trkpt>
      <trkpt lat="43.31677" lon="-0.47536">
        <ele>152.561</ele>
        <time>2021-04-18T04:33:50Z</time>
      </trkpt>
      <trkpt lat="43.31626" lon="-0.47587">
        <ele>153.914</ele>
        <time>2021-04-18T04:34:10Z</time>
      </trkpt>
      <trkpt lat="43.31566" lon="-0.47671">
        <ele>153.55</ele>
        <time>2021-04-18T04:34:30Z</time>
      </trkpt>
      <trkpt lat="43.31521" lon="-0.47722">
        <ele>156.629</ele>
        <time>2021-04-18T04:34:50Z</time>
      </trkpt>
      <trkpt lat="43.31481" lon="-0.47757">
        <ele>159.176</ele>
        <time>2021-04-18T04:35:10Z</time>
      </trkpt>
      <trkpt lat="43.31455" lon="-0.47772">
        <ele>150.627</ele>
        <time>2016-12-30T17:49:14Z</time>
      </trkpt>
      <trkpt lat="43.31316" lon="-0.47778">
        <ele>162.316</ele>
        <time>2021-04-18T04:35:50Z</time>
      </trkpt>
      <trkpt lat="43.31254" lon="-0.47845">
        <ele>166.767</ele>
        <time>2016-12-30T17:49:54Z</time>
      </trkpt>
      <trkpt lat="43.312" lon="-0.47939">
        <ele>171.122</ele>
        <time>2016-12-30T17:50:14Z</time>
      </trkpt>
      <trkpt lat="43.31144" lon="-0.47997">
        <ele>174.762</ele>
        <time>2016-12-30T17:50:34Z</time>
      </trkpt>
      <trkpt lat="43.31043" lon="-0.48059">
        <ele>195.308</ele>
        <time>2016-12-30T17:50:54Z</time>
      </trkpt>
      <trkpt lat="43.31008" lon="-0.48126">
        <ele>203.608</ele>
        <time>2016-12-30T17:51:14Z</time>
      </trkpt>
      <trkpt lat="43.30933" lon="-0.48189">
        <ele>221.579</ele>
        <time>2016-12-30T17:51:34Z</time>
      </trkpt>
      <trkpt lat="43.30885" lon="-0.48221">
        <ele>234.182</ele>
        <time>2016-12-30T17:51:54Z</time>
      </trkpt>
      <trkpt lat="43.30853" lon="-0.48265">
        <ele>241.548</ele>
        <time>2016-12-30T17:52:14Z</time>
      </trkpt>
      <trkpt lat="43.30805" lon="-0.48358">
        <ele>251.967</ele>
        <time>2016-12-30T17:52:34Z</time>
      </trkpt>
      <trkpt lat="43.30804" lon="-0.48534">
        <ele>265.984</ele>
        <time>2016-12-30T17:52:54Z</time>
      </trkpt>
      <trkpt lat="43.30784" lon="-0.48621">
        <ele>269.865</ele>
        <time>2016-12-30T17:53:14Z</time>
      </trkpt>
      <trkpt lat="43.3075" lon="-0.48863">
        <ele>273.714</ele>
        <time>2016-12-30T17:53:34Z</time>
      </trkpt>
      <trkpt lat="43.3071" lon="-0.48881">
        <ele>270.645</ele>
        <time>2016-12-30T17:53:54Z</time>
      </trkpt>
      <trkpt lat="43.30324" lon="-0.48901">
        <ele>284.082</ele>
        <time>2016-12-30T17:54:14Z</time>
      </trkpt>
      <trkpt lat="43.30273" lon="-0.48884">
        <ele>284.943</ele>
        <time>2016-12-30T17:54:34Z</time>
      </trkpt>
      <trkpt lat="43.3009" lon="-0.48748">
        <ele>279.617</ele>
        <time>2016-12-30T17:54:54Z</time>
      </trkpt>
      <trkpt lat="43.30013" lon="-0.48778">
        <ele>276.108</ele>
        <time>2016-12-30T17:55:14Z</time>
      </trkpt>
      <trkpt lat="43.29962" lon="-0.48837">
        <ele>276.485</ele>
        <time>2016-12-30T17:55:34Z</time>
      </trkpt>
      <trkpt lat="43.29946" lon="-0.48878">
        <ele>279.978</ele>
        <time>2016-12-30T17:55:54Z</time>
      </trkpt>
      <trkpt lat="43.29954" lon="-0.48928">
        <ele>279.394</ele>
        <time>2016-12-30T17:56:14Z</time>
      </trkpt>
      <trkpt lat="43.29982" lon="-0.49014">
        <ele>283.243</ele>
        <time>2016-12-30T17:56:34Z</time>
      </trkpt>
      <trkpt lat="43.29978" lon="-0.49075">
        <ele>281.38</ele>
        <time>2016-12-30T17:56:54Z</time>
      </trkpt>
      <trkpt lat="43.29894" lon="-0.49277">
        <ele>272.961</ele>
        <time>2016-12-30T17:57:14Z</time>
      </trkpt>
      <trkpt lat="43.29884" lon="-0.49421">
        <ele>258.61</ele>
        <time>2016-12-30T17:57:34Z</time>
      </trkpt>
      <trkpt lat="43.29874" lon="-0.49546">
        <ele>246.011</ele>
        <time>2016-12-30T17:57:54Z</time>
      </trkpt>
      <trkpt lat="43.29857" lon="-0.49676">
        <ele>236.283</ele>
        <time>2016-12-30T17:58:14Z</time>
      </trkpt>
      <trkpt lat="43.29871" lon="-0.49704">
        <ele>233.425</ele>
        <time>2016-12-30T17:58:34Z</time>
      </trkpt>
      <trkpt lat="43.29903" lon="-0.49711">
        <ele>229.317</ele>
        <time>2016-12-30T17:58:54Z</time>
      </trkpt>
      <trkpt lat="43.29933" lon="-0.49767">
        <ele>221.908</ele>
        <time>2016-12-30T17:59:14Z</time>
      </trkpt>
      <trkpt lat="43.29989" lon="-0.49811">
        <ele>213.765</ele>
        <time>2016-12-30T17:59:34Z</time>
      </trkpt>
      <trkpt lat="43.3003" lon="-0.49826">
        <ele>205.998</ele>
        <time>2016-12-30T17:59:54Z</time>
      </trkpt>
      <trkpt lat="43.3011" lon="-0.49778">
        <ele>192.234</ele>
        <time>2016-12-30T18:00:14Z</time>
      </trkpt>
      <trkpt lat="43.30136" lon="-0.49805">
        <ele>184.773</ele>
        <time>2016-12-30T18:00:34Z</time>
      </trkpt>
      <trkpt lat="43.3014" lon="-0.4991">
        <ele>179.08</ele>
        <time>2016-12-30T18:00:54Z</time>
      </trkpt>
      <trkpt lat="43.30155" lon="-0.49952">
        <ele>173.751</ele>
        <time>2016-12-30T18:01:14Z</time>
      </trkpt>
      <trkpt lat="43.30138" lon="-0.50053">
        <ele>170.41</ele>
        <time>2016-12-30T18:01:34Z</time>
      </trkpt>
      <trkpt lat="43.30169" lon="-0.50068">
        <ele>162.721</ele>
        <time>2016-12-30T18:01:54Z</time>
      </trkpt>
      <trkpt lat="43.3017" lon="-0.50169">
        <ele>155.653</ele>
        <time>2016-12-30T18:02:14Z</time>
      </trkpt>
      <trkpt lat="43.30156" lon="-0.50359">
        <ele>147.704</ele>
        <time>2016-12-30T18:02:34Z</time>
      </trkpt>
      <trkpt lat="43.30095" lon="-0.50303">
        <ele>149.014</ele>
        <time>2016-12-30T18:02:54Z</time>
      </trkpt>
      <trkpt lat="43.30062" lon="-0.50256">
        <ele>150.708</ele>
        <time>2016-12-30T18:03:14Z</time>
      </trkpt>
      <trkpt lat="43.30019" lon="-0.50224">
        <ele>150.932</ele>
        <time>2016-12-30T18:03:34Z</time>
      </trkpt>
      <trkpt lat="43.29859" lon="-0.50176">
        <ele>149.485</ele>
        <time>2016-12-30T18:03:54Z</time>
      </trkpt>
      <trkpt lat="43.2985" lon="-0.50195">
        <ele>148.071</ele>
        <time>2016-12-30T18:04:14Z</time>
      </trkpt>
      <trkpt lat="43.29807" lon="-0.50176">
        <ele>149.42</ele>
        <time>2016-12-30T18:04:34Z</time>
      </trkpt>
      <trkpt lat="43.29722" lon="-0.50166">
        <ele>150.117</ele>
        <time>2016-12-30T18:04:54Z</time>
      </trkpt>
      <trkpt lat="43.29669" lon="-0.50202">
        <ele>147.738</ele>
        <time>2016-12-30T18:05:14Z</time>
      </trkpt>
      <trkpt lat="43.29625" lon="-0.50215">
        <ele>149.257</ele>
        <time>2016-12-30T18:05:34Z</time>
      </trkpt>
      <trkpt lat="43.29587" lon="-0.5026">
        <ele>149.248</ele>
        <time>2016-12-30T18:05:54Z</time>
      </trkpt>
      <trkpt lat="43.29496" lon="-0.50267">
        <ele>144.473</ele>
        <time>2016-12-30T18:06:14Z</time>
      </trkpt>
      <trkpt lat="43.29427" lon="-0.50306">
        <ele>144.085</ele>
        <time>2016-12-30T18:06:34Z</time>
      </trkpt>
      <trkpt lat="43.2921" lon="-0.50323">
        <ele>145.313</ele>
        <time>2016-12-30T18:06:54Z</time>
      </trkpt>
      <trkpt lat="43.29173" lon="-0.5031">
        <ele>144.408</ele>
        <time>2016-12-30T18:07:14Z</time>
      </trkpt>
      <trkpt lat="43.29129" lon="-0.50412">
        <ele>142.284</ele>
        <time>2016-12-30T18:07:34Z</time>
      </trkpt>
      <trkpt lat="43.29129" lon="-0.50442">
        <ele>142.027</ele>
        <time>2016-12-30T18:07:54Z</time>
      </trkpt>
      <trkpt lat="43.29094" lon="-0.50503">
        <ele>141.043</ele>
        <time>2016-12-30T18:08:14Z</time>
      </trkpt>
      <trkpt lat="43.29016" lon="-0.50471">
        <ele>140.682</ele>
        <time>2016-12-30T18:08:34Z</time>
      </trkpt>
      <trkpt lat="43.29015" lon="-0.50506">
        <ele>140.099</ele>
        <time>2016-12-30T18:08:54Z</time>
      </trkpt>
      <trkpt lat="43.2903" lon="-0.50623">
        <ele>140.06</ele>
        <time>2016-12-30T18:09:14Z</time>
      </trkpt>
      <trkpt lat="43.2905" lon="-0.5067">
        <ele>140.179</ele>
        <time>2016-12-30T18:09:34Z</time>
      </trkpt>
      <trkpt lat="43.29078" lon="-0.50853">
        <ele>142.89</ele>
        <time>2016-12-30T18:09:54Z</time>
      </trkpt>
      <trkpt lat="43.28928" lon="-0.50965">
        <ele>147.924</ele>
        <time>2016-12-30T18:10:14Z</time>
      </trkpt>
      <trkpt lat="43.28765" lon="-0.50979">
        <ele>150.204</ele>
        <time>2016-12-30T18:10:34Z</time>
      </trkpt>
      <trkpt lat="43.28692" lon="-0.50963">
        <ele>150.814</ele>
        <time>2016-12-30T18:10:54Z</time>
      </trkpt>
      <trkpt lat="43.28628" lon="-0.50974">
        <ele>152.408</ele>
        <time>2016-12-30T18:11:14Z</time>
      </trkpt>
      <trkpt lat="43.28545" lon="-0.50972">
        <ele>152.399</ele>
        <time>2016-12-30T18:11:34Z</time>
      </trkpt>
      <trkpt lat="43.28521" lon="-0.50978">
        <ele>151.242</ele>
        <time>2016-12-30T18:11:54Z</time>
      </trkpt>
      <trkpt lat="43.28561" lon="-0.50918">
        <ele>152.088</ele>
        <time>2016-12-30T18:12:14Z</time>
      </trkpt>
      <trkpt lat="43.28582" lon="-0.50732">
        <ele>147.327</ele>
        <time>2016-12-30T18:12:34Z</time>
      </trkpt>
      <trkpt lat="43.28461" lon="-0.50635">
        <ele>146.464</ele>
        <time>2016-12-30T18:12:54Z</time>
      </trkpt>
      <trkpt lat="43.2841" lon="-0.50619">
        <ele>147.575</ele>
        <time>2016-12-30T18:13:14Z</time>
      </trkpt>
      <trkpt lat="43.28395" lon="-0.50455">
        <ele>148.494</ele>
        <time>2021-04-18T04:59:50Z</time>
      </trkpt>
      <trkpt lat="43.28381" lon="-0.50401">
        <ele>144.065</ele>
        <time>2016-12-30T18:13:54Z</time>
      </trkpt>
      <trkpt lat="43.2831" lon="-0.50447">
        <ele>144.171</ele>
        <time>2016-12-30T18:14:14Z</time>
      </trkpt>
      <trkpt lat="43.28189" lon="-0.50467">
        <ele>144.841</ele>
        <time>2016-12-30T18:14:34Z</time>
      </trkpt>
      <trkpt lat="43.28146" lon="-0.50495">
        <ele>145.615</ele>
        <time>2016-12-30T18:14:54Z</time>
      </trkpt>
      <trkpt lat="43.28107" lon="-0.50576">
        <ele>147.808</ele>
        <time>2016-12-30T18:15:14Z</time>
      </trkpt>
      <trkpt lat="43.27975" lon="-0.50674">
        <ele>150.214</ele>
        <time>2016-12-30T18:15:34Z</time>
      </trkpt>
      <trkpt lat="43.2794" lon="-0.50695">
        <ele>150.967</ele>
        <time>2016-12-30T18:15:54Z</time>
      </trkpt>
      <trkpt lat="43.27903" lon="-0.50797">
        <ele>152.773</ele>
        <time>2016-12-30T18:16:14Z</time>
      </trkpt>
      <trkpt lat="43.27858" lon="-0.50798">
        <ele>158.452</ele>
        <time>2021-04-18T05:02:50Z</time>
      </trkpt>
      <trkpt lat="43.27842" lon="-0.50802">
        <ele>153.119</ele>
        <time>2016-12-30T18:16:54Z</time>
      </trkpt>
      <trkpt lat="43.27806" lon="-0.50782">
        <ele>152.15</ele>
        <time>2016-12-30T18:17:14Z</time>
      </trkpt>
      <trkpt lat="43.27771" lon="-0.50843">
        <ele>156.659</ele>
        <time>2016-12-30T18:17:34Z</time>
      </trkpt>
      <trkpt lat="43.27737" lon="-0.5085">
        <ele>158.69</ele>
        <time>2016-12-30T18:17:54Z</time>
      </trkpt>
      <trkpt lat="43.27718" lon="-0.50906">
        <ele>160.893</ele>
        <time>2016-12-30T18:18:14Z</time>
      </trkpt>
      <trkpt lat="43.2767" lon="-0.5093">
        <ele>162.465</ele>
        <time>2016-12-30T18:18:34Z</time>
      </trkpt>
      <trkpt lat="43.2764" lon="-0.50979">
        <ele>168.321</ele>
        <time>2021-04-18T05:05:10Z</time>
      </trkpt>
      <trkpt lat="43.27556" lon="-0.50909">
        <ele>164.608</ele>
        <time>2021-04-18T05:05:30Z</time>
      </trkpt>
      <trkpt lat="43.27453" lon="-0.50869">
        <ele>162.116</ele>
        <time>2016-12-30T18:19:34Z</time>
      </trkpt>
      <trkpt lat="43.27423" lon="-0.50848">
        <ele>164.129</ele>
        <time>2016-12-30T18:19:54Z</time>
      </trkpt>
      <trkpt lat="43.27278" lon="-0.51015">
        <ele>176.095</ele>
        <time>2016-12-30T18:20:14Z</time>
      </trkpt>
      <trkpt lat="43.27229" lon="-0.51042">
        <ele>177.624</ele>
        <time>2016-12-30T18:20:34Z</time>
      </trkpt>
      <trkpt lat="43.27192" lon="-0.5112">
        <ele>177.281</ele>
        <time>2016-12-30T18:20:54Z</time>
      </trkpt>
      <trkpt lat="43.27088" lon="-0.51066">
        <ele>162.262</ele>
        <time>2016-12-30T18:21:14Z</time>
      </trkpt>
      <trkpt lat="43.27033" lon="-0.51222">
        <ele>169.341</ele>
        <time>2016-12-30T18:21:34Z</time>
      </trkpt>
      <trkpt lat="43.27036" lon="-0.51264">
        <ele>172.232</ele>
        <time>2016-12-30T18:21:54Z</time>
      </trkpt>
      <trkpt lat="43.27004" lon="-0.51348">
        <ele>173.883</ele>
        <time>2016-12-30T18:22:14Z</time>
      </trkpt>
      <trkpt lat="43.2696" lon="-0.5138">
        <ele>170.425</ele>
        <time>2016-12-30T18:23:14Z</time>
      </trkpt>
      <trkpt lat="43.26916" lon="-0.5142">
        <ele>176.017</ele>
        <time>2016-12-30T18:23:34Z</time>
      </trkpt>
      <trkpt lat="43.26825" lon="-0.5143">
        <ele>182.708</ele>
        <time>2016-12-30T18:23:54Z</time>
      </trkpt>
      <trkpt lat="43.26768" lon="-0.51458">
        <ele>184.875</ele>
        <time>2016-12-30T18:24:14Z</time>
      </trkpt>
      <trkpt lat="43.26697" lon="-0.5146">
        <ele>205.938</ele>
        <time>2021-04-18T05:10:10Z</time>
      </trkpt>
      <trkpt lat="43.2662" lon="-0.51414">
        <ele>206.894</ele>
        <time>2021-04-18T05:10:30Z</time>
      </trkpt>
      <trkpt lat="43.26542" lon="-0.51393">
        <ele>212.163</ele>
        <time>2021-04-18T05:10:50Z</time>
      </trkpt>
      <trkpt lat="43.26532" lon="-0.5141">
        <ele>211.28</ele>
        <time>2021-04-18T05:11:10Z</time>
      </trkpt>
      <trkpt lat="43.2654" lon="-0.51437">
        <ele>213.171</ele>
        <time>2021-04-18T05:11:30Z</time>
      </trkpt>
      <trkpt lat="43.26541" lon="-0.51485">
        <ele>219.26</ele>
        <time>2021-04-18T05:11:50Z</time>
      </trkpt>
      <trkpt lat="43.26508" lon="-0.51566">
        <ele>234.961</ele>
        <time>2021-04-18T05:12:10Z</time>
      </trkpt>
      <trkpt lat="43.26456" lon="-0.51605">
        <ele>250.579</ele>
        <time>2021-04-18T05:12:30Z</time>
      </trkpt>
      <trkpt lat="43.26414" lon="-0.51609">
        <ele>259.705</ele>
        <time>2021-04-18T05:12:50Z</time>
      </trkpt>
      <trkpt lat="43.26427" lon="-0.51659">
        <ele>269.225</ele>
        <time>2021-04-18T05:13:10Z</time>
      </trkpt>
      <trkpt lat="43.26413" lon="-0.51673">
        <ele>274.408</ele>
        <time>2021-04-18T05:13:30Z</time>
      </trkpt>
      <trkpt lat="43.26419" lon="-0.51758">
        <ele>276.984</ele>
        <time>2021-04-18T05:13:50Z</time>
      </trkpt>
      <trkpt lat="43.2643" lon="-0.51783">
        <ele>273.827</ele>
        <time>2021-04-18T05:14:10Z</time>
      </trkpt>
      <trkpt lat="43.26418" lon="-0.51811">
        <ele>272.273</ele>
        <time>2021-04-18T05:14:30Z</time>
      </trkpt>
      <trkpt lat="43.26467" lon="-0.51907">
        <ele>259.452</ele>
        <time>2021-04-18T05:14:50Z</time>
      </trkpt>
      <trkpt lat="43.26357" lon="-0.51957">
        <ele>230.699</ele>
        <time>2016-12-30T18:29:14Z</time>
      </trkpt>
      <trkpt lat="43.26337" lon="-0.52039">
        <ele>230.01</ele>
        <time>2016-12-30T18:29:34Z</time>
      </trkpt>
      <trkpt lat="43.26332" lon="-0.52086">
        <ele>230.399</ele>
        <time>2016-12-30T18:29:54Z</time>
      </trkpt>
      <trkpt lat="43.26278" lon="-0.52095">
        <ele>230.07</ele>
        <time>2016-12-30T18:30:14Z</time>
      </trkpt>
      <trkpt lat="43.26203" lon="-0.52126">
        <ele>232.749</ele>
        <time>2016-12-30T18:30:34Z</time>
      </trkpt>
      <trkpt lat="43.26163" lon="-0.52162">
        <ele>235.402</ele>
        <time>2016-12-30T18:30:54Z</time>
      </trkpt>
      <trkpt lat="43.26145" lon="-0.522">
        <ele>235.222</ele>
        <time>2016-12-30T18:31:14Z</time>
      </trkpt>
      <trkpt lat="43.26043" lon="-0.52341">
        <ele>243.408</ele>
        <time>2016-12-30T18:31:34Z</time>
      </trkpt>
      <trkpt lat="43.26017" lon="-0.52359">
        <ele>244.041</ele>
        <time>2016-12-30T18:31:54Z</time>
      </trkpt>
      <trkpt lat="43.25946" lon="-0.52463">
        <ele>245.094</ele>
        <time>2016-12-30T18:32:14Z</time>
      </trkpt>
      <trkpt lat="43.25945" lon="-0.52497">
        <ele>245.99</ele>
        <time>2016-12-30T18:32:34Z</time>
      </trkpt>
      <trkpt lat="43.25922" lon="-0.52569">
        <ele>253.779</ele>
        <time>2016-12-30T18:32:54Z</time>
      </trkpt>
      <trkpt lat="43.25925" lon="-0.52607">
        <ele>259.136</ele>
        <time>2016-12-30T18:33:14Z</time>
      </trkpt>
      <trkpt lat="43.2585" lon="-0.52724">
        <ele>290.347</ele>
        <time>2016-12-30T18:33:34Z</time>
      </trkpt>
      <trkpt lat="43.25829" lon="-0.52789">
        <ele>295.246</ele>
        <time>2016-12-30T18:33:54Z</time>
      </trkpt>
      <trkpt lat="43.25818" lon="-0.52855">
        <ele>297.987</ele>
        <time>2016-12-30T18:34:14Z</time>
      </trkpt>
      <trkpt lat="43.25823" lon="-0.529">
        <ele>300.997</ele>
        <time>2016-12-30T18:34:34Z</time>
      </trkpt>
      <trkpt lat="43.25808" lon="-0.52988">
        <ele>312.123</ele>
        <time>2016-12-30T18:34:54Z</time>
      </trkpt>
      <trkpt lat="43.25745" lon="-0.53097">
        <ele>315.425</ele>
        <time>2016-12-30T18:35:14Z</time>
      </trkpt>
      <trkpt lat="43.2571" lon="-0.53115">
        <ele>311.708</ele>
        <time>2016-12-30T18:35:34Z</time>
      </trkpt>
      <trkpt lat="43.2564" lon="-0.53103">
        <ele>314.956</ele>
        <time>2016-12-30T18:35:54Z</time>
      </trkpt>
      <trkpt lat="43.25619" lon="-0.53117">
        <ele>315.669</ele>
        <time>2016-12-30T18:36:14Z</time>
      </trkpt>
      <trkpt lat="43.25578" lon="-0.53121">
        <ele>318.425</ele>
        <time>2016-12-30T18:36:34Z</time>
      </trkpt>
      <trkpt lat="43.25446" lon="-0.53277">
        <ele>311.914</ele>
        <time>2016-12-30T18:36:54Z</time>
      </trkpt>
      <trkpt lat="43.25343" lon="-0.53256">
        <ele>307.271</ele>
        <time>2016-12-30T18:37:14Z</time>
      </trkpt>
      <trkpt lat="43.25295" lon="-0.53323">
        <ele>300.962</ele>
        <time>2016-12-30T18:37:34Z</time>
      </trkpt>
      <trkpt lat="43.25259" lon="-0.53539">
        <ele>283.491</ele>
        <time>2016-12-30T18:37:54Z</time>
      </trkpt>
      <trkpt lat="43.2525" lon="-0.53626">
        <ele>280.512</ele>
        <time>2016-12-30T18:38:14Z</time>
      </trkpt>
      <trkpt lat="43.25232" lon="-0.53732">
        <ele>276.381</ele>
        <time>2016-12-30T18:38:34Z</time>
      </trkpt>
      <trkpt lat="43.25193" lon="-0.53813">
        <ele>263.461</ele>
        <time>2016-12-30T18:38:54Z</time>
      </trkpt>
      <trkpt lat="43.25102" lon="-0.53784">
        <ele>244.217</ele>
        <time>2016-12-30T18:39:14Z</time>
      </trkpt>
      <trkpt lat="43.25084" lon="-0.53739">
        <ele>237.408</ele>
        <time>2016-12-30T18:39:34Z</time>
      </trkpt>
      <trkpt lat="43.25103" lon="-0.5371">
        <ele>242.635</ele>
        <time>2016-12-30T18:39:54Z</time>
      </trkpt>
      <trkpt lat="43.25107" lon="-0.53625">
        <ele>232.768</ele>
        <time>2016-12-30T18:40:14Z</time>
      </trkpt>
      <trkpt lat="43.25097" lon="-0.53628">
        <ele>230.794</ele>
        <time>2016-12-30T18:40:34Z</time>
      </trkpt>
      <trkpt lat="43.25041" lon="-0.53694">
        <ele>218.323</ele>
        <time>2016-12-30T18:40:54Z</time>
      </trkpt>
      <trkpt lat="43.24902" lon="-0.53864">
        <ele>204.18</ele>
        <time>2016-12-30T18:41:14Z</time>
      </trkpt>
      <trkpt lat="43.24877" lon="-0.53847">
        <ele>204.761</ele>
        <time>2016-12-30T18:41:34Z</time>
      </trkpt>
      <trkpt lat="43.24808" lon="-0.53872">
        <ele>206.03</ele>
        <time>2016-12-30T18:41:54Z</time>
      </trkpt>
      <trkpt lat="43.24775" lon="-0.53936">
        <ele>208.951</ele>
        <time>2016-12-30T18:42:14Z</time>
      </trkpt>
      <trkpt lat="43.24727" lon="-0.53946">
        <ele>212.721</ele>
        <time>2016-12-30T18:42:34Z</time>
      </trkpt>
      <trkpt lat="43.24575" lon="-0.53917">
        <ele>223.641</ele>
        <time>2016-12-30T18:42:54Z</time>
      </trkpt>
      <trkpt lat="43.24389" lon="-0.53969">
        <ele>244.905</ele>
        <time>2016-12-30T18:43:14Z</time>
      </trkpt>
      <trkpt lat="43.24321" lon="-0.53935">
        <ele>262.008</ele>
        <time>2016-12-30T18:43:34Z</time>
      </trkpt>
      <trkpt lat="43.24315" lon="-0.53909">
        <ele>268.899</ele>
        <time>2016-12-30T18:43:54Z</time>
      </trkpt>
      <trkpt lat="43.24336" lon="-0.53846">
        <ele>279.182</ele>
        <time>2016-12-30T18:44:14Z</time>
      </trkpt>
      <trkpt lat="43.24326" lon="-0.53798">
        <ele>284.928</ele>
        <time>2016-12-30T18:44:34Z</time>
      </trkpt>
      <trkpt lat="43.2429" lon="-0.53778">
        <ele>293.477</ele>
        <time>2016-12-30T18:44:54Z</time>
      </trkpt>
      <trkpt lat="43.24274" lon="-0.5376">
        <ele>295.694</ele>
        <time>2016-12-30T18:45:14Z</time>
      </trkpt>
      <trkpt lat="43.24244" lon="-0.53756">
        <ele>302.185</ele>
        <time>2016-12-30T18:45:34Z</time>
      </trkpt>
      <trkpt lat="43.24217" lon="-0.53741">
        <ele>304.834</ele>
        <time>2016-12-30T18:45:54Z</time>
      </trkpt>
      <trkpt lat="43.24184" lon="-0.53743">
        <ele>307.755</ele>
        <time>2016-12-30T18:46:14Z</time>
      </trkpt>
      <trkpt lat="43.24155" lon="-0.53798">
        <ele>310.099</ele>
        <time>2016-12-30T18:46:34Z</time>
      </trkpt>
      <trkpt lat="43.24059" lon="-0.53747">
        <ele>310.007</ele>
        <time>2016-12-30T18:46:54Z</time>
      </trkpt>
      <trkpt lat="43.24006" lon="-0.53746">
        <ele>310.027</ele>
        <time>2016-12-30T18:47:14Z</time>
      </trkpt>
      <trkpt lat="43.23968" lon="-0.53765">
        <ele>310.008</ele>
        <time>2016-12-30T18:47:34Z</time>
      </trkpt>
      <trkpt lat="43.23854" lon="-0.53726">
        <ele>320.066</ele>
        <time>2016-12-30T18:47:54Z</time>
      </trkpt>
      <trkpt lat="43.23825" lon="-0.53727">
        <ele>319.319</ele>
        <time>2016-12-30T18:48:14Z</time>
      </trkpt>
      <trkpt lat="43.23768" lon="-0.53701">
        <ele>316.645</ele>
        <time>2016-12-30T18:48:34Z</time>
      </trkpt>
      <trkpt lat="43.23621" lon="-0.53706">
        <ele>319.784</ele>
        <time>2016-12-30T18:48:54Z</time>
      </trkpt>
      <trkpt lat="43.23584" lon="-0.53689">
        <ele>318.221</ele>
        <time>2016-12-30T18:49:14Z</time>
      </trkpt>
      <trkpt lat="43.2355" lon="-0.5369">
        <ele>315.282</ele>
        <time>2016-12-30T18:49:34Z</time>
      </trkpt>
      <trkpt lat="43.23544" lon="-0.53672">
        <ele>315.931</ele>
        <time>2016-12-30T18:49:54Z</time>
      </trkpt>
      <trkpt lat="43.23291" lon="-0.53694">
        <ele>320.872</ele>
        <time>2016-12-30T18:50:14Z</time>
      </trkpt>
      <trkpt lat="43.23197" lon="-0.53684">
        <ele>310.986</ele>
        <time>2016-12-30T18:50:34Z</time>
      </trkpt>
      <trkpt lat="43.2314" lon="-0.53735">
        <ele>314.96</ele>
        <time>2016-12-30T18:50:54Z</time>
      </trkpt>
      <trkpt lat="43.22999" lon="-0.53782">
        <ele>321.726</ele>
        <time>2016-12-30T18:51:14Z</time>
      </trkpt>
      <trkpt lat="43.22931" lon="-0.53765">
        <ele>323.008</ele>
        <time>2016-12-30T18:51:34Z</time>
      </trkpt>
      <trkpt lat="43.22897" lon="-0.53778">
        <ele>322.995</ele>
        <time>2016-12-30T18:51:54Z</time>
      </trkpt>
      <trkpt lat="43.22821" lon="-0.53881">
        <ele>324.118</ele>
        <time>2016-12-30T18:52:14Z</time>
      </trkpt>
      <trkpt lat="43.22691" lon="-0.54005">
        <ele>315.954</ele>
        <time>2016-12-30T18:52:34Z</time>
      </trkpt>
      <trkpt lat="43.22486" lon="-0.54154">
        <ele>328.873</ele>
        <time>2016-12-30T18:52:54Z</time>
      </trkpt>
      <trkpt lat="43.2243" lon="-0.54205">
        <ele>330.49</ele>
        <time>2016-12-30T18:53:14Z</time>
      </trkpt>
      <trkpt lat="43.22459" lon="-0.54238">
        <ele>338.591</ele>
        <time>2016-12-30T18:53:34Z</time>
      </trkpt>
      <trkpt lat="43.22472" lon="-0.54304">
        <ele>344.06</ele>
        <time>2016-12-30T18:53:54Z</time>
      </trkpt>
      <trkpt lat="43.22475" lon="-0.54376">
        <ele>347.931</ele>
        <time>2016-12-30T18:54:14Z</time>
      </trkpt>
      <trkpt lat="43.225" lon="-0.54447">
        <ele>348.055</ele>
        <time>2016-12-30T18:54:34Z</time>
      </trkpt>
      <trkpt lat="43.22496" lon="-0.54539">
        <ele>345.707</ele>
        <time>2016-12-30T18:54:54Z</time>
      </trkpt>
      <trkpt lat="43.22511" lon="-0.54704">
        <ele>336.117</ele>
        <time>2016-12-30T18:55:14Z</time>
      </trkpt>
      <trkpt lat="43.22493" lon="-0.549">
        <ele>330.708</ele>
        <time>2016-12-30T18:55:34Z</time>
      </trkpt>
      <trkpt lat="43.22538" lon="-0.55012">
        <ele>334.572</ele>
        <time>2016-12-30T18:55:54Z</time>
      </trkpt>
      <trkpt lat="43.22537" lon="-0.55133">
        <ele>340.915</ele>
        <time>2016-12-30T18:56:14Z</time>
      </trkpt>
      <trkpt lat="43.22554" lon="-0.55196">
        <ele>343.571</ele>
        <time>2016-12-30T18:56:34Z</time>
      </trkpt>
      <trkpt lat="43.22582" lon="-0.55247">
        <ele>346.08</ele>
        <time>2016-12-30T18:56:54Z</time>
      </trkpt>
      <trkpt lat="43.22594" lon="-0.55305">
        <ele>346.327</ele>
        <time>2016-12-30T18:57:14Z</time>
      </trkpt>
      <trkpt lat="43.22601" lon="-0.55367">
        <ele>354.118</ele>
        <time>2016-12-30T18:57:34Z</time>
      </trkpt>
      <trkpt lat="43.22636" lon="-0.55437">
        <ele>359.887</ele>
        <time>2016-12-30T18:57:54Z</time>
      </trkpt>
      <trkpt lat="43.22683" lon="-0.55501">
        <ele>360.058</ele>
        <time>2016-12-30T18:58:14Z</time>
      </trkpt>
      <trkpt lat="43.22759" lon="-0.55693">
        <ele>355.055</ele>
        <time>2016-12-30T18:58:34Z</time>
      </trkpt>
      <trkpt lat="43.22742" lon="-0.55776">
        <ele>350.107</ele>
        <time>2016-12-30T18:58:54Z</time>
      </trkpt>
      <trkpt lat="43.22744" lon="-0.55818">
        <ele>343.317</ele>
        <time>2016-12-30T18:59:14Z</time>
      </trkpt>
      <trkpt lat="43.22707" lon="-0.55813">
        <ele>336.008</ele>
        <time>2016-12-30T18:59:34Z</time>
      </trkpt>
      <trkpt lat="43.22645" lon="-0.55789">
        <ele>327.762</ele>
        <time>2016-12-30T18:59:54Z</time>
      </trkpt>
      <trkpt lat="43.22596" lon="-0.55781">
        <ele>317.545</ele>
        <time>2016-12-30T19:00:14Z</time>
      </trkpt>
      <trkpt lat="43.22553" lon="-0.55773">
        <ele>312.371</ele>
        <time>2016-12-30T19:00:34Z</time>
      </trkpt>
      <trkpt lat="43.22587" lon="-0.55845">
        <ele>302.17</ele>
        <time>2016-12-30T19:00:54Z</time>
      </trkpt>
      <trkpt lat="43.22556" lon="-0.55847">
        <ele>295.637</ele>
        <time>2016-12-30T19:01:14Z</time>
      </trkpt>
      <trkpt lat="43.22516" lon="-0.55887">
        <ele>286.058</ele>
        <time>2016-12-30T19:01:34Z</time>
      </trkpt>
      <trkpt lat="43.22521" lon="-0.55939">
        <ele>284.497</ele>
        <time>2016-12-30T19:01:54Z</time>
      </trkpt>
      <trkpt lat="43.22554" lon="-0.5599">
        <ele>285.368</ele>
        <time>2016-12-30T19:02:14Z</time>
      </trkpt>
      <trkpt lat="43.22585" lon="-0.56027">
        <ele>281.127</ele>
        <time>2016-12-30T19:02:34Z</time>
      </trkpt>
      <trkpt lat="43.22575" lon="-0.56078">
        <ele>276.668</ele>
        <time>2016-12-30T19:02:54Z</time>
      </trkpt>
      <trkpt lat="43.22575" lon="-0.56179">
        <ele>269.614</ele>
        <time>2016-12-30T19:03:14Z</time>
      </trkpt>
      <trkpt lat="43.2255" lon="-0.56225">
        <ele>264.908</ele>
        <time>2016-12-30T19:03:34Z</time>
      </trkpt>
      <trkpt lat="43.22523" lon="-0.56292">
        <ele>257.119</ele>
        <time>2016-12-30T19:03:54Z</time>
      </trkpt>
      <trkpt lat="43.22532" lon="-0.56315">
        <ele>256.932</ele>
        <time>2016-12-30T19:04:14Z</time>
      </trkpt>
      <trkpt lat="43.22493" lon="-0.56311">
        <ele>251.638</ele>
        <time>2016-12-30T19:04:34Z</time>
      </trkpt>
      <trkpt lat="43.22465" lon="-0.56261">
        <ele>249.197</ele>
        <time>2016-12-30T19:04:54Z</time>
      </trkpt>
      <trkpt lat="43.22389" lon="-0.56259">
        <ele>242.134</ele>
        <time>2016-12-30T19:05:14Z</time>
      </trkpt>
      <trkpt lat="43.22344" lon="-0.56244">
        <ele>243.425</ele>
        <time>2016-12-30T19:05:34Z</time>
      </trkpt>
      <trkpt lat="43.222" lon="-0.56454">
        <ele>240.064</ele>
        <time>2016-12-30T19:05:54Z</time>
      </trkpt>
      <trkpt lat="43.22189" lon="-0.56499">
        <ele>240.095</ele>
        <time>2016-12-30T19:06:14Z</time>
      </trkpt>
      <trkpt lat="43.22119" lon="-0.5655">
        <ele>242.389</ele>
        <time>2016-12-30T19:06:34Z</time>
      </trkpt>
      <trkpt lat="43.22197" lon="-0.56603">
        <ele>241.606</ele>
        <time>2016-12-30T19:06:54Z</time>
      </trkpt>
      <trkpt lat="43.22232" lon="-0.56665">
        <ele>240.726</ele>
        <time>2016-12-30T19:07:14Z</time>
      </trkpt>
      <trkpt lat="43.22252" lon="-0.56735">
        <ele>239.008</ele>
        <time>2016-12-30T19:07:34Z</time>
      </trkpt>
      <trkpt lat="43.2226" lon="-0.56809">
        <ele>239.135</ele>
        <time>2016-12-30T19:07:54Z</time>
      </trkpt>
      <trkpt lat="43.22275" lon="-0.56841">
        <ele>239.198</ele>
        <time>2016-12-30T19:08:14Z</time>
      </trkpt>
      <trkpt lat="43.22273" lon="-0.56906">
        <ele>241.684</ele>
        <time>2016-12-30T19:08:34Z</time>
      </trkpt>
      <trkpt lat="43.22309" lon="-0.56999">
        <ele>241.633</ele>
        <time>2016-12-30T19:08:54Z</time>
      </trkpt>
      <trkpt lat="43.22341" lon="-0.57048">
        <ele>239.54</ele>
        <time>2016-12-30T19:09:14Z</time>
      </trkpt>
      <trkpt lat="43.22356" lon="-0.57119">
        <ele>244.931</ele>
        <time>2016-12-30T19:09:34Z</time>
      </trkpt>
      <trkpt lat="43.22329" lon="-0.572">
        <ele>255.86</ele>
        <time>2016-12-30T19:09:54Z</time>
      </trkpt>
      <trkpt lat="43.22271" lon="-0.57262">
        <ele>268.481</ele>
        <time>2016-12-30T19:10:14Z</time>
      </trkpt>
      <trkpt lat="43.22217" lon="-0.57286">
        <ele>280.296</ele>
        <time>2016-12-30T19:10:34Z</time>
      </trkpt>
      <trkpt lat="43.22177" lon="-0.57278">
        <ele>285.231</ele>
        <time>2016-12-30T19:10:54Z</time>
      </trkpt>
      <trkpt lat="43.22084" lon="-0.57229">
        <ele>294.624</ele>
        <time>2016-12-30T19:11:14Z</time>
      </trkpt>
      <trkpt lat="43.21999" lon="-0.57349">
        <ele>319.308</ele>
        <time>2016-12-30T19:11:34Z</time>
      </trkpt>
      <trkpt lat="43.21932" lon="-0.57295">
        <ele>323.066</ele>
        <time>2016-12-30T19:11:54Z</time>
      </trkpt>
      <trkpt lat="43.21879" lon="-0.57228">
        <ele>320.199</ele>
        <time>2016-12-30T19:12:14Z</time>
      </trkpt>
      <trkpt lat="43.21771" lon="-0.57262">
        <ele>336.715</ele>
        <time>2016-12-30T19:12:34Z</time>
      </trkpt>
      <trkpt lat="43.21722" lon="-0.57265">
        <ele>343.724</ele>
        <time>2016-12-30T19:12:54Z</time>
      </trkpt>
      <trkpt lat="43.21642" lon="-0.57072">
        <ele>340.731</ele>
        <time>2016-12-30T19:13:14Z</time>
      </trkpt>
      <trkpt lat="43.21568" lon="-0.5705">
        <ele>345.072</ele>
        <time>2016-12-30T19:13:34Z</time>
      </trkpt>
      <trkpt lat="43.2154" lon="-0.57094">
        <ele>343.721</ele>
        <time>2016-12-30T19:13:54Z</time>
      </trkpt>
      <trkpt lat="43.21529" lon="-0.57193">
        <ele>334.352</ele>
        <time>2016-12-30T19:14:14Z</time>
      </trkpt>
      <trkpt lat="43.2145" lon="-0.57203">
        <ele>313.263</ele>
        <time>2016-12-30T19:14:34Z</time>
      </trkpt>
      <trkpt lat="43.2136" lon="-0.57379">
        <ele>291.644</ele>
        <time>2016-12-30T19:14:54Z</time>
      </trkpt>
      <trkpt lat="43.21249" lon="-0.57406">
        <ele>284.218</ele>
        <time>2016-12-30T19:15:14Z</time>
      </trkpt>
      <trkpt lat="43.2115" lon="-0.5746">
        <ele>272.508</ele>
        <time>2016-12-30T19:15:34Z</time>
      </trkpt>
      <trkpt lat="43.21066" lon="-0.57515">
        <ele>262.783</ele>
        <time>2016-12-30T19:15:54Z</time>
      </trkpt>
      <trkpt lat="43.21049" lon="-0.57573">
        <ele>258.076</ele>
        <time>2016-12-30T19:16:14Z</time>
      </trkpt>
      <trkpt lat="43.2106" lon="-0.57614">
        <ele>255.052</ele>
        <time>2016-12-30T19:16:34Z</time>
      </trkpt>
      <trkpt lat="43.21094" lon="-0.57664">
        <ele>249.871</ele>
        <time>2016-12-30T19:16:54Z</time>
      </trkpt>
      <trkpt lat="43.21116" lon="-0.57742">
        <ele>245.938</ele>
        <time>2016-12-30T19:17:14Z</time>
      </trkpt>
      <trkpt lat="43.21139" lon="-0.5779">
        <ele>246.619</ele>
        <time>2016-12-30T19:17:34Z</time>
      </trkpt>
      <trkpt lat="43.2114" lon="-0.5782">
        <ele>245.738</ele>
        <time>2016-12-30T19:17:54Z</time>
      </trkpt>
      <trkpt lat="43.2108" lon="-0.57801">
        <ele>246.249</ele>
        <time>2016-12-30T19:18:14Z</time>
      </trkpt>
      <trkpt lat="43.20992" lon="-0.57811">
        <ele>257.119</ele>
        <time>2016-12-30T19:18:34Z</time>
      </trkpt>
      <trkpt lat="43.20869" lon="-0.57808">
        <ele>273.209</ele>
        <time>2016-12-30T19:18:54Z</time>
      </trkpt>
      <trkpt lat="43.20792" lon="-0.5786">
        <ele>282.519</ele>
        <time>2016-12-30T19:19:14Z</time>
      </trkpt>
      <trkpt lat="43.20812" lon="-0.57909">
        <ele>283.708</ele>
        <time>2016-12-30T19:19:34Z</time>
      </trkpt>
      <trkpt lat="43.20876" lon="-0.57926">
        <ele>285.038</ele>
        <time>2016-12-30T19:19:54Z</time>
      </trkpt>
      <trkpt lat="43.20888" lon="-0.57956">
        <ele>285.011</ele>
        <time>2016-12-30T19:20:14Z</time>
      </trkpt>
      <trkpt lat="43.20895" lon="-0.58056">
        <ele>284.697</ele>
        <time>2016-12-30T19:20:34Z</time>
      </trkpt>
      <trkpt lat="43.20858" lon="-0.58136">
        <ele>288.326</ele>
        <time>2016-12-30T19:20:54Z</time>
      </trkpt>
      <trkpt lat="43.20844" lon="-0.58254">
        <ele>291.463</ele>
        <time>2016-12-30T19:21:14Z</time>
      </trkpt>
      <trkpt lat="43.20854" lon="-0.58358">
        <ele>305.954</ele>
        <time>2021-04-18T06:07:30Z</time>
      </trkpt>
      <trkpt lat="43.20829" lon="-0.58434">
        <ele>313.333</ele>
        <time>2021-04-18T06:07:50Z</time>
      </trkpt>
      <trkpt lat="43.20791" lon="-0.58456">
        <ele>312.884</ele>
        <time>2021-04-18T06:08:10Z</time>
      </trkpt>
      <trkpt lat="43.20776" lon="-0.58488">
        <ele>313.073</ele>
        <time>2021-04-18T06:08:30Z</time>
      </trkpt>
      <trkpt lat="43.20747" lon="-0.58492">
        <ele>300.685</ele>
        <time>2016-12-30T19:23:14Z</time>
      </trkpt>
      <trkpt lat="43.20697" lon="-0.58454">
        <ele>292.813</ele>
        <time>2016-12-30T19:23:34Z</time>
      </trkpt>
      <trkpt lat="43.20705" lon="-0.58422">
        <ele>292.908</ele>
        <time>2016-12-30T19:23:54Z</time>
      </trkpt>
      <trkpt lat="43.20679" lon="-0.58395">
        <ele>289.494</ele>
        <time>2016-12-30T19:24:14Z</time>
      </trkpt>
      <trkpt lat="43.20646" lon="-0.58404">
        <ele>285.097</ele>
        <time>2016-12-30T19:24:34Z</time>
      </trkpt>
      <trkpt lat="43.20633" lon="-0.58331">
        <ele>279.543</ele>
        <time>2016-12-30T19:24:54Z</time>
      </trkpt>
      <trkpt lat="43.20621" lon="-0.58299">
        <ele>285.412</ele>
        <time>2021-04-18T06:10:50Z</time>
      </trkpt>
      <trkpt lat="43.20575" lon="-0.58272">
        <ele>265.669</ele>
        <time>2016-12-30T19:25:34Z</time>
      </trkpt>
      <trkpt lat="43.20555" lon="-0.58245">
        <ele>260.46</ele>
        <time>2016-12-30T19:25:54Z</time>
      </trkpt>
      <trkpt lat="43.20541" lon="-0.58275">
        <ele>269.189</ele>
        <time>2021-04-18T06:11:50Z</time>
      </trkpt>
      <trkpt lat="43.20528" lon="-0.58365">
        <ele>268.12</ele>
        <time>2021-04-18T06:12:10Z</time>
      </trkpt>
      <trkpt lat="43.20533" lon="-0.58425">
        <ele>257.987</ele>
        <time>2016-12-30T19:26:34Z</time>
      </trkpt>
      <trkpt lat="43.2055" lon="-0.58555">
        <ele>259.942</ele>
        <time>2016-12-30T19:26:54Z</time>
      </trkpt>
      <trkpt lat="43.20586" lon="-0.58571">
        <ele>272.126</ele>
        <time>2021-04-18T06:13:10Z</time>
      </trkpt>
      <trkpt lat="43.20581" lon="-0.58591">
        <ele>270.108</ele>
        <time>2021-04-18T06:13:30Z</time>
      </trkpt>
      <trkpt lat="43.2056" lon="-0.5861">
        <ele>266.185</ele>
        <time>2021-04-18T06:13:50Z</time>
      </trkpt>
      <trkpt lat="43.20502" lon="-0.58625">
        <ele>247.168</ele>
        <time>2016-12-30T19:28:34Z</time>
      </trkpt>
      <trkpt lat="43.20417" lon="-0.58679">
        <ele>241.594</ele>
        <time>2016-12-30T19:28:54Z</time>
      </trkpt>
      <trkpt lat="43.20358" lon="-0.5874">
        <ele>243.323</ele>
        <time>2021-04-18T06:14:50Z</time>
      </trkpt>
      <trkpt lat="43.20172" lon="-0.58892">
        <ele>238.04</ele>
        <time>2016-12-30T19:29:14Z</time>
      </trkpt>
      <trkpt lat="43.20145" lon="-0.58974">
        <ele>237.261</ele>
        <time>2016-12-30T19:29:34Z</time>
      </trkpt>
      <trkpt lat="43.20106" lon="-0.59041">
        <ele>236.85</ele>
        <time>2016-12-30T19:29:54Z</time>
      </trkpt>
      <trkpt lat="43.20087" lon="-0.59138">
        <ele>236.041</ele>
        <time>2016-12-30T19:30:14Z</time>
      </trkpt>
      <trkpt lat="43.20056" lon="-0.59206">
        <ele>235.078</ele>
        <time>2016-12-30T19:30:34Z</time>
      </trkpt>
      <trkpt lat="43.20012" lon="-0.59204">
        <ele>235.433</ele>
        <time>2016-12-30T19:30:54Z</time>
      </trkpt>
      <trkpt lat="43.19962" lon="-0.59192">
        <ele>236.026</ele>
        <time>2016-12-30T19:31:14Z</time>
      </trkpt>
      <trkpt lat="43.19877" lon="-0.59339">
        <ele>235.008</ele>
        <time>2016-12-30T19:31:34Z</time>
      </trkpt>
      <trkpt lat="43.19556" lon="-0.59985">
        <ele>236.674</ele>
        <time>2021-04-18T06:17:50Z</time>
      </trkpt>
      <trkpt lat="43.19492" lon="-0.60081">
        <ele>235.547</ele>
        <time>2021-04-18T06:18:10Z</time>
      </trkpt>
      <trkpt lat="43.19489" lon="-0.6014">
        <ele>237.373</ele>
        <time>2021-04-18T06:18:30Z</time>
      </trkpt>
      <trkpt lat="43.19354" lon="-0.60373">
        <ele>237.222</ele>
        <time>2021-04-18T06:18:50Z</time>
      </trkpt>
      <trkpt lat="43.19295" lon="-0.60558">
        <ele>220.799</ele>
        <time>2021-04-18T06:19:10Z</time>
      </trkpt>
      <trkpt lat="43.19246" lon="-0.60629">
        <ele>213.08</ele>
        <time>2016-12-30T19:32:34Z</time>
      </trkpt>
      <trkpt lat="43.19225" lon="-0.6075">
        <ele>220.969</ele>
        <time>2021-04-18T06:19:50Z</time>
      </trkpt>
      <trkpt lat="43.19228" lon="-0.60917">
        <ele>212.84</ele>
        <time>2016-12-30T19:33:14Z</time>
      </trkpt>
      <trkpt lat="43.19201" lon="-0.60973">
        <ele>223.921</ele>
        <time>2021-04-18T06:20:30Z</time>
      </trkpt>
      <trkpt lat="43.19196" lon="-0.61271">
        <ele>223.841</ele>
        <time>2016-12-30T19:33:54Z</time>
      </trkpt>
      <trkpt lat="43.19247" lon="-0.61313">
        <ele>224.005</ele>
        <time>2016-12-30T19:34:14Z</time>
      </trkpt>
      <trkpt lat="43.19204" lon="-0.61351">
        <ele>225.408</ele>
        <time>2016-12-30T19:34:34Z</time>
      </trkpt>
      <trkpt lat="43.19151" lon="-0.61429">
        <ele>227.879</ele>
        <time>2016-12-30T19:34:54Z</time>
      </trkpt>
      <trkpt lat="43.19028" lon="-0.61735">
        <ele>232.022</ele>
        <time>2016-12-30T19:35:14Z</time>
      </trkpt>
      <trkpt lat="43.18993" lon="-0.61712">
        <ele>234.928</ele>
        <time>2021-04-18T06:22:30Z</time>
      </trkpt>
      <trkpt lat="43.18961" lon="-0.61667">
        <ele>233.467</ele>
        <time>2016-12-30T19:35:34Z</time>
      </trkpt>
      <trkpt lat="43.18906" lon="-0.61604">
        <ele>235.994</ele>
        <time>2021-04-18T06:23:10Z</time>
      </trkpt>
      <trkpt lat="43.18739" lon="-0.61525">
        <ele>238.515</ele>
        <time>2021-04-18T06:23:30Z</time>
      </trkpt>
      <trkpt lat="43.18732" lon="-0.61496">
        <ele>239.014</ele>
        <time>2021-04-18T06:23:50Z</time>
      </trkpt>
      <trkpt lat="43.18756" lon="-0.61459">
        <ele>234.595</ele>
        <time>2016-12-30T19:36:54Z</time>
      </trkpt>
      <trkpt lat="43.1878" lon="-0.61395">
        <ele>232.117</ele>
        <time>2021-04-18T06:24:30Z</time>
      </trkpt>
      <trkpt lat="43.18814" lon="-0.61337">
        <ele>224.987</ele>
        <time>2016-12-30T19:37:14Z</time>
      </trkpt>
      <trkpt lat="43.1883" lon="-0.61269">
        <ele>218.915</ele>
        <time>2016-12-30T19:38:14Z</time>
      </trkpt>
      <trkpt lat="43.18842" lon="-0.61166">
        <ele>214.008</ele>
        <time>2016-12-30T19:39:34Z</time>
      </trkpt>
      <trkpt lat="43.18871" lon="-0.61112">
        <ele>211.758</ele>
        <time>2016-12-30T19:39:54Z</time>
      </trkpt>
      <trkpt lat="43.1889" lon="-0.61041">
        <ele>210.091</ele>
        <time>2016-12-30T19:40:14Z</time>
      </trkpt>
      <trkpt lat="43.18863" lon="-0.61025">
        <ele>210.057</ele>
        <time>2016-12-30T19:40:34Z</time>
      </trkpt>
      <trkpt lat="43.18876" lon="-0.60956">
        <ele>213.416</ele>
        <time>2016-12-30T19:40:54Z</time>
      </trkpt>
      <trkpt lat="43.18826" lon="-0.60821">
        <ele>227.483</ele>
        <time>2016-12-30T19:41:14Z</time>
      </trkpt>
      <trkpt lat="43.18892" lon="-0.60761">
        <ele>250.594</ele>
        <time>2021-04-18T06:27:30Z</time>
      </trkpt>
      <trkpt lat="43.18873" lon="-0.6073">
        <ele>250.253</ele>
        <time>2016-12-30T19:41:54Z</time>
      </trkpt>
      <trkpt lat="43.1888" lon="-0.60727">
        <ele>252.054</ele>
        <time>2016-12-30T19:42:14Z</time>
      </trkpt>
      <trkpt lat="43.18869" lon="-0.60705">
        <ele>256.032</ele>
        <time>2016-12-30T19:42:34Z</time>
      </trkpt>
      <trkpt lat="43.18899" lon="-0.60731">
        <ele>253.492</ele>
        <time>2016-12-30T19:43:14Z</time>
      </trkpt>
      <trkpt lat="43.18927" lon="-0.60619">
        <ele>260.011</ele>
        <time>2016-12-30T19:43:34Z</time>
      </trkpt>
      <trkpt lat="43.18928" lon="-0.60537">
        <ele>260.008</ele>
        <time>2016-12-30T19:43:54Z</time>
      </trkpt>
      <trkpt lat="43.18905" lon="-0.60518">
        <ele>260.01</ele>
        <time>2016-12-30T19:44:14Z</time>
      </trkpt>
      <trkpt lat="43.18893" lon="-0.60497">
        <ele>260.063</ele>
        <time>2016-12-30T19:44:34Z</time>
      </trkpt>
      <trkpt lat="43.18857" lon="-0.60388">
        <ele>263.499</ele>
        <time>2021-04-18T06:30:30Z</time>
      </trkpt>
      <trkpt lat="43.18749" lon="-0.6026">
        <ele>266.088</ele>
        <time>2021-04-18T06:30:50Z</time>
      </trkpt>
      <trkpt lat="43.18609" lon="-0.60106">
        <ele>278.235</ele>
        <time>2016-12-30T19:45:34Z</time>
      </trkpt>
      <trkpt lat="43.18518" lon="-0.59999">
        <ele>279.396</ele>
        <time>2016-12-30T19:45:54Z</time>
      </trkpt>
      <trkpt lat="43.18426" lon="-0.5991">
        <ele>275.555</ele>
        <time>2016-12-30T19:46:14Z</time>
      </trkpt>
      <trkpt lat="43.18256" lon="-0.59857">
        <ele>271.736</ele>
        <time>2016-12-30T19:46:34Z</time>
      </trkpt>
      <trkpt lat="43.18132" lon="-0.59848">
        <ele>290.179</ele>
        <time>2016-12-30T19:46:54Z</time>
      </trkpt>
      <trkpt lat="43.18061" lon="-0.59867">
        <ele>284.905</ele>
        <time>2016-12-30T19:47:14Z</time>
      </trkpt>
      <trkpt lat="43.17986" lon="-0.59871">
        <ele>279.925</ele>
        <time>2016-12-30T19:47:34Z</time>
      </trkpt>
      <trkpt lat="43.17951" lon="-0.59842">
        <ele>279.108</ele>
        <time>2016-12-30T19:47:54Z</time>
      </trkpt>
      <trkpt lat="43.17925" lon="-0.59775">
        <ele>273.834</ele>
        <time>2016-12-30T19:48:14Z</time>
      </trkpt>
      <trkpt lat="43.17878" lon="-0.59706">
        <ele>270.337</ele>
        <time>2016-12-30T19:48:34Z</time>
      </trkpt>
      <trkpt lat="43.17819" lon="-0.59668">
        <ele>273.173</ele>
        <time>2016-12-30T19:48:54Z</time>
      </trkpt>
      <trkpt lat="43.17747" lon="-0.59595">
        <ele>268.382</ele>
        <time>2021-04-18T06:34:50Z</time>
      </trkpt>
      <trkpt lat="43.17587" lon="-0.59509">
        <ele>268.969</ele>
        <time>2016-12-30T19:49:34Z</time>
      </trkpt>
      <trkpt lat="43.17501" lon="-0.5939">
        <ele>279.08</ele>
        <time>2021-04-18T06:35:30Z</time>
      </trkpt>
      <trkpt lat="43.17439" lon="-0.59456">
        <ele>292.649</ele>
        <time>2016-12-30T19:50:14Z</time>
      </trkpt>
      <trkpt lat="43.17399" lon="-0.59474">
        <ele>303.42</ele>
        <time>2021-04-18T06:36:10Z</time>
      </trkpt>
      <trkpt lat="43.17368" lon="-0.59464">
        <ele>298.291</ele>
        <time>2016-12-30T19:50:34Z</time>
      </trkpt>
      <trkpt lat="43.17315" lon="-0.59389">
        <ele>299.381</ele>
        <time>2016-12-30T19:50:54Z</time>
      </trkpt>
      <trkpt lat="43.17259" lon="-0.59341">
        <ele>296.819</ele>
        <time>2016-12-30T19:51:14Z</time>
      </trkpt>
      <trkpt lat="43.17241" lon="-0.59281">
        <ele>299.508</ele>
        <time>2016-12-30T19:51:34Z</time>
      </trkpt>
      <trkpt lat="43.17123" lon="-0.59088">
        <ele>290.086</ele>
        <time>2016-12-30T19:51:54Z</time>
      </trkpt>
      <trkpt lat="43.17018" lon="-0.58979">
        <ele>289.659</ele>
        <time>2016-12-30T19:52:14Z</time>
      </trkpt>
      <trkpt lat="43.1686" lon="-0.58816">
        <ele>275.235</ele>
        <time>2016-12-30T19:52:34Z</time>
      </trkpt>
      <trkpt lat="43.16803" lon="-0.58744">
        <ele>272.494</ele>
        <time>2016-12-30T19:52:54Z</time>
      </trkpt>
      <trkpt lat="43.16717" lon="-0.58726">
        <ele>267.641</ele>
        <time>2016-12-30T19:53:14Z</time>
      </trkpt>
      <trkpt lat="43.16653" lon="-0.58667">
        <ele>266.042</ele>
        <time>2016-12-30T19:53:34Z</time>
      </trkpt>
      <trkpt lat="43.16618" lon="-0.58673">
        <ele>265.551</ele>
        <time>2016-12-30T19:53:54Z</time>
      </trkpt>
      <trkpt lat="43.16562" lon="-0.58719">
        <ele>272.322</ele>
        <time>2016-12-30T19:54:14Z</time>
      </trkpt>
      <trkpt lat="43.16528" lon="-0.58699">
        <ele>278.481</ele>
        <time>2016-12-30T19:54:34Z</time>
      </trkpt>
      <trkpt lat="43.16457" lon="-0.58705">
        <ele>281.761</ele>
        <time>2016-12-30T19:54:54Z</time>
      </trkpt>
      <trkpt lat="43.16396" lon="-0.58689">
        <ele>287.517</ele>
        <time>2016-12-30T19:55:14Z</time>
      </trkpt>
      <trkpt lat="43.16353" lon="-0.58635">
        <ele>295.008</ele>
        <time>2016-12-30T19:55:34Z</time>
      </trkpt>
      <trkpt lat="43.1619" lon="-0.58529">
        <ele>304.045</ele>
        <time>2016-12-30T19:55:54Z</time>
      </trkpt>
      <trkpt lat="43.16127" lon="-0.58529">
        <ele>308.168</ele>
        <time>2016-12-30T19:56:14Z</time>
      </trkpt>
      <trkpt lat="43.16071" lon="-0.58524">
        <ele>316.954</ele>
        <time>2016-12-30T19:56:34Z</time>
      </trkpt>
      <trkpt lat="43.15994" lon="-0.58476">
        <ele>319.623</ele>
        <time>2016-12-30T19:56:54Z</time>
      </trkpt>
      <trkpt lat="43.15866" lon="-0.58399">
        <ele>305.78</ele>
        <time>2016-12-30T19:57:14Z</time>
      </trkpt>
      <trkpt lat="43.15798" lon="-0.58379">
        <ele>299.811</ele>
        <time>2016-12-30T19:57:34Z</time>
      </trkpt>
      <trkpt lat="43.15739" lon="-0.58458">
        <ele>300.37</ele>
        <time>2016-12-30T19:57:54Z</time>
      </trkpt>
      <trkpt lat="43.15702" lon="-0.58466">
        <ele>303.431</ele>
        <time>2016-12-30T19:58:14Z</time>
      </trkpt>
      <trkpt lat="43.15567" lon="-0.58452">
        <ele>309.976</ele>
        <time>2016-12-30T19:58:34Z</time>
      </trkpt>
      <trkpt lat="43.15473" lon="-0.58474">
        <ele>308.69</ele>
        <time>2016-12-30T19:58:54Z</time>
      </trkpt>
      <trkpt lat="43.1532" lon="-0.58401">
        <ele>310.019</ele>
        <time>2016-12-30T19:59:14Z</time>
      </trkpt>
      <trkpt lat="43.15084" lon="-0.58321">
        <ele>310.008</ele>
        <time>2016-12-30T19:59:34Z</time>
      </trkpt>
      <trkpt lat="43.15033" lon="-0.58249">
        <ele>313.274</ele>
        <time>2021-04-18T06:45:50Z</time>
      </trkpt>
      <trkpt lat="43.14981" lon="-0.58147">
        <ele>312.517</ele>
        <time>2021-04-18T06:46:10Z</time>
      </trkpt>
      <trkpt lat="43.14939" lon="-0.58086">
        <ele>309.583</ele>
        <time>2016-12-30T19:59:54Z</time>
      </trkpt>
      <trkpt lat="43.14837" lon="-0.58176">
        <ele>297.682</ele>
        <time>2016-12-30T20:00:14Z</time>
      </trkpt>
      <trkpt lat="43.14813" lon="-0.58234">
        <ele>288.679</ele>
        <time>2016-12-30T20:00:34Z</time>
      </trkpt>
      <trkpt lat="43.14769" lon="-0.58249">
        <ele>289.12</ele>
        <time>2016-12-30T20:00:54Z</time>
      </trkpt>
      <trkpt lat="43.14764" lon="-0.58306">
        <ele>278.589</ele>
        <time>2016-12-30T20:01:14Z</time>
      </trkpt>
      <trkpt lat="43.14705" lon="-0.58371">
        <ele>269.33</ele>
        <time>2016-12-30T20:01:34Z</time>
      </trkpt>
      <trkpt lat="43.14644" lon="-0.58404">
        <ele>270.065</ele>
        <time>2016-12-30T20:01:54Z</time>
      </trkpt>
      <trkpt lat="43.14589" lon="-0.58415">
        <ele>271.968</ele>
        <time>2016-12-30T20:02:14Z</time>
      </trkpt>
      <trkpt lat="43.1443" lon="-0.58526">
        <ele>277.714</ele>
        <time>2016-12-30T20:02:34Z</time>
      </trkpt>
      <trkpt lat="43.14401" lon="-0.58581">
        <ele>274.208</ele>
        <time>2016-12-30T20:02:54Z</time>
      </trkpt>
      <trkpt lat="43.14275" lon="-0.5864">
        <ele>271.213</ele>
        <time>2016-12-30T20:03:14Z</time>
      </trkpt>
      <trkpt lat="43.14186" lon="-0.58661">
        <ele>271.096</ele>
        <time>2016-12-30T20:03:34Z</time>
      </trkpt>
      <trkpt lat="43.14151" lon="-0.58655">
        <ele>271.432</ele>
        <time>2016-12-30T20:03:54Z</time>
      </trkpt>
      <trkpt lat="43.1408" lon="-0.58667">
        <ele>265.891</ele>
        <time>2016-12-30T20:04:14Z</time>
      </trkpt>
      <trkpt lat="43.14032" lon="-0.58658">
        <ele>262.658</ele>
        <time>2016-12-30T20:04:34Z</time>
      </trkpt>
      <trkpt lat="43.14019" lon="-0.58682">
        <ele>260.349</ele>
        <time>2016-12-30T20:04:54Z</time>
      </trkpt>
      <trkpt lat="43.13974" lon="-0.58702">
        <ele>264.138</ele>
        <time>2016-12-30T20:05:14Z</time>
      </trkpt>
      <trkpt lat="43.13941" lon="-0.58749">
        <ele>270.849</ele>
        <time>2016-12-30T20:05:34Z</time>
      </trkpt>
      <trkpt lat="43.13938" lon="-0.58796">
        <ele>274.877</ele>
        <time>2016-12-30T20:05:54Z</time>
      </trkpt>
      <trkpt lat="43.13898" lon="-0.58827">
        <ele>275.261</ele>
        <time>2016-12-30T20:06:14Z</time>
      </trkpt>
      <trkpt lat="43.13888" lon="-0.58871">
        <ele>277.727</ele>
        <time>2016-12-30T20:06:34Z</time>
      </trkpt>
      <trkpt lat="43.13864" lon="-0.58896">
        <ele>277.708</ele>
        <time>2016-12-30T20:06:54Z</time>
      </trkpt>
      <trkpt lat="43.13843" lon="-0.58981">
        <ele>280.134</ele>
        <time>2016-12-30T20:07:14Z</time>
      </trkpt>
      <trkpt lat="43.13811" lon="-0.59017">
        <ele>283.167</ele>
        <time>2021-04-18T06:54:10Z</time>
      </trkpt>
      <trkpt lat="43.13745" lon="-0.59054">
        <ele>283.153</ele>
        <time>2016-12-30T20:07:54Z</time>
      </trkpt>
      <trkpt lat="43.1369" lon="-0.59075">
        <ele>279.752</ele>
        <time>2016-12-30T20:08:14Z</time>
      </trkpt>
      <trkpt lat="43.13636" lon="-0.59161">
        <ele>272.429</ele>
        <time>2016-12-30T20:08:34Z</time>
      </trkpt>
      <trkpt lat="43.13565" lon="-0.59209">
        <ele>271.75</ele>
        <time>2016-12-30T20:08:54Z</time>
      </trkpt>
      <trkpt lat="43.13487" lon="-0.5925">
        <ele>273.419</ele>
        <time>2016-12-30T20:09:14Z</time>
      </trkpt>
      <trkpt lat="43.13424" lon="-0.59313">
        <ele>270.87</ele>
        <time>2016-12-30T20:09:34Z</time>
      </trkpt>
      <trkpt lat="43.13361" lon="-0.59317">
        <ele>275.133</ele>
        <time>2016-12-30T20:09:54Z</time>
      </trkpt>
      <trkpt lat="43.13259" lon="-0.59474">
        <ele>272.123</ele>
        <time>2016-12-30T20:10:14Z</time>
      </trkpt>
      <trkpt lat="43.13204" lon="-0.59455">
        <ele>279.415</ele>
        <time>2021-04-18T06:57:10Z</time>
      </trkpt>
      <trkpt lat="43.1315" lon="-0.59404">
        <ele>287.208</ele>
        <time>2021-04-18T06:57:30Z</time>
      </trkpt>
      <trkpt lat="43.1311" lon="-0.59394">
        <ele>289.36</ele>
        <time>2021-04-18T06:57:50Z</time>
      </trkpt>
      <trkpt lat="43.13079" lon="-0.59364">
        <ele>291.623</ele>
        <time>2021-04-18T06:58:10Z</time>
      </trkpt>
      <trkpt lat="43.12947" lon="-0.59359">
        <ele>302.659</ele>
        <time>2016-12-30T20:12:34Z</time>
      </trkpt>
      <trkpt lat="43.12878" lon="-0.59343">
        <ele>306.028</ele>
        <time>2016-12-30T20:12:54Z</time>
      </trkpt>
      <trkpt lat="43.1278" lon="-0.59366">
        <ele>316.735</ele>
        <time>2021-04-18T06:59:10Z</time>
      </trkpt>
      <trkpt lat="43.12643" lon="-0.59285">
        <ele>301.716</ele>
        <time>2016-12-30T20:13:34Z</time>
      </trkpt>
      <trkpt lat="43.12498" lon="-0.59342">
        <ele>295.765</ele>
        <time>2016-12-30T20:13:54Z</time>
      </trkpt>
      <trkpt lat="43.12342" lon="-0.59352">
        <ele>293.956</ele>
        <time>2016-12-30T20:14:14Z</time>
      </trkpt>
      <trkpt lat="43.12156" lon="-0.59402">
        <ele>299.042</ele>
        <time>2016-12-30T20:14:34Z</time>
      </trkpt>
      <trkpt lat="43.12116" lon="-0.59453">
        <ele>299.422</ele>
        <time>2016-12-30T20:14:54Z</time>
      </trkpt>
      <trkpt lat="43.12074" lon="-0.59461">
        <ele>299.614</ele>
        <time>2016-12-30T20:15:14Z</time>
      </trkpt>
      <trkpt lat="43.12027" lon="-0.59483">
        <ele>300.008</ele>
        <time>2016-12-30T20:15:34Z</time>
      </trkpt>
      <trkpt lat="43.11986" lon="-0.59459">
        <ele>303.911</ele>
        <time>2016-12-30T20:15:54Z</time>
      </trkpt>
      <trkpt lat="43.11967" lon="-0.59384">
        <ele>299.654</ele>
        <time>2016-12-30T20:16:14Z</time>
      </trkpt>
      <trkpt lat="43.11927" lon="-0.59354">
        <ele>299.53</ele>
        <time>2016-12-30T20:16:34Z</time>
      </trkpt>
      <trkpt lat="43.1186" lon="-0.59368">
        <ele>310.949</ele>
        <time>2021-04-18T07:02:50Z</time>
      </trkpt>
      <trkpt lat="43.11758" lon="-0.59423">
        <ele>334.566</ele>
        <time>2021-04-18T07:03:10Z</time>
      </trkpt>
      <trkpt lat="43.11737" lon="-0.59598">
        <ele>331.297</ele>
        <time>2021-04-18T07:03:30Z</time>
      </trkpt>
      <trkpt lat="43.11699" lon="-0.59709">
        <ele>340.056</ele>
        <time>2021-04-18T07:03:50Z</time>
      </trkpt>
      <trkpt lat="43.1168" lon="-0.59873">
        <ele>328.217</ele>
        <time>2016-12-30T20:17:54Z</time>
      </trkpt>
      <trkpt lat="43.11644" lon="-0.59998">
        <ele>324.694</ele>
        <time>2016-12-30T20:18:14Z</time>
      </trkpt>
      <trkpt lat="43.11636" lon="-0.60042">
        <ele>323.257</ele>
        <time>2016-12-30T20:18:34Z</time>
      </trkpt>
      <trkpt lat="43.11606" lon="-0.60034">
        <ele>329.322</ele>
        <time>2016-12-30T20:18:54Z</time>
      </trkpt>
      <trkpt lat="43.11586" lon="-0.60025">
        <ele>331.008</ele>
        <time>2016-12-30T20:19:14Z</time>
      </trkpt>
      <trkpt lat="43.11551" lon="-0.60094">
        <ele>337.776</ele>
        <time>2016-12-30T20:19:34Z</time>
      </trkpt>
      <trkpt lat="43.11506" lon="-0.60157">
        <ele>345.799</ele>
        <time>2016-12-30T20:19:54Z</time>
      </trkpt>
      <trkpt lat="43.11496" lon="-0.60209">
        <ele>348.145</ele>
        <time>2016-12-30T20:20:14Z</time>
      </trkpt>
      <trkpt lat="43.11504" lon="-0.60253">
        <ele>344.954</ele>
        <time>2016-12-30T20:20:34Z</time>
      </trkpt>
      <trkpt lat="43.11421" lon="-0.60384">
        <ele>341.191</ele>
        <time>2016-12-30T20:20:54Z</time>
      </trkpt>
      <trkpt lat="43.11386" lon="-0.60397">
        <ele>338.922</ele>
        <time>2016-12-30T20:21:14Z</time>
      </trkpt>
      <trkpt lat="43.11354" lon="-0.60399">
        <ele>335.111</ele>
        <time>2016-12-30T20:21:34Z</time>
      </trkpt>
      <trkpt lat="43.11333" lon="-0.60451">
        <ele>326.722</ele>
        <time>2016-12-30T20:21:54Z</time>
      </trkpt>
      <trkpt lat="43.11327" lon="-0.60517">
        <ele>324.297</ele>
        <time>2016-12-30T20:22:14Z</time>
      </trkpt>
      <trkpt lat="43.11337" lon="-0.60554">
        <ele>320.023</ele>
        <time>2016-12-30T20:22:34Z</time>
      </trkpt>
      <trkpt lat="43.11327" lon="-0.60641">
        <ele>299.925</ele>
        <time>2016-12-30T20:22:54Z</time>
      </trkpt>
      <trkpt lat="43.11309" lon="-0.60673">
        <ele>297.608</ele>
        <time>2016-12-30T20:23:14Z</time>
      </trkpt>
      <trkpt lat="43.11306" lon="-0.60704">
        <ele>297.086</ele>
        <time>2016-12-30T20:23:34Z</time>
      </trkpt>
      <trkpt lat="43.11269" lon="-0.60716">
        <ele>298.919</ele>
        <time>2016-12-30T20:23:54Z</time>
      </trkpt>
      <trkpt lat="43.11257" lon="-0.60751">
        <ele>299.845</ele>
        <time>2016-12-30T20:24:14Z</time>
      </trkpt>
      <trkpt lat="43.11255" lon="-0.60781">
        <ele>300.084</ele>
        <time>2016-12-30T20:24:34Z</time>
      </trkpt>
      <trkpt lat="43.11189" lon="-0.60888">
        <ele>304.481</ele>
        <time>2016-12-30T20:24:54Z</time>
      </trkpt>
      <trkpt lat="43.11182" lon="-0.6101">
        <ele>310.022</ele>
        <time>2016-12-30T20:25:14Z</time>
      </trkpt>
      <trkpt lat="43.11231" lon="-0.61087">
        <ele>308.541</ele>
        <time>2016-12-30T20:25:34Z</time>
      </trkpt>
      <trkpt lat="43.11217" lon="-0.61123">
        <ele>301.382</ele>
        <time>2021-04-18T07:12:10Z</time>
      </trkpt>
      <trkpt lat="43.11196" lon="-0.61234">
        <ele>305.026</ele>
        <time>2016-12-30T20:25:54Z</time>
      </trkpt>
      <trkpt lat="43.11208" lon="-0.61275">
        <ele>300.747</ele>
        <time>2016-12-30T20:26:14Z</time>
      </trkpt>
      <trkpt lat="43.11031" lon="-0.61455">
        <ele>304.511</ele>
        <time>2016-12-30T20:26:34Z</time>
      </trkpt>
      <trkpt lat="43.1098" lon="-0.61523">
        <ele>305.108</ele>
        <time>2016-12-30T20:26:54Z</time>
      </trkpt>
      <trkpt lat="43.10914" lon="-0.61643">
        <ele>305.059</ele>
        <time>2016-12-30T20:27:14Z</time>
      </trkpt>
      <trkpt lat="43.10912" lon="-0.61649">
        <ele>304.872</ele>
        <time>2016-12-30T20:27:34Z</time>
      </trkpt>
      <trkpt lat="43.10791" lon="-0.61898">
        <ele>305.968</ele>
        <time>2016-12-30T20:27:54Z</time>
      </trkpt>
      <trkpt lat="43.10699" lon="-0.62048">
        <ele>306.237</ele>
        <time>2016-12-30T20:28:14Z</time>
      </trkpt>
      <trkpt lat="43.10636" lon="-0.62084">
        <ele>306.074</ele>
        <time>2016-12-30T20:28:34Z</time>
      </trkpt>
      <trkpt lat="43.10564" lon="-0.62079">
        <ele>304.295</ele>
        <time>2016-12-30T20:28:54Z</time>
      </trkpt>
      <trkpt lat="43.1051" lon="-0.62002">
        <ele>306.654</ele>
        <time>2016-12-30T20:29:14Z</time>
      </trkpt>
      <trkpt lat="43.10476" lon="-0.61919">
        <ele>307.395</ele>
        <time>2021-04-18T07:16:10Z</time>
      </trkpt>
      <trkpt lat="43.10445" lon="-0.61823">
        <ele>308.391</ele>
        <time>2016-12-30T20:29:34Z</time>
      </trkpt>
      <trkpt lat="43.10381" lon="-0.61723">
        <ele>300.181</ele>
        <time>2016-12-30T20:29:54Z</time>
      </trkpt>
      <trkpt lat="43.10318" lon="-0.61676">
        <ele>300.619</ele>
        <time>2016-12-30T20:30:14Z</time>
      </trkpt>
      <trkpt lat="43.10236" lon="-0.61647">
        <ele>301.108</ele>
        <time>2016-12-30T20:30:34Z</time>
      </trkpt>
      <trkpt lat="43.10119" lon="-0.61637">
        <ele>302.856</ele>
        <time>2016-12-30T20:30:54Z</time>
      </trkpt>
      <trkpt lat="43.10083" lon="-0.61608">
        <ele>304.129</ele>
        <time>2016-12-30T20:31:14Z</time>
      </trkpt>
      <trkpt lat="43.10061" lon="-0.61539">
        <ele>305.535</ele>
        <time>2016-12-30T20:31:34Z</time>
      </trkpt>
      <trkpt lat="43.09994" lon="-0.61449">
        <ele>307.144</ele>
        <time>2016-12-30T20:31:54Z</time>
      </trkpt>
      <trkpt lat="43.09906" lon="-0.61401">
        <ele>307.951</ele>
        <time>2016-12-30T20:32:14Z</time>
      </trkpt>
      <trkpt lat="43.09852" lon="-0.6141">
        <ele>307.842</ele>
        <time>2016-12-30T20:32:34Z</time>
      </trkpt>
      <trkpt lat="43.0978" lon="-0.61459">
        <ele>304.041</ele>
        <time>2016-12-30T20:32:54Z</time>
      </trkpt>
      <trkpt lat="43.09723" lon="-0.61483">
        <ele>303.352</ele>
        <time>2016-12-30T20:33:14Z</time>
      </trkpt>
      <trkpt lat="43.09656" lon="-0.61453">
        <ele>302.745</ele>
        <time>2016-12-30T20:33:34Z</time>
      </trkpt>
      <trkpt lat="43.09578" lon="-0.61395">
        <ele>303.447</ele>
        <time>2021-04-18T07:20:50Z</time>
      </trkpt>
      <trkpt lat="43.09449" lon="-0.61345">
        <ele>307.511</ele>
        <time>2016-12-30T20:34:14Z</time>
      </trkpt>
      <trkpt lat="43.09437" lon="-0.61299">
        <ele>319.308</ele>
        <time>2021-04-18T07:21:30Z</time>
      </trkpt>
      <trkpt lat="43.0936" lon="-0.61268">
        <ele>319.441</ele>
        <time>2016-12-30T20:34:54Z</time>
      </trkpt>
      <trkpt lat="43.09281" lon="-0.61245">
        <ele>319.354</ele>
        <time>2016-12-30T20:35:14Z</time>
      </trkpt>
      <trkpt lat="43.09174" lon="-0.61117">
        <ele>319.07</ele>
        <time>2016-12-30T20:35:34Z</time>
      </trkpt>
      <trkpt lat="43.09094" lon="-0.61113">
        <ele>316.419</ele>
        <time>2016-12-30T20:35:54Z</time>
      </trkpt>
      <trkpt lat="43.08981" lon="-0.61074">
        <ele>316.016</ele>
        <time>2016-12-30T20:36:14Z</time>
      </trkpt>
      <trkpt lat="43.08848" lon="-0.61065">
        <ele>310.777</ele>
        <time>2016-12-30T20:36:34Z</time>
      </trkpt>
      <trkpt lat="43.0882" lon="-0.6109">
        <ele>310.186</ele>
        <time>2021-04-18T07:23:50Z</time>
      </trkpt>
      <trkpt lat="43.08553" lon="-0.61128">
        <ele>318.157</ele>
        <time>2016-12-30T20:37:14Z</time>
      </trkpt>
      <trkpt lat="43.08472" lon="-0.61167">
        <ele>318.999</ele>
        <time>2016-12-30T20:37:34Z</time>
      </trkpt>
      <trkpt lat="43.08428" lon="-0.61147">
        <ele>320.007</ele>
        <time>2016-12-30T20:37:54Z</time>
      </trkpt>
      <trkpt lat="43.0836" lon="-0.61096">
        <ele>318.727</ele>
        <time>2021-04-18T07:25:10Z</time>
      </trkpt>
      <trkpt lat="43.08325" lon="-0.60969">
        <ele>333.108</ele>
        <time>2021-04-18T07:25:30Z</time>
      </trkpt>
      <trkpt lat="43.08304" lon="-0.60912">
        <ele>336.866</ele>
        <time>2021-04-18T07:25:50Z</time>
      </trkpt>
      <trkpt lat="43.08295" lon="-0.60859">
        <ele>340.469</ele>
        <time>2021-04-18T07:26:10Z</time>
      </trkpt>
      <trkpt lat="43.08273" lon="-0.60839">
        <ele>338.815</ele>
        <time>2021-04-18T07:26:30Z</time>
      </trkpt>
      <trkpt lat="43.08216" lon="-0.6088">
        <ele>325.624</ele>
        <time>2021-04-18T07:26:50Z</time>
      </trkpt>
      <trkpt lat="43.08134" lon="-0.60851">
        <ele>325.831</ele>
        <time>2021-04-18T07:27:10Z</time>
      </trkpt>
      <trkpt lat="43.08114" lon="-0.60872">
        <ele>323.492</ele>
        <time>2021-04-18T07:27:30Z</time>
      </trkpt>
      <trkpt lat="43.08015" lon="-0.60885">
        <ele>327.381</ele>
        <time>2021-04-18T07:27:50Z</time>
      </trkpt>
      <trkpt lat="43.07883" lon="-0.60842">
        <ele>332.662</ele>
        <time>2016-12-30T20:41:14Z</time>
      </trkpt>
      <trkpt lat="43.07802" lon="-0.60783">
        <ele>334.569</ele>
        <time>2016-12-30T20:41:34Z</time>
      </trkpt>
      <trkpt lat="43.07702" lon="-0.60694">
        <ele>335.504</ele>
        <time>2016-12-30T20:41:54Z</time>
      </trkpt>
      <trkpt lat="43.07637" lon="-0.60544">
        <ele>330.024</ele>
        <time>2016-12-30T20:42:14Z</time>
      </trkpt>
      <trkpt lat="43.07592" lon="-0.60511">
        <ele>329.008</ele>
        <time>2016-12-30T20:42:34Z</time>
      </trkpt>
      <trkpt lat="43.07552" lon="-0.60551">
        <ele>331.383</ele>
        <time>2016-12-30T20:42:54Z</time>
      </trkpt>
      <trkpt lat="43.07531" lon="-0.60646">
        <ele>331.096</ele>
        <time>2016-12-30T20:43:14Z</time>
      </trkpt>
      <trkpt lat="43.07503" lon="-0.60683">
        <ele>331.062</ele>
        <time>2016-12-30T20:43:34Z</time>
      </trkpt>
      <trkpt lat="43.07461" lon="-0.60676">
        <ele>326.081</ele>
        <time>2021-04-18T07:30:50Z</time>
      </trkpt>
      <trkpt lat="43.07336" lon="-0.60614">
        <ele>329.078</ele>
        <time>2016-12-30T20:44:14Z</time>
      </trkpt>
      <trkpt lat="43.07189" lon="-0.60622">
        <ele>314.829</ele>
        <time>2016-12-30T20:44:34Z</time>
      </trkpt>
      <trkpt lat="43.0718" lon="-0.60658">
        <ele>321.728</ele>
        <time>2016-12-30T20:44:54Z</time>
      </trkpt>
      <trkpt lat="43.07109" lon="-0.6063">
        <ele>323.739</ele>
        <time>2016-12-30T20:45:14Z</time>
      </trkpt>
      <trkpt lat="43.07064" lon="-0.60642">
        <ele>325.265</ele>
        <time>2016-12-30T20:45:34Z</time>
      </trkpt>
      <trkpt lat="43.07023" lon="-0.60674">
        <ele>331.468</ele>
        <time>2016-12-30T20:45:54Z</time>
      </trkpt>
      <trkpt lat="43.06993" lon="-0.60682">
        <ele>332.114</ele>
        <time>2016-12-30T20:46:14Z</time>
      </trkpt>
      <trkpt lat="43.06944" lon="-0.60718">
        <ele>334.508</ele>
        <time>2016-12-30T20:46:34Z</time>
      </trkpt>
      <trkpt lat="43.06889" lon="-0.6071">
        <ele>343.723</ele>
        <time>2016-12-30T20:46:54Z</time>
      </trkpt>
      <trkpt lat="43.0685" lon="-0.60651">
        <ele>328.476</ele>
        <time>2016-12-30T20:47:14Z</time>
      </trkpt>
      <trkpt lat="43.06788" lon="-0.60626">
        <ele>338.392</ele>
        <time>2016-12-30T20:47:34Z</time>
      </trkpt>
      <trkpt lat="43.06804" lon="-0.60561">
        <ele>321.641</ele>
        <time>2016-12-30T20:47:54Z</time>
      </trkpt>
      <trkpt lat="43.06796" lon="-0.60475">
        <ele>327.128</ele>
        <time>2016-12-30T20:48:14Z</time>
      </trkpt>
      <trkpt lat="43.06776" lon="-0.60445">
        <ele>332.529</ele>
        <time>2016-12-30T20:48:34Z</time>
      </trkpt>
      <trkpt lat="43.06703" lon="-0.60446">
        <ele>329.758</ele>
        <time>2021-04-18T07:35:50Z</time>
      </trkpt>
      <trkpt lat="43.06697" lon="-0.60473">
        <ele>339.589</ele>
        <time>2016-12-30T20:49:14Z</time>
      </trkpt>
      <trkpt lat="43.06662" lon="-0.60462">
        <ele>334.598</ele>
        <time>2016-12-30T20:49:34Z</time>
      </trkpt>
      <trkpt lat="43.06599" lon="-0.60501">
        <ele>335.415</ele>
        <time>2016-12-30T20:49:54Z</time>
      </trkpt>
      <trkpt lat="43.0654" lon="-0.60498">
        <ele>324.426</ele>
        <time>2016-12-30T20:50:14Z</time>
      </trkpt>
      <trkpt lat="43.06503" lon="-0.60506">
        <ele>323.608</ele>
        <time>2016-12-30T20:50:34Z</time>
      </trkpt>
      <trkpt lat="43.06438" lon="-0.60498">
        <ele>329.836</ele>
        <time>2016-12-30T20:50:54Z</time>
      </trkpt>
      <trkpt lat="43.06397" lon="-0.60428">
        <ele>328.489</ele>
        <time>2016-12-30T20:51:14Z</time>
      </trkpt>
      <trkpt lat="43.06376" lon="-0.60275">
        <ele>341.375</ele>
        <time>2016-12-30T20:51:34Z</time>
      </trkpt>
      <trkpt lat="43.06401" lon="-0.60119">
        <ele>339.114</ele>
        <time>2016-12-30T20:51:54Z</time>
      </trkpt>
      <trkpt lat="43.06371" lon="-0.60085">
        <ele>345.561</ele>
        <time>2016-12-30T20:52:14Z</time>
      </trkpt>
      <trkpt lat="43.06261" lon="-0.60084">
        <ele>336.712</ele>
        <time>2016-12-30T20:52:34Z</time>
      </trkpt>
      <trkpt lat="43.06221" lon="-0.60072">
        <ele>331.781</ele>
        <time>2016-12-30T20:52:54Z</time>
      </trkpt>
      <trkpt lat="43.06157" lon="-0.60084">
        <ele>332.572</ele>
        <time>2016-12-30T20:53:14Z</time>
      </trkpt>
      <trkpt lat="43.06071" lon="-0.60076">
        <ele>339.371</ele>
        <time>2016-12-30T20:53:34Z</time>
      </trkpt>
      <trkpt lat="43.05919" lon="-0.59983">
        <ele>344.441</ele>
        <time>2016-12-30T20:53:54Z</time>
      </trkpt>
      <trkpt lat="43.05732" lon="-0.59823">
        <ele>346.715</ele>
        <time>2016-12-30T20:54:14Z</time>
      </trkpt>
      <trkpt lat="43.05643" lon="-0.59799">
        <ele>359.708</ele>
        <time>2016-12-30T20:54:34Z</time>
      </trkpt>
      <trkpt lat="43.05589" lon="-0.59799">
        <ele>351.584</ele>
        <time>2016-12-30T20:54:54Z</time>
      </trkpt>
      <trkpt lat="43.05545" lon="-0.59833">
        <ele>361.987</ele>
        <time>2016-12-30T20:55:14Z</time>
      </trkpt>
      <trkpt lat="43.05512" lon="-0.59812">
        <ele>357.023</ele>
        <time>2021-04-18T07:42:30Z</time>
      </trkpt>
      <trkpt lat="43.05471" lon="-0.59765">
        <ele>342.622</ele>
        <time>2016-12-30T20:55:34Z</time>
      </trkpt>
      <trkpt lat="43.05274" lon="-0.59899">
        <ele>353.719</ele>
        <time>2021-04-18T07:43:10Z</time>
      </trkpt>
      <trkpt lat="43.05229" lon="-0.60047">
        <ele>364.46</ele>
        <time>2021-04-18T07:43:30Z</time>
      </trkpt>
      <trkpt lat="43.05164" lon="-0.60189">
        <ele>346.649</ele>
        <time>2016-12-30T20:56:34Z</time>
      </trkpt>
      <trkpt lat="43.05121" lon="-0.60198">
        <ele>344.52</ele>
        <time>2016-12-30T20:56:54Z</time>
      </trkpt>
      <trkpt lat="43.05005" lon="-0.60151">
        <ele>340.953</ele>
        <time>2016-12-30T20:57:14Z</time>
      </trkpt>
      <trkpt lat="43.04999" lon="-0.60133">
        <ele>340.004</ele>
        <time>2016-12-30T20:57:34Z</time>
      </trkpt>
      <trkpt lat="43.05012" lon="-0.60083">
        <ele>340.114</ele>
        <time>2016-12-30T20:57:54Z</time>
      </trkpt>
      <trkpt lat="43.04914" lon="-0.59985">
        <ele>345.608</ele>
        <time>2016-12-30T20:58:14Z</time>
      </trkpt>
      <trkpt lat="43.04856" lon="-0.59977">
        <ele>342.362</ele>
        <time>2016-12-30T20:58:34Z</time>
      </trkpt>
      <trkpt lat="43.048" lon="-0.59964">
        <ele>346.225</ele>
        <time>2016-12-30T20:58:54Z</time>
      </trkpt>
      <trkpt lat="43.04775" lon="-0.5999">
        <ele>341.181</ele>
        <time>2016-12-30T20:59:14Z</time>
      </trkpt>
      <trkpt lat="43.04747" lon="-0.59992">
        <ele>341.88</ele>
        <time>2016-12-30T20:59:34Z</time>
      </trkpt>
      <trkpt lat="43.04728" lon="-0.60024">
        <ele>340.227</ele>
        <time>2016-12-30T20:59:54Z</time>
      </trkpt>
      <trkpt lat="43.04701" lon="-0.60042">
        <ele>340.488</ele>
        <time>2016-12-30T21:00:14Z</time>
      </trkpt>
      <trkpt lat="43.04664" lon="-0.60073">
        <ele>340.057</ele>
        <time>2016-12-30T21:00:34Z</time>
      </trkpt>
      <trkpt lat="43.04524" lon="-0.59881">
        <ele>358.218</ele>
        <time>2021-04-18T07:48:10Z</time>
      </trkpt>
      <trkpt lat="43.04452" lon="-0.59813">
        <ele>349.714</ele>
        <time>2016-12-30T21:01:14Z</time>
      </trkpt>
      <trkpt lat="43.04382" lon="-0.59784">
        <ele>351.754</ele>
        <time>2016-12-30T21:01:34Z</time>
      </trkpt>
      <trkpt lat="43.04348" lon="-0.59792">
        <ele>353.609</ele>
        <time>2016-12-30T21:01:54Z</time>
      </trkpt>
      <trkpt lat="43.0431" lon="-0.59798">
        <ele>359.508</ele>
        <time>2016-12-30T21:02:14Z</time>
      </trkpt>
      <trkpt lat="43.04248" lon="-0.59905">
        <ele>357.878</ele>
        <time>2016-12-30T21:02:34Z</time>
      </trkpt>
      <trkpt lat="43.04234" lon="-0.60009">
        <ele>352.841</ele>
        <time>2016-12-30T21:02:54Z</time>
      </trkpt>
      <trkpt lat="43.04199" lon="-0.60013">
        <ele>361.417</ele>
        <time>2016-12-30T21:03:14Z</time>
      </trkpt>
      <trkpt lat="43.04147" lon="-0.59966">
        <ele>387.146</ele>
        <time>2016-12-30T21:03:34Z</time>
      </trkpt>
      <trkpt lat="43.04114" lon="-0.59966">
        <ele>387.643</ele>
        <time>2016-12-30T21:03:54Z</time>
      </trkpt>
      <trkpt lat="43.04057" lon="-0.60043">
        <ele>353.294</ele>
        <time>2016-12-30T21:04:14Z</time>
      </trkpt>
      <trkpt lat="43.03928" lon="-0.60106">
        <ele>374.183</ele>
        <time>2016-12-30T21:04:34Z</time>
      </trkpt>
      <trkpt lat="43.03891" lon="-0.60172">
        <ele>406.134</ele>
        <time>2021-04-18T07:52:10Z</time>
      </trkpt>
      <trkpt lat="43.03923" lon="-0.60265">
        <ele>366.356</ele>
        <time>2016-12-30T21:05:14Z</time>
      </trkpt>
      <trkpt lat="43.03922" lon="-0.60337">
        <ele>371.759</ele>
        <time>2016-12-30T21:05:34Z</time>
      </trkpt>
      <trkpt lat="43.03914" lon="-0.60381">
        <ele>373.114</ele>
        <time>2016-12-30T21:05:54Z</time>
      </trkpt>
      <trkpt lat="43.03916" lon="-0.60414">
        <ele>365.808</ele>
        <time>2016-12-30T21:06:14Z</time>
      </trkpt>
      <trkpt lat="43.03909" lon="-0.60444">
        <ele>367.862</ele>
        <time>2016-12-30T21:06:34Z</time>
      </trkpt>
      <trkpt lat="43.03838" lon="-0.60489">
        <ele>396.145</ele>
        <time>2016-12-30T21:06:54Z</time>
      </trkpt>
      <trkpt lat="43.0382" lon="-0.60513">
        <ele>383.021</ele>
        <time>2016-12-30T21:07:14Z</time>
      </trkpt>
      <trkpt lat="43.03713" lon="-0.60535">
        <ele>372.61</ele>
        <time>2016-12-30T21:07:34Z</time>
      </trkpt>
      <trkpt lat="43.0367" lon="-0.60511">
        <ele>370.237</ele>
        <time>2016-12-30T21:07:54Z</time>
      </trkpt>
      <trkpt lat="43.0363" lon="-0.60473">
        <ele>369.678</ele>
        <time>2016-12-30T21:08:14Z</time>
      </trkpt>
      <trkpt lat="43.0349" lon="-0.60461">
        <ele>367.127</ele>
        <time>2016-12-30T21:08:34Z</time>
      </trkpt>
      <trkpt lat="43.03444" lon="-0.60522">
        <ele>362.488</ele>
        <time>2016-12-30T21:08:54Z</time>
      </trkpt>
      <trkpt lat="43.03433" lon="-0.60599">
        <ele>366.787</ele>
        <time>2016-12-30T21:09:14Z</time>
      </trkpt>
      <trkpt lat="43.03473" lon="-0.60619">
        <ele>367.542</ele>
        <time>2016-12-30T21:09:34Z</time>
      </trkpt>
      <trkpt lat="43.03456" lon="-0.60659">
        <ele>378.826</ele>
        <time>2016-12-30T21:09:54Z</time>
      </trkpt>
      <trkpt lat="43.03385" lon="-0.60652">
        <ele>377.408</ele>
        <time>2016-12-30T21:10:14Z</time>
      </trkpt>
      <trkpt lat="43.03214" lon="-0.60554">
        <ele>371.175</ele>
        <time>2016-12-30T21:10:34Z</time>
      </trkpt>
      <trkpt lat="43.02997" lon="-0.60462">
        <ele>380.548</ele>
        <time>2016-12-30T21:10:54Z</time>
      </trkpt>
      <trkpt lat="43.02864" lon="-0.60377">
        <ele>389.834</ele>
        <time>2021-04-18T07:58:30Z</time>
      </trkpt>
      <trkpt lat="43.02809" lon="-0.60358">
        <ele>373.343</ele>
        <time>2016-12-30T21:11:14Z</time>
      </trkpt>
      <trkpt lat="43.02671" lon="-0.60332">
        <ele>373.62</ele>
        <time>2016-12-30T21:11:34Z</time>
      </trkpt>
      <trkpt lat="43.02533" lon="-0.6033">
        <ele>385.861</ele>
        <time>2016-12-30T21:11:54Z</time>
      </trkpt>
      <trkpt lat="43.02471" lon="-0.60277">
        <ele>379.86</ele>
        <time>2016-12-30T21:12:14Z</time>
      </trkpt>
      <trkpt lat="43.02417" lon="-0.60291">
        <ele>386.781</ele>
        <time>2016-12-30T21:12:34Z</time>
      </trkpt>
      <trkpt lat="43.02288" lon="-0.60312">
        <ele>390.641</ele>
        <time>2016-12-30T21:12:54Z</time>
      </trkpt>
      <trkpt lat="43.02211" lon="-0.60316">
        <ele>392.481</ele>
        <time>2016-12-30T21:13:14Z</time>
      </trkpt>
      <trkpt lat="43.02158" lon="-0.60342">
        <ele>391.709</ele>
        <time>2016-12-30T21:13:34Z</time>
      </trkpt>
      <trkpt lat="43.02122" lon="-0.60382">
        <ele>392.308</ele>
        <time>2016-12-30T21:13:54Z</time>
      </trkpt>
      <trkpt lat="43.02021" lon="-0.60428">
        <ele>386.481</ele>
        <time>2016-12-30T21:14:14Z</time>
      </trkpt>
      <trkpt lat="43.01896" lon="-0.60443">
        <ele>383.884</ele>
        <time>2016-12-30T21:14:34Z</time>
      </trkpt>
      <trkpt lat="43.0185" lon="-0.60487">
        <ele>390.37</ele>
        <time>2016-12-30T21:14:54Z</time>
      </trkpt>
      <trkpt lat="43.01737" lon="-0.60559">
        <ele>391.269</ele>
        <time>2016-12-30T21:15:14Z</time>
      </trkpt>
      <trkpt lat="43.01651" lon="-0.606">
        <ele>388.986</ele>
        <time>2016-12-30T21:15:34Z</time>
      </trkpt>
      <trkpt lat="43.01566" lon="-0.60653">
        <ele>392.767</ele>
        <time>2016-12-30T21:15:54Z</time>
      </trkpt>
      <trkpt lat="43.01508" lon="-0.60649">
        <ele>391.396</ele>
        <time>2016-12-30T21:16:14Z</time>
      </trkpt>
      <trkpt lat="43.0139" lon="-0.60551">
        <ele>390.027</ele>
        <time>2016-12-30T21:16:34Z</time>
      </trkpt>
      <trkpt lat="43.01279" lon="-0.60511">
        <ele>390.026</ele>
        <time>2016-12-30T21:16:54Z</time>
      </trkpt>
      <trkpt lat="43.01151" lon="-0.60542">
        <ele>394.447</ele>
        <time>2016-12-30T21:17:14Z</time>
      </trkpt>
      <trkpt lat="43.01101" lon="-0.60597">
        <ele>398.211</ele>
        <time>2016-12-30T21:17:34Z</time>
      </trkpt>
      <trkpt lat="43.0103" lon="-0.60629">
        <ele>405.008</ele>
        <time>2016-12-30T21:17:54Z</time>
      </trkpt>
      <trkpt lat="43.00994" lon="-0.60635">
        <ele>405.489</ele>
        <time>2016-12-30T21:18:14Z</time>
      </trkpt>
      <trkpt lat="43.00972" lon="-0.60659">
        <ele>410.622</ele>
        <time>2016-12-30T21:18:34Z</time>
      </trkpt>
      <trkpt lat="43.00902" lon="-0.60672">
        <ele>420.618</ele>
        <time>2016-12-30T21:18:54Z</time>
      </trkpt>
      <trkpt lat="43.00876" lon="-0.60686">
        <ele>428.797</ele>
        <time>2016-12-30T21:19:14Z</time>
      </trkpt>
      <trkpt lat="43.00852" lon="-0.60671">
        <ele>421.764</ele>
        <time>2016-12-30T21:19:34Z</time>
      </trkpt>
      <trkpt lat="43.00805" lon="-0.60664">
        <ele>441.425</ele>
        <time>2021-04-18T08:07:30Z</time>
      </trkpt>
      <trkpt lat="43.0075" lon="-0.60586">
        <ele>425.954</ele>
        <time>2021-04-18T08:07:50Z</time>
      </trkpt>
      <trkpt lat="43.00696" lon="-0.60543">
        <ele>414.925</ele>
        <time>2016-12-30T21:20:34Z</time>
      </trkpt>
      <trkpt lat="43.00524" lon="-0.60565">
        <ele>411.775</ele>
        <time>2016-12-30T21:20:54Z</time>
      </trkpt>
      <trkpt lat="43.00444" lon="-0.60628">
        <ele>412.228</ele>
        <time>2016-12-30T21:21:14Z</time>
      </trkpt>
      <trkpt lat="43.00413" lon="-0.60618">
        <ele>412.52</ele>
        <time>2016-12-30T21:21:34Z</time>
      </trkpt>
      <trkpt lat="43.00265" lon="-0.60747">
        <ele>418.408</ele>
        <time>2016-12-30T21:21:54Z</time>
      </trkpt>
      <trkpt lat="43.0016" lon="-0.60834">
        <ele>422.564</ele>
        <time>2016-12-30T21:22:14Z</time>
      </trkpt>
      <trkpt lat="43.00002" lon="-0.60888">
        <ele>420.077</ele>
        <time>2016-12-30T21:22:34Z</time>
      </trkpt>
      <trkpt lat="42.99925" lon="-0.60892">
        <ele>420.193</ele>
        <time>2016-12-30T21:22:54Z</time>
      </trkpt>
      <trkpt lat="42.99881" lon="-0.60885">
        <ele>420.072</ele>
        <time>2016-12-30T21:23:14Z</time>
      </trkpt>
      <trkpt lat="42.99847" lon="-0.60925">
        <ele>422.339</ele>
        <time>2016-12-30T21:23:34Z</time>
      </trkpt>
      <trkpt lat="42.99781" lon="-0.60969">
        <ele>424.78</ele>
        <time>2016-12-30T21:23:54Z</time>
      </trkpt>
      <trkpt lat="42.99746" lon="-0.60927">
        <ele>419.589</ele>
        <time>2016-12-30T21:24:14Z</time>
      </trkpt>
      <trkpt lat="42.9984" lon="-0.60722">
        <ele>412.94</ele>
        <time>2016-12-30T21:24:34Z</time>
      </trkpt>
      <trkpt lat="42.99888" lon="-0.60684">
        <ele>412.875</ele>
        <time>2021-04-18T08:12:30Z</time>
      </trkpt>
      <trkpt lat="42.99915" lon="-0.60588">
        <ele>412.028</ele>
        <time>2021-04-18T08:12:50Z</time>
      </trkpt>
      <trkpt lat="42.99961" lon="-0.60503">
        <ele>403.92</ele>
        <time>2016-12-30T21:25:34Z</time>
      </trkpt>
      <trkpt lat="42.99929" lon="-0.60363">
        <ele>402.008</ele>
        <time>2016-12-30T21:25:54Z</time>
      </trkpt>
      <trkpt lat="42.99842" lon="-0.6023">
        <ele>408.184</ele>
        <time>2016-12-30T21:26:14Z</time>
      </trkpt>
      <trkpt lat="42.99819" lon="-0.6017">
        <ele>410.087</ele>
        <time>2016-12-30T21:26:34Z</time>
      </trkpt>
      <trkpt lat="42.99832" lon="-0.60107">
        <ele>410.313</ele>
        <time>2016-12-30T21:26:54Z</time>
      </trkpt>
      <trkpt lat="42.9983" lon="-0.60053">
        <ele>411.392</ele>
        <time>2016-12-30T21:27:14Z</time>
      </trkpt>
      <trkpt lat="42.99876" lon="-0.60019">
        <ele>412.319</ele>
        <time>2016-12-30T21:27:34Z</time>
      </trkpt>
      <trkpt lat="42.99857" lon="-0.59982">
        <ele>413.61</ele>
        <time>2016-12-30T21:27:54Z</time>
      </trkpt>
      <trkpt lat="42.9987" lon="-0.59954">
        <ele>414.789</ele>
        <time>2016-12-30T21:28:14Z</time>
      </trkpt>
      <trkpt lat="42.9985" lon="-0.59911">
        <ele>415.15</ele>
        <time>2016-12-30T21:28:34Z</time>
      </trkpt>
      <trkpt lat="42.99825" lon="-0.59882">
        <ele>414.961</ele>
        <time>2016-12-30T21:28:54Z</time>
      </trkpt>
      <trkpt lat="42.99828" lon="-0.59765">
        <ele>418.321</ele>
        <time>2016-12-30T21:29:14Z</time>
      </trkpt>
      <trkpt lat="42.99847" lon="-0.59719">
        <ele>421.713</ele>
        <time>2016-12-30T21:29:34Z</time>
      </trkpt>
      <trkpt lat="42.99843" lon="-0.59668">
        <ele>424.908</ele>
        <time>2016-12-30T21:29:54Z</time>
      </trkpt>
      <trkpt lat="42.99807" lon="-0.59636">
        <ele>423.573</ele>
        <time>2016-12-30T21:30:14Z</time>
      </trkpt>
      <trkpt lat="42.99759" lon="-0.59524">
        <ele>426.536</ele>
        <time>2016-12-30T21:30:34Z</time>
      </trkpt>
      <trkpt lat="42.9969" lon="-0.59439">
        <ele>426.632</ele>
        <time>2016-12-30T21:30:54Z</time>
      </trkpt>
      <trkpt lat="42.99627" lon="-0.5946">
        <ele>424.031</ele>
        <time>2016-12-30T21:31:14Z</time>
      </trkpt>
      <trkpt lat="42.99624" lon="-0.59491">
        <ele>422.928</ele>
        <time>2016-12-30T21:31:34Z</time>
      </trkpt>
      <trkpt lat="42.9954" lon="-0.59499">
        <ele>434.819</ele>
        <time>2016-12-30T21:31:54Z</time>
      </trkpt>
      <trkpt lat="42.99542" lon="-0.59455">
        <ele>439.268</ele>
        <time>2016-12-30T21:32:14Z</time>
      </trkpt>
      <trkpt lat="42.99428" lon="-0.59445">
        <ele>444.189</ele>
        <time>2016-12-30T21:32:34Z</time>
      </trkpt>
      <trkpt lat="42.99272" lon="-0.59363">
        <ele>451.113</ele>
        <time>2016-12-30T21:32:54Z</time>
      </trkpt>
      <trkpt lat="42.99219" lon="-0.59344">
        <ele>456.643</ele>
        <time>2016-12-30T21:33:14Z</time>
      </trkpt>
      <trkpt lat="42.99171" lon="-0.59346">
        <ele>460.007</ele>
        <time>2016-12-30T21:33:34Z</time>
      </trkpt>
      <trkpt lat="42.99114" lon="-0.59337">
        <ele>462.408</ele>
        <time>2016-12-30T21:33:54Z</time>
      </trkpt>
      <trkpt lat="42.99001" lon="-0.59337">
        <ele>469.668</ele>
        <time>2016-12-30T21:34:14Z</time>
      </trkpt>
      <trkpt lat="42.9898" lon="-0.59357">
        <ele>469.321</ele>
        <time>2016-12-30T21:34:34Z</time>
      </trkpt>
      <trkpt lat="42.98982" lon="-0.59401">
        <ele>469.147</ele>
        <time>2016-12-30T21:34:54Z</time>
      </trkpt>
      <trkpt lat="42.98906" lon="-0.59411">
        <ele>472.156</ele>
        <time>2016-12-30T21:35:14Z</time>
      </trkpt>
      <trkpt lat="42.98771" lon="-0.59407">
        <ele>485.063</ele>
        <time>2016-12-30T21:35:34Z</time>
      </trkpt>
      <trkpt lat="42.98759" lon="-0.59415">
        <ele>484.834</ele>
        <time>2016-12-30T21:35:54Z</time>
      </trkpt>
      <trkpt lat="42.98749" lon="-0.59406">
        <ele>485.863</ele>
        <time>2016-12-30T21:36:14Z</time>
      </trkpt>
      <trkpt lat="42.98731" lon="-0.59418">
        <ele>484.974</ele>
        <time>2016-12-30T21:36:34Z</time>
      </trkpt>
      <trkpt lat="42.98712" lon="-0.5948">
        <ele>480.078</ele>
        <time>2016-12-30T21:36:54Z</time>
      </trkpt>
      <trkpt lat="42.98603" lon="-0.59479">
        <ele>475.933</ele>
        <time>2016-12-30T21:37:14Z</time>
      </trkpt>
      <trkpt lat="42.98579" lon="-0.59511">
        <ele>473.726</ele>
        <time>2016-12-30T21:37:34Z</time>
      </trkpt>
      <trkpt lat="42.98521" lon="-0.59519">
        <ele>470.908</ele>
        <time>2016-12-30T21:37:54Z</time>
      </trkpt>
      <trkpt lat="42.98512" lon="-0.59529">
        <ele>469.944</ele>
        <time>2016-12-30T21:38:14Z</time>
      </trkpt>
      <trkpt lat="42.98443" lon="-0.59499">
        <ele>476.377</ele>
        <time>2016-12-30T21:38:34Z</time>
      </trkpt>
      <trkpt lat="42.98393" lon="-0.59517">
        <ele>477.253</ele>
        <time>2016-12-30T21:38:54Z</time>
      </trkpt>
      <trkpt lat="42.98331" lon="-0.5952">
        <ele>477.172</ele>
        <time>2016-12-30T21:39:14Z</time>
      </trkpt>
      <trkpt lat="42.98282" lon="-0.59493">
        <ele>485.599</ele>
        <time>2016-12-30T21:39:34Z</time>
      </trkpt>
      <trkpt lat="42.9824" lon="-0.59489">
        <ele>485.49</ele>
        <time>2016-12-30T21:39:54Z</time>
      </trkpt>
      <trkpt lat="42.98177" lon="-0.5946">
        <ele>483.879</ele>
        <time>2016-12-30T21:40:14Z</time>
      </trkpt>
      <trkpt lat="42.98139" lon="-0.5941">
        <ele>490.74</ele>
        <time>2016-12-30T21:40:34Z</time>
      </trkpt>
      <trkpt lat="42.98078" lon="-0.59376">
        <ele>499.141</ele>
        <time>2016-12-30T21:40:54Z</time>
      </trkpt>
      <trkpt lat="42.98052" lon="-0.5938">
        <ele>502.781</ele>
        <time>2016-12-30T21:41:14Z</time>
      </trkpt>
      <trkpt lat="42.97989" lon="-0.59335">
        <ele>509.009</ele>
        <time>2016-12-30T21:41:34Z</time>
      </trkpt>
      <trkpt lat="42.97934" lon="-0.59271">
        <ele>513.908</ele>
        <time>2021-04-18T08:29:30Z</time>
      </trkpt>
      <trkpt lat="42.97912" lon="-0.59187">
        <ele>510.881</ele>
        <time>2016-12-30T21:42:14Z</time>
      </trkpt>
      <trkpt lat="42.97887" lon="-0.59161">
        <ele>514.834</ele>
        <time>2016-12-30T21:42:34Z</time>
      </trkpt>
      <trkpt lat="42.97861" lon="-0.59126">
        <ele>519.09</ele>
        <time>2016-12-30T21:42:54Z</time>
      </trkpt>
      <trkpt lat="42.97791" lon="-0.59151">
        <ele>520.169</ele>
        <time>2016-12-30T21:43:14Z</time>
      </trkpt>
      <trkpt lat="42.97717" lon="-0.59147">
        <ele>522.766</ele>
        <time>2016-12-30T21:43:34Z</time>
      </trkpt>
      <trkpt lat="42.97662" lon="-0.59161">
        <ele>529.887</ele>
        <time>2016-12-30T21:43:54Z</time>
      </trkpt>
      <trkpt lat="42.97596" lon="-0.59246">
        <ele>530.476</ele>
        <time>2016-12-30T21:44:14Z</time>
      </trkpt>
      <trkpt lat="42.97533" lon="-0.59372">
        <ele>530.257</ele>
        <time>2016-12-30T21:44:34Z</time>
      </trkpt>
      <trkpt lat="42.97508" lon="-0.5949">
        <ele>528.953</ele>
        <time>2016-12-30T21:44:54Z</time>
      </trkpt>
      <trkpt lat="42.97508" lon="-0.59548">
        <ele>527.604</ele>
        <time>2016-12-30T21:45:14Z</time>
      </trkpt>
      <trkpt lat="42.9749" lon="-0.5959">
        <ele>519.114</ele>
        <time>2016-12-30T21:45:34Z</time>
      </trkpt>
      <trkpt lat="42.97476" lon="-0.59639">
        <ele>511.208</ele>
        <time>2021-04-18T08:33:30Z</time>
      </trkpt>
      <trkpt lat="42.97415" lon="-0.59678">
        <ele>496.092</ele>
        <time>2021-04-18T08:33:50Z</time>
      </trkpt>
      <trkpt lat="42.9739" lon="-0.59683">
        <ele>491.895</ele>
        <time>2021-04-18T08:34:10Z</time>
      </trkpt>
      <trkpt lat="42.97379" lon="-0.59711">
        <ele>486.821</ele>
        <time>2021-04-18T08:34:30Z</time>
      </trkpt>
      <trkpt lat="42.97369" lon="-0.59773">
        <ele>479.51</ele>
        <time>2021-04-18T08:34:50Z</time>
      </trkpt>
      <trkpt lat="42.97369" lon="-0.5981">
        <ele>476.937</ele>
        <time>2021-04-18T08:35:10Z</time>
      </trkpt>
      <trkpt lat="42.97398" lon="-0.59847">
        <ele>475.518</ele>
        <time>2021-04-18T08:35:30Z</time>
      </trkpt>
      <trkpt lat="42.97433" lon="-0.59843">
        <ele>475.897</ele>
        <time>2021-04-18T08:35:50Z</time>
      </trkpt>
      <trkpt lat="42.97447" lon="-0.59878">
        <ele>472.858</ele>
        <time>2021-04-18T08:36:10Z</time>
      </trkpt>
      <trkpt lat="42.97456" lon="-0.59929">
        <ele>469.074</ele>
        <time>2021-04-18T08:36:30Z</time>
      </trkpt>
      <trkpt lat="42.9744" lon="-0.59963">
        <ele>467.956</ele>
        <time>2021-04-18T08:36:50Z</time>
      </trkpt>
      <trkpt lat="42.97463" lon="-0.60067">
        <ele>462.121</ele>
        <time>2021-04-18T08:37:10Z</time>
      </trkpt>
      <trkpt lat="42.97462" lon="-0.60109">
        <ele>461.008</ele>
        <time>2021-04-18T08:37:30Z</time>
      </trkpt>
      <trkpt lat="42.97467" lon="-0.60149">
        <ele>459.944</ele>
        <time>2016-12-30T21:49:14Z</time>
      </trkpt>
      <trkpt lat="42.97457" lon="-0.60166">
        <ele>460.037</ele>
        <time>2021-04-18T08:38:10Z</time>
      </trkpt>
      <trkpt lat="42.97424" lon="-0.60189">
        <ele>459.213</ele>
        <time>2021-04-18T08:38:30Z</time>
      </trkpt>
      <trkpt lat="42.97395" lon="-0.60182">
        <ele>456.722</ele>
        <time>2016-12-30T21:49:54Z</time>
      </trkpt>
      <trkpt lat="42.97352" lon="-0.60202">
        <ele>459.879</ele>
        <time>2021-04-18T08:39:10Z</time>
      </trkpt>
      <trkpt lat="42.97374" lon="-0.60376">
        <ele>453.06</ele>
        <time>2016-12-30T21:50:54Z</time>
      </trkpt>
      <trkpt lat="42.97339" lon="-0.60401">
        <ele>454.089</ele>
        <time>2021-04-18T08:39:50Z</time>
      </trkpt>
      <trkpt lat="42.97315" lon="-0.60435">
        <ele>454.12</ele>
        <time>2021-04-18T08:40:10Z</time>
      </trkpt>
      <trkpt lat="42.97279" lon="-0.60466">
        <ele>452.693</ele>
        <time>2021-04-18T08:40:30Z</time>
      </trkpt>
      <trkpt lat="42.97255" lon="-0.60493">
        <ele>449.865</ele>
        <time>2021-04-18T08:40:50Z</time>
      </trkpt>
      <trkpt lat="42.97212" lon="-0.6052">
        <ele>448.421</ele>
        <time>2021-04-18T08:41:10Z</time>
      </trkpt>
      <trkpt lat="42.97094" lon="-0.60556">
        <ele>446.108</ele>
        <time>2021-04-18T08:41:30Z</time>
      </trkpt>
      <trkpt lat="42.97069" lon="-0.60576">
        <ele>445.796</ele>
        <time>2021-04-18T08:41:50Z</time>
      </trkpt>
      <trkpt lat="42.96973" lon="-0.60604">
        <ele>448.079</ele>
        <time>2016-12-30T21:52:34Z</time>
      </trkpt>
      <trkpt lat="42.96945" lon="-0.60606">
        <ele>448.885</ele>
        <time>2021-04-18T08:42:30Z</time>
      </trkpt>
      <trkpt lat="42.9687" lon="-0.60654">
        <ele>452.424</ele>
        <time>2021-04-18T08:42:50Z</time>
      </trkpt>
      <trkpt lat="42.96679" lon="-0.60868">
        <ele>464.491</ele>
        <time>2016-12-30T21:53:34Z</time>
      </trkpt>
      <trkpt lat="42.96613" lon="-0.60904">
        <ele>463.032</ele>
        <time>2016-12-30T21:53:54Z</time>
      </trkpt>
      <trkpt lat="42.96584" lon="-0.60929">
        <ele>458.531</ele>
        <time>2016-12-30T21:54:14Z</time>
      </trkpt>
      <trkpt lat="42.96546" lon="-0.60949">
        <ele>464.122</ele>
        <time>2021-04-18T08:44:10Z</time>
      </trkpt>
      <trkpt lat="42.9652" lon="-0.60955">
        <ele>464.323</ele>
        <time>2021-04-18T08:44:30Z</time>
      </trkpt>
      <trkpt lat="42.96468" lon="-0.60952">
        <ele>471.783</ele>
        <time>2021-04-18T08:44:50Z</time>
      </trkpt>
      <trkpt lat="42.9642" lon="-0.60963">
        <ele>474.511</ele>
        <time>2021-04-18T08:45:10Z</time>
      </trkpt>
      <trkpt lat="42.96393" lon="-0.60983">
        <ele>467.608</ele>
        <time>2021-04-18T08:45:30Z</time>
      </trkpt>
      <trkpt lat="42.96267" lon="-0.60998">
        <ele>472.089</ele>
        <time>2021-04-18T08:45:50Z</time>
      </trkpt>
      <trkpt lat="42.96172" lon="-0.60928">
        <ele>479.542</ele>
        <time>2021-04-18T08:46:10Z</time>
      </trkpt>
      <trkpt lat="42.96111" lon="-0.60926">
        <ele>454.058</ele>
        <time>2016-12-30T21:55:54Z</time>
      </trkpt>
      <trkpt lat="42.95985" lon="-0.60964">
        <ele>478.617</ele>
        <time>2021-04-18T08:46:50Z</time>
      </trkpt>
      <trkpt lat="42.95919" lon="-0.61047">
        <ele>473.074</ele>
        <time>2021-04-18T08:47:10Z</time>
      </trkpt>
      <trkpt lat="42.95797" lon="-0.61107">
        <ele>459.755</ele>
        <time>2016-12-30T21:56:54Z</time>
      </trkpt>
      <trkpt lat="42.95602" lon="-0.61141">
        <ele>476.444</ele>
        <time>2021-04-18T08:47:50Z</time>
      </trkpt>
      <trkpt lat="42.95584" lon="-0.61135">
        <ele>480.985</ele>
        <time>2021-04-18T08:48:10Z</time>
      </trkpt>
      <trkpt lat="42.95551" lon="-0.61149">
        <ele>479.586</ele>
        <time>2016-12-30T21:57:34Z</time>
      </trkpt>
      <trkpt lat="42.95499" lon="-0.61191">
        <ele>496.96</ele>
        <time>2021-04-18T08:48:50Z</time>
      </trkpt>
      <trkpt lat="42.95409" lon="-0.6131">
        <ele>493.126</ele>
        <time>2016-12-30T21:58:14Z</time>
      </trkpt>
      <trkpt lat="42.9532" lon="-0.61394">
        <ele>495.008</ele>
        <time>2021-04-18T08:49:30Z</time>
      </trkpt>
      <trkpt lat="42.95246" lon="-0.61415">
        <ele>505.165</ele>
        <time>2016-12-30T21:58:54Z</time>
      </trkpt>
      <trkpt lat="42.95158" lon="-0.61405">
        <ele>500.168</ele>
        <time>2021-04-18T08:50:10Z</time>
      </trkpt>
      <trkpt lat="42.95075" lon="-0.61409">
        <ele>496.064</ele>
        <time>2016-12-30T21:59:14Z</time>
      </trkpt>
      <trkpt lat="42.94968" lon="-0.61401">
        <ele>495.853</ele>
        <time>2021-04-18T08:50:50Z</time>
      </trkpt>
      <trkpt lat="42.94938" lon="-0.61436">
        <ele>481.18</ele>
        <time>2016-12-30T21:59:54Z</time>
      </trkpt>
      <trkpt lat="42.94899" lon="-0.61438">
        <ele>480.141</ele>
        <time>2016-12-30T22:00:14Z</time>
      </trkpt>
      <trkpt lat="42.94788" lon="-0.61291">
        <ele>504.08</ele>
        <time>2021-04-18T08:51:50Z</time>
      </trkpt>
      <trkpt lat="42.94679" lon="-0.61133">
        <ele>498.091</ele>
        <time>2021-04-18T08:52:10Z</time>
      </trkpt>
      <trkpt lat="42.94638" lon="-0.61196">
        <ele>493.668</ele>
        <time>2016-12-30T22:00:54Z</time>
      </trkpt>
      <trkpt lat="42.94551" lon="-0.61105">
        <ele>496.542</ele>
        <time>2021-04-18T08:52:50Z</time>
      </trkpt>
      <trkpt lat="42.94523" lon="-0.61104">
        <ele>498.226</ele>
        <time>2021-04-18T08:53:10Z</time>
      </trkpt>
      <trkpt lat="42.94434" lon="-0.61147">
        <ele>500.808</ele>
        <time>2021-04-18T08:53:30Z</time>
      </trkpt>
      <trkpt lat="42.94409" lon="-0.61144">
        <ele>498.893</ele>
        <time>2021-04-18T08:53:50Z</time>
      </trkpt>
      <trkpt lat="42.9444" lon="-0.61079">
        <ele>496.946</ele>
        <time>2021-04-18T08:54:10Z</time>
      </trkpt>
      <trkpt lat="42.94424" lon="-0.61064">
        <ele>499.572</ele>
        <time>2021-04-18T08:54:30Z</time>
      </trkpt>
      <trkpt lat="42.94387" lon="-0.6109">
        <ele>501.351</ele>
        <time>2016-12-30T22:02:34Z</time>
      </trkpt>
      <trkpt lat="42.94355" lon="-0.61052">
        <ele>504.958</ele>
        <time>2016-12-30T22:02:54Z</time>
      </trkpt>
      <trkpt lat="42.94345" lon="-0.61001">
        <ele>512.799</ele>
        <time>2016-12-30T22:03:14Z</time>
      </trkpt>
      <trkpt lat="42.94309" lon="-0.60977">
        <ele>515.558</ele>
        <time>2016-12-30T22:03:34Z</time>
      </trkpt>
      <trkpt lat="42.94277" lon="-0.60967">
        <ele>527.479</ele>
        <time>2016-12-30T22:03:54Z</time>
      </trkpt>
      <trkpt lat="42.94243" lon="-0.60854">
        <ele>527.123</ele>
        <time>2021-04-18T08:56:30Z</time>
      </trkpt>
      <trkpt lat="42.94221" lon="-0.60831">
        <ele>536.183</ele>
        <time>2021-04-18T08:56:50Z</time>
      </trkpt>
      <trkpt lat="42.94249" lon="-0.60833">
        <ele>519.511</ele>
        <time>2021-04-18T08:57:10Z</time>
      </trkpt>
      <trkpt lat="42.94235" lon="-0.60793">
        <ele>520.008</ele>
        <time>2021-04-18T08:57:30Z</time>
      </trkpt>
      <trkpt lat="42.94254" lon="-0.60754">
        <ele>507.479</ele>
        <time>2021-04-18T08:57:50Z</time>
      </trkpt>
      <trkpt lat="42.94136" lon="-0.60607">
        <ele>507.182</ele>
        <time>2016-12-30T22:04:54Z</time>
      </trkpt>
      <trkpt lat="42.94126" lon="-0.60579">
        <ele>502.778</ele>
        <time>2016-12-30T22:05:14Z</time>
      </trkpt>
      <trkpt lat="42.94032" lon="-0.60417">
        <ele>500.097</ele>
        <time>2016-12-30T22:05:34Z</time>
      </trkpt>
      <trkpt lat="42.93956" lon="-0.60216">
        <ele>506.954</ele>
        <time>2016-12-30T22:05:54Z</time>
      </trkpt>
      <trkpt lat="42.93898" lon="-0.60139">
        <ele>509.765</ele>
        <time>2016-12-30T22:06:14Z</time>
      </trkpt>
      <trkpt lat="42.93863" lon="-0.60127">
        <ele>520.654</ele>
        <time>2016-12-30T22:06:34Z</time>
      </trkpt>
      <trkpt lat="42.93819" lon="-0.59964">
        <ele>531.995</ele>
        <time>2021-04-18T09:00:10Z</time>
      </trkpt>
      <trkpt lat="42.93834" lon="-0.59763">
        <ele>532.021</ele>
        <time>2016-12-30T22:07:14Z</time>
      </trkpt>
      <trkpt lat="42.9386" lon="-0.59709">
        <ele>526.841</ele>
        <time>2016-12-30T22:07:34Z</time>
      </trkpt>
      <trkpt lat="42.93882" lon="-0.59614">
        <ele>525.605</ele>
        <time>2016-12-30T22:07:54Z</time>
      </trkpt>
      <trkpt lat="42.93848" lon="-0.59445">
        <ele>522.308</ele>
        <time>2016-12-30T22:08:14Z</time>
      </trkpt>
      <trkpt lat="42.93785" lon="-0.59351">
        <ele>521.469</ele>
        <time>2016-12-30T22:08:34Z</time>
      </trkpt>
      <trkpt lat="42.9369" lon="-0.59215">
        <ele>532.752</ele>
        <time>2021-04-18T09:02:10Z</time>
      </trkpt>
      <trkpt lat="42.93667" lon="-0.59149">
        <ele>526.198</ele>
        <time>2021-04-18T09:02:30Z</time>
      </trkpt>
      <trkpt lat="42.93614" lon="-0.59083">
        <ele>536.647</ele>
        <time>2021-04-18T09:02:50Z</time>
      </trkpt>
      <trkpt lat="42.9358" lon="-0.59075">
        <ele>547.114</ele>
        <time>2021-04-18T09:03:10Z</time>
      </trkpt>
      <trkpt lat="42.93561" lon="-0.59005">
        <ele>541.625</ele>
        <time>2021-04-18T09:03:30Z</time>
      </trkpt>
      <trkpt lat="42.93459" lon="-0.58787">
        <ele>540.594</ele>
        <time>2016-12-30T22:10:14Z</time>
      </trkpt>
      <trkpt lat="42.93354" lon="-0.58696">
        <ele>541.125</ele>
        <time>2016-12-30T22:10:34Z</time>
      </trkpt>
      <trkpt lat="42.9334" lon="-0.58667">
        <ele>541.091</ele>
        <time>2016-12-30T22:10:54Z</time>
      </trkpt>
      <trkpt lat="42.93256" lon="-0.58642">
        <ele>552.281</ele>
        <time>2016-12-30T22:11:14Z</time>
      </trkpt>
      <trkpt lat="42.93191" lon="-0.58573">
        <ele>562.619</ele>
        <time>2016-12-30T22:11:34Z</time>
      </trkpt>
      <trkpt lat="42.93144" lon="-0.58536">
        <ele>571.008</ele>
        <time>2016-12-30T22:11:54Z</time>
      </trkpt>
      <trkpt lat="42.93073" lon="-0.58428">
        <ele>570.916</ele>
        <time>2021-04-18T09:05:50Z</time>
      </trkpt>
      <trkpt lat="42.93008" lon="-0.58349">
        <ele>574.769</ele>
        <time>2016-12-30T22:12:34Z</time>
      </trkpt>
      <trkpt lat="42.92973" lon="-0.58292">
        <ele>558.025</ele>
        <time>2016-12-30T22:12:54Z</time>
      </trkpt>
      <trkpt lat="42.92925" lon="-0.58284">
        <ele>569.674</ele>
        <time>2016-12-30T22:13:14Z</time>
      </trkpt>
      <trkpt lat="42.92903" lon="-0.58261">
        <ele>562.771</ele>
        <time>2016-12-30T22:13:34Z</time>
      </trkpt>
      <trkpt lat="42.92886" lon="-0.58273">
        <ele>572.362</ele>
        <time>2016-12-30T22:13:54Z</time>
      </trkpt>
      <trkpt lat="42.92831" lon="-0.58237">
        <ele>571.491</ele>
        <time>2016-12-30T22:14:14Z</time>
      </trkpt>
      <trkpt lat="42.92802" lon="-0.58198">
        <ele>561.292</ele>
        <time>2016-12-30T22:14:34Z</time>
      </trkpt>
      <trkpt lat="42.92746" lon="-0.58177">
        <ele>565.258</ele>
        <time>2016-12-30T22:14:54Z</time>
      </trkpt>
      <trkpt lat="42.9269" lon="-0.58135">
        <ele>558.652</ele>
        <time>2016-12-30T22:15:14Z</time>
      </trkpt>
      <trkpt lat="42.9267" lon="-0.58155">
        <ele>564.817</ele>
        <time>2016-12-30T22:15:34Z</time>
      </trkpt>
      <trkpt lat="42.9262" lon="-0.58086">
        <ele>555.408</ele>
        <time>2016-12-30T22:15:54Z</time>
      </trkpt>
      <trkpt lat="42.9246" lon="-0.58012">
        <ele>556.092</ele>
        <time>2016-12-30T22:16:14Z</time>
      </trkpt>
      <trkpt lat="42.9243" lon="-0.58003">
        <ele>559.025</ele>
        <time>2016-12-30T22:16:34Z</time>
      </trkpt>
      <trkpt lat="42.92424" lon="-0.57968">
        <ele>558.181</ele>
        <time>2016-12-30T22:17:14Z</time>
      </trkpt>
      <trkpt lat="42.92367" lon="-0.57926">
        <ele>561.08</ele>
        <time>2016-12-30T22:17:34Z</time>
      </trkpt>
      <trkpt lat="42.92307" lon="-0.57867">
        <ele>564.587</ele>
        <time>2016-12-30T22:17:54Z</time>
      </trkpt>
      <trkpt lat="42.92208" lon="-0.5783">
        <ele>567.798</ele>
        <time>2016-12-30T22:18:14Z</time>
      </trkpt>
      <trkpt lat="42.92146" lon="-0.57775">
        <ele>571.217</ele>
        <time>2016-12-30T22:18:34Z</time>
      </trkpt>
      <trkpt lat="42.92069" lon="-0.57753">
        <ele>576.428</ele>
        <time>2021-04-18T09:12:10Z</time>
      </trkpt>
      <trkpt lat="42.91896" lon="-0.57638">
        <ele>577.335</ele>
        <time>2016-12-30T22:19:14Z</time>
      </trkpt>
      <trkpt lat="42.91802" lon="-0.57598">
        <ele>581.586</ele>
        <time>2016-12-30T22:19:34Z</time>
      </trkpt>
      <trkpt lat="42.91613" lon="-0.57533">
        <ele>587.514</ele>
        <time>2016-12-30T22:19:54Z</time>
      </trkpt>
      <trkpt lat="42.91547" lon="-0.575">
        <ele>591.708</ele>
        <time>2021-04-18T09:13:30Z</time>
      </trkpt>
      <trkpt lat="42.91538" lon="-0.57521">
        <ele>593.21</ele>
        <time>2016-12-30T22:20:34Z</time>
      </trkpt>
      <trkpt lat="42.91509" lon="-0.57493">
        <ele>597.323</ele>
        <time>2021-04-18T09:14:10Z</time>
      </trkpt>
      <trkpt lat="42.91427" lon="-0.57472">
        <ele>602.969</ele>
        <time>2016-12-30T22:21:14Z</time>
      </trkpt>
      <trkpt lat="42.91389" lon="-0.57434">
        <ele>603.268</ele>
        <time>2016-12-30T22:21:34Z</time>
      </trkpt>
      <trkpt lat="42.913" lon="-0.57419">
        <ele>618.235</ele>
        <time>2021-04-18T09:15:10Z</time>
      </trkpt>
      <trkpt lat="42.9124" lon="-0.57427">
        <ele>629.796</ele>
        <time>2021-04-18T09:15:30Z</time>
      </trkpt>
      <trkpt lat="42.91156" lon="-0.57403">
        <ele>629.115</ele>
        <time>2016-12-30T22:23:14Z</time>
      </trkpt>
      <trkpt lat="42.91119" lon="-0.57353">
        <ele>627.956</ele>
        <time>2016-12-30T22:23:34Z</time>
      </trkpt>
      <trkpt lat="42.91096" lon="-0.57345">
        <ele>632.251</ele>
        <time>2016-12-30T22:23:54Z</time>
      </trkpt>
      <trkpt lat="42.91004" lon="-0.57381">
        <ele>645.801</ele>
        <time>2016-12-30T22:24:14Z</time>
      </trkpt>
      <trkpt lat="42.91032" lon="-0.57301">
        <ele>626.211</ele>
        <time>2016-12-30T22:24:34Z</time>
      </trkpt>
      <trkpt lat="42.91056" lon="-0.57243">
        <ele>613.708</ele>
        <time>2016-12-30T22:24:54Z</time>
      </trkpt>
      <trkpt lat="42.91105" lon="-0.57231">
        <ele>607.892</ele>
        <time>2016-12-30T22:25:14Z</time>
      </trkpt>
      <trkpt lat="42.91136" lon="-0.57232">
        <ele>599.795</ele>
        <time>2016-12-30T22:25:34Z</time>
      </trkpt>
      <trkpt lat="42.91143" lon="-0.57201">
        <ele>591.261</ele>
        <time>2016-12-30T22:25:54Z</time>
      </trkpt>
      <trkpt lat="42.91051" lon="-0.57108">
        <ele>590.53</ele>
        <time>2016-12-30T22:26:14Z</time>
      </trkpt>
      <trkpt lat="42.9107" lon="-0.57028">
        <ele>607.917</ele>
        <time>2016-12-30T22:26:34Z</time>
      </trkpt>
      <trkpt lat="42.90862" lon="-0.5697">
        <ele>614.078</ele>
        <time>2016-12-30T22:26:54Z</time>
      </trkpt>
      <trkpt lat="42.90697" lon="-0.56928">
        <ele>625.167</ele>
        <time>2016-12-30T22:27:14Z</time>
      </trkpt>
      <trkpt lat="42.90538" lon="-0.56926">
        <ele>624.358</ele>
        <time>2016-12-30T22:27:34Z</time>
      </trkpt>
      <trkpt lat="42.90418" lon="-0.56947">
        <ele>625.227</ele>
        <time>2016-12-30T22:27:54Z</time>
      </trkpt>
      <trkpt lat="42.90272" lon="-0.56915">
        <ele>627.268</ele>
        <time>2016-12-30T22:28:14Z</time>
      </trkpt>
      <trkpt lat="42.90216" lon="-0.56853">
        <ele>619.514</ele>
        <time>2016-12-30T22:28:34Z</time>
      </trkpt>
      <trkpt lat="42.90098" lon="-0.56752">
        <ele>629.408</ele>
        <time>2016-12-30T22:28:54Z</time>
      </trkpt>
      <trkpt lat="42.89968" lon="-0.56712">
        <ele>662.419</ele>
        <time>2016-12-30T22:29:14Z</time>
      </trkpt>
      <trkpt lat="42.89914" lon="-0.56744">
        <ele>644.462</ele>
        <time>2016-12-30T22:29:34Z</time>
      </trkpt>
      <trkpt lat="42.89879" lon="-0.56802">
        <ele>631.148</ele>
        <time>2016-12-30T22:29:54Z</time>
      </trkpt>
      <trkpt lat="42.89787" lon="-0.56758">
        <ele>634.847</ele>
        <time>2016-12-30T22:30:14Z</time>
      </trkpt>
      <trkpt lat="42.89786" lon="-0.56758">
        <ele>634.974</ele>
        <time>2016-12-30T22:30:34Z</time>
      </trkpt>
      <trkpt lat="42.89688" lon="-0.56683">
        <ele>644.065</ele>
        <time>2016-12-30T22:30:54Z</time>
      </trkpt>
      <trkpt lat="42.89548" lon="-0.56623">
        <ele>653.264</ele>
        <time>2016-12-30T22:31:14Z</time>
      </trkpt>
      <trkpt lat="42.89444" lon="-0.56461">
        <ele>653.655</ele>
        <time>2016-12-30T22:31:34Z</time>
      </trkpt>
      <trkpt lat="42.89352" lon="-0.56471">
        <ele>655.589</ele>
        <time>2016-12-30T22:31:54Z</time>
      </trkpt>
      <trkpt lat="42.89263" lon="-0.56412">
        <ele>654.306</ele>
        <time>2016-12-30T22:32:14Z</time>
      </trkpt>
      <trkpt lat="42.89191" lon="-0.56455">
        <ele>666.026</ele>
        <time>2016-12-30T22:32:34Z</time>
      </trkpt>
      <trkpt lat="42.8911" lon="-0.56448">
        <ele>665.808</ele>
        <time>2016-12-30T22:32:54Z</time>
      </trkpt>
      <trkpt lat="42.89035" lon="-0.56385">
        <ele>674.875</ele>
        <time>2016-12-30T22:34:14Z</time>
      </trkpt>
      <trkpt lat="42.88985" lon="-0.56319">
        <ele>667.858</ele>
        <time>2016-12-30T22:34:54Z</time>
      </trkpt>
      <trkpt lat="42.88895" lon="-0.56324">
        <ele>680.394</ele>
        <time>2016-12-30T22:35:34Z</time>
      </trkpt>
      <trkpt lat="42.88805" lon="-0.56319">
        <ele>679.283</ele>
        <time>2016-12-30T22:35:54Z</time>
      </trkpt>
      <trkpt lat="42.88747" lon="-0.56293">
        <ele>674.32</ele>
        <time>2016-12-30T22:36:14Z</time>
      </trkpt>
      <trkpt lat="42.88725" lon="-0.56323">
        <ele>687.661</ele>
        <time>2016-12-30T22:36:34Z</time>
      </trkpt>
      <trkpt lat="42.88644" lon="-0.56349">
        <ele>692.14</ele>
        <time>2016-12-30T22:36:54Z</time>
      </trkpt>
      <trkpt lat="42.8858" lon="-0.56332">
        <ele>694.881</ele>
        <time>2016-12-30T22:37:14Z</time>
      </trkpt>
      <trkpt lat="42.88526" lon="-0.56343">
        <ele>698.072</ele>
        <time>2016-12-30T22:39:34Z</time>
      </trkpt>
      <trkpt lat="42.88493" lon="-0.56306">
        <ele>692.913</ele>
        <time>2016-12-30T22:39:54Z</time>
      </trkpt>
      <trkpt lat="42.88454" lon="-0.56306">
        <ele>697.714</ele>
        <time>2016-12-30T22:40:14Z</time>
      </trkpt>
      <trkpt lat="42.88401" lon="-0.56255">
        <ele>699.808</ele>
        <time>2016-12-30T22:40:34Z</time>
      </trkpt>
      <trkpt lat="42.88372" lon="-0.56166">
        <ele>729.464</ele>
        <time>2016-12-30T22:41:14Z</time>
      </trkpt>
      <trkpt lat="42.8822" lon="-0.56059">
        <ele>710.057</ele>
        <time>2016-12-30T22:41:34Z</time>
      </trkpt>
      <trkpt lat="42.88176" lon="-0.55985">
        <ele>717.393</ele>
        <time>2016-12-30T22:41:54Z</time>
      </trkpt>
      <trkpt lat="42.88035" lon="-0.5589">
        <ele>718.762</ele>
        <time>2016-12-30T22:42:14Z</time>
      </trkpt>
      <trkpt lat="42.87995" lon="-0.55874">
        <ele>718.359</ele>
        <time>2016-12-30T22:42:34Z</time>
      </trkpt>
      <trkpt lat="42.87818" lon="-0.55752">
        <ele>725.42</ele>
        <time>2016-12-30T22:42:54Z</time>
      </trkpt>
      <trkpt lat="42.87774" lon="-0.5567">
        <ele>735.819</ele>
        <time>2016-12-30T22:43:14Z</time>
      </trkpt>
      <trkpt lat="42.87709" lon="-0.55633">
        <ele>730.17</ele>
        <time>2016-12-30T22:43:34Z</time>
      </trkpt>
      <trkpt lat="42.87623" lon="-0.55598">
        <ele>733.134</ele>
        <time>2016-12-30T22:43:54Z</time>
      </trkpt>
      <trkpt lat="42.87388" lon="-0.55534">
        <ele>758.655</ele>
        <time>2016-12-30T22:44:14Z</time>
      </trkpt>
      <trkpt lat="42.8727" lon="-0.55538">
        <ele>761.61</ele>
        <time>2016-12-30T22:44:34Z</time>
      </trkpt>
      <trkpt lat="42.87273" lon="-0.55485">
        <ele>769.108</ele>
        <time>2016-12-30T22:44:54Z</time>
      </trkpt>
      <trkpt lat="42.87282" lon="-0.5548">
        <ele>769.99</ele>
        <time>2016-12-30T22:45:14Z</time>
      </trkpt>
      <trkpt lat="42.87282" lon="-0.55455">
        <ele>773.583</ele>
        <time>2016-12-30T22:45:34Z</time>
      </trkpt>
      <trkpt lat="42.87138" lon="-0.55437">
        <ele>779.929</ele>
        <time>2016-12-30T22:45:54Z</time>
      </trkpt>
      <trkpt lat="42.87118" lon="-0.55428">
        <ele>779.718</ele>
        <time>2016-12-30T22:46:14Z</time>
      </trkpt>
      <trkpt lat="42.8711" lon="-0.5544">
        <ele>776.555</ele>
        <time>2016-12-30T22:46:34Z</time>
      </trkpt>
      <trkpt lat="42.87122" lon="-0.55459">
        <ele>774.976</ele>
        <time>2016-12-30T22:46:54Z</time>
      </trkpt>
      <trkpt lat="42.87094" lon="-0.55459">
        <ele>771.665</ele>
        <time>2016-12-30T22:47:14Z</time>
      </trkpt>
      <trkpt lat="42.87094" lon="-0.55428">
        <ele>775.976</ele>
        <time>2016-12-30T22:47:34Z</time>
      </trkpt>
      <trkpt lat="42.87078" lon="-0.55426">
        <ele>773.029</ele>
        <time>2016-12-30T22:47:54Z</time>
      </trkpt>
      <trkpt lat="42.8707" lon="-0.55419">
        <ele>772.2</ele>
        <time>2016-12-30T22:48:14Z</time>
      </trkpt>
      <trkpt lat="42.86997" lon="-0.55314">
        <ele>769.32</ele>
        <time>2016-12-30T22:48:34Z</time>
      </trkpt>
      <trkpt lat="42.86904" lon="-0.55256">
        <ele>764.708</ele>
        <time>2016-12-30T22:48:54Z</time>
      </trkpt>
      <trkpt lat="42.86863" lon="-0.55239">
        <ele>764.349</ele>
        <time>2016-12-30T22:49:14Z</time>
      </trkpt>
      <trkpt lat="42.8683" lon="-0.55206">
        <ele>767.272</ele>
        <time>2016-12-30T22:49:34Z</time>
      </trkpt>
      <trkpt lat="42.86813" lon="-0.55235">
        <ele>764.728</ele>
        <time>2016-12-30T22:49:54Z</time>
      </trkpt>
      <trkpt lat="42.8678" lon="-0.55233">
        <ele>765.654</ele>
        <time>2016-12-30T22:50:34Z</time>
      </trkpt>
      <trkpt lat="42.86774" lon="-0.55256">
        <ele>764.865</ele>
        <time>2016-12-30T22:50:54Z</time>
      </trkpt>
      <trkpt lat="42.86778" lon="-0.55297">
        <ele>763.244</ele>
        <time>2016-12-30T22:51:14Z</time>
      </trkpt>
      <trkpt lat="42.86724" lon="-0.55291">
        <ele>765.025</ele>
        <time>2016-12-30T22:51:34Z</time>
      </trkpt>
      <trkpt lat="42.86686" lon="-0.55321">
        <ele>765.947</ele>
        <time>2016-12-30T22:51:54Z</time>
      </trkpt>
      <trkpt lat="42.86692" lon="-0.55343">
        <ele>765.229</ele>
        <time>2016-12-30T22:52:14Z</time>
      </trkpt>
      <trkpt lat="42.86621" lon="-0.55357">
        <ele>768.721</ele>
        <time>2016-12-30T22:52:34Z</time>
      </trkpt>
      <trkpt lat="42.86613" lon="-0.55371">
        <ele>769.908</ele>
        <time>2016-12-30T22:52:54Z</time>
      </trkpt>
      <trkpt lat="42.866" lon="-0.55376">
        <ele>773.341</ele>
        <time>2016-12-30T22:53:14Z</time>
      </trkpt>
      <trkpt lat="42.86602" lon="-0.55396">
        <ele>776.674</ele>
        <time>2016-12-30T22:53:34Z</time>
      </trkpt>
      <trkpt lat="42.86535" lon="-0.55393">
        <ele>795.79</ele>
        <time>2016-12-30T22:53:54Z</time>
      </trkpt>
      <trkpt lat="42.86514" lon="-0.55411">
        <ele>813.969</ele>
        <time>2016-12-30T22:54:14Z</time>
      </trkpt>
      <trkpt lat="42.86425" lon="-0.55379">
        <ele>809.446</ele>
        <time>2016-12-30T22:54:34Z</time>
      </trkpt>
      <trkpt lat="42.86401" lon="-0.55391">
        <ele>821.937</ele>
        <time>2016-12-30T22:54:54Z</time>
      </trkpt>
      <trkpt lat="42.86376" lon="-0.55385">
        <ele>821.156</ele>
        <time>2016-12-30T22:55:14Z</time>
      </trkpt>
      <trkpt lat="42.86365" lon="-0.55399">
        <ele>829.367</ele>
        <time>2016-12-30T22:55:34Z</time>
      </trkpt>
      <trkpt lat="42.86319" lon="-0.554">
        <ele>825.094</ele>
        <time>2016-12-30T22:55:54Z</time>
      </trkpt>
      <trkpt lat="42.86255" lon="-0.5546">
        <ele>844.557</ele>
        <time>2016-12-30T22:56:14Z</time>
      </trkpt>
      <trkpt lat="42.86201" lon="-0.55445">
        <ele>831.122</ele>
        <time>2016-12-30T22:56:34Z</time>
      </trkpt>
      <trkpt lat="42.86016" lon="-0.55314">
        <ele>848.308</ele>
        <time>2016-12-30T22:56:54Z</time>
      </trkpt>
      <trkpt lat="42.85939" lon="-0.55248">
        <ele>846.736</ele>
        <time>2016-12-30T22:57:14Z</time>
      </trkpt>
      <trkpt lat="42.85758" lon="-0.55218">
        <ele>850.379</ele>
        <time>2016-12-30T22:57:34Z</time>
      </trkpt>
      <trkpt lat="42.85726" lon="-0.55194">
        <ele>848.395</ele>
        <time>2016-12-30T22:57:54Z</time>
      </trkpt>
      <trkpt lat="42.85714" lon="-0.55153">
        <ele>835.934</ele>
        <time>2016-12-30T22:58:14Z</time>
      </trkpt>
      <trkpt lat="42.85629" lon="-0.5513">
        <ele>838.751</ele>
        <time>2016-12-30T22:58:34Z</time>
      </trkpt>
      <trkpt lat="42.8553" lon="-0.5513">
        <ele>853.052</ele>
        <time>2016-12-30T22:58:54Z</time>
      </trkpt>
      <trkpt lat="42.85493" lon="-0.55149">
        <ele>861.011</ele>
        <time>2016-12-30T22:59:14Z</time>
      </trkpt>
      <trkpt lat="42.85415" lon="-0.55165">
        <ele>872.742</ele>
        <time>2021-04-18T09:48:10Z</time>
      </trkpt>
      <trkpt lat="42.85365" lon="-0.55193">
        <ele>881.669</ele>
        <time>2021-04-18T09:48:30Z</time>
      </trkpt>
      <trkpt lat="42.85336" lon="-0.55188">
        <ele>882.004</ele>
        <time>2021-04-18T09:48:50Z</time>
      </trkpt>
      <trkpt lat="42.8532" lon="-0.55177">
        <ele>878.924</ele>
        <time>2021-04-18T09:49:10Z</time>
      </trkpt>
      <trkpt lat="42.85288" lon="-0.55186">
        <ele>880.308</ele>
        <time>2021-04-18T09:49:30Z</time>
      </trkpt>
      <trkpt lat="42.85273" lon="-0.55198">
        <ele>879.283</ele>
        <time>2016-12-30T23:00:34Z</time>
      </trkpt>
      <trkpt lat="42.85248" lon="-0.55198">
        <ele>874.022</ele>
        <time>2016-12-30T23:01:14Z</time>
      </trkpt>
      <trkpt lat="42.85246" lon="-0.55204">
        <ele>876.361</ele>
        <time>2016-12-30T23:01:34Z</time>
      </trkpt>
      <trkpt lat="42.85231" lon="-0.55213">
        <ele>877.698</ele>
        <time>2016-12-30T23:01:54Z</time>
      </trkpt>
      <trkpt lat="42.85212" lon="-0.55249">
        <ele>885.859</ele>
        <time>2016-12-30T23:02:14Z</time>
      </trkpt>
      <trkpt lat="42.85175" lon="-0.55234">
        <ele>883.598</ele>
        <time>2016-12-30T23:02:34Z</time>
      </trkpt>
      <trkpt lat="42.85157" lon="-0.55264">
        <ele>893.769</ele>
        <time>2016-12-30T23:02:54Z</time>
      </trkpt>
      <trkpt lat="42.85108" lon="-0.55311">
        <ele>894.726</ele>
        <time>2016-12-30T23:03:14Z</time>
      </trkpt>
      <trkpt lat="42.85073" lon="-0.55328">
        <ele>893.647</ele>
        <time>2016-12-30T23:03:34Z</time>
      </trkpt>
      <trkpt lat="42.85048" lon="-0.55367">
        <ele>913.811</ele>
        <time>2021-04-18T09:53:10Z</time>
      </trkpt>
      <trkpt lat="42.84999" lon="-0.55358">
        <ele>893.508</ele>
        <time>2016-12-30T23:04:14Z</time>
      </trkpt>
      <trkpt lat="42.84973" lon="-0.55326">
        <ele>888.769</ele>
        <time>2016-12-30T23:04:34Z</time>
      </trkpt>
      <trkpt lat="42.84916" lon="-0.5532">
        <ele>887.652</ele>
        <time>2016-12-30T23:04:54Z</time>
      </trkpt>
      <trkpt lat="42.84851" lon="-0.5541">
        <ele>897.988</ele>
        <time>2016-12-30T23:05:14Z</time>
      </trkpt>
      <trkpt lat="42.84785" lon="-0.55425">
        <ele>902.417</ele>
        <time>2016-12-30T23:05:34Z</time>
      </trkpt>
      <trkpt lat="42.84782" lon="-0.5544">
        <ele>904.354</ele>
        <time>2016-12-30T23:05:54Z</time>
      </trkpt>
      <trkpt lat="42.84809" lon="-0.55459">
        <ele>906.765</ele>
        <time>2016-12-30T23:06:14Z</time>
      </trkpt>
      <trkpt lat="42.84793" lon="-0.55491">
        <ele>914.344</ele>
        <time>2016-12-30T23:06:34Z</time>
      </trkpt>
      <trkpt lat="42.84739" lon="-0.55508">
        <ele>934.145</ele>
        <time>2021-04-18T09:56:10Z</time>
      </trkpt>
      <trkpt lat="42.84713" lon="-0.55543">
        <ele>931.287</ele>
        <time>2016-12-30T23:07:14Z</time>
      </trkpt>
      <trkpt lat="42.84677" lon="-0.55592">
        <ele>961.442</ele>
        <time>2021-04-18T09:56:50Z</time>
      </trkpt>
      <trkpt lat="42.84639" lon="-0.55616">
        <ele>967.426</ele>
        <time>2021-04-18T09:57:10Z</time>
      </trkpt>
      <trkpt lat="42.84623" lon="-0.55661">
        <ele>961.208</ele>
        <time>2016-12-30T23:07:34Z</time>
      </trkpt>
      <trkpt lat="42.84603" lon="-0.55637">
        <ele>971.025</ele>
        <time>2021-04-18T09:57:50Z</time>
      </trkpt>
      <trkpt lat="42.84573" lon="-0.55632">
        <ele>967.088</ele>
        <time>2021-04-18T09:58:10Z</time>
      </trkpt>
      <trkpt lat="42.84576" lon="-0.5568">
        <ele>964.234</ele>
        <time>2016-12-30T23:08:14Z</time>
      </trkpt>
      <trkpt lat="42.84554" lon="-0.55685">
        <ele>967.393</ele>
        <time>2016-12-30T23:08:34Z</time>
      </trkpt>
      <trkpt lat="42.84525" lon="-0.55765">
        <ele>1000.62</ele>
        <time>2021-04-18T09:59:10Z</time>
      </trkpt>
      <trkpt lat="42.84493" lon="-0.55798">
        <ele>994.221</ele>
        <time>2016-12-30T23:09:14Z</time>
      </trkpt>
      <trkpt lat="42.8449" lon="-0.55893">
        <ele>1012.33</ele>
        <time>2016-12-30T23:09:34Z</time>
      </trkpt>
      <trkpt lat="42.84489" lon="-0.55931">
        <ele>1043.891</ele>
        <time>2021-04-18T10:00:10Z</time>
      </trkpt>
      <trkpt lat="42.8447" lon="-0.55942">
        <ele>1046.639</ele>
        <time>2021-04-18T10:00:30Z</time>
      </trkpt>
      <trkpt lat="42.84447" lon="-0.55931">
        <ele>1022.701</ele>
        <time>2016-12-30T23:10:14Z</time>
      </trkpt>
      <trkpt lat="42.84376" lon="-0.55996">
        <ele>1042.221</ele>
        <time>2016-12-30T23:10:34Z</time>
      </trkpt>
      <trkpt lat="42.84345" lon="-0.5604">
        <ele>1068.708</ele>
        <time>2021-04-18T10:01:30Z</time>
      </trkpt>
      <trkpt lat="42.8433" lon="-0.56076">
        <ele>1080.54</ele>
        <time>2021-04-18T10:01:50Z</time>
      </trkpt>
      <trkpt lat="42.84296" lon="-0.56087">
        <ele>1084.883</ele>
        <time>2021-04-18T10:02:10Z</time>
      </trkpt>
      <trkpt lat="42.84243" lon="-0.56054">
        <ele>1066.589</ele>
        <time>2016-12-30T23:11:34Z</time>
      </trkpt>
      <trkpt lat="42.84073" lon="-0.56167">
        <ele>1065.158</ele>
        <time>2016-12-30T23:11:54Z</time>
      </trkpt>
      <trkpt lat="42.84021" lon="-0.56227">
        <ele>1069.385</ele>
        <time>2016-12-30T23:12:14Z</time>
      </trkpt>
      <trkpt lat="42.83935" lon="-0.56258">
        <ele>1076.316</ele>
        <time>2021-04-18T10:03:30Z</time>
      </trkpt>
      <trkpt lat="42.8392" lon="-0.56298">
        <ele>1063.615</ele>
        <time>2016-12-30T23:12:54Z</time>
      </trkpt>
      <trkpt lat="42.83922" lon="-0.56331">
        <ele>1092.276</ele>
        <time>2021-04-18T10:04:10Z</time>
      </trkpt>
      <trkpt lat="42.83915" lon="-0.56348">
        <ele>1071.826</ele>
        <time>2016-12-30T23:13:14Z</time>
      </trkpt>
      <trkpt lat="42.83878" lon="-0.56298">
        <ele>1063.347</ele>
        <time>2016-12-30T23:13:34Z</time>
      </trkpt>
      <trkpt lat="42.83823" lon="-0.5631">
        <ele>1082.911</ele>
        <time>2021-04-18T10:05:10Z</time>
      </trkpt>
      <trkpt lat="42.83802" lon="-0.56326">
        <ele>1088.308</ele>
        <time>2021-04-18T10:05:30Z</time>
      </trkpt>
      <trkpt lat="42.8367" lon="-0.56288">
        <ele>1083.029</ele>
        <time>2021-04-18T10:05:50Z</time>
      </trkpt>
      <trkpt lat="42.83591" lon="-0.5617">
        <ele>1056.292</ele>
        <time>2016-12-30T23:14:34Z</time>
      </trkpt>
      <trkpt lat="42.83523" lon="-0.56195">
        <ele>1055.658</ele>
        <time>2016-12-30T23:14:54Z</time>
      </trkpt>
      <trkpt lat="42.83485" lon="-0.56196">
        <ele>1069.747</ele>
        <time>2021-04-18T10:06:50Z</time>
      </trkpt>
      <trkpt lat="42.83474" lon="-0.5618">
        <ele>1062.674</ele>
        <time>2021-04-18T10:07:10Z</time>
      </trkpt>
      <trkpt lat="42.83471" lon="-0.56146">
        <ele>1050.815</ele>
        <time>2021-04-18T10:07:30Z</time>
      </trkpt>
      <trkpt lat="42.83443" lon="-0.56129">
        <ele>1045.874</ele>
        <time>2021-04-18T10:07:50Z</time>
      </trkpt>
      <trkpt lat="42.8346" lon="-0.56082">
        <ele>1032.085</ele>
        <time>2021-04-18T10:08:10Z</time>
      </trkpt>
      <trkpt lat="42.83544" lon="-0.56074">
        <ele>1027.854</ele>
        <time>2021-04-18T10:08:30Z</time>
      </trkpt>
      <trkpt lat="42.83568" lon="-0.5608">
        <ele>1028.656</ele>
        <time>2021-04-18T10:08:50Z</time>
      </trkpt>
      <trkpt lat="42.83635" lon="-0.56041">
        <ele>1014.611</ele>
        <time>2021-04-18T10:09:10Z</time>
      </trkpt>
      <trkpt lat="42.8364" lon="-0.56003">
        <ele>1005.708</ele>
        <time>2021-04-18T10:09:30Z</time>
      </trkpt>
      <trkpt lat="42.83655" lon="-0.5598">
        <ele>1001.412</ele>
        <time>2021-04-18T10:09:50Z</time>
      </trkpt>
      <trkpt lat="42.83725" lon="-0.55951">
        <ele>995.915</ele>
        <time>2021-04-18T10:10:10Z</time>
      </trkpt>
      <trkpt lat="42.83728" lon="-0.55907">
        <ele>988.051</ele>
        <time>2021-04-18T10:10:30Z</time>
      </trkpt>
      <trkpt lat="42.83719" lon="-0.55885">
        <ele>984.13</ele>
        <time>2021-04-18T10:10:50Z</time>
      </trkpt>
      <trkpt lat="42.83732" lon="-0.55837">
        <ele>975.797</ele>
        <time>2021-04-18T10:11:10Z</time>
      </trkpt>
      <trkpt lat="42.83735" lon="-0.55776">
        <ele>985.078</ele>
        <time>2021-04-18T10:11:30Z</time>
      </trkpt>
      <trkpt lat="42.83713" lon="-0.55789">
        <ele>982.357</ele>
        <time>2021-04-18T10:11:50Z</time>
      </trkpt>
      <trkpt lat="42.83685" lon="-0.55786">
        <ele>982.268</ele>
        <time>2021-04-18T10:12:10Z</time>
      </trkpt>
      <trkpt lat="42.83656" lon="-0.55764">
        <ele>985.433</ele>
        <time>2021-04-18T10:12:30Z</time>
      </trkpt>
      <trkpt lat="42.83627" lon="-0.55755">
        <ele>987.723</ele>
        <time>2021-04-18T10:12:50Z</time>
      </trkpt>
      <trkpt lat="42.83586" lon="-0.55765">
        <ele>987.315</ele>
        <time>2021-04-18T10:13:10Z</time>
      </trkpt>
      <trkpt lat="42.83534" lon="-0.55746">
        <ele>992.608</ele>
        <time>2021-04-18T10:13:30Z</time>
      </trkpt>
      <trkpt lat="42.83584" lon="-0.55733">
        <ele>998.38</ele>
        <time>2021-04-18T10:13:50Z</time>
      </trkpt>
      <trkpt lat="42.83583" lon="-0.55722">
        <ele>1003.923</ele>
        <time>2021-04-18T10:14:10Z</time>
      </trkpt>
      <trkpt lat="42.83446" lon="-0.55726">
        <ele>1006.989</ele>
        <time>2021-04-18T10:14:30Z</time>
      </trkpt>
      <trkpt lat="42.83403" lon="-0.55742">
        <ele>1008.088</ele>
        <time>2021-04-18T10:14:50Z</time>
      </trkpt>
      <trkpt lat="42.83401" lon="-0.55721">
        <ele>1016.435</ele>
        <time>2021-04-18T10:15:10Z</time>
      </trkpt>
      <trkpt lat="42.83419" lon="-0.55694">
        <ele>1020.876</ele>
        <time>2021-04-18T10:15:30Z</time>
      </trkpt>
      <trkpt lat="42.83419" lon="-0.55651">
        <ele>1043.245</ele>
        <time>2021-04-18T10:15:50Z</time>
      </trkpt>
      <trkpt lat="42.83409" lon="-0.55646">
        <ele>1037.626</ele>
        <time>2016-12-30T23:20:54Z</time>
      </trkpt>
      <trkpt lat="42.83317" lon="-0.55736">
        <ele>1039.849</ele>
        <time>2021-04-18T10:16:30Z</time>
      </trkpt>
      <trkpt lat="42.8321" lon="-0.55803">
        <ele>1035.002</ele>
        <time>2016-12-30T23:21:34Z</time>
      </trkpt>
      <trkpt lat="42.83108" lon="-0.55818">
        <ele>1041.422</ele>
        <time>2016-12-30T23:21:54Z</time>
      </trkpt>
      <trkpt lat="42.8302" lon="-0.558">
        <ele>1059.608</ele>
        <time>2016-12-30T23:22:14Z</time>
      </trkpt>
      <trkpt lat="42.82903" lon="-0.55732">
        <ele>1071.321</ele>
        <time>2016-12-30T23:22:34Z</time>
      </trkpt>
      <trkpt lat="42.82867" lon="-0.55721">
        <ele>1074.614</ele>
        <time>2016-12-30T23:22:54Z</time>
      </trkpt>
      <trkpt lat="42.82751" lon="-0.55659">
        <ele>1089.34</ele>
        <time>2016-12-30T23:23:14Z</time>
      </trkpt>
      <trkpt lat="42.82669" lon="-0.5564">
        <ele>1093.629</ele>
        <time>2016-12-30T23:23:34Z</time>
      </trkpt>
      <trkpt lat="42.82606" lon="-0.55693">
        <ele>1095.726</ele>
        <time>2016-12-30T23:23:54Z</time>
      </trkpt>
      <trkpt lat="42.82545" lon="-0.55708">
        <ele>1107.117</ele>
        <time>2016-12-30T23:24:14Z</time>
      </trkpt>
      <trkpt lat="42.82457" lon="-0.5568">
        <ele>1128.986</ele>
        <time>2016-12-30T23:24:34Z</time>
      </trkpt>
      <trkpt lat="42.8242" lon="-0.55693">
        <ele>1123.437</ele>
        <time>2016-12-30T23:24:54Z</time>
      </trkpt>
      <trkpt lat="42.82332" lon="-0.55659">
        <ele>1144.612</ele>
        <time>2016-12-30T23:25:14Z</time>
      </trkpt>
      <trkpt lat="42.82162" lon="-0.55728">
        <ele>1164.132</ele>
        <time>2016-12-30T23:25:34Z</time>
      </trkpt>
      <trkpt lat="42.81994" lon="-0.55697">
        <ele>1187.305</ele>
        <time>2016-12-30T23:25:54Z</time>
      </trkpt>
      <trkpt lat="42.81833" lon="-0.55745">
        <ele>1205.008</ele>
        <time>2016-12-30T23:26:14Z</time>
      </trkpt>
      <trkpt lat="42.81783" lon="-0.55753">
        <ele>1218.998</ele>
        <time>2016-12-30T23:26:34Z</time>
      </trkpt>
      <trkpt lat="42.81753" lon="-0.558">
        <ele>1214.221</ele>
        <time>2016-12-30T23:26:54Z</time>
      </trkpt>
      <trkpt lat="42.81717" lon="-0.55788">
        <ele>1226.847</ele>
        <time>2016-12-30T23:27:14Z</time>
      </trkpt>
      <trkpt lat="42.81688" lon="-0.55813">
        <ele>1224.546</ele>
        <time>2016-12-30T23:27:34Z</time>
      </trkpt>
      <trkpt lat="42.81633" lon="-0.55815">
        <ele>1228.283</ele>
        <time>2016-12-30T23:27:54Z</time>
      </trkpt>
      <trkpt lat="42.8157" lon="-0.55719">
        <ele>1250.484</ele>
        <time>2016-12-30T23:28:14Z</time>
      </trkpt>
      <trkpt lat="42.81509" lon="-0.55728">
        <ele>1257.343</ele>
        <time>2016-12-30T23:28:34Z</time>
      </trkpt>
      <trkpt lat="42.8146" lon="-0.55706">
        <ele>1261.524</ele>
        <time>2016-12-30T23:28:54Z</time>
      </trkpt>
      <trkpt lat="42.81427" lon="-0.55633">
        <ele>1269.847</ele>
        <time>2016-12-30T23:29:14Z</time>
      </trkpt>
      <trkpt lat="42.81407" lon="-0.55575">
        <ele>1278.429</ele>
        <time>2016-12-30T23:29:34Z</time>
      </trkpt>
      <trkpt lat="42.81347" lon="-0.55571">
        <ele>1276.421</ele>
        <time>2016-12-30T23:29:54Z</time>
      </trkpt>
      <trkpt lat="42.81301" lon="-0.55511">
        <ele>1287.208</ele>
        <time>2016-12-30T23:30:14Z</time>
      </trkpt>
      <trkpt lat="42.81281" lon="-0.55436">
        <ele>1299.311</ele>
        <time>2019-12-06T16:33:02Z</time>
      </trkpt>
      <trkpt lat="42.81237" lon="-0.55343">
        <ele>1318.064</ele>
        <time>2019-12-06T16:33:22Z</time>
      </trkpt>
      <trkpt lat="42.81134" lon="-0.55245">
        <ele>1329.35</ele>
        <time>2019-12-06T16:33:42Z</time>
      </trkpt>
      <trkpt lat="42.81049" lon="-0.55092">
        <ele>1361.729</ele>
        <time>2019-12-06T16:34:02Z</time>
      </trkpt>
      <trkpt lat="42.80979" lon="-0.55084">
        <ele>1361.676</ele>
        <time>2019-12-06T16:34:22Z</time>
      </trkpt>
      <trkpt lat="42.80996" lon="-0.55073">
        <ele>1367.187</ele>
        <time>2019-12-06T16:34:42Z</time>
      </trkpt>
      <trkpt lat="42.80903" lon="-0.55032">
        <ele>1386.336</ele>
        <time>2019-12-06T16:35:02Z</time>
      </trkpt>
      <trkpt lat="42.80794" lon="-0.54957">
        <ele>1395.947</ele>
        <time>2019-12-06T16:35:22Z</time>
      </trkpt>
      <trkpt lat="42.80695" lon="-0.54835">
        <ele>1427.029</ele>
        <time>2021-04-18T10:28:30Z</time>
      </trkpt>
      <trkpt lat="42.80652" lon="-0.54803">
        <ele>1431.7</ele>
        <time>2021-04-18T10:28:50Z</time>
      </trkpt>
      <trkpt lat="42.80571" lon="-0.54813">
        <ele>1424.22</ele>
        <time>2019-12-06T16:36:22Z</time>
      </trkpt>
      <trkpt lat="42.80497" lon="-0.54788">
        <ele>1417.908</ele>
        <time>2019-12-06T16:36:42Z</time>
      </trkpt>
      <trkpt lat="42.80428" lon="-0.54801">
        <ele>1412.919</ele>
        <time>2019-12-06T16:37:02Z</time>
      </trkpt>
      <trkpt lat="42.80428" lon="-0.54749">
        <ele>1416.762</ele>
        <time>2019-12-06T16:37:22Z</time>
      </trkpt>
      <trkpt lat="42.80401" lon="-0.5471">
        <ele>1420.638</ele>
        <time>2019-12-06T16:37:42Z</time>
      </trkpt>
      <trkpt lat="42.80413" lon="-0.54661">
        <ele>1424.697</ele>
        <time>2019-12-06T16:38:02Z</time>
      </trkpt>
      <trkpt lat="42.80354" lon="-0.5464">
        <ele>1427.974</ele>
        <time>2019-12-06T16:38:22Z</time>
      </trkpt>
      <trkpt lat="42.80322" lon="-0.54614">
        <ele>1435.485</ele>
        <time>2019-12-06T16:38:42Z</time>
      </trkpt>
      <trkpt lat="42.80286" lon="-0.54648">
        <ele>1431.064</ele>
        <time>2019-12-06T16:39:02Z</time>
      </trkpt>
      <trkpt lat="42.80236" lon="-0.54553">
        <ele>1443.365</ele>
        <time>2021-04-18T10:32:10Z</time>
      </trkpt>
      <trkpt lat="42.80193" lon="-0.54496">
        <ele>1444.958</ele>
        <time>2021-04-18T10:32:30Z</time>
      </trkpt>
      <trkpt lat="42.80159" lon="-0.54353">
        <ele>1454.252</ele>
        <time>2021-04-18T10:32:50Z</time>
      </trkpt>
      <trkpt lat="42.80128" lon="-0.5426">
        <ele>1447.117</ele>
        <time>2019-12-06T16:39:42Z</time>
      </trkpt>
      <trkpt lat="42.80092" lon="-0.54208">
        <ele>1453.608</ele>
        <time>2019-12-06T16:40:02Z</time>
      </trkpt>
      <trkpt lat="42.8005" lon="-0.54176">
        <ele>1454.812</ele>
        <time>2019-12-06T16:40:22Z</time>
      </trkpt>
      <trkpt lat="42.80006" lon="-0.53966">
        <ele>1477.475</ele>
        <time>2019-12-06T16:40:42Z</time>
      </trkpt>
      <trkpt lat="42.80006" lon="-0.53876">
        <ele>1481.081</ele>
        <time>2019-12-06T16:41:02Z</time>
      </trkpt>
      <trkpt lat="42.79962" lon="-0.53753">
        <ele>1485.92</ele>
        <time>2019-12-06T16:41:22Z</time>
      </trkpt>
      <trkpt lat="42.79976" lon="-0.53701">
        <ele>1505.937</ele>
        <time>2021-04-18T10:35:10Z</time>
      </trkpt>
      <trkpt lat="42.79916" lon="-0.53587">
        <ele>1506.858</ele>
        <time>2021-04-18T10:35:30Z</time>
      </trkpt>
      <trkpt lat="42.79878" lon="-0.53454">
        <ele>1526.737</ele>
        <time>2021-04-18T10:35:50Z</time>
      </trkpt>
      <trkpt lat="42.79903" lon="-0.53399">
        <ele>1523.748</ele>
        <time>2019-12-06T16:42:42Z</time>
      </trkpt>
      <trkpt lat="42.79875" lon="-0.53311">
        <ele>1540.073</ele>
        <time>2019-12-06T16:43:02Z</time>
      </trkpt>
      <trkpt lat="42.79832" lon="-0.5329">
        <ele>1546.085</ele>
        <time>2019-12-06T16:43:22Z</time>
      </trkpt>
      <trkpt lat="42.79817" lon="-0.53236">
        <ele>1548.813</ele>
        <time>2019-12-06T16:43:42Z</time>
      </trkpt>
      <trkpt lat="42.79776" lon="-0.53176">
        <ele>1568.608</ele>
        <time>2021-04-18T10:37:30Z</time>
      </trkpt>
      <trkpt lat="42.79738" lon="-0.53155">
        <ele>1566.574</ele>
        <time>2019-12-06T16:44:22Z</time>
      </trkpt>
      <trkpt lat="42.79718" lon="-0.5317">
        <ele>1569.287</ele>
        <time>2019-12-06T16:44:42Z</time>
      </trkpt>
      <trkpt lat="42.79699" lon="-0.53088">
        <ele>1574.343</ele>
        <time>2019-12-06T16:45:02Z</time>
      </trkpt>
      <trkpt lat="42.79654" lon="-0.52984">
        <ele>1586.632</ele>
        <time>2021-04-18T10:38:50Z</time>
      </trkpt>
      <trkpt lat="42.79633" lon="-0.52894">
        <ele>1593.519</ele>
        <time>2021-04-18T10:39:10Z</time>
      </trkpt>
      <trkpt lat="42.79639" lon="-0.52848">
        <ele>1596.91</ele>
        <time>2019-12-06T16:45:42Z</time>
      </trkpt>
      <trkpt lat="42.79625" lon="-0.52698">
        <ele>1624.929</ele>
        <time>2019-12-06T16:46:42Z</time>
      </trkpt>
      <trkpt lat="42.7959" lon="-0.52642">
        <ele>1630.17</ele>
        <time>2019-12-06T16:47:02Z</time>
      </trkpt>
      <trkpt lat="42.79582" lon="-0.52567">
        <ele>1631.747</ele>
        <time>2019-12-06T16:47:22Z</time>
      </trkpt>
    </trkseg>
  </trk>
</gpx>